<?xml version="1.0" encoding="UTF-8"?>
<gpx version="1.1" creator="2bulu-scraper" xmlns="http://www.topografix.com/GPX/1/1">
  <metadata><name>峨眉山优惠路线</name><desc>source: 2bulu.com trackId=83966286; exported 2026-09-01T16:26:32.601Z</desc>
    <bounds minlat="29.522724" minlon="103.32679" maxlat="29.583128" maxlon="103.441317"/>
    <link href="https://www.2bulu.com/track/t-wThBfsl0mTjp%252FR2KBg5Tzw%253D%253D.htm"><text>2bulu 源页面</text></link>
  </metadata>
  <wpt lat="29.565692" lon="103.434295"><ele>594</ele><name></name></wpt>
  <wpt lat="29.565358" lon="103.42125"><ele>839</ele><name></name></wpt>
  <wpt lat="29.566613" lon="103.407988"><ele>818</ele><name></name></wpt>
  <wpt lat="29.554613" lon="103.384545"><ele>983</ele><name></name></wpt>
  <wpt lat="29.551172" lon="103.373008"><ele>1260</ele><name></name></wpt>
  <wpt lat="29.55025" lon="103.36995"><ele>1264</ele><name></name></wpt>
  <wpt lat="29.550263" lon="103.356933"><ele>1741</ele><name></name></wpt>
  <wpt lat="29.550008" lon="103.356872"><ele>1752</ele><name></name></wpt>
  <wpt lat="29.56077" lon="103.351508"><ele>1707</ele><name></name></wpt>
  <wpt lat="29.56135" lon="103.345275"><ele>1816</ele><name></name></wpt>
  <wpt lat="29.558772" lon="103.344208"><ele>2062</ele><name></name></wpt>
  <wpt lat="29.558405" lon="103.343995"><ele>2077</ele><name></name></wpt>
  <wpt lat="29.55732" lon="103.343712"><ele>2076</ele><name></name></wpt>
  <wpt lat="29.549367" lon="103.341928"><ele>2281</ele><name></name></wpt>
  <wpt lat="29.547083" lon="103.339888"><ele>2384</ele><name></name></wpt>
  <wpt lat="29.546833" lon="103.339303"><ele>2412</ele><name></name></wpt>
  <wpt lat="29.54682" lon="103.33905"><ele>2413</ele><name></name></wpt>
  <wpt lat="29.543987" lon="103.334083"><ele>2434</ele><name></name></wpt>
  <wpt lat="29.543142" lon="103.332987"><ele>2428</ele><name></name></wpt>
  <wpt lat="29.529958" lon="103.327287"><ele>2858</ele><name></name></wpt>
  <wpt lat="29.528103" lon="103.330955"><ele>2919</ele><name></name></wpt>
  <wpt lat="29.527275" lon="103.332458"><ele>2954</ele><name></name></wpt>
  <wpt lat="29.522997" lon="103.336578"><ele>3070</ele><name></name></wpt>
  <wpt lat="29.523087" lon="103.334663"><ele>3038</ele><name></name></wpt>
  <wpt lat="29.558487" lon="103.344117"><ele>2068</ele><name></name></wpt>
  <wpt lat="29.581338" lon="103.384322"><ele>969</ele><name></name></wpt>
  <trk><name>峨眉山优惠路线</name>
      <trkseg>
        <trkpt lat="29.570358" lon="103.441317"><ele>538.22565</ele><time>2026-05-09T04:50:17.000Z</time></trkpt>
        <trkpt lat="29.570322" lon="103.441284"><ele>539.35535</ele><time>2026-05-09T04:50:23.000Z</time></trkpt>
        <trkpt lat="29.570271" lon="103.441263"><ele>538.5028</ele><time>2026-05-09T04:50:27.000Z</time></trkpt>
        <trkpt lat="29.570217" lon="103.441245"><ele>538.823</ele><time>2026-05-09T04:50:31.000Z</time></trkpt>
        <trkpt lat="29.57017" lon="103.441218"><ele>538.7971</ele><time>2026-05-09T04:50:35.000Z</time></trkpt>
        <trkpt lat="29.570127" lon="103.441188"><ele>539.2562</ele><time>2026-05-09T04:50:40.000Z</time></trkpt>
        <trkpt lat="29.570073" lon="103.441157"><ele>538.4844</ele><time>2026-05-09T04:50:44.000Z</time></trkpt>
        <trkpt lat="29.570027" lon="103.441122"><ele>538.36066</ele><time>2026-05-09T04:50:48.000Z</time></trkpt>
        <trkpt lat="29.569987" lon="103.441097"><ele>538.9026</ele><time>2026-05-09T04:50:51.000Z</time></trkpt>
        <trkpt lat="29.569942" lon="103.441067"><ele>539.3766</ele><time>2026-05-09T04:50:56.000Z</time></trkpt>
        <trkpt lat="29.569893" lon="103.441039"><ele>539.7891</ele><time>2026-05-09T04:51:00.000Z</time></trkpt>
        <trkpt lat="29.56984" lon="103.441022"><ele>539.46967</ele><time>2026-05-09T04:51:04.000Z</time></trkpt>
        <trkpt lat="29.569781" lon="103.441015"><ele>539.78204</ele><time>2026-05-09T04:51:08.000Z</time></trkpt>
        <trkpt lat="29.569729" lon="103.441014"><ele>539.3624</ele><time>2026-05-09T04:51:11.000Z</time></trkpt>
        <trkpt lat="29.569673" lon="103.440997"><ele>539.5774</ele><time>2026-05-09T04:51:14.000Z</time></trkpt>
        <trkpt lat="29.569622" lon="103.441006"><ele>539.3863</ele><time>2026-05-09T04:51:19.000Z</time></trkpt>
        <trkpt lat="29.56957" lon="103.441009"><ele>538.62537</ele><time>2026-05-09T04:51:23.000Z</time></trkpt>
        <trkpt lat="29.569512" lon="103.441008"><ele>538.61005</ele><time>2026-05-09T04:51:27.000Z</time></trkpt>
        <trkpt lat="29.56945" lon="103.441018"><ele>537.9132</ele><time>2026-05-09T04:51:32.000Z</time></trkpt>
        <trkpt lat="29.569403" lon="103.441022"><ele>538.7717</ele><time>2026-05-09T04:51:35.000Z</time></trkpt>
        <trkpt lat="29.569376" lon="103.440968"><ele>535.8077</ele><time>2026-05-09T04:51:39.000Z</time></trkpt>
        <trkpt lat="29.569328" lon="103.440945"><ele>533.4767</ele><time>2026-05-09T04:51:44.000Z</time></trkpt>
        <trkpt lat="29.569272" lon="103.440954"><ele>534.0046</ele><time>2026-05-09T04:51:48.000Z</time></trkpt>
        <trkpt lat="29.569222" lon="103.440956"><ele>534.98096</ele><time>2026-05-09T04:51:52.000Z</time></trkpt>
        <trkpt lat="29.569167" lon="103.44095"><ele>536.51495</ele><time>2026-05-09T04:51:56.000Z</time></trkpt>
        <trkpt lat="29.569119" lon="103.440969"><ele>533.94415</ele><time>2026-05-09T04:52:01.000Z</time></trkpt>
        <trkpt lat="29.569159" lon="103.440944"><ele>534.98065</ele><time>2026-05-09T04:52:40.000Z</time></trkpt>
        <trkpt lat="29.569113" lon="103.440951"><ele>532.35785</ele><time>2026-05-09T04:53:17.000Z</time></trkpt>
        <trkpt lat="29.569065" lon="103.440918"><ele>532.044</ele><time>2026-05-09T04:53:57.000Z</time></trkpt>
        <trkpt lat="29.56907" lon="103.440862"><ele>531.94244</ele><time>2026-05-09T04:54:00.000Z</time></trkpt>
        <trkpt lat="29.569069" lon="103.440808"><ele>531.96423</ele><time>2026-05-09T04:54:03.000Z</time></trkpt>
        <trkpt lat="29.569056" lon="103.440742"><ele>533.47656</ele><time>2026-05-09T04:54:07.000Z</time></trkpt>
        <trkpt lat="29.569047" lon="103.440689"><ele>533.49963</ele><time>2026-05-09T04:54:12.000Z</time></trkpt>
        <trkpt lat="29.569051" lon="103.440627"><ele>534.3664</ele><time>2026-05-09T04:54:17.000Z</time></trkpt>
        <trkpt lat="29.569042" lon="103.440566"><ele>534.3899</ele><time>2026-05-09T04:54:21.000Z</time></trkpt>
        <trkpt lat="29.569033" lon="103.440504"><ele>535.5423</ele><time>2026-05-09T04:54:26.000Z</time></trkpt>
        <trkpt lat="29.569026" lon="103.440426"><ele>536.6171</ele><time>2026-05-09T04:54:31.000Z</time></trkpt>
        <trkpt lat="29.569029" lon="103.440362"><ele>535.2874</ele><time>2026-05-09T04:54:37.000Z</time></trkpt>
        <trkpt lat="29.569021" lon="103.440303"><ele>538.15247</ele><time>2026-05-09T04:54:40.000Z</time></trkpt>
        <trkpt lat="29.568993" lon="103.440256"><ele>538.8087</ele><time>2026-05-09T04:54:44.000Z</time></trkpt>
        <trkpt lat="29.568974" lon="103.440201"><ele>539.48114</ele><time>2026-05-09T04:54:49.000Z</time></trkpt>
        <trkpt lat="29.568937" lon="103.440158"><ele>541.551</ele><time>2026-05-09T04:54:53.000Z</time></trkpt>
        <trkpt lat="29.568894" lon="103.440095"><ele>544.4351</ele><time>2026-05-09T04:54:56.000Z</time></trkpt>
        <trkpt lat="29.568847" lon="103.440042"><ele>545.39343</ele><time>2026-05-09T04:55:02.000Z</time></trkpt>
        <trkpt lat="29.568798" lon="103.439999"><ele>546.5436</ele><time>2026-05-09T04:55:06.000Z</time></trkpt>
        <trkpt lat="29.568747" lon="103.439948"><ele>545.41797</ele><time>2026-05-09T04:55:11.000Z</time></trkpt>
        <trkpt lat="29.568715" lon="103.439894"><ele>544.6714</ele><time>2026-05-09T04:55:16.000Z</time></trkpt>
        <trkpt lat="29.568683" lon="103.43985"><ele>545.53</ele><time>2026-05-09T04:55:20.000Z</time></trkpt>
        <trkpt lat="29.568638" lon="103.439776"><ele>547.2829</ele><time>2026-05-09T04:55:24.000Z</time></trkpt>
        <trkpt lat="29.568605" lon="103.439711"><ele>546.55176</ele><time>2026-05-09T04:55:30.000Z</time></trkpt>
        <trkpt lat="29.568578" lon="103.439667"><ele>545.6185</ele><time>2026-05-09T04:55:34.000Z</time></trkpt>
        <trkpt lat="29.568544" lon="103.439622"><ele>544.5386</ele><time>2026-05-09T04:55:38.000Z</time></trkpt>
        <trkpt lat="29.56853" lon="103.439563"><ele>547.5321</ele><time>2026-05-09T04:55:41.000Z</time></trkpt>
        <trkpt lat="29.568491" lon="103.439502"><ele>548.9919</ele><time>2026-05-09T04:55:45.000Z</time></trkpt>
        <trkpt lat="29.56845" lon="103.439465"><ele>551.2183</ele><time>2026-05-09T04:55:49.000Z</time></trkpt>
        <trkpt lat="29.568408" lon="103.439434"><ele>553.5525</ele><time>2026-05-09T04:55:51.000Z</time></trkpt>
        <trkpt lat="29.568369" lon="103.439385"><ele>553.8506</ele><time>2026-05-09T04:55:56.000Z</time></trkpt>
        <trkpt lat="29.568328" lon="103.439351"><ele>553.7312</ele><time>2026-05-09T04:56:00.000Z</time></trkpt>
        <trkpt lat="29.568282" lon="103.439329"><ele>553.5861</ele><time>2026-05-09T04:56:04.000Z</time></trkpt>
        <trkpt lat="29.568246" lon="103.439278"><ele>553.19135</ele><time>2026-05-09T04:56:08.000Z</time></trkpt>
        <trkpt lat="29.568197" lon="103.439241"><ele>553.6364</ele><time>2026-05-09T04:56:11.000Z</time></trkpt>
        <trkpt lat="29.568159" lon="103.439199"><ele>554.78265</ele><time>2026-05-09T04:56:15.000Z</time></trkpt>
        <trkpt lat="29.568134" lon="103.439153"><ele>552.48737</ele><time>2026-05-09T04:56:21.000Z</time></trkpt>
        <trkpt lat="29.568096" lon="103.439112"><ele>552.4813</ele><time>2026-05-09T04:56:23.000Z</time></trkpt>
        <trkpt lat="29.568056" lon="103.439087"><ele>554.2981</ele><time>2026-05-09T04:56:28.000Z</time></trkpt>
        <trkpt lat="29.568031" lon="103.439038"><ele>552.3422</ele><time>2026-05-09T04:56:33.000Z</time></trkpt>
        <trkpt lat="29.567976" lon="103.439003"><ele>553.59076</ele><time>2026-05-09T04:56:37.000Z</time></trkpt>
        <trkpt lat="29.567946" lon="103.43895"><ele>553.7148</ele><time>2026-05-09T04:56:42.000Z</time></trkpt>
        <trkpt lat="29.567916" lon="103.438906"><ele>554.2067</ele><time>2026-05-09T04:56:46.000Z</time></trkpt>
        <trkpt lat="29.567879" lon="103.43886"><ele>552.9872</ele><time>2026-05-09T04:56:50.000Z</time></trkpt>
        <trkpt lat="29.567844" lon="103.438807"><ele>552.6571</ele><time>2026-05-09T04:56:54.000Z</time></trkpt>
        <trkpt lat="29.567815" lon="103.438763"><ele>552.7581</ele><time>2026-05-09T04:56:57.000Z</time></trkpt>
        <trkpt lat="29.567782" lon="103.438707"><ele>553.31903</ele><time>2026-05-09T04:57:02.000Z</time></trkpt>
        <trkpt lat="29.567745" lon="103.438667"><ele>553.1227</ele><time>2026-05-09T04:57:06.000Z</time></trkpt>
        <trkpt lat="29.567722" lon="103.438615"><ele>553.85626</ele><time>2026-05-09T04:57:12.000Z</time></trkpt>
        <trkpt lat="29.567687" lon="103.438577"><ele>555.6523</ele><time>2026-05-09T04:57:15.000Z</time></trkpt>
        <trkpt lat="29.567648" lon="103.438539"><ele>552.333</ele><time>2026-05-09T04:57:20.000Z</time></trkpt>
        <trkpt lat="29.567624" lon="103.43849"><ele>553.9809</ele><time>2026-05-09T04:57:24.000Z</time></trkpt>
        <trkpt lat="29.567587" lon="103.438456"><ele>556.19617</ele><time>2026-05-09T04:57:27.000Z</time></trkpt>
        <trkpt lat="29.567564" lon="103.438412"><ele>556.0083</ele><time>2026-05-09T04:57:31.000Z</time></trkpt>
        <trkpt lat="29.567524" lon="103.438363"><ele>555.2296</ele><time>2026-05-09T04:57:36.000Z</time></trkpt>
        <trkpt lat="29.567494" lon="103.438322"><ele>555.34607</ele><time>2026-05-09T04:57:39.000Z</time></trkpt>
        <trkpt lat="29.567455" lon="103.438285"><ele>556.885</ele><time>2026-05-09T04:57:44.000Z</time></trkpt>
        <trkpt lat="29.567414" lon="103.438262"><ele>555.49</ele><time>2026-05-09T04:57:48.000Z</time></trkpt>
        <trkpt lat="29.567401" lon="103.438208"><ele>553.5818</ele><time>2026-05-09T04:57:51.000Z</time></trkpt>
        <trkpt lat="29.567372" lon="103.438167"><ele>556.5013</ele><time>2026-05-09T04:57:55.000Z</time></trkpt>
        <trkpt lat="29.567358" lon="103.438116"><ele>556.11914</ele><time>2026-05-09T04:57:59.000Z</time></trkpt>
        <trkpt lat="29.567324" lon="103.438065"><ele>557.44824</ele><time>2026-05-09T04:58:04.000Z</time></trkpt>
        <trkpt lat="29.567298" lon="103.43802"><ele>558.3369</ele><time>2026-05-09T04:58:08.000Z</time></trkpt>
        <trkpt lat="29.567269" lon="103.437972"><ele>558.7783</ele><time>2026-05-09T04:58:15.000Z</time></trkpt>
        <trkpt lat="29.567245" lon="103.437915"><ele>559.52234</ele><time>2026-05-09T04:58:20.000Z</time></trkpt>
        <trkpt lat="29.56721" lon="103.43787"><ele>559.58417</ele><time>2026-05-09T04:58:26.000Z</time></trkpt>
        <trkpt lat="29.567193" lon="103.437822"><ele>560.1781</ele><time>2026-05-09T04:58:30.000Z</time></trkpt>
        <trkpt lat="29.567159" lon="103.437782"><ele>560.1455</ele><time>2026-05-09T04:58:35.000Z</time></trkpt>
        <trkpt lat="29.567131" lon="103.437738"><ele>559.806</ele><time>2026-05-09T04:58:41.000Z</time></trkpt>
        <trkpt lat="29.567097" lon="103.437702"><ele>560.42645</ele><time>2026-05-09T04:58:47.000Z</time></trkpt>
        <trkpt lat="29.567075" lon="103.437649"><ele>561.39154</ele><time>2026-05-09T04:58:53.000Z</time></trkpt>
        <trkpt lat="29.567049" lon="103.437602"><ele>561.171</ele><time>2026-05-09T04:58:57.000Z</time></trkpt>
        <trkpt lat="29.567021" lon="103.437555"><ele>562.3009</ele><time>2026-05-09T04:59:02.000Z</time></trkpt>
        <trkpt lat="29.566988" lon="103.437512"><ele>563.418</ele><time>2026-05-09T04:59:06.000Z</time></trkpt>
        <trkpt lat="29.566959" lon="103.437469"><ele>564.23773</ele><time>2026-05-09T04:59:11.000Z</time></trkpt>
        <trkpt lat="29.566929" lon="103.437422"><ele>564.46454</ele><time>2026-05-09T04:59:16.000Z</time></trkpt>
        <trkpt lat="29.566903" lon="103.437362"><ele>564.5381</ele><time>2026-05-09T04:59:21.000Z</time></trkpt>
        <trkpt lat="29.56688" lon="103.437314"><ele>564.54395</ele><time>2026-05-09T04:59:25.000Z</time></trkpt>
        <trkpt lat="29.566854" lon="103.437263"><ele>564.31256</ele><time>2026-05-09T04:59:28.000Z</time></trkpt>
        <trkpt lat="29.566827" lon="103.437215"><ele>565.45844</ele><time>2026-05-09T04:59:33.000Z</time></trkpt>
        <trkpt lat="29.566794" lon="103.437165"><ele>566.0429</ele><time>2026-05-09T04:59:38.000Z</time></trkpt>
        <trkpt lat="29.566768" lon="103.437114"><ele>566.35376</ele><time>2026-05-09T04:59:42.000Z</time></trkpt>
        <trkpt lat="29.566744" lon="103.437061"><ele>566.6577</ele><time>2026-05-09T04:59:47.000Z</time></trkpt>
        <trkpt lat="29.5667" lon="103.437034"><ele>567.68726</ele><time>2026-05-09T04:59:52.000Z</time></trkpt>
        <trkpt lat="29.566658" lon="103.437005"><ele>568.3187</ele><time>2026-05-09T04:59:55.000Z</time></trkpt>
        <trkpt lat="29.566618" lon="103.436974"><ele>568.9301</ele><time>2026-05-09T04:59:58.000Z</time></trkpt>
        <trkpt lat="29.566576" lon="103.436949"><ele>570.0336</ele><time>2026-05-09T05:00:02.000Z</time></trkpt>
        <trkpt lat="29.566542" lon="103.436908"><ele>569.7851</ele><time>2026-05-09T05:00:07.000Z</time></trkpt>
        <trkpt lat="29.566515" lon="103.436864"><ele>570.74457</ele><time>2026-05-09T05:00:11.000Z</time></trkpt>
        <trkpt lat="29.566484" lon="103.436815"><ele>571.4225</ele><time>2026-05-09T05:00:15.000Z</time></trkpt>
        <trkpt lat="29.566475" lon="103.43676"><ele>569.98285</ele><time>2026-05-09T05:00:18.000Z</time></trkpt>
        <trkpt lat="29.566486" lon="103.436699"><ele>569.239</ele><time>2026-05-09T05:00:22.000Z</time></trkpt>
        <trkpt lat="29.566487" lon="103.436645"><ele>568.4555</ele><time>2026-05-09T05:00:26.000Z</time></trkpt>
        <trkpt lat="29.566449" lon="103.436607"><ele>569.2307</ele><time>2026-05-09T05:00:31.000Z</time></trkpt>
        <trkpt lat="29.566428" lon="103.436558"><ele>569.63385</ele><time>2026-05-09T05:00:35.000Z</time></trkpt>
        <trkpt lat="29.566403" lon="103.436513"><ele>569.1605</ele><time>2026-05-09T05:00:39.000Z</time></trkpt>
        <trkpt lat="29.566375" lon="103.436461"><ele>569.7675</ele><time>2026-05-09T05:00:43.000Z</time></trkpt>
        <trkpt lat="29.566334" lon="103.436412"><ele>570.4653</ele><time>2026-05-09T05:00:47.000Z</time></trkpt>
        <trkpt lat="29.566302" lon="103.436372"><ele>572.533</ele><time>2026-05-09T05:00:50.000Z</time></trkpt>
        <trkpt lat="29.566277" lon="103.436325"><ele>572.80475</ele><time>2026-05-09T05:00:54.000Z</time></trkpt>
        <trkpt lat="29.566233" lon="103.436288"><ele>574.2177</ele><time>2026-05-09T05:00:59.000Z</time></trkpt>
        <trkpt lat="29.566224" lon="103.436233"><ele>573.7485</ele><time>2026-05-09T05:01:02.000Z</time></trkpt>
        <trkpt lat="29.566224" lon="103.436176"><ele>573.5128</ele><time>2026-05-09T05:01:07.000Z</time></trkpt>
        <trkpt lat="29.566214" lon="103.436123"><ele>573.6893</ele><time>2026-05-09T05:01:12.000Z</time></trkpt>
        <trkpt lat="29.566204" lon="103.436066"><ele>573.64545</ele><time>2026-05-09T05:01:16.000Z</time></trkpt>
        <trkpt lat="29.566181" lon="103.436013"><ele>574.9129</ele><time>2026-05-09T05:01:20.000Z</time></trkpt>
        <trkpt lat="29.566169" lon="103.435959"><ele>573.80707</ele><time>2026-05-09T05:01:25.000Z</time></trkpt>
        <trkpt lat="29.566161" lon="103.435897"><ele>573.16864</ele><time>2026-05-09T05:01:29.000Z</time></trkpt>
        <trkpt lat="29.566143" lon="103.435849"><ele>573.21857</ele><time>2026-05-09T05:01:33.000Z</time></trkpt>
        <trkpt lat="29.566122" lon="103.435796"><ele>573.3428</ele><time>2026-05-09T05:01:36.000Z</time></trkpt>
        <trkpt lat="29.566115" lon="103.435724"><ele>573.6853</ele><time>2026-05-09T05:01:41.000Z</time></trkpt>
        <trkpt lat="29.566102" lon="103.435659"><ele>574.52325</ele><time>2026-05-09T05:01:45.000Z</time></trkpt>
        <trkpt lat="29.56608" lon="103.435611"><ele>575.54913</ele><time>2026-05-09T05:01:48.000Z</time></trkpt>
        <trkpt lat="29.566081" lon="103.43555"><ele>577.33575</ele><time>2026-05-09T05:01:52.000Z</time></trkpt>
        <trkpt lat="29.566055" lon="103.435507"><ele>576.8074</ele><time>2026-05-09T05:01:57.000Z</time></trkpt>
        <trkpt lat="29.566029" lon="103.435461"><ele>578.0722</ele><time>2026-05-09T05:02:01.000Z</time></trkpt>
        <trkpt lat="29.566015" lon="103.435405"><ele>578.642</ele><time>2026-05-09T05:02:04.000Z</time></trkpt>
        <trkpt lat="29.566008" lon="103.435353"><ele>579.62915</ele><time>2026-05-09T05:02:08.000Z</time></trkpt>
        <trkpt lat="29.565992" lon="103.435305"><ele>580.6421</ele><time>2026-05-09T05:02:11.000Z</time></trkpt>
        <trkpt lat="29.565959" lon="103.43526"><ele>581.2548</ele><time>2026-05-09T05:02:15.000Z</time></trkpt>
        <trkpt lat="29.565921" lon="103.435223"><ele>581.0301</ele><time>2026-05-09T05:02:23.000Z</time></trkpt>
        <trkpt lat="29.565904" lon="103.435173"><ele>583.7523</ele><time>2026-05-09T05:02:26.000Z</time></trkpt>
        <trkpt lat="29.565882" lon="103.435125"><ele>584.2067</ele><time>2026-05-09T05:02:30.000Z</time></trkpt>
        <trkpt lat="29.56585" lon="103.435082"><ele>585.901</ele><time>2026-05-09T05:02:33.000Z</time></trkpt>
        <trkpt lat="29.565823" lon="103.435026"><ele>582.8348</ele><time>2026-05-09T05:02:45.000Z</time></trkpt>
        <trkpt lat="29.565794" lon="103.434962"><ele>581.7066</ele><time>2026-05-09T05:02:51.000Z</time></trkpt>
        <trkpt lat="29.565752" lon="103.434942"><ele>582.76904</ele><time>2026-05-09T05:02:55.000Z</time></trkpt>
        <trkpt lat="29.565704" lon="103.434899"><ele>583.9639</ele><time>2026-05-09T05:03:01.000Z</time></trkpt>
        <trkpt lat="29.565662" lon="103.434865"><ele>581.0893</ele><time>2026-05-09T05:03:05.000Z</time></trkpt>
        <trkpt lat="29.565636" lon="103.434823"><ele>581.48004</ele><time>2026-05-09T05:03:08.000Z</time></trkpt>
        <trkpt lat="29.56561" lon="103.43478"><ele>582.1805</ele><time>2026-05-09T05:03:11.000Z</time></trkpt>
        <trkpt lat="29.565577" lon="103.434736"><ele>582.5747</ele><time>2026-05-09T05:03:15.000Z</time></trkpt>
        <trkpt lat="29.565552" lon="103.434676"><ele>582.9724</ele><time>2026-05-09T05:03:19.000Z</time></trkpt>
        <trkpt lat="29.565556" lon="103.434624"><ele>584.00323</ele><time>2026-05-09T05:03:22.000Z</time></trkpt>
        <trkpt lat="29.565561" lon="103.434562"><ele>584.91895</ele><time>2026-05-09T05:03:26.000Z</time></trkpt>
        <trkpt lat="29.565584" lon="103.434499"><ele>583.3348</ele><time>2026-05-09T05:03:29.000Z</time></trkpt>
        <trkpt lat="29.565614" lon="103.434442"><ele>584.4376</ele><time>2026-05-09T05:03:34.000Z</time></trkpt>
        <trkpt lat="29.565648" lon="103.434392"><ele>584.97235</ele><time>2026-05-09T05:03:38.000Z</time></trkpt>
        <trkpt lat="29.565677" lon="103.434346"><ele>586.331</ele><time>2026-05-09T05:03:44.000Z</time></trkpt>
        <trkpt lat="29.565677" lon="103.434294"><ele>590.5159</ele><time>2026-05-09T05:04:01.000Z</time></trkpt>
        <trkpt lat="29.565725" lon="103.434271"><ele>594.04877</ele><time>2026-05-09T05:04:27.000Z</time></trkpt>
        <trkpt lat="29.565752" lon="103.434217"><ele>592.89825</ele><time>2026-05-09T05:04:31.000Z</time></trkpt>
        <trkpt lat="29.565768" lon="103.434156"><ele>592.9062</ele><time>2026-05-09T05:04:35.000Z</time></trkpt>
        <trkpt lat="29.565749" lon="103.434104"><ele>594.29456</ele><time>2026-05-09T05:04:39.000Z</time></trkpt>
        <trkpt lat="29.565746" lon="103.434049"><ele>595.38416</ele><time>2026-05-09T05:04:43.000Z</time></trkpt>
        <trkpt lat="29.565737" lon="103.433983"><ele>594.6114</ele><time>2026-05-09T05:04:48.000Z</time></trkpt>
        <trkpt lat="29.56571" lon="103.433936"><ele>597.04816</ele><time>2026-05-09T05:04:52.000Z</time></trkpt>
        <trkpt lat="29.565716" lon="103.433884"><ele>597.3706</ele><time>2026-05-09T05:04:56.000Z</time></trkpt>
        <trkpt lat="29.565738" lon="103.433825"><ele>595.75494</ele><time>2026-05-09T05:05:00.000Z</time></trkpt>
        <trkpt lat="29.56574" lon="103.433755"><ele>596.93414</ele><time>2026-05-09T05:05:05.000Z</time></trkpt>
        <trkpt lat="29.56576" lon="103.433708"><ele>596.67737</ele><time>2026-05-09T05:05:11.000Z</time></trkpt>
        <trkpt lat="29.565763" lon="103.433644"><ele>597.3746</ele><time>2026-05-09T05:05:16.000Z</time></trkpt>
        <trkpt lat="29.565766" lon="103.433582"><ele>596.68933</ele><time>2026-05-09T05:05:20.000Z</time></trkpt>
        <trkpt lat="29.565746" lon="103.43353"><ele>597.08655</ele><time>2026-05-09T05:05:22.000Z</time></trkpt>
        <trkpt lat="29.565747" lon="103.433474"><ele>597.3743</ele><time>2026-05-09T05:05:26.000Z</time></trkpt>
        <trkpt lat="29.56573" lon="103.433423"><ele>599.9046</ele><time>2026-05-09T05:05:29.000Z</time></trkpt>
        <trkpt lat="29.56573" lon="103.433357"><ele>599.63727</ele><time>2026-05-09T05:05:33.000Z</time></trkpt>
        <trkpt lat="29.565733" lon="103.433299"><ele>598.86774</ele><time>2026-05-09T05:05:37.000Z</time></trkpt>
        <trkpt lat="29.565719" lon="103.433243"><ele>598.39075</ele><time>2026-05-09T05:05:41.000Z</time></trkpt>
        <trkpt lat="29.565704" lon="103.43319"><ele>599.1896</ele><time>2026-05-09T05:05:44.000Z</time></trkpt>
        <trkpt lat="29.565722" lon="103.433143"><ele>599.7423</ele><time>2026-05-09T05:05:46.000Z</time></trkpt>
        <trkpt lat="29.565718" lon="103.433086"><ele>598.75635</ele><time>2026-05-09T05:05:50.000Z</time></trkpt>
        <trkpt lat="29.565709" lon="103.433026"><ele>598.01025</ele><time>2026-05-09T05:05:54.000Z</time></trkpt>
        <trkpt lat="29.565699" lon="103.432958"><ele>599.2005</ele><time>2026-05-09T05:05:58.000Z</time></trkpt>
        <trkpt lat="29.565677" lon="103.4329"><ele>598.7299</ele><time>2026-05-09T05:06:01.000Z</time></trkpt>
        <trkpt lat="29.565672" lon="103.432846"><ele>602.8708</ele><time>2026-05-09T05:06:07.000Z</time></trkpt>
        <trkpt lat="29.565663" lon="103.432795"><ele>602.3318</ele><time>2026-05-09T05:06:11.000Z</time></trkpt>
        <trkpt lat="29.565599" lon="103.432767"><ele>600.29126</ele><time>2026-05-09T05:06:14.000Z</time></trkpt>
        <trkpt lat="29.565582" lon="103.432715"><ele>600.6824</ele><time>2026-05-09T05:06:17.000Z</time></trkpt>
        <trkpt lat="29.56558" lon="103.432661"><ele>599.99414</ele><time>2026-05-09T05:06:20.000Z</time></trkpt>
        <trkpt lat="29.565552" lon="103.432607"><ele>599.94244</ele><time>2026-05-09T05:06:24.000Z</time></trkpt>
        <trkpt lat="29.565556" lon="103.432546"><ele>603.48346</ele><time>2026-05-09T05:06:28.000Z</time></trkpt>
        <trkpt lat="29.565534" lon="103.432495"><ele>602.4849</ele><time>2026-05-09T05:06:32.000Z</time></trkpt>
        <trkpt lat="29.565505" lon="103.432446"><ele>602.69867</ele><time>2026-05-09T05:06:36.000Z</time></trkpt>
        <trkpt lat="29.565476" lon="103.432391"><ele>602.1687</ele><time>2026-05-09T05:06:41.000Z</time></trkpt>
        <trkpt lat="29.565461" lon="103.432334"><ele>603.68774</ele><time>2026-05-09T05:06:45.000Z</time></trkpt>
        <trkpt lat="29.565446" lon="103.432281"><ele>606.04724</ele><time>2026-05-09T05:06:49.000Z</time></trkpt>
        <trkpt lat="29.565428" lon="103.432226"><ele>605.7478</ele><time>2026-05-09T05:06:53.000Z</time></trkpt>
        <trkpt lat="29.565402" lon="103.432177"><ele>605.4313</ele><time>2026-05-09T05:06:59.000Z</time></trkpt>
        <trkpt lat="29.565399" lon="103.432117"><ele>605.8617</ele><time>2026-05-09T05:07:04.000Z</time></trkpt>
        <trkpt lat="29.565389" lon="103.432063"><ele>606.7747</ele><time>2026-05-09T05:07:07.000Z</time></trkpt>
        <trkpt lat="29.565347" lon="103.432015"><ele>607.9864</ele><time>2026-05-09T05:07:11.000Z</time></trkpt>
        <trkpt lat="29.565328" lon="103.431968"><ele>609.142</ele><time>2026-05-09T05:07:15.000Z</time></trkpt>
        <trkpt lat="29.565334" lon="103.431904"><ele>608.34515</ele><time>2026-05-09T05:07:19.000Z</time></trkpt>
        <trkpt lat="29.565357" lon="103.431845"><ele>608.516</ele><time>2026-05-09T05:07:23.000Z</time></trkpt>
        <trkpt lat="29.565375" lon="103.431793"><ele>608.7573</ele><time>2026-05-09T05:07:27.000Z</time></trkpt>
        <trkpt lat="29.565388" lon="103.431736"><ele>610.18695</ele><time>2026-05-09T05:07:31.000Z</time></trkpt>
        <trkpt lat="29.565416" lon="103.431683"><ele>611.04126</ele><time>2026-05-09T05:07:36.000Z</time></trkpt>
        <trkpt lat="29.565437" lon="103.43163"><ele>611.3598</ele><time>2026-05-09T05:07:40.000Z</time></trkpt>
        <trkpt lat="29.565448" lon="103.431566"><ele>613.34204</ele><time>2026-05-09T05:07:45.000Z</time></trkpt>
        <trkpt lat="29.565455" lon="103.431507"><ele>614.6798</ele><time>2026-05-09T05:07:50.000Z</time></trkpt>
        <trkpt lat="29.565474" lon="103.431451"><ele>615.803</ele><time>2026-05-09T05:07:57.000Z</time></trkpt>
        <trkpt lat="29.56548" lon="103.431388"><ele>618.4976</ele><time>2026-05-09T05:08:03.000Z</time></trkpt>
        <trkpt lat="29.565485" lon="103.431336"><ele>619.2237</ele><time>2026-05-09T05:08:08.000Z</time></trkpt>
        <trkpt lat="29.56555" lon="103.431287"><ele>621.168</ele><time>2026-05-09T05:08:14.000Z</time></trkpt>
        <trkpt lat="29.565536" lon="103.431228"><ele>620.64777</ele><time>2026-05-09T05:08:16.000Z</time></trkpt>
        <trkpt lat="29.565513" lon="103.431176"><ele>623.0034</ele><time>2026-05-09T05:08:20.000Z</time></trkpt>
        <trkpt lat="29.565523" lon="103.431119"><ele>622.4319</ele><time>2026-05-09T05:08:23.000Z</time></trkpt>
        <trkpt lat="29.565538" lon="103.431059"><ele>623.48804</ele><time>2026-05-09T05:08:29.000Z</time></trkpt>
        <trkpt lat="29.565522" lon="103.43101"><ele>624.79004</ele><time>2026-05-09T05:08:33.000Z</time></trkpt>
        <trkpt lat="29.565497" lon="103.430963"><ele>623.5691</ele><time>2026-05-09T05:08:37.000Z</time></trkpt>
        <trkpt lat="29.565447" lon="103.430935"><ele>626.5958</ele><time>2026-05-09T05:08:43.000Z</time></trkpt>
        <trkpt lat="29.565392" lon="103.430918"><ele>627.92896</ele><time>2026-05-09T05:08:48.000Z</time></trkpt>
        <trkpt lat="29.565364" lon="103.430864"><ele>625.90594</ele><time>2026-05-09T05:08:52.000Z</time></trkpt>
        <trkpt lat="29.56538" lon="103.430798"><ele>624.6783</ele><time>2026-05-09T05:08:55.000Z</time></trkpt>
        <trkpt lat="29.565368" lon="103.430747"><ele>625.2552</ele><time>2026-05-09T05:08:58.000Z</time></trkpt>
        <trkpt lat="29.565376" lon="103.430694"><ele>626.5639</ele><time>2026-05-09T05:09:02.000Z</time></trkpt>
        <trkpt lat="29.565368" lon="103.430632"><ele>627.3362</ele><time>2026-05-09T05:09:06.000Z</time></trkpt>
        <trkpt lat="29.565355" lon="103.430576"><ele>626.9157</ele><time>2026-05-09T05:09:11.000Z</time></trkpt>
        <trkpt lat="29.565336" lon="103.430528"><ele>627.5876</ele><time>2026-05-09T05:09:16.000Z</time></trkpt>
        <trkpt lat="29.565314" lon="103.430464"><ele>628.4881</ele><time>2026-05-09T05:09:20.000Z</time></trkpt>
        <trkpt lat="29.565325" lon="103.430406"><ele>626.0887</ele><time>2026-05-09T05:09:24.000Z</time></trkpt>
        <trkpt lat="29.56532" lon="103.430343"><ele>629.9937</ele><time>2026-05-09T05:09:28.000Z</time></trkpt>
        <trkpt lat="29.565314" lon="103.430282"><ele>629.8588</ele><time>2026-05-09T05:09:34.000Z</time></trkpt>
        <trkpt lat="29.565302" lon="103.430224"><ele>630.52106</ele><time>2026-05-09T05:09:38.000Z</time></trkpt>
        <trkpt lat="29.565327" lon="103.430168"><ele>631.71783</ele><time>2026-05-09T05:09:41.000Z</time></trkpt>
        <trkpt lat="29.565321" lon="103.430104"><ele>630.49854</ele><time>2026-05-09T05:09:45.000Z</time></trkpt>
        <trkpt lat="29.5653" lon="103.430044"><ele>632.7683</ele><time>2026-05-09T05:09:50.000Z</time></trkpt>
        <trkpt lat="29.565273" lon="103.429987"><ele>633.9815</ele><time>2026-05-09T05:09:55.000Z</time></trkpt>
        <trkpt lat="29.565239" lon="103.429924"><ele>634.7612</ele><time>2026-05-09T05:10:00.000Z</time></trkpt>
        <trkpt lat="29.565188" lon="103.429889"><ele>634.5116</ele><time>2026-05-09T05:10:03.000Z</time></trkpt>
        <trkpt lat="29.565158" lon="103.429838"><ele>633.8347</ele><time>2026-05-09T05:10:06.000Z</time></trkpt>
        <trkpt lat="29.565141" lon="103.429788"><ele>635.2387</ele><time>2026-05-09T05:10:09.000Z</time></trkpt>
        <trkpt lat="29.565106" lon="103.429749"><ele>634.9731</ele><time>2026-05-09T05:10:13.000Z</time></trkpt>
        <trkpt lat="29.565082" lon="103.429696"><ele>635.4885</ele><time>2026-05-09T05:10:16.000Z</time></trkpt>
        <trkpt lat="29.56503" lon="103.429637"><ele>635.38306</ele><time>2026-05-09T05:10:19.000Z</time></trkpt>
        <trkpt lat="29.564992" lon="103.429601"><ele>635.0036</ele><time>2026-05-09T05:10:22.000Z</time></trkpt>
        <trkpt lat="29.564975" lon="103.429552"><ele>634.2041</ele><time>2026-05-09T05:10:25.000Z</time></trkpt>
        <trkpt lat="29.564937" lon="103.429507"><ele>633.33905</ele><time>2026-05-09T05:10:29.000Z</time></trkpt>
        <trkpt lat="29.564901" lon="103.429463"><ele>633.6872</ele><time>2026-05-09T05:10:33.000Z</time></trkpt>
        <trkpt lat="29.564871" lon="103.429418"><ele>633.5448</ele><time>2026-05-09T05:10:39.000Z</time></trkpt>
        <trkpt lat="29.56486" lon="103.429366"><ele>633.74786</ele><time>2026-05-09T05:10:42.000Z</time></trkpt>
        <trkpt lat="29.56487" lon="103.4293"><ele>635.2042</ele><time>2026-05-09T05:10:46.000Z</time></trkpt>
        <trkpt lat="29.564896" lon="103.429256"><ele>634.1538</ele><time>2026-05-09T05:10:48.000Z</time></trkpt>
        <trkpt lat="29.564864" lon="103.42921"><ele>633.929</ele><time>2026-05-09T05:10:51.000Z</time></trkpt>
        <trkpt lat="29.564809" lon="103.429164"><ele>638.1572</ele><time>2026-05-09T05:10:56.000Z</time></trkpt>
        <trkpt lat="29.564776" lon="103.429117"><ele>641.51996</ele><time>2026-05-09T05:11:01.000Z</time></trkpt>
        <trkpt lat="29.564796" lon="103.42907"><ele>642.88605</ele><time>2026-05-09T05:11:03.000Z</time></trkpt>
        <trkpt lat="29.564797" lon="103.429003"><ele>644.56525</ele><time>2026-05-09T05:11:08.000Z</time></trkpt>
        <trkpt lat="29.564844" lon="103.428928"><ele>645.6542</ele><time>2026-05-09T05:11:11.000Z</time></trkpt>
        <trkpt lat="29.564905" lon="103.428878"><ele>648.688</ele><time>2026-05-09T05:11:13.000Z</time></trkpt>
        <trkpt lat="29.564897" lon="103.428793"><ele>653.06647</ele><time>2026-05-09T05:11:17.000Z</time></trkpt>
        <trkpt lat="29.564896" lon="103.428731"><ele>655.7469</ele><time>2026-05-09T05:11:19.000Z</time></trkpt>
        <trkpt lat="29.564891" lon="103.428679"><ele>656.7017</ele><time>2026-05-09T05:11:21.000Z</time></trkpt>
        <trkpt lat="29.564874" lon="103.428598"><ele>656.56287</ele><time>2026-05-09T05:11:24.000Z</time></trkpt>
        <trkpt lat="29.564865" lon="103.428533"><ele>658.1989</ele><time>2026-05-09T05:11:27.000Z</time></trkpt>
        <trkpt lat="29.564875" lon="103.428481"><ele>661.06934</ele><time>2026-05-09T05:11:31.000Z</time></trkpt>
        <trkpt lat="29.564861" lon="103.428427"><ele>660.80896</ele><time>2026-05-09T05:11:35.000Z</time></trkpt>
        <trkpt lat="29.564899" lon="103.428387"><ele>664.3977</ele><time>2026-05-09T05:11:39.000Z</time></trkpt>
        <trkpt lat="29.564945" lon="103.428354"><ele>664.3107</ele><time>2026-05-09T05:11:44.000Z</time></trkpt>
        <trkpt lat="29.564982" lon="103.428321"><ele>666.29376</ele><time>2026-05-09T05:11:47.000Z</time></trkpt>
        <trkpt lat="29.565028" lon="103.428308"><ele>670.0546</ele><time>2026-05-09T05:11:49.000Z</time></trkpt>
        <trkpt lat="29.565076" lon="103.428295"><ele>669.6702</ele><time>2026-05-09T05:11:51.000Z</time></trkpt>
        <trkpt lat="29.565126" lon="103.428275"><ele>670.49963</ele><time>2026-05-09T05:11:55.000Z</time></trkpt>
        <trkpt lat="29.565156" lon="103.428234"><ele>670.96924</ele><time>2026-05-09T05:11:58.000Z</time></trkpt>
        <trkpt lat="29.565195" lon="103.428196"><ele>668.46</ele><time>2026-05-09T05:12:02.000Z</time></trkpt>
        <trkpt lat="29.565187" lon="103.428138"><ele>665.2503</ele><time>2026-05-09T05:12:06.000Z</time></trkpt>
        <trkpt lat="29.565231" lon="103.428114"><ele>662.9024</ele><time>2026-05-09T05:12:11.000Z</time></trkpt>
        <trkpt lat="29.565268" lon="103.428078"><ele>662.46466</ele><time>2026-05-09T05:12:14.000Z</time></trkpt>
        <trkpt lat="29.5653" lon="103.428019"><ele>663.5094</ele><time>2026-05-09T05:12:18.000Z</time></trkpt>
        <trkpt lat="29.565349" lon="103.428011"><ele>662.84875</ele><time>2026-05-09T05:12:21.000Z</time></trkpt>
        <trkpt lat="29.565387" lon="103.427967"><ele>662.57806</ele><time>2026-05-09T05:12:25.000Z</time></trkpt>
        <trkpt lat="29.565421" lon="103.427932"><ele>664.5318</ele><time>2026-05-09T05:12:29.000Z</time></trkpt>
        <trkpt lat="29.565419" lon="103.427867"><ele>667.3621</ele><time>2026-05-09T05:12:36.000Z</time></trkpt>
        <trkpt lat="29.565435" lon="103.427813"><ele>670.29254</ele><time>2026-05-09T05:12:40.000Z</time></trkpt>
        <trkpt lat="29.565427" lon="103.42775"><ele>673.166</ele><time>2026-05-09T05:12:43.000Z</time></trkpt>
        <trkpt lat="29.565427" lon="103.427695"><ele>675.3436</ele><time>2026-05-09T05:12:49.000Z</time></trkpt>
        <trkpt lat="29.565421" lon="103.427625"><ele>675.8263</ele><time>2026-05-09T05:12:51.000Z</time></trkpt>
        <trkpt lat="29.565431" lon="103.427569"><ele>677.49896</ele><time>2026-05-09T05:12:56.000Z</time></trkpt>
        <trkpt lat="29.565446" lon="103.427516"><ele>677.7754</ele><time>2026-05-09T05:13:00.000Z</time></trkpt>
        <trkpt lat="29.565407" lon="103.427467"><ele>676.2145</ele><time>2026-05-09T05:13:05.000Z</time></trkpt>
        <trkpt lat="29.565365" lon="103.427412"><ele>675.06036</ele><time>2026-05-09T05:13:09.000Z</time></trkpt>
        <trkpt lat="29.565343" lon="103.42736"><ele>675.6783</ele><time>2026-05-09T05:13:14.000Z</time></trkpt>
        <trkpt lat="29.565301" lon="103.427312"><ele>677.3772</ele><time>2026-05-09T05:13:16.000Z</time></trkpt>
        <trkpt lat="29.56532" lon="103.427251"><ele>676.2505</ele><time>2026-05-09T05:13:19.000Z</time></trkpt>
        <trkpt lat="29.565276" lon="103.42718"><ele>674.4439</ele><time>2026-05-09T05:13:23.000Z</time></trkpt>
        <trkpt lat="29.565233" lon="103.427146"><ele>670.69867</ele><time>2026-05-09T05:13:26.000Z</time></trkpt>
        <trkpt lat="29.565217" lon="103.427092"><ele>669.46515</ele><time>2026-05-09T05:13:29.000Z</time></trkpt>
        <trkpt lat="29.565174" lon="103.427061"><ele>664.78</ele><time>2026-05-09T05:13:35.000Z</time></trkpt>
        <trkpt lat="29.565142" lon="103.427022"><ele>664.3776</ele><time>2026-05-09T05:13:38.000Z</time></trkpt>
        <trkpt lat="29.565095" lon="103.426993"><ele>664.6661</ele><time>2026-05-09T05:13:42.000Z</time></trkpt>
        <trkpt lat="29.565063" lon="103.426942"><ele>664.41364</ele><time>2026-05-09T05:13:45.000Z</time></trkpt>
        <trkpt lat="29.565001" lon="103.426925"><ele>664.85004</ele><time>2026-05-09T05:13:49.000Z</time></trkpt>
        <trkpt lat="29.564947" lon="103.426899"><ele>664.5231</ele><time>2026-05-09T05:13:53.000Z</time></trkpt>
        <trkpt lat="29.564931" lon="103.426834"><ele>662.52704</ele><time>2026-05-09T05:13:57.000Z</time></trkpt>
        <trkpt lat="29.564936" lon="103.426775"><ele>662.5445</ele><time>2026-05-09T05:14:00.000Z</time></trkpt>
        <trkpt lat="29.564955" lon="103.426719"><ele>661.56696</ele><time>2026-05-09T05:14:03.000Z</time></trkpt>
        <trkpt lat="29.564974" lon="103.426657"><ele>664.1277</ele><time>2026-05-09T05:14:08.000Z</time></trkpt>
        <trkpt lat="29.565" lon="103.426608"><ele>667.6761</ele><time>2026-05-09T05:14:13.000Z</time></trkpt>
        <trkpt lat="29.565012" lon="103.42655"><ele>669.7693</ele><time>2026-05-09T05:14:18.000Z</time></trkpt>
        <trkpt lat="29.565019" lon="103.426494"><ele>674.2118</ele><time>2026-05-09T05:14:23.000Z</time></trkpt>
        <trkpt lat="29.565022" lon="103.42644"><ele>677.26733</ele><time>2026-05-09T05:14:30.000Z</time></trkpt>
        <trkpt lat="29.565043" lon="103.426393"><ele>678.93524</ele><time>2026-05-09T05:14:35.000Z</time></trkpt>
        <trkpt lat="29.565057" lon="103.426344"><ele>679.92566</ele><time>2026-05-09T05:14:37.000Z</time></trkpt>
        <trkpt lat="29.565062" lon="103.426281"><ele>682.1037</ele><time>2026-05-09T05:14:43.000Z</time></trkpt>
        <trkpt lat="29.565063" lon="103.426208"><ele>685.1477</ele><time>2026-05-09T05:14:49.000Z</time></trkpt>
        <trkpt lat="29.565107" lon="103.426179"><ele>685.46375</ele><time>2026-05-09T05:14:56.000Z</time></trkpt>
        <trkpt lat="29.56509" lon="103.426131"><ele>689.16705</ele><time>2026-05-09T05:15:06.000Z</time></trkpt>
        <trkpt lat="29.565106" lon="103.426065"><ele>690.04224</ele><time>2026-05-09T05:15:14.000Z</time></trkpt>
        <trkpt lat="29.565143" lon="103.426022"><ele>691.79047</ele><time>2026-05-09T05:15:20.000Z</time></trkpt>
        <trkpt lat="29.565148" lon="103.425967"><ele>692.3414</ele><time>2026-05-09T05:15:25.000Z</time></trkpt>
        <trkpt lat="29.565156" lon="103.425915"><ele>691.3228</ele><time>2026-05-09T05:15:33.000Z</time></trkpt>
        <trkpt lat="29.56518" lon="103.425863"><ele>694.366</ele><time>2026-05-09T05:15:44.000Z</time></trkpt>
        <trkpt lat="29.565171" lon="103.425809"><ele>694.23834</ele><time>2026-05-09T05:15:49.000Z</time></trkpt>
        <trkpt lat="29.565221" lon="103.425798"><ele>694.3998</ele><time>2026-05-09T05:15:54.000Z</time></trkpt>
        <trkpt lat="29.565223" lon="103.425738"><ele>696.4707</ele><time>2026-05-09T05:16:07.000Z</time></trkpt>
        <trkpt lat="29.565207" lon="103.425682"><ele>697.2304</ele><time>2026-05-09T05:16:12.000Z</time></trkpt>
        <trkpt lat="29.565156" lon="103.425632"><ele>698.7289</ele><time>2026-05-09T05:16:17.000Z</time></trkpt>
        <trkpt lat="29.565115" lon="103.425587"><ele>699.67664</ele><time>2026-05-09T05:16:19.000Z</time></trkpt>
        <trkpt lat="29.565067" lon="103.42555"><ele>700.48706</ele><time>2026-05-09T05:16:23.000Z</time></trkpt>
        <trkpt lat="29.56502" lon="103.425505"><ele>701.5144</ele><time>2026-05-09T05:16:26.000Z</time></trkpt>
        <trkpt lat="29.56499" lon="103.425452"><ele>702.20917</ele><time>2026-05-09T05:16:29.000Z</time></trkpt>
        <trkpt lat="29.564963" lon="103.42541"><ele>702.55505</ele><time>2026-05-09T05:16:33.000Z</time></trkpt>
        <trkpt lat="29.564935" lon="103.425362"><ele>702.2995</ele><time>2026-05-09T05:16:36.000Z</time></trkpt>
        <trkpt lat="29.56489" lon="103.425337"><ele>701.9804</ele><time>2026-05-09T05:16:39.000Z</time></trkpt>
        <trkpt lat="29.564854" lon="103.42528"><ele>703.7685</ele><time>2026-05-09T05:16:43.000Z</time></trkpt>
        <trkpt lat="29.564816" lon="103.425246"><ele>703.50745</ele><time>2026-05-09T05:16:46.000Z</time></trkpt>
        <trkpt lat="29.56478" lon="103.425211"><ele>704.4773</ele><time>2026-05-09T05:16:49.000Z</time></trkpt>
        <trkpt lat="29.564752" lon="103.425151"><ele>705.3256</ele><time>2026-05-09T05:16:53.000Z</time></trkpt>
        <trkpt lat="29.564729" lon="103.425098"><ele>705.6935</ele><time>2026-05-09T05:16:58.000Z</time></trkpt>
        <trkpt lat="29.564762" lon="103.425046"><ele>708.7953</ele><time>2026-05-09T05:17:02.000Z</time></trkpt>
        <trkpt lat="29.564741" lon="103.42499"><ele>710.0301</ele><time>2026-05-09T05:17:04.000Z</time></trkpt>
        <trkpt lat="29.564746" lon="103.424935"><ele>711.0949</ele><time>2026-05-09T05:17:10.000Z</time></trkpt>
        <trkpt lat="29.564698" lon="103.424946"><ele>710.7756</ele><time>2026-05-09T05:17:15.000Z</time></trkpt>
        <trkpt lat="29.564717" lon="103.424896"><ele>711.80896</ele><time>2026-05-09T05:17:21.000Z</time></trkpt>
        <trkpt lat="29.564724" lon="103.424837"><ele>714.27026</ele><time>2026-05-09T05:17:32.000Z</time></trkpt>
        <trkpt lat="29.564741" lon="103.424775"><ele>716.8063</ele><time>2026-05-09T05:17:38.000Z</time></trkpt>
        <trkpt lat="29.564694" lon="103.42477"><ele>717.0341</ele><time>2026-05-09T05:17:44.000Z</time></trkpt>
        <trkpt lat="29.564659" lon="103.424737"><ele>716.724</ele><time>2026-05-09T05:17:52.000Z</time></trkpt>
        <trkpt lat="29.56468" lon="103.424685"><ele>718.1802</ele><time>2026-05-09T05:17:56.000Z</time></trkpt>
        <trkpt lat="29.564691" lon="103.424618"><ele>717.3744</ele><time>2026-05-09T05:18:02.000Z</time></trkpt>
        <trkpt lat="29.564665" lon="103.424575"><ele>718.4907</ele><time>2026-05-09T05:18:07.000Z</time></trkpt>
        <trkpt lat="29.564673" lon="103.424522"><ele>714.55457</ele><time>2026-05-09T05:18:11.000Z</time></trkpt>
        <trkpt lat="29.564653" lon="103.424476"><ele>718.5689</ele><time>2026-05-09T05:18:16.000Z</time></trkpt>
        <trkpt lat="29.564641" lon="103.424422"><ele>718.1909</ele><time>2026-05-09T05:18:21.000Z</time></trkpt>
        <trkpt lat="29.564657" lon="103.424364"><ele>717.5748</ele><time>2026-05-09T05:18:37.000Z</time></trkpt>
        <trkpt lat="29.564601" lon="103.424303"><ele>720.81885</ele><time>2026-05-09T05:18:43.000Z</time></trkpt>
        <trkpt lat="29.564548" lon="103.42426"><ele>731.0318</ele><time>2026-05-09T05:18:48.000Z</time></trkpt>
        <trkpt lat="29.564519" lon="103.424216"><ele>733.6322</ele><time>2026-05-09T05:18:57.000Z</time></trkpt>
        <trkpt lat="29.564514" lon="103.424136"><ele>735.56036</ele><time>2026-05-09T05:19:02.000Z</time></trkpt>
        <trkpt lat="29.564478" lon="103.4241"><ele>738.3208</ele><time>2026-05-09T05:19:06.000Z</time></trkpt>
        <trkpt lat="29.564424" lon="103.42405"><ele>737.16797</ele><time>2026-05-09T05:19:15.000Z</time></trkpt>
        <trkpt lat="29.564395" lon="103.42399"><ele>737.07025</ele><time>2026-05-09T05:19:21.000Z</time></trkpt>
        <trkpt lat="29.564395" lon="103.423934"><ele>736.9179</ele><time>2026-05-09T05:19:25.000Z</time></trkpt>
        <trkpt lat="29.564397" lon="103.423879"><ele>738.42</ele><time>2026-05-09T05:19:30.000Z</time></trkpt>
        <trkpt lat="29.564408" lon="103.423818"><ele>740.1589</ele><time>2026-05-09T05:19:35.000Z</time></trkpt>
        <trkpt lat="29.564405" lon="103.423762"><ele>739.5549</ele><time>2026-05-09T05:19:41.000Z</time></trkpt>
        <trkpt lat="29.564379" lon="103.423712"><ele>740.7871</ele><time>2026-05-09T05:19:52.000Z</time></trkpt>
        <trkpt lat="29.564381" lon="103.423658"><ele>740.10724</ele><time>2026-05-09T05:19:55.000Z</time></trkpt>
        <trkpt lat="29.564388" lon="103.423603"><ele>743.25525</ele><time>2026-05-09T05:20:01.000Z</time></trkpt>
        <trkpt lat="29.564406" lon="103.423551"><ele>743.62946</ele><time>2026-05-09T05:20:06.000Z</time></trkpt>
        <trkpt lat="29.56443" lon="103.423499"><ele>745.7022</ele><time>2026-05-09T05:20:10.000Z</time></trkpt>
        <trkpt lat="29.564445" lon="103.423441"><ele>746.47675</ele><time>2026-05-09T05:20:19.000Z</time></trkpt>
        <trkpt lat="29.564427" lon="103.423392"><ele>749.3384</ele><time>2026-05-09T05:20:28.000Z</time></trkpt>
        <trkpt lat="29.564455" lon="103.423344"><ele>755.3261</ele><time>2026-05-09T05:20:38.000Z</time></trkpt>
        <trkpt lat="29.564503" lon="103.423368"><ele>754.47107</ele><time>2026-05-09T05:20:43.000Z</time></trkpt>
        <trkpt lat="29.5645" lon="103.423311"><ele>755.57947</ele><time>2026-05-09T05:20:48.000Z</time></trkpt>
        <trkpt lat="29.564489" lon="103.423258"><ele>755.7849</ele><time>2026-05-09T05:20:53.000Z</time></trkpt>
        <trkpt lat="29.564526" lon="103.423209"><ele>759.75507</ele><time>2026-05-09T05:21:11.000Z</time></trkpt>
        <trkpt lat="29.564499" lon="103.423156"><ele>759.73584</ele><time>2026-05-09T05:21:15.000Z</time></trkpt>
        <trkpt lat="29.564547" lon="103.42314"><ele>760.2343</ele><time>2026-05-09T05:21:19.000Z</time></trkpt>
        <trkpt lat="29.564579" lon="103.423186"><ele>759.87006</ele><time>2026-05-09T05:21:21.000Z</time></trkpt>
        <trkpt lat="29.564518" lon="103.42314"><ele>760.26654</ele><time>2026-05-09T05:21:29.000Z</time></trkpt>
        <trkpt lat="29.564496" lon="103.423091"><ele>760.4693</ele><time>2026-05-09T05:21:31.000Z</time></trkpt>
        <trkpt lat="29.564516" lon="103.423039"><ele>762.69244</ele><time>2026-05-09T05:21:37.000Z</time></trkpt>
        <trkpt lat="29.564473" lon="103.423099"><ele>761.2133</ele><time>2026-05-09T05:21:43.000Z</time></trkpt>
        <trkpt lat="29.564505" lon="103.423139"><ele>760.3114</ele><time>2026-05-09T05:21:45.000Z</time></trkpt>
        <trkpt lat="29.564416" lon="103.423153"><ele>765.4798</ele><time>2026-05-09T05:22:01.000Z</time></trkpt>
        <trkpt lat="29.564485" lon="103.423063"><ele>765.73425</ele><time>2026-05-09T05:22:05.000Z</time></trkpt>
        <trkpt lat="29.564439" lon="103.423103"><ele>765.62213</ele><time>2026-05-09T05:22:08.000Z</time></trkpt>
        <trkpt lat="29.564403" lon="103.423136"><ele>765.6378</ele><time>2026-05-09T05:22:15.000Z</time></trkpt>
        <trkpt lat="29.564344" lon="103.423143"><ele>762.8695</ele><time>2026-05-09T05:22:38.000Z</time></trkpt>
        <trkpt lat="29.564399" lon="103.423109"><ele>761.1935</ele><time>2026-05-09T05:22:45.000Z</time></trkpt>
        <trkpt lat="29.564452" lon="103.423089"><ele>758.10455</ele><time>2026-05-09T05:22:53.000Z</time></trkpt>
        <trkpt lat="29.5644" lon="103.423077"><ele>766.5027</ele><time>2026-05-09T05:23:29.000Z</time></trkpt>
        <trkpt lat="29.564428" lon="103.423122"><ele>766.67694</ele><time>2026-05-09T05:23:40.000Z</time></trkpt>
        <trkpt lat="29.564472" lon="103.423173"><ele>765.56824</ele><time>2026-05-09T05:23:47.000Z</time></trkpt>
        <trkpt lat="29.564423" lon="103.423184"><ele>765.2234</ele><time>2026-05-09T05:24:04.000Z</time></trkpt>
        <trkpt lat="29.564471" lon="103.423154"><ele>759.7338</ele><time>2026-05-09T05:24:12.000Z</time></trkpt>
        <trkpt lat="29.56448" lon="103.423103"><ele>761.00574</ele><time>2026-05-09T05:25:17.000Z</time></trkpt>
        <trkpt lat="29.5645" lon="103.423024"><ele>761.12006</ele><time>2026-05-09T05:25:23.000Z</time></trkpt>
        <trkpt lat="29.564546" lon="103.423054"><ele>761.7014</ele><time>2026-05-09T05:25:25.000Z</time></trkpt>
        <trkpt lat="29.564481" lon="103.42306"><ele>761.33325</ele><time>2026-05-09T05:25:33.000Z</time></trkpt>
        <trkpt lat="29.564463" lon="103.423011"><ele>762.5143</ele><time>2026-05-09T05:25:37.000Z</time></trkpt>
        <trkpt lat="29.564516" lon="103.422992"><ele>761.21124</ele><time>2026-05-09T05:25:39.000Z</time></trkpt>
        <trkpt lat="29.56449" lon="103.42294"><ele>762.9767</ele><time>2026-05-09T05:25:44.000Z</time></trkpt>
        <trkpt lat="29.564462" lon="103.422887"><ele>764.4411</ele><time>2026-05-09T05:25:51.000Z</time></trkpt>
        <trkpt lat="29.564479" lon="103.422824"><ele>768.4342</ele><time>2026-05-09T05:26:04.000Z</time></trkpt>
        <trkpt lat="29.564462" lon="103.422761"><ele>768.40704</ele><time>2026-05-09T05:26:07.000Z</time></trkpt>
        <trkpt lat="29.564461" lon="103.422693"><ele>768.2586</ele><time>2026-05-09T05:26:10.000Z</time></trkpt>
        <trkpt lat="29.564476" lon="103.42264"><ele>769.8882</ele><time>2026-05-09T05:26:15.000Z</time></trkpt>
        <trkpt lat="29.564469" lon="103.422588"><ele>768.79065</ele><time>2026-05-09T05:26:20.000Z</time></trkpt>
        <trkpt lat="29.564428" lon="103.422532"><ele>772.35126</ele><time>2026-05-09T05:26:28.000Z</time></trkpt>
        <trkpt lat="29.564418" lon="103.422473"><ele>773.97064</ele><time>2026-05-09T05:26:34.000Z</time></trkpt>
        <trkpt lat="29.564417" lon="103.422415"><ele>775.67084</ele><time>2026-05-09T05:26:37.000Z</time></trkpt>
        <trkpt lat="29.564404" lon="103.422356"><ele>776.4224</ele><time>2026-05-09T05:26:41.000Z</time></trkpt>
        <trkpt lat="29.564414" lon="103.422287"><ele>776.8183</ele><time>2026-05-09T05:26:49.000Z</time></trkpt>
        <trkpt lat="29.564415" lon="103.422232"><ele>777.9824</ele><time>2026-05-09T05:26:53.000Z</time></trkpt>
        <trkpt lat="29.564388" lon="103.422165"><ele>778.18317</ele><time>2026-05-09T05:26:59.000Z</time></trkpt>
        <trkpt lat="29.564367" lon="103.422119"><ele>782.3126</ele><time>2026-05-09T05:27:03.000Z</time></trkpt>
        <trkpt lat="29.564379" lon="103.422058"><ele>785.4421</ele><time>2026-05-09T05:27:12.000Z</time></trkpt>
        <trkpt lat="29.564374" lon="103.422004"><ele>786.5391</ele><time>2026-05-09T05:27:16.000Z</time></trkpt>
        <trkpt lat="29.564372" lon="103.421951"><ele>785.93274</ele><time>2026-05-09T05:27:20.000Z</time></trkpt>
        <trkpt lat="29.56437" lon="103.421892"><ele>789.41736</ele><time>2026-05-09T05:27:25.000Z</time></trkpt>
        <trkpt lat="29.564389" lon="103.421821"><ele>792.4976</ele><time>2026-05-09T05:27:31.000Z</time></trkpt>
        <trkpt lat="29.564361" lon="103.421775"><ele>793.4247</ele><time>2026-05-09T05:27:49.000Z</time></trkpt>
        <trkpt lat="29.564347" lon="103.421722"><ele>797.50366</ele><time>2026-05-09T05:28:00.000Z</time></trkpt>
        <trkpt lat="29.564309" lon="103.421667"><ele>799.2568</ele><time>2026-05-09T05:28:06.000Z</time></trkpt>
        <trkpt lat="29.564311" lon="103.421612"><ele>801.14435</ele><time>2026-05-09T05:28:12.000Z</time></trkpt>
        <trkpt lat="29.564299" lon="103.421559"><ele>802.51416</ele><time>2026-05-09T05:28:19.000Z</time></trkpt>
        <trkpt lat="29.564312" lon="103.421479"><ele>803.57587</ele><time>2026-05-09T05:28:30.000Z</time></trkpt>
        <trkpt lat="29.564305" lon="103.421403"><ele>805.10297</ele><time>2026-05-09T05:28:38.000Z</time></trkpt>
        <trkpt lat="29.56431" lon="103.421332"><ele>805.9214</ele><time>2026-05-09T05:28:43.000Z</time></trkpt>
        <trkpt lat="29.564351" lon="103.421308"><ele>806.23987</ele><time>2026-05-09T05:28:45.000Z</time></trkpt>
        <trkpt lat="29.564415" lon="103.421298"><ele>809.21295</ele><time>2026-05-09T05:28:50.000Z</time></trkpt>
        <trkpt lat="29.564465" lon="103.421263"><ele>807.99567</ele><time>2026-05-09T05:28:54.000Z</time></trkpt>
        <trkpt lat="29.564517" lon="103.421236"><ele>809.87897</ele><time>2026-05-09T05:28:59.000Z</time></trkpt>
        <trkpt lat="29.564565" lon="103.421201"><ele>810.44794</ele><time>2026-05-09T05:29:02.000Z</time></trkpt>
        <trkpt lat="29.564612" lon="103.421173"><ele>813.56134</ele><time>2026-05-09T05:29:08.000Z</time></trkpt>
        <trkpt lat="29.564654" lon="103.421139"><ele>815.37256</ele><time>2026-05-09T05:29:14.000Z</time></trkpt>
        <trkpt lat="29.564686" lon="103.4211"><ele>814.39606</ele><time>2026-05-09T05:29:17.000Z</time></trkpt>
        <trkpt lat="29.564749" lon="103.42113"><ele>815.0346</ele><time>2026-05-09T05:29:23.000Z</time></trkpt>
        <trkpt lat="29.56479" lon="103.421183"><ele>818.04877</ele><time>2026-05-09T05:29:29.000Z</time></trkpt>
        <trkpt lat="29.564848" lon="103.421211"><ele>818.80804</ele><time>2026-05-09T05:29:37.000Z</time></trkpt>
        <trkpt lat="29.564874" lon="103.421275"><ele>819.751</ele><time>2026-05-09T05:29:42.000Z</time></trkpt>
        <trkpt lat="29.564898" lon="103.421319"><ele>818.795</ele><time>2026-05-09T05:29:51.000Z</time></trkpt>
        <trkpt lat="29.564942" lon="103.421337"><ele>821.95996</ele><time>2026-05-09T05:30:05.000Z</time></trkpt>
        <trkpt lat="29.56499" lon="103.421329"><ele>823.75464</ele><time>2026-05-09T05:30:21.000Z</time></trkpt>
        <trkpt lat="29.565036" lon="103.421331"><ele>825.6635</ele><time>2026-05-09T05:30:29.000Z</time></trkpt>
        <trkpt lat="29.565083" lon="103.42131"><ele>829.2487</ele><time>2026-05-09T05:30:37.000Z</time></trkpt>
        <trkpt lat="29.565137" lon="103.421283"><ele>828.4091</ele><time>2026-05-09T05:30:43.000Z</time></trkpt>
        <trkpt lat="29.565193" lon="103.421269"><ele>829.3858</ele><time>2026-05-09T05:30:50.000Z</time></trkpt>
        <trkpt lat="29.565247" lon="103.421263"><ele>831.3261</ele><time>2026-05-09T05:31:00.000Z</time></trkpt>
        <trkpt lat="29.565296" lon="103.421247"><ele>832.98145</ele><time>2026-05-09T05:31:07.000Z</time></trkpt>
        <trkpt lat="29.565344" lon="103.421246"><ele>836.702</ele><time>2026-05-09T05:31:16.000Z</time></trkpt>
        <trkpt lat="29.565393" lon="103.421229"><ele>837.9998</ele><time>2026-05-09T05:31:31.000Z</time></trkpt>
        <trkpt lat="29.565342" lon="103.421248"><ele>838.216</ele><time>2026-05-09T05:32:06.000Z</time></trkpt>
        <trkpt lat="29.565384" lon="103.421222"><ele>838.3539</ele><time>2026-05-09T05:32:35.000Z</time></trkpt>
        <trkpt lat="29.565368" lon="103.421274"><ele>834.4184</ele><time>2026-05-09T05:33:47.000Z</time></trkpt>
        <trkpt lat="29.56538" lon="103.421224"><ele>837.228</ele><time>2026-05-09T05:34:34.000Z</time></trkpt>
        <trkpt lat="29.56539" lon="103.421167"><ele>837.7242</ele><time>2026-05-09T05:35:30.000Z</time></trkpt>
        <trkpt lat="29.565439" lon="103.421147"><ele>837.01984</ele><time>2026-05-09T05:35:34.000Z</time></trkpt>
        <trkpt lat="29.565486" lon="103.421126"><ele>835.2764</ele><time>2026-05-09T05:35:37.000Z</time></trkpt>
        <trkpt lat="29.565534" lon="103.421104"><ele>837.3242</ele><time>2026-05-09T05:35:43.000Z</time></trkpt>
        <trkpt lat="29.565581" lon="103.421087"><ele>837.2718</ele><time>2026-05-09T05:35:47.000Z</time></trkpt>
        <trkpt lat="29.565635" lon="103.421082"><ele>836.8707</ele><time>2026-05-09T05:35:50.000Z</time></trkpt>
        <trkpt lat="29.565686" lon="103.421071"><ele>838.67773</ele><time>2026-05-09T05:35:54.000Z</time></trkpt>
        <trkpt lat="29.565738" lon="103.421077"><ele>836.8055</ele><time>2026-05-09T05:35:58.000Z</time></trkpt>
        <trkpt lat="29.565787" lon="103.421097"><ele>838.9738</ele><time>2026-05-09T05:36:02.000Z</time></trkpt>
        <trkpt lat="29.565839" lon="103.421107"><ele>841.10004</ele><time>2026-05-09T05:36:06.000Z</time></trkpt>
        <trkpt lat="29.565892" lon="103.421084"><ele>843.0157</ele><time>2026-05-09T05:36:11.000Z</time></trkpt>
        <trkpt lat="29.56594" lon="103.421083"><ele>843.2495</ele><time>2026-05-09T05:36:15.000Z</time></trkpt>
        <trkpt lat="29.56599" lon="103.421091"><ele>848.0338</ele><time>2026-05-09T05:36:21.000Z</time></trkpt>
        <trkpt lat="29.566059" lon="103.4211"><ele>850.4371</ele><time>2026-05-09T05:36:27.000Z</time></trkpt>
        <trkpt lat="29.566113" lon="103.421096"><ele>850.6148</ele><time>2026-05-09T05:36:34.000Z</time></trkpt>
        <trkpt lat="29.566167" lon="103.421095"><ele>850.36945</ele><time>2026-05-09T05:36:40.000Z</time></trkpt>
        <trkpt lat="29.566215" lon="103.421061"><ele>851.265</ele><time>2026-05-09T05:36:45.000Z</time></trkpt>
        <trkpt lat="29.566226" lon="103.421006"><ele>850.8244</ele><time>2026-05-09T05:36:49.000Z</time></trkpt>
        <trkpt lat="29.566252" lon="103.420945"><ele>850.86993</ele><time>2026-05-09T05:36:54.000Z</time></trkpt>
        <trkpt lat="29.566261" lon="103.420887"><ele>849.1852</ele><time>2026-05-09T05:36:58.000Z</time></trkpt>
        <trkpt lat="29.566286" lon="103.420823"><ele>848.57776</ele><time>2026-05-09T05:37:03.000Z</time></trkpt>
        <trkpt lat="29.566303" lon="103.420775"><ele>847.8371</ele><time>2026-05-09T05:37:06.000Z</time></trkpt>
        <trkpt lat="29.56631" lon="103.420715"><ele>847.6373</ele><time>2026-05-09T05:37:09.000Z</time></trkpt>
        <trkpt lat="29.566322" lon="103.42066"><ele>846.9906</ele><time>2026-05-09T05:37:12.000Z</time></trkpt>
        <trkpt lat="29.566334" lon="103.420597"><ele>847.33374</ele><time>2026-05-09T05:37:16.000Z</time></trkpt>
        <trkpt lat="29.566344" lon="103.420539"><ele>847.8366</ele><time>2026-05-09T05:37:19.000Z</time></trkpt>
        <trkpt lat="29.566354" lon="103.420481"><ele>848.4388</ele><time>2026-05-09T05:37:22.000Z</time></trkpt>
        <trkpt lat="29.566373" lon="103.420432"><ele>846.8594</ele><time>2026-05-09T05:37:25.000Z</time></trkpt>
        <trkpt lat="29.566414" lon="103.420399"><ele>845.3494</ele><time>2026-05-09T05:37:28.000Z</time></trkpt>
        <trkpt lat="29.566445" lon="103.420346"><ele>844.5831</ele><time>2026-05-09T05:37:31.000Z</time></trkpt>
        <trkpt lat="29.566487" lon="103.420309"><ele>843.57416</ele><time>2026-05-09T05:37:34.000Z</time></trkpt>
        <trkpt lat="29.566525" lon="103.420268"><ele>845.4801</ele><time>2026-05-09T05:37:37.000Z</time></trkpt>
        <trkpt lat="29.566547" lon="103.420217"><ele>845.1604</ele><time>2026-05-09T05:37:40.000Z</time></trkpt>
        <trkpt lat="29.566595" lon="103.42018"><ele>845.95276</ele><time>2026-05-09T05:37:43.000Z</time></trkpt>
        <trkpt lat="29.566613" lon="103.420126"><ele>848.4315</ele><time>2026-05-09T05:37:46.000Z</time></trkpt>
        <trkpt lat="29.56665" lon="103.420093"><ele>847.2264</ele><time>2026-05-09T05:37:49.000Z</time></trkpt>
        <trkpt lat="29.566662" lon="103.420026"><ele>848.7454</ele><time>2026-05-09T05:37:53.000Z</time></trkpt>
        <trkpt lat="29.566649" lon="103.419968"><ele>849.23193</ele><time>2026-05-09T05:37:57.000Z</time></trkpt>
        <trkpt lat="29.56663" lon="103.41992"><ele>849.9535</ele><time>2026-05-09T05:38:01.000Z</time></trkpt>
        <trkpt lat="29.566665" lon="103.419884"><ele>850.33575</ele><time>2026-05-09T05:38:04.000Z</time></trkpt>
        <trkpt lat="29.566689" lon="103.419824"><ele>850.09503</ele><time>2026-05-09T05:38:10.000Z</time></trkpt>
        <trkpt lat="29.566738" lon="103.419837"><ele>850.45276</ele><time>2026-05-09T05:38:17.000Z</time></trkpt>
        <trkpt lat="29.566799" lon="103.41986"><ele>853.59265</ele><time>2026-05-09T05:38:23.000Z</time></trkpt>
        <trkpt lat="29.566839" lon="103.419884"><ele>854.6735</ele><time>2026-05-09T05:38:26.000Z</time></trkpt>
        <trkpt lat="29.566878" lon="103.419923"><ele>857.43036</ele><time>2026-05-09T05:38:31.000Z</time></trkpt>
        <trkpt lat="29.56691" lon="103.419979"><ele>856.8752</ele><time>2026-05-09T05:38:36.000Z</time></trkpt>
        <trkpt lat="29.566961" lon="103.419974"><ele>859.9134</ele><time>2026-05-09T05:38:45.000Z</time></trkpt>
        <trkpt lat="29.566999" lon="103.420013"><ele>861.82117</ele><time>2026-05-09T05:38:50.000Z</time></trkpt>
        <trkpt lat="29.567036" lon="103.420056"><ele>860.2368</ele><time>2026-05-09T05:38:54.000Z</time></trkpt>
        <trkpt lat="29.567026" lon="103.42012"><ele>861.5892</ele><time>2026-05-09T05:38:57.000Z</time></trkpt>
        <trkpt lat="29.567017" lon="103.420187"><ele>861.2978</ele><time>2026-05-09T05:39:01.000Z</time></trkpt>
        <trkpt lat="29.56703" lon="103.420244"><ele>862.52264</ele><time>2026-05-09T05:39:04.000Z</time></trkpt>
        <trkpt lat="29.567041" lon="103.420294"><ele>862.36865</ele><time>2026-05-09T05:39:08.000Z</time></trkpt>
        <trkpt lat="29.567058" lon="103.420358"><ele>864.9665</ele><time>2026-05-09T05:39:17.000Z</time></trkpt>
        <trkpt lat="29.567117" lon="103.420369"><ele>862.03925</ele><time>2026-05-09T05:39:24.000Z</time></trkpt>
        <trkpt lat="29.567149" lon="103.42041"><ele>868.3326</ele><time>2026-05-09T05:39:30.000Z</time></trkpt>
        <trkpt lat="29.5672" lon="103.420447"><ele>870.0916</ele><time>2026-05-09T05:39:35.000Z</time></trkpt>
        <trkpt lat="29.567249" lon="103.420426"><ele>872.70233</ele><time>2026-05-09T05:39:40.000Z</time></trkpt>
        <trkpt lat="29.567303" lon="103.420419"><ele>878.00305</ele><time>2026-05-09T05:39:48.000Z</time></trkpt>
        <trkpt lat="29.567356" lon="103.420412"><ele>883.32513</ele><time>2026-05-09T05:39:53.000Z</time></trkpt>
        <trkpt lat="29.5674" lon="103.420397"><ele>887.2597</ele><time>2026-05-09T05:39:59.000Z</time></trkpt>
        <trkpt lat="29.56745" lon="103.420375"><ele>890.32935</ele><time>2026-05-09T05:40:06.000Z</time></trkpt>
        <trkpt lat="29.567494" lon="103.420362"><ele>893.9999</ele><time>2026-05-09T05:40:10.000Z</time></trkpt>
        <trkpt lat="29.567539" lon="103.420346"><ele>895.6301</ele><time>2026-05-09T05:40:20.000Z</time></trkpt>
        <trkpt lat="29.567587" lon="103.420326"><ele>896.076</ele><time>2026-05-09T05:40:28.000Z</time></trkpt>
        <trkpt lat="29.567626" lon="103.420296"><ele>899.9665</ele><time>2026-05-09T05:40:36.000Z</time></trkpt>
        <trkpt lat="29.567668" lon="103.420263"><ele>901.32904</ele><time>2026-05-09T05:40:42.000Z</time></trkpt>
        <trkpt lat="29.567711" lon="103.420244"><ele>901.44714</ele><time>2026-05-09T05:40:51.000Z</time></trkpt>
        <trkpt lat="29.567767" lon="103.420235"><ele>901.0223</ele><time>2026-05-09T05:40:58.000Z</time></trkpt>
        <trkpt lat="29.567804" lon="103.420198"><ele>899.7614</ele><time>2026-05-09T05:41:07.000Z</time></trkpt>
        <trkpt lat="29.567855" lon="103.420174"><ele>901.7536</ele><time>2026-05-09T05:41:12.000Z</time></trkpt>
        <trkpt lat="29.567906" lon="103.420155"><ele>907.8401</ele><time>2026-05-09T05:41:20.000Z</time></trkpt>
        <trkpt lat="29.567946" lon="103.42012"><ele>910.45026</ele><time>2026-05-09T05:41:27.000Z</time></trkpt>
        <trkpt lat="29.567991" lon="103.420104"><ele>914.9194</ele><time>2026-05-09T05:41:34.000Z</time></trkpt>
        <trkpt lat="29.568043" lon="103.420078"><ele>915.5024</ele><time>2026-05-09T05:41:43.000Z</time></trkpt>
        <trkpt lat="29.568096" lon="103.420063"><ele>920.25616</ele><time>2026-05-09T05:41:52.000Z</time></trkpt>
        <trkpt lat="29.568144" lon="103.420059"><ele>920.10345</ele><time>2026-05-09T05:42:00.000Z</time></trkpt>
        <trkpt lat="29.56819" lon="103.420039"><ele>922.00635</ele><time>2026-05-09T05:42:07.000Z</time></trkpt>
        <trkpt lat="29.568236" lon="103.420034"><ele>923.4112</ele><time>2026-05-09T05:42:16.000Z</time></trkpt>
        <trkpt lat="29.568285" lon="103.420031"><ele>925.1396</ele><time>2026-05-09T05:42:24.000Z</time></trkpt>
        <trkpt lat="29.56832" lon="103.420066"><ele>923.5997</ele><time>2026-05-09T05:42:30.000Z</time></trkpt>
        <trkpt lat="29.568373" lon="103.420055"><ele>926.75964</ele><time>2026-05-09T05:42:42.000Z</time></trkpt>
        <trkpt lat="29.56842" lon="103.420054"><ele>926.04486</ele><time>2026-05-09T05:42:54.000Z</time></trkpt>
        <trkpt lat="29.568463" lon="103.420036"><ele>925.2987</ele><time>2026-05-09T05:43:06.000Z</time></trkpt>
        <trkpt lat="29.56851" lon="103.420034"><ele>927.4907</ele><time>2026-05-09T05:43:11.000Z</time></trkpt>
        <trkpt lat="29.568561" lon="103.420033"><ele>928.3133</ele><time>2026-05-09T05:43:22.000Z</time></trkpt>
        <trkpt lat="29.568613" lon="103.42004"><ele>929.9096</ele><time>2026-05-09T05:43:32.000Z</time></trkpt>
        <trkpt lat="29.568664" lon="103.420025"><ele>932.11115</ele><time>2026-05-09T05:43:42.000Z</time></trkpt>
        <trkpt lat="29.568716" lon="103.420017"><ele>931.42566</ele><time>2026-05-09T05:43:51.000Z</time></trkpt>
        <trkpt lat="29.568766" lon="103.419979"><ele>931.5988</ele><time>2026-05-09T05:43:58.000Z</time></trkpt>
        <trkpt lat="29.568808" lon="103.419948"><ele>932.01337</ele><time>2026-05-09T05:44:03.000Z</time></trkpt>
        <trkpt lat="29.568852" lon="103.419923"><ele>933.7785</ele><time>2026-05-09T05:44:07.000Z</time></trkpt>
        <trkpt lat="29.568896" lon="103.419908"><ele>934.6165</ele><time>2026-05-09T05:44:14.000Z</time></trkpt>
        <trkpt lat="29.568952" lon="103.419887"><ele>935.35425</ele><time>2026-05-09T05:44:19.000Z</time></trkpt>
        <trkpt lat="29.568999" lon="103.41987"><ele>935.34705</ele><time>2026-05-09T05:44:23.000Z</time></trkpt>
        <trkpt lat="29.569049" lon="103.41986"><ele>936.5416</ele><time>2026-05-09T05:44:28.000Z</time></trkpt>
        <trkpt lat="29.569095" lon="103.419839"><ele>937.63257</ele><time>2026-05-09T05:44:31.000Z</time></trkpt>
        <trkpt lat="29.56914" lon="103.419816"><ele>937.505</ele><time>2026-05-09T05:44:36.000Z</time></trkpt>
        <trkpt lat="29.569192" lon="103.419788"><ele>937.9666</ele><time>2026-05-09T05:44:41.000Z</time></trkpt>
        <trkpt lat="29.569235" lon="103.419765"><ele>938.46423</ele><time>2026-05-09T05:44:44.000Z</time></trkpt>
        <trkpt lat="29.569279" lon="103.419739"><ele>937.97</ele><time>2026-05-09T05:44:50.000Z</time></trkpt>
        <trkpt lat="29.569329" lon="103.419722"><ele>934.3047</ele><time>2026-05-09T05:44:56.000Z</time></trkpt>
        <trkpt lat="29.56937" lon="103.419692"><ele>933.9818</ele><time>2026-05-09T05:45:00.000Z</time></trkpt>
        <trkpt lat="29.569413" lon="103.419667"><ele>932.5116</ele><time>2026-05-09T05:45:03.000Z</time></trkpt>
        <trkpt lat="29.569449" lon="103.419633"><ele>932.53436</ele><time>2026-05-09T05:45:06.000Z</time></trkpt>
        <trkpt lat="29.569505" lon="103.419601"><ele>934.2663</ele><time>2026-05-09T05:45:09.000Z</time></trkpt>
        <trkpt lat="29.569545" lon="103.419553"><ele>932.28906</ele><time>2026-05-09T05:45:13.000Z</time></trkpt>
        <trkpt lat="29.569585" lon="103.419526"><ele>933.54803</ele><time>2026-05-09T05:45:15.000Z</time></trkpt>
        <trkpt lat="29.569622" lon="103.419491"><ele>932.2702</ele><time>2026-05-09T05:45:18.000Z</time></trkpt>
        <trkpt lat="29.569638" lon="103.419442"><ele>930.7381</ele><time>2026-05-09T05:45:22.000Z</time></trkpt>
        <trkpt lat="29.56966" lon="103.419389"><ele>929.2899</ele><time>2026-05-09T05:45:26.000Z</time></trkpt>
        <trkpt lat="29.56968" lon="103.419334"><ele>927.4737</ele><time>2026-05-09T05:45:30.000Z</time></trkpt>
        <trkpt lat="29.569715" lon="103.419288"><ele>928.0125</ele><time>2026-05-09T05:45:33.000Z</time></trkpt>
        <trkpt lat="29.569745" lon="103.419234"><ele>927.6495</ele><time>2026-05-09T05:45:37.000Z</time></trkpt>
        <trkpt lat="29.569773" lon="103.419193"><ele>927.86383</ele><time>2026-05-09T05:45:40.000Z</time></trkpt>
        <trkpt lat="29.569787" lon="103.419136"><ele>928.211</ele><time>2026-05-09T05:45:44.000Z</time></trkpt>
        <trkpt lat="29.569759" lon="103.419078"><ele>929.63446</ele><time>2026-05-09T05:45:49.000Z</time></trkpt>
        <trkpt lat="29.569743" lon="103.419017"><ele>929.3328</ele><time>2026-05-09T05:45:53.000Z</time></trkpt>
        <trkpt lat="29.569759" lon="103.418945"><ele>930.7646</ele><time>2026-05-09T05:45:56.000Z</time></trkpt>
        <trkpt lat="29.569761" lon="103.418883"><ele>931.41644</ele><time>2026-05-09T05:45:59.000Z</time></trkpt>
        <trkpt lat="29.569765" lon="103.418825"><ele>932.77606</ele><time>2026-05-09T05:46:05.000Z</time></trkpt>
        <trkpt lat="29.569771" lon="103.418763"><ele>931.10364</ele><time>2026-05-09T05:46:10.000Z</time></trkpt>
        <trkpt lat="29.569775" lon="103.418709"><ele>932.3182</ele><time>2026-05-09T05:46:14.000Z</time></trkpt>
        <trkpt lat="29.569796" lon="103.418653"><ele>930.4834</ele><time>2026-05-09T05:46:19.000Z</time></trkpt>
        <trkpt lat="29.569822" lon="103.418601"><ele>931.456</ele><time>2026-05-09T05:46:23.000Z</time></trkpt>
        <trkpt lat="29.569832" lon="103.418546"><ele>929.2194</ele><time>2026-05-09T05:46:26.000Z</time></trkpt>
        <trkpt lat="29.569822" lon="103.418495"><ele>930.1537</ele><time>2026-05-09T05:46:29.000Z</time></trkpt>
        <trkpt lat="29.569826" lon="103.41844"><ele>930.1576</ele><time>2026-05-09T05:46:34.000Z</time></trkpt>
        <trkpt lat="29.569834" lon="103.418384"><ele>930.47577</ele><time>2026-05-09T05:46:38.000Z</time></trkpt>
        <trkpt lat="29.569849" lon="103.418326"><ele>928.0647</ele><time>2026-05-09T05:46:43.000Z</time></trkpt>
        <trkpt lat="29.569847" lon="103.418265"><ele>928.2092</ele><time>2026-05-09T05:46:47.000Z</time></trkpt>
        <trkpt lat="29.569861" lon="103.418199"><ele>928.6303</ele><time>2026-05-09T05:46:51.000Z</time></trkpt>
        <trkpt lat="29.569877" lon="103.418149"><ele>932.17773</ele><time>2026-05-09T05:46:53.000Z</time></trkpt>
        <trkpt lat="29.569889" lon="103.418092"><ele>930.24713</ele><time>2026-05-09T05:46:56.000Z</time></trkpt>
        <trkpt lat="29.569927" lon="103.418043"><ele>931.35046</ele><time>2026-05-09T05:47:00.000Z</time></trkpt>
        <trkpt lat="29.569954" lon="103.417991"><ele>928.7875</ele><time>2026-05-09T05:47:04.000Z</time></trkpt>
        <trkpt lat="29.569962" lon="103.417936"><ele>926.59595</ele><time>2026-05-09T05:47:07.000Z</time></trkpt>
        <trkpt lat="29.570005" lon="103.417884"><ele>929.21246</ele><time>2026-05-09T05:47:10.000Z</time></trkpt>
        <trkpt lat="29.570012" lon="103.417828"><ele>927.51843</ele><time>2026-05-09T05:47:13.000Z</time></trkpt>
        <trkpt lat="29.570019" lon="103.417769"><ele>926.87396</ele><time>2026-05-09T05:47:17.000Z</time></trkpt>
        <trkpt lat="29.570025" lon="103.417711"><ele>924.7327</ele><time>2026-05-09T05:47:22.000Z</time></trkpt>
        <trkpt lat="29.570043" lon="103.417653"><ele>924.6537</ele><time>2026-05-09T05:47:26.000Z</time></trkpt>
        <trkpt lat="29.57004" lon="103.417588"><ele>922.7969</ele><time>2026-05-09T05:47:28.000Z</time></trkpt>
        <trkpt lat="29.570014" lon="103.417528"><ele>922.7454</ele><time>2026-05-09T05:47:32.000Z</time></trkpt>
        <trkpt lat="29.569982" lon="103.41749"><ele>922.0768</ele><time>2026-05-09T05:47:35.000Z</time></trkpt>
        <trkpt lat="29.56998" lon="103.417432"><ele>921.4211</ele><time>2026-05-09T05:47:38.000Z</time></trkpt>
        <trkpt lat="29.570009" lon="103.417372"><ele>921.35986</ele><time>2026-05-09T05:47:42.000Z</time></trkpt>
        <trkpt lat="29.570048" lon="103.417339"><ele>923.6076</ele><time>2026-05-09T05:47:46.000Z</time></trkpt>
        <trkpt lat="29.57007" lon="103.417283"><ele>925.3016</ele><time>2026-05-09T05:47:49.000Z</time></trkpt>
        <trkpt lat="29.570109" lon="103.417239"><ele>924.8619</ele><time>2026-05-09T05:47:54.000Z</time></trkpt>
        <trkpt lat="29.570117" lon="103.41718"><ele>924.2478</ele><time>2026-05-09T05:47:57.000Z</time></trkpt>
        <trkpt lat="29.57016" lon="103.417148"><ele>927.31104</ele><time>2026-05-09T05:48:01.000Z</time></trkpt>
        <trkpt lat="29.57019" lon="103.417103"><ele>924.9828</ele><time>2026-05-09T05:48:05.000Z</time></trkpt>
        <trkpt lat="29.570228" lon="103.417072"><ele>923.2166</ele><time>2026-05-09T05:48:11.000Z</time></trkpt>
        <trkpt lat="29.570275" lon="103.417061"><ele>924.7966</ele><time>2026-05-09T05:48:13.000Z</time></trkpt>
        <trkpt lat="29.57033" lon="103.417048"><ele>923.85815</ele><time>2026-05-09T05:48:17.000Z</time></trkpt>
        <trkpt lat="29.570381" lon="103.417052"><ele>921.9006</ele><time>2026-05-09T05:48:21.000Z</time></trkpt>
        <trkpt lat="29.570429" lon="103.417069"><ele>921.788</ele><time>2026-05-09T05:48:25.000Z</time></trkpt>
        <trkpt lat="29.570467" lon="103.417038"><ele>920.14874</ele><time>2026-05-09T05:48:28.000Z</time></trkpt>
        <trkpt lat="29.570462" lon="103.416974"><ele>920.78235</ele><time>2026-05-09T05:48:31.000Z</time></trkpt>
        <trkpt lat="29.570429" lon="103.416929"><ele>919.3131</ele><time>2026-05-09T05:48:34.000Z</time></trkpt>
        <trkpt lat="29.570394" lon="103.416886"><ele>918.06256</ele><time>2026-05-09T05:48:37.000Z</time></trkpt>
        <trkpt lat="29.570369" lon="103.416836"><ele>918.8876</ele><time>2026-05-09T05:48:40.000Z</time></trkpt>
        <trkpt lat="29.570365" lon="103.416771"><ele>918.90533</ele><time>2026-05-09T05:48:44.000Z</time></trkpt>
        <trkpt lat="29.570362" lon="103.416711"><ele>920.08844</ele><time>2026-05-09T05:48:49.000Z</time></trkpt>
        <trkpt lat="29.570376" lon="103.416645"><ele>919.73315</ele><time>2026-05-09T05:48:54.000Z</time></trkpt>
        <trkpt lat="29.57039" lon="103.416581"><ele>920.9099</ele><time>2026-05-09T05:49:00.000Z</time></trkpt>
        <trkpt lat="29.570385" lon="103.416524"><ele>921.3629</ele><time>2026-05-09T05:49:03.000Z</time></trkpt>
        <trkpt lat="29.57039" lon="103.416468"><ele>920.0095</ele><time>2026-05-09T05:49:07.000Z</time></trkpt>
        <trkpt lat="29.570415" lon="103.416418"><ele>922.3568</ele><time>2026-05-09T05:49:10.000Z</time></trkpt>
        <trkpt lat="29.570412" lon="103.41636"><ele>921.4307</ele><time>2026-05-09T05:49:16.000Z</time></trkpt>
        <trkpt lat="29.570403" lon="103.416298"><ele>921.81104</ele><time>2026-05-09T05:49:22.000Z</time></trkpt>
        <trkpt lat="29.570415" lon="103.416241"><ele>922.2333</ele><time>2026-05-09T05:49:25.000Z</time></trkpt>
        <trkpt lat="29.570445" lon="103.416189"><ele>922.91254</ele><time>2026-05-09T05:49:30.000Z</time></trkpt>
        <trkpt lat="29.570497" lon="103.416183"><ele>924.211</ele><time>2026-05-09T05:49:32.000Z</time></trkpt>
        <trkpt lat="29.570557" lon="103.416183"><ele>923.19183</ele><time>2026-05-09T05:49:36.000Z</time></trkpt>
        <trkpt lat="29.570597" lon="103.416139"><ele>921.8622</ele><time>2026-05-09T05:49:43.000Z</time></trkpt>
        <trkpt lat="29.57061" lon="103.41608"><ele>919.6701</ele><time>2026-05-09T05:49:47.000Z</time></trkpt>
        <trkpt lat="29.570674" lon="103.416056"><ele>921.1456</ele><time>2026-05-09T05:49:53.000Z</time></trkpt>
        <trkpt lat="29.570718" lon="103.416028"><ele>925.4736</ele><time>2026-05-09T05:50:01.000Z</time></trkpt>
        <trkpt lat="29.570769" lon="103.416009"><ele>925.31104</ele><time>2026-05-09T05:50:09.000Z</time></trkpt>
        <trkpt lat="29.570738" lon="103.415965"><ele>925.478</ele><time>2026-05-09T05:50:15.000Z</time></trkpt>
        <trkpt lat="29.570704" lon="103.415921"><ele>925.07166</ele><time>2026-05-09T05:50:19.000Z</time></trkpt>
        <trkpt lat="29.570669" lon="103.415881"><ele>924.3693</ele><time>2026-05-09T05:50:23.000Z</time></trkpt>
        <trkpt lat="29.570626" lon="103.41585"><ele>924.7081</ele><time>2026-05-09T05:50:28.000Z</time></trkpt>
        <trkpt lat="29.570588" lon="103.415808"><ele>924.5975</ele><time>2026-05-09T05:50:32.000Z</time></trkpt>
        <trkpt lat="29.57054" lon="103.415802"><ele>927.26935</ele><time>2026-05-09T05:50:37.000Z</time></trkpt>
        <trkpt lat="29.570489" lon="103.415788"><ele>925.6211</ele><time>2026-05-09T05:50:41.000Z</time></trkpt>
        <trkpt lat="29.570469" lon="103.415739"><ele>923.92584</ele><time>2026-05-09T05:50:45.000Z</time></trkpt>
        <trkpt lat="29.570441" lon="103.415698"><ele>923.6536</ele><time>2026-05-09T05:50:48.000Z</time></trkpt>
        <trkpt lat="29.570409" lon="103.415653"><ele>924.8735</ele><time>2026-05-09T05:50:53.000Z</time></trkpt>
        <trkpt lat="29.570366" lon="103.415613"><ele>924.8658</ele><time>2026-05-09T05:50:57.000Z</time></trkpt>
        <trkpt lat="29.570325" lon="103.415578"><ele>924.6007</ele><time>2026-05-09T05:51:01.000Z</time></trkpt>
        <trkpt lat="29.570282" lon="103.415549"><ele>924.6619</ele><time>2026-05-09T05:51:05.000Z</time></trkpt>
        <trkpt lat="29.570223" lon="103.415534"><ele>923.2257</ele><time>2026-05-09T05:51:10.000Z</time></trkpt>
        <trkpt lat="29.570171" lon="103.415556"><ele>925.52264</ele><time>2026-05-09T05:51:15.000Z</time></trkpt>
        <trkpt lat="29.570113" lon="103.415556"><ele>926.9308</ele><time>2026-05-09T05:51:20.000Z</time></trkpt>
        <trkpt lat="29.570074" lon="103.415518"><ele>929.1095</ele><time>2026-05-09T05:51:26.000Z</time></trkpt>
        <trkpt lat="29.57004" lon="103.415475"><ele>930.82623</ele><time>2026-05-09T05:51:30.000Z</time></trkpt>
        <trkpt lat="29.569997" lon="103.415436"><ele>930.8464</ele><time>2026-05-09T05:51:35.000Z</time></trkpt>
        <trkpt lat="29.569955" lon="103.415392"><ele>932.706</ele><time>2026-05-09T05:51:38.000Z</time></trkpt>
        <trkpt lat="29.569921" lon="103.415336"><ele>933.8515</ele><time>2026-05-09T05:51:43.000Z</time></trkpt>
        <trkpt lat="29.569896" lon="103.415282"><ele>932.52466</ele><time>2026-05-09T05:51:47.000Z</time></trkpt>
        <trkpt lat="29.569888" lon="103.415219"><ele>932.53516</ele><time>2026-05-09T05:51:51.000Z</time></trkpt>
        <trkpt lat="29.569888" lon="103.415167"><ele>931.5023</ele><time>2026-05-09T05:51:55.000Z</time></trkpt>
        <trkpt lat="29.569888" lon="103.415115"><ele>930.9302</ele><time>2026-05-09T05:51:58.000Z</time></trkpt>
        <trkpt lat="29.569901" lon="103.415065"><ele>929.32214</ele><time>2026-05-09T05:52:03.000Z</time></trkpt>
        <trkpt lat="29.56989" lon="103.415015"><ele>929.15546</ele><time>2026-05-09T05:52:06.000Z</time></trkpt>
        <trkpt lat="29.569868" lon="103.414954"><ele>927.5888</ele><time>2026-05-09T05:52:10.000Z</time></trkpt>
        <trkpt lat="29.569851" lon="103.414899"><ele>929.0373</ele><time>2026-05-09T05:52:13.000Z</time></trkpt>
        <trkpt lat="29.569812" lon="103.414873"><ele>928.2475</ele><time>2026-05-09T05:52:17.000Z</time></trkpt>
        <trkpt lat="29.569766" lon="103.414843"><ele>929.13043</ele><time>2026-05-09T05:52:21.000Z</time></trkpt>
        <trkpt lat="29.569732" lon="103.414806"><ele>928.7964</ele><time>2026-05-09T05:52:25.000Z</time></trkpt>
        <trkpt lat="29.5697" lon="103.414765"><ele>929.8328</ele><time>2026-05-09T05:52:29.000Z</time></trkpt>
        <trkpt lat="29.569661" lon="103.414738"><ele>929.10077</ele><time>2026-05-09T05:52:33.000Z</time></trkpt>
        <trkpt lat="29.569604" lon="103.414739"><ele>929.9325</ele><time>2026-05-09T05:52:38.000Z</time></trkpt>
        <trkpt lat="29.569554" lon="103.414752"><ele>930.28674</ele><time>2026-05-09T05:52:41.000Z</time></trkpt>
        <trkpt lat="29.569508" lon="103.414767"><ele>930.18207</ele><time>2026-05-09T05:52:45.000Z</time></trkpt>
        <trkpt lat="29.569454" lon="103.414781"><ele>930.29645</ele><time>2026-05-09T05:52:50.000Z</time></trkpt>
        <trkpt lat="29.569406" lon="103.414805"><ele>929.5245</ele><time>2026-05-09T05:52:54.000Z</time></trkpt>
        <trkpt lat="29.569361" lon="103.414814"><ele>930.31775</ele><time>2026-05-09T05:52:59.000Z</time></trkpt>
        <trkpt lat="29.569322" lon="103.414845"><ele>928.7758</ele><time>2026-05-09T05:53:03.000Z</time></trkpt>
        <trkpt lat="29.569269" lon="103.414859"><ele>928.6537</ele><time>2026-05-09T05:53:07.000Z</time></trkpt>
        <trkpt lat="29.569225" lon="103.41484"><ele>929.6549</ele><time>2026-05-09T05:53:11.000Z</time></trkpt>
        <trkpt lat="29.569234" lon="103.414782"><ele>928.12994</ele><time>2026-05-09T05:53:15.000Z</time></trkpt>
        <trkpt lat="29.569204" lon="103.414738"><ele>927.96924</ele><time>2026-05-09T05:53:19.000Z</time></trkpt>
        <trkpt lat="29.569168" lon="103.4147"><ele>927.7513</ele><time>2026-05-09T05:53:22.000Z</time></trkpt>
        <trkpt lat="29.569136" lon="103.41465"><ele>927.78876</ele><time>2026-05-09T05:53:26.000Z</time></trkpt>
        <trkpt lat="29.569114" lon="103.414603"><ele>927.8196</ele><time>2026-05-09T05:53:30.000Z</time></trkpt>
        <trkpt lat="29.569096" lon="103.414553"><ele>929.67596</ele><time>2026-05-09T05:53:34.000Z</time></trkpt>
        <trkpt lat="29.569088" lon="103.414497"><ele>929.37683</ele><time>2026-05-09T05:53:37.000Z</time></trkpt>
        <trkpt lat="29.569081" lon="103.414438"><ele>928.992</ele><time>2026-05-09T05:53:41.000Z</time></trkpt>
        <trkpt lat="29.569099" lon="103.414371"><ele>929.06396</ele><time>2026-05-09T05:53:44.000Z</time></trkpt>
        <trkpt lat="29.569126" lon="103.414323"><ele>928.174</ele><time>2026-05-09T05:53:48.000Z</time></trkpt>
        <trkpt lat="29.569132" lon="103.414267"><ele>925.7788</ele><time>2026-05-09T05:53:52.000Z</time></trkpt>
        <trkpt lat="29.569126" lon="103.414213"><ele>925.94104</ele><time>2026-05-09T05:53:56.000Z</time></trkpt>
        <trkpt lat="29.569122" lon="103.414161"><ele>927.69617</ele><time>2026-05-09T05:53:59.000Z</time></trkpt>
        <trkpt lat="29.569117" lon="103.414099"><ele>925.8651</ele><time>2026-05-09T05:54:04.000Z</time></trkpt>
        <trkpt lat="29.569106" lon="103.414044"><ele>924.80115</ele><time>2026-05-09T05:54:08.000Z</time></trkpt>
        <trkpt lat="29.569135" lon="103.414002"><ele>925.9893</ele><time>2026-05-09T05:54:11.000Z</time></trkpt>
        <trkpt lat="29.569154" lon="103.41395"><ele>925.42957</ele><time>2026-05-09T05:54:14.000Z</time></trkpt>
        <trkpt lat="29.569177" lon="103.413897"><ele>926.1893</ele><time>2026-05-09T05:54:18.000Z</time></trkpt>
        <trkpt lat="29.569182" lon="103.413834"><ele>925.5021</ele><time>2026-05-09T05:54:22.000Z</time></trkpt>
        <trkpt lat="29.56914" lon="103.413786"><ele>924.3579</ele><time>2026-05-09T05:54:27.000Z</time></trkpt>
        <trkpt lat="29.56911" lon="103.413726"><ele>924.5441</ele><time>2026-05-09T05:54:31.000Z</time></trkpt>
        <trkpt lat="29.569079" lon="103.41368"><ele>923.2432</ele><time>2026-05-09T05:54:34.000Z</time></trkpt>
        <trkpt lat="29.569065" lon="103.413624"><ele>923.5859</ele><time>2026-05-09T05:54:39.000Z</time></trkpt>
        <trkpt lat="29.569039" lon="103.413582"><ele>924.7365</ele><time>2026-05-09T05:54:42.000Z</time></trkpt>
        <trkpt lat="29.569016" lon="103.413531"><ele>924.2854</ele><time>2026-05-09T05:54:45.000Z</time></trkpt>
        <trkpt lat="29.569021" lon="103.413462"><ele>923.0675</ele><time>2026-05-09T05:54:49.000Z</time></trkpt>
        <trkpt lat="29.569022" lon="103.413407"><ele>922.54846</ele><time>2026-05-09T05:54:54.000Z</time></trkpt>
        <trkpt lat="29.569012" lon="103.413353"><ele>921.6581</ele><time>2026-05-09T05:54:58.000Z</time></trkpt>
        <trkpt lat="29.56902" lon="103.41329"><ele>919.71936</ele><time>2026-05-09T05:55:05.000Z</time></trkpt>
        <trkpt lat="29.569025" lon="103.413237"><ele>922.6489</ele><time>2026-05-09T05:55:08.000Z</time></trkpt>
        <trkpt lat="29.569001" lon="103.413193"><ele>922.9346</ele><time>2026-05-09T05:55:11.000Z</time></trkpt>
        <trkpt lat="29.569016" lon="103.413142"><ele>923.50745</ele><time>2026-05-09T05:55:15.000Z</time></trkpt>
        <trkpt lat="29.569064" lon="103.413113"><ele>922.7886</ele><time>2026-05-09T05:55:19.000Z</time></trkpt>
        <trkpt lat="29.569106" lon="103.413066"><ele>925.0579</ele><time>2026-05-09T05:55:24.000Z</time></trkpt>
        <trkpt lat="29.56914" lon="103.413033"><ele>920.8879</ele><time>2026-05-09T05:55:28.000Z</time></trkpt>
        <trkpt lat="29.569152" lon="103.412975"><ele>923.1757</ele><time>2026-05-09T05:55:32.000Z</time></trkpt>
        <trkpt lat="29.56919" lon="103.412919"><ele>922.4784</ele><time>2026-05-09T05:55:36.000Z</time></trkpt>
        <trkpt lat="29.569234" lon="103.412883"><ele>920.65173</ele><time>2026-05-09T05:55:40.000Z</time></trkpt>
        <trkpt lat="29.569269" lon="103.41285"><ele>919.27026</ele><time>2026-05-09T05:55:43.000Z</time></trkpt>
        <trkpt lat="29.569311" lon="103.412809"><ele>919.3034</ele><time>2026-05-09T05:55:47.000Z</time></trkpt>
        <trkpt lat="29.569348" lon="103.412777"><ele>918.7255</ele><time>2026-05-09T05:55:49.000Z</time></trkpt>
        <trkpt lat="29.569395" lon="103.412739"><ele>920.17303</ele><time>2026-05-09T05:55:53.000Z</time></trkpt>
        <trkpt lat="29.56944" lon="103.412701"><ele>919.49194</ele><time>2026-05-09T05:55:57.000Z</time></trkpt>
        <trkpt lat="29.569469" lon="103.412649"><ele>920.86975</ele><time>2026-05-09T05:56:01.000Z</time></trkpt>
        <trkpt lat="29.569424" lon="103.412608"><ele>919.1167</ele><time>2026-05-09T05:56:04.000Z</time></trkpt>
        <trkpt lat="29.569375" lon="103.41259"><ele>919.58185</ele><time>2026-05-09T05:56:07.000Z</time></trkpt>
        <trkpt lat="29.569347" lon="103.412543"><ele>919.7604</ele><time>2026-05-09T05:56:12.000Z</time></trkpt>
        <trkpt lat="29.56933" lon="103.412494"><ele>917.7342</ele><time>2026-05-09T05:56:15.000Z</time></trkpt>
        <trkpt lat="29.569286" lon="103.412479"><ele>916.37885</ele><time>2026-05-09T05:56:19.000Z</time></trkpt>
        <trkpt lat="29.569282" lon="103.412424"><ele>917.0546</ele><time>2026-05-09T05:56:27.000Z</time></trkpt>
        <trkpt lat="29.569329" lon="103.412388"><ele>915.916</ele><time>2026-05-09T05:56:30.000Z</time></trkpt>
        <trkpt lat="29.569373" lon="103.412419"><ele>915.1755</ele><time>2026-05-09T05:56:34.000Z</time></trkpt>
        <trkpt lat="29.569381" lon="103.412474"><ele>913.8953</ele><time>2026-05-09T05:56:38.000Z</time></trkpt>
        <trkpt lat="29.569376" lon="103.412421"><ele>912.79675</ele><time>2026-05-09T05:56:43.000Z</time></trkpt>
        <trkpt lat="29.569351" lon="103.412362"><ele>909.8088</ele><time>2026-05-09T05:56:50.000Z</time></trkpt>
        <trkpt lat="29.569329" lon="103.412309"><ele>910.3141</ele><time>2026-05-09T05:56:57.000Z</time></trkpt>
        <trkpt lat="29.569366" lon="103.412261"><ele>907.863</ele><time>2026-05-09T05:57:02.000Z</time></trkpt>
        <trkpt lat="29.56935" lon="103.412205"><ele>907.8592</ele><time>2026-05-09T05:57:13.000Z</time></trkpt>
        <trkpt lat="29.569295" lon="103.412204"><ele>903.9963</ele><time>2026-05-09T05:57:22.000Z</time></trkpt>
        <trkpt lat="29.569243" lon="103.412199"><ele>903.49945</ele><time>2026-05-09T05:57:28.000Z</time></trkpt>
        <trkpt lat="29.569185" lon="103.412186"><ele>901.9178</ele><time>2026-05-09T05:57:34.000Z</time></trkpt>
        <trkpt lat="29.569134" lon="103.41218"><ele>899.8401</ele><time>2026-05-09T05:57:41.000Z</time></trkpt>
        <trkpt lat="29.569091" lon="103.412197"><ele>900.4092</ele><time>2026-05-09T05:57:45.000Z</time></trkpt>
        <trkpt lat="29.569061" lon="103.412156"><ele>899.8639</ele><time>2026-05-09T05:57:49.000Z</time></trkpt>
        <trkpt lat="29.569041" lon="103.412109"><ele>896.9046</ele><time>2026-05-09T05:57:55.000Z</time></trkpt>
        <trkpt lat="29.568999" lon="103.41209"><ele>895.54047</ele><time>2026-05-09T05:57:59.000Z</time></trkpt>
        <trkpt lat="29.568962" lon="103.412049"><ele>896.4334</ele><time>2026-05-09T05:58:05.000Z</time></trkpt>
        <trkpt lat="29.56893" lon="103.411994"><ele>894.99243</ele><time>2026-05-09T05:58:09.000Z</time></trkpt>
        <trkpt lat="29.568912" lon="103.411945"><ele>893.05096</ele><time>2026-05-09T05:58:14.000Z</time></trkpt>
        <trkpt lat="29.568881" lon="103.411888"><ele>893.41016</ele><time>2026-05-09T05:58:18.000Z</time></trkpt>
        <trkpt lat="29.568829" lon="103.411866"><ele>893.1726</ele><time>2026-05-09T05:58:22.000Z</time></trkpt>
        <trkpt lat="29.568778" lon="103.411864"><ele>890.43634</ele><time>2026-05-09T05:58:26.000Z</time></trkpt>
        <trkpt lat="29.568722" lon="103.411852"><ele>891.66693</ele><time>2026-05-09T05:58:29.000Z</time></trkpt>
        <trkpt lat="29.568674" lon="103.411854"><ele>891.9105</ele><time>2026-05-09T05:58:32.000Z</time></trkpt>
        <trkpt lat="29.568617" lon="103.411833"><ele>889.7866</ele><time>2026-05-09T05:58:42.000Z</time></trkpt>
        <trkpt lat="29.568582" lon="103.411797"><ele>887.198</ele><time>2026-05-09T05:58:50.000Z</time></trkpt>
        <trkpt lat="29.568541" lon="103.411766"><ele>887.48004</ele><time>2026-05-09T05:58:57.000Z</time></trkpt>
        <trkpt lat="29.568491" lon="103.411738"><ele>887.5823</ele><time>2026-05-09T05:59:01.000Z</time></trkpt>
        <trkpt lat="29.56847" lon="103.411687"><ele>885.431</ele><time>2026-05-09T05:59:05.000Z</time></trkpt>
        <trkpt lat="29.568442" lon="103.41163"><ele>886.20825</ele><time>2026-05-09T05:59:10.000Z</time></trkpt>
        <trkpt lat="29.568407" lon="103.411587"><ele>884.8694</ele><time>2026-05-09T05:59:15.000Z</time></trkpt>
        <trkpt lat="29.568376" lon="103.41154"><ele>884.49194</ele><time>2026-05-09T05:59:21.000Z</time></trkpt>
        <trkpt lat="29.568385" lon="103.411477"><ele>884.8677</ele><time>2026-05-09T05:59:26.000Z</time></trkpt>
        <trkpt lat="29.56841" lon="103.411414"><ele>884.4953</ele><time>2026-05-09T05:59:30.000Z</time></trkpt>
        <trkpt lat="29.568425" lon="103.411364"><ele>884.97504</ele><time>2026-05-09T05:59:34.000Z</time></trkpt>
        <trkpt lat="29.568452" lon="103.411309"><ele>885.589</ele><time>2026-05-09T05:59:38.000Z</time></trkpt>
        <trkpt lat="29.568474" lon="103.411262"><ele>885.0874</ele><time>2026-05-09T05:59:41.000Z</time></trkpt>
        <trkpt lat="29.568504" lon="103.411213"><ele>884.15674</ele><time>2026-05-09T05:59:44.000Z</time></trkpt>
        <trkpt lat="29.568514" lon="103.411153"><ele>884.25696</ele><time>2026-05-09T05:59:48.000Z</time></trkpt>
        <trkpt lat="29.568504" lon="103.411098"><ele>882.4886</ele><time>2026-05-09T05:59:53.000Z</time></trkpt>
        <trkpt lat="29.568505" lon="103.411044"><ele>882.25696</ele><time>2026-05-09T05:59:56.000Z</time></trkpt>
        <trkpt lat="29.56852" lon="103.410989"><ele>882.149</ele><time>2026-05-09T05:59:58.000Z</time></trkpt>
        <trkpt lat="29.568532" lon="103.410937"><ele>881.6059</ele><time>2026-05-09T06:00:04.000Z</time></trkpt>
        <trkpt lat="29.568546" lon="103.410882"><ele>881.0139</ele><time>2026-05-09T06:00:09.000Z</time></trkpt>
        <trkpt lat="29.568571" lon="103.41083"><ele>880.6414</ele><time>2026-05-09T06:00:13.000Z</time></trkpt>
        <trkpt lat="29.56859" lon="103.410775"><ele>877.6393</ele><time>2026-05-09T06:00:17.000Z</time></trkpt>
        <trkpt lat="29.568611" lon="103.410728"><ele>875.966</ele><time>2026-05-09T06:00:21.000Z</time></trkpt>
        <trkpt lat="29.568618" lon="103.410672"><ele>876.5625</ele><time>2026-05-09T06:00:25.000Z</time></trkpt>
        <trkpt lat="29.568631" lon="103.41061"><ele>876.2612</ele><time>2026-05-09T06:00:29.000Z</time></trkpt>
        <trkpt lat="29.568646" lon="103.410546"><ele>876.1175</ele><time>2026-05-09T06:00:33.000Z</time></trkpt>
        <trkpt lat="29.568654" lon="103.410495"><ele>874.43353</ele><time>2026-05-09T06:00:37.000Z</time></trkpt>
        <trkpt lat="29.568664" lon="103.410436"><ele>875.1908</ele><time>2026-05-09T06:00:41.000Z</time></trkpt>
        <trkpt lat="29.568657" lon="103.410369"><ele>874.66156</ele><time>2026-05-09T06:00:46.000Z</time></trkpt>
        <trkpt lat="29.568653" lon="103.410316"><ele>874.203</ele><time>2026-05-09T06:00:50.000Z</time></trkpt>
        <trkpt lat="29.568641" lon="103.41025"><ele>873.4601</ele><time>2026-05-09T06:00:54.000Z</time></trkpt>
        <trkpt lat="29.568635" lon="103.410192"><ele>873.9719</ele><time>2026-05-09T06:00:58.000Z</time></trkpt>
        <trkpt lat="29.568649" lon="103.410142"><ele>874.5829</ele><time>2026-05-09T06:01:02.000Z</time></trkpt>
        <trkpt lat="29.568651" lon="103.41008"><ele>874.4768</ele><time>2026-05-09T06:01:07.000Z</time></trkpt>
        <trkpt lat="29.568621" lon="103.410027"><ele>875.2884</ele><time>2026-05-09T06:01:11.000Z</time></trkpt>
        <trkpt lat="29.56858" lon="103.409994"><ele>873.59644</ele><time>2026-05-09T06:01:15.000Z</time></trkpt>
        <trkpt lat="29.568531" lon="103.40996"><ele>873.3719</ele><time>2026-05-09T06:01:19.000Z</time></trkpt>
        <trkpt lat="29.568475" lon="103.409946"><ele>872.009</ele><time>2026-05-09T06:01:24.000Z</time></trkpt>
        <trkpt lat="29.568431" lon="103.40997"><ele>872.76373</ele><time>2026-05-09T06:01:27.000Z</time></trkpt>
        <trkpt lat="29.568387" lon="103.409934"><ele>874.3828</ele><time>2026-05-09T06:01:30.000Z</time></trkpt>
        <trkpt lat="29.568353" lon="103.409896"><ele>875.11285</ele><time>2026-05-09T06:01:33.000Z</time></trkpt>
        <trkpt lat="29.568347" lon="103.409842"><ele>872.2657</ele><time>2026-05-09T06:01:36.000Z</time></trkpt>
        <trkpt lat="29.568316" lon="103.409781"><ele>870.43286</ele><time>2026-05-09T06:01:40.000Z</time></trkpt>
        <trkpt lat="29.568295" lon="103.409733"><ele>870.5832</ele><time>2026-05-09T06:01:43.000Z</time></trkpt>
        <trkpt lat="29.568281" lon="103.409665"><ele>868.34906</ele><time>2026-05-09T06:01:47.000Z</time></trkpt>
        <trkpt lat="29.568266" lon="103.409596"><ele>865.22034</ele><time>2026-05-09T06:01:51.000Z</time></trkpt>
        <trkpt lat="29.568246" lon="103.409541"><ele>861.4634</ele><time>2026-05-09T06:01:55.000Z</time></trkpt>
        <trkpt lat="29.568218" lon="103.409484"><ele>859.364</ele><time>2026-05-09T06:01:59.000Z</time></trkpt>
        <trkpt lat="29.568207" lon="103.409427"><ele>855.6184</ele><time>2026-05-09T06:02:03.000Z</time></trkpt>
        <trkpt lat="29.568183" lon="103.409374"><ele>856.931</ele><time>2026-05-09T06:02:05.000Z</time></trkpt>
        <trkpt lat="29.568145" lon="103.409317"><ele>854.46967</ele><time>2026-05-09T06:02:09.000Z</time></trkpt>
        <trkpt lat="29.568114" lon="103.409275"><ele>855.3019</ele><time>2026-05-09T06:02:12.000Z</time></trkpt>
        <trkpt lat="29.568094" lon="103.409224"><ele>852.0277</ele><time>2026-05-09T06:02:15.000Z</time></trkpt>
        <trkpt lat="29.568075" lon="103.409169"><ele>850.2467</ele><time>2026-05-09T06:02:18.000Z</time></trkpt>
        <trkpt lat="29.568055" lon="103.409118"><ele>847.74536</ele><time>2026-05-09T06:02:21.000Z</time></trkpt>
        <trkpt lat="29.568027" lon="103.409059"><ele>844.2327</ele><time>2026-05-09T06:02:25.000Z</time></trkpt>
        <trkpt lat="29.567989" lon="103.40902"><ele>844.3443</ele><time>2026-05-09T06:02:28.000Z</time></trkpt>
        <trkpt lat="29.567968" lon="103.408967"><ele>839.4309</ele><time>2026-05-09T06:02:32.000Z</time></trkpt>
        <trkpt lat="29.567934" lon="103.408916"><ele>840.4252</ele><time>2026-05-09T06:02:35.000Z</time></trkpt>
        <trkpt lat="29.567925" lon="103.408866"><ele>840.6209</ele><time>2026-05-09T06:02:38.000Z</time></trkpt>
        <trkpt lat="29.56792" lon="103.40881"><ele>836.1675</ele><time>2026-05-09T06:02:42.000Z</time></trkpt>
        <trkpt lat="29.567921" lon="103.408759"><ele>835.42017</ele><time>2026-05-09T06:02:45.000Z</time></trkpt>
        <trkpt lat="29.567901" lon="103.408697"><ele>833.726</ele><time>2026-05-09T06:02:49.000Z</time></trkpt>
        <trkpt lat="29.567889" lon="103.408644"><ele>831.15717</ele><time>2026-05-09T06:02:52.000Z</time></trkpt>
        <trkpt lat="29.567844" lon="103.408602"><ele>830.83453</ele><time>2026-05-09T06:02:56.000Z</time></trkpt>
        <trkpt lat="29.567812" lon="103.408558"><ele>830.7184</ele><time>2026-05-09T06:03:00.000Z</time></trkpt>
        <trkpt lat="29.567777" lon="103.408521"><ele>829.073</ele><time>2026-05-09T06:03:04.000Z</time></trkpt>
        <trkpt lat="29.567761" lon="103.408467"><ele>828.2205</ele><time>2026-05-09T06:03:09.000Z</time></trkpt>
        <trkpt lat="29.567716" lon="103.40845"><ele>826.0806</ele><time>2026-05-09T06:03:15.000Z</time></trkpt>
        <trkpt lat="29.567668" lon="103.408436"><ele>825.9698</ele><time>2026-05-09T06:03:20.000Z</time></trkpt>
        <trkpt lat="29.567635" lon="103.408391"><ele>824.2603</ele><time>2026-05-09T06:03:23.000Z</time></trkpt>
        <trkpt lat="29.567625" lon="103.408443"><ele>825.15375</ele><time>2026-05-09T06:03:30.000Z</time></trkpt>
        <trkpt lat="29.567624" lon="103.408501"><ele>824.0228</ele><time>2026-05-09T06:03:34.000Z</time></trkpt>
        <trkpt lat="29.567605" lon="103.408558"><ele>824.1428</ele><time>2026-05-09T06:03:38.000Z</time></trkpt>
        <trkpt lat="29.567581" lon="103.408602"><ele>823.2997</ele><time>2026-05-09T06:03:41.000Z</time></trkpt>
        <trkpt lat="29.567537" lon="103.408642"><ele>822.54376</ele><time>2026-05-09T06:03:45.000Z</time></trkpt>
        <trkpt lat="29.567485" lon="103.408651"><ele>821.9069</ele><time>2026-05-09T06:03:48.000Z</time></trkpt>
        <trkpt lat="29.56743" lon="103.408642"><ele>822.2602</ele><time>2026-05-09T06:03:51.000Z</time></trkpt>
        <trkpt lat="29.567374" lon="103.408617"><ele>823.3449</ele><time>2026-05-09T06:03:55.000Z</time></trkpt>
        <trkpt lat="29.567335" lon="103.408586"><ele>821.9857</ele><time>2026-05-09T06:03:58.000Z</time></trkpt>
        <trkpt lat="29.567286" lon="103.408553"><ele>820.92755</ele><time>2026-05-09T06:04:02.000Z</time></trkpt>
        <trkpt lat="29.567248" lon="103.408522"><ele>821.42786</ele><time>2026-05-09T06:04:05.000Z</time></trkpt>
        <trkpt lat="29.567201" lon="103.408494"><ele>820.74994</ele><time>2026-05-09T06:04:09.000Z</time></trkpt>
        <trkpt lat="29.567155" lon="103.40847"><ele>819.9821</ele><time>2026-05-09T06:04:13.000Z</time></trkpt>
        <trkpt lat="29.567109" lon="103.408449"><ele>819.51215</ele><time>2026-05-09T06:04:17.000Z</time></trkpt>
        <trkpt lat="29.567061" lon="103.40845"><ele>820.04974</ele><time>2026-05-09T06:04:21.000Z</time></trkpt>
        <trkpt lat="29.567016" lon="103.408455"><ele>819.27264</ele><time>2026-05-09T06:04:25.000Z</time></trkpt>
        <trkpt lat="29.566968" lon="103.408465"><ele>820.76337</ele><time>2026-05-09T06:04:31.000Z</time></trkpt>
        <trkpt lat="29.566917" lon="103.408466"><ele>818.12085</ele><time>2026-05-09T06:04:35.000Z</time></trkpt>
        <trkpt lat="29.566868" lon="103.408471"><ele>818.1333</ele><time>2026-05-09T06:04:39.000Z</time></trkpt>
        <trkpt lat="29.566812" lon="103.408463"><ele>817.6429</ele><time>2026-05-09T06:04:43.000Z</time></trkpt>
        <trkpt lat="29.566767" lon="103.408456"><ele>817.7501</ele><time>2026-05-09T06:04:46.000Z</time></trkpt>
        <trkpt lat="29.566723" lon="103.408418"><ele>817.9554</ele><time>2026-05-09T06:04:49.000Z</time></trkpt>
        <trkpt lat="29.566703" lon="103.408372"><ele>819.45056</ele><time>2026-05-09T06:04:52.000Z</time></trkpt>
        <trkpt lat="29.566687" lon="103.408315"><ele>819.8836</ele><time>2026-05-09T06:04:55.000Z</time></trkpt>
        <trkpt lat="29.566686" lon="103.408259"><ele>818.60956</ele><time>2026-05-09T06:04:58.000Z</time></trkpt>
        <trkpt lat="29.566691" lon="103.408193"><ele>818.19214</ele><time>2026-05-09T06:05:02.000Z</time></trkpt>
        <trkpt lat="29.566693" lon="103.408128"><ele>817.698</ele><time>2026-05-09T06:05:06.000Z</time></trkpt>
        <trkpt lat="29.566711" lon="103.408067"><ele>817.1113</ele><time>2026-05-09T06:05:10.000Z</time></trkpt>
        <trkpt lat="29.566704" lon="103.408012"><ele>816.9839</ele><time>2026-05-09T06:05:14.000Z</time></trkpt>
        <trkpt lat="29.566668" lon="103.407971"><ele>817.90234</ele><time>2026-05-09T06:05:19.000Z</time></trkpt>
        <trkpt lat="29.566622" lon="103.407978"><ele>817.612</ele><time>2026-05-09T06:05:25.000Z</time></trkpt>
        <trkpt lat="29.566575" lon="103.407991"><ele>817.5565</ele><time>2026-05-09T06:06:09.000Z</time></trkpt>
        <trkpt lat="29.566622" lon="103.408005"><ele>817.0063</ele><time>2026-05-09T06:06:25.000Z</time></trkpt>
        <trkpt lat="29.566596" lon="103.407958"><ele>819.85834</ele><time>2026-05-09T06:07:20.000Z</time></trkpt>
        <trkpt lat="29.566569" lon="103.408001"><ele>820.2155</ele><time>2026-05-09T06:07:31.000Z</time></trkpt>
        <trkpt lat="29.566609" lon="103.407969"><ele>818.54346</ele><time>2026-05-09T06:07:37.000Z</time></trkpt>
        <trkpt lat="29.566645" lon="103.407931"><ele>818.6692</ele><time>2026-05-09T06:07:43.000Z</time></trkpt>
        <trkpt lat="29.566648" lon="103.407879"><ele>818.5057</ele><time>2026-05-09T06:07:48.000Z</time></trkpt>
        <trkpt lat="29.566645" lon="103.407827"><ele>817.84863</ele><time>2026-05-09T06:07:54.000Z</time></trkpt>
        <trkpt lat="29.566678" lon="103.407781"><ele>818.2095</ele><time>2026-05-09T06:08:01.000Z</time></trkpt>
        <trkpt lat="29.566658" lon="103.407722"><ele>816.4527</ele><time>2026-05-09T06:09:24.000Z</time></trkpt>
        <trkpt lat="29.566694" lon="103.407673"><ele>816.2919</ele><time>2026-05-09T06:09:29.000Z</time></trkpt>
        <trkpt lat="29.566733" lon="103.407634"><ele>816.6558</ele><time>2026-05-09T06:09:33.000Z</time></trkpt>
        <trkpt lat="29.566779" lon="103.407631"><ele>817.03925</ele><time>2026-05-09T06:09:38.000Z</time></trkpt>
        <trkpt lat="29.566832" lon="103.407753"><ele>818.2998</ele><time>2026-05-09T06:09:51.000Z</time></trkpt>
        <trkpt lat="29.566774" lon="103.407669"><ele>769.08795</ele><time>2026-05-09T06:10:13.000Z</time></trkpt>
        <trkpt lat="29.56682" lon="103.407591"><ele>820.5226</ele><time>2026-05-09T06:10:30.000Z</time></trkpt>
        <trkpt lat="29.566677" lon="103.407744"><ele>819.21545</ele><time>2026-05-09T06:10:41.000Z</time></trkpt>
        <trkpt lat="29.566655" lon="103.407804"><ele>818.6347</ele><time>2026-05-09T06:10:45.000Z</time></trkpt>
        <trkpt lat="29.566628" lon="103.407846"><ele>814.5199</ele><time>2026-05-09T06:13:23.000Z</time></trkpt>
        <trkpt lat="29.566644" lon="103.407795"><ele>816.6711</ele><time>2026-05-09T06:13:43.000Z</time></trkpt>
        <trkpt lat="29.566679" lon="103.407828"><ele>816.6012</ele><time>2026-05-09T06:14:25.000Z</time></trkpt>
        <trkpt lat="29.566658" lon="103.407877"><ele>817.4631</ele><time>2026-05-09T06:14:38.000Z</time></trkpt>
        <trkpt lat="29.566637" lon="103.407933"><ele>817.5444</ele><time>2026-05-09T06:14:42.000Z</time></trkpt>
        <trkpt lat="29.566604" lon="103.407968"><ele>818.87305</ele><time>2026-05-09T06:14:47.000Z</time></trkpt>
        <trkpt lat="29.566587" lon="103.408021"><ele>821.58746</ele><time>2026-05-09T06:15:02.000Z</time></trkpt>
        <trkpt lat="29.566617" lon="103.407976"><ele>816.1138</ele><time>2026-05-09T06:15:23.000Z</time></trkpt>
        <trkpt lat="29.566657" lon="103.407922"><ele>816.6844</ele><time>2026-05-09T06:15:28.000Z</time></trkpt>
        <trkpt lat="29.566667" lon="103.407868"><ele>817.9745</ele><time>2026-05-09T06:15:32.000Z</time></trkpt>
        <trkpt lat="29.566641" lon="103.407825"><ele>817.27563</ele><time>2026-05-09T06:15:36.000Z</time></trkpt>
        <trkpt lat="29.566636" lon="103.407769"><ele>817.2724</ele><time>2026-05-09T06:15:40.000Z</time></trkpt>
        <trkpt lat="29.56661" lon="103.407722"><ele>818.1722</ele><time>2026-05-09T06:15:45.000Z</time></trkpt>
        <trkpt lat="29.566595" lon="103.407666"><ele>817.859</ele><time>2026-05-09T06:15:51.000Z</time></trkpt>
        <trkpt lat="29.56657" lon="103.407615"><ele>817.70184</ele><time>2026-05-09T06:15:56.000Z</time></trkpt>
        <trkpt lat="29.566554" lon="103.407565"><ele>818.46497</ele><time>2026-05-09T06:16:00.000Z</time></trkpt>
        <trkpt lat="29.566543" lon="103.407515"><ele>818.6262</ele><time>2026-05-09T06:16:05.000Z</time></trkpt>
        <trkpt lat="29.566517" lon="103.407463"><ele>818.0908</ele><time>2026-05-09T06:16:11.000Z</time></trkpt>
        <trkpt lat="29.5665" lon="103.407412"><ele>817.17615</ele><time>2026-05-09T06:16:15.000Z</time></trkpt>
        <trkpt lat="29.566495" lon="103.407354"><ele>818.0214</ele><time>2026-05-09T06:16:20.000Z</time></trkpt>
        <trkpt lat="29.566492" lon="103.407301"><ele>816.9176</ele><time>2026-05-09T06:16:24.000Z</time></trkpt>
        <trkpt lat="29.566477" lon="103.407252"><ele>816.45013</ele><time>2026-05-09T06:16:28.000Z</time></trkpt>
        <trkpt lat="29.566465" lon="103.407188"><ele>816.1557</ele><time>2026-05-09T06:16:32.000Z</time></trkpt>
        <trkpt lat="29.566453" lon="103.407129"><ele>814.69183</ele><time>2026-05-09T06:16:36.000Z</time></trkpt>
        <trkpt lat="29.566448" lon="103.407075"><ele>815.5672</ele><time>2026-05-09T06:16:39.000Z</time></trkpt>
        <trkpt lat="29.566444" lon="103.407013"><ele>814.6185</ele><time>2026-05-09T06:16:42.000Z</time></trkpt>
        <trkpt lat="29.566452" lon="103.406956"><ele>815.20526</ele><time>2026-05-09T06:16:45.000Z</time></trkpt>
        <trkpt lat="29.566458" lon="103.406904"><ele>816.5361</ele><time>2026-05-09T06:16:48.000Z</time></trkpt>
        <trkpt lat="29.566473" lon="103.406848"><ele>817.5429</ele><time>2026-05-09T06:16:53.000Z</time></trkpt>
        <trkpt lat="29.566501" lon="103.406803"><ele>818.37714</ele><time>2026-05-09T06:16:56.000Z</time></trkpt>
        <trkpt lat="29.566541" lon="103.40677"><ele>817.24115</ele><time>2026-05-09T06:16:58.000Z</time></trkpt>
        <trkpt lat="29.56659" lon="103.406737"><ele>818.55194</ele><time>2026-05-09T06:17:01.000Z</time></trkpt>
        <trkpt lat="29.566633" lon="103.406706"><ele>817.0731</ele><time>2026-05-09T06:17:06.000Z</time></trkpt>
        <trkpt lat="29.566648" lon="103.406655"><ele>815.6408</ele><time>2026-05-09T06:17:10.000Z</time></trkpt>
        <trkpt lat="29.566674" lon="103.406606"><ele>815.9751</ele><time>2026-05-09T06:17:14.000Z</time></trkpt>
        <trkpt lat="29.566716" lon="103.406553"><ele>814.7753</ele><time>2026-05-09T06:17:18.000Z</time></trkpt>
        <trkpt lat="29.566761" lon="103.406527"><ele>814.1152</ele><time>2026-05-09T06:17:22.000Z</time></trkpt>
        <trkpt lat="29.566795" lon="103.406474"><ele>815.9024</ele><time>2026-05-09T06:17:26.000Z</time></trkpt>
        <trkpt lat="29.566827" lon="103.406435"><ele>814.44293</ele><time>2026-05-09T06:17:29.000Z</time></trkpt>
        <trkpt lat="29.566859" lon="103.406388"><ele>814.9007</ele><time>2026-05-09T06:17:32.000Z</time></trkpt>
        <trkpt lat="29.566893" lon="103.406328"><ele>812.93005</ele><time>2026-05-09T06:17:36.000Z</time></trkpt>
        <trkpt lat="29.566925" lon="103.406279"><ele>813.10925</ele><time>2026-05-09T06:17:40.000Z</time></trkpt>
        <trkpt lat="29.566953" lon="103.406235"><ele>812.81976</ele><time>2026-05-09T06:17:43.000Z</time></trkpt>
        <trkpt lat="29.566968" lon="103.406172"><ele>811.62726</ele><time>2026-05-09T06:17:47.000Z</time></trkpt>
        <trkpt lat="29.567003" lon="103.406127"><ele>811.47473</ele><time>2026-05-09T06:17:52.000Z</time></trkpt>
        <trkpt lat="29.567038" lon="103.406077"><ele>812.07996</ele><time>2026-05-09T06:17:56.000Z</time></trkpt>
        <trkpt lat="29.56707" lon="103.406027"><ele>809.19885</ele><time>2026-05-09T06:18:01.000Z</time></trkpt>
        <trkpt lat="29.567102" lon="103.405975"><ele>809.272</ele><time>2026-05-09T06:18:05.000Z</time></trkpt>
        <trkpt lat="29.567131" lon="103.40592"><ele>808.33575</ele><time>2026-05-09T06:18:08.000Z</time></trkpt>
        <trkpt lat="29.567155" lon="103.405867"><ele>806.61255</ele><time>2026-05-09T06:18:13.000Z</time></trkpt>
        <trkpt lat="29.567152" lon="103.405806"><ele>805.6129</ele><time>2026-05-09T06:18:17.000Z</time></trkpt>
        <trkpt lat="29.567124" lon="103.405755"><ele>804.59534</ele><time>2026-05-09T06:18:21.000Z</time></trkpt>
        <trkpt lat="29.567082" lon="103.40571"><ele>805.4574</ele><time>2026-05-09T06:18:25.000Z</time></trkpt>
        <trkpt lat="29.567042" lon="103.405681"><ele>806.06165</ele><time>2026-05-09T06:18:28.000Z</time></trkpt>
        <trkpt lat="29.566996" lon="103.405658"><ele>805.45935</ele><time>2026-05-09T06:18:31.000Z</time></trkpt>
        <trkpt lat="29.56695" lon="103.40562"><ele>806.8559</ele><time>2026-05-09T06:18:35.000Z</time></trkpt>
        <trkpt lat="29.566907" lon="103.405588"><ele>805.9845</ele><time>2026-05-09T06:18:39.000Z</time></trkpt>
        <trkpt lat="29.566888" lon="103.405527"><ele>807.3356</ele><time>2026-05-09T06:18:43.000Z</time></trkpt>
        <trkpt lat="29.56685" lon="103.405485"><ele>807.07025</ele><time>2026-05-09T06:18:48.000Z</time></trkpt>
        <trkpt lat="29.566823" lon="103.405441"><ele>808.8611</ele><time>2026-05-09T06:18:52.000Z</time></trkpt>
        <trkpt lat="29.566796" lon="103.405396"><ele>808.7079</ele><time>2026-05-09T06:18:55.000Z</time></trkpt>
        <trkpt lat="29.566761" lon="103.405361"><ele>809.0394</ele><time>2026-05-09T06:18:58.000Z</time></trkpt>
        <trkpt lat="29.566746" lon="103.40531"><ele>809.6766</ele><time>2026-05-09T06:19:01.000Z</time></trkpt>
        <trkpt lat="29.566743" lon="103.405254"><ele>809.03107</ele><time>2026-05-09T06:19:05.000Z</time></trkpt>
        <trkpt lat="29.566738" lon="103.405198"><ele>806.60547</ele><time>2026-05-09T06:19:09.000Z</time></trkpt>
        <trkpt lat="29.566741" lon="103.405137"><ele>806.50525</ele><time>2026-05-09T06:19:13.000Z</time></trkpt>
        <trkpt lat="29.566784" lon="103.405099"><ele>807.46204</ele><time>2026-05-09T06:19:16.000Z</time></trkpt>
        <trkpt lat="29.566834" lon="103.405083"><ele>807.4</ele><time>2026-05-09T06:19:20.000Z</time></trkpt>
        <trkpt lat="29.566879" lon="103.405102"><ele>807.9775</ele><time>2026-05-09T06:19:23.000Z</time></trkpt>
        <trkpt lat="29.566925" lon="103.405122"><ele>808.33185</ele><time>2026-05-09T06:19:26.000Z</time></trkpt>
        <trkpt lat="29.566983" lon="103.405124"><ele>807.3833</ele><time>2026-05-09T06:19:31.000Z</time></trkpt>
        <trkpt lat="29.567037" lon="103.40512"><ele>808.3979</ele><time>2026-05-09T06:19:35.000Z</time></trkpt>
        <trkpt lat="29.567092" lon="103.405098"><ele>809.7934</ele><time>2026-05-09T06:19:39.000Z</time></trkpt>
        <trkpt lat="29.567141" lon="103.405088"><ele>810.2236</ele><time>2026-05-09T06:19:42.000Z</time></trkpt>
        <trkpt lat="29.567192" lon="103.405067"><ele>808.92126</ele><time>2026-05-09T06:19:46.000Z</time></trkpt>
        <trkpt lat="29.567242" lon="103.405047"><ele>809.2551</ele><time>2026-05-09T06:19:50.000Z</time></trkpt>
        <trkpt lat="29.56729" lon="103.405043"><ele>810.1415</ele><time>2026-05-09T06:19:53.000Z</time></trkpt>
        <trkpt lat="29.567336" lon="103.405025"><ele>810.3907</ele><time>2026-05-09T06:19:57.000Z</time></trkpt>
        <trkpt lat="29.567397" lon="103.405024"><ele>809.6354</ele><time>2026-05-09T06:20:02.000Z</time></trkpt>
        <trkpt lat="29.567458" lon="103.405024"><ele>810.2205</ele><time>2026-05-09T06:20:06.000Z</time></trkpt>
        <trkpt lat="29.567504" lon="103.405035"><ele>809.2213</ele><time>2026-05-09T06:20:09.000Z</time></trkpt>
        <trkpt lat="29.567556" lon="103.405033"><ele>808.5531</ele><time>2026-05-09T06:20:13.000Z</time></trkpt>
        <trkpt lat="29.567615" lon="103.405048"><ele>807.0821</ele><time>2026-05-09T06:20:18.000Z</time></trkpt>
        <trkpt lat="29.56766" lon="103.405066"><ele>808.76074</ele><time>2026-05-09T06:20:21.000Z</time></trkpt>
        <trkpt lat="29.567711" lon="103.405065"><ele>806.5265</ele><time>2026-05-09T06:20:24.000Z</time></trkpt>
        <trkpt lat="29.567764" lon="103.405062"><ele>807.27997</ele><time>2026-05-09T06:20:27.000Z</time></trkpt>
        <trkpt lat="29.567811" lon="103.405063"><ele>805.97955</ele><time>2026-05-09T06:20:30.000Z</time></trkpt>
        <trkpt lat="29.567869" lon="103.405049"><ele>807.55334</ele><time>2026-05-09T06:20:34.000Z</time></trkpt>
        <trkpt lat="29.567915" lon="103.405046"><ele>805.09064</ele><time>2026-05-09T06:20:37.000Z</time></trkpt>
        <trkpt lat="29.567963" lon="103.405015"><ele>808.5714</ele><time>2026-05-09T06:20:41.000Z</time></trkpt>
        <trkpt lat="29.568011" lon="103.404964"><ele>807.09247</ele><time>2026-05-09T06:20:45.000Z</time></trkpt>
        <trkpt lat="29.568048" lon="103.404935"><ele>805.80566</ele><time>2026-05-09T06:20:49.000Z</time></trkpt>
        <trkpt lat="29.568076" lon="103.404888"><ele>806.5766</ele><time>2026-05-09T06:20:52.000Z</time></trkpt>
        <trkpt lat="29.568113" lon="103.40485"><ele>808.25104</ele><time>2026-05-09T06:20:56.000Z</time></trkpt>
        <trkpt lat="29.568159" lon="103.404841"><ele>806.4423</ele><time>2026-05-09T06:20:59.000Z</time></trkpt>
        <trkpt lat="29.56823" lon="103.40483"><ele>804.8026</ele><time>2026-05-09T06:21:02.000Z</time></trkpt>
        <trkpt lat="29.568277" lon="103.404802"><ele>805.00146</ele><time>2026-05-09T06:21:05.000Z</time></trkpt>
        <trkpt lat="29.568283" lon="103.404724"><ele>803.2743</ele><time>2026-05-09T06:21:09.000Z</time></trkpt>
        <trkpt lat="29.568328" lon="103.404695"><ele>803.7653</ele><time>2026-05-09T06:21:11.000Z</time></trkpt>
        <trkpt lat="29.568357" lon="103.404649"><ele>802.2149</ele><time>2026-05-09T06:21:14.000Z</time></trkpt>
        <trkpt lat="29.568365" lon="103.404595"><ele>800.96674</ele><time>2026-05-09T06:21:17.000Z</time></trkpt>
        <trkpt lat="29.568391" lon="103.404547"><ele>800.3271</ele><time>2026-05-09T06:21:20.000Z</time></trkpt>
        <trkpt lat="29.568426" lon="103.404508"><ele>800.337</ele><time>2026-05-09T06:21:23.000Z</time></trkpt>
        <trkpt lat="29.568464" lon="103.404474"><ele>798.30884</ele><time>2026-05-09T06:21:26.000Z</time></trkpt>
        <trkpt lat="29.568509" lon="103.404438"><ele>797.2461</ele><time>2026-05-09T06:21:30.000Z</time></trkpt>
        <trkpt lat="29.56854" lon="103.404399"><ele>797.22614</ele><time>2026-05-09T06:21:33.000Z</time></trkpt>
        <trkpt lat="29.568561" lon="103.404333"><ele>800.55396</ele><time>2026-05-09T06:21:37.000Z</time></trkpt>
        <trkpt lat="29.568575" lon="103.40427"><ele>800.23126</ele><time>2026-05-09T06:21:40.000Z</time></trkpt>
        <trkpt lat="29.568599" lon="103.404223"><ele>799.1712</ele><time>2026-05-09T06:21:43.000Z</time></trkpt>
        <trkpt lat="29.568631" lon="103.404167"><ele>798.9391</ele><time>2026-05-09T06:21:47.000Z</time></trkpt>
        <trkpt lat="29.568663" lon="103.404122"><ele>797.82306</ele><time>2026-05-09T06:21:50.000Z</time></trkpt>
        <trkpt lat="29.568691" lon="103.404081"><ele>795.84796</ele><time>2026-05-09T06:21:53.000Z</time></trkpt>
        <trkpt lat="29.56872" lon="103.404035"><ele>795.13885</ele><time>2026-05-09T06:21:56.000Z</time></trkpt>
        <trkpt lat="29.568758" lon="103.403983"><ele>795.3371</ele><time>2026-05-09T06:22:00.000Z</time></trkpt>
        <trkpt lat="29.568785" lon="103.403932"><ele>796.2586</ele><time>2026-05-09T06:22:03.000Z</time></trkpt>
        <trkpt lat="29.568836" lon="103.403899"><ele>793.74866</ele><time>2026-05-09T06:22:07.000Z</time></trkpt>
        <trkpt lat="29.568883" lon="103.403889"><ele>794.175</ele><time>2026-05-09T06:22:10.000Z</time></trkpt>
        <trkpt lat="29.568941" lon="103.403902"><ele>798.4062</ele><time>2026-05-09T06:22:13.000Z</time></trkpt>
        <trkpt lat="29.568991" lon="103.403921"><ele>799.81744</ele><time>2026-05-09T06:22:16.000Z</time></trkpt>
        <trkpt lat="29.56904" lon="103.403929"><ele>798.5296</ele><time>2026-05-09T06:22:19.000Z</time></trkpt>
        <trkpt lat="29.569092" lon="103.40394"><ele>798.39514</ele><time>2026-05-09T06:22:23.000Z</time></trkpt>
        <trkpt lat="29.569137" lon="103.40394"><ele>796.80817</ele><time>2026-05-09T06:22:26.000Z</time></trkpt>
        <trkpt lat="29.569191" lon="103.403923"><ele>795.0624</ele><time>2026-05-09T06:22:30.000Z</time></trkpt>
        <trkpt lat="29.569231" lon="103.403891"><ele>795.3533</ele><time>2026-05-09T06:22:33.000Z</time></trkpt>
        <trkpt lat="29.569282" lon="103.403885"><ele>794.11926</ele><time>2026-05-09T06:22:36.000Z</time></trkpt>
        <trkpt lat="29.569325" lon="103.40385"><ele>793.22723</ele><time>2026-05-09T06:22:39.000Z</time></trkpt>
        <trkpt lat="29.569389" lon="103.403819"><ele>791.8899</ele><time>2026-05-09T06:22:42.000Z</time></trkpt>
        <trkpt lat="29.569433" lon="103.403796"><ele>792.9063</ele><time>2026-05-09T06:22:44.000Z</time></trkpt>
        <trkpt lat="29.569478" lon="103.403774"><ele>790.58813</ele><time>2026-05-09T06:22:46.000Z</time></trkpt>
        <trkpt lat="29.56952" lon="103.403742"><ele>789.5421</ele><time>2026-05-09T06:22:48.000Z</time></trkpt>
        <trkpt lat="29.569559" lon="103.403708"><ele>787.51575</ele><time>2026-05-09T06:22:50.000Z</time></trkpt>
        <trkpt lat="29.5696" lon="103.40366"><ele>787.8083</ele><time>2026-05-09T06:22:52.000Z</time></trkpt>
        <trkpt lat="29.569642" lon="103.403635"><ele>788.4649</ele><time>2026-05-09T06:22:54.000Z</time></trkpt>
        <trkpt lat="29.569676" lon="103.403582"><ele>787.55023</ele><time>2026-05-09T06:22:59.000Z</time></trkpt>
        <trkpt lat="29.569718" lon="103.403533"><ele>787.9602</ele><time>2026-05-09T06:23:03.000Z</time></trkpt>
        <trkpt lat="29.569757" lon="103.403489"><ele>787.07385</ele><time>2026-05-09T06:23:07.000Z</time></trkpt>
        <trkpt lat="29.56978" lon="103.40343"><ele>787.9873</ele><time>2026-05-09T06:23:09.000Z</time></trkpt>
        <trkpt lat="29.569811" lon="103.403378"><ele>789.1068</ele><time>2026-05-09T06:23:12.000Z</time></trkpt>
        <trkpt lat="29.569852" lon="103.40332"><ele>789.4044</ele><time>2026-05-09T06:23:16.000Z</time></trkpt>
        <trkpt lat="29.569893" lon="103.403271"><ele>787.3412</ele><time>2026-05-09T06:23:19.000Z</time></trkpt>
        <trkpt lat="29.569928" lon="103.403213"><ele>788.5361</ele><time>2026-05-09T06:23:21.000Z</time></trkpt>
        <trkpt lat="29.569968" lon="103.403162"><ele>787.6937</ele><time>2026-05-09T06:23:23.000Z</time></trkpt>
        <trkpt lat="29.56998" lon="103.403106"><ele>785.81555</ele><time>2026-05-09T06:23:25.000Z</time></trkpt>
        <trkpt lat="29.569999" lon="103.403044"><ele>787.89294</ele><time>2026-05-09T06:23:27.000Z</time></trkpt>
        <trkpt lat="29.570026" lon="103.402973"><ele>785.25726</ele><time>2026-05-09T06:23:29.000Z</time></trkpt>
        <trkpt lat="29.570068" lon="103.402907"><ele>784.46906</ele><time>2026-05-09T06:23:31.000Z</time></trkpt>
        <trkpt lat="29.570119" lon="103.402862"><ele>786.322</ele><time>2026-05-09T06:23:33.000Z</time></trkpt>
        <trkpt lat="29.57018" lon="103.402814"><ele>785.222</ele><time>2026-05-09T06:23:35.000Z</time></trkpt>
        <trkpt lat="29.570252" lon="103.402789"><ele>788.06024</ele><time>2026-05-09T06:23:37.000Z</time></trkpt>
        <trkpt lat="29.570299" lon="103.402798"><ele>786.3294</ele><time>2026-05-09T06:23:38.000Z</time></trkpt>
        <trkpt lat="29.570353" lon="103.402806"><ele>784.67035</ele><time>2026-05-09T06:23:40.000Z</time></trkpt>
        <trkpt lat="29.570418" lon="103.40281"><ele>787.33075</ele><time>2026-05-09T06:23:42.000Z</time></trkpt>
        <trkpt lat="29.570477" lon="103.402795"><ele>787.3195</ele><time>2026-05-09T06:23:44.000Z</time></trkpt>
        <trkpt lat="29.570538" lon="103.402786"><ele>783.9178</ele><time>2026-05-09T06:23:46.000Z</time></trkpt>
        <trkpt lat="29.570597" lon="103.402773"><ele>786.0953</ele><time>2026-05-09T06:23:48.000Z</time></trkpt>
        <trkpt lat="29.570657" lon="103.402775"><ele>782.90497</ele><time>2026-05-09T06:23:50.000Z</time></trkpt>
        <trkpt lat="29.57071" lon="103.40276"><ele>782.4387</ele><time>2026-05-09T06:23:52.000Z</time></trkpt>
        <trkpt lat="29.570765" lon="103.402743"><ele>780.3405</ele><time>2026-05-09T06:23:54.000Z</time></trkpt>
        <trkpt lat="29.570813" lon="103.402709"><ele>779.4784</ele><time>2026-05-09T06:23:56.000Z</time></trkpt>
        <trkpt lat="29.570865" lon="103.402685"><ele>776.70184</ele><time>2026-05-09T06:23:58.000Z</time></trkpt>
        <trkpt lat="29.570938" lon="103.402658"><ele>778.33746</ele><time>2026-05-09T06:24:00.000Z</time></trkpt>
        <trkpt lat="29.570984" lon="103.402646"><ele>776.60114</ele><time>2026-05-09T06:24:02.000Z</time></trkpt>
        <trkpt lat="29.571027" lon="103.402596"><ele>776.7419</ele><time>2026-05-09T06:24:05.000Z</time></trkpt>
        <trkpt lat="29.571063" lon="103.402552"><ele>776.18353</ele><time>2026-05-09T06:24:07.000Z</time></trkpt>
        <trkpt lat="29.571105" lon="103.402518"><ele>776.5573</ele><time>2026-05-09T06:24:09.000Z</time></trkpt>
        <trkpt lat="29.571155" lon="103.402475"><ele>774.194</ele><time>2026-05-09T06:24:12.000Z</time></trkpt>
        <trkpt lat="29.571177" lon="103.402422"><ele>775.5066</ele><time>2026-05-09T06:24:14.000Z</time></trkpt>
        <trkpt lat="29.571216" lon="103.402383"><ele>776.1948</ele><time>2026-05-09T06:24:16.000Z</time></trkpt>
        <trkpt lat="29.571264" lon="103.40235"><ele>776.62646</ele><time>2026-05-09T06:24:18.000Z</time></trkpt>
        <trkpt lat="29.571267" lon="103.402282"><ele>774.02686</ele><time>2026-05-09T06:24:20.000Z</time></trkpt>
        <trkpt lat="29.571289" lon="103.402222"><ele>774.03375</ele><time>2026-05-09T06:24:23.000Z</time></trkpt>
        <trkpt lat="29.571322" lon="103.402173"><ele>771.3375</ele><time>2026-05-09T06:24:26.000Z</time></trkpt>
        <trkpt lat="29.571358" lon="103.402121"><ele>770.46875</ele><time>2026-05-09T06:24:32.000Z</time></trkpt>
        <trkpt lat="29.571381" lon="103.402074"><ele>770.3031</ele><time>2026-05-09T06:24:35.000Z</time></trkpt>
        <trkpt lat="29.571415" lon="103.402025"><ele>768.65894</ele><time>2026-05-09T06:24:38.000Z</time></trkpt>
        <trkpt lat="29.571464" lon="103.401992"><ele>770.39374</ele><time>2026-05-09T06:24:42.000Z</time></trkpt>
        <trkpt lat="29.571494" lon="103.401948"><ele>770.98755</ele><time>2026-05-09T06:24:45.000Z</time></trkpt>
        <trkpt lat="29.571533" lon="103.401908"><ele>773.3114</ele><time>2026-05-09T06:24:49.000Z</time></trkpt>
        <trkpt lat="29.571575" lon="103.401881"><ele>774.3318</ele><time>2026-05-09T06:24:53.000Z</time></trkpt>
        <trkpt lat="29.571627" lon="103.401872"><ele>774.68097</ele><time>2026-05-09T06:24:56.000Z</time></trkpt>
        <trkpt lat="29.571682" lon="103.401876"><ele>775.46484</ele><time>2026-05-09T06:24:59.000Z</time></trkpt>
        <trkpt lat="29.571731" lon="103.401869"><ele>773.2922</ele><time>2026-05-09T06:25:02.000Z</time></trkpt>
        <trkpt lat="29.571772" lon="103.40184"><ele>773.139</ele><time>2026-05-09T06:25:05.000Z</time></trkpt>
        <trkpt lat="29.571789" lon="103.401791"><ele>772.6773</ele><time>2026-05-09T06:25:08.000Z</time></trkpt>
        <trkpt lat="29.571797" lon="103.401738"><ele>772.68317</ele><time>2026-05-09T06:25:12.000Z</time></trkpt>
        <trkpt lat="29.571825" lon="103.401695"><ele>776.54364</ele><time>2026-05-09T06:25:16.000Z</time></trkpt>
        <trkpt lat="29.571852" lon="103.401647"><ele>774.4548</ele><time>2026-05-09T06:25:27.000Z</time></trkpt>
        <trkpt lat="29.571894" lon="103.401612"><ele>772.8742</ele><time>2026-05-09T06:25:32.000Z</time></trkpt>
        <trkpt lat="29.571934" lon="103.401585"><ele>771.11926</ele><time>2026-05-09T06:25:35.000Z</time></trkpt>
        <trkpt lat="29.571981" lon="103.401543"><ele>770.1611</ele><time>2026-05-09T06:25:39.000Z</time></trkpt>
        <trkpt lat="29.572028" lon="103.401517"><ele>769.20526</ele><time>2026-05-09T06:25:44.000Z</time></trkpt>
        <trkpt lat="29.572043" lon="103.40146"><ele>772.9947</ele><time>2026-05-09T06:25:48.000Z</time></trkpt>
        <trkpt lat="29.57203" lon="103.401409"><ele>773.3771</ele><time>2026-05-09T06:25:53.000Z</time></trkpt>
        <trkpt lat="29.572024" lon="103.401353"><ele>774.49615</ele><time>2026-05-09T06:26:03.000Z</time></trkpt>
        <trkpt lat="29.57201" lon="103.40129"><ele>776.00256</ele><time>2026-05-09T06:26:08.000Z</time></trkpt>
        <trkpt lat="29.572002" lon="103.401235"><ele>778.542</ele><time>2026-05-09T06:26:14.000Z</time></trkpt>
        <trkpt lat="29.571857" lon="103.400956"><ele>782.9278</ele><time>2026-05-09T06:27:27.000Z</time></trkpt>
        <trkpt lat="29.57199" lon="103.401007"><ele>782.98376</ele><time>2026-05-09T06:27:29.000Z</time></trkpt>
        <trkpt lat="29.571942" lon="103.401008"><ele>784.75964</ele><time>2026-05-09T06:27:36.000Z</time></trkpt>
        <trkpt lat="29.571944" lon="103.400949"><ele>786.45703</ele><time>2026-05-09T06:28:04.000Z</time></trkpt>
        <trkpt lat="29.571942" lon="103.400896"><ele>790.2781</ele><time>2026-05-09T06:28:12.000Z</time></trkpt>
        <trkpt lat="29.571935" lon="103.40084"><ele>791.7009</ele><time>2026-05-09T06:28:20.000Z</time></trkpt>
        <trkpt lat="29.571931" lon="103.400788"><ele>794.02075</ele><time>2026-05-09T06:28:30.000Z</time></trkpt>
        <trkpt lat="29.571919" lon="103.400737"><ele>795.08954</ele><time>2026-05-09T06:28:36.000Z</time></trkpt>
        <trkpt lat="29.571914" lon="103.400681"><ele>797.2731</ele><time>2026-05-09T06:28:42.000Z</time></trkpt>
        <trkpt lat="29.57189" lon="103.40063"><ele>802.2821</ele><time>2026-05-09T06:28:48.000Z</time></trkpt>
        <trkpt lat="29.571875" lon="103.400574"><ele>806.9319</ele><time>2026-05-09T06:28:56.000Z</time></trkpt>
        <trkpt lat="29.571856" lon="103.400514"><ele>802.89594</ele><time>2026-05-09T06:29:03.000Z</time></trkpt>
        <trkpt lat="29.571908" lon="103.400473"><ele>804.5812</ele><time>2026-05-09T06:29:09.000Z</time></trkpt>
        <trkpt lat="29.571883" lon="103.400419"><ele>807.343</ele><time>2026-05-09T06:29:18.000Z</time></trkpt>
        <trkpt lat="29.571895" lon="103.400368"><ele>808.48987</ele><time>2026-05-09T06:29:28.000Z</time></trkpt>
        <trkpt lat="29.57186" lon="103.400326"><ele>809.61383</ele><time>2026-05-09T06:29:35.000Z</time></trkpt>
        <trkpt lat="29.571852" lon="103.400267"><ele>813.0763</ele><time>2026-05-09T06:29:47.000Z</time></trkpt>
        <trkpt lat="29.571863" lon="103.400213"><ele>813.741</ele><time>2026-05-09T06:29:55.000Z</time></trkpt>
        <trkpt lat="29.571854" lon="103.400161"><ele>817.93756</ele><time>2026-05-09T06:30:03.000Z</time></trkpt>
        <trkpt lat="29.571832" lon="103.400109"><ele>818.31885</ele><time>2026-05-09T06:30:08.000Z</time></trkpt>
        <trkpt lat="29.571826" lon="103.400052"><ele>820.7336</ele><time>2026-05-09T06:30:21.000Z</time></trkpt>
        <trkpt lat="29.571847" lon="103.399998"><ele>824.3961</ele><time>2026-05-09T06:30:31.000Z</time></trkpt>
        <trkpt lat="29.571838" lon="103.399946"><ele>826.41394</ele><time>2026-05-09T06:30:38.000Z</time></trkpt>
        <trkpt lat="29.571839" lon="103.399888"><ele>833.82623</ele><time>2026-05-09T06:30:52.000Z</time></trkpt>
        <trkpt lat="29.57187" lon="103.399837"><ele>832.31995</ele><time>2026-05-09T06:30:56.000Z</time></trkpt>
        <trkpt lat="29.571854" lon="103.399775"><ele>831.19543</ele><time>2026-05-09T06:31:04.000Z</time></trkpt>
        <trkpt lat="29.571853" lon="103.399722"><ele>831.36395</ele><time>2026-05-09T06:31:08.000Z</time></trkpt>
        <trkpt lat="29.571865" lon="103.399663"><ele>829.8982</ele><time>2026-05-09T06:31:16.000Z</time></trkpt>
        <trkpt lat="29.571852" lon="103.399611"><ele>833.4376</ele><time>2026-05-09T06:31:29.000Z</time></trkpt>
        <trkpt lat="29.571839" lon="103.399561"><ele>835.79443</ele><time>2026-05-09T06:31:35.000Z</time></trkpt>
        <trkpt lat="29.571839" lon="103.399495"><ele>836.4174</ele><time>2026-05-09T06:31:43.000Z</time></trkpt>
        <trkpt lat="29.571842" lon="103.399443"><ele>836.37024</ele><time>2026-05-09T06:31:47.000Z</time></trkpt>
        <trkpt lat="29.571843" lon="103.399384"><ele>836.9032</ele><time>2026-05-09T06:31:53.000Z</time></trkpt>
        <trkpt lat="29.571821" lon="103.399329"><ele>838.9004</ele><time>2026-05-09T06:31:57.000Z</time></trkpt>
        <trkpt lat="29.571796" lon="103.399278"><ele>842.44214</ele><time>2026-05-09T06:32:02.000Z</time></trkpt>
        <trkpt lat="29.571762" lon="103.399233"><ele>843.80865</ele><time>2026-05-09T06:32:11.000Z</time></trkpt>
        <trkpt lat="29.571729" lon="103.399177"><ele>847.595</ele><time>2026-05-09T06:32:17.000Z</time></trkpt>
        <trkpt lat="29.571715" lon="103.399128"><ele>849.351</ele><time>2026-05-09T06:32:23.000Z</time></trkpt>
        <trkpt lat="29.571702" lon="103.399062"><ele>848.9379</ele><time>2026-05-09T06:32:27.000Z</time></trkpt>
        <trkpt lat="29.571675" lon="103.399013"><ele>850.35956</ele><time>2026-05-09T06:32:33.000Z</time></trkpt>
        <trkpt lat="29.571651" lon="103.398969"><ele>848.89087</ele><time>2026-05-09T06:32:37.000Z</time></trkpt>
        <trkpt lat="29.571627" lon="103.398917"><ele>848.8341</ele><time>2026-05-09T06:32:41.000Z</time></trkpt>
        <trkpt lat="29.571637" lon="103.398863"><ele>850.296</ele><time>2026-05-09T06:32:46.000Z</time></trkpt>
        <trkpt lat="29.571623" lon="103.398806"><ele>849.66425</ele><time>2026-05-09T06:32:50.000Z</time></trkpt>
        <trkpt lat="29.57162" lon="103.398752"><ele>850.10986</ele><time>2026-05-09T06:32:54.000Z</time></trkpt>
        <trkpt lat="29.571607" lon="103.398696"><ele>852.41284</ele><time>2026-05-09T06:32:57.000Z</time></trkpt>
        <trkpt lat="29.571617" lon="103.398641"><ele>851.81793</ele><time>2026-05-09T06:33:00.000Z</time></trkpt>
        <trkpt lat="29.571607" lon="103.398587"><ele>849.84</ele><time>2026-05-09T06:33:04.000Z</time></trkpt>
        <trkpt lat="29.571626" lon="103.398531"><ele>849.53485</ele><time>2026-05-09T06:33:09.000Z</time></trkpt>
        <trkpt lat="29.57161" lon="103.398482"><ele>849.86914</ele><time>2026-05-09T06:33:12.000Z</time></trkpt>
        <trkpt lat="29.571584" lon="103.398439"><ele>846.45306</ele><time>2026-05-09T06:33:15.000Z</time></trkpt>
        <trkpt lat="29.571578" lon="103.398374"><ele>844.9677</ele><time>2026-05-09T06:33:19.000Z</time></trkpt>
        <trkpt lat="29.571595" lon="103.398318"><ele>844.5412</ele><time>2026-05-09T06:33:22.000Z</time></trkpt>
        <trkpt lat="29.571606" lon="103.398258"><ele>842.01215</ele><time>2026-05-09T06:33:25.000Z</time></trkpt>
        <trkpt lat="29.571603" lon="103.398205"><ele>840.46045</ele><time>2026-05-09T06:33:28.000Z</time></trkpt>
        <trkpt lat="29.57161" lon="103.398152"><ele>839.74176</ele><time>2026-05-09T06:33:31.000Z</time></trkpt>
        <trkpt lat="29.571603" lon="103.398093"><ele>837.5373</ele><time>2026-05-09T06:33:35.000Z</time></trkpt>
        <trkpt lat="29.571609" lon="103.39804"><ele>837.268</ele><time>2026-05-09T06:33:37.000Z</time></trkpt>
        <trkpt lat="29.571604" lon="103.397986"><ele>834.58704</ele><time>2026-05-09T06:33:41.000Z</time></trkpt>
        <trkpt lat="29.571595" lon="103.397924"><ele>831.964</ele><time>2026-05-09T06:33:45.000Z</time></trkpt>
        <trkpt lat="29.571597" lon="103.39787"><ele>833.1575</ele><time>2026-05-09T06:33:49.000Z</time></trkpt>
        <trkpt lat="29.571553" lon="103.39785"><ele>829.77155</ele><time>2026-05-09T06:33:54.000Z</time></trkpt>
        <trkpt lat="29.571546" lon="103.397798"><ele>828.5572</ele><time>2026-05-09T06:33:57.000Z</time></trkpt>
        <trkpt lat="29.571528" lon="103.397745"><ele>825.9237</ele><time>2026-05-09T06:34:00.000Z</time></trkpt>
        <trkpt lat="29.571503" lon="103.397699"><ele>824.8724</ele><time>2026-05-09T06:34:03.000Z</time></trkpt>
        <trkpt lat="29.571466" lon="103.397636"><ele>821.26117</ele><time>2026-05-09T06:34:07.000Z</time></trkpt>
        <trkpt lat="29.571457" lon="103.397578"><ele>819.74774</ele><time>2026-05-09T06:34:10.000Z</time></trkpt>
        <trkpt lat="29.57146" lon="103.397505"><ele>819.4089</ele><time>2026-05-09T06:34:13.000Z</time></trkpt>
        <trkpt lat="29.571476" lon="103.397445"><ele>818.28546</ele><time>2026-05-09T06:34:16.000Z</time></trkpt>
        <trkpt lat="29.571504" lon="103.397387"><ele>818.3697</ele><time>2026-05-09T06:34:19.000Z</time></trkpt>
        <trkpt lat="29.57152" lon="103.397327"><ele>815.82355</ele><time>2026-05-09T06:34:22.000Z</time></trkpt>
        <trkpt lat="29.571535" lon="103.397274"><ele>814.5131</ele><time>2026-05-09T06:34:25.000Z</time></trkpt>
        <trkpt lat="29.57155" lon="103.397222"><ele>814.0375</ele><time>2026-05-09T06:34:28.000Z</time></trkpt>
        <trkpt lat="29.571584" lon="103.397159"><ele>810.8298</ele><time>2026-05-09T06:34:32.000Z</time></trkpt>
        <trkpt lat="29.571617" lon="103.397107"><ele>808.0463</ele><time>2026-05-09T06:34:36.000Z</time></trkpt>
        <trkpt lat="29.571659" lon="103.397074"><ele>805.32745</ele><time>2026-05-09T06:34:39.000Z</time></trkpt>
        <trkpt lat="29.571684" lon="103.397019"><ele>805.02057</ele><time>2026-05-09T06:34:42.000Z</time></trkpt>
        <trkpt lat="29.571716" lon="103.396971"><ele>803.42706</ele><time>2026-05-09T06:34:45.000Z</time></trkpt>
        <trkpt lat="29.571753" lon="103.396917"><ele>803.86694</ele><time>2026-05-09T06:34:48.000Z</time></trkpt>
        <trkpt lat="29.571782" lon="103.396865"><ele>803.794</ele><time>2026-05-09T06:34:51.000Z</time></trkpt>
        <trkpt lat="29.571809" lon="103.396818"><ele>802.02673</ele><time>2026-05-09T06:34:54.000Z</time></trkpt>
        <trkpt lat="29.571856" lon="103.396783"><ele>798.5105</ele><time>2026-05-09T06:34:59.000Z</time></trkpt>
        <trkpt lat="29.57191" lon="103.396781"><ele>796.3288</ele><time>2026-05-09T06:35:02.000Z</time></trkpt>
        <trkpt lat="29.571965" lon="103.396765"><ele>795.1173</ele><time>2026-05-09T06:35:05.000Z</time></trkpt>
        <trkpt lat="29.572028" lon="103.396758"><ele>794.25665</ele><time>2026-05-09T06:35:08.000Z</time></trkpt>
        <trkpt lat="29.572085" lon="103.396746"><ele>791.8593</ele><time>2026-05-09T06:35:11.000Z</time></trkpt>
        <trkpt lat="29.572129" lon="103.396731"><ele>787.6945</ele><time>2026-05-09T06:35:14.000Z</time></trkpt>
        <trkpt lat="29.572183" lon="103.396731"><ele>785.8673</ele><time>2026-05-09T06:35:17.000Z</time></trkpt>
        <trkpt lat="29.572234" lon="103.39672"><ele>783.2157</ele><time>2026-05-09T06:35:20.000Z</time></trkpt>
        <trkpt lat="29.572284" lon="103.396698"><ele>781.61926</ele><time>2026-05-09T06:35:23.000Z</time></trkpt>
        <trkpt lat="29.572338" lon="103.396664"><ele>782.2298</ele><time>2026-05-09T06:35:26.000Z</time></trkpt>
        <trkpt lat="29.572344" lon="103.396606"><ele>779.1271</ele><time>2026-05-09T06:35:28.000Z</time></trkpt>
        <trkpt lat="29.572367" lon="103.396548"><ele>777.3277</ele><time>2026-05-09T06:35:31.000Z</time></trkpt>
        <trkpt lat="29.572374" lon="103.396474"><ele>776.5953</ele><time>2026-05-09T06:35:34.000Z</time></trkpt>
        <trkpt lat="29.572373" lon="103.396412"><ele>777.4302</ele><time>2026-05-09T06:35:37.000Z</time></trkpt>
        <trkpt lat="29.572359" lon="103.396346"><ele>777.90985</ele><time>2026-05-09T06:35:40.000Z</time></trkpt>
        <trkpt lat="29.572385" lon="103.396287"><ele>776.9149</ele><time>2026-05-09T06:35:43.000Z</time></trkpt>
        <trkpt lat="29.572439" lon="103.396266"><ele>773.8521</ele><time>2026-05-09T06:35:47.000Z</time></trkpt>
        <trkpt lat="29.572436" lon="103.396207"><ele>774.5249</ele><time>2026-05-09T06:35:50.000Z</time></trkpt>
        <trkpt lat="29.572417" lon="103.396143"><ele>773.84283</ele><time>2026-05-09T06:35:55.000Z</time></trkpt>
        <trkpt lat="29.572434" lon="103.39608"><ele>771.215</ele><time>2026-05-09T06:35:59.000Z</time></trkpt>
        <trkpt lat="29.572449" lon="103.396031"><ele>773.0457</ele><time>2026-05-09T06:36:02.000Z</time></trkpt>
        <trkpt lat="29.572488" lon="103.396002"><ele>769.9954</ele><time>2026-05-09T06:36:05.000Z</time></trkpt>
        <trkpt lat="29.572537" lon="103.39597"><ele>772.2411</ele><time>2026-05-09T06:36:08.000Z</time></trkpt>
        <trkpt lat="29.572588" lon="103.395936"><ele>771.87103</ele><time>2026-05-09T06:36:12.000Z</time></trkpt>
        <trkpt lat="29.57263" lon="103.395902"><ele>770.3958</ele><time>2026-05-09T06:36:17.000Z</time></trkpt>
        <trkpt lat="29.572673" lon="103.395859"><ele>768.6191</ele><time>2026-05-09T06:36:21.000Z</time></trkpt>
        <trkpt lat="29.572718" lon="103.395827"><ele>768.41797</ele><time>2026-05-09T06:36:24.000Z</time></trkpt>
        <trkpt lat="29.572761" lon="103.395809"><ele>764.19525</ele><time>2026-05-09T06:36:28.000Z</time></trkpt>
        <trkpt lat="29.572789" lon="103.395762"><ele>762.5339</ele><time>2026-05-09T06:36:33.000Z</time></trkpt>
        <trkpt lat="29.572806" lon="103.395713"><ele>763.02014</ele><time>2026-05-09T06:36:37.000Z</time></trkpt>
        <trkpt lat="29.572832" lon="103.39567"><ele>764.99</ele><time>2026-05-09T06:36:39.000Z</time></trkpt>
        <trkpt lat="29.572846" lon="103.395615"><ele>763.37177</ele><time>2026-05-09T06:36:46.000Z</time></trkpt>
        <trkpt lat="29.572863" lon="103.395564"><ele>763.9248</ele><time>2026-05-09T06:36:50.000Z</time></trkpt>
        <trkpt lat="29.572903" lon="103.395513"><ele>765.4542</ele><time>2026-05-09T06:36:54.000Z</time></trkpt>
        <trkpt lat="29.572931" lon="103.395461"><ele>764.80536</ele><time>2026-05-09T06:36:57.000Z</time></trkpt>
        <trkpt lat="29.572944" lon="103.395409"><ele>763.5845</ele><time>2026-05-09T06:37:01.000Z</time></trkpt>
        <trkpt lat="29.572973" lon="103.395353"><ele>762.8287</ele><time>2026-05-09T06:37:07.000Z</time></trkpt>
        <trkpt lat="29.573002" lon="103.395289"><ele>762.2083</ele><time>2026-05-09T06:37:11.000Z</time></trkpt>
        <trkpt lat="29.573007" lon="103.395234"><ele>759.231</ele><time>2026-05-09T06:37:16.000Z</time></trkpt>
        <trkpt lat="29.572983" lon="103.395176"><ele>755.97833</ele><time>2026-05-09T06:37:19.000Z</time></trkpt>
        <trkpt lat="29.572954" lon="103.395125"><ele>754.8754</ele><time>2026-05-09T06:37:22.000Z</time></trkpt>
        <trkpt lat="29.572946" lon="103.395071"><ele>753.8071</ele><time>2026-05-09T06:37:25.000Z</time></trkpt>
        <trkpt lat="29.572922" lon="103.395022"><ele>751.34467</ele><time>2026-05-09T06:37:29.000Z</time></trkpt>
        <trkpt lat="29.572932" lon="103.394957"><ele>751.64276</ele><time>2026-05-09T06:37:32.000Z</time></trkpt>
        <trkpt lat="29.572947" lon="103.3949"><ele>750.00024</ele><time>2026-05-09T06:37:35.000Z</time></trkpt>
        <trkpt lat="29.572951" lon="103.394838"><ele>750.40546</ele><time>2026-05-09T06:37:38.000Z</time></trkpt>
        <trkpt lat="29.572939" lon="103.394783"><ele>749.8898</ele><time>2026-05-09T06:37:41.000Z</time></trkpt>
        <trkpt lat="29.572904" lon="103.394749"><ele>747.7547</ele><time>2026-05-09T06:37:44.000Z</time></trkpt>
        <trkpt lat="29.572855" lon="103.394713"><ele>745.7996</ele><time>2026-05-09T06:37:47.000Z</time></trkpt>
        <trkpt lat="29.572824" lon="103.39467"><ele>744.33405</ele><time>2026-05-09T06:37:50.000Z</time></trkpt>
        <trkpt lat="29.572777" lon="103.394638"><ele>743.5347</ele><time>2026-05-09T06:37:52.000Z</time></trkpt>
        <trkpt lat="29.572749" lon="103.394595"><ele>741.7367</ele><time>2026-05-09T06:37:55.000Z</time></trkpt>
        <trkpt lat="29.572752" lon="103.394543"><ele>738.9883</ele><time>2026-05-09T06:37:59.000Z</time></trkpt>
        <trkpt lat="29.572775" lon="103.394496"><ele>735.7464</ele><time>2026-05-09T06:38:02.000Z</time></trkpt>
        <trkpt lat="29.572795" lon="103.394439"><ele>735.06354</ele><time>2026-05-09T06:38:06.000Z</time></trkpt>
        <trkpt lat="29.572822" lon="103.394391"><ele>734.5807</ele><time>2026-05-09T06:38:12.000Z</time></trkpt>
        <trkpt lat="29.572834" lon="103.394339"><ele>733.9429</ele><time>2026-05-09T06:38:21.000Z</time></trkpt>
        <trkpt lat="29.572852" lon="103.39428"><ele>732.12854</ele><time>2026-05-09T06:38:27.000Z</time></trkpt>
        <trkpt lat="29.572893" lon="103.394246"><ele>731.00604</ele><time>2026-05-09T06:38:31.000Z</time></trkpt>
        <trkpt lat="29.572899" lon="103.394188"><ele>730.78656</ele><time>2026-05-09T06:38:35.000Z</time></trkpt>
        <trkpt lat="29.572906" lon="103.394134"><ele>729.1082</ele><time>2026-05-09T06:38:39.000Z</time></trkpt>
        <trkpt lat="29.572914" lon="103.394079"><ele>729.14075</ele><time>2026-05-09T06:38:42.000Z</time></trkpt>
        <trkpt lat="29.572943" lon="103.39403"><ele>728.56415</ele><time>2026-05-09T06:38:45.000Z</time></trkpt>
        <trkpt lat="29.572972" lon="103.393975"><ele>729.2268</ele><time>2026-05-09T06:38:49.000Z</time></trkpt>
        <trkpt lat="29.572992" lon="103.393925"><ele>730.55756</ele><time>2026-05-09T06:38:53.000Z</time></trkpt>
        <trkpt lat="29.573019" lon="103.393872"><ele>730.9314</ele><time>2026-05-09T06:38:57.000Z</time></trkpt>
        <trkpt lat="29.573042" lon="103.393821"><ele>730.78314</ele><time>2026-05-09T06:39:01.000Z</time></trkpt>
        <trkpt lat="29.57306" lon="103.393772"><ele>732.024</ele><time>2026-05-09T06:39:04.000Z</time></trkpt>
        <trkpt lat="29.573104" lon="103.393729"><ele>734.668</ele><time>2026-05-09T06:39:07.000Z</time></trkpt>
        <trkpt lat="29.573158" lon="103.393703"><ele>733.0414</ele><time>2026-05-09T06:39:12.000Z</time></trkpt>
        <trkpt lat="29.573208" lon="103.393708"><ele>732.82825</ele><time>2026-05-09T06:39:15.000Z</time></trkpt>
        <trkpt lat="29.573257" lon="103.393719"><ele>730.7308</ele><time>2026-05-09T06:39:18.000Z</time></trkpt>
        <trkpt lat="29.573307" lon="103.393729"><ele>728.6095</ele><time>2026-05-09T06:39:21.000Z</time></trkpt>
        <trkpt lat="29.573346" lon="103.393687"><ele>727.8175</ele><time>2026-05-09T06:39:24.000Z</time></trkpt>
        <trkpt lat="29.573384" lon="103.393653"><ele>727.5655</ele><time>2026-05-09T06:39:27.000Z</time></trkpt>
        <trkpt lat="29.573415" lon="103.393607"><ele>728.7168</ele><time>2026-05-09T06:39:31.000Z</time></trkpt>
        <trkpt lat="29.573448" lon="103.393571"><ele>727.506</ele><time>2026-05-09T06:39:34.000Z</time></trkpt>
        <trkpt lat="29.573508" lon="103.393557"><ele>727.04565</ele><time>2026-05-09T06:39:38.000Z</time></trkpt>
        <trkpt lat="29.573557" lon="103.393559"><ele>727.07184</ele><time>2026-05-09T06:39:41.000Z</time></trkpt>
        <trkpt lat="29.573604" lon="103.393548"><ele>725.8562</ele><time>2026-05-09T06:39:44.000Z</time></trkpt>
        <trkpt lat="29.573641" lon="103.393513"><ele>725.316</ele><time>2026-05-09T06:39:47.000Z</time></trkpt>
        <trkpt lat="29.573672" lon="103.393474"><ele>725.53</ele><time>2026-05-09T06:39:50.000Z</time></trkpt>
        <trkpt lat="29.573707" lon="103.393426"><ele>723.9744</ele><time>2026-05-09T06:39:53.000Z</time></trkpt>
        <trkpt lat="29.573759" lon="103.393406"><ele>725.2031</ele><time>2026-05-09T06:39:57.000Z</time></trkpt>
        <trkpt lat="29.573812" lon="103.393394"><ele>724.1034</ele><time>2026-05-09T06:40:01.000Z</time></trkpt>
        <trkpt lat="29.573857" lon="103.393384"><ele>724.769</ele><time>2026-05-09T06:40:04.000Z</time></trkpt>
        <trkpt lat="29.573901" lon="103.393352"><ele>723.54364</ele><time>2026-05-09T06:40:09.000Z</time></trkpt>
        <trkpt lat="29.573931" lon="103.393313"><ele>723.77704</ele><time>2026-05-09T06:40:13.000Z</time></trkpt>
        <trkpt lat="29.573946" lon="103.393256"><ele>724.4552</ele><time>2026-05-09T06:40:18.000Z</time></trkpt>
        <trkpt lat="29.573968" lon="103.393203"><ele>723.8775</ele><time>2026-05-09T06:40:23.000Z</time></trkpt>
        <trkpt lat="29.574001" lon="103.393146"><ele>720.76184</ele><time>2026-05-09T06:40:28.000Z</time></trkpt>
        <trkpt lat="29.574004" lon="103.393091"><ele>719.93225</ele><time>2026-05-09T06:40:32.000Z</time></trkpt>
        <trkpt lat="29.574034" lon="103.393047"><ele>718.63916</ele><time>2026-05-09T06:40:37.000Z</time></trkpt>
        <trkpt lat="29.574074" lon="103.393021"><ele>720.758</ele><time>2026-05-09T06:41:02.000Z</time></trkpt>
        <trkpt lat="29.574055" lon="103.393069"><ele>720.123</ele><time>2026-05-09T06:41:08.000Z</time></trkpt>
        <trkpt lat="29.574012" lon="103.393087"><ele>720.0338</ele><time>2026-05-09T06:41:22.000Z</time></trkpt>
        <trkpt lat="29.573993" lon="103.39314"><ele>722.54016</ele><time>2026-05-09T06:41:39.000Z</time></trkpt>
        <trkpt lat="29.574008" lon="103.393202"><ele>722.07526</ele><time>2026-05-09T06:41:46.000Z</time></trkpt>
        <trkpt lat="29.574048" lon="103.393238"><ele>722.58185</ele><time>2026-05-09T06:41:50.000Z</time></trkpt>
        <trkpt lat="29.573987" lon="103.39325"><ele>722.6936</ele><time>2026-05-09T06:42:13.000Z</time></trkpt>
        <trkpt lat="29.574027" lon="103.393223"><ele>723.0019</ele><time>2026-05-09T06:42:21.000Z</time></trkpt>
        <trkpt lat="29.573976" lon="103.39325"><ele>732.0631</ele><time>2026-05-09T06:43:14.000Z</time></trkpt>
        <trkpt lat="29.573999" lon="103.393204"><ele>727.2089</ele><time>2026-05-09T06:47:19.000Z</time></trkpt>
        <trkpt lat="29.574043" lon="103.393193"><ele>725.94476</ele><time>2026-05-09T06:49:07.000Z</time></trkpt>
        <trkpt lat="29.573997" lon="103.393204"><ele>725.1466</ele><time>2026-05-09T06:50:39.000Z</time></trkpt>
        <trkpt lat="29.573989" lon="103.393148"><ele>722.3814</ele><time>2026-05-09T06:51:10.000Z</time></trkpt>
        <trkpt lat="29.574004" lon="103.393096"><ele>722.1423</ele><time>2026-05-09T06:51:15.000Z</time></trkpt>
        <trkpt lat="29.574025" lon="103.39304"><ele>719.67596</ele><time>2026-05-09T06:51:22.000Z</time></trkpt>
        <trkpt lat="29.574037" lon="103.392989"><ele>720.14685</ele><time>2026-05-09T06:51:26.000Z</time></trkpt>
        <trkpt lat="29.574042" lon="103.392936"><ele>718.59</ele><time>2026-05-09T06:51:29.000Z</time></trkpt>
        <trkpt lat="29.574052" lon="103.392856"><ele>715.8088</ele><time>2026-05-09T06:51:32.000Z</time></trkpt>
        <trkpt lat="29.574098" lon="103.392803"><ele>714.7906</ele><time>2026-05-09T06:51:35.000Z</time></trkpt>
        <trkpt lat="29.574111" lon="103.392742"><ele>713.2121</ele><time>2026-05-09T06:51:38.000Z</time></trkpt>
        <trkpt lat="29.574097" lon="103.39268"><ele>713.4194</ele><time>2026-05-09T06:51:41.000Z</time></trkpt>
        <trkpt lat="29.574105" lon="103.39262"><ele>711.60736</ele><time>2026-05-09T06:51:44.000Z</time></trkpt>
        <trkpt lat="29.574094" lon="103.392567"><ele>707.9978</ele><time>2026-05-09T06:51:49.000Z</time></trkpt>
        <trkpt lat="29.574097" lon="103.392493"><ele>710.2805</ele><time>2026-05-09T06:51:52.000Z</time></trkpt>
        <trkpt lat="29.574061" lon="103.392461"><ele>707.1557</ele><time>2026-05-09T06:51:55.000Z</time></trkpt>
        <trkpt lat="29.574037" lon="103.392413"><ele>706.58954</ele><time>2026-05-09T06:51:58.000Z</time></trkpt>
        <trkpt lat="29.574069" lon="103.392355"><ele>705.5748</ele><time>2026-05-09T06:52:02.000Z</time></trkpt>
        <trkpt lat="29.574082" lon="103.392407"><ele>705.0514</ele><time>2026-05-09T06:52:04.000Z</time></trkpt>
        <trkpt lat="29.574111" lon="103.392457"><ele>703.58325</ele><time>2026-05-09T06:52:07.000Z</time></trkpt>
        <trkpt lat="29.574161" lon="103.392435"><ele>702.1433</ele><time>2026-05-09T06:52:16.000Z</time></trkpt>
        <trkpt lat="29.574208" lon="103.392391"><ele>700.3194</ele><time>2026-05-09T06:52:20.000Z</time></trkpt>
        <trkpt lat="29.574223" lon="103.392335"><ele>700.46655</ele><time>2026-05-09T06:52:24.000Z</time></trkpt>
        <trkpt lat="29.57422" lon="103.392282"><ele>702.7427</ele><time>2026-05-09T06:52:28.000Z</time></trkpt>
        <trkpt lat="29.574201" lon="103.392217"><ele>700.32855</ele><time>2026-05-09T06:52:40.000Z</time></trkpt>
        <trkpt lat="29.574145" lon="103.392129"><ele>702.933</ele><time>2026-05-09T06:52:45.000Z</time></trkpt>
        <trkpt lat="29.574156" lon="103.39219"><ele>704.18915</ele><time>2026-05-09T06:52:56.000Z</time></trkpt>
        <trkpt lat="29.574207" lon="103.392165"><ele>706.22864</ele><time>2026-05-09T06:53:11.000Z</time></trkpt>
        <trkpt lat="29.574189" lon="103.392131"><ele>703.45245</ele><time>2026-05-09T06:53:12.000Z</time></trkpt>
        <trkpt lat="29.574182" lon="103.392189"><ele>706.1091</ele><time>2026-05-09T06:53:14.000Z</time></trkpt>
        <trkpt lat="29.574148" lon="103.392132"><ele>705.63495</ele><time>2026-05-09T06:53:15.000Z</time></trkpt>
        <trkpt lat="29.574094" lon="103.392144"><ele>705.0941</ele><time>2026-05-09T06:53:20.000Z</time></trkpt>
        <trkpt lat="29.57412" lon="103.392097"><ele>705.35095</ele><time>2026-05-09T06:53:25.000Z</time></trkpt>
        <trkpt lat="29.574089" lon="103.392052"><ele>705.63684</ele><time>2026-05-09T06:54:13.000Z</time></trkpt>
        <trkpt lat="29.574039" lon="103.392032"><ele>704.64343</ele><time>2026-05-09T06:54:16.000Z</time></trkpt>
        <trkpt lat="29.573998" lon="103.392059"><ele>706.69824</ele><time>2026-05-09T06:54:22.000Z</time></trkpt>
        <trkpt lat="29.57395" lon="103.392078"><ele>707.2879</ele><time>2026-05-09T06:54:25.000Z</time></trkpt>
        <trkpt lat="29.573892" lon="103.392092"><ele>707.2141</ele><time>2026-05-09T06:54:28.000Z</time></trkpt>
        <trkpt lat="29.573846" lon="103.3921"><ele>706.40485</ele><time>2026-05-09T06:54:37.000Z</time></trkpt>
        <trkpt lat="29.573798" lon="103.392105"><ele>705.78406</ele><time>2026-05-09T06:54:40.000Z</time></trkpt>
        <trkpt lat="29.573754" lon="103.392057"><ele>705.72095</ele><time>2026-05-09T06:54:45.000Z</time></trkpt>
        <trkpt lat="29.573717" lon="103.392015"><ele>706.45636</ele><time>2026-05-09T06:54:50.000Z</time></trkpt>
        <trkpt lat="29.57367" lon="103.392033"><ele>706.9193</ele><time>2026-05-09T06:54:53.000Z</time></trkpt>
        <trkpt lat="29.573622" lon="103.39204"><ele>706.9307</ele><time>2026-05-09T06:54:56.000Z</time></trkpt>
        <trkpt lat="29.573606" lon="103.391987"><ele>707.0883</ele><time>2026-05-09T06:54:59.000Z</time></trkpt>
        <trkpt lat="29.57358" lon="103.391941"><ele>708.89545</ele><time>2026-05-09T06:55:03.000Z</time></trkpt>
        <trkpt lat="29.57353" lon="103.391925"><ele>710.11914</ele><time>2026-05-09T06:55:08.000Z</time></trkpt>
        <trkpt lat="29.573511" lon="103.391874"><ele>712.19434</ele><time>2026-05-09T06:55:13.000Z</time></trkpt>
        <trkpt lat="29.573471" lon="103.391852"><ele>714.4242</ele><time>2026-05-09T06:55:16.000Z</time></trkpt>
        <trkpt lat="29.57344" lon="103.391809"><ele>721.59283</ele><time>2026-05-09T06:55:21.000Z</time></trkpt>
        <trkpt lat="29.573394" lon="103.391803"><ele>718.75134</ele><time>2026-05-09T06:55:24.000Z</time></trkpt>
        <trkpt lat="29.573338" lon="103.391798"><ele>721.9394</ele><time>2026-05-09T06:55:32.000Z</time></trkpt>
        <trkpt lat="29.573287" lon="103.391778"><ele>724.8501</ele><time>2026-05-09T06:55:36.000Z</time></trkpt>
        <trkpt lat="29.573241" lon="103.391766"><ele>724.8867</ele><time>2026-05-09T06:55:39.000Z</time></trkpt>
        <trkpt lat="29.573186" lon="103.391781"><ele>727.98254</ele><time>2026-05-09T06:55:44.000Z</time></trkpt>
        <trkpt lat="29.57314" lon="103.391783"><ele>726.74994</ele><time>2026-05-09T06:55:50.000Z</time></trkpt>
        <trkpt lat="29.573094" lon="103.391795"><ele>721.2006</ele><time>2026-05-09T06:55:55.000Z</time></trkpt>
        <trkpt lat="29.573057" lon="103.391753"><ele>722.5672</ele><time>2026-05-09T06:55:59.000Z</time></trkpt>
        <trkpt lat="29.573011" lon="103.391758"><ele>722.3194</ele><time>2026-05-09T06:56:03.000Z</time></trkpt>
        <trkpt lat="29.572968" lon="103.391788"><ele>723.5981</ele><time>2026-05-09T06:56:10.000Z</time></trkpt>
        <trkpt lat="29.572927" lon="103.391823"><ele>724.16364</ele><time>2026-05-09T06:56:14.000Z</time></trkpt>
        <trkpt lat="29.572884" lon="103.39184"><ele>725.85046</ele><time>2026-05-09T06:56:18.000Z</time></trkpt>
        <trkpt lat="29.57283" lon="103.391857"><ele>725.774</ele><time>2026-05-09T06:56:22.000Z</time></trkpt>
        <trkpt lat="29.572775" lon="103.391885"><ele>729.0712</ele><time>2026-05-09T06:56:26.000Z</time></trkpt>
        <trkpt lat="29.572728" lon="103.391885"><ele>729.0182</ele><time>2026-05-09T06:56:29.000Z</time></trkpt>
        <trkpt lat="29.57268" lon="103.391869"><ele>729.4535</ele><time>2026-05-09T06:56:31.000Z</time></trkpt>
        <trkpt lat="29.572632" lon="103.391862"><ele>726.40735</ele><time>2026-05-09T06:56:35.000Z</time></trkpt>
        <trkpt lat="29.572583" lon="103.391843"><ele>726.71484</ele><time>2026-05-09T06:56:39.000Z</time></trkpt>
        <trkpt lat="29.572539" lon="103.391833"><ele>726.753</ele><time>2026-05-09T06:56:43.000Z</time></trkpt>
        <trkpt lat="29.572484" lon="103.391854"><ele>727.9679</ele><time>2026-05-09T06:56:45.000Z</time></trkpt>
        <trkpt lat="29.572439" lon="103.391854"><ele>725.9617</ele><time>2026-05-09T06:56:48.000Z</time></trkpt>
        <trkpt lat="29.572397" lon="103.391834"><ele>724.5425</ele><time>2026-05-09T06:56:53.000Z</time></trkpt>
        <trkpt lat="29.572349" lon="103.39181"><ele>724.7364</ele><time>2026-05-09T06:56:57.000Z</time></trkpt>
        <trkpt lat="29.572318" lon="103.391763"><ele>723.6059</ele><time>2026-05-09T06:57:02.000Z</time></trkpt>
        <trkpt lat="29.572274" lon="103.391739"><ele>722.2635</ele><time>2026-05-09T06:57:06.000Z</time></trkpt>
        <trkpt lat="29.572219" lon="103.391739"><ele>723.91394</ele><time>2026-05-09T06:57:10.000Z</time></trkpt>
        <trkpt lat="29.572174" lon="103.391738"><ele>723.7016</ele><time>2026-05-09T06:57:14.000Z</time></trkpt>
        <trkpt lat="29.572131" lon="103.391705"><ele>724.0635</ele><time>2026-05-09T06:57:17.000Z</time></trkpt>
        <trkpt lat="29.572084" lon="103.391677"><ele>723.65875</ele><time>2026-05-09T06:57:22.000Z</time></trkpt>
        <trkpt lat="29.572037" lon="103.391676"><ele>723.9497</ele><time>2026-05-09T06:57:26.000Z</time></trkpt>
        <trkpt lat="29.571984" lon="103.391667"><ele>723.5068</ele><time>2026-05-09T06:57:30.000Z</time></trkpt>
        <trkpt lat="29.571934" lon="103.391648"><ele>723.36896</ele><time>2026-05-09T06:57:34.000Z</time></trkpt>
        <trkpt lat="29.571884" lon="103.391651"><ele>723.057</ele><time>2026-05-09T06:57:38.000Z</time></trkpt>
        <trkpt lat="29.571845" lon="103.391676"><ele>724.74805</ele><time>2026-05-09T06:57:41.000Z</time></trkpt>
        <trkpt lat="29.571791" lon="103.391694"><ele>723.3381</ele><time>2026-05-09T06:57:45.000Z</time></trkpt>
        <trkpt lat="29.57174" lon="103.391661"><ele>721.63696</ele><time>2026-05-09T06:57:48.000Z</time></trkpt>
        <trkpt lat="29.571688" lon="103.391668"><ele>722.55035</ele><time>2026-05-09T06:57:51.000Z</time></trkpt>
        <trkpt lat="29.571641" lon="103.391683"><ele>722.62335</ele><time>2026-05-09T06:57:54.000Z</time></trkpt>
        <trkpt lat="29.571593" lon="103.391682"><ele>722.96155</ele><time>2026-05-09T06:57:57.000Z</time></trkpt>
        <trkpt lat="29.571542" lon="103.391686"><ele>724.6121</ele><time>2026-05-09T06:58:03.000Z</time></trkpt>
        <trkpt lat="29.571491" lon="103.391694"><ele>725.3194</ele><time>2026-05-09T06:58:08.000Z</time></trkpt>
        <trkpt lat="29.57143" lon="103.391693"><ele>724.98987</ele><time>2026-05-09T06:58:14.000Z</time></trkpt>
        <trkpt lat="29.571377" lon="103.391706"><ele>726.1208</ele><time>2026-05-09T06:58:18.000Z</time></trkpt>
        <trkpt lat="29.571324" lon="103.391709"><ele>726.29834</ele><time>2026-05-09T06:58:22.000Z</time></trkpt>
        <trkpt lat="29.571272" lon="103.391712"><ele>726.71844</ele><time>2026-05-09T06:58:27.000Z</time></trkpt>
        <trkpt lat="29.571223" lon="103.391711"><ele>726.5323</ele><time>2026-05-09T06:58:31.000Z</time></trkpt>
        <trkpt lat="29.571166" lon="103.391725"><ele>725.6957</ele><time>2026-05-09T06:58:35.000Z</time></trkpt>
        <trkpt lat="29.571113" lon="103.391731"><ele>723.6942</ele><time>2026-05-09T06:58:39.000Z</time></trkpt>
        <trkpt lat="29.571058" lon="103.391727"><ele>726.49243</ele><time>2026-05-09T06:58:44.000Z</time></trkpt>
        <trkpt lat="29.571006" lon="103.391705"><ele>724.94836</ele><time>2026-05-09T06:58:50.000Z</time></trkpt>
        <trkpt lat="29.570964" lon="103.391676"><ele>726.6398</ele><time>2026-05-09T06:58:53.000Z</time></trkpt>
        <trkpt lat="29.570911" lon="103.391645"><ele>725.7941</ele><time>2026-05-09T06:58:58.000Z</time></trkpt>
        <trkpt lat="29.57086" lon="103.391628"><ele>727.0278</ele><time>2026-05-09T06:59:01.000Z</time></trkpt>
        <trkpt lat="29.570823" lon="103.391588"><ele>728.48096</ele><time>2026-05-09T06:59:05.000Z</time></trkpt>
        <trkpt lat="29.570799" lon="103.391544"><ele>731.05634</ele><time>2026-05-09T06:59:09.000Z</time></trkpt>
        <trkpt lat="29.570757" lon="103.391565"><ele>730.23145</ele><time>2026-05-09T06:59:14.000Z</time></trkpt>
        <trkpt lat="29.570726" lon="103.391514"><ele>730.77704</ele><time>2026-05-09T06:59:22.000Z</time></trkpt>
        <trkpt lat="29.570685" lon="103.391485"><ele>731.6839</ele><time>2026-05-09T06:59:29.000Z</time></trkpt>
        <trkpt lat="29.570645" lon="103.391454"><ele>731.2141</ele><time>2026-05-09T06:59:34.000Z</time></trkpt>
        <trkpt lat="29.5706" lon="103.39145"><ele>733.9044</ele><time>2026-05-09T06:59:40.000Z</time></trkpt>
        <trkpt lat="29.570556" lon="103.391429"><ele>732.9932</ele><time>2026-05-09T06:59:44.000Z</time></trkpt>
        <trkpt lat="29.570507" lon="103.391396"><ele>736.0181</ele><time>2026-05-09T06:59:47.000Z</time></trkpt>
        <trkpt lat="29.570515" lon="103.391336"><ele>733.7972</ele><time>2026-05-09T06:59:53.000Z</time></trkpt>
        <trkpt lat="29.570515" lon="103.391284"><ele>733.0698</ele><time>2026-05-09T06:59:56.000Z</time></trkpt>
        <trkpt lat="29.570472" lon="103.391258"><ele>732.4785</ele><time>2026-05-09T07:00:01.000Z</time></trkpt>
        <trkpt lat="29.570426" lon="103.391249"><ele>734.37634</ele><time>2026-05-09T07:00:06.000Z</time></trkpt>
        <trkpt lat="29.570379" lon="103.391245"><ele>736.1029</ele><time>2026-05-09T07:00:09.000Z</time></trkpt>
        <trkpt lat="29.570348" lon="103.391193"><ele>738.1697</ele><time>2026-05-09T07:00:18.000Z</time></trkpt>
        <trkpt lat="29.570348" lon="103.391128"><ele>739.1954</ele><time>2026-05-09T07:00:19.000Z</time></trkpt>
        <trkpt lat="29.570306" lon="103.391107"><ele>737.8504</ele><time>2026-05-09T07:00:25.000Z</time></trkpt>
        <trkpt lat="29.570258" lon="103.391132"><ele>741.4397</ele><time>2026-05-09T07:00:30.000Z</time></trkpt>
        <trkpt lat="29.570209" lon="103.391132"><ele>741.2167</ele><time>2026-05-09T07:00:34.000Z</time></trkpt>
        <trkpt lat="29.570162" lon="103.39114"><ele>739.50726</ele><time>2026-05-09T07:00:39.000Z</time></trkpt>
        <trkpt lat="29.570125" lon="103.391106"><ele>738.86304</ele><time>2026-05-09T07:00:43.000Z</time></trkpt>
        <trkpt lat="29.570121" lon="103.391046"><ele>739.46924</ele><time>2026-05-09T07:00:46.000Z</time></trkpt>
        <trkpt lat="29.570127" lon="103.390993"><ele>739.42053</ele><time>2026-05-09T07:00:49.000Z</time></trkpt>
        <trkpt lat="29.57009" lon="103.390953"><ele>738.7165</ele><time>2026-05-09T07:00:53.000Z</time></trkpt>
        <trkpt lat="29.570036" lon="103.390931"><ele>741.2569</ele><time>2026-05-09T07:00:57.000Z</time></trkpt>
        <trkpt lat="29.569979" lon="103.390927"><ele>741.6762</ele><time>2026-05-09T07:01:01.000Z</time></trkpt>
        <trkpt lat="29.569935" lon="103.390944"><ele>742.55066</ele><time>2026-05-09T07:01:05.000Z</time></trkpt>
        <trkpt lat="29.569885" lon="103.390958"><ele>741.16235</ele><time>2026-05-09T07:01:09.000Z</time></trkpt>
        <trkpt lat="29.569838" lon="103.390953"><ele>738.5996</ele><time>2026-05-09T07:01:15.000Z</time></trkpt>
        <trkpt lat="29.569787" lon="103.390965"><ele>739.04156</ele><time>2026-05-09T07:01:20.000Z</time></trkpt>
        <trkpt lat="29.56974" lon="103.390971"><ele>740.20996</ele><time>2026-05-09T07:01:23.000Z</time></trkpt>
        <trkpt lat="29.569692" lon="103.390954"><ele>739.8175</ele><time>2026-05-09T07:01:27.000Z</time></trkpt>
        <trkpt lat="29.569639" lon="103.390961"><ele>739.35474</ele><time>2026-05-09T07:01:32.000Z</time></trkpt>
        <trkpt lat="29.56958" lon="103.390965"><ele>739.73315</ele><time>2026-05-09T07:01:35.000Z</time></trkpt>
        <trkpt lat="29.569534" lon="103.390979"><ele>741.15173</ele><time>2026-05-09T07:01:38.000Z</time></trkpt>
        <trkpt lat="29.569487" lon="103.390989"><ele>741.17426</ele><time>2026-05-09T07:01:42.000Z</time></trkpt>
        <trkpt lat="29.569442" lon="103.391008"><ele>741.6685</ele><time>2026-05-09T07:01:45.000Z</time></trkpt>
        <trkpt lat="29.569398" lon="103.390978"><ele>741.69806</ele><time>2026-05-09T07:01:51.000Z</time></trkpt>
        <trkpt lat="29.569347" lon="103.390974"><ele>743.62115</ele><time>2026-05-09T07:01:55.000Z</time></trkpt>
        <trkpt lat="29.569331" lon="103.390922"><ele>742.72864</ele><time>2026-05-09T07:02:02.000Z</time></trkpt>
        <trkpt lat="29.569283" lon="103.390882"><ele>743.29626</ele><time>2026-05-09T07:02:04.000Z</time></trkpt>
        <trkpt lat="29.569227" lon="103.390858"><ele>742.664</ele><time>2026-05-09T07:02:07.000Z</time></trkpt>
        <trkpt lat="29.569186" lon="103.390888"><ele>741.4638</ele><time>2026-05-09T07:02:12.000Z</time></trkpt>
        <trkpt lat="29.569136" lon="103.390889"><ele>741.1635</ele><time>2026-05-09T07:02:17.000Z</time></trkpt>
        <trkpt lat="29.569104" lon="103.390937"><ele>741.6691</ele><time>2026-05-09T07:02:21.000Z</time></trkpt>
        <trkpt lat="29.569048" lon="103.390943"><ele>739.78906</ele><time>2026-05-09T07:02:25.000Z</time></trkpt>
        <trkpt lat="29.569006" lon="103.390967"><ele>738.4541</ele><time>2026-05-09T07:02:30.000Z</time></trkpt>
        <trkpt lat="29.568968" lon="103.391012"><ele>739.53534</ele><time>2026-05-09T07:02:34.000Z</time></trkpt>
        <trkpt lat="29.568958" lon="103.391068"><ele>740.00635</ele><time>2026-05-09T07:02:38.000Z</time></trkpt>
        <trkpt lat="29.568944" lon="103.391118"><ele>739.9989</ele><time>2026-05-09T07:02:43.000Z</time></trkpt>
        <trkpt lat="29.568995" lon="103.391209"><ele>740.08734</ele><time>2026-05-09T07:02:47.000Z</time></trkpt>
        <trkpt lat="29.568983" lon="103.391259"><ele>738.804</ele><time>2026-05-09T07:02:50.000Z</time></trkpt>
        <trkpt lat="29.568903" lon="103.391269"><ele>741.99304</ele><time>2026-05-09T07:02:54.000Z</time></trkpt>
        <trkpt lat="29.568867" lon="103.391219"><ele>744.51855</ele><time>2026-05-09T07:02:55.000Z</time></trkpt>
        <trkpt lat="29.568826" lon="103.391197"><ele>744.30554</ele><time>2026-05-09T07:02:56.000Z</time></trkpt>
        <trkpt lat="29.568772" lon="103.391172"><ele>746.42395</ele><time>2026-05-09T07:02:58.000Z</time></trkpt>
        <trkpt lat="29.56871" lon="103.391164"><ele>749.2302</ele><time>2026-05-09T07:03:01.000Z</time></trkpt>
        <trkpt lat="29.568664" lon="103.391134"><ele>752.47327</ele><time>2026-05-09T07:03:03.000Z</time></trkpt>
        <trkpt lat="29.568628" lon="103.391091"><ele>755.4974</ele><time>2026-05-09T07:03:06.000Z</time></trkpt>
        <trkpt lat="29.568576" lon="103.391073"><ele>756.9504</ele><time>2026-05-09T07:03:09.000Z</time></trkpt>
        <trkpt lat="29.568528" lon="103.391051"><ele>758.7649</ele><time>2026-05-09T07:03:12.000Z</time></trkpt>
        <trkpt lat="29.568504" lon="103.390965"><ele>761.7875</ele><time>2026-05-09T07:03:15.000Z</time></trkpt>
        <trkpt lat="29.568499" lon="103.390887"><ele>763.04755</ele><time>2026-05-09T07:03:17.000Z</time></trkpt>
        <trkpt lat="29.568386" lon="103.39092"><ele>767.19714</ele><time>2026-05-09T07:03:37.000Z</time></trkpt>
        <trkpt lat="29.568318" lon="103.390987"><ele>769.02826</ele><time>2026-05-09T07:03:44.000Z</time></trkpt>
        <trkpt lat="29.568363" lon="103.391022"><ele>767.9565</ele><time>2026-05-09T07:03:54.000Z</time></trkpt>
        <trkpt lat="29.568408" lon="103.391041"><ele>768.5618</ele><time>2026-05-09T07:03:56.000Z</time></trkpt>
        <trkpt lat="29.568384" lon="103.390987"><ele>770.0631</ele><time>2026-05-09T07:04:02.000Z</time></trkpt>
        <trkpt lat="29.568434" lon="103.390967"><ele>769.9725</ele><time>2026-05-09T07:04:06.000Z</time></trkpt>
        <trkpt lat="29.568502" lon="103.390955"><ele>769.6847</ele><time>2026-05-09T07:04:09.000Z</time></trkpt>
        <trkpt lat="29.568448" lon="103.390974"><ele>770.0223</ele><time>2026-05-09T07:04:11.000Z</time></trkpt>
        <trkpt lat="29.568394" lon="103.390986"><ele>769.9166</ele><time>2026-05-09T07:04:13.000Z</time></trkpt>
        <trkpt lat="29.568391" lon="103.390871"><ele>769.8983</ele><time>2026-05-09T07:04:14.000Z</time></trkpt>
        <trkpt lat="29.568434" lon="103.390853"><ele>769.30756</ele><time>2026-05-09T07:04:16.000Z</time></trkpt>
        <trkpt lat="29.568492" lon="103.390877"><ele>768.2892</ele><time>2026-05-09T07:04:20.000Z</time></trkpt>
        <trkpt lat="29.568453" lon="103.39092"><ele>768.4296</ele><time>2026-05-09T07:04:28.000Z</time></trkpt>
        <trkpt lat="29.568409" lon="103.390895"><ele>769.07623</ele><time>2026-05-09T07:04:44.000Z</time></trkpt>
        <trkpt lat="29.568387" lon="103.390942"><ele>768.81506</ele><time>2026-05-09T07:04:46.000Z</time></trkpt>
        <trkpt lat="29.568401" lon="103.391"><ele>769.4211</ele><time>2026-05-09T07:04:50.000Z</time></trkpt>
        <trkpt lat="29.568457" lon="103.391019"><ele>769.7121</ele><time>2026-05-09T07:04:56.000Z</time></trkpt>
        <trkpt lat="29.568437" lon="103.390951"><ele>770.0985</ele><time>2026-05-09T07:05:04.000Z</time></trkpt>
        <trkpt lat="29.568395" lon="103.390916"><ele>769.36</ele><time>2026-05-09T07:05:09.000Z</time></trkpt>
        <trkpt lat="29.568356" lon="103.390944"><ele>769.19727</ele><time>2026-05-09T07:05:11.000Z</time></trkpt>
        <trkpt lat="29.56841" lon="103.390951"><ele>768.13763</ele><time>2026-05-09T07:05:17.000Z</time></trkpt>
        <trkpt lat="29.568445" lon="103.390999"><ele>769.87585</ele><time>2026-05-09T07:05:22.000Z</time></trkpt>
        <trkpt lat="29.568487" lon="103.390925"><ele>770.29065</ele><time>2026-05-09T07:05:24.000Z</time></trkpt>
        <trkpt lat="29.568409" lon="103.390927"><ele>769.9804</ele><time>2026-05-09T07:05:29.000Z</time></trkpt>
        <trkpt lat="29.568359" lon="103.390887"><ele>768.86346</ele><time>2026-05-09T07:05:31.000Z</time></trkpt>
        <trkpt lat="29.568309" lon="103.390856"><ele>768.1776</ele><time>2026-05-09T07:05:33.000Z</time></trkpt>
        <trkpt lat="29.568284" lon="103.39091"><ele>760.3427</ele><time>2026-05-09T07:06:16.000Z</time></trkpt>
        <trkpt lat="29.568254" lon="103.390972"><ele>757.1529</ele><time>2026-05-09T07:06:24.000Z</time></trkpt>
        <trkpt lat="29.568216" lon="103.390937"><ele>757.3428</ele><time>2026-05-09T07:06:27.000Z</time></trkpt>
        <trkpt lat="29.568155" lon="103.390927"><ele>763.55554</ele><time>2026-05-09T07:06:34.000Z</time></trkpt>
        <trkpt lat="29.568113" lon="103.390907"><ele>763.4525</ele><time>2026-05-09T07:06:41.000Z</time></trkpt>
        <trkpt lat="29.568064" lon="103.390944"><ele>767.26697</ele><time>2026-05-09T07:06:47.000Z</time></trkpt>
        <trkpt lat="29.56804" lon="103.39088"><ele>766.3768</ele><time>2026-05-09T07:06:53.000Z</time></trkpt>
        <trkpt lat="29.567994" lon="103.390906"><ele>766.21484</ele><time>2026-05-09T07:06:58.000Z</time></trkpt>
        <trkpt lat="29.567968" lon="103.39085"><ele>766.02203</ele><time>2026-05-09T07:07:03.000Z</time></trkpt>
        <trkpt lat="29.56792" lon="103.39083"><ele>764.73285</ele><time>2026-05-09T07:07:08.000Z</time></trkpt>
        <trkpt lat="29.567884" lon="103.390795"><ele>767.2045</ele><time>2026-05-09T07:07:14.000Z</time></trkpt>
        <trkpt lat="29.567869" lon="103.390737"><ele>766.30817</ele><time>2026-05-09T07:07:17.000Z</time></trkpt>
        <trkpt lat="29.567842" lon="103.390781"><ele>768.64526</ele><time>2026-05-09T07:07:23.000Z</time></trkpt>
        <trkpt lat="29.567798" lon="103.39076"><ele>771.2161</ele><time>2026-05-09T07:07:28.000Z</time></trkpt>
        <trkpt lat="29.567751" lon="103.390786"><ele>771.0509</ele><time>2026-05-09T07:07:32.000Z</time></trkpt>
        <trkpt lat="29.567687" lon="103.390775"><ele>767.76215</ele><time>2026-05-09T07:07:36.000Z</time></trkpt>
        <trkpt lat="29.567651" lon="103.390718"><ele>767.0128</ele><time>2026-05-09T07:07:41.000Z</time></trkpt>
        <trkpt lat="29.567605" lon="103.390709"><ele>767.3208</ele><time>2026-05-09T07:07:44.000Z</time></trkpt>
        <trkpt lat="29.567561" lon="103.390667"><ele>769.6738</ele><time>2026-05-09T07:07:47.000Z</time></trkpt>
        <trkpt lat="29.567552" lon="103.390613"><ele>768.2199</ele><time>2026-05-09T07:07:50.000Z</time></trkpt>
        <trkpt lat="29.567548" lon="103.390562"><ele>766.28656</ele><time>2026-05-09T07:07:53.000Z</time></trkpt>
        <trkpt lat="29.567505" lon="103.390519"><ele>765.68713</ele><time>2026-05-09T07:07:58.000Z</time></trkpt>
        <trkpt lat="29.567493" lon="103.390466"><ele>765.3886</ele><time>2026-05-09T07:08:04.000Z</time></trkpt>
        <trkpt lat="29.567531" lon="103.390425"><ele>764.8151</ele><time>2026-05-09T07:08:05.000Z</time></trkpt>
        <trkpt lat="29.567482" lon="103.390412"><ele>764.6289</ele><time>2026-05-09T07:08:08.000Z</time></trkpt>
        <trkpt lat="29.567432" lon="103.390395"><ele>764.88495</ele><time>2026-05-09T07:08:11.000Z</time></trkpt>
        <trkpt lat="29.567386" lon="103.390404"><ele>765.2628</ele><time>2026-05-09T07:08:13.000Z</time></trkpt>
        <trkpt lat="29.567343" lon="103.390421"><ele>765.51086</ele><time>2026-05-09T07:08:15.000Z</time></trkpt>
        <trkpt lat="29.567286" lon="103.39044"><ele>766.13464</ele><time>2026-05-09T07:08:18.000Z</time></trkpt>
        <trkpt lat="29.567238" lon="103.390438"><ele>769.0795</ele><time>2026-05-09T07:08:21.000Z</time></trkpt>
        <trkpt lat="29.567178" lon="103.390442"><ele>770.1417</ele><time>2026-05-09T07:08:25.000Z</time></trkpt>
        <trkpt lat="29.567174" lon="103.390383"><ele>772.38184</ele><time>2026-05-09T07:08:28.000Z</time></trkpt>
        <trkpt lat="29.567125" lon="103.390405"><ele>773.46564</ele><time>2026-05-09T07:08:32.000Z</time></trkpt>
        <trkpt lat="29.567079" lon="103.390395"><ele>772.91284</ele><time>2026-05-09T07:08:36.000Z</time></trkpt>
        <trkpt lat="29.567037" lon="103.390366"><ele>774.61536</ele><time>2026-05-09T07:08:40.000Z</time></trkpt>
        <trkpt lat="29.566987" lon="103.390354"><ele>775.1688</ele><time>2026-05-09T07:08:44.000Z</time></trkpt>
        <trkpt lat="29.566945" lon="103.390389"><ele>775.0388</ele><time>2026-05-09T07:08:46.000Z</time></trkpt>
        <trkpt lat="29.566885" lon="103.390346"><ele>777.68524</ele><time>2026-05-09T07:08:50.000Z</time></trkpt>
        <trkpt lat="29.566841" lon="103.390314"><ele>777.6145</ele><time>2026-05-09T07:08:54.000Z</time></trkpt>
        <trkpt lat="29.566818" lon="103.390237"><ele>776.3774</ele><time>2026-05-09T07:08:57.000Z</time></trkpt>
        <trkpt lat="29.566796" lon="103.390191"><ele>776.4074</ele><time>2026-05-09T07:09:00.000Z</time></trkpt>
        <trkpt lat="29.566788" lon="103.390123"><ele>776.588</ele><time>2026-05-09T07:09:02.000Z</time></trkpt>
        <trkpt lat="29.566793" lon="103.390053"><ele>776.1084</ele><time>2026-05-09T07:09:05.000Z</time></trkpt>
        <trkpt lat="29.566767" lon="103.389999"><ele>770.9249</ele><time>2026-05-09T07:09:10.000Z</time></trkpt>
        <trkpt lat="29.566725" lon="103.389959"><ele>770.6762</ele><time>2026-05-09T07:09:16.000Z</time></trkpt>
        <trkpt lat="29.56667" lon="103.389936"><ele>769.1418</ele><time>2026-05-09T07:09:20.000Z</time></trkpt>
        <trkpt lat="29.566631" lon="103.389891"><ele>767.4015</ele><time>2026-05-09T07:09:24.000Z</time></trkpt>
        <trkpt lat="29.566592" lon="103.38986"><ele>767.10974</ele><time>2026-05-09T07:09:27.000Z</time></trkpt>
        <trkpt lat="29.566548" lon="103.389815"><ele>765.9778</ele><time>2026-05-09T07:09:31.000Z</time></trkpt>
        <trkpt lat="29.566497" lon="103.389801"><ele>761.1588</ele><time>2026-05-09T07:09:36.000Z</time></trkpt>
        <trkpt lat="29.566442" lon="103.38979"><ele>759.2913</ele><time>2026-05-09T07:09:40.000Z</time></trkpt>
        <trkpt lat="29.566393" lon="103.389771"><ele>759.1026</ele><time>2026-05-09T07:09:44.000Z</time></trkpt>
        <trkpt lat="29.566338" lon="103.389765"><ele>756.64935</ele><time>2026-05-09T07:09:48.000Z</time></trkpt>
        <trkpt lat="29.566292" lon="103.389753"><ele>756.71893</ele><time>2026-05-09T07:09:53.000Z</time></trkpt>
        <trkpt lat="29.566236" lon="103.389745"><ele>757.2083</ele><time>2026-05-09T07:09:58.000Z</time></trkpt>
        <trkpt lat="29.566188" lon="103.389714"><ele>754.50275</ele><time>2026-05-09T07:10:04.000Z</time></trkpt>
        <trkpt lat="29.566143" lon="103.389694"><ele>753.8727</ele><time>2026-05-09T07:10:08.000Z</time></trkpt>
        <trkpt lat="29.56609" lon="103.389662"><ele>751.58044</ele><time>2026-05-09T07:10:12.000Z</time></trkpt>
        <trkpt lat="29.566045" lon="103.389642"><ele>752.28894</ele><time>2026-05-09T07:10:15.000Z</time></trkpt>
        <trkpt lat="29.565999" lon="103.389669"><ele>752.3182</ele><time>2026-05-09T07:10:18.000Z</time></trkpt>
        <trkpt lat="29.565954" lon="103.389705"><ele>753.0509</ele><time>2026-05-09T07:10:21.000Z</time></trkpt>
        <trkpt lat="29.565907" lon="103.389715"><ele>753.4601</ele><time>2026-05-09T07:10:25.000Z</time></trkpt>
        <trkpt lat="29.565855" lon="103.389714"><ele>754.6172</ele><time>2026-05-09T07:10:30.000Z</time></trkpt>
        <trkpt lat="29.565799" lon="103.389731"><ele>755.97205</ele><time>2026-05-09T07:10:34.000Z</time></trkpt>
        <trkpt lat="29.565755" lon="103.389759"><ele>756.9359</ele><time>2026-05-09T07:10:39.000Z</time></trkpt>
        <trkpt lat="29.565706" lon="103.389778"><ele>764.04596</ele><time>2026-05-09T07:10:46.000Z</time></trkpt>
        <trkpt lat="29.565663" lon="103.389753"><ele>765.8502</ele><time>2026-05-09T07:10:50.000Z</time></trkpt>
        <trkpt lat="29.565667" lon="103.389693"><ele>766.5951</ele><time>2026-05-09T07:10:53.000Z</time></trkpt>
        <trkpt lat="29.565634" lon="103.389657"><ele>764.12756</ele><time>2026-05-09T07:10:56.000Z</time></trkpt>
        <trkpt lat="29.565606" lon="103.389617"><ele>763.15753</ele><time>2026-05-09T07:11:03.000Z</time></trkpt>
        <trkpt lat="29.565562" lon="103.389569"><ele>761.4654</ele><time>2026-05-09T07:11:06.000Z</time></trkpt>
        <trkpt lat="29.565513" lon="103.389556"><ele>760.18414</ele><time>2026-05-09T07:11:09.000Z</time></trkpt>
        <trkpt lat="29.565458" lon="103.389543"><ele>759.8202</ele><time>2026-05-09T07:11:13.000Z</time></trkpt>
        <trkpt lat="29.565408" lon="103.389557"><ele>761.284</ele><time>2026-05-09T07:11:16.000Z</time></trkpt>
        <trkpt lat="29.565366" lon="103.389526"><ele>761.1522</ele><time>2026-05-09T07:11:20.000Z</time></trkpt>
        <trkpt lat="29.565318" lon="103.389508"><ele>761.04913</ele><time>2026-05-09T07:11:23.000Z</time></trkpt>
        <trkpt lat="29.565267" lon="103.389492"><ele>761.39667</ele><time>2026-05-09T07:11:27.000Z</time></trkpt>
        <trkpt lat="29.56523" lon="103.389441"><ele>761.557</ele><time>2026-05-09T07:11:31.000Z</time></trkpt>
        <trkpt lat="29.565181" lon="103.38943"><ele>760.6895</ele><time>2026-05-09T07:11:34.000Z</time></trkpt>
        <trkpt lat="29.565156" lon="103.389368"><ele>761.79535</ele><time>2026-05-09T07:11:38.000Z</time></trkpt>
        <trkpt lat="29.565125" lon="103.389328"><ele>762.1876</ele><time>2026-05-09T07:11:41.000Z</time></trkpt>
        <trkpt lat="29.565107" lon="103.389281"><ele>763.7706</ele><time>2026-05-09T07:11:44.000Z</time></trkpt>
        <trkpt lat="29.565059" lon="103.389242"><ele>762.1749</ele><time>2026-05-09T07:11:48.000Z</time></trkpt>
        <trkpt lat="29.565032" lon="103.389198"><ele>761.45087</ele><time>2026-05-09T07:11:52.000Z</time></trkpt>
        <trkpt lat="29.56499" lon="103.389153"><ele>763.7241</ele><time>2026-05-09T07:11:55.000Z</time></trkpt>
        <trkpt lat="29.564935" lon="103.389134"><ele>768.56165</ele><time>2026-05-09T07:11:59.000Z</time></trkpt>
        <trkpt lat="29.564906" lon="103.389073"><ele>768.9008</ele><time>2026-05-09T07:12:03.000Z</time></trkpt>
        <trkpt lat="29.56488" lon="103.389026"><ele>771.0113</ele><time>2026-05-09T07:12:07.000Z</time></trkpt>
        <trkpt lat="29.564838" lon="103.388994"><ele>771.4884</ele><time>2026-05-09T07:12:16.000Z</time></trkpt>
        <trkpt lat="29.564792" lon="103.388986"><ele>771.1253</ele><time>2026-05-09T07:12:20.000Z</time></trkpt>
        <trkpt lat="29.564747" lon="103.389005"><ele>770.2809</ele><time>2026-05-09T07:12:23.000Z</time></trkpt>
        <trkpt lat="29.564695" lon="103.388993"><ele>769.05743</ele><time>2026-05-09T07:12:27.000Z</time></trkpt>
        <trkpt lat="29.564636" lon="103.388989"><ele>767.56256</ele><time>2026-05-09T07:12:32.000Z</time></trkpt>
        <trkpt lat="29.564612" lon="103.388938"><ele>767.4856</ele><time>2026-05-09T07:12:36.000Z</time></trkpt>
        <trkpt lat="29.564558" lon="103.388932"><ele>768.04803</ele><time>2026-05-09T07:12:42.000Z</time></trkpt>
        <trkpt lat="29.564517" lon="103.388908"><ele>767.99255</ele><time>2026-05-09T07:12:45.000Z</time></trkpt>
        <trkpt lat="29.564458" lon="103.38891"><ele>769.55566</ele><time>2026-05-09T07:12:51.000Z</time></trkpt>
        <trkpt lat="29.5644" lon="103.38891"><ele>769.65784</ele><time>2026-05-09T07:12:55.000Z</time></trkpt>
        <trkpt lat="29.564343" lon="103.388886"><ele>772.2473</ele><time>2026-05-09T07:13:01.000Z</time></trkpt>
        <trkpt lat="29.564297" lon="103.388885"><ele>775.0166</ele><time>2026-05-09T07:13:05.000Z</time></trkpt>
        <trkpt lat="29.56425" lon="103.388881"><ele>775.9672</ele><time>2026-05-09T07:13:09.000Z</time></trkpt>
        <trkpt lat="29.564203" lon="103.388889"><ele>778.0621</ele><time>2026-05-09T07:13:13.000Z</time></trkpt>
        <trkpt lat="29.564158" lon="103.388899"><ele>781.27594</ele><time>2026-05-09T07:13:17.000Z</time></trkpt>
        <trkpt lat="29.564124" lon="103.388939"><ele>781.0409</ele><time>2026-05-09T07:13:25.000Z</time></trkpt>
        <trkpt lat="29.564068" lon="103.38895"><ele>781.3135</ele><time>2026-05-09T07:13:30.000Z</time></trkpt>
        <trkpt lat="29.564025" lon="103.388968"><ele>780.74164</ele><time>2026-05-09T07:13:34.000Z</time></trkpt>
        <trkpt lat="29.563981" lon="103.388979"><ele>780.1498</ele><time>2026-05-09T07:13:38.000Z</time></trkpt>
        <trkpt lat="29.56393" lon="103.388984"><ele>782.27954</ele><time>2026-05-09T07:13:44.000Z</time></trkpt>
        <trkpt lat="29.563883" lon="103.388985"><ele>781.9309</ele><time>2026-05-09T07:13:48.000Z</time></trkpt>
        <trkpt lat="29.563828" lon="103.388985"><ele>780.50134</ele><time>2026-05-09T07:13:53.000Z</time></trkpt>
        <trkpt lat="29.563782" lon="103.388969"><ele>780.0278</ele><time>2026-05-09T07:13:56.000Z</time></trkpt>
        <trkpt lat="29.563732" lon="103.388949"><ele>780.33746</ele><time>2026-05-09T07:14:01.000Z</time></trkpt>
        <trkpt lat="29.563688" lon="103.38894"><ele>781.18463</ele><time>2026-05-09T07:14:05.000Z</time></trkpt>
        <trkpt lat="29.563648" lon="103.388909"><ele>780.9491</ele><time>2026-05-09T07:14:10.000Z</time></trkpt>
        <trkpt lat="29.563605" lon="103.388886"><ele>778.7899</ele><time>2026-05-09T07:14:14.000Z</time></trkpt>
        <trkpt lat="29.563548" lon="103.388856"><ele>777.97345</ele><time>2026-05-09T07:14:18.000Z</time></trkpt>
        <trkpt lat="29.563493" lon="103.388853"><ele>777.5029</ele><time>2026-05-09T07:14:24.000Z</time></trkpt>
        <trkpt lat="29.563449" lon="103.388869"><ele>777.9808</ele><time>2026-05-09T07:14:36.000Z</time></trkpt>
        <trkpt lat="29.563403" lon="103.388865"><ele>776.2108</ele><time>2026-05-09T07:14:42.000Z</time></trkpt>
        <trkpt lat="29.563348" lon="103.388867"><ele>776.55945</ele><time>2026-05-09T07:14:48.000Z</time></trkpt>
        <trkpt lat="29.563288" lon="103.388861"><ele>775.8336</ele><time>2026-05-09T07:14:56.000Z</time></trkpt>
        <trkpt lat="29.563238" lon="103.388872"><ele>775.83405</ele><time>2026-05-09T07:15:01.000Z</time></trkpt>
        <trkpt lat="29.563187" lon="103.388883"><ele>775.6666</ele><time>2026-05-09T07:15:05.000Z</time></trkpt>
        <trkpt lat="29.563131" lon="103.388884"><ele>775.0397</ele><time>2026-05-09T07:15:09.000Z</time></trkpt>
        <trkpt lat="29.563084" lon="103.3889"><ele>773.2766</ele><time>2026-05-09T07:15:13.000Z</time></trkpt>
        <trkpt lat="29.563036" lon="103.388933"><ele>772.8518</ele><time>2026-05-09T07:15:17.000Z</time></trkpt>
        <trkpt lat="29.562995" lon="103.38897"><ele>772.36273</ele><time>2026-05-09T07:15:21.000Z</time></trkpt>
        <trkpt lat="29.562957" lon="103.388998"><ele>773.65625</ele><time>2026-05-09T07:15:24.000Z</time></trkpt>
        <trkpt lat="29.562901" lon="103.389017"><ele>773.5946</ele><time>2026-05-09T07:15:29.000Z</time></trkpt>
        <trkpt lat="29.562848" lon="103.389024"><ele>774.51184</ele><time>2026-05-09T07:15:34.000Z</time></trkpt>
        <trkpt lat="29.562792" lon="103.38904"><ele>776.2635</ele><time>2026-05-09T07:15:38.000Z</time></trkpt>
        <trkpt lat="29.562741" lon="103.38906"><ele>775.22675</ele><time>2026-05-09T07:15:41.000Z</time></trkpt>
        <trkpt lat="29.562697" lon="103.389073"><ele>778.4028</ele><time>2026-05-09T07:15:45.000Z</time></trkpt>
        <trkpt lat="29.56265" lon="103.389095"><ele>782.2778</ele><time>2026-05-09T07:15:49.000Z</time></trkpt>
        <trkpt lat="29.5626" lon="103.389105"><ele>784.8032</ele><time>2026-05-09T07:16:08.000Z</time></trkpt>
        <trkpt lat="29.562552" lon="103.389112"><ele>782.2179</ele><time>2026-05-09T07:16:12.000Z</time></trkpt>
        <trkpt lat="29.562502" lon="103.389103"><ele>787.4402</ele><time>2026-05-09T07:16:18.000Z</time></trkpt>
        <trkpt lat="29.562471" lon="103.389061"><ele>782.7302</ele><time>2026-05-09T07:16:22.000Z</time></trkpt>
        <trkpt lat="29.562437" lon="103.38902"><ele>785.1873</ele><time>2026-05-09T07:16:26.000Z</time></trkpt>
        <trkpt lat="29.562387" lon="103.388982"><ele>783.8739</ele><time>2026-05-09T07:16:31.000Z</time></trkpt>
        <trkpt lat="29.562342" lon="103.388995"><ele>783.4708</ele><time>2026-05-09T07:16:34.000Z</time></trkpt>
        <trkpt lat="29.562293" lon="103.389027"><ele>788.50037</ele><time>2026-05-09T07:16:37.000Z</time></trkpt>
        <trkpt lat="29.562236" lon="103.389034"><ele>788.27216</ele><time>2026-05-09T07:16:41.000Z</time></trkpt>
        <trkpt lat="29.562184" lon="103.389024"><ele>788.1027</ele><time>2026-05-09T07:16:45.000Z</time></trkpt>
        <trkpt lat="29.56213" lon="103.389037"><ele>784.5005</ele><time>2026-05-09T07:16:49.000Z</time></trkpt>
        <trkpt lat="29.562088" lon="103.389066"><ele>785.4523</ele><time>2026-05-09T07:16:52.000Z</time></trkpt>
        <trkpt lat="29.562045" lon="103.38911"><ele>783.26025</ele><time>2026-05-09T07:16:56.000Z</time></trkpt>
        <trkpt lat="29.561995" lon="103.389135"><ele>782.48584</ele><time>2026-05-09T07:17:01.000Z</time></trkpt>
        <trkpt lat="29.56198" lon="103.3892"><ele>784.3886</ele><time>2026-05-09T07:17:05.000Z</time></trkpt>
        <trkpt lat="29.561976" lon="103.38926"><ele>787.12244</ele><time>2026-05-09T07:17:09.000Z</time></trkpt>
        <trkpt lat="29.562016" lon="103.38929"><ele>787.6399</ele><time>2026-05-09T07:17:13.000Z</time></trkpt>
        <trkpt lat="29.562064" lon="103.389308"><ele>786.7427</ele><time>2026-05-09T07:17:16.000Z</time></trkpt>
        <trkpt lat="29.562094" lon="103.389349"><ele>788.45264</ele><time>2026-05-09T07:17:19.000Z</time></trkpt>
        <trkpt lat="29.562098" lon="103.389403"><ele>791.46436</ele><time>2026-05-09T07:17:22.000Z</time></trkpt>
        <trkpt lat="29.562088" lon="103.389456"><ele>798.3193</ele><time>2026-05-09T07:17:25.000Z</time></trkpt>
        <trkpt lat="29.562075" lon="103.38952"><ele>800.54517</ele><time>2026-05-09T07:17:28.000Z</time></trkpt>
        <trkpt lat="29.562031" lon="103.389553"><ele>804.2082</ele><time>2026-05-09T07:17:31.000Z</time></trkpt>
        <trkpt lat="29.561983" lon="103.389556"><ele>804.4401</ele><time>2026-05-09T07:17:34.000Z</time></trkpt>
        <trkpt lat="29.561943" lon="103.389528"><ele>807.05646</ele><time>2026-05-09T07:17:36.000Z</time></trkpt>
        <trkpt lat="29.561898" lon="103.389518"><ele>809.7093</ele><time>2026-05-09T07:17:39.000Z</time></trkpt>
        <trkpt lat="29.561852" lon="103.389497"><ele>813.40894</ele><time>2026-05-09T07:17:42.000Z</time></trkpt>
        <trkpt lat="29.561796" lon="103.389487"><ele>816.63495</ele><time>2026-05-09T07:17:45.000Z</time></trkpt>
        <trkpt lat="29.561746" lon="103.38945"><ele>817.9533</ele><time>2026-05-09T07:17:49.000Z</time></trkpt>
        <trkpt lat="29.561702" lon="103.38942"><ele>819.78455</ele><time>2026-05-09T07:17:55.000Z</time></trkpt>
        <trkpt lat="29.561664" lon="103.389378"><ele>817.86945</ele><time>2026-05-09T07:17:59.000Z</time></trkpt>
        <trkpt lat="29.561621" lon="103.389353"><ele>818.52356</ele><time>2026-05-09T07:18:01.000Z</time></trkpt>
        <trkpt lat="29.561568" lon="103.389363"><ele>815.4879</ele><time>2026-05-09T07:18:06.000Z</time></trkpt>
        <trkpt lat="29.561527" lon="103.389341"><ele>816.2652</ele><time>2026-05-09T07:18:09.000Z</time></trkpt>
        <trkpt lat="29.561476" lon="103.389332"><ele>816.4732</ele><time>2026-05-09T07:18:12.000Z</time></trkpt>
        <trkpt lat="29.561424" lon="103.389312"><ele>816.08844</ele><time>2026-05-09T07:18:16.000Z</time></trkpt>
        <trkpt lat="29.561365" lon="103.389319"><ele>815.2645</ele><time>2026-05-09T07:18:21.000Z</time></trkpt>
        <trkpt lat="29.561318" lon="103.389303"><ele>814.7288</ele><time>2026-05-09T07:18:25.000Z</time></trkpt>
        <trkpt lat="29.561273" lon="103.389305"><ele>812.76044</ele><time>2026-05-09T07:18:28.000Z</time></trkpt>
        <trkpt lat="29.561228" lon="103.38929"><ele>814.7777</ele><time>2026-05-09T07:18:31.000Z</time></trkpt>
        <trkpt lat="29.561175" lon="103.389285"><ele>814.7739</ele><time>2026-05-09T07:18:35.000Z</time></trkpt>
        <trkpt lat="29.561131" lon="103.389298"><ele>815.1714</ele><time>2026-05-09T07:18:38.000Z</time></trkpt>
        <trkpt lat="29.561089" lon="103.389326"><ele>816.5294</ele><time>2026-05-09T07:18:41.000Z</time></trkpt>
        <trkpt lat="29.561037" lon="103.389328"><ele>816.90875</ele><time>2026-05-09T07:18:44.000Z</time></trkpt>
        <trkpt lat="29.560986" lon="103.389352"><ele>816.8842</ele><time>2026-05-09T07:18:48.000Z</time></trkpt>
        <trkpt lat="29.560949" lon="103.389385"><ele>818.2541</ele><time>2026-05-09T07:18:52.000Z</time></trkpt>
        <trkpt lat="29.560899" lon="103.389363"><ele>817.4169</ele><time>2026-05-09T07:18:58.000Z</time></trkpt>
        <trkpt lat="29.560854" lon="103.389373"><ele>818.8369</ele><time>2026-05-09T07:19:02.000Z</time></trkpt>
        <trkpt lat="29.560818" lon="103.389412"><ele>816.80115</ele><time>2026-05-09T07:19:07.000Z</time></trkpt>
        <trkpt lat="29.560769" lon="103.38942"><ele>814.7168</ele><time>2026-05-09T07:19:11.000Z</time></trkpt>
        <trkpt lat="29.560717" lon="103.389438"><ele>815.2197</ele><time>2026-05-09T07:19:15.000Z</time></trkpt>
        <trkpt lat="29.560667" lon="103.389431"><ele>815.69916</ele><time>2026-05-09T07:19:19.000Z</time></trkpt>
        <trkpt lat="29.560614" lon="103.389434"><ele>814.8707</ele><time>2026-05-09T07:19:23.000Z</time></trkpt>
        <trkpt lat="29.56056" lon="103.389463"><ele>815.6263</ele><time>2026-05-09T07:19:27.000Z</time></trkpt>
        <trkpt lat="29.560516" lon="103.389486"><ele>815.6603</ele><time>2026-05-09T07:19:31.000Z</time></trkpt>
        <trkpt lat="29.560463" lon="103.389471"><ele>815.0971</ele><time>2026-05-09T07:19:35.000Z</time></trkpt>
        <trkpt lat="29.560419" lon="103.389438"><ele>814.1088</ele><time>2026-05-09T07:19:39.000Z</time></trkpt>
        <trkpt lat="29.560371" lon="103.389436"><ele>815.575</ele><time>2026-05-09T07:19:42.000Z</time></trkpt>
        <trkpt lat="29.56033" lon="103.389407"><ele>814.2229</ele><time>2026-05-09T07:19:45.000Z</time></trkpt>
        <trkpt lat="29.560283" lon="103.389422"><ele>815.9723</ele><time>2026-05-09T07:19:49.000Z</time></trkpt>
        <trkpt lat="29.560225" lon="103.389421"><ele>814.693</ele><time>2026-05-09T07:19:53.000Z</time></trkpt>
        <trkpt lat="29.560231" lon="103.389357"><ele>815.07465</ele><time>2026-05-09T07:19:57.000Z</time></trkpt>
        <trkpt lat="29.56025" lon="103.389304"><ele>813.9995</ele><time>2026-05-09T07:19:59.000Z</time></trkpt>
        <trkpt lat="29.560281" lon="103.389257"><ele>813.25977</ele><time>2026-05-09T07:20:05.000Z</time></trkpt>
        <trkpt lat="29.560229" lon="103.389286"><ele>809.2173</ele><time>2026-05-09T07:20:11.000Z</time></trkpt>
        <trkpt lat="29.560196" lon="103.38925"><ele>810.7044</ele><time>2026-05-09T07:20:17.000Z</time></trkpt>
        <trkpt lat="29.560163" lon="103.389216"><ele>810.8604</ele><time>2026-05-09T07:20:24.000Z</time></trkpt>
        <trkpt lat="29.560141" lon="103.389156"><ele>807.9675</ele><time>2026-05-09T07:20:30.000Z</time></trkpt>
        <trkpt lat="29.560143" lon="103.389092"><ele>808.3152</ele><time>2026-05-09T07:20:34.000Z</time></trkpt>
        <trkpt lat="29.560123" lon="103.389046"><ele>806.40247</ele><time>2026-05-09T07:20:37.000Z</time></trkpt>
        <trkpt lat="29.560101" lon="103.388991"><ele>807.26746</ele><time>2026-05-09T07:20:42.000Z</time></trkpt>
        <trkpt lat="29.560087" lon="103.388933"><ele>808.1785</ele><time>2026-05-09T07:20:48.000Z</time></trkpt>
        <trkpt lat="29.560095" lon="103.388882"><ele>807.7367</ele><time>2026-05-09T07:20:53.000Z</time></trkpt>
        <trkpt lat="29.560122" lon="103.388831"><ele>805.92163</ele><time>2026-05-09T07:20:57.000Z</time></trkpt>
        <trkpt lat="29.560171" lon="103.388802"><ele>808.2386</ele><time>2026-05-09T07:21:01.000Z</time></trkpt>
        <trkpt lat="29.560186" lon="103.388737"><ele>809.30237</ele><time>2026-05-09T07:21:07.000Z</time></trkpt>
        <trkpt lat="29.56013" lon="103.388727"><ele>809.07166</ele><time>2026-05-09T07:21:12.000Z</time></trkpt>
        <trkpt lat="29.56008" lon="103.388687"><ele>809.4459</ele><time>2026-05-09T07:21:16.000Z</time></trkpt>
        <trkpt lat="29.560038" lon="103.388664"><ele>807.7079</ele><time>2026-05-09T07:21:19.000Z</time></trkpt>
        <trkpt lat="29.559993" lon="103.388626"><ele>807.29767</ele><time>2026-05-09T07:21:22.000Z</time></trkpt>
        <trkpt lat="29.559944" lon="103.388601"><ele>805.0626</ele><time>2026-05-09T07:21:25.000Z</time></trkpt>
        <trkpt lat="29.559894" lon="103.388565"><ele>805.4431</ele><time>2026-05-09T07:21:28.000Z</time></trkpt>
        <trkpt lat="29.559845" lon="103.38852"><ele>806.5119</ele><time>2026-05-09T07:21:31.000Z</time></trkpt>
        <trkpt lat="29.55982" lon="103.388475"><ele>808.1065</ele><time>2026-05-09T07:21:34.000Z</time></trkpt>
        <trkpt lat="29.55977" lon="103.388466"><ele>807.3492</ele><time>2026-05-09T07:21:37.000Z</time></trkpt>
        <trkpt lat="29.559729" lon="103.388442"><ele>807.5137</ele><time>2026-05-09T07:21:41.000Z</time></trkpt>
        <trkpt lat="29.559699" lon="103.388392"><ele>807.7593</ele><time>2026-05-09T07:21:45.000Z</time></trkpt>
        <trkpt lat="29.559673" lon="103.388339"><ele>806.4814</ele><time>2026-05-09T07:21:49.000Z</time></trkpt>
        <trkpt lat="29.559671" lon="103.388277"><ele>804.9741</ele><time>2026-05-09T07:21:53.000Z</time></trkpt>
        <trkpt lat="29.559664" lon="103.388226"><ele>803.8898</ele><time>2026-05-09T07:21:55.000Z</time></trkpt>
        <trkpt lat="29.559638" lon="103.388163"><ele>804.82434</ele><time>2026-05-09T07:21:59.000Z</time></trkpt>
        <trkpt lat="29.559609" lon="103.388099"><ele>804.84</ele><time>2026-05-09T07:22:02.000Z</time></trkpt>
        <trkpt lat="29.559571" lon="103.388061"><ele>804.82007</ele><time>2026-05-09T07:22:05.000Z</time></trkpt>
        <trkpt lat="29.559532" lon="103.388021"><ele>804.5596</ele><time>2026-05-09T07:22:08.000Z</time></trkpt>
        <trkpt lat="29.559492" lon="103.38799"><ele>804.14935</ele><time>2026-05-09T07:22:11.000Z</time></trkpt>
        <trkpt lat="29.559447" lon="103.387963"><ele>805.8696</ele><time>2026-05-09T07:22:14.000Z</time></trkpt>
        <trkpt lat="29.559399" lon="103.387932"><ele>806.80176</ele><time>2026-05-09T07:22:17.000Z</time></trkpt>
        <trkpt lat="29.559347" lon="103.387914"><ele>804.3643</ele><time>2026-05-09T07:22:20.000Z</time></trkpt>
        <trkpt lat="29.559297" lon="103.387878"><ele>805.56067</ele><time>2026-05-09T07:22:23.000Z</time></trkpt>
        <trkpt lat="29.559245" lon="103.387855"><ele>805.451</ele><time>2026-05-09T07:22:26.000Z</time></trkpt>
        <trkpt lat="29.559185" lon="103.387832"><ele>807.4623</ele><time>2026-05-09T07:22:29.000Z</time></trkpt>
        <trkpt lat="29.55914" lon="103.387821"><ele>808.09534</ele><time>2026-05-09T07:22:33.000Z</time></trkpt>
        <trkpt lat="29.559078" lon="103.387831"><ele>808.7584</ele><time>2026-05-09T07:22:37.000Z</time></trkpt>
        <trkpt lat="29.559029" lon="103.387828"><ele>807.2456</ele><time>2026-05-09T07:22:40.000Z</time></trkpt>
        <trkpt lat="29.558981" lon="103.387832"><ele>808.1377</ele><time>2026-05-09T07:22:43.000Z</time></trkpt>
        <trkpt lat="29.55893" lon="103.387846"><ele>810.02344</ele><time>2026-05-09T07:22:47.000Z</time></trkpt>
        <trkpt lat="29.558876" lon="103.387864"><ele>813.5952</ele><time>2026-05-09T07:22:50.000Z</time></trkpt>
        <trkpt lat="29.558822" lon="103.387877"><ele>815.73236</ele><time>2026-05-09T07:22:53.000Z</time></trkpt>
        <trkpt lat="29.558768" lon="103.387847"><ele>815.9983</ele><time>2026-05-09T07:22:56.000Z</time></trkpt>
        <trkpt lat="29.55872" lon="103.38783"><ele>817.74097</ele><time>2026-05-09T07:22:59.000Z</time></trkpt>
        <trkpt lat="29.558683" lon="103.387778"><ele>819.8842</ele><time>2026-05-09T07:23:02.000Z</time></trkpt>
        <trkpt lat="29.558627" lon="103.387749"><ele>819.0375</ele><time>2026-05-09T07:23:05.000Z</time></trkpt>
        <trkpt lat="29.558568" lon="103.387746"><ele>820.1852</ele><time>2026-05-09T07:23:08.000Z</time></trkpt>
        <trkpt lat="29.558518" lon="103.387774"><ele>819.8396</ele><time>2026-05-09T07:23:11.000Z</time></trkpt>
        <trkpt lat="29.558469" lon="103.38772"><ele>823.60095</ele><time>2026-05-09T07:23:14.000Z</time></trkpt>
        <trkpt lat="29.558444" lon="103.387649"><ele>825.8009</ele><time>2026-05-09T07:23:18.000Z</time></trkpt>
        <trkpt lat="29.55842" lon="103.387603"><ele>827.09753</ele><time>2026-05-09T07:23:21.000Z</time></trkpt>
        <trkpt lat="29.558395" lon="103.387557"><ele>827.6914</ele><time>2026-05-09T07:23:25.000Z</time></trkpt>
        <trkpt lat="29.558362" lon="103.387514"><ele>828.0067</ele><time>2026-05-09T07:23:29.000Z</time></trkpt>
        <trkpt lat="29.558325" lon="103.387482"><ele>826.58655</ele><time>2026-05-09T07:23:33.000Z</time></trkpt>
        <trkpt lat="29.558287" lon="103.387449"><ele>827.8618</ele><time>2026-05-09T07:23:37.000Z</time></trkpt>
        <trkpt lat="29.558259" lon="103.387394"><ele>828.35986</ele><time>2026-05-09T07:23:43.000Z</time></trkpt>
        <trkpt lat="29.558228" lon="103.387347"><ele>831.837</ele><time>2026-05-09T07:23:47.000Z</time></trkpt>
        <trkpt lat="29.558195" lon="103.387312"><ele>831.9</ele><time>2026-05-09T07:23:52.000Z</time></trkpt>
        <trkpt lat="29.558159" lon="103.387267"><ele>830.3058</ele><time>2026-05-09T07:23:58.000Z</time></trkpt>
        <trkpt lat="29.558119" lon="103.38723"><ele>833.3957</ele><time>2026-05-09T07:24:04.000Z</time></trkpt>
        <trkpt lat="29.558067" lon="103.387226"><ele>832.1274</ele><time>2026-05-09T07:24:09.000Z</time></trkpt>
        <trkpt lat="29.558031" lon="103.387185"><ele>831.214</ele><time>2026-05-09T07:24:14.000Z</time></trkpt>
        <trkpt lat="29.557991" lon="103.38716"><ele>833.08575</ele><time>2026-05-09T07:24:19.000Z</time></trkpt>
        <trkpt lat="29.557944" lon="103.387146"><ele>830.07886</ele><time>2026-05-09T07:24:23.000Z</time></trkpt>
        <trkpt lat="29.557903" lon="103.387118"><ele>831.78467</ele><time>2026-05-09T07:24:28.000Z</time></trkpt>
        <trkpt lat="29.557853" lon="103.387096"><ele>830.86694</ele><time>2026-05-09T07:24:33.000Z</time></trkpt>
        <trkpt lat="29.557799" lon="103.387069"><ele>826.2202</ele><time>2026-05-09T07:24:37.000Z</time></trkpt>
        <trkpt lat="29.557741" lon="103.387057"><ele>828.01263</ele><time>2026-05-09T07:24:43.000Z</time></trkpt>
        <trkpt lat="29.557695" lon="103.387043"><ele>832.69354</ele><time>2026-05-09T07:24:48.000Z</time></trkpt>
        <trkpt lat="29.557697" lon="103.386984"><ele>833.96606</ele><time>2026-05-09T07:24:53.000Z</time></trkpt>
        <trkpt lat="29.557706" lon="103.386929"><ele>832.5989</ele><time>2026-05-09T07:24:59.000Z</time></trkpt>
        <trkpt lat="29.557695" lon="103.386868"><ele>833.319</ele><time>2026-05-09T07:25:10.000Z</time></trkpt>
        <trkpt lat="29.557671" lon="103.386822"><ele>837.2493</ele><time>2026-05-09T07:25:15.000Z</time></trkpt>
        <trkpt lat="29.557646" lon="103.386769"><ele>836.5397</ele><time>2026-05-09T07:25:19.000Z</time></trkpt>
        <trkpt lat="29.557594" lon="103.386756"><ele>836.2903</ele><time>2026-05-09T07:25:24.000Z</time></trkpt>
        <trkpt lat="29.557555" lon="103.38673"><ele>836.1103</ele><time>2026-05-09T07:25:28.000Z</time></trkpt>
        <trkpt lat="29.557524" lon="103.386687"><ele>835.2882</ele><time>2026-05-09T07:25:32.000Z</time></trkpt>
        <trkpt lat="29.557506" lon="103.386622"><ele>834.1452</ele><time>2026-05-09T07:25:36.000Z</time></trkpt>
        <trkpt lat="29.557474" lon="103.386585"><ele>831.83966</ele><time>2026-05-09T07:25:40.000Z</time></trkpt>
        <trkpt lat="29.557443" lon="103.386544"><ele>829.74066</ele><time>2026-05-09T07:25:44.000Z</time></trkpt>
        <trkpt lat="29.557396" lon="103.386514"><ele>831.3172</ele><time>2026-05-09T07:25:48.000Z</time></trkpt>
        <trkpt lat="29.557347" lon="103.386494"><ele>833.04663</ele><time>2026-05-09T07:25:53.000Z</time></trkpt>
        <trkpt lat="29.557298" lon="103.386471"><ele>836.2225</ele><time>2026-05-09T07:25:58.000Z</time></trkpt>
        <trkpt lat="29.557247" lon="103.386468"><ele>836.35803</ele><time>2026-05-09T07:26:04.000Z</time></trkpt>
        <trkpt lat="29.557204" lon="103.386446"><ele>837.519</ele><time>2026-05-09T07:26:07.000Z</time></trkpt>
        <trkpt lat="29.557153" lon="103.386444"><ele>835.55457</ele><time>2026-05-09T07:26:13.000Z</time></trkpt>
        <trkpt lat="29.557108" lon="103.386458"><ele>836.2777</ele><time>2026-05-09T07:26:17.000Z</time></trkpt>
        <trkpt lat="29.557055" lon="103.386444"><ele>838.14404</ele><time>2026-05-09T07:26:22.000Z</time></trkpt>
        <trkpt lat="29.557029" lon="103.386392"><ele>837.43896</ele><time>2026-05-09T07:26:26.000Z</time></trkpt>
        <trkpt lat="29.557012" lon="103.386341"><ele>838.3813</ele><time>2026-05-09T07:26:31.000Z</time></trkpt>
        <trkpt lat="29.557007" lon="103.386274"><ele>839.56213</ele><time>2026-05-09T07:26:35.000Z</time></trkpt>
        <trkpt lat="29.557006" lon="103.386217"><ele>840.3163</ele><time>2026-05-09T07:26:39.000Z</time></trkpt>
        <trkpt lat="29.556984" lon="103.386159"><ele>840.21906</ele><time>2026-05-09T07:26:44.000Z</time></trkpt>
        <trkpt lat="29.556941" lon="103.386129"><ele>841.2421</ele><time>2026-05-09T07:26:48.000Z</time></trkpt>
        <trkpt lat="29.556897" lon="103.386114"><ele>842.97107</ele><time>2026-05-09T07:26:52.000Z</time></trkpt>
        <trkpt lat="29.556853" lon="103.386066"><ele>843.2699</ele><time>2026-05-09T07:26:57.000Z</time></trkpt>
        <trkpt lat="29.556818" lon="103.386014"><ele>843.93854</ele><time>2026-05-09T07:27:03.000Z</time></trkpt>
        <trkpt lat="29.556766" lon="103.386043"><ele>843.43066</ele><time>2026-05-09T07:27:09.000Z</time></trkpt>
        <trkpt lat="29.556734" lon="103.386098"><ele>845.0964</ele><time>2026-05-09T07:27:15.000Z</time></trkpt>
        <trkpt lat="29.556689" lon="103.386122"><ele>844.5807</ele><time>2026-05-09T07:27:18.000Z</time></trkpt>
        <trkpt lat="29.556628" lon="103.386157"><ele>843.6655</ele><time>2026-05-09T07:27:21.000Z</time></trkpt>
        <trkpt lat="29.556572" lon="103.386161"><ele>842.1328</ele><time>2026-05-09T07:27:25.000Z</time></trkpt>
        <trkpt lat="29.556544" lon="103.386204"><ele>845.7169</ele><time>2026-05-09T07:27:52.000Z</time></trkpt>
        <trkpt lat="29.556586" lon="103.386224"><ele>850.15967</ele><time>2026-05-09T07:29:27.000Z</time></trkpt>
        <trkpt lat="29.556541" lon="103.386208"><ele>851.10254</ele><time>2026-05-09T07:30:11.000Z</time></trkpt>
        <trkpt lat="29.556546" lon="103.386156"><ele>839.7363</ele><time>2026-05-09T07:32:41.000Z</time></trkpt>
        <trkpt lat="29.556531" lon="103.386224"><ele>846.4567</ele><time>2026-05-09T07:34:58.000Z</time></trkpt>
        <trkpt lat="29.556537" lon="103.38617"><ele>842.34247</ele><time>2026-05-09T07:35:42.000Z</time></trkpt>
        <trkpt lat="29.556493" lon="103.386148"><ele>846.36633</ele><time>2026-05-09T07:36:34.000Z</time></trkpt>
        <trkpt lat="29.556469" lon="103.386081"><ele>844.2177</ele><time>2026-05-09T07:36:53.000Z</time></trkpt>
        <trkpt lat="29.556448" lon="103.386022"><ele>847.4736</ele><time>2026-05-09T07:36:58.000Z</time></trkpt>
        <trkpt lat="29.556436" lon="103.385962"><ele>849.81244</ele><time>2026-05-09T07:37:03.000Z</time></trkpt>
        <trkpt lat="29.556414" lon="103.385916"><ele>851.58496</ele><time>2026-05-09T07:37:12.000Z</time></trkpt>
        <trkpt lat="29.556406" lon="103.385979"><ele>857.54395</ele><time>2026-05-09T07:37:25.000Z</time></trkpt>
        <trkpt lat="29.556393" lon="103.386032"><ele>861.89484</ele><time>2026-05-09T07:37:36.000Z</time></trkpt>
        <trkpt lat="29.556368" lon="103.386081"><ele>866.3016</ele><time>2026-05-09T07:37:41.000Z</time></trkpt>
        <trkpt lat="29.556327" lon="103.386107"><ele>867.14465</ele><time>2026-05-09T07:37:46.000Z</time></trkpt>
        <trkpt lat="29.556285" lon="103.386133"><ele>870.9282</ele><time>2026-05-09T07:37:55.000Z</time></trkpt>
        <trkpt lat="29.556232" lon="103.386153"><ele>871.5215</ele><time>2026-05-09T07:38:04.000Z</time></trkpt>
        <trkpt lat="29.556185" lon="103.386137"><ele>873.67737</ele><time>2026-05-09T07:38:14.000Z</time></trkpt>
        <trkpt lat="29.556145" lon="103.386113"><ele>874.2856</ele><time>2026-05-09T07:38:22.000Z</time></trkpt>
        <trkpt lat="29.556099" lon="103.386117"><ele>875.04236</ele><time>2026-05-09T07:38:29.000Z</time></trkpt>
        <trkpt lat="29.556049" lon="103.386123"><ele>875.11017</ele><time>2026-05-09T07:38:41.000Z</time></trkpt>
        <trkpt lat="29.555994" lon="103.386134"><ele>878.4315</ele><time>2026-05-09T07:38:50.000Z</time></trkpt>
        <trkpt lat="29.556003" lon="103.386079"><ele>882.3837</ele><time>2026-05-09T07:38:56.000Z</time></trkpt>
        <trkpt lat="29.555986" lon="103.386031"><ele>884.1918</ele><time>2026-05-09T07:39:06.000Z</time></trkpt>
        <trkpt lat="29.555938" lon="103.386009"><ele>883.8998</ele><time>2026-05-09T07:39:11.000Z</time></trkpt>
        <trkpt lat="29.555982" lon="103.385996"><ele>887.4063</ele><time>2026-05-09T07:39:25.000Z</time></trkpt>
        <trkpt lat="29.556023" lon="103.385971"><ele>886.5671</ele><time>2026-05-09T07:39:31.000Z</time></trkpt>
        <trkpt lat="29.556076" lon="103.38598"><ele>888.27484</ele><time>2026-05-09T07:39:37.000Z</time></trkpt>
        <trkpt lat="29.556097" lon="103.38593"><ele>888.54944</ele><time>2026-05-09T07:39:44.000Z</time></trkpt>
        <trkpt lat="29.55609" lon="103.385867"><ele>890.2068</ele><time>2026-05-09T07:39:48.000Z</time></trkpt>
        <trkpt lat="29.556053" lon="103.385907"><ele>891.61584</ele><time>2026-05-09T07:39:55.000Z</time></trkpt>
        <trkpt lat="29.555998" lon="103.385922"><ele>892.40106</ele><time>2026-05-09T07:40:00.000Z</time></trkpt>
        <trkpt lat="29.555963" lon="103.385886"><ele>892.4988</ele><time>2026-05-09T07:40:08.000Z</time></trkpt>
        <trkpt lat="29.555995" lon="103.385849"><ele>894.35236</ele><time>2026-05-09T07:40:12.000Z</time></trkpt>
        <trkpt lat="29.556037" lon="103.385821"><ele>895.999</ele><time>2026-05-09T07:40:17.000Z</time></trkpt>
        <trkpt lat="29.556071" lon="103.385781"><ele>897.4066</ele><time>2026-05-09T07:40:21.000Z</time></trkpt>
        <trkpt lat="29.556071" lon="103.38572"><ele>898.02747</ele><time>2026-05-09T07:40:24.000Z</time></trkpt>
        <trkpt lat="29.55606" lon="103.385669"><ele>896.69446</ele><time>2026-05-09T07:40:30.000Z</time></trkpt>
        <trkpt lat="29.556049" lon="103.385607"><ele>897.78613</ele><time>2026-05-09T07:40:37.000Z</time></trkpt>
        <trkpt lat="29.556056" lon="103.385548"><ele>896.99286</ele><time>2026-05-09T07:40:42.000Z</time></trkpt>
        <trkpt lat="29.556074" lon="103.385496"><ele>902.0243</ele><time>2026-05-09T07:40:46.000Z</time></trkpt>
        <trkpt lat="29.556091" lon="103.385427"><ele>903.8423</ele><time>2026-05-09T07:40:54.000Z</time></trkpt>
        <trkpt lat="29.556073" lon="103.385478"><ele>904.2665</ele><time>2026-05-09T07:41:03.000Z</time></trkpt>
        <trkpt lat="29.556043" lon="103.385526"><ele>905.3913</ele><time>2026-05-09T07:41:07.000Z</time></trkpt>
        <trkpt lat="29.556001" lon="103.385576"><ele>906.8532</ele><time>2026-05-09T07:41:12.000Z</time></trkpt>
        <trkpt lat="29.555953" lon="103.3856"><ele>902.8388</ele><time>2026-05-09T07:41:17.000Z</time></trkpt>
        <trkpt lat="29.55591" lon="103.385635"><ele>907.0237</ele><time>2026-05-09T07:41:22.000Z</time></trkpt>
        <trkpt lat="29.555906" lon="103.385567"><ele>906.56067</ele><time>2026-05-09T07:41:27.000Z</time></trkpt>
        <trkpt lat="29.555908" lon="103.385507"><ele>909.2831</ele><time>2026-05-09T07:41:31.000Z</time></trkpt>
        <trkpt lat="29.55588" lon="103.385552"><ele>916.1612</ele><time>2026-05-09T07:41:44.000Z</time></trkpt>
        <trkpt lat="29.555839" lon="103.385583"><ele>917.9088</ele><time>2026-05-09T07:41:57.000Z</time></trkpt>
        <trkpt lat="29.555786" lon="103.385589"><ele>920.9855</ele><time>2026-05-09T07:42:02.000Z</time></trkpt>
        <trkpt lat="29.555759" lon="103.385547"><ele>922.8132</ele><time>2026-05-09T07:42:11.000Z</time></trkpt>
        <trkpt lat="29.555794" lon="103.385503"><ele>926.48346</ele><time>2026-05-09T07:42:26.000Z</time></trkpt>
        <trkpt lat="29.555745" lon="103.385497"><ele>929.16187</ele><time>2026-05-09T07:42:31.000Z</time></trkpt>
        <trkpt lat="29.555717" lon="103.385455"><ele>928.09</ele><time>2026-05-09T07:42:40.000Z</time></trkpt>
        <trkpt lat="29.555731" lon="103.385405"><ele>928.33795</ele><time>2026-05-09T07:42:49.000Z</time></trkpt>
        <trkpt lat="29.555683" lon="103.385389"><ele>930.4437</ele><time>2026-05-09T07:42:58.000Z</time></trkpt>
        <trkpt lat="29.555651" lon="103.385352"><ele>930.1535</ele><time>2026-05-09T07:43:09.000Z</time></trkpt>
        <trkpt lat="29.555641" lon="103.3853"><ele>932.0401</ele><time>2026-05-09T07:43:22.000Z</time></trkpt>
        <trkpt lat="29.55567" lon="103.385247"><ele>934.3586</ele><time>2026-05-09T07:43:27.000Z</time></trkpt>
        <trkpt lat="29.555674" lon="103.385193"><ele>935.29565</ele><time>2026-05-09T07:43:34.000Z</time></trkpt>
        <trkpt lat="29.555646" lon="103.385145"><ele>937.90497</ele><time>2026-05-09T07:43:41.000Z</time></trkpt>
        <trkpt lat="29.555664" lon="103.385075"><ele>939.11096</ele><time>2026-05-09T07:43:46.000Z</time></trkpt>
        <trkpt lat="29.55562" lon="103.385098"><ele>944.65216</ele><time>2026-05-09T07:43:59.000Z</time></trkpt>
        <trkpt lat="29.555529" lon="103.385112"><ele>944.9024</ele><time>2026-05-09T07:44:04.000Z</time></trkpt>
        <trkpt lat="29.555514" lon="103.385059"><ele>948.5113</ele><time>2026-05-09T07:44:11.000Z</time></trkpt>
        <trkpt lat="29.555461" lon="103.385088"><ele>946.9086</ele><time>2026-05-09T07:44:15.000Z</time></trkpt>
        <trkpt lat="29.555404" lon="103.385079"><ele>948.90454</ele><time>2026-05-09T07:44:19.000Z</time></trkpt>
        <trkpt lat="29.55539" lon="103.38503"><ele>950.3032</ele><time>2026-05-09T07:44:23.000Z</time></trkpt>
        <trkpt lat="29.555343" lon="103.385008"><ele>953.9155</ele><time>2026-05-09T07:44:33.000Z</time></trkpt>
        <trkpt lat="29.5553" lon="103.384991"><ele>954.0072</ele><time>2026-05-09T07:44:41.000Z</time></trkpt>
        <trkpt lat="29.55525" lon="103.384997"><ele>954.9888</ele><time>2026-05-09T07:44:46.000Z</time></trkpt>
        <trkpt lat="29.555197" lon="103.384998"><ele>961.82916</ele><time>2026-05-09T07:44:54.000Z</time></trkpt>
        <trkpt lat="29.555143" lon="103.385002"><ele>963.75073</ele><time>2026-05-09T07:45:00.000Z</time></trkpt>
        <trkpt lat="29.555098" lon="103.384979"><ele>963.161</ele><time>2026-05-09T07:45:10.000Z</time></trkpt>
        <trkpt lat="29.555049" lon="103.384973"><ele>965.9152</ele><time>2026-05-09T07:45:15.000Z</time></trkpt>
        <trkpt lat="29.554996" lon="103.384933"><ele>967.38544</ele><time>2026-05-09T07:45:23.000Z</time></trkpt>
        <trkpt lat="29.554952" lon="103.384914"><ele>965.1758</ele><time>2026-05-09T07:45:29.000Z</time></trkpt>
        <trkpt lat="29.55491" lon="103.38488"><ele>966.174</ele><time>2026-05-09T07:45:36.000Z</time></trkpt>
        <trkpt lat="29.554864" lon="103.384853"><ele>971.3567</ele><time>2026-05-09T07:45:42.000Z</time></trkpt>
        <trkpt lat="29.554835" lon="103.384808"><ele>972.1595</ele><time>2026-05-09T07:45:50.000Z</time></trkpt>
        <trkpt lat="29.554797" lon="103.384779"><ele>972.89325</ele><time>2026-05-09T07:45:58.000Z</time></trkpt>
        <trkpt lat="29.554761" lon="103.384734"><ele>977.50037</ele><time>2026-05-09T07:46:04.000Z</time></trkpt>
        <trkpt lat="29.554717" lon="103.384709"><ele>975.72864</ele><time>2026-05-09T07:46:09.000Z</time></trkpt>
        <trkpt lat="29.554684" lon="103.384673"><ele>975.4099</ele><time>2026-05-09T07:46:15.000Z</time></trkpt>
        <trkpt lat="29.554648" lon="103.384627"><ele>979.5723</ele><time>2026-05-09T07:46:23.000Z</time></trkpt>
        <trkpt lat="29.554648" lon="103.384571"><ele>981.0748</ele><time>2026-05-09T07:46:39.000Z</time></trkpt>
        <trkpt lat="29.55461" lon="103.384541"><ele>982.9417</ele><time>2026-05-09T07:46:54.000Z</time></trkpt>
        <trkpt lat="29.554653" lon="103.384522"><ele>985.2816</ele><time>2026-05-09T07:47:08.000Z</time></trkpt>
        <trkpt lat="29.554698" lon="103.384515"><ele>988.25507</ele><time>2026-05-09T07:47:19.000Z</time></trkpt>
        <trkpt lat="29.554753" lon="103.384517"><ele>989.65356</ele><time>2026-05-09T07:47:28.000Z</time></trkpt>
        <trkpt lat="29.554782" lon="103.384454"><ele>992.4188</ele><time>2026-05-09T07:47:38.000Z</time></trkpt>
        <trkpt lat="29.55482" lon="103.38442"><ele>998.1645</ele><time>2026-05-09T07:47:52.000Z</time></trkpt>
        <trkpt lat="29.554848" lon="103.384376"><ele>999.323</ele><time>2026-05-09T07:48:03.000Z</time></trkpt>
        <trkpt lat="29.554892" lon="103.384362"><ele>1003.00964</ele><time>2026-05-09T07:48:09.000Z</time></trkpt>
        <trkpt lat="29.55494" lon="103.384374"><ele>1000.28925</ele><time>2026-05-09T07:48:15.000Z</time></trkpt>
        <trkpt lat="29.554963" lon="103.384323"><ele>999.569</ele><time>2026-05-09T07:48:20.000Z</time></trkpt>
        <trkpt lat="29.555007" lon="103.38431"><ele>1003.8586</ele><time>2026-05-09T07:48:23.000Z</time></trkpt>
        <trkpt lat="29.555036" lon="103.384264"><ele>1006.67725</ele><time>2026-05-09T07:48:33.000Z</time></trkpt>
        <trkpt lat="29.55506" lon="103.384215"><ele>1007.5425</ele><time>2026-05-09T07:48:54.000Z</time></trkpt>
        <trkpt lat="29.555064" lon="103.384157"><ele>1008.2775</ele><time>2026-05-09T07:48:59.000Z</time></trkpt>
        <trkpt lat="29.555025" lon="103.384122"><ele>1008.6262</ele><time>2026-05-09T07:49:08.000Z</time></trkpt>
        <trkpt lat="29.554989" lon="103.384079"><ele>1011.5466</ele><time>2026-05-09T07:49:15.000Z</time></trkpt>
        <trkpt lat="29.554961" lon="103.384038"><ele>1010.0685</ele><time>2026-05-09T07:49:21.000Z</time></trkpt>
        <trkpt lat="29.554982" lon="103.383985"><ele>1007.85034</ele><time>2026-05-09T07:49:26.000Z</time></trkpt>
        <trkpt lat="29.554966" lon="103.38393"><ele>1007.59155</ele><time>2026-05-09T07:49:31.000Z</time></trkpt>
        <trkpt lat="29.554955" lon="103.383875"><ele>1008.4772</ele><time>2026-05-09T07:49:35.000Z</time></trkpt>
        <trkpt lat="29.554952" lon="103.38382"><ele>1008.6974</ele><time>2026-05-09T07:49:38.000Z</time></trkpt>
        <trkpt lat="29.554982" lon="103.38378"><ele>1006.9485</ele><time>2026-05-09T07:49:44.000Z</time></trkpt>
        <trkpt lat="29.555005" lon="103.383729"><ele>1004.3157</ele><time>2026-05-09T07:49:49.000Z</time></trkpt>
        <trkpt lat="29.555029" lon="103.383682"><ele>1004.1511</ele><time>2026-05-09T07:49:53.000Z</time></trkpt>
        <trkpt lat="29.555051" lon="103.383629"><ele>1003.0471</ele><time>2026-05-09T07:49:57.000Z</time></trkpt>
        <trkpt lat="29.555038" lon="103.383575"><ele>1001.4316</ele><time>2026-05-09T07:50:02.000Z</time></trkpt>
        <trkpt lat="29.555018" lon="103.383517"><ele>1002.04956</ele><time>2026-05-09T07:50:08.000Z</time></trkpt>
        <trkpt lat="29.554998" lon="103.383467"><ele>1000.3378</ele><time>2026-05-09T07:50:12.000Z</time></trkpt>
        <trkpt lat="29.554948" lon="103.383441"><ele>999.40826</ele><time>2026-05-09T07:50:17.000Z</time></trkpt>
        <trkpt lat="29.554906" lon="103.383412"><ele>1000.9215</ele><time>2026-05-09T07:50:22.000Z</time></trkpt>
        <trkpt lat="29.554864" lon="103.383391"><ele>1000.62897</ele><time>2026-05-09T07:50:28.000Z</time></trkpt>
        <trkpt lat="29.554824" lon="103.383355"><ele>1000.5929</ele><time>2026-05-09T07:50:33.000Z</time></trkpt>
        <trkpt lat="29.554784" lon="103.383313"><ele>1000.5072</ele><time>2026-05-09T07:50:38.000Z</time></trkpt>
        <trkpt lat="29.55474" lon="103.383291"><ele>1001.7875</ele><time>2026-05-09T07:50:42.000Z</time></trkpt>
        <trkpt lat="29.554689" lon="103.383264"><ele>1001.7553</ele><time>2026-05-09T07:50:46.000Z</time></trkpt>
        <trkpt lat="29.554639" lon="103.383238"><ele>1004.20764</ele><time>2026-05-09T07:50:51.000Z</time></trkpt>
        <trkpt lat="29.554588" lon="103.383216"><ele>1005.53546</ele><time>2026-05-09T07:50:57.000Z</time></trkpt>
        <trkpt lat="29.554556" lon="103.383169"><ele>1003.1235</ele><time>2026-05-09T07:51:01.000Z</time></trkpt>
        <trkpt lat="29.554525" lon="103.383131"><ele>1008.43445</ele><time>2026-05-09T07:51:04.000Z</time></trkpt>
        <trkpt lat="29.554525" lon="103.383078"><ele>1010.934</ele><time>2026-05-09T07:51:07.000Z</time></trkpt>
        <trkpt lat="29.554519" lon="103.383013"><ele>1016.1392</ele><time>2026-05-09T07:51:13.000Z</time></trkpt>
        <trkpt lat="29.554504" lon="103.382958"><ele>1018.3975</ele><time>2026-05-09T07:51:19.000Z</time></trkpt>
        <trkpt lat="29.554456" lon="103.382985"><ele>1018.9076</ele><time>2026-05-09T07:51:23.000Z</time></trkpt>
        <trkpt lat="29.554436" lon="103.38293"><ele>1018.46936</ele><time>2026-05-09T07:51:26.000Z</time></trkpt>
        <trkpt lat="29.55439" lon="103.382951"><ele>1023.50024</ele><time>2026-05-09T07:51:30.000Z</time></trkpt>
        <trkpt lat="29.554401" lon="103.3829"><ele>1022.54565</ele><time>2026-05-09T07:51:38.000Z</time></trkpt>
        <trkpt lat="29.554423" lon="103.382848"><ele>1024.4194</ele><time>2026-05-09T07:51:47.000Z</time></trkpt>
        <trkpt lat="29.554432" lon="103.382792"><ele>1024.0692</ele><time>2026-05-09T07:51:56.000Z</time></trkpt>
        <trkpt lat="29.554393" lon="103.38276"><ele>1023.8508</ele><time>2026-05-09T07:52:03.000Z</time></trkpt>
        <trkpt lat="29.554424" lon="103.382705"><ele>1024.4227</ele><time>2026-05-09T07:52:12.000Z</time></trkpt>
        <trkpt lat="29.554433" lon="103.382655"><ele>1024.3673</ele><time>2026-05-09T07:52:28.000Z</time></trkpt>
        <trkpt lat="29.55439" lon="103.382628"><ele>1026.0123</ele><time>2026-05-09T07:52:35.000Z</time></trkpt>
        <trkpt lat="29.55436" lon="103.382574"><ele>1025.8792</ele><time>2026-05-09T07:52:43.000Z</time></trkpt>
        <trkpt lat="29.554334" lon="103.38253"><ele>1028.0233</ele><time>2026-05-09T07:52:52.000Z</time></trkpt>
        <trkpt lat="29.554315" lon="103.382478"><ele>1029.3394</ele><time>2026-05-09T07:52:56.000Z</time></trkpt>
        <trkpt lat="29.554279" lon="103.382436"><ele>1032.0192</ele><time>2026-05-09T07:53:08.000Z</time></trkpt>
        <trkpt lat="29.554262" lon="103.382375"><ele>1032.5497</ele><time>2026-05-09T07:53:15.000Z</time></trkpt>
        <trkpt lat="29.554257" lon="103.382314"><ele>1033.5392</ele><time>2026-05-09T07:53:19.000Z</time></trkpt>
        <trkpt lat="29.554243" lon="103.382265"><ele>1035.5338</ele><time>2026-05-09T07:53:22.000Z</time></trkpt>
        <trkpt lat="29.554235" lon="103.382204"><ele>1037.365</ele><time>2026-05-09T07:53:26.000Z</time></trkpt>
        <trkpt lat="29.55425" lon="103.382152"><ele>1038.7655</ele><time>2026-05-09T07:53:31.000Z</time></trkpt>
        <trkpt lat="29.554248" lon="103.382098"><ele>1036.8594</ele><time>2026-05-09T07:53:35.000Z</time></trkpt>
        <trkpt lat="29.554258" lon="103.382047"><ele>1039.2515</ele><time>2026-05-09T07:53:39.000Z</time></trkpt>
        <trkpt lat="29.55426" lon="103.381984"><ele>1039.6056</ele><time>2026-05-09T07:53:44.000Z</time></trkpt>
        <trkpt lat="29.554246" lon="103.38193"><ele>1039.501</ele><time>2026-05-09T07:53:49.000Z</time></trkpt>
        <trkpt lat="29.554229" lon="103.381879"><ele>1039.0853</ele><time>2026-05-09T07:53:53.000Z</time></trkpt>
        <trkpt lat="29.554196" lon="103.38182"><ele>1040.891</ele><time>2026-05-09T07:53:57.000Z</time></trkpt>
        <trkpt lat="29.554186" lon="103.381765"><ele>1042.7097</ele><time>2026-05-09T07:54:03.000Z</time></trkpt>
        <trkpt lat="29.55419" lon="103.381703"><ele>1046.5416</ele><time>2026-05-09T07:54:16.000Z</time></trkpt>
        <trkpt lat="29.554167" lon="103.381657"><ele>1043.8254</ele><time>2026-05-09T07:54:21.000Z</time></trkpt>
        <trkpt lat="29.554141" lon="103.381613"><ele>1041.8607</ele><time>2026-05-09T07:54:25.000Z</time></trkpt>
        <trkpt lat="29.554138" lon="103.381558"><ele>1043.0217</ele><time>2026-05-09T07:54:31.000Z</time></trkpt>
        <trkpt lat="29.554116" lon="103.381506"><ele>1048.0481</ele><time>2026-05-09T07:54:36.000Z</time></trkpt>
        <trkpt lat="29.554101" lon="103.381441"><ele>1048.2092</ele><time>2026-05-09T07:54:40.000Z</time></trkpt>
        <trkpt lat="29.554095" lon="103.381386"><ele>1048.33</ele><time>2026-05-09T07:54:45.000Z</time></trkpt>
        <trkpt lat="29.554081" lon="103.381329"><ele>1047.9875</ele><time>2026-05-09T07:54:50.000Z</time></trkpt>
        <trkpt lat="29.554095" lon="103.381271"><ele>1047.0588</ele><time>2026-05-09T07:54:53.000Z</time></trkpt>
        <trkpt lat="29.554092" lon="103.381217"><ele>1048.5876</ele><time>2026-05-09T07:54:58.000Z</time></trkpt>
        <trkpt lat="29.554074" lon="103.381162"><ele>1047.9558</ele><time>2026-05-09T07:55:02.000Z</time></trkpt>
        <trkpt lat="29.55403" lon="103.38112"><ele>1048.1627</ele><time>2026-05-09T07:55:06.000Z</time></trkpt>
        <trkpt lat="29.554" lon="103.381071"><ele>1044.4952</ele><time>2026-05-09T07:55:10.000Z</time></trkpt>
        <trkpt lat="29.553959" lon="103.381035"><ele>1047.5774</ele><time>2026-05-09T07:55:14.000Z</time></trkpt>
        <trkpt lat="29.554007" lon="103.380985"><ele>1049.5254</ele><time>2026-05-09T07:55:20.000Z</time></trkpt>
        <trkpt lat="29.553984" lon="103.380938"><ele>1050.6531</ele><time>2026-05-09T07:55:24.000Z</time></trkpt>
        <trkpt lat="29.553947" lon="103.380908"><ele>1051.4895</ele><time>2026-05-09T07:55:27.000Z</time></trkpt>
        <trkpt lat="29.553976" lon="103.380868"><ele>1052.9648</ele><time>2026-05-09T07:55:30.000Z</time></trkpt>
        <trkpt lat="29.553989" lon="103.380814"><ele>1054.1687</ele><time>2026-05-09T07:55:35.000Z</time></trkpt>
        <trkpt lat="29.553983" lon="103.380755"><ele>1056.2832</ele><time>2026-05-09T07:55:38.000Z</time></trkpt>
        <trkpt lat="29.554017" lon="103.380706"><ele>1056.1948</ele><time>2026-05-09T07:55:42.000Z</time></trkpt>
        <trkpt lat="29.554029" lon="103.380656"><ele>1054.2811</ele><time>2026-05-09T07:55:47.000Z</time></trkpt>
        <trkpt lat="29.554044" lon="103.380601"><ele>1060.0552</ele><time>2026-05-09T07:55:56.000Z</time></trkpt>
        <trkpt lat="29.554052" lon="103.38053"><ele>1056.2256</ele><time>2026-05-09T07:56:02.000Z</time></trkpt>
        <trkpt lat="29.554053" lon="103.380467"><ele>1054.8995</ele><time>2026-05-09T07:56:06.000Z</time></trkpt>
        <trkpt lat="29.554026" lon="103.380408"><ele>1053.1847</ele><time>2026-05-09T07:56:12.000Z</time></trkpt>
        <trkpt lat="29.554023" lon="103.380343"><ele>1056.0188</ele><time>2026-05-09T07:56:16.000Z</time></trkpt>
        <trkpt lat="29.554023" lon="103.38028"><ele>1055.1923</ele><time>2026-05-09T07:56:20.000Z</time></trkpt>
        <trkpt lat="29.554017" lon="103.380228"><ele>1052.3242</ele><time>2026-05-09T07:56:25.000Z</time></trkpt>
        <trkpt lat="29.554026" lon="103.380169"><ele>1055.6141</ele><time>2026-05-09T07:56:29.000Z</time></trkpt>
        <trkpt lat="29.554051" lon="103.380109"><ele>1053.6454</ele><time>2026-05-09T07:56:34.000Z</time></trkpt>
        <trkpt lat="29.554024" lon="103.380057"><ele>1060.71</ele><time>2026-05-09T07:56:43.000Z</time></trkpt>
        <trkpt lat="29.553997" lon="103.38001"><ele>1060.4224</ele><time>2026-05-09T07:56:47.000Z</time></trkpt>
        <trkpt lat="29.553987" lon="103.379958"><ele>1061.996</ele><time>2026-05-09T07:56:51.000Z</time></trkpt>
        <trkpt lat="29.553977" lon="103.379908"><ele>1065.2103</ele><time>2026-05-09T07:57:00.000Z</time></trkpt>
        <trkpt lat="29.553951" lon="103.379848"><ele>1066.6233</ele><time>2026-05-09T07:57:09.000Z</time></trkpt>
        <trkpt lat="29.553958" lon="103.379795"><ele>1069.9769</ele><time>2026-05-09T07:57:19.000Z</time></trkpt>
        <trkpt lat="29.553985" lon="103.37974"><ele>1071.1824</ele><time>2026-05-09T07:57:41.000Z</time></trkpt>
        <trkpt lat="29.553946" lon="103.379709"><ele>1071.5188</ele><time>2026-05-09T07:57:46.000Z</time></trkpt>
        <trkpt lat="29.553939" lon="103.379657"><ele>1070.3108</ele><time>2026-05-09T07:57:49.000Z</time></trkpt>
        <trkpt lat="29.553919" lon="103.379609"><ele>1072.9735</ele><time>2026-05-09T07:57:57.000Z</time></trkpt>
        <trkpt lat="29.553894" lon="103.379559"><ele>1074.3326</ele><time>2026-05-09T07:58:02.000Z</time></trkpt>
        <trkpt lat="29.553901" lon="103.379508"><ele>1077.8066</ele><time>2026-05-09T07:58:08.000Z</time></trkpt>
        <trkpt lat="29.553882" lon="103.379451"><ele>1080.3281</ele><time>2026-05-09T07:58:13.000Z</time></trkpt>
        <trkpt lat="29.553864" lon="103.379401"><ele>1080.0828</ele><time>2026-05-09T07:58:20.000Z</time></trkpt>
        <trkpt lat="29.553851" lon="103.379344"><ele>1081.5293</ele><time>2026-05-09T07:58:26.000Z</time></trkpt>
        <trkpt lat="29.553837" lon="103.379285"><ele>1082.6063</ele><time>2026-05-09T07:58:34.000Z</time></trkpt>
        <trkpt lat="29.55383" lon="103.379234"><ele>1081.7207</ele><time>2026-05-09T07:58:38.000Z</time></trkpt>
        <trkpt lat="29.553811" lon="103.379174"><ele>1084.1653</ele><time>2026-05-09T07:58:45.000Z</time></trkpt>
        <trkpt lat="29.553798" lon="103.379123"><ele>1084.081</ele><time>2026-05-09T07:58:51.000Z</time></trkpt>
        <trkpt lat="29.553782" lon="103.379065"><ele>1084.2273</ele><time>2026-05-09T07:58:57.000Z</time></trkpt>
        <trkpt lat="29.553773" lon="103.379014"><ele>1085.9946</ele><time>2026-05-09T07:59:02.000Z</time></trkpt>
        <trkpt lat="29.553787" lon="103.37896"><ele>1085.3999</ele><time>2026-05-09T07:59:07.000Z</time></trkpt>
        <trkpt lat="29.553792" lon="103.378903"><ele>1086.6716</ele><time>2026-05-09T07:59:14.000Z</time></trkpt>
        <trkpt lat="29.553815" lon="103.378857"><ele>1087.5775</ele><time>2026-05-09T07:59:19.000Z</time></trkpt>
        <trkpt lat="29.55382" lon="103.378803"><ele>1087.7295</ele><time>2026-05-09T07:59:26.000Z</time></trkpt>
        <trkpt lat="29.553845" lon="103.378746"><ele>1088.1184</ele><time>2026-05-09T07:59:30.000Z</time></trkpt>
        <trkpt lat="29.553852" lon="103.378695"><ele>1087.1483</ele><time>2026-05-09T07:59:35.000Z</time></trkpt>
        <trkpt lat="29.553854" lon="103.378639"><ele>1088.0153</ele><time>2026-05-09T07:59:40.000Z</time></trkpt>
        <trkpt lat="29.553835" lon="103.378593"><ele>1089.2676</ele><time>2026-05-09T07:59:45.000Z</time></trkpt>
        <trkpt lat="29.553817" lon="103.378543"><ele>1091.3755</ele><time>2026-05-09T07:59:53.000Z</time></trkpt>
        <trkpt lat="29.553795" lon="103.378493"><ele>1092.7036</ele><time>2026-05-09T08:00:00.000Z</time></trkpt>
        <trkpt lat="29.553796" lon="103.378435"><ele>1096.0074</ele><time>2026-05-09T08:00:07.000Z</time></trkpt>
        <trkpt lat="29.55377" lon="103.378392"><ele>1099.5369</ele><time>2026-05-09T08:00:13.000Z</time></trkpt>
        <trkpt lat="29.553739" lon="103.378351"><ele>1099.0531</ele><time>2026-05-09T08:00:20.000Z</time></trkpt>
        <trkpt lat="29.553692" lon="103.378317"><ele>1099.4535</ele><time>2026-05-09T08:00:30.000Z</time></trkpt>
        <trkpt lat="29.553678" lon="103.378257"><ele>1100.3411</ele><time>2026-05-09T08:00:35.000Z</time></trkpt>
        <trkpt lat="29.55367" lon="103.378195"><ele>1100.8693</ele><time>2026-05-09T08:00:40.000Z</time></trkpt>
        <trkpt lat="29.553656" lon="103.378144"><ele>1101.7546</ele><time>2026-05-09T08:00:46.000Z</time></trkpt>
        <trkpt lat="29.553617" lon="103.3781"><ele>1104.0371</ele><time>2026-05-09T08:00:54.000Z</time></trkpt>
        <trkpt lat="29.553575" lon="103.378048"><ele>1107.4878</ele><time>2026-05-09T08:00:59.000Z</time></trkpt>
        <trkpt lat="29.553525" lon="103.378028"><ele>1110.8712</ele><time>2026-05-09T08:01:09.000Z</time></trkpt>
        <trkpt lat="29.553511" lon="103.377975"><ele>1112.5234</ele><time>2026-05-09T08:01:24.000Z</time></trkpt>
        <trkpt lat="29.553486" lon="103.377924"><ele>1113.0673</ele><time>2026-05-09T08:01:30.000Z</time></trkpt>
        <trkpt lat="29.553447" lon="103.377881"><ele>1113.8927</ele><time>2026-05-09T08:01:36.000Z</time></trkpt>
        <trkpt lat="29.553432" lon="103.377832"><ele>1116.1814</ele><time>2026-05-09T08:01:49.000Z</time></trkpt>
        <trkpt lat="29.5534" lon="103.377794"><ele>1119.2142</ele><time>2026-05-09T08:02:00.000Z</time></trkpt>
        <trkpt lat="29.553364" lon="103.37776"><ele>1122.6265</ele><time>2026-05-09T08:02:18.000Z</time></trkpt>
        <trkpt lat="29.55332" lon="103.37774"><ele>1124.8851</ele><time>2026-05-09T08:02:29.000Z</time></trkpt>
        <trkpt lat="29.553291" lon="103.377684"><ele>1128.2119</ele><time>2026-05-09T08:02:48.000Z</time></trkpt>
        <trkpt lat="29.553258" lon="103.37772"><ele>1128.8895</ele><time>2026-05-09T08:02:51.000Z</time></trkpt>
        <trkpt lat="29.553229" lon="103.377668"><ele>1130.2344</ele><time>2026-05-09T08:03:02.000Z</time></trkpt>
        <trkpt lat="29.553214" lon="103.377608"><ele>1134.5055</ele><time>2026-05-09T08:03:08.000Z</time></trkpt>
        <trkpt lat="29.553189" lon="103.377564"><ele>1135.2662</ele><time>2026-05-09T08:03:14.000Z</time></trkpt>
        <trkpt lat="29.553154" lon="103.377532"><ele>1133.0897</ele><time>2026-05-09T08:03:24.000Z</time></trkpt>
        <trkpt lat="29.553108" lon="103.3775"><ele>1134.0741</ele><time>2026-05-09T08:03:36.000Z</time></trkpt>
        <trkpt lat="29.553078" lon="103.37746"><ele>1137.313</ele><time>2026-05-09T08:03:45.000Z</time></trkpt>
        <trkpt lat="29.553038" lon="103.377422"><ele>1138.2045</ele><time>2026-05-09T08:03:55.000Z</time></trkpt>
        <trkpt lat="29.553013" lon="103.377375"><ele>1139.4307</ele><time>2026-05-09T08:04:05.000Z</time></trkpt>
        <trkpt lat="29.552967" lon="103.377358"><ele>1142.2091</ele><time>2026-05-09T08:04:17.000Z</time></trkpt>
        <trkpt lat="29.552933" lon="103.377318"><ele>1144.015</ele><time>2026-05-09T08:04:27.000Z</time></trkpt>
        <trkpt lat="29.552887" lon="103.377292"><ele>1144.8945</ele><time>2026-05-09T08:04:35.000Z</time></trkpt>
        <trkpt lat="29.552866" lon="103.377245"><ele>1146.232</ele><time>2026-05-09T08:04:40.000Z</time></trkpt>
        <trkpt lat="29.552817" lon="103.377238"><ele>1148.2573</ele><time>2026-05-09T08:04:47.000Z</time></trkpt>
        <trkpt lat="29.552773" lon="103.377219"><ele>1153.085</ele><time>2026-05-09T08:05:03.000Z</time></trkpt>
        <trkpt lat="29.552746" lon="103.37717"><ele>1157.573</ele><time>2026-05-09T08:05:22.000Z</time></trkpt>
        <trkpt lat="29.552701" lon="103.377153"><ele>1158.2267</ele><time>2026-05-09T08:05:27.000Z</time></trkpt>
        <trkpt lat="29.552669" lon="103.377113"><ele>1158.5021</ele><time>2026-05-09T08:05:31.000Z</time></trkpt>
        <trkpt lat="29.552627" lon="103.377067"><ele>1159.3591</ele><time>2026-05-09T08:05:40.000Z</time></trkpt>
        <trkpt lat="29.552585" lon="103.377102"><ele>1161.1252</ele><time>2026-05-09T08:05:49.000Z</time></trkpt>
        <trkpt lat="29.552535" lon="103.377105"><ele>1166.3245</ele><time>2026-05-09T08:06:04.000Z</time></trkpt>
        <trkpt lat="29.552497" lon="103.377065"><ele>1167.9982</ele><time>2026-05-09T08:06:09.000Z</time></trkpt>
        <trkpt lat="29.552451" lon="103.377063"><ele>1170.5238</ele><time>2026-05-09T08:06:17.000Z</time></trkpt>
        <trkpt lat="29.5524" lon="103.377055"><ele>1173.1469</ele><time>2026-05-09T08:06:25.000Z</time></trkpt>
        <trkpt lat="29.552357" lon="103.377034"><ele>1172.9147</ele><time>2026-05-09T08:06:34.000Z</time></trkpt>
        <trkpt lat="29.552315" lon="103.37701"><ele>1172.531</ele><time>2026-05-09T08:06:40.000Z</time></trkpt>
        <trkpt lat="29.552268" lon="103.377009"><ele>1176.2009</ele><time>2026-05-09T08:06:48.000Z</time></trkpt>
        <trkpt lat="29.552234" lon="103.376965"><ele>1180.1857</ele><time>2026-05-09T08:07:00.000Z</time></trkpt>
        <trkpt lat="29.552197" lon="103.376928"><ele>1181.94</ele><time>2026-05-09T08:07:06.000Z</time></trkpt>
        <trkpt lat="29.552153" lon="103.376908"><ele>1183.4441</ele><time>2026-05-09T08:07:12.000Z</time></trkpt>
        <trkpt lat="29.55211" lon="103.376887"><ele>1187.4723</ele><time>2026-05-09T08:07:21.000Z</time></trkpt>
        <trkpt lat="29.552069" lon="103.376857"><ele>1189.2266</ele><time>2026-05-09T08:07:30.000Z</time></trkpt>
        <trkpt lat="29.552027" lon="103.376817"><ele>1190.1692</ele><time>2026-05-09T08:07:39.000Z</time></trkpt>
        <trkpt lat="29.551975" lon="103.376816"><ele>1194.6168</ele><time>2026-05-09T08:07:48.000Z</time></trkpt>
        <trkpt lat="29.551929" lon="103.376834"><ele>1193.8899</ele><time>2026-05-09T08:08:06.000Z</time></trkpt>
        <trkpt lat="29.551882" lon="103.376827"><ele>1195.557</ele><time>2026-05-09T08:08:12.000Z</time></trkpt>
        <trkpt lat="29.551852" lon="103.376805"><ele>1194.747</ele><time>2026-05-09T08:08:13.000Z</time></trkpt>
        <trkpt lat="29.5518" lon="103.376821"><ele>1194.4003</ele><time>2026-05-09T08:09:30.000Z</time></trkpt>
        <trkpt lat="29.551841" lon="103.376871"><ele>1193.2322</ele><time>2026-05-09T08:09:37.000Z</time></trkpt>
        <trkpt lat="29.551791" lon="103.376922"><ele>1191.1039</ele><time>2026-05-09T08:11:01.000Z</time></trkpt>
        <trkpt lat="29.551828" lon="103.376884"><ele>1192.8937</ele><time>2026-05-09T08:11:20.000Z</time></trkpt>
        <trkpt lat="29.551855" lon="103.376836"><ele>1196.7927</ele><time>2026-05-09T08:12:08.000Z</time></trkpt>
        <trkpt lat="29.551809" lon="103.376761"><ele>1184.7307</ele><time>2026-05-09T08:13:27.000Z</time></trkpt>
        <trkpt lat="29.551777" lon="103.37672"><ele>1185.8931</ele><time>2026-05-09T08:13:33.000Z</time></trkpt>
        <trkpt lat="29.55177" lon="103.376667"><ele>1190.4819</ele><time>2026-05-09T08:13:35.000Z</time></trkpt>
        <trkpt lat="29.55179" lon="103.376618"><ele>1198.2052</ele><time>2026-05-09T08:13:45.000Z</time></trkpt>
        <trkpt lat="29.551811" lon="103.376571"><ele>1205.8282</ele><time>2026-05-09T08:14:02.000Z</time></trkpt>
        <trkpt lat="29.551793" lon="103.376513"><ele>1208.2765</ele><time>2026-05-09T08:14:15.000Z</time></trkpt>
        <trkpt lat="29.551806" lon="103.376462"><ele>1211.4153</ele><time>2026-05-09T08:14:29.000Z</time></trkpt>
        <trkpt lat="29.551771" lon="103.376419"><ele>1210.6447</ele><time>2026-05-09T08:14:42.000Z</time></trkpt>
        <trkpt lat="29.551755" lon="103.376369"><ele>1211.973</ele><time>2026-05-09T08:14:51.000Z</time></trkpt>
        <trkpt lat="29.551718" lon="103.376422"><ele>1213.1233</ele><time>2026-05-09T08:15:04.000Z</time></trkpt>
        <trkpt lat="29.551721" lon="103.376365"><ele>1216.2891</ele><time>2026-05-09T08:15:12.000Z</time></trkpt>
        <trkpt lat="29.55169" lon="103.376408"><ele>1217.7125</ele><time>2026-05-09T08:15:22.000Z</time></trkpt>
        <trkpt lat="29.551677" lon="103.376352"><ele>1218.222</ele><time>2026-05-09T08:15:26.000Z</time></trkpt>
        <trkpt lat="29.551695" lon="103.3763"><ele>1221.7422</ele><time>2026-05-09T08:15:34.000Z</time></trkpt>
        <trkpt lat="29.551702" lon="103.376241"><ele>1223.8304</ele><time>2026-05-09T08:15:47.000Z</time></trkpt>
        <trkpt lat="29.551712" lon="103.376183"><ele>1224.4573</ele><time>2026-05-09T08:15:55.000Z</time></trkpt>
        <trkpt lat="29.551728" lon="103.376121"><ele>1226.7908</ele><time>2026-05-09T08:16:05.000Z</time></trkpt>
        <trkpt lat="29.551695" lon="103.376059"><ele>1228.8783</ele><time>2026-05-09T08:16:22.000Z</time></trkpt>
        <trkpt lat="29.551724" lon="103.376007"><ele>1231.9642</ele><time>2026-05-09T08:16:37.000Z</time></trkpt>
        <trkpt lat="29.55172" lon="103.375949"><ele>1231.3503</ele><time>2026-05-09T08:16:42.000Z</time></trkpt>
        <trkpt lat="29.551713" lon="103.375895"><ele>1229.2684</ele><time>2026-05-09T08:16:49.000Z</time></trkpt>
        <trkpt lat="29.551687" lon="103.37585"><ele>1230.8627</ele><time>2026-05-09T08:16:55.000Z</time></trkpt>
        <trkpt lat="29.551662" lon="103.375789"><ele>1230.1625</ele><time>2026-05-09T08:17:00.000Z</time></trkpt>
        <trkpt lat="29.55165" lon="103.375738"><ele>1232.3263</ele><time>2026-05-09T08:17:04.000Z</time></trkpt>
        <trkpt lat="29.551638" lon="103.375681"><ele>1231.5063</ele><time>2026-05-09T08:17:10.000Z</time></trkpt>
        <trkpt lat="29.551614" lon="103.375627"><ele>1232.1681</ele><time>2026-05-09T08:17:15.000Z</time></trkpt>
        <trkpt lat="29.551582" lon="103.375584"><ele>1233.1525</ele><time>2026-05-09T08:17:20.000Z</time></trkpt>
        <trkpt lat="29.55154" lon="103.375548"><ele>1234.0253</ele><time>2026-05-09T08:17:25.000Z</time></trkpt>
        <trkpt lat="29.55151" lon="103.375505"><ele>1234.7213</ele><time>2026-05-09T08:17:30.000Z</time></trkpt>
        <trkpt lat="29.55147" lon="103.375465"><ele>1232.6862</ele><time>2026-05-09T08:17:35.000Z</time></trkpt>
        <trkpt lat="29.551423" lon="103.375451"><ele>1231.989</ele><time>2026-05-09T08:17:39.000Z</time></trkpt>
        <trkpt lat="29.551384" lon="103.375414"><ele>1232.8436</ele><time>2026-05-09T08:17:43.000Z</time></trkpt>
        <trkpt lat="29.55136" lon="103.375366"><ele>1234.6697</ele><time>2026-05-09T08:17:47.000Z</time></trkpt>
        <trkpt lat="29.551332" lon="103.37532"><ele>1237.7506</ele><time>2026-05-09T08:17:51.000Z</time></trkpt>
        <trkpt lat="29.551277" lon="103.375347"><ele>1237.2123</ele><time>2026-05-09T08:17:58.000Z</time></trkpt>
        <trkpt lat="29.551232" lon="103.375328"><ele>1241.3282</ele><time>2026-05-09T08:18:04.000Z</time></trkpt>
        <trkpt lat="29.551186" lon="103.375306"><ele>1245.5403</ele><time>2026-05-09T08:18:15.000Z</time></trkpt>
        <trkpt lat="29.551131" lon="103.375275"><ele>1246.39</ele><time>2026-05-09T08:18:26.000Z</time></trkpt>
        <trkpt lat="29.551084" lon="103.37527"><ele>1247.8291</ele><time>2026-05-09T08:18:32.000Z</time></trkpt>
        <trkpt lat="29.551036" lon="103.37526"><ele>1250.989</ele><time>2026-05-09T08:18:36.000Z</time></trkpt>
        <trkpt lat="29.55099" lon="103.375277"><ele>1244.2615</ele><time>2026-05-09T08:18:44.000Z</time></trkpt>
        <trkpt lat="29.550938" lon="103.375277"><ele>1248.4254</ele><time>2026-05-09T08:18:51.000Z</time></trkpt>
        <trkpt lat="29.550893" lon="103.37526"><ele>1252.5308</ele><time>2026-05-09T08:18:56.000Z</time></trkpt>
        <trkpt lat="29.550846" lon="103.375235"><ele>1254.3776</ele><time>2026-05-09T08:19:01.000Z</time></trkpt>
        <trkpt lat="29.550811" lon="103.3752"><ele>1258.9276</ele><time>2026-05-09T08:19:06.000Z</time></trkpt>
        <trkpt lat="29.550757" lon="103.375182"><ele>1258.1984</ele><time>2026-05-09T08:19:10.000Z</time></trkpt>
        <trkpt lat="29.550719" lon="103.375146"><ele>1259.9021</ele><time>2026-05-09T08:19:14.000Z</time></trkpt>
        <trkpt lat="29.550672" lon="103.375149"><ele>1259.9285</ele><time>2026-05-09T08:19:18.000Z</time></trkpt>
        <trkpt lat="29.550624" lon="103.375125"><ele>1256.729</ele><time>2026-05-09T08:19:23.000Z</time></trkpt>
        <trkpt lat="29.550577" lon="103.375086"><ele>1258.3942</ele><time>2026-05-09T08:19:28.000Z</time></trkpt>
        <trkpt lat="29.550526" lon="103.375046"><ele>1257.7048</ele><time>2026-05-09T08:19:33.000Z</time></trkpt>
        <trkpt lat="29.550474" lon="103.375033"><ele>1259.2296</ele><time>2026-05-09T08:19:37.000Z</time></trkpt>
        <trkpt lat="29.550422" lon="103.375032"><ele>1257.1351</ele><time>2026-05-09T08:19:42.000Z</time></trkpt>
        <trkpt lat="29.550386" lon="103.374993"><ele>1256.8425</ele><time>2026-05-09T08:19:46.000Z</time></trkpt>
        <trkpt lat="29.55033" lon="103.374939"><ele>1260.1382</ele><time>2026-05-09T08:19:50.000Z</time></trkpt>
        <trkpt lat="29.550284" lon="103.374941"><ele>1258.8499</ele><time>2026-05-09T08:19:53.000Z</time></trkpt>
        <trkpt lat="29.55024" lon="103.374922"><ele>1258.231</ele><time>2026-05-09T08:19:56.000Z</time></trkpt>
        <trkpt lat="29.550194" lon="103.374923"><ele>1258.9733</ele><time>2026-05-09T08:20:01.000Z</time></trkpt>
        <trkpt lat="29.550147" lon="103.374914"><ele>1260.3508</ele><time>2026-05-09T08:20:10.000Z</time></trkpt>
        <trkpt lat="29.550108" lon="103.374876"><ele>1263.7372</ele><time>2026-05-09T08:20:14.000Z</time></trkpt>
        <trkpt lat="29.550072" lon="103.374844"><ele>1263.0559</ele><time>2026-05-09T08:20:19.000Z</time></trkpt>
        <trkpt lat="29.550065" lon="103.374776"><ele>1268.2242</ele><time>2026-05-09T08:20:22.000Z</time></trkpt>
        <trkpt lat="29.550027" lon="103.374739"><ele>1269.8289</ele><time>2026-05-09T08:20:26.000Z</time></trkpt>
        <trkpt lat="29.549982" lon="103.37475"><ele>1269.5813</ele><time>2026-05-09T08:20:31.000Z</time></trkpt>
        <trkpt lat="29.549946" lon="103.374699"><ele>1272.9901</ele><time>2026-05-09T08:20:38.000Z</time></trkpt>
        <trkpt lat="29.549947" lon="103.374636"><ele>1275.7179</ele><time>2026-05-09T08:20:41.000Z</time></trkpt>
        <trkpt lat="29.54999" lon="103.374619"><ele>1275.8771</ele><time>2026-05-09T08:20:46.000Z</time></trkpt>
        <trkpt lat="29.550029" lon="103.374588"><ele>1272.2155</ele><time>2026-05-09T08:20:52.000Z</time></trkpt>
        <trkpt lat="29.550026" lon="103.374532"><ele>1274.4484</ele><time>2026-05-09T08:20:58.000Z</time></trkpt>
        <trkpt lat="29.550069" lon="103.374513"><ele>1273.9995</ele><time>2026-05-09T08:21:10.000Z</time></trkpt>
        <trkpt lat="29.550024" lon="103.374504"><ele>1272.2074</ele><time>2026-05-09T08:21:23.000Z</time></trkpt>
        <trkpt lat="29.550039" lon="103.374437"><ele>1273.9341</ele><time>2026-05-09T08:21:31.000Z</time></trkpt>
        <trkpt lat="29.550084" lon="103.374438"><ele>1275.4785</ele><time>2026-05-09T08:21:35.000Z</time></trkpt>
        <trkpt lat="29.550128" lon="103.374424"><ele>1275.2703</ele><time>2026-05-09T08:21:40.000Z</time></trkpt>
        <trkpt lat="29.550167" lon="103.374383"><ele>1274.6737</ele><time>2026-05-09T08:21:44.000Z</time></trkpt>
        <trkpt lat="29.550198" lon="103.374332"><ele>1274.7163</ele><time>2026-05-09T08:21:49.000Z</time></trkpt>
        <trkpt lat="29.550254" lon="103.374324"><ele>1274.2521</ele><time>2026-05-09T08:21:53.000Z</time></trkpt>
        <trkpt lat="29.550276" lon="103.374274"><ele>1272.1311</ele><time>2026-05-09T08:21:58.000Z</time></trkpt>
        <trkpt lat="29.550308" lon="103.374238"><ele>1276.253</ele><time>2026-05-09T08:22:02.000Z</time></trkpt>
        <trkpt lat="29.550347" lon="103.374211"><ele>1276.036</ele><time>2026-05-09T08:22:07.000Z</time></trkpt>
        <trkpt lat="29.550379" lon="103.374163"><ele>1276.8055</ele><time>2026-05-09T08:22:12.000Z</time></trkpt>
        <trkpt lat="29.550427" lon="103.374135"><ele>1276.9023</ele><time>2026-05-09T08:22:16.000Z</time></trkpt>
        <trkpt lat="29.550469" lon="103.374109"><ele>1277.0931</ele><time>2026-05-09T08:22:21.000Z</time></trkpt>
        <trkpt lat="29.55051" lon="103.374078"><ele>1278.2286</ele><time>2026-05-09T08:22:25.000Z</time></trkpt>
        <trkpt lat="29.55056" lon="103.374087"><ele>1280.9923</ele><time>2026-05-09T08:22:30.000Z</time></trkpt>
        <trkpt lat="29.550612" lon="103.37411"><ele>1282.414</ele><time>2026-05-09T08:22:34.000Z</time></trkpt>
        <trkpt lat="29.550659" lon="103.374139"><ele>1282.9441</ele><time>2026-05-09T08:22:37.000Z</time></trkpt>
        <trkpt lat="29.550711" lon="103.374154"><ele>1283.5908</ele><time>2026-05-09T08:22:41.000Z</time></trkpt>
        <trkpt lat="29.550757" lon="103.374144"><ele>1282.8435</ele><time>2026-05-09T08:22:44.000Z</time></trkpt>
        <trkpt lat="29.550791" lon="103.374043"><ele>1282.0403</ele><time>2026-05-09T08:22:47.000Z</time></trkpt>
        <trkpt lat="29.5508" lon="103.373981"><ele>1281.5233</ele><time>2026-05-09T08:22:48.000Z</time></trkpt>
        <trkpt lat="29.550848" lon="103.373953"><ele>1282.0057</ele><time>2026-05-09T08:22:51.000Z</time></trkpt>
        <trkpt lat="29.5509" lon="103.373958"><ele>1281.8523</ele><time>2026-05-09T08:22:54.000Z</time></trkpt>
        <trkpt lat="29.55094" lon="103.373897"><ele>1281.3219</ele><time>2026-05-09T08:23:04.000Z</time></trkpt>
        <trkpt lat="29.550976" lon="103.373859"><ele>1279.88</ele><time>2026-05-09T08:23:08.000Z</time></trkpt>
        <trkpt lat="29.551024" lon="103.373855"><ele>1277.16</ele><time>2026-05-09T08:23:13.000Z</time></trkpt>
        <trkpt lat="29.551071" lon="103.373839"><ele>1276.0238</ele><time>2026-05-09T08:23:20.000Z</time></trkpt>
        <trkpt lat="29.55112" lon="103.373859"><ele>1275.1952</ele><time>2026-05-09T08:23:25.000Z</time></trkpt>
        <trkpt lat="29.551172" lon="103.373806"><ele>1273.4019</ele><time>2026-05-09T08:23:30.000Z</time></trkpt>
        <trkpt lat="29.551209" lon="103.373757"><ele>1271.9696</ele><time>2026-05-09T08:23:34.000Z</time></trkpt>
        <trkpt lat="29.551242" lon="103.373719"><ele>1270.8936</ele><time>2026-05-09T08:23:36.000Z</time></trkpt>
        <trkpt lat="29.551286" lon="103.373686"><ele>1269.1102</ele><time>2026-05-09T08:23:39.000Z</time></trkpt>
        <trkpt lat="29.551253" lon="103.373613"><ele>1264.4364</ele><time>2026-05-09T08:23:42.000Z</time></trkpt>
        <trkpt lat="29.551261" lon="103.373547"><ele>1262.3896</ele><time>2026-05-09T08:23:46.000Z</time></trkpt>
        <trkpt lat="29.551215" lon="103.373525"><ele>1260.3889</ele><time>2026-05-09T08:23:48.000Z</time></trkpt>
        <trkpt lat="29.551249" lon="103.373457"><ele>1259.445</ele><time>2026-05-09T08:23:52.000Z</time></trkpt>
        <trkpt lat="29.55129" lon="103.373423"><ele>1260.5273</ele><time>2026-05-09T08:23:54.000Z</time></trkpt>
        <trkpt lat="29.551328" lon="103.373384"><ele>1263.031</ele><time>2026-05-09T08:23:57.000Z</time></trkpt>
        <trkpt lat="29.551331" lon="103.373331"><ele>1261.888</ele><time>2026-05-09T08:24:00.000Z</time></trkpt>
        <trkpt lat="29.551321" lon="103.37326"><ele>1258.2415</ele><time>2026-05-09T08:24:04.000Z</time></trkpt>
        <trkpt lat="29.551288" lon="103.373206"><ele>1256.0974</ele><time>2026-05-09T08:24:12.000Z</time></trkpt>
        <trkpt lat="29.551247" lon="103.373169"><ele>1255.9849</ele><time>2026-05-09T08:24:16.000Z</time></trkpt>
        <trkpt lat="29.551219" lon="103.373129"><ele>1255.8916</ele><time>2026-05-09T08:24:19.000Z</time></trkpt>
        <trkpt lat="29.551186" lon="103.373079"><ele>1254.9088</ele><time>2026-05-09T08:24:22.000Z</time></trkpt>
        <trkpt lat="29.551161" lon="103.373029"><ele>1255.7708</ele><time>2026-05-09T08:24:25.000Z</time></trkpt>
        <trkpt lat="29.55117" lon="103.372974"><ele>1258.5493</ele><time>2026-05-09T08:24:38.000Z</time></trkpt>
        <trkpt lat="29.551158" lon="103.373036"><ele>1261.0375</ele><time>2026-05-09T08:24:48.000Z</time></trkpt>
        <trkpt lat="29.55117" lon="103.372985"><ele>1260.9747</ele><time>2026-05-09T08:24:53.000Z</time></trkpt>
        <trkpt lat="29.55113" lon="103.372959"><ele>1261.0135</ele><time>2026-05-09T08:24:55.000Z</time></trkpt>
        <trkpt lat="29.551111" lon="103.372902"><ele>1260.3547</ele><time>2026-05-09T08:25:00.000Z</time></trkpt>
        <trkpt lat="29.551065" lon="103.37291"><ele>1259.9873</ele><time>2026-05-09T08:25:05.000Z</time></trkpt>
        <trkpt lat="29.551026" lon="103.372943"><ele>1259.6443</ele><time>2026-05-09T08:25:08.000Z</time></trkpt>
        <trkpt lat="29.550982" lon="103.37296"><ele>1261.1663</ele><time>2026-05-09T08:25:12.000Z</time></trkpt>
        <trkpt lat="29.550935" lon="103.37295"><ele>1261.7006</ele><time>2026-05-09T08:25:16.000Z</time></trkpt>
        <trkpt lat="29.550885" lon="103.372927"><ele>1262.0497</ele><time>2026-05-09T08:25:20.000Z</time></trkpt>
        <trkpt lat="29.550835" lon="103.372936"><ele>1262.9742</ele><time>2026-05-09T08:25:24.000Z</time></trkpt>
        <trkpt lat="29.550788" lon="103.372947"><ele>1262.2256</ele><time>2026-05-09T08:25:29.000Z</time></trkpt>
        <trkpt lat="29.550734" lon="103.372958"><ele>1262.9014</ele><time>2026-05-09T08:25:33.000Z</time></trkpt>
        <trkpt lat="29.550673" lon="103.372957"><ele>1263.0757</ele><time>2026-05-09T08:25:37.000Z</time></trkpt>
        <trkpt lat="29.550614" lon="103.372959"><ele>1261.7181</ele><time>2026-05-09T08:25:42.000Z</time></trkpt>
        <trkpt lat="29.550572" lon="103.372985"><ele>1261.963</ele><time>2026-05-09T08:25:45.000Z</time></trkpt>
        <trkpt lat="29.550522" lon="103.372972"><ele>1260.9183</ele><time>2026-05-09T08:25:49.000Z</time></trkpt>
        <trkpt lat="29.550467" lon="103.372979"><ele>1261.5182</ele><time>2026-05-09T08:25:53.000Z</time></trkpt>
        <trkpt lat="29.550428" lon="103.373014"><ele>1261.2461</ele><time>2026-05-09T08:25:57.000Z</time></trkpt>
        <trkpt lat="29.550384" lon="103.373039"><ele>1263.2697</ele><time>2026-05-09T08:26:02.000Z</time></trkpt>
        <trkpt lat="29.550325" lon="103.373031"><ele>1262.456</ele><time>2026-05-09T08:26:08.000Z</time></trkpt>
        <trkpt lat="29.55028" lon="103.373016"><ele>1262.5581</ele><time>2026-05-09T08:26:13.000Z</time></trkpt>
        <trkpt lat="29.550295" lon="103.372902"><ele>1265.279</ele><time>2026-05-09T08:26:19.000Z</time></trkpt>
        <trkpt lat="29.550249" lon="103.372917"><ele>1265.3682</ele><time>2026-05-09T08:26:21.000Z</time></trkpt>
        <trkpt lat="29.550194" lon="103.37289"><ele>1267.1284</ele><time>2026-05-09T08:26:25.000Z</time></trkpt>
        <trkpt lat="29.550196" lon="103.372836"><ele>1264.8037</ele><time>2026-05-09T08:26:29.000Z</time></trkpt>
        <trkpt lat="29.550239" lon="103.372794"><ele>1265.3973</ele><time>2026-05-09T08:26:33.000Z</time></trkpt>
        <trkpt lat="29.550293" lon="103.372779"><ele>1267.3005</ele><time>2026-05-09T08:26:37.000Z</time></trkpt>
        <trkpt lat="29.550341" lon="103.372742"><ele>1267.9678</ele><time>2026-05-09T08:26:41.000Z</time></trkpt>
        <trkpt lat="29.550372" lon="103.372702"><ele>1269.4133</ele><time>2026-05-09T08:26:44.000Z</time></trkpt>
        <trkpt lat="29.550416" lon="103.372672"><ele>1268.013</ele><time>2026-05-09T08:26:48.000Z</time></trkpt>
        <trkpt lat="29.550454" lon="103.372629"><ele>1268.2578</ele><time>2026-05-09T08:26:53.000Z</time></trkpt>
        <trkpt lat="29.550477" lon="103.372578"><ele>1267.2451</ele><time>2026-05-09T08:26:59.000Z</time></trkpt>
        <trkpt lat="29.550511" lon="103.37253"><ele>1268.4287</ele><time>2026-05-09T08:27:06.000Z</time></trkpt>
        <trkpt lat="29.550559" lon="103.372506"><ele>1267.3755</ele><time>2026-05-09T08:27:14.000Z</time></trkpt>
        <trkpt lat="29.550603" lon="103.372487"><ele>1265.3365</ele><time>2026-05-09T08:27:20.000Z</time></trkpt>
        <trkpt lat="29.550592" lon="103.372436"><ele>1263.1211</ele><time>2026-05-09T08:27:28.000Z</time></trkpt>
        <trkpt lat="29.550616" lon="103.372379"><ele>1261.5328</ele><time>2026-05-09T08:27:35.000Z</time></trkpt>
        <trkpt lat="29.550636" lon="103.372329"><ele>1260.9664</ele><time>2026-05-09T08:27:41.000Z</time></trkpt>
        <trkpt lat="29.550665" lon="103.372276"><ele>1261.384</ele><time>2026-05-09T08:27:47.000Z</time></trkpt>
        <trkpt lat="29.550685" lon="103.372224"><ele>1262.4254</ele><time>2026-05-09T08:27:53.000Z</time></trkpt>
        <trkpt lat="29.550679" lon="103.372172"><ele>1260.9062</ele><time>2026-05-09T08:27:57.000Z</time></trkpt>
        <trkpt lat="29.550689" lon="103.37212"><ele>1260.2734</ele><time>2026-05-09T08:28:01.000Z</time></trkpt>
        <trkpt lat="29.55066" lon="103.37206"><ele>1258.0664</ele><time>2026-05-09T08:28:08.000Z</time></trkpt>
        <trkpt lat="29.550623" lon="103.372013"><ele>1256.3549</ele><time>2026-05-09T08:28:17.000Z</time></trkpt>
        <trkpt lat="29.550591" lon="103.371966"><ele>1254.4767</ele><time>2026-05-09T08:28:21.000Z</time></trkpt>
        <trkpt lat="29.550558" lon="103.371926"><ele>1252.5062</ele><time>2026-05-09T08:28:25.000Z</time></trkpt>
        <trkpt lat="29.550524" lon="103.371865"><ele>1252.4625</ele><time>2026-05-09T08:28:29.000Z</time></trkpt>
        <trkpt lat="29.550483" lon="103.371811"><ele>1252.65</ele><time>2026-05-09T08:28:33.000Z</time></trkpt>
        <trkpt lat="29.550479" lon="103.371751"><ele>1254.1191</ele><time>2026-05-09T08:28:36.000Z</time></trkpt>
        <trkpt lat="29.550457" lon="103.371685"><ele>1255.5667</ele><time>2026-05-09T08:28:41.000Z</time></trkpt>
        <trkpt lat="29.55042" lon="103.371646"><ele>1257.887</ele><time>2026-05-09T08:28:44.000Z</time></trkpt>
        <trkpt lat="29.550404" lon="103.371585"><ele>1255.556</ele><time>2026-05-09T08:28:50.000Z</time></trkpt>
        <trkpt lat="29.550369" lon="103.371545"><ele>1253.6771</ele><time>2026-05-09T08:28:55.000Z</time></trkpt>
        <trkpt lat="29.550313" lon="103.371544"><ele>1253.9062</ele><time>2026-05-09T08:29:01.000Z</time></trkpt>
        <trkpt lat="29.550266" lon="103.371523"><ele>1254.0385</ele><time>2026-05-09T08:29:05.000Z</time></trkpt>
        <trkpt lat="29.550244" lon="103.371477"><ele>1254.2198</ele><time>2026-05-09T08:29:09.000Z</time></trkpt>
        <trkpt lat="29.550267" lon="103.371432"><ele>1259.121</ele><time>2026-05-09T08:29:11.000Z</time></trkpt>
        <trkpt lat="29.550305" lon="103.371392"><ele>1266.1088</ele><time>2026-05-09T08:29:14.000Z</time></trkpt>
        <trkpt lat="29.550352" lon="103.371372"><ele>1264.3973</ele><time>2026-05-09T08:29:18.000Z</time></trkpt>
        <trkpt lat="29.550396" lon="103.371333"><ele>1262.6866</ele><time>2026-05-09T08:29:22.000Z</time></trkpt>
        <trkpt lat="29.550423" lon="103.37128"><ele>1264.4884</ele><time>2026-05-09T08:29:26.000Z</time></trkpt>
        <trkpt lat="29.550435" lon="103.371215"><ele>1262.6445</ele><time>2026-05-09T08:29:30.000Z</time></trkpt>
        <trkpt lat="29.550454" lon="103.371162"><ele>1261.8494</ele><time>2026-05-09T08:29:34.000Z</time></trkpt>
        <trkpt lat="29.550464" lon="103.371102"><ele>1261.4924</ele><time>2026-05-09T08:29:38.000Z</time></trkpt>
        <trkpt lat="29.55048" lon="103.371035"><ele>1261.5457</ele><time>2026-05-09T08:29:42.000Z</time></trkpt>
        <trkpt lat="29.550481" lon="103.370969"><ele>1260.0146</ele><time>2026-05-09T08:29:46.000Z</time></trkpt>
        <trkpt lat="29.550458" lon="103.370916"><ele>1260.1649</ele><time>2026-05-09T08:29:49.000Z</time></trkpt>
        <trkpt lat="29.550451" lon="103.370852"><ele>1258.7083</ele><time>2026-05-09T08:29:53.000Z</time></trkpt>
        <trkpt lat="29.55041" lon="103.370809"><ele>1255.8159</ele><time>2026-05-09T08:29:57.000Z</time></trkpt>
        <trkpt lat="29.550382" lon="103.370759"><ele>1256.3545</ele><time>2026-05-09T08:30:01.000Z</time></trkpt>
        <trkpt lat="29.550355" lon="103.370715"><ele>1255.5312</ele><time>2026-05-09T08:30:05.000Z</time></trkpt>
        <trkpt lat="29.550317" lon="103.370674"><ele>1254.9772</ele><time>2026-05-09T08:30:09.000Z</time></trkpt>
        <trkpt lat="29.550357" lon="103.37065"><ele>1254.6655</ele><time>2026-05-09T08:30:14.000Z</time></trkpt>
        <trkpt lat="29.550329" lon="103.370609"><ele>1253.5345</ele><time>2026-05-09T08:30:22.000Z</time></trkpt>
        <trkpt lat="29.550374" lon="103.370565"><ele>1253.2479</ele><time>2026-05-09T08:30:26.000Z</time></trkpt>
        <trkpt lat="29.550411" lon="103.37052"><ele>1251.5646</ele><time>2026-05-09T08:30:33.000Z</time></trkpt>
        <trkpt lat="29.550428" lon="103.370471"><ele>1250.5725</ele><time>2026-05-09T08:30:39.000Z</time></trkpt>
        <trkpt lat="29.550455" lon="103.370429"><ele>1251.6503</ele><time>2026-05-09T08:30:45.000Z</time></trkpt>
        <trkpt lat="29.550374" lon="103.370441"><ele>1252.4675</ele><time>2026-05-09T08:30:58.000Z</time></trkpt>
        <trkpt lat="29.550347" lon="103.370393"><ele>1255.5565</ele><time>2026-05-09T08:31:10.000Z</time></trkpt>
        <trkpt lat="29.550297" lon="103.370387"><ele>1258.774</ele><time>2026-05-09T08:31:14.000Z</time></trkpt>
        <trkpt lat="29.550322" lon="103.37032"><ele>1261.2858</ele><time>2026-05-09T08:31:23.000Z</time></trkpt>
        <trkpt lat="29.550296" lon="103.370274"><ele>1262.1616</ele><time>2026-05-09T08:31:29.000Z</time></trkpt>
        <trkpt lat="29.550281" lon="103.370223"><ele>1262.5966</ele><time>2026-05-09T08:31:33.000Z</time></trkpt>
        <trkpt lat="29.550275" lon="103.37017"><ele>1261.0846</ele><time>2026-05-09T08:31:37.000Z</time></trkpt>
        <trkpt lat="29.550269" lon="103.370114"><ele>1261.0673</ele><time>2026-05-09T08:31:40.000Z</time></trkpt>
        <trkpt lat="29.550283" lon="103.370041"><ele>1260.2762</ele><time>2026-05-09T08:31:44.000Z</time></trkpt>
        <trkpt lat="29.550262" lon="103.369986"><ele>1260.8623</ele><time>2026-05-09T08:31:50.000Z</time></trkpt>
        <trkpt lat="29.550227" lon="103.369945"><ele>1262.657</ele><time>2026-05-09T08:31:57.000Z</time></trkpt>
        <trkpt lat="29.550263" lon="103.369914"><ele>1250.1631</ele><time>2026-05-09T08:33:26.000Z</time></trkpt>
        <trkpt lat="29.550232" lon="103.369955"><ele>1257.5825</ele><time>2026-05-09T08:34:10.000Z</time></trkpt>
        <trkpt lat="29.550243" lon="103.369905"><ele>1249.5482</ele><time>2026-05-09T08:35:24.000Z</time></trkpt>
        <trkpt lat="29.550289" lon="103.369888"><ele>1243.8749</ele><time>2026-05-09T08:38:16.000Z</time></trkpt>
        <trkpt lat="29.550236" lon="103.369916"><ele>1245.7919</ele><time>2026-05-09T08:38:28.000Z</time></trkpt>
        <trkpt lat="29.550195" lon="103.369942"><ele>1253.8352</ele><time>2026-05-09T08:38:32.000Z</time></trkpt>
        <trkpt lat="29.550154" lon="103.369979"><ele>1267.545</ele><time>2026-05-09T08:39:14.000Z</time></trkpt>
        <trkpt lat="29.550112" lon="103.370006"><ele>1268.2125</ele><time>2026-05-09T08:39:17.000Z</time></trkpt>
        <trkpt lat="29.550168" lon="103.369996"><ele>1265.628</ele><time>2026-05-09T08:39:33.000Z</time></trkpt>
        <trkpt lat="29.550208" lon="103.36997"><ele>1263.7479</ele><time>2026-05-09T08:39:40.000Z</time></trkpt>
        <trkpt lat="29.550257" lon="103.369958"><ele>1262.2029</ele><time>2026-05-09T08:40:06.000Z</time></trkpt>
        <trkpt lat="29.550326" lon="103.370028"><ele>1270.1704</ele><time>2026-05-09T08:41:03.000Z</time></trkpt>
        <trkpt lat="29.550292" lon="103.369971"><ele>1268.4674</ele><time>2026-05-09T08:43:34.000Z</time></trkpt>
        <trkpt lat="29.550236" lon="103.369971"><ele>1259.7471</ele><time>2026-05-09T08:44:26.000Z</time></trkpt>
        <trkpt lat="29.550188" lon="103.369983"><ele>1258.2827</ele><time>2026-05-09T08:46:04.000Z</time></trkpt>
        <trkpt lat="29.55023" lon="103.369961"><ele>1260.6309</ele><time>2026-05-09T08:46:58.000Z</time></trkpt>
        <trkpt lat="29.550271" lon="103.369938"><ele>1261.1597</ele><time>2026-05-09T08:47:05.000Z</time></trkpt>
        <trkpt lat="29.550295" lon="103.369993"><ele>1267.564</ele><time>2026-05-09T08:47:28.000Z</time></trkpt>
        <trkpt lat="29.550239" lon="103.370008"><ele>1266.4845</ele><time>2026-05-09T08:47:37.000Z</time></trkpt>
        <trkpt lat="29.550205" lon="103.369971"><ele>1265.7622</ele><time>2026-05-09T08:48:18.000Z</time></trkpt>
        <trkpt lat="29.550232" lon="103.369912"><ele>1248.12</ele><time>2026-05-09T08:49:09.000Z</time></trkpt>
        <trkpt lat="29.55019" lon="103.369936"><ele>1253.1359</ele><time>2026-05-09T08:50:02.000Z</time></trkpt>
        <trkpt lat="29.550238" lon="103.369911"><ele>1242.4231</ele><time>2026-05-09T08:52:26.000Z</time></trkpt>
        <trkpt lat="29.550194" lon="103.369942"><ele>1244.015</ele><time>2026-05-09T08:52:46.000Z</time></trkpt>
        <trkpt lat="29.550259" lon="103.369905"><ele>1243.5925</ele><time>2026-05-09T08:53:15.000Z</time></trkpt>
        <trkpt lat="29.55023" lon="103.369959"><ele>1263.0536</ele><time>2026-05-09T08:55:38.000Z</time></trkpt>
        <trkpt lat="29.550263" lon="103.369922"><ele>1262.0779</ele><time>2026-05-09T08:56:10.000Z</time></trkpt>
        <trkpt lat="29.550234" lon="103.369882"><ele>1257.3503</ele><time>2026-05-09T08:56:24.000Z</time></trkpt>
        <trkpt lat="29.550191" lon="103.369852"><ele>1256.119</ele><time>2026-05-09T08:56:34.000Z</time></trkpt>
        <trkpt lat="29.550207" lon="103.369803"><ele>1256.6633</ele><time>2026-05-09T08:56:40.000Z</time></trkpt>
        <trkpt lat="29.550194" lon="103.369749"><ele>1258.4382</ele><time>2026-05-09T08:56:59.000Z</time></trkpt>
        <trkpt lat="29.550167" lon="103.369702"><ele>1281.2012</ele><time>2026-05-09T08:57:27.000Z</time></trkpt>
        <trkpt lat="29.550208" lon="103.369654"><ele>1280.9296</ele><time>2026-05-09T08:57:28.000Z</time></trkpt>
        <trkpt lat="29.550182" lon="103.36971"><ele>1282.09</ele><time>2026-05-09T08:57:33.000Z</time></trkpt>
        <trkpt lat="29.550142" lon="103.369669"><ele>1280.5311</ele><time>2026-05-09T08:57:43.000Z</time></trkpt>
        <trkpt lat="29.550111" lon="103.369623"><ele>1284.807</ele><time>2026-05-09T08:58:04.000Z</time></trkpt>
        <trkpt lat="29.550052" lon="103.369609"><ele>1282.9954</ele><time>2026-05-09T08:58:10.000Z</time></trkpt>
        <trkpt lat="29.550082" lon="103.36957"><ele>1280.7039</ele><time>2026-05-09T08:58:21.000Z</time></trkpt>
        <trkpt lat="29.55004" lon="103.369518"><ele>1279.9403</ele><time>2026-05-09T08:58:40.000Z</time></trkpt>
        <trkpt lat="29.549991" lon="103.369541"><ele>1280.1377</ele><time>2026-05-09T08:58:48.000Z</time></trkpt>
        <trkpt lat="29.549961" lon="103.3695"><ele>1279.824</ele><time>2026-05-09T08:59:20.000Z</time></trkpt>
        <trkpt lat="29.549998" lon="103.369535"><ele>1277.9235</ele><time>2026-05-09T08:59:32.000Z</time></trkpt>
        <trkpt lat="29.550044" lon="103.369558"><ele>1277.313</ele><time>2026-05-09T08:59:39.000Z</time></trkpt>
        <trkpt lat="29.55001" lon="103.36952"><ele>1281.4457</ele><time>2026-05-09T09:00:32.000Z</time></trkpt>
        <trkpt lat="29.549961" lon="103.369505"><ele>1280.3049</ele><time>2026-05-09T09:00:48.000Z</time></trkpt>
        <trkpt lat="29.549956" lon="103.369444"><ele>1280.6124</ele><time>2026-05-09T09:00:56.000Z</time></trkpt>
        <trkpt lat="29.549942" lon="103.369384"><ele>1281.4982</ele><time>2026-05-09T09:01:01.000Z</time></trkpt>
        <trkpt lat="29.549905" lon="103.36935"><ele>1282.5044</ele><time>2026-05-09T09:01:07.000Z</time></trkpt>
        <trkpt lat="29.549863" lon="103.369329"><ele>1282.1422</ele><time>2026-05-09T09:01:12.000Z</time></trkpt>
        <trkpt lat="29.54985" lon="103.369278"><ele>1282.0605</ele><time>2026-05-09T09:01:16.000Z</time></trkpt>
        <trkpt lat="29.549845" lon="103.369221"><ele>1283.4497</ele><time>2026-05-09T09:01:24.000Z</time></trkpt>
        <trkpt lat="29.549861" lon="103.369167"><ele>1285.6152</ele><time>2026-05-09T09:01:28.000Z</time></trkpt>
        <trkpt lat="29.549865" lon="103.369113"><ele>1285.3865</ele><time>2026-05-09T09:01:32.000Z</time></trkpt>
        <trkpt lat="29.549871" lon="103.369059"><ele>1288.304</ele><time>2026-05-09T09:01:37.000Z</time></trkpt>
        <trkpt lat="29.549925" lon="103.369029"><ele>1291.7113</ele><time>2026-05-09T09:01:50.000Z</time></trkpt>
        <trkpt lat="29.549979" lon="103.369044"><ele>1299.1255</ele><time>2026-05-09T09:01:56.000Z</time></trkpt>
        <trkpt lat="29.549979" lon="103.368991"><ele>1298.1089</ele><time>2026-05-09T09:02:02.000Z</time></trkpt>
        <trkpt lat="29.549946" lon="103.368951"><ele>1297.2451</ele><time>2026-05-09T09:02:03.000Z</time></trkpt>
        <trkpt lat="29.549902" lon="103.368985"><ele>1297.8951</ele><time>2026-05-09T09:02:09.000Z</time></trkpt>
        <trkpt lat="29.549933" lon="103.368933"><ele>1298.576</ele><time>2026-05-09T09:02:31.000Z</time></trkpt>
        <trkpt lat="29.549918" lon="103.368875"><ele>1300.8601</ele><time>2026-05-09T09:02:44.000Z</time></trkpt>
        <trkpt lat="29.549936" lon="103.368824"><ele>1305.7289</ele><time>2026-05-09T09:02:53.000Z</time></trkpt>
        <trkpt lat="29.549908" lon="103.36888"><ele>1302.5293</ele><time>2026-05-09T09:03:14.000Z</time></trkpt>
        <trkpt lat="29.549859" lon="103.36889"><ele>1301.6445</ele><time>2026-05-09T09:03:22.000Z</time></trkpt>
        <trkpt lat="29.549822" lon="103.368921"><ele>1301.7473</ele><time>2026-05-09T09:03:26.000Z</time></trkpt>
        <trkpt lat="29.549772" lon="103.368915"><ele>1299.614</ele><time>2026-05-09T09:03:33.000Z</time></trkpt>
        <trkpt lat="29.549738" lon="103.368871"><ele>1302.0706</ele><time>2026-05-09T09:03:42.000Z</time></trkpt>
        <trkpt lat="29.549738" lon="103.368811"><ele>1300.9991</ele><time>2026-05-09T09:03:44.000Z</time></trkpt>
        <trkpt lat="29.549701" lon="103.368765"><ele>1298.9379</ele><time>2026-05-09T09:03:49.000Z</time></trkpt>
        <trkpt lat="29.549647" lon="103.36873"><ele>1298.4591</ele><time>2026-05-09T09:03:53.000Z</time></trkpt>
        <trkpt lat="29.549613" lon="103.368693"><ele>1297.713</ele><time>2026-05-09T09:03:57.000Z</time></trkpt>
        <trkpt lat="29.549599" lon="103.368635"><ele>1301.1647</ele><time>2026-05-09T09:04:02.000Z</time></trkpt>
        <trkpt lat="29.549654" lon="103.368642"><ele>1301.0692</ele><time>2026-05-09T09:04:07.000Z</time></trkpt>
        <trkpt lat="29.549649" lon="103.368588"><ele>1300.1471</ele><time>2026-05-09T09:04:15.000Z</time></trkpt>
        <trkpt lat="29.549597" lon="103.368578"><ele>1303.6675</ele><time>2026-05-09T09:04:20.000Z</time></trkpt>
        <trkpt lat="29.549641" lon="103.368545"><ele>1304.7023</ele><time>2026-05-09T09:04:33.000Z</time></trkpt>
        <trkpt lat="29.549683" lon="103.368497"><ele>1305.9343</ele><time>2026-05-09T09:04:39.000Z</time></trkpt>
        <trkpt lat="29.54968" lon="103.368566"><ele>1307.6542</ele><time>2026-05-09T09:04:41.000Z</time></trkpt>
        <trkpt lat="29.549659" lon="103.368504"><ele>1312.277</ele><time>2026-05-09T09:04:54.000Z</time></trkpt>
        <trkpt lat="29.549718" lon="103.368512"><ele>1315.3076</ele><time>2026-05-09T09:05:44.000Z</time></trkpt>
        <trkpt lat="29.549763" lon="103.368504"><ele>1318.5321</ele><time>2026-05-09T09:06:04.000Z</time></trkpt>
        <trkpt lat="29.549731" lon="103.368449"><ele>1320.3861</ele><time>2026-05-09T09:06:18.000Z</time></trkpt>
        <trkpt lat="29.549775" lon="103.368435"><ele>1328.9509</ele><time>2026-05-09T09:06:55.000Z</time></trkpt>
        <trkpt lat="29.549762" lon="103.368363"><ele>1330.4642</ele><time>2026-05-09T09:07:15.000Z</time></trkpt>
        <trkpt lat="29.549803" lon="103.368391"><ele>1331.5281</ele><time>2026-05-09T09:07:24.000Z</time></trkpt>
        <trkpt lat="29.549787" lon="103.368341"><ele>1337.4729</ele><time>2026-05-09T09:08:00.000Z</time></trkpt>
        <trkpt lat="29.549839" lon="103.368313"><ele>1341.7352</ele><time>2026-05-09T09:08:23.000Z</time></trkpt>
        <trkpt lat="29.549835" lon="103.368254"><ele>1340.9731</ele><time>2026-05-09T09:08:33.000Z</time></trkpt>
        <trkpt lat="29.549881" lon="103.368271"><ele>1344.0431</ele><time>2026-05-09T09:08:42.000Z</time></trkpt>
        <trkpt lat="29.549924" lon="103.368247"><ele>1352.5032</ele><time>2026-05-09T09:09:46.000Z</time></trkpt>
        <trkpt lat="29.549894" lon="103.368204"><ele>1355.1686</ele><time>2026-05-09T09:10:06.000Z</time></trkpt>
        <trkpt lat="29.549888" lon="103.368151"><ele>1356.9747</ele><time>2026-05-09T09:10:27.000Z</time></trkpt>
        <trkpt lat="29.54988" lon="103.368096"><ele>1351.4318</ele><time>2026-05-09T09:10:35.000Z</time></trkpt>
        <trkpt lat="29.549889" lon="103.368045"><ele>1353.8378</ele><time>2026-05-09T09:10:43.000Z</time></trkpt>
        <trkpt lat="29.549913" lon="103.367987"><ele>1360.8058</ele><time>2026-05-09T09:10:55.000Z</time></trkpt>
        <trkpt lat="29.549874" lon="103.368027"><ele>1369.6615</ele><time>2026-05-09T09:11:07.000Z</time></trkpt>
        <trkpt lat="29.54986" lon="103.368079"><ele>1369.8787</ele><time>2026-05-09T09:12:13.000Z</time></trkpt>
        <trkpt lat="29.549868" lon="103.368023"><ele>1372.2073</ele><time>2026-05-09T09:12:27.000Z</time></trkpt>
        <trkpt lat="29.54985" lon="103.367964"><ele>1375.3632</ele><time>2026-05-09T09:12:38.000Z</time></trkpt>
        <trkpt lat="29.549853" lon="103.367904"><ele>1375.7455</ele><time>2026-05-09T09:12:53.000Z</time></trkpt>
        <trkpt lat="29.549885" lon="103.367867"><ele>1383.9036</ele><time>2026-05-09T09:13:21.000Z</time></trkpt>
        <trkpt lat="29.549903" lon="103.367926"><ele>1386.7966</ele><time>2026-05-09T09:14:26.000Z</time></trkpt>
        <trkpt lat="29.549917" lon="103.367873"><ele>1385.5093</ele><time>2026-05-09T09:14:36.000Z</time></trkpt>
        <trkpt lat="29.549872" lon="103.367856"><ele>1387.9376</ele><time>2026-05-09T09:14:44.000Z</time></trkpt>
        <trkpt lat="29.549826" lon="103.367844"><ele>1385.8403</ele><time>2026-05-09T09:16:03.000Z</time></trkpt>
        <trkpt lat="29.549874" lon="103.367864"><ele>1384.974</ele><time>2026-05-09T09:16:16.000Z</time></trkpt>
        <trkpt lat="29.549915" lon="103.367905"><ele>1385.5621</ele><time>2026-05-09T09:17:06.000Z</time></trkpt>
        <trkpt lat="29.549957" lon="103.367878"><ele>1385.6396</ele><time>2026-05-09T09:17:27.000Z</time></trkpt>
        <trkpt lat="29.549999" lon="103.367851"><ele>1387.9681</ele><time>2026-05-09T09:17:38.000Z</time></trkpt>
        <trkpt lat="29.549968" lon="103.367808"><ele>1388.0148</ele><time>2026-05-09T09:17:51.000Z</time></trkpt>
        <trkpt lat="29.549926" lon="103.367784"><ele>1389.0481</ele><time>2026-05-09T09:17:58.000Z</time></trkpt>
        <trkpt lat="29.549971" lon="103.367786"><ele>1393.5662</ele><time>2026-05-09T09:18:15.000Z</time></trkpt>
        <trkpt lat="29.549985" lon="103.367723"><ele>1395.8043</ele><time>2026-05-09T09:18:28.000Z</time></trkpt>
        <trkpt lat="29.550038" lon="103.367704"><ele>1397.4102</ele><time>2026-05-09T09:18:43.000Z</time></trkpt>
        <trkpt lat="29.55003" lon="103.367651"><ele>1402.3774</ele><time>2026-05-09T09:18:56.000Z</time></trkpt>
        <trkpt lat="29.550076" lon="103.36762"><ele>1404.8994</ele><time>2026-05-09T09:19:05.000Z</time></trkpt>
        <trkpt lat="29.550123" lon="103.367614"><ele>1404.8907</ele><time>2026-05-09T09:19:12.000Z</time></trkpt>
        <trkpt lat="29.550153" lon="103.367565"><ele>1403.3119</ele><time>2026-05-09T09:19:30.000Z</time></trkpt>
        <trkpt lat="29.550163" lon="103.367507"><ele>1408.7264</ele><time>2026-05-09T09:19:42.000Z</time></trkpt>
        <trkpt lat="29.550167" lon="103.36745"><ele>1412.86</ele><time>2026-05-09T09:19:57.000Z</time></trkpt>
        <trkpt lat="29.550167" lon="103.367391"><ele>1412.8417</ele><time>2026-05-09T09:20:08.000Z</time></trkpt>
        <trkpt lat="29.55021" lon="103.367372"><ele>1418.9427</ele><time>2026-05-09T09:20:15.000Z</time></trkpt>
        <trkpt lat="29.550163" lon="103.367372"><ele>1417.989</ele><time>2026-05-09T09:20:39.000Z</time></trkpt>
        <trkpt lat="29.550112" lon="103.367376"><ele>1418.6891</ele><time>2026-05-09T09:20:49.000Z</time></trkpt>
        <trkpt lat="29.550067" lon="103.367385"><ele>1419.4899</ele><time>2026-05-09T09:20:57.000Z</time></trkpt>
        <trkpt lat="29.550053" lon="103.367329"><ele>1420.5809</ele><time>2026-05-09T09:21:10.000Z</time></trkpt>
        <trkpt lat="29.550059" lon="103.367277"><ele>1423.1008</ele><time>2026-05-09T09:21:27.000Z</time></trkpt>
        <trkpt lat="29.550093" lon="103.367227"><ele>1425.5472</ele><time>2026-05-09T09:21:34.000Z</time></trkpt>
        <trkpt lat="29.550134" lon="103.367192"><ele>1427.6014</ele><time>2026-05-09T09:22:57.000Z</time></trkpt>
        <trkpt lat="29.550134" lon="103.367139"><ele>1429.0543</ele><time>2026-05-09T09:23:04.000Z</time></trkpt>
        <trkpt lat="29.55017" lon="103.367103"><ele>1429.5068</ele><time>2026-05-09T09:23:11.000Z</time></trkpt>
        <trkpt lat="29.550178" lon="103.36705"><ele>1430.6775</ele><time>2026-05-09T09:23:16.000Z</time></trkpt>
        <trkpt lat="29.550207" lon="103.367004"><ele>1430.0898</ele><time>2026-05-09T09:23:20.000Z</time></trkpt>
        <trkpt lat="29.550258" lon="103.366982"><ele>1427.7999</ele><time>2026-05-09T09:23:28.000Z</time></trkpt>
        <trkpt lat="29.550266" lon="103.366926"><ele>1431.0469</ele><time>2026-05-09T09:23:33.000Z</time></trkpt>
        <trkpt lat="29.550296" lon="103.366884"><ele>1433.8392</ele><time>2026-05-09T09:23:38.000Z</time></trkpt>
        <trkpt lat="29.550229" lon="103.366883"><ele>1444.6385</ele><time>2026-05-09T09:23:53.000Z</time></trkpt>
        <trkpt lat="29.550167" lon="103.366873"><ele>1457.35</ele><time>2026-05-09T09:24:07.000Z</time></trkpt>
        <trkpt lat="29.550129" lon="103.366843"><ele>1452.352</ele><time>2026-05-09T09:24:25.000Z</time></trkpt>
        <trkpt lat="29.550094" lon="103.366809"><ele>1457.4634</ele><time>2026-05-09T09:24:39.000Z</time></trkpt>
        <trkpt lat="29.550077" lon="103.366756"><ele>1461.2529</ele><time>2026-05-09T09:24:51.000Z</time></trkpt>
        <trkpt lat="29.55003" lon="103.366759"><ele>1462.7313</ele><time>2026-05-09T09:25:11.000Z</time></trkpt>
        <trkpt lat="29.549998" lon="103.366723"><ele>1465.5847</ele><time>2026-05-09T09:25:23.000Z</time></trkpt>
        <trkpt lat="29.549964" lon="103.366676"><ele>1467.5287</ele><time>2026-05-09T09:25:42.000Z</time></trkpt>
        <trkpt lat="29.549917" lon="103.366667"><ele>1472.3185</ele><time>2026-05-09T09:25:57.000Z</time></trkpt>
        <trkpt lat="29.54987" lon="103.36666"><ele>1473.4801</ele><time>2026-05-09T09:27:03.000Z</time></trkpt>
        <trkpt lat="29.549826" lon="103.366674"><ele>1473.5619</ele><time>2026-05-09T09:27:17.000Z</time></trkpt>
        <trkpt lat="29.549781" lon="103.36668"><ele>1474.0746</ele><time>2026-05-09T09:27:26.000Z</time></trkpt>
        <trkpt lat="29.549732" lon="103.366665"><ele>1471.9989</ele><time>2026-05-09T09:27:34.000Z</time></trkpt>
        <trkpt lat="29.549686" lon="103.36664"><ele>1471.3918</ele><time>2026-05-09T09:27:43.000Z</time></trkpt>
        <trkpt lat="29.549663" lon="103.366594"><ele>1472.7079</ele><time>2026-05-09T09:27:51.000Z</time></trkpt>
        <trkpt lat="29.54962" lon="103.366568"><ele>1472.7697</ele><time>2026-05-09T09:27:59.000Z</time></trkpt>
        <trkpt lat="29.549583" lon="103.366537"><ele>1474.7532</ele><time>2026-05-09T09:28:15.000Z</time></trkpt>
        <trkpt lat="29.549538" lon="103.366511"><ele>1475.4337</ele><time>2026-05-09T09:28:34.000Z</time></trkpt>
        <trkpt lat="29.549501" lon="103.366479"><ele>1478.1569</ele><time>2026-05-09T09:28:58.000Z</time></trkpt>
        <trkpt lat="29.549454" lon="103.366478"><ele>1482.354</ele><time>2026-05-09T09:29:09.000Z</time></trkpt>
        <trkpt lat="29.549411" lon="103.366459"><ele>1491.3064</ele><time>2026-05-09T09:29:31.000Z</time></trkpt>
        <trkpt lat="29.549402" lon="103.366404"><ele>1490.1315</ele><time>2026-05-09T09:29:38.000Z</time></trkpt>
        <trkpt lat="29.549386" lon="103.366348"><ele>1489.7721</ele><time>2026-05-09T09:29:54.000Z</time></trkpt>
        <trkpt lat="29.549414" lon="103.36629"><ele>1493.4851</ele><time>2026-05-09T09:30:10.000Z</time></trkpt>
        <trkpt lat="29.549459" lon="103.366266"><ele>1496.1814</ele><time>2026-05-09T09:30:16.000Z</time></trkpt>
        <trkpt lat="29.549478" lon="103.366218"><ele>1500.1151</ele><time>2026-05-09T09:30:25.000Z</time></trkpt>
        <trkpt lat="29.549534" lon="103.366198"><ele>1496.2656</ele><time>2026-05-09T09:30:31.000Z</time></trkpt>
        <trkpt lat="29.549484" lon="103.366175"><ele>1500.4133</ele><time>2026-05-09T09:30:51.000Z</time></trkpt>
        <trkpt lat="29.54953" lon="103.36619"><ele>1499.936</ele><time>2026-05-09T09:31:41.000Z</time></trkpt>
        <trkpt lat="29.549578" lon="103.366166"><ele>1497.025</ele><time>2026-05-09T09:31:47.000Z</time></trkpt>
        <trkpt lat="29.549622" lon="103.36613"><ele>1494.2263</ele><time>2026-05-09T09:31:52.000Z</time></trkpt>
        <trkpt lat="29.549663" lon="103.366099"><ele>1495.124</ele><time>2026-05-09T09:31:55.000Z</time></trkpt>
        <trkpt lat="29.549693" lon="103.366046"><ele>1496.6503</ele><time>2026-05-09T09:32:00.000Z</time></trkpt>
        <trkpt lat="29.549682" lon="103.365991"><ele>1493.0854</ele><time>2026-05-09T09:32:06.000Z</time></trkpt>
        <trkpt lat="29.549662" lon="103.365927"><ele>1492.3317</ele><time>2026-05-09T09:32:15.000Z</time></trkpt>
        <trkpt lat="29.549674" lon="103.365872"><ele>1493.7708</ele><time>2026-05-09T09:32:30.000Z</time></trkpt>
        <trkpt lat="29.549686" lon="103.365802"><ele>1493.4844</ele><time>2026-05-09T09:32:35.000Z</time></trkpt>
        <trkpt lat="29.549631" lon="103.365773"><ele>1498.5671</ele><time>2026-05-09T09:32:40.000Z</time></trkpt>
        <trkpt lat="29.549608" lon="103.365722"><ele>1498.7266</ele><time>2026-05-09T09:32:46.000Z</time></trkpt>
        <trkpt lat="29.549607" lon="103.365667"><ele>1497.4493</ele><time>2026-05-09T09:32:52.000Z</time></trkpt>
        <trkpt lat="29.549577" lon="103.365623"><ele>1497.9321</ele><time>2026-05-09T09:32:56.000Z</time></trkpt>
        <trkpt lat="29.549523" lon="103.365615"><ele>1501.1863</ele><time>2026-05-09T09:33:00.000Z</time></trkpt>
        <trkpt lat="29.549485" lon="103.365572"><ele>1502.254</ele><time>2026-05-09T09:33:05.000Z</time></trkpt>
        <trkpt lat="29.549511" lon="103.365523"><ele>1498.1414</ele><time>2026-05-09T09:33:10.000Z</time></trkpt>
        <trkpt lat="29.549534" lon="103.365475"><ele>1500.959</ele><time>2026-05-09T09:33:14.000Z</time></trkpt>
        <trkpt lat="29.549576" lon="103.36544"><ele>1501.7047</ele><time>2026-05-09T09:33:18.000Z</time></trkpt>
        <trkpt lat="29.549606" lon="103.3654"><ele>1503.7346</ele><time>2026-05-09T09:33:23.000Z</time></trkpt>
        <trkpt lat="29.549645" lon="103.365356"><ele>1504.9137</ele><time>2026-05-09T09:33:32.000Z</time></trkpt>
        <trkpt lat="29.549671" lon="103.365311"><ele>1506.508</ele><time>2026-05-09T09:33:36.000Z</time></trkpt>
        <trkpt lat="29.549697" lon="103.365266"><ele>1506.3551</ele><time>2026-05-09T09:33:41.000Z</time></trkpt>
        <trkpt lat="29.549726" lon="103.365216"><ele>1506.7904</ele><time>2026-05-09T09:33:46.000Z</time></trkpt>
        <trkpt lat="29.549754" lon="103.365169"><ele>1505.1403</ele><time>2026-05-09T09:33:51.000Z</time></trkpt>
        <trkpt lat="29.549795" lon="103.365126"><ele>1506.8683</ele><time>2026-05-09T09:33:55.000Z</time></trkpt>
        <trkpt lat="29.549828" lon="103.36508"><ele>1507.2821</ele><time>2026-05-09T09:33:59.000Z</time></trkpt>
        <trkpt lat="29.54986" lon="103.365043"><ele>1507.2612</ele><time>2026-05-09T09:34:02.000Z</time></trkpt>
        <trkpt lat="29.549876" lon="103.364986"><ele>1507.5145</ele><time>2026-05-09T09:34:07.000Z</time></trkpt>
        <trkpt lat="29.549887" lon="103.364925"><ele>1509.656</ele><time>2026-05-09T09:34:10.000Z</time></trkpt>
        <trkpt lat="29.549923" lon="103.364891"><ele>1510.0624</ele><time>2026-05-09T09:34:20.000Z</time></trkpt>
        <trkpt lat="29.549964" lon="103.364866"><ele>1510.0043</ele><time>2026-05-09T09:34:26.000Z</time></trkpt>
        <trkpt lat="29.550004" lon="103.364838"><ele>1508.8342</ele><time>2026-05-09T09:34:34.000Z</time></trkpt>
        <trkpt lat="29.550021" lon="103.364787"><ele>1509.538</ele><time>2026-05-09T09:34:39.000Z</time></trkpt>
        <trkpt lat="29.550027" lon="103.364725"><ele>1510.7661</ele><time>2026-05-09T09:34:43.000Z</time></trkpt>
        <trkpt lat="29.550039" lon="103.364664"><ele>1510.6583</ele><time>2026-05-09T09:34:47.000Z</time></trkpt>
        <trkpt lat="29.550055" lon="103.364606"><ele>1510.5529</ele><time>2026-05-09T09:34:53.000Z</time></trkpt>
        <trkpt lat="29.55007" lon="103.36455"><ele>1511.4802</ele><time>2026-05-09T09:34:57.000Z</time></trkpt>
        <trkpt lat="29.550109" lon="103.364498"><ele>1510.6964</ele><time>2026-05-09T09:35:02.000Z</time></trkpt>
        <trkpt lat="29.550153" lon="103.364459"><ele>1507.6986</ele><time>2026-05-09T09:35:08.000Z</time></trkpt>
        <trkpt lat="29.550159" lon="103.364395"><ele>1514.0416</ele><time>2026-05-09T09:35:12.000Z</time></trkpt>
        <trkpt lat="29.550191" lon="103.364356"><ele>1518.5457</ele><time>2026-05-09T09:35:16.000Z</time></trkpt>
        <trkpt lat="29.550231" lon="103.364331"><ele>1517.5457</ele><time>2026-05-09T09:35:18.000Z</time></trkpt>
        <trkpt lat="29.550272" lon="103.364307"><ele>1515.7399</ele><time>2026-05-09T09:35:21.000Z</time></trkpt>
        <trkpt lat="29.550271" lon="103.36424"><ele>1519.087</ele><time>2026-05-09T09:35:24.000Z</time></trkpt>
        <trkpt lat="29.550279" lon="103.364176"><ele>1522.6451</ele><time>2026-05-09T09:35:28.000Z</time></trkpt>
        <trkpt lat="29.550264" lon="103.364111"><ele>1526.9309</ele><time>2026-05-09T09:35:32.000Z</time></trkpt>
        <trkpt lat="29.550306" lon="103.36408"><ele>1524.9111</ele><time>2026-05-09T09:35:44.000Z</time></trkpt>
        <trkpt lat="29.550313" lon="103.364027"><ele>1526.5132</ele><time>2026-05-09T09:35:51.000Z</time></trkpt>
        <trkpt lat="29.550315" lon="103.363971"><ele>1530.7665</ele><time>2026-05-09T09:35:58.000Z</time></trkpt>
        <trkpt lat="29.550369" lon="103.364008"><ele>1528.7797</ele><time>2026-05-09T09:36:05.000Z</time></trkpt>
        <trkpt lat="29.550416" lon="103.364032"><ele>1526.0114</ele><time>2026-05-09T09:36:12.000Z</time></trkpt>
        <trkpt lat="29.550439" lon="103.363983"><ele>1525.4679</ele><time>2026-05-09T09:36:24.000Z</time></trkpt>
        <trkpt lat="29.550428" lon="103.363932"><ele>1531.8812</ele><time>2026-05-09T09:36:32.000Z</time></trkpt>
        <trkpt lat="29.550401" lon="103.36388"><ele>1536.1141</ele><time>2026-05-09T09:36:38.000Z</time></trkpt>
        <trkpt lat="29.550402" lon="103.363817"><ele>1536.4785</ele><time>2026-05-09T09:36:45.000Z</time></trkpt>
        <trkpt lat="29.550442" lon="103.363791"><ele>1540.0215</ele><time>2026-05-09T09:36:50.000Z</time></trkpt>
        <trkpt lat="29.550495" lon="103.363791"><ele>1539.0054</ele><time>2026-05-09T09:36:55.000Z</time></trkpt>
        <trkpt lat="29.550544" lon="103.363776"><ele>1537.9304</ele><time>2026-05-09T09:37:00.000Z</time></trkpt>
        <trkpt lat="29.550587" lon="103.363759"><ele>1536.7902</ele><time>2026-05-09T09:37:05.000Z</time></trkpt>
        <trkpt lat="29.550628" lon="103.363728"><ele>1534.9734</ele><time>2026-05-09T09:37:10.000Z</time></trkpt>
        <trkpt lat="29.550645" lon="103.363672"><ele>1541.4431</ele><time>2026-05-09T09:37:14.000Z</time></trkpt>
        <trkpt lat="29.550698" lon="103.363663"><ele>1539.6864</ele><time>2026-05-09T09:37:19.000Z</time></trkpt>
        <trkpt lat="29.55074" lon="103.363639"><ele>1538.5338</ele><time>2026-05-09T09:37:23.000Z</time></trkpt>
        <trkpt lat="29.550722" lon="103.363589"><ele>1539.1145</ele><time>2026-05-09T09:37:29.000Z</time></trkpt>
        <trkpt lat="29.550692" lon="103.363536"><ele>1536.3306</ele><time>2026-05-09T09:37:35.000Z</time></trkpt>
        <trkpt lat="29.550668" lon="103.363487"><ele>1535.189</ele><time>2026-05-09T09:37:39.000Z</time></trkpt>
        <trkpt lat="29.550655" lon="103.363433"><ele>1534.5697</ele><time>2026-05-09T09:37:45.000Z</time></trkpt>
        <trkpt lat="29.550636" lon="103.363383"><ele>1548.1586</ele><time>2026-05-09T09:37:53.000Z</time></trkpt>
        <trkpt lat="29.550661" lon="103.363329"><ele>1553.913</ele><time>2026-05-09T09:38:05.000Z</time></trkpt>
        <trkpt lat="29.550713" lon="103.36334"><ele>1554.8264</ele><time>2026-05-09T09:38:10.000Z</time></trkpt>
        <trkpt lat="29.550756" lon="103.363364"><ele>1552.8662</ele><time>2026-05-09T09:38:18.000Z</time></trkpt>
        <trkpt lat="29.550712" lon="103.363337"><ele>1557.2507</ele><time>2026-05-09T09:38:27.000Z</time></trkpt>
        <trkpt lat="29.550679" lon="103.3633"><ele>1561.3429</ele><time>2026-05-09T09:38:35.000Z</time></trkpt>
        <trkpt lat="29.550708" lon="103.36326"><ele>1562.8273</ele><time>2026-05-09T09:38:48.000Z</time></trkpt>
        <trkpt lat="29.550722" lon="103.363211"><ele>1561.0208</ele><time>2026-05-09T09:39:00.000Z</time></trkpt>
        <trkpt lat="29.550717" lon="103.363155"><ele>1557.9215</ele><time>2026-05-09T09:39:09.000Z</time></trkpt>
        <trkpt lat="29.550723" lon="103.3631"><ele>1561.6506</ele><time>2026-05-09T09:39:28.000Z</time></trkpt>
        <trkpt lat="29.550789" lon="103.363113"><ele>1563.657</ele><time>2026-05-09T09:39:38.000Z</time></trkpt>
        <trkpt lat="29.550777" lon="103.363058"><ele>1570.5857</ele><time>2026-05-09T09:40:05.000Z</time></trkpt>
        <trkpt lat="29.550775" lon="103.362996"><ele>1571.0479</ele><time>2026-05-09T09:40:18.000Z</time></trkpt>
        <trkpt lat="29.550714" lon="103.363008"><ele>1573.3901</ele><time>2026-05-09T09:40:28.000Z</time></trkpt>
        <trkpt lat="29.550702" lon="103.362959"><ele>1573.039</ele><time>2026-05-09T09:40:34.000Z</time></trkpt>
        <trkpt lat="29.550655" lon="103.362939"><ele>1574.7046</ele><time>2026-05-09T09:40:49.000Z</time></trkpt>
        <trkpt lat="29.550606" lon="103.362937"><ele>1574.93</ele><time>2026-05-09T09:41:03.000Z</time></trkpt>
        <trkpt lat="29.550569" lon="103.362907"><ele>1574.4951</ele><time>2026-05-09T09:41:15.000Z</time></trkpt>
        <trkpt lat="29.550559" lon="103.362849"><ele>1573.3776</ele><time>2026-05-09T09:41:26.000Z</time></trkpt>
        <trkpt lat="29.550561" lon="103.36279"><ele>1574.2886</ele><time>2026-05-09T09:41:37.000Z</time></trkpt>
        <trkpt lat="29.55058" lon="103.362741"><ele>1574.7369</ele><time>2026-05-09T09:41:49.000Z</time></trkpt>
        <trkpt lat="29.550611" lon="103.362696"><ele>1578.1578</ele><time>2026-05-09T09:42:01.000Z</time></trkpt>
        <trkpt lat="29.550596" lon="103.362636"><ele>1577.8904</ele><time>2026-05-09T09:42:07.000Z</time></trkpt>
        <trkpt lat="29.550633" lon="103.362605"><ele>1579.9955</ele><time>2026-05-09T09:42:23.000Z</time></trkpt>
        <trkpt lat="29.550638" lon="103.36255"><ele>1582.1306</ele><time>2026-05-09T09:42:36.000Z</time></trkpt>
        <trkpt lat="29.550653" lon="103.362487"><ele>1583.4608</ele><time>2026-05-09T09:42:47.000Z</time></trkpt>
        <trkpt lat="29.550687" lon="103.362453"><ele>1584.5981</ele><time>2026-05-09T09:43:02.000Z</time></trkpt>
        <trkpt lat="29.550676" lon="103.362392"><ele>1585.8508</ele><time>2026-05-09T09:43:14.000Z</time></trkpt>
        <trkpt lat="29.550706" lon="103.362347"><ele>1586.88</ele><time>2026-05-09T09:43:23.000Z</time></trkpt>
        <trkpt lat="29.550664" lon="103.362314"><ele>1590.7206</ele><time>2026-05-09T09:43:40.000Z</time></trkpt>
        <trkpt lat="29.550666" lon="103.362258"><ele>1591.5795</ele><time>2026-05-09T09:44:01.000Z</time></trkpt>
        <trkpt lat="29.550635" lon="103.362203"><ele>1590.4822</ele><time>2026-05-09T09:44:08.000Z</time></trkpt>
        <trkpt lat="29.550616" lon="103.362143"><ele>1593.2395</ele><time>2026-05-09T09:44:25.000Z</time></trkpt>
        <trkpt lat="29.55057" lon="103.362124"><ele>1594.5741</ele><time>2026-05-09T09:44:32.000Z</time></trkpt>
        <trkpt lat="29.550561" lon="103.362065"><ele>1598.4393</ele><time>2026-05-09T09:44:43.000Z</time></trkpt>
        <trkpt lat="29.550561" lon="103.362012"><ele>1607.9521</ele><time>2026-05-09T09:45:02.000Z</time></trkpt>
        <trkpt lat="29.550547" lon="103.361952"><ele>1614.5822</ele><time>2026-05-09T09:45:19.000Z</time></trkpt>
        <trkpt lat="29.550594" lon="103.361931"><ele>1614.634</ele><time>2026-05-09T09:45:24.000Z</time></trkpt>
        <trkpt lat="29.550565" lon="103.36189"><ele>1619.8884</ele><time>2026-05-09T09:45:35.000Z</time></trkpt>
        <trkpt lat="29.550571" lon="103.361833"><ele>1618.616</ele><time>2026-05-09T09:45:49.000Z</time></trkpt>
        <trkpt lat="29.55052" lon="103.361805"><ele>1623.911</ele><time>2026-05-09T09:46:00.000Z</time></trkpt>
        <trkpt lat="29.550488" lon="103.361767"><ele>1628.2328</ele><time>2026-05-09T09:46:08.000Z</time></trkpt>
        <trkpt lat="29.550451" lon="103.361725"><ele>1629.0759</ele><time>2026-05-09T09:46:15.000Z</time></trkpt>
        <trkpt lat="29.550434" lon="103.361677"><ele>1629.217</ele><time>2026-05-09T09:46:24.000Z</time></trkpt>
        <trkpt lat="29.550401" lon="103.361639"><ele>1631.8296</ele><time>2026-05-09T09:46:34.000Z</time></trkpt>
        <trkpt lat="29.550353" lon="103.361608"><ele>1629.5435</ele><time>2026-05-09T09:46:44.000Z</time></trkpt>
        <trkpt lat="29.55037" lon="103.361533"><ele>1633.2814</ele><time>2026-05-09T09:46:58.000Z</time></trkpt>
        <trkpt lat="29.550411" lon="103.361501"><ele>1640.1298</ele><time>2026-05-09T09:47:13.000Z</time></trkpt>
        <trkpt lat="29.550371" lon="103.361531"><ele>1648.9579</ele><time>2026-05-09T09:47:36.000Z</time></trkpt>
        <trkpt lat="29.550328" lon="103.361502"><ele>1643.565</ele><time>2026-05-09T09:47:49.000Z</time></trkpt>
        <trkpt lat="29.550316" lon="103.361452"><ele>1640.9088</ele><time>2026-05-09T09:48:00.000Z</time></trkpt>
        <trkpt lat="29.550279" lon="103.361413"><ele>1641.9534</ele><time>2026-05-09T09:48:09.000Z</time></trkpt>
        <trkpt lat="29.550273" lon="103.361352"><ele>1640.3738</ele><time>2026-05-09T09:48:24.000Z</time></trkpt>
        <trkpt lat="29.550221" lon="103.361317"><ele>1650.281</ele><time>2026-05-09T09:48:37.000Z</time></trkpt>
        <trkpt lat="29.550185" lon="103.361282"><ele>1649.0989</ele><time>2026-05-09T09:48:46.000Z</time></trkpt>
        <trkpt lat="29.550142" lon="103.361308"><ele>1653.4849</ele><time>2026-05-09T09:48:51.000Z</time></trkpt>
        <trkpt lat="29.5501" lon="103.361268"><ele>1653.4094</ele><time>2026-05-09T09:48:59.000Z</time></trkpt>
        <trkpt lat="29.550056" lon="103.361237"><ele>1654.7229</ele><time>2026-05-09T09:49:03.000Z</time></trkpt>
        <trkpt lat="29.55" lon="103.361222"><ele>1657.1147</ele><time>2026-05-09T09:49:08.000Z</time></trkpt>
        <trkpt lat="29.549947" lon="103.361215"><ele>1656.4294</ele><time>2026-05-09T09:49:13.000Z</time></trkpt>
        <trkpt lat="29.5499" lon="103.361193"><ele>1657.3689</ele><time>2026-05-09T09:49:17.000Z</time></trkpt>
        <trkpt lat="29.549895" lon="103.361135"><ele>1655.1772</ele><time>2026-05-09T09:49:21.000Z</time></trkpt>
        <trkpt lat="29.549892" lon="103.361077"><ele>1656.7374</ele><time>2026-05-09T09:49:25.000Z</time></trkpt>
        <trkpt lat="29.549886" lon="103.361024"><ele>1657.7496</ele><time>2026-05-09T09:49:30.000Z</time></trkpt>
        <trkpt lat="29.549869" lon="103.360975"><ele>1659.521</ele><time>2026-05-09T09:49:34.000Z</time></trkpt>
        <trkpt lat="29.549834" lon="103.360925"><ele>1660.9716</ele><time>2026-05-09T09:49:39.000Z</time></trkpt>
        <trkpt lat="29.549822" lon="103.36087"><ele>1661.1025</ele><time>2026-05-09T09:49:45.000Z</time></trkpt>
        <trkpt lat="29.549796" lon="103.360816"><ele>1660.8844</ele><time>2026-05-09T09:49:50.000Z</time></trkpt>
        <trkpt lat="29.549829" lon="103.360781"><ele>1654.9344</ele><time>2026-05-09T09:49:54.000Z</time></trkpt>
        <trkpt lat="29.549866" lon="103.360751"><ele>1654.3794</ele><time>2026-05-09T09:49:58.000Z</time></trkpt>
        <trkpt lat="29.549877" lon="103.360691"><ele>1651.9354</ele><time>2026-05-09T09:50:04.000Z</time></trkpt>
        <trkpt lat="29.549932" lon="103.360634"><ele>1645.6029</ele><time>2026-05-09T09:50:11.000Z</time></trkpt>
        <trkpt lat="29.54996" lon="103.360594"><ele>1641.0906</ele><time>2026-05-09T09:50:18.000Z</time></trkpt>
        <trkpt lat="29.549985" lon="103.36054"><ele>1641.2345</ele><time>2026-05-09T09:50:22.000Z</time></trkpt>
        <trkpt lat="29.550003" lon="103.360486"><ele>1643.692</ele><time>2026-05-09T09:50:27.000Z</time></trkpt>
        <trkpt lat="29.550022" lon="103.360424"><ele>1644.3634</ele><time>2026-05-09T09:50:33.000Z</time></trkpt>
        <trkpt lat="29.550038" lon="103.360372"><ele>1646.3698</ele><time>2026-05-09T09:50:38.000Z</time></trkpt>
        <trkpt lat="29.550052" lon="103.360313"><ele>1646.9294</ele><time>2026-05-09T09:50:42.000Z</time></trkpt>
        <trkpt lat="29.550062" lon="103.360257"><ele>1648.524</ele><time>2026-05-09T09:50:45.000Z</time></trkpt>
        <trkpt lat="29.550083" lon="103.360202"><ele>1650.572</ele><time>2026-05-09T09:50:49.000Z</time></trkpt>
        <trkpt lat="29.550105" lon="103.360146"><ele>1650.3119</ele><time>2026-05-09T09:50:53.000Z</time></trkpt>
        <trkpt lat="29.550137" lon="103.360109"><ele>1652.1445</ele><time>2026-05-09T09:50:59.000Z</time></trkpt>
        <trkpt lat="29.550126" lon="103.360058"><ele>1653.9673</ele><time>2026-05-09T09:51:06.000Z</time></trkpt>
        <trkpt lat="29.55009" lon="103.360019"><ele>1661.2433</ele><time>2026-05-09T09:51:12.000Z</time></trkpt>
        <trkpt lat="29.550066" lon="103.35997"><ele>1659.682</ele><time>2026-05-09T09:51:17.000Z</time></trkpt>
        <trkpt lat="29.550057" lon="103.359917"><ele>1667.5371</ele><time>2026-05-09T09:51:43.000Z</time></trkpt>
        <trkpt lat="29.550045" lon="103.359864"><ele>1670.2739</ele><time>2026-05-09T09:51:54.000Z</time></trkpt>
        <trkpt lat="29.550002" lon="103.359827"><ele>1675.1593</ele><time>2026-05-09T09:52:12.000Z</time></trkpt>
        <trkpt lat="29.549981" lon="103.359772"><ele>1676.1815</ele><time>2026-05-09T09:52:28.000Z</time></trkpt>
        <trkpt lat="29.549963" lon="103.359722"><ele>1677.3037</ele><time>2026-05-09T09:52:35.000Z</time></trkpt>
        <trkpt lat="29.54995" lon="103.359671"><ele>1676.9575</ele><time>2026-05-09T09:52:39.000Z</time></trkpt>
        <trkpt lat="29.549916" lon="103.359632"><ele>1678.1006</ele><time>2026-05-09T09:52:47.000Z</time></trkpt>
        <trkpt lat="29.549883" lon="103.359594"><ele>1679.6813</ele><time>2026-05-09T09:53:04.000Z</time></trkpt>
        <trkpt lat="29.549841" lon="103.359558"><ele>1685.6967</ele><time>2026-05-09T09:53:09.000Z</time></trkpt>
        <trkpt lat="29.549836" lon="103.359506"><ele>1687.0358</ele><time>2026-05-09T09:53:15.000Z</time></trkpt>
        <trkpt lat="29.549842" lon="103.359444"><ele>1686.8574</ele><time>2026-05-09T09:53:20.000Z</time></trkpt>
        <trkpt lat="29.549845" lon="103.359392"><ele>1685.0275</ele><time>2026-05-09T09:53:28.000Z</time></trkpt>
        <trkpt lat="29.549832" lon="103.359329"><ele>1686.9686</ele><time>2026-05-09T09:53:37.000Z</time></trkpt>
        <trkpt lat="29.549879" lon="103.359305"><ele>1688.9767</ele><time>2026-05-09T09:53:43.000Z</time></trkpt>
        <trkpt lat="29.54992" lon="103.359284"><ele>1691.1643</ele><time>2026-05-09T09:53:48.000Z</time></trkpt>
        <trkpt lat="29.549964" lon="103.359243"><ele>1694.1097</ele><time>2026-05-09T09:53:56.000Z</time></trkpt>
        <trkpt lat="29.550002" lon="103.359203"><ele>1695.8293</ele><time>2026-05-09T09:54:05.000Z</time></trkpt>
        <trkpt lat="29.550033" lon="103.359151"><ele>1696.403</ele><time>2026-05-09T09:54:13.000Z</time></trkpt>
        <trkpt lat="29.55007" lon="103.359119"><ele>1698.3501</ele><time>2026-05-09T09:54:18.000Z</time></trkpt>
        <trkpt lat="29.550114" lon="103.359097"><ele>1696.8575</ele><time>2026-05-09T09:54:22.000Z</time></trkpt>
        <trkpt lat="29.55016" lon="103.35911"><ele>1700.5969</ele><time>2026-05-09T09:54:25.000Z</time></trkpt>
        <trkpt lat="29.550211" lon="103.35913"><ele>1699.9688</ele><time>2026-05-09T09:54:30.000Z</time></trkpt>
        <trkpt lat="29.550251" lon="103.359097"><ele>1697.5887</ele><time>2026-05-09T09:54:34.000Z</time></trkpt>
        <trkpt lat="29.550271" lon="103.359034"><ele>1696.8372</ele><time>2026-05-09T09:54:38.000Z</time></trkpt>
        <trkpt lat="29.550277" lon="103.358982"><ele>1696.8325</ele><time>2026-05-09T09:54:42.000Z</time></trkpt>
        <trkpt lat="29.550244" lon="103.358938"><ele>1700.6779</ele><time>2026-05-09T09:54:47.000Z</time></trkpt>
        <trkpt lat="29.550244" lon="103.358874"><ele>1701.7345</ele><time>2026-05-09T09:54:50.000Z</time></trkpt>
        <trkpt lat="29.550281" lon="103.358802"><ele>1702.5946</ele><time>2026-05-09T09:54:54.000Z</time></trkpt>
        <trkpt lat="29.550295" lon="103.35875"><ele>1707.86</ele><time>2026-05-09T09:54:58.000Z</time></trkpt>
        <trkpt lat="29.550238" lon="103.358715"><ele>1708.0532</ele><time>2026-05-09T09:55:04.000Z</time></trkpt>
        <trkpt lat="29.550221" lon="103.358662"><ele>1709.2446</ele><time>2026-05-09T09:55:10.000Z</time></trkpt>
        <trkpt lat="29.550244" lon="103.358604"><ele>1712.8112</ele><time>2026-05-09T09:55:16.000Z</time></trkpt>
        <trkpt lat="29.550294" lon="103.358561"><ele>1718.098</ele><time>2026-05-09T09:55:34.000Z</time></trkpt>
        <trkpt lat="29.550318" lon="103.358513"><ele>1718.9167</ele><time>2026-05-09T09:55:41.000Z</time></trkpt>
        <trkpt lat="29.550291" lon="103.35847"><ele>1718.6001</ele><time>2026-05-09T09:55:50.000Z</time></trkpt>
        <trkpt lat="29.550352" lon="103.358476"><ele>1719.5037</ele><time>2026-05-09T09:55:58.000Z</time></trkpt>
        <trkpt lat="29.550311" lon="103.358417"><ele>1718.1262</ele><time>2026-05-09T09:56:02.000Z</time></trkpt>
        <trkpt lat="29.550358" lon="103.358412"><ele>1718.0886</ele><time>2026-05-09T09:56:06.000Z</time></trkpt>
        <trkpt lat="29.550346" lon="103.35836"><ele>1717.9269</ele><time>2026-05-09T09:56:13.000Z</time></trkpt>
        <trkpt lat="29.550321" lon="103.358307"><ele>1719.9021</ele><time>2026-05-09T09:56:20.000Z</time></trkpt>
        <trkpt lat="29.550291" lon="103.35826"><ele>1720.0244</ele><time>2026-05-09T09:56:24.000Z</time></trkpt>
        <trkpt lat="29.550287" lon="103.358205"><ele>1719.0658</ele><time>2026-05-09T09:56:28.000Z</time></trkpt>
        <trkpt lat="29.550297" lon="103.358143"><ele>1718.9298</ele><time>2026-05-09T09:56:35.000Z</time></trkpt>
        <trkpt lat="29.550294" lon="103.35809"><ele>1719.7458</ele><time>2026-05-09T09:56:39.000Z</time></trkpt>
        <trkpt lat="29.550305" lon="103.35803"><ele>1724.5632</ele><time>2026-05-09T09:56:44.000Z</time></trkpt>
        <trkpt lat="29.550299" lon="103.357978"><ele>1726.6018</ele><time>2026-05-09T09:56:51.000Z</time></trkpt>
        <trkpt lat="29.55031" lon="103.357925"><ele>1730.0109</ele><time>2026-05-09T09:56:57.000Z</time></trkpt>
        <trkpt lat="29.550342" lon="103.357871"><ele>1729.2113</ele><time>2026-05-09T09:57:02.000Z</time></trkpt>
        <trkpt lat="29.55037" lon="103.357811"><ele>1728.9213</ele><time>2026-05-09T09:57:09.000Z</time></trkpt>
        <trkpt lat="29.550399" lon="103.357763"><ele>1730.8809</ele><time>2026-05-09T09:57:17.000Z</time></trkpt>
        <trkpt lat="29.550384" lon="103.357714"><ele>1735.2274</ele><time>2026-05-09T09:57:28.000Z</time></trkpt>
        <trkpt lat="29.550395" lon="103.357657"><ele>1736.1359</ele><time>2026-05-09T09:57:33.000Z</time></trkpt>
        <trkpt lat="29.550384" lon="103.357599"><ele>1735.0444</ele><time>2026-05-09T09:57:38.000Z</time></trkpt>
        <trkpt lat="29.550388" lon="103.357541"><ele>1734.4038</ele><time>2026-05-09T09:57:43.000Z</time></trkpt>
        <trkpt lat="29.550403" lon="103.357485"><ele>1734.9128</ele><time>2026-05-09T09:57:48.000Z</time></trkpt>
        <trkpt lat="29.550409" lon="103.357423"><ele>1735.1382</ele><time>2026-05-09T09:57:52.000Z</time></trkpt>
        <trkpt lat="29.550402" lon="103.357368"><ele>1738.2604</ele><time>2026-05-09T09:57:58.000Z</time></trkpt>
        <trkpt lat="29.550382" lon="103.357316"><ele>1739.7203</ele><time>2026-05-09T09:58:05.000Z</time></trkpt>
        <trkpt lat="29.550372" lon="103.357259"><ele>1741.5886</ele><time>2026-05-09T09:58:12.000Z</time></trkpt>
        <trkpt lat="29.550378" lon="103.357202"><ele>1742.598</ele><time>2026-05-09T09:58:20.000Z</time></trkpt>
        <trkpt lat="29.550362" lon="103.357152"><ele>1745.6582</ele><time>2026-05-09T09:58:27.000Z</time></trkpt>
        <trkpt lat="29.550391" lon="103.357106"><ele>1742.2374</ele><time>2026-05-09T09:58:35.000Z</time></trkpt>
        <trkpt lat="29.550367" lon="103.357047"><ele>1740.8954</ele><time>2026-05-09T09:58:43.000Z</time></trkpt>
        <trkpt lat="29.55034" lon="103.357002"><ele>1741.0415</ele><time>2026-05-09T09:58:48.000Z</time></trkpt>
        <trkpt lat="29.550302" lon="103.356962"><ele>1740.6526</ele><time>2026-05-09T09:58:54.000Z</time></trkpt>
        <trkpt lat="29.550263" lon="103.356927"><ele>1741.037</ele><time>2026-05-09T09:59:02.000Z</time></trkpt>
        <trkpt lat="29.550218" lon="103.356909"><ele>1741.489</ele><time>2026-05-09T09:59:11.000Z</time></trkpt>
        <trkpt lat="29.550171" lon="103.356909"><ele>1742.0947</ele><time>2026-05-09T09:59:18.000Z</time></trkpt>
        <trkpt lat="29.550123" lon="103.356919"><ele>1744.3989</ele><time>2026-05-09T09:59:24.000Z</time></trkpt>
        <trkpt lat="29.550078" lon="103.356939"><ele>1746.0778</ele><time>2026-05-09T09:59:36.000Z</time></trkpt>
        <trkpt lat="29.550032" lon="103.356953"><ele>1746.9452</ele><time>2026-05-09T09:59:43.000Z</time></trkpt>
        <trkpt lat="29.549988" lon="103.356933"><ele>1746.193</ele><time>2026-05-09T09:59:49.000Z</time></trkpt>
        <trkpt lat="29.549999" lon="103.356877"><ele>1746.5526</ele><time>2026-05-09T09:59:54.000Z</time></trkpt>
        <trkpt lat="29.550054" lon="103.356878"><ele>1747.8408</ele><time>2026-05-09T09:59:59.000Z</time></trkpt>
        <trkpt lat="29.54998" lon="103.356881"><ele>1759.8302</ele><time>2026-05-09T10:00:22.000Z</time></trkpt>
        <trkpt lat="29.550015" lon="103.356916"><ele>1756.8816</ele><time>2026-05-09T10:00:25.000Z</time></trkpt>
        <trkpt lat="29.549995" lon="103.356968"><ele>1752.2047</ele><time>2026-05-09T10:07:35.000Z</time></trkpt>
        <trkpt lat="29.549963" lon="103.357008"><ele>1752.3052</ele><time>2026-05-09T10:07:42.000Z</time></trkpt>
        <trkpt lat="29.549919" lon="103.356975"><ele>1755.5045</ele><time>2026-05-09T10:08:08.000Z</time></trkpt>
        <trkpt lat="29.549946" lon="103.356926"><ele>1753.6543</ele><time>2026-05-09T10:08:13.000Z</time></trkpt>
        <trkpt lat="29.549986" lon="103.356896"><ele>1751.4683</ele><time>2026-05-09T10:08:50.000Z</time></trkpt>
        <trkpt lat="29.550031" lon="103.356892"><ele>1751.4429</ele><time>2026-05-09T10:08:57.000Z</time></trkpt>
        <trkpt lat="29.550036" lon="103.356948"><ele>1754.4368</ele><time>2026-05-09T10:10:38.000Z</time></trkpt>
        <trkpt lat="29.550021" lon="103.356894"><ele>1753.1049</ele><time>2026-05-09T10:11:59.000Z</time></trkpt>
        <trkpt lat="29.550065" lon="103.356938"><ele>1751.2396</ele><time>2026-05-09T10:14:13.000Z</time></trkpt>
        <trkpt lat="29.549959" lon="103.356995"><ele>1770.8818</ele><time>2026-05-09T10:14:14.000Z</time></trkpt>
        <trkpt lat="29.550034" lon="103.356913"><ele>1755.6632</ele><time>2026-05-09T10:14:34.000Z</time></trkpt>
        <trkpt lat="29.550019" lon="103.356842"><ele>1776.9326</ele><time>2026-05-09T10:17:39.000Z</time></trkpt>
        <trkpt lat="29.549846" lon="103.356975"><ele>1776.1781</ele><time>2026-05-09T10:17:39.000Z</time></trkpt>
        <trkpt lat="29.549944" lon="103.357011"><ele>1773.9498</ele><time>2026-05-09T10:17:41.000Z</time></trkpt>
        <trkpt lat="29.549978" lon="103.356977"><ele>1771.0176</ele><time>2026-05-09T10:17:42.000Z</time></trkpt>
        <trkpt lat="29.550035" lon="103.356931"><ele>1761.8486</ele><time>2026-05-09T10:17:46.000Z</time></trkpt>
        <trkpt lat="29.550095" lon="103.35689"><ele>1764.6818</ele><time>2026-05-09T10:18:35.000Z</time></trkpt>
        <trkpt lat="29.549977" lon="103.356972"><ele>1774.9503</ele><time>2026-05-09T10:19:22.000Z</time></trkpt>
        <trkpt lat="29.550013" lon="103.357049"><ele>1770.907</ele><time>2026-05-09T10:19:41.000Z</time></trkpt>
        <trkpt lat="29.549971" lon="103.357076"><ele>1772.6545</ele><time>2026-05-09T10:21:24.000Z</time></trkpt>
        <trkpt lat="29.55" lon="103.357034"><ele>1768.7241</ele><time>2026-05-09T10:22:41.000Z</time></trkpt>
        <trkpt lat="29.550015" lon="103.35697"><ele>1765.3441</ele><time>2026-05-09T10:22:48.000Z</time></trkpt>
        <trkpt lat="29.550013" lon="103.357038"><ele>1765.3594</ele><time>2026-05-09T10:23:48.000Z</time></trkpt>
        <trkpt lat="29.55" lon="103.357087"><ele>1772.6548</ele><time>2026-05-09T10:25:22.000Z</time></trkpt>
        <trkpt lat="29.549993" lon="103.357036"><ele>1770.4624</ele><time>2026-05-09T10:25:28.000Z</time></trkpt>
        <trkpt lat="29.550008" lon="103.356986"><ele>1765.9207</ele><time>2026-05-09T10:25:31.000Z</time></trkpt>
        <trkpt lat="29.550033" lon="103.356914"><ele>1760.278</ele><time>2026-05-09T10:25:39.000Z</time></trkpt>
        <trkpt lat="29.550031" lon="103.356854"><ele>1757.6345</ele><time>2026-05-09T10:26:16.000Z</time></trkpt>
        <trkpt lat="29.549994" lon="103.356889"><ele>1750.3013</ele><time>2026-05-09T10:27:04.000Z</time></trkpt>
        <trkpt lat="29.549949" lon="103.356872"><ele>1749.0541</ele><time>2026-05-09T10:27:13.000Z</time></trkpt>
        <trkpt lat="29.549932" lon="103.35692"><ele>1744.7684</ele><time>2026-05-09T10:35:49.000Z</time></trkpt>
        <trkpt lat="29.549941" lon="103.356868"><ele>1743.9</ele><time>2026-05-09T10:36:01.000Z</time></trkpt>
        <trkpt lat="29.549959" lon="103.356951"><ele>1745.652</ele><time>2026-05-09T10:51:54.000Z</time></trkpt>
        <trkpt lat="29.549966" lon="103.357022"><ele>1747.4232</ele><time>2026-05-09T10:51:56.000Z</time></trkpt>
        <trkpt lat="29.549955" lon="103.356965"><ele>1748.9893</ele><time>2026-05-09T10:51:57.000Z</time></trkpt>
        <trkpt lat="29.549967" lon="103.356909"><ele>1762.9568</ele><time>2026-05-09T10:52:15.000Z</time></trkpt>
        <trkpt lat="29.549911" lon="103.356859"><ele>1766.9701</ele><time>2026-05-09T10:52:21.000Z</time></trkpt>
        <trkpt lat="29.549936" lon="103.356813"><ele>1766.717</ele><time>2026-05-09T10:52:24.000Z</time></trkpt>
        <trkpt lat="29.549933" lon="103.356748"><ele>1765.1986</ele><time>2026-05-09T10:52:29.000Z</time></trkpt>
        <trkpt lat="29.549952" lon="103.356697"><ele>1769.2198</ele><time>2026-05-09T10:52:35.000Z</time></trkpt>
        <trkpt lat="29.549948" lon="103.356638"><ele>1760.9495</ele><time>2026-05-09T10:52:42.000Z</time></trkpt>
        <trkpt lat="29.549961" lon="103.356571"><ele>1759.013</ele><time>2026-05-09T10:52:47.000Z</time></trkpt>
        <trkpt lat="29.549951" lon="103.356518"><ele>1749.5862</ele><time>2026-05-09T10:52:53.000Z</time></trkpt>
        <trkpt lat="29.549961" lon="103.356463"><ele>1745.7384</ele><time>2026-05-09T10:53:01.000Z</time></trkpt>
        <trkpt lat="29.549976" lon="103.356408"><ele>1742.996</ele><time>2026-05-09T10:53:06.000Z</time></trkpt>
        <trkpt lat="29.55" lon="103.35636"><ele>1743.9425</ele><time>2026-05-09T10:53:09.000Z</time></trkpt>
        <trkpt lat="29.550039" lon="103.356314"><ele>1740.9066</ele><time>2026-05-09T10:53:14.000Z</time></trkpt>
        <trkpt lat="29.550082" lon="103.356285"><ele>1737.7563</ele><time>2026-05-09T10:53:20.000Z</time></trkpt>
        <trkpt lat="29.550119" lon="103.356249"><ele>1736.2123</ele><time>2026-05-09T10:53:26.000Z</time></trkpt>
        <trkpt lat="29.550156" lon="103.356203"><ele>1733.8328</ele><time>2026-05-09T10:53:34.000Z</time></trkpt>
        <trkpt lat="29.55016" lon="103.356149"><ele>1731.8232</ele><time>2026-05-09T10:53:38.000Z</time></trkpt>
        <trkpt lat="29.550168" lon="103.356094"><ele>1730.2356</ele><time>2026-05-09T10:53:43.000Z</time></trkpt>
        <trkpt lat="29.55017" lon="103.35604"><ele>1729.0259</ele><time>2026-05-09T10:53:48.000Z</time></trkpt>
        <trkpt lat="29.550157" lon="103.355973"><ele>1730.2609</ele><time>2026-05-09T10:53:56.000Z</time></trkpt>
        <trkpt lat="29.550178" lon="103.355922"><ele>1729.9131</ele><time>2026-05-09T10:54:00.000Z</time></trkpt>
        <trkpt lat="29.550214" lon="103.355882"><ele>1730.7582</ele><time>2026-05-09T10:54:05.000Z</time></trkpt>
        <trkpt lat="29.550246" lon="103.355832"><ele>1728.6572</ele><time>2026-05-09T10:54:11.000Z</time></trkpt>
        <trkpt lat="29.550282" lon="103.35579"><ele>1731.854</ele><time>2026-05-09T10:54:15.000Z</time></trkpt>
        <trkpt lat="29.550319" lon="103.355752"><ele>1731.0714</ele><time>2026-05-09T10:54:20.000Z</time></trkpt>
        <trkpt lat="29.550364" lon="103.355725"><ele>1729.0096</ele><time>2026-05-09T10:54:25.000Z</time></trkpt>
        <trkpt lat="29.550408" lon="103.355735"><ele>1724.7592</ele><time>2026-05-09T10:54:32.000Z</time></trkpt>
        <trkpt lat="29.550462" lon="103.355744"><ele>1721.7937</ele><time>2026-05-09T10:54:38.000Z</time></trkpt>
        <trkpt lat="29.550507" lon="103.355737"><ele>1721.5457</ele><time>2026-05-09T10:54:43.000Z</time></trkpt>
        <trkpt lat="29.550555" lon="103.355746"><ele>1719.4144</ele><time>2026-05-09T10:54:49.000Z</time></trkpt>
        <trkpt lat="29.550604" lon="103.35575"><ele>1719.6967</ele><time>2026-05-09T10:54:54.000Z</time></trkpt>
        <trkpt lat="29.550663" lon="103.355748"><ele>1719.5828</ele><time>2026-05-09T10:55:01.000Z</time></trkpt>
        <trkpt lat="29.550709" lon="103.35575"><ele>1719.6765</ele><time>2026-05-09T10:55:06.000Z</time></trkpt>
        <trkpt lat="29.550771" lon="103.355706"><ele>1715.1013</ele><time>2026-05-09T10:55:15.000Z</time></trkpt>
        <trkpt lat="29.550824" lon="103.355694"><ele>1720.0642</ele><time>2026-05-09T10:55:18.000Z</time></trkpt>
        <trkpt lat="29.550864" lon="103.355661"><ele>1722.415</ele><time>2026-05-09T10:55:23.000Z</time></trkpt>
        <trkpt lat="29.550908" lon="103.35564"><ele>1723.86</ele><time>2026-05-09T10:55:28.000Z</time></trkpt>
        <trkpt lat="29.550954" lon="103.355611"><ele>1724.2996</ele><time>2026-05-09T10:55:34.000Z</time></trkpt>
        <trkpt lat="29.551" lon="103.355599"><ele>1720.3546</ele><time>2026-05-09T10:55:41.000Z</time></trkpt>
        <trkpt lat="29.551045" lon="103.355585"><ele>1715.8076</ele><time>2026-05-09T10:55:48.000Z</time></trkpt>
        <trkpt lat="29.551091" lon="103.355564"><ele>1713.1184</ele><time>2026-05-09T10:55:54.000Z</time></trkpt>
        <trkpt lat="29.551138" lon="103.355541"><ele>1715.53</ele><time>2026-05-09T10:55:59.000Z</time></trkpt>
        <trkpt lat="29.551175" lon="103.355507"><ele>1715.4224</ele><time>2026-05-09T10:56:46.000Z</time></trkpt>
        <trkpt lat="29.551211" lon="103.355458"><ele>1712.3357</ele><time>2026-05-09T10:56:55.000Z</time></trkpt>
        <trkpt lat="29.55124" lon="103.355414"><ele>1709.0044</ele><time>2026-05-09T10:57:03.000Z</time></trkpt>
        <trkpt lat="29.551305" lon="103.355377"><ele>1707.3712</ele><time>2026-05-09T10:57:11.000Z</time></trkpt>
        <trkpt lat="29.551301" lon="103.355323"><ele>1707.2653</ele><time>2026-05-09T10:57:21.000Z</time></trkpt>
        <trkpt lat="29.551308" lon="103.355261"><ele>1707.0908</ele><time>2026-05-09T10:57:26.000Z</time></trkpt>
        <trkpt lat="29.551339" lon="103.355219"><ele>1708.5963</ele><time>2026-05-09T10:57:30.000Z</time></trkpt>
        <trkpt lat="29.551377" lon="103.355177"><ele>1706.8771</ele><time>2026-05-09T10:57:37.000Z</time></trkpt>
        <trkpt lat="29.551423" lon="103.355141"><ele>1706.7505</ele><time>2026-05-09T10:57:45.000Z</time></trkpt>
        <trkpt lat="29.551441" lon="103.355092"><ele>1705.8395</ele><time>2026-05-09T10:57:51.000Z</time></trkpt>
        <trkpt lat="29.551471" lon="103.355047"><ele>1707.0808</ele><time>2026-05-09T10:57:55.000Z</time></trkpt>
        <trkpt lat="29.551488" lon="103.354998"><ele>1706.973</ele><time>2026-05-09T10:57:59.000Z</time></trkpt>
        <trkpt lat="29.551505" lon="103.354942"><ele>1705.3074</ele><time>2026-05-09T10:58:03.000Z</time></trkpt>
        <trkpt lat="29.55152" lon="103.354892"><ele>1705.1489</ele><time>2026-05-09T10:58:07.000Z</time></trkpt>
        <trkpt lat="29.551545" lon="103.354848"><ele>1705.3677</ele><time>2026-05-09T10:58:11.000Z</time></trkpt>
        <trkpt lat="29.551563" lon="103.354798"><ele>1705.4526</ele><time>2026-05-09T10:58:16.000Z</time></trkpt>
        <trkpt lat="29.551599" lon="103.354751"><ele>1706.0245</ele><time>2026-05-09T10:58:22.000Z</time></trkpt>
        <trkpt lat="29.551608" lon="103.3547"><ele>1706.9132</ele><time>2026-05-09T10:58:25.000Z</time></trkpt>
        <trkpt lat="29.551633" lon="103.354656"><ele>1708.1204</ele><time>2026-05-09T10:58:31.000Z</time></trkpt>
        <trkpt lat="29.551688" lon="103.354635"><ele>1707.9854</ele><time>2026-05-09T10:58:40.000Z</time></trkpt>
        <trkpt lat="29.551708" lon="103.354584"><ele>1710.1057</ele><time>2026-05-09T10:58:47.000Z</time></trkpt>
        <trkpt lat="29.55171" lon="103.354526"><ele>1709.5074</ele><time>2026-05-09T10:58:54.000Z</time></trkpt>
        <trkpt lat="29.551758" lon="103.354483"><ele>1710.2843</ele><time>2026-05-09T10:58:59.000Z</time></trkpt>
        <trkpt lat="29.551799" lon="103.354454"><ele>1711.8177</ele><time>2026-05-09T10:59:05.000Z</time></trkpt>
        <trkpt lat="29.551823" lon="103.35441"><ele>1710.2723</ele><time>2026-05-09T10:59:11.000Z</time></trkpt>
        <trkpt lat="29.551821" lon="103.354356"><ele>1713.7296</ele><time>2026-05-09T10:59:17.000Z</time></trkpt>
        <trkpt lat="29.551791" lon="103.354314"><ele>1708.3292</ele><time>2026-05-09T10:59:23.000Z</time></trkpt>
        <trkpt lat="29.551765" lon="103.354255"><ele>1706.3394</ele><time>2026-05-09T10:59:28.000Z</time></trkpt>
        <trkpt lat="29.551775" lon="103.3542"><ele>1702.8441</ele><time>2026-05-09T10:59:33.000Z</time></trkpt>
        <trkpt lat="29.551824" lon="103.354158"><ele>1707.7948</ele><time>2026-05-09T10:59:37.000Z</time></trkpt>
        <trkpt lat="29.551876" lon="103.354143"><ele>1701.9521</ele><time>2026-05-09T10:59:43.000Z</time></trkpt>
        <trkpt lat="29.551925" lon="103.354122"><ele>1703.7574</ele><time>2026-05-09T10:59:48.000Z</time></trkpt>
        <trkpt lat="29.551931" lon="103.354064"><ele>1704.63</ele><time>2026-05-09T10:59:54.000Z</time></trkpt>
        <trkpt lat="29.55194" lon="103.354"><ele>1704.2169</ele><time>2026-05-09T10:59:58.000Z</time></trkpt>
        <trkpt lat="29.551927" lon="103.353942"><ele>1697.8279</ele><time>2026-05-09T11:00:04.000Z</time></trkpt>
        <trkpt lat="29.551896" lon="103.353899"><ele>1700.08</ele><time>2026-05-09T11:00:09.000Z</time></trkpt>
        <trkpt lat="29.55184" lon="103.353885"><ele>1697.2959</ele><time>2026-05-09T11:00:14.000Z</time></trkpt>
        <trkpt lat="29.551816" lon="103.353835"><ele>1696.2587</ele><time>2026-05-09T11:00:18.000Z</time></trkpt>
        <trkpt lat="29.551795" lon="103.353783"><ele>1691.423</ele><time>2026-05-09T11:00:22.000Z</time></trkpt>
        <trkpt lat="29.551796" lon="103.353723"><ele>1687.5703</ele><time>2026-05-09T11:00:26.000Z</time></trkpt>
        <trkpt lat="29.551747" lon="103.353727"><ele>1684.9513</ele><time>2026-05-09T11:00:31.000Z</time></trkpt>
        <trkpt lat="29.5517" lon="103.35368"><ele>1683.9073</ele><time>2026-05-09T11:00:33.000Z</time></trkpt>
        <trkpt lat="29.55169" lon="103.353625"><ele>1682.9706</ele><time>2026-05-09T11:00:36.000Z</time></trkpt>
        <trkpt lat="29.551667" lon="103.353576"><ele>1680.7225</ele><time>2026-05-09T11:00:40.000Z</time></trkpt>
        <trkpt lat="29.551672" lon="103.35352"><ele>1678.3021</ele><time>2026-05-09T11:00:44.000Z</time></trkpt>
        <trkpt lat="29.551689" lon="103.353472"><ele>1678.2166</ele><time>2026-05-09T11:00:48.000Z</time></trkpt>
        <trkpt lat="29.551686" lon="103.353417"><ele>1678.04</ele><time>2026-05-09T11:00:53.000Z</time></trkpt>
        <trkpt lat="29.551714" lon="103.353373"><ele>1675.5569</ele><time>2026-05-09T11:00:59.000Z</time></trkpt>
        <trkpt lat="29.551737" lon="103.353324"><ele>1675.674</ele><time>2026-05-09T11:01:03.000Z</time></trkpt>
        <trkpt lat="29.551741" lon="103.353267"><ele>1669.248</ele><time>2026-05-09T11:01:08.000Z</time></trkpt>
        <trkpt lat="29.551767" lon="103.353206"><ele>1671.5298</ele><time>2026-05-09T11:01:12.000Z</time></trkpt>
        <trkpt lat="29.55178" lon="103.353153"><ele>1669.9265</ele><time>2026-05-09T11:01:17.000Z</time></trkpt>
        <trkpt lat="29.551788" lon="103.353099"><ele>1668.7268</ele><time>2026-05-09T11:01:23.000Z</time></trkpt>
        <trkpt lat="29.551777" lon="103.353047"><ele>1666.1628</ele><time>2026-05-09T11:01:27.000Z</time></trkpt>
        <trkpt lat="29.551787" lon="103.352995"><ele>1667.4373</ele><time>2026-05-09T11:01:31.000Z</time></trkpt>
        <trkpt lat="29.551799" lon="103.352941"><ele>1667.8203</ele><time>2026-05-09T11:01:37.000Z</time></trkpt>
        <trkpt lat="29.551822" lon="103.352896"><ele>1662.8561</ele><time>2026-05-09T11:01:43.000Z</time></trkpt>
        <trkpt lat="29.551857" lon="103.352847"><ele>1661.7216</ele><time>2026-05-09T11:01:49.000Z</time></trkpt>
        <trkpt lat="29.551884" lon="103.352797"><ele>1660.4653</ele><time>2026-05-09T11:01:57.000Z</time></trkpt>
        <trkpt lat="29.551902" lon="103.352748"><ele>1658.7009</ele><time>2026-05-09T11:02:04.000Z</time></trkpt>
        <trkpt lat="29.551923" lon="103.352702"><ele>1657.6014</ele><time>2026-05-09T11:02:10.000Z</time></trkpt>
        <trkpt lat="29.551971" lon="103.352711"><ele>1654.5494</ele><time>2026-05-09T11:02:17.000Z</time></trkpt>
        <trkpt lat="29.552016" lon="103.352728"><ele>1653.9928</ele><time>2026-05-09T11:02:21.000Z</time></trkpt>
        <trkpt lat="29.552066" lon="103.352743"><ele>1650.0554</ele><time>2026-05-09T11:02:30.000Z</time></trkpt>
        <trkpt lat="29.552123" lon="103.352747"><ele>1647.4178</ele><time>2026-05-09T11:02:36.000Z</time></trkpt>
        <trkpt lat="29.552171" lon="103.352769"><ele>1642.2319</ele><time>2026-05-09T11:02:44.000Z</time></trkpt>
        <trkpt lat="29.552218" lon="103.352754"><ele>1638.3058</ele><time>2026-05-09T11:02:52.000Z</time></trkpt>
        <trkpt lat="29.552197" lon="103.352704"><ele>1636.7499</ele><time>2026-05-09T11:02:56.000Z</time></trkpt>
        <trkpt lat="29.552188" lon="103.352651"><ele>1633.7522</ele><time>2026-05-09T11:02:59.000Z</time></trkpt>
        <trkpt lat="29.552171" lon="103.352587"><ele>1635.1671</ele><time>2026-05-09T11:03:05.000Z</time></trkpt>
        <trkpt lat="29.552176" lon="103.352528"><ele>1633.546</ele><time>2026-05-09T11:03:11.000Z</time></trkpt>
        <trkpt lat="29.552165" lon="103.35247"><ele>1630.1885</ele><time>2026-05-09T11:03:21.000Z</time></trkpt>
        <trkpt lat="29.552182" lon="103.352406"><ele>1629.9071</ele><time>2026-05-09T11:03:27.000Z</time></trkpt>
        <trkpt lat="29.552156" lon="103.35235"><ele>1628.8411</ele><time>2026-05-09T11:03:36.000Z</time></trkpt>
        <trkpt lat="29.552204" lon="103.352326"><ele>1627.2115</ele><time>2026-05-09T11:03:44.000Z</time></trkpt>
        <trkpt lat="29.552254" lon="103.352298"><ele>1627.1675</ele><time>2026-05-09T11:03:48.000Z</time></trkpt>
        <trkpt lat="29.552294" lon="103.352267"><ele>1624.3573</ele><time>2026-05-09T11:03:52.000Z</time></trkpt>
        <trkpt lat="29.55234" lon="103.352236"><ele>1622.7037</ele><time>2026-05-09T11:04:02.000Z</time></trkpt>
        <trkpt lat="29.552373" lon="103.352291"><ele>1617.0408</ele><time>2026-05-09T11:04:32.000Z</time></trkpt>
        <trkpt lat="29.552421" lon="103.352326"><ele>1614.07</ele><time>2026-05-09T11:04:35.000Z</time></trkpt>
        <trkpt lat="29.552466" lon="103.35227"><ele>1612.584</ele><time>2026-05-09T11:04:39.000Z</time></trkpt>
        <trkpt lat="29.552473" lon="103.352334"><ele>1619.4268</ele><time>2026-05-09T11:04:42.000Z</time></trkpt>
        <trkpt lat="29.552517" lon="103.352413"><ele>1626.3861</ele><time>2026-05-09T11:04:44.000Z</time></trkpt>
        <trkpt lat="29.552566" lon="103.352422"><ele>1628.9454</ele><time>2026-05-09T11:04:50.000Z</time></trkpt>
        <trkpt lat="29.552603" lon="103.35249"><ele>1636.9568</ele><time>2026-05-09T11:04:53.000Z</time></trkpt>
        <trkpt lat="29.552572" lon="103.352536"><ele>1640.4379</ele><time>2026-05-09T11:05:02.000Z</time></trkpt>
        <trkpt lat="29.552627" lon="103.352539"><ele>1637.9724</ele><time>2026-05-09T11:05:09.000Z</time></trkpt>
        <trkpt lat="29.552648" lon="103.352487"><ele>1637.6112</ele><time>2026-05-09T11:05:12.000Z</time></trkpt>
        <trkpt lat="29.5527" lon="103.352436"><ele>1640.4849</ele><time>2026-05-09T11:05:22.000Z</time></trkpt>
        <trkpt lat="29.552747" lon="103.352462"><ele>1642.9866</ele><time>2026-05-09T11:05:25.000Z</time></trkpt>
        <trkpt lat="29.552802" lon="103.352493"><ele>1645.0369</ele><time>2026-05-09T11:05:36.000Z</time></trkpt>
        <trkpt lat="29.552843" lon="103.352524"><ele>1645.3407</ele><time>2026-05-09T11:05:41.000Z</time></trkpt>
        <trkpt lat="29.552877" lon="103.352489"><ele>1641.949</ele><time>2026-05-09T11:05:48.000Z</time></trkpt>
        <trkpt lat="29.552929" lon="103.352492"><ele>1642.2091</ele><time>2026-05-09T11:05:51.000Z</time></trkpt>
        <trkpt lat="29.552956" lon="103.352536"><ele>1645.653</ele><time>2026-05-09T11:05:57.000Z</time></trkpt>
        <trkpt lat="29.552968" lon="103.352602"><ele>1644.574</ele><time>2026-05-09T11:06:06.000Z</time></trkpt>
        <trkpt lat="29.55299" lon="103.352654"><ele>1642.7739</ele><time>2026-05-09T11:06:11.000Z</time></trkpt>
        <trkpt lat="29.553025" lon="103.352706"><ele>1644.8219</ele><time>2026-05-09T11:06:20.000Z</time></trkpt>
        <trkpt lat="29.553067" lon="103.352726"><ele>1644.7314</ele><time>2026-05-09T11:06:25.000Z</time></trkpt>
        <trkpt lat="29.553122" lon="103.352716"><ele>1643.2288</ele><time>2026-05-09T11:06:30.000Z</time></trkpt>
        <trkpt lat="29.55317" lon="103.352729"><ele>1643.1575</ele><time>2026-05-09T11:06:34.000Z</time></trkpt>
        <trkpt lat="29.553222" lon="103.352716"><ele>1641.2977</ele><time>2026-05-09T11:06:38.000Z</time></trkpt>
        <trkpt lat="29.55328" lon="103.35271"><ele>1641.067</ele><time>2026-05-09T11:06:43.000Z</time></trkpt>
        <trkpt lat="29.553329" lon="103.352693"><ele>1641.4525</ele><time>2026-05-09T11:06:46.000Z</time></trkpt>
        <trkpt lat="29.553342" lon="103.352639"><ele>1639.0259</ele><time>2026-05-09T11:06:51.000Z</time></trkpt>
        <trkpt lat="29.553376" lon="103.352598"><ele>1636.1383</ele><time>2026-05-09T11:06:55.000Z</time></trkpt>
        <trkpt lat="29.553421" lon="103.352583"><ele>1633.4772</ele><time>2026-05-09T11:07:00.000Z</time></trkpt>
        <trkpt lat="29.553465" lon="103.352588"><ele>1634.4121</ele><time>2026-05-09T11:07:05.000Z</time></trkpt>
        <trkpt lat="29.553514" lon="103.352585"><ele>1633.1562</ele><time>2026-05-09T11:07:10.000Z</time></trkpt>
        <trkpt lat="29.553557" lon="103.352569"><ele>1631.5677</ele><time>2026-05-09T11:07:15.000Z</time></trkpt>
        <trkpt lat="29.553603" lon="103.352574"><ele>1635.1613</ele><time>2026-05-09T11:07:18.000Z</time></trkpt>
        <trkpt lat="29.55365" lon="103.352562"><ele>1633.3757</ele><time>2026-05-09T11:07:22.000Z</time></trkpt>
        <trkpt lat="29.553694" lon="103.352543"><ele>1632.5265</ele><time>2026-05-09T11:07:26.000Z</time></trkpt>
        <trkpt lat="29.553724" lon="103.352475"><ele>1632.4077</ele><time>2026-05-09T11:07:30.000Z</time></trkpt>
        <trkpt lat="29.553779" lon="103.352486"><ele>1632.7795</ele><time>2026-05-09T11:07:35.000Z</time></trkpt>
        <trkpt lat="29.553821" lon="103.352513"><ele>1634.1301</ele><time>2026-05-09T11:07:39.000Z</time></trkpt>
        <trkpt lat="29.553841" lon="103.352567"><ele>1639.639</ele><time>2026-05-09T11:07:44.000Z</time></trkpt>
        <trkpt lat="29.553865" lon="103.352622"><ele>1639.0931</ele><time>2026-05-09T11:07:48.000Z</time></trkpt>
        <trkpt lat="29.553907" lon="103.352671"><ele>1641.4342</ele><time>2026-05-09T11:07:51.000Z</time></trkpt>
        <trkpt lat="29.553945" lon="103.352711"><ele>1640.5366</ele><time>2026-05-09T11:08:00.000Z</time></trkpt>
        <trkpt lat="29.553995" lon="103.352698"><ele>1642.0427</ele><time>2026-05-09T11:08:04.000Z</time></trkpt>
        <trkpt lat="29.554042" lon="103.35269"><ele>1641.4888</ele><time>2026-05-09T11:08:10.000Z</time></trkpt>
        <trkpt lat="29.55409" lon="103.352685"><ele>1640.4454</ele><time>2026-05-09T11:08:14.000Z</time></trkpt>
        <trkpt lat="29.554142" lon="103.352676"><ele>1639.9735</ele><time>2026-05-09T11:08:20.000Z</time></trkpt>
        <trkpt lat="29.554201" lon="103.352713"><ele>1643.9025</ele><time>2026-05-09T11:08:27.000Z</time></trkpt>
        <trkpt lat="29.554251" lon="103.352719"><ele>1642.4734</ele><time>2026-05-09T11:08:31.000Z</time></trkpt>
        <trkpt lat="29.554271" lon="103.352766"><ele>1644.2006</ele><time>2026-05-09T11:08:34.000Z</time></trkpt>
        <trkpt lat="29.554319" lon="103.352752"><ele>1643.8728</ele><time>2026-05-09T11:08:39.000Z</time></trkpt>
        <trkpt lat="29.554383" lon="103.352753"><ele>1644.1495</ele><time>2026-05-09T11:08:48.000Z</time></trkpt>
        <trkpt lat="29.554438" lon="103.352749"><ele>1644.8694</ele><time>2026-05-09T11:08:53.000Z</time></trkpt>
        <trkpt lat="29.554479" lon="103.35281"><ele>1648.6218</ele><time>2026-05-09T11:08:56.000Z</time></trkpt>
        <trkpt lat="29.55448" lon="103.352867"><ele>1646.6158</ele><time>2026-05-09T11:09:03.000Z</time></trkpt>
        <trkpt lat="29.554463" lon="103.352916"><ele>1645.3059</ele><time>2026-05-09T11:09:08.000Z</time></trkpt>
        <trkpt lat="29.55446" lon="103.352968"><ele>1644.4637</ele><time>2026-05-09T11:09:12.000Z</time></trkpt>
        <trkpt lat="29.554463" lon="103.353025"><ele>1645.2754</ele><time>2026-05-09T11:09:16.000Z</time></trkpt>
        <trkpt lat="29.554469" lon="103.35309"><ele>1647.511</ele><time>2026-05-09T11:09:21.000Z</time></trkpt>
        <trkpt lat="29.554499" lon="103.353137"><ele>1646.987</ele><time>2026-05-09T11:09:27.000Z</time></trkpt>
        <trkpt lat="29.554532" lon="103.353175"><ele>1647.1575</ele><time>2026-05-09T11:09:35.000Z</time></trkpt>
        <trkpt lat="29.554576" lon="103.353192"><ele>1651.4878</ele><time>2026-05-09T11:09:40.000Z</time></trkpt>
        <trkpt lat="29.554622" lon="103.353207"><ele>1650.2784</ele><time>2026-05-09T11:09:47.000Z</time></trkpt>
        <trkpt lat="29.554618" lon="103.353263"><ele>1652.901</ele><time>2026-05-09T11:09:49.000Z</time></trkpt>
        <trkpt lat="29.554627" lon="103.353317"><ele>1652.0751</ele><time>2026-05-09T11:09:53.000Z</time></trkpt>
        <trkpt lat="29.554634" lon="103.35338"><ele>1657.067</ele><time>2026-05-09T11:09:57.000Z</time></trkpt>
        <trkpt lat="29.554604" lon="103.353423"><ele>1664.6483</ele><time>2026-05-09T11:10:01.000Z</time></trkpt>
        <trkpt lat="29.554587" lon="103.353476"><ele>1672.6394</ele><time>2026-05-09T11:10:03.000Z</time></trkpt>
        <trkpt lat="29.554586" lon="103.353536"><ele>1676.7966</ele><time>2026-05-09T11:10:09.000Z</time></trkpt>
        <trkpt lat="29.554595" lon="103.353603"><ele>1679.5736</ele><time>2026-05-09T11:10:13.000Z</time></trkpt>
        <trkpt lat="29.554591" lon="103.353665"><ele>1679.7854</ele><time>2026-05-09T11:10:19.000Z</time></trkpt>
        <trkpt lat="29.554577" lon="103.353721"><ele>1678.5201</ele><time>2026-05-09T11:10:26.000Z</time></trkpt>
        <trkpt lat="29.554567" lon="103.353774"><ele>1681.2373</ele><time>2026-05-09T11:10:30.000Z</time></trkpt>
        <trkpt lat="29.554629" lon="103.353777"><ele>1690.2377</ele><time>2026-05-09T11:10:56.000Z</time></trkpt>
        <trkpt lat="29.55467" lon="103.353816"><ele>1691.7091</ele><time>2026-05-09T11:11:23.000Z</time></trkpt>
        <trkpt lat="29.554722" lon="103.353849"><ele>1690.8528</ele><time>2026-05-09T11:11:27.000Z</time></trkpt>
        <trkpt lat="29.554764" lon="103.35389"><ele>1692.2842</ele><time>2026-05-09T11:11:30.000Z</time></trkpt>
        <trkpt lat="29.554801" lon="103.353851"><ele>1687.6012</ele><time>2026-05-09T11:11:34.000Z</time></trkpt>
        <trkpt lat="29.554844" lon="103.353822"><ele>1684.8021</ele><time>2026-05-09T11:11:40.000Z</time></trkpt>
        <trkpt lat="29.55488" lon="103.353781"><ele>1682.7584</ele><time>2026-05-09T11:11:44.000Z</time></trkpt>
        <trkpt lat="29.554897" lon="103.353728"><ele>1679.4979</ele><time>2026-05-09T11:11:48.000Z</time></trkpt>
        <trkpt lat="29.554935" lon="103.353675"><ele>1677.6549</ele><time>2026-05-09T11:11:52.000Z</time></trkpt>
        <trkpt lat="29.554976" lon="103.353633"><ele>1675.0842</ele><time>2026-05-09T11:11:55.000Z</time></trkpt>
        <trkpt lat="29.55502" lon="103.353608"><ele>1677.4785</ele><time>2026-05-09T11:11:57.000Z</time></trkpt>
        <trkpt lat="29.555065" lon="103.35357"><ele>1676.2314</ele><time>2026-05-09T11:12:00.000Z</time></trkpt>
        <trkpt lat="29.555115" lon="103.353547"><ele>1675.7432</ele><time>2026-05-09T11:12:03.000Z</time></trkpt>
        <trkpt lat="29.555163" lon="103.353532"><ele>1676.5668</ele><time>2026-05-09T11:12:06.000Z</time></trkpt>
        <trkpt lat="29.555211" lon="103.353512"><ele>1679.6575</ele><time>2026-05-09T11:12:09.000Z</time></trkpt>
        <trkpt lat="29.555261" lon="103.353492"><ele>1684.3485</ele><time>2026-05-09T11:12:12.000Z</time></trkpt>
        <trkpt lat="29.555305" lon="103.353473"><ele>1685.8282</ele><time>2026-05-09T11:12:15.000Z</time></trkpt>
        <trkpt lat="29.555349" lon="103.353457"><ele>1689.0576</ele><time>2026-05-09T11:12:18.000Z</time></trkpt>
        <trkpt lat="29.555395" lon="103.353431"><ele>1693.4247</ele><time>2026-05-09T11:12:23.000Z</time></trkpt>
        <trkpt lat="29.555443" lon="103.353413"><ele>1694.2671</ele><time>2026-05-09T11:12:27.000Z</time></trkpt>
        <trkpt lat="29.555493" lon="103.353414"><ele>1693.2496</ele><time>2026-05-09T11:12:31.000Z</time></trkpt>
        <trkpt lat="29.555542" lon="103.353398"><ele>1694.6208</ele><time>2026-05-09T11:12:35.000Z</time></trkpt>
        <trkpt lat="29.555595" lon="103.353403"><ele>1694.189</ele><time>2026-05-09T11:12:40.000Z</time></trkpt>
        <trkpt lat="29.555609" lon="103.353461"><ele>1691.9318</ele><time>2026-05-09T11:12:51.000Z</time></trkpt>
        <trkpt lat="29.555547" lon="103.353458"><ele>1685.4105</ele><time>2026-05-09T11:12:54.000Z</time></trkpt>
        <trkpt lat="29.555595" lon="103.353473"><ele>1680.1935</ele><time>2026-05-09T11:13:00.000Z</time></trkpt>
        <trkpt lat="29.555645" lon="103.353479"><ele>1681.6805</ele><time>2026-05-09T11:13:06.000Z</time></trkpt>
        <trkpt lat="29.555691" lon="103.353511"><ele>1681.5618</ele><time>2026-05-09T11:13:17.000Z</time></trkpt>
        <trkpt lat="29.555734" lon="103.353538"><ele>1674.6392</ele><time>2026-05-09T11:13:23.000Z</time></trkpt>
        <trkpt lat="29.555784" lon="103.353548"><ele>1671.4806</ele><time>2026-05-09T11:13:28.000Z</time></trkpt>
        <trkpt lat="29.555823" lon="103.353513"><ele>1659.8849</ele><time>2026-05-09T11:13:34.000Z</time></trkpt>
        <trkpt lat="29.555875" lon="103.353513"><ele>1655.5787</ele><time>2026-05-09T11:13:39.000Z</time></trkpt>
        <trkpt lat="29.555919" lon="103.353537"><ele>1652.2704</ele><time>2026-05-09T11:13:44.000Z</time></trkpt>
        <trkpt lat="29.555982" lon="103.353538"><ele>1646.0544</ele><time>2026-05-09T11:13:49.000Z</time></trkpt>
        <trkpt lat="29.55603" lon="103.353551"><ele>1644.1052</ele><time>2026-05-09T11:13:53.000Z</time></trkpt>
        <trkpt lat="29.556083" lon="103.353564"><ele>1643.3325</ele><time>2026-05-09T11:13:59.000Z</time></trkpt>
        <trkpt lat="29.556118" lon="103.353529"><ele>1641.9778</ele><time>2026-05-09T11:14:05.000Z</time></trkpt>
        <trkpt lat="29.556174" lon="103.353538"><ele>1647.9744</ele><time>2026-05-09T11:14:09.000Z</time></trkpt>
        <trkpt lat="29.55623" lon="103.353504"><ele>1651.8167</ele><time>2026-05-09T11:14:15.000Z</time></trkpt>
        <trkpt lat="29.556264" lon="103.353459"><ele>1650.8192</ele><time>2026-05-09T11:14:20.000Z</time></trkpt>
        <trkpt lat="29.556288" lon="103.353412"><ele>1649.8958</ele><time>2026-05-09T11:14:25.000Z</time></trkpt>
        <trkpt lat="29.556321" lon="103.353369"><ele>1646.9922</ele><time>2026-05-09T11:14:32.000Z</time></trkpt>
        <trkpt lat="29.556361" lon="103.353329"><ele>1649.0046</ele><time>2026-05-09T11:14:36.000Z</time></trkpt>
        <trkpt lat="29.5564" lon="103.353283"><ele>1648.6849</ele><time>2026-05-09T11:14:41.000Z</time></trkpt>
        <trkpt lat="29.556442" lon="103.353238"><ele>1648.6869</ele><time>2026-05-09T11:14:46.000Z</time></trkpt>
        <trkpt lat="29.556487" lon="103.353214"><ele>1651.6184</ele><time>2026-05-09T11:14:49.000Z</time></trkpt>
        <trkpt lat="29.556537" lon="103.353198"><ele>1653.5598</ele><time>2026-05-09T11:14:53.000Z</time></trkpt>
        <trkpt lat="29.556594" lon="103.353171"><ele>1654.0582</ele><time>2026-05-09T11:14:56.000Z</time></trkpt>
        <trkpt lat="29.556636" lon="103.35314"><ele>1654.0149</ele><time>2026-05-09T11:15:00.000Z</time></trkpt>
        <trkpt lat="29.556688" lon="103.353105"><ele>1654.0914</ele><time>2026-05-09T11:15:04.000Z</time></trkpt>
        <trkpt lat="29.556722" lon="103.353065"><ele>1655.2448</ele><time>2026-05-09T11:15:07.000Z</time></trkpt>
        <trkpt lat="29.556762" lon="103.353041"><ele>1655.7012</ele><time>2026-05-09T11:15:10.000Z</time></trkpt>
        <trkpt lat="29.556802" lon="103.353006"><ele>1655.6344</ele><time>2026-05-09T11:15:15.000Z</time></trkpt>
        <trkpt lat="29.556846" lon="103.352984"><ele>1653.1024</ele><time>2026-05-09T11:15:24.000Z</time></trkpt>
        <trkpt lat="29.556827" lon="103.352926"><ele>1645.2322</ele><time>2026-05-09T11:15:35.000Z</time></trkpt>
        <trkpt lat="29.556839" lon="103.352864"><ele>1644.7805</ele><time>2026-05-09T11:15:41.000Z</time></trkpt>
        <trkpt lat="29.556879" lon="103.352834"><ele>1644.9777</ele><time>2026-05-09T11:15:45.000Z</time></trkpt>
        <trkpt lat="29.556916" lon="103.352795"><ele>1645.1206</ele><time>2026-05-09T11:15:49.000Z</time></trkpt>
        <trkpt lat="29.55697" lon="103.352759"><ele>1646.4307</ele><time>2026-05-09T11:15:53.000Z</time></trkpt>
        <trkpt lat="29.556995" lon="103.352712"><ele>1647.456</ele><time>2026-05-09T11:15:57.000Z</time></trkpt>
        <trkpt lat="29.557018" lon="103.352659"><ele>1645.1462</ele><time>2026-05-09T11:16:03.000Z</time></trkpt>
        <trkpt lat="29.557054" lon="103.352616"><ele>1646.0958</ele><time>2026-05-09T11:16:09.000Z</time></trkpt>
        <trkpt lat="29.557097" lon="103.352577"><ele>1645.0251</ele><time>2026-05-09T11:16:16.000Z</time></trkpt>
        <trkpt lat="29.557133" lon="103.352545"><ele>1641.9731</ele><time>2026-05-09T11:16:23.000Z</time></trkpt>
        <trkpt lat="29.557184" lon="103.352513"><ele>1640.5416</ele><time>2026-05-09T11:16:28.000Z</time></trkpt>
        <trkpt lat="29.557199" lon="103.352455"><ele>1631.1765</ele><time>2026-05-09T11:16:39.000Z</time></trkpt>
        <trkpt lat="29.557241" lon="103.352428"><ele>1632.6617</ele><time>2026-05-09T11:16:43.000Z</time></trkpt>
        <trkpt lat="29.55729" lon="103.352395"><ele>1634.2545</ele><time>2026-05-09T11:16:48.000Z</time></trkpt>
        <trkpt lat="29.557328" lon="103.352354"><ele>1633.2236</ele><time>2026-05-09T11:16:54.000Z</time></trkpt>
        <trkpt lat="29.557275" lon="103.352327"><ele>1622.4485</ele><time>2026-05-09T11:17:00.000Z</time></trkpt>
        <trkpt lat="29.557307" lon="103.352285"><ele>1618.6615</ele><time>2026-05-09T11:17:04.000Z</time></trkpt>
        <trkpt lat="29.557333" lon="103.352241"><ele>1614.6329</ele><time>2026-05-09T11:17:08.000Z</time></trkpt>
        <trkpt lat="29.557374" lon="103.352199"><ele>1613.4056</ele><time>2026-05-09T11:17:11.000Z</time></trkpt>
        <trkpt lat="29.557415" lon="103.352164"><ele>1611.4657</ele><time>2026-05-09T11:17:14.000Z</time></trkpt>
        <trkpt lat="29.557446" lon="103.352119"><ele>1607.7021</ele><time>2026-05-09T11:17:17.000Z</time></trkpt>
        <trkpt lat="29.557492" lon="103.352083"><ele>1607.8893</ele><time>2026-05-09T11:17:21.000Z</time></trkpt>
        <trkpt lat="29.557528" lon="103.352042"><ele>1610.163</ele><time>2026-05-09T11:17:24.000Z</time></trkpt>
        <trkpt lat="29.557557" lon="103.352002"><ele>1610.7798</ele><time>2026-05-09T11:17:29.000Z</time></trkpt>
        <trkpt lat="29.557581" lon="103.351941"><ele>1610.0183</ele><time>2026-05-09T11:17:35.000Z</time></trkpt>
        <trkpt lat="29.557551" lon="103.351901"><ele>1605.323</ele><time>2026-05-09T11:17:38.000Z</time></trkpt>
        <trkpt lat="29.557524" lon="103.351854"><ele>1601.2039</ele><time>2026-05-09T11:17:43.000Z</time></trkpt>
        <trkpt lat="29.557511" lon="103.351802"><ele>1597.9136</ele><time>2026-05-09T11:17:46.000Z</time></trkpt>
        <trkpt lat="29.557544" lon="103.351762"><ele>1602.9313</ele><time>2026-05-09T11:17:49.000Z</time></trkpt>
        <trkpt lat="29.557578" lon="103.351725"><ele>1607.4519</ele><time>2026-05-09T11:17:57.000Z</time></trkpt>
        <trkpt lat="29.557596" lon="103.351671"><ele>1600.9125</ele><time>2026-05-09T11:18:24.000Z</time></trkpt>
        <trkpt lat="29.557598" lon="103.351606"><ele>1599.991</ele><time>2026-05-09T11:18:30.000Z</time></trkpt>
        <trkpt lat="29.557611" lon="103.351546"><ele>1593.9167</ele><time>2026-05-09T11:18:43.000Z</time></trkpt>
        <trkpt lat="29.557631" lon="103.351492"><ele>1594.5011</ele><time>2026-05-09T11:18:52.000Z</time></trkpt>
        <trkpt lat="29.557659" lon="103.351447"><ele>1593.9169</ele><time>2026-05-09T11:18:58.000Z</time></trkpt>
        <trkpt lat="29.557705" lon="103.351431"><ele>1591.2312</ele><time>2026-05-09T11:19:02.000Z</time></trkpt>
        <trkpt lat="29.557751" lon="103.351422"><ele>1592.141</ele><time>2026-05-09T11:19:08.000Z</time></trkpt>
        <trkpt lat="29.557789" lon="103.351455"><ele>1591.0537</ele><time>2026-05-09T11:19:16.000Z</time></trkpt>
        <trkpt lat="29.557825" lon="103.351494"><ele>1597.1257</ele><time>2026-05-09T11:19:19.000Z</time></trkpt>
        <trkpt lat="29.55787" lon="103.351535"><ele>1596.629</ele><time>2026-05-09T11:19:25.000Z</time></trkpt>
        <trkpt lat="29.557932" lon="103.351574"><ele>1602.6418</ele><time>2026-05-09T11:19:29.000Z</time></trkpt>
        <trkpt lat="29.557982" lon="103.35153"><ele>1593.1743</ele><time>2026-05-09T11:19:35.000Z</time></trkpt>
        <trkpt lat="29.558051" lon="103.351536"><ele>1592.0408</ele><time>2026-05-09T11:19:39.000Z</time></trkpt>
        <trkpt lat="29.558097" lon="103.351543"><ele>1591.1963</ele><time>2026-05-09T11:19:47.000Z</time></trkpt>
        <trkpt lat="29.558153" lon="103.351529"><ele>1591.4332</ele><time>2026-05-09T11:19:54.000Z</time></trkpt>
        <trkpt lat="29.558205" lon="103.351498"><ele>1595.2996</ele><time>2026-05-09T11:19:58.000Z</time></trkpt>
        <trkpt lat="29.558247" lon="103.35147"><ele>1597.1864</ele><time>2026-05-09T11:20:03.000Z</time></trkpt>
        <trkpt lat="29.558307" lon="103.351474"><ele>1601.7854</ele><time>2026-05-09T11:20:09.000Z</time></trkpt>
        <trkpt lat="29.558356" lon="103.351467"><ele>1603.2684</ele><time>2026-05-09T11:20:16.000Z</time></trkpt>
        <trkpt lat="29.558405" lon="103.351435"><ele>1602.5374</ele><time>2026-05-09T11:20:20.000Z</time></trkpt>
        <trkpt lat="29.558464" lon="103.351415"><ele>1601.2137</ele><time>2026-05-09T11:20:23.000Z</time></trkpt>
        <trkpt lat="29.558517" lon="103.351399"><ele>1599.9626</ele><time>2026-05-09T11:20:26.000Z</time></trkpt>
        <trkpt lat="29.558562" lon="103.351389"><ele>1601.661</ele><time>2026-05-09T11:20:29.000Z</time></trkpt>
        <trkpt lat="29.558604" lon="103.351364"><ele>1597.1052</ele><time>2026-05-09T11:20:33.000Z</time></trkpt>
        <trkpt lat="29.558649" lon="103.351335"><ele>1598.9708</ele><time>2026-05-09T11:20:37.000Z</time></trkpt>
        <trkpt lat="29.558682" lon="103.351285"><ele>1598.3451</ele><time>2026-05-09T11:20:42.000Z</time></trkpt>
        <trkpt lat="29.558714" lon="103.351243"><ele>1596.7593</ele><time>2026-05-09T11:20:47.000Z</time></trkpt>
        <trkpt lat="29.558761" lon="103.35122"><ele>1598.7698</ele><time>2026-05-09T11:20:51.000Z</time></trkpt>
        <trkpt lat="29.558808" lon="103.3512"><ele>1596.8633</ele><time>2026-05-09T11:20:55.000Z</time></trkpt>
        <trkpt lat="29.558856" lon="103.351192"><ele>1594.8132</ele><time>2026-05-09T11:20:59.000Z</time></trkpt>
        <trkpt lat="29.558911" lon="103.351196"><ele>1594.1946</ele><time>2026-05-09T11:21:03.000Z</time></trkpt>
        <trkpt lat="29.55893" lon="103.351146"><ele>1593.4614</ele><time>2026-05-09T11:21:06.000Z</time></trkpt>
        <trkpt lat="29.558963" lon="103.351095"><ele>1589.6637</ele><time>2026-05-09T11:21:12.000Z</time></trkpt>
        <trkpt lat="29.559003" lon="103.351066"><ele>1589.6661</ele><time>2026-05-09T11:21:16.000Z</time></trkpt>
        <trkpt lat="29.558967" lon="103.351032"><ele>1584.6844</ele><time>2026-05-09T11:21:20.000Z</time></trkpt>
        <trkpt lat="29.558975" lon="103.350972"><ele>1582.3397</ele><time>2026-05-09T11:21:27.000Z</time></trkpt>
        <trkpt lat="29.55901" lon="103.350927"><ele>1585.8945</ele><time>2026-05-09T11:21:30.000Z</time></trkpt>
        <trkpt lat="29.559049" lon="103.350885"><ele>1585.1868</ele><time>2026-05-09T11:21:35.000Z</time></trkpt>
        <trkpt lat="29.559088" lon="103.350847"><ele>1585.085</ele><time>2026-05-09T11:21:40.000Z</time></trkpt>
        <trkpt lat="29.55914" lon="103.350825"><ele>1581.7274</ele><time>2026-05-09T11:21:44.000Z</time></trkpt>
        <trkpt lat="29.559178" lon="103.35079"><ele>1584.2062</ele><time>2026-05-09T11:21:49.000Z</time></trkpt>
        <trkpt lat="29.559226" lon="103.350792"><ele>1582.3381</ele><time>2026-05-09T11:21:53.000Z</time></trkpt>
        <trkpt lat="29.559276" lon="103.350788"><ele>1580.9333</ele><time>2026-05-09T11:21:58.000Z</time></trkpt>
        <trkpt lat="29.559325" lon="103.350762"><ele>1576.466</ele><time>2026-05-09T11:22:05.000Z</time></trkpt>
        <trkpt lat="29.559368" lon="103.350745"><ele>1577.2655</ele><time>2026-05-09T11:22:10.000Z</time></trkpt>
        <trkpt lat="29.559413" lon="103.350706"><ele>1579.911</ele><time>2026-05-09T11:22:16.000Z</time></trkpt>
        <trkpt lat="29.559447" lon="103.350642"><ele>1579.4937</ele><time>2026-05-09T11:22:23.000Z</time></trkpt>
        <trkpt lat="29.5595" lon="103.350636"><ele>1584.9418</ele><time>2026-05-09T11:22:28.000Z</time></trkpt>
        <trkpt lat="29.559542" lon="103.350614"><ele>1587.3221</ele><time>2026-05-09T11:22:33.000Z</time></trkpt>
        <trkpt lat="29.559585" lon="103.350586"><ele>1588.1929</ele><time>2026-05-09T11:22:41.000Z</time></trkpt>
        <trkpt lat="29.559601" lon="103.350529"><ele>1589.3091</ele><time>2026-05-09T11:22:47.000Z</time></trkpt>
        <trkpt lat="29.559658" lon="103.350534"><ele>1597.32</ele><time>2026-05-09T11:22:56.000Z</time></trkpt>
        <trkpt lat="29.559684" lon="103.350483"><ele>1594.8656</ele><time>2026-05-09T11:23:05.000Z</time></trkpt>
        <trkpt lat="29.559692" lon="103.350425"><ele>1587.3617</ele><time>2026-05-09T11:23:11.000Z</time></trkpt>
        <trkpt lat="29.559737" lon="103.350399"><ele>1583.7185</ele><time>2026-05-09T11:23:19.000Z</time></trkpt>
        <trkpt lat="29.559787" lon="103.350396"><ele>1579.255</ele><time>2026-05-09T11:23:30.000Z</time></trkpt>
        <trkpt lat="29.559799" lon="103.350343"><ele>1578.8326</ele><time>2026-05-09T11:23:41.000Z</time></trkpt>
        <trkpt lat="29.559843" lon="103.350359"><ele>1578.5629</ele><time>2026-05-09T11:23:47.000Z</time></trkpt>
        <trkpt lat="29.559893" lon="103.350344"><ele>1586.4707</ele><time>2026-05-09T11:24:09.000Z</time></trkpt>
        <trkpt lat="29.559858" lon="103.350307"><ele>1587.6772</ele><time>2026-05-09T11:24:23.000Z</time></trkpt>
        <trkpt lat="29.559898" lon="103.350331"><ele>1590.7257</ele><time>2026-05-09T11:24:32.000Z</time></trkpt>
        <trkpt lat="29.559942" lon="103.350351"><ele>1593.1013</ele><time>2026-05-09T11:24:45.000Z</time></trkpt>
        <trkpt lat="29.559987" lon="103.350352"><ele>1597.2728</ele><time>2026-05-09T11:24:56.000Z</time></trkpt>
        <trkpt lat="29.559985" lon="103.350405"><ele>1605.7201</ele><time>2026-05-09T11:25:13.000Z</time></trkpt>
        <trkpt lat="29.560019" lon="103.350442"><ele>1616.4397</ele><time>2026-05-09T11:25:26.000Z</time></trkpt>
        <trkpt lat="29.560063" lon="103.350468"><ele>1619.1184</ele><time>2026-05-09T11:25:39.000Z</time></trkpt>
        <trkpt lat="29.56009" lon="103.350509"><ele>1624.4817</ele><time>2026-05-09T11:25:52.000Z</time></trkpt>
        <trkpt lat="29.560129" lon="103.350546"><ele>1624.4904</ele><time>2026-05-09T11:26:05.000Z</time></trkpt>
        <trkpt lat="29.560153" lon="103.350601"><ele>1628.2201</ele><time>2026-05-09T11:26:37.000Z</time></trkpt>
        <trkpt lat="29.560129" lon="103.350652"><ele>1627.4156</ele><time>2026-05-09T11:26:49.000Z</time></trkpt>
        <trkpt lat="29.560181" lon="103.350655"><ele>1629.2139</ele><time>2026-05-09T11:26:59.000Z</time></trkpt>
        <trkpt lat="29.560226" lon="103.35069"><ele>1633.5304</ele><time>2026-05-09T11:27:24.000Z</time></trkpt>
        <trkpt lat="29.56018" lon="103.350699"><ele>1632.8768</ele><time>2026-05-09T11:27:32.000Z</time></trkpt>
        <trkpt lat="29.560201" lon="103.350752"><ele>1633.2535</ele><time>2026-05-09T11:27:40.000Z</time></trkpt>
        <trkpt lat="29.560171" lon="103.350794"><ele>1632.6727</ele><time>2026-05-09T11:27:54.000Z</time></trkpt>
        <trkpt lat="29.560217" lon="103.350798"><ele>1631.6036</ele><time>2026-05-09T11:28:26.000Z</time></trkpt>
        <trkpt lat="29.560214" lon="103.350865"><ele>1633.7627</ele><time>2026-05-09T11:29:08.000Z</time></trkpt>
        <trkpt lat="29.560218" lon="103.350926"><ele>1634.9093</ele><time>2026-05-09T11:29:19.000Z</time></trkpt>
        <trkpt lat="29.560258" lon="103.350953"><ele>1634.8649</ele><time>2026-05-09T11:29:24.000Z</time></trkpt>
        <trkpt lat="29.560216" lon="103.350974"><ele>1634.8505</ele><time>2026-05-09T11:29:29.000Z</time></trkpt>
        <trkpt lat="29.560248" lon="103.351013"><ele>1634.0122</ele><time>2026-05-09T11:29:40.000Z</time></trkpt>
        <trkpt lat="29.560226" lon="103.351059"><ele>1635.6012</ele><time>2026-05-09T11:29:48.000Z</time></trkpt>
        <trkpt lat="29.560214" lon="103.351128"><ele>1636.5518</ele><time>2026-05-09T11:29:56.000Z</time></trkpt>
        <trkpt lat="29.560219" lon="103.351038"><ele>1638.1139</ele><time>2026-05-09T11:30:41.000Z</time></trkpt>
        <trkpt lat="29.5602" lon="103.350986"><ele>1640.3534</ele><time>2026-05-09T11:30:43.000Z</time></trkpt>
        <trkpt lat="29.560225" lon="103.351035"><ele>1640.5255</ele><time>2026-05-09T11:30:49.000Z</time></trkpt>
        <trkpt lat="29.560237" lon="103.350971"><ele>1641.0898</ele><time>2026-05-09T11:30:52.000Z</time></trkpt>
        <trkpt lat="29.560257" lon="103.351049"><ele>1639.7129</ele><time>2026-05-09T11:30:54.000Z</time></trkpt>
        <trkpt lat="29.560297" lon="103.351088"><ele>1639.7225</ele><time>2026-05-09T11:30:57.000Z</time></trkpt>
        <trkpt lat="29.560311" lon="103.351034"><ele>1638.1663</ele><time>2026-05-09T11:31:11.000Z</time></trkpt>
        <trkpt lat="29.560364" lon="103.351031"><ele>1645.3558</ele><time>2026-05-09T11:31:23.000Z</time></trkpt>
        <trkpt lat="29.560407" lon="103.351059"><ele>1644.8558</ele><time>2026-05-09T11:31:33.000Z</time></trkpt>
        <trkpt lat="29.560437" lon="103.351021"><ele>1644.275</ele><time>2026-05-09T11:31:52.000Z</time></trkpt>
        <trkpt lat="29.560484" lon="103.351013"><ele>1644.9673</ele><time>2026-05-09T11:32:03.000Z</time></trkpt>
        <trkpt lat="29.560522" lon="103.351049"><ele>1646.0656</ele><time>2026-05-09T11:32:12.000Z</time></trkpt>
        <trkpt lat="29.560559" lon="103.351082"><ele>1648.2627</ele><time>2026-05-09T11:32:18.000Z</time></trkpt>
        <trkpt lat="29.560515" lon="103.351126"><ele>1649.2125</ele><time>2026-05-09T11:32:26.000Z</time></trkpt>
        <trkpt lat="29.56056" lon="103.351096"><ele>1656.1074</ele><time>2026-05-09T11:32:49.000Z</time></trkpt>
        <trkpt lat="29.56057" lon="103.351151"><ele>1665.9628</ele><time>2026-05-09T11:33:12.000Z</time></trkpt>
        <trkpt lat="29.560565" lon="103.351205"><ele>1663.4639</ele><time>2026-05-09T11:33:28.000Z</time></trkpt>
        <trkpt lat="29.560551" lon="103.35126"><ele>1664.471</ele><time>2026-05-09T11:33:38.000Z</time></trkpt>
        <trkpt lat="29.560596" lon="103.351274"><ele>1669.6958</ele><time>2026-05-09T11:34:16.000Z</time></trkpt>
        <trkpt lat="29.560654" lon="103.35126"><ele>1673.9061</ele><time>2026-05-09T11:34:32.000Z</time></trkpt>
        <trkpt lat="29.560699" lon="103.351284"><ele>1674.4387</ele><time>2026-05-09T11:34:41.000Z</time></trkpt>
        <trkpt lat="29.560662" lon="103.351315"><ele>1678.8456</ele><time>2026-05-09T11:34:59.000Z</time></trkpt>
        <trkpt lat="29.560632" lon="103.351357"><ele>1682.0114</ele><time>2026-05-09T11:35:07.000Z</time></trkpt>
        <trkpt lat="29.560599" lon="103.351394"><ele>1681.2474</ele><time>2026-05-09T11:35:14.000Z</time></trkpt>
        <trkpt lat="29.560572" lon="103.351438"><ele>1682.8925</ele><time>2026-05-09T11:35:23.000Z</time></trkpt>
        <trkpt lat="29.560542" lon="103.351491"><ele>1684.394</ele><time>2026-05-09T11:35:39.000Z</time></trkpt>
        <trkpt lat="29.560503" lon="103.351524"><ele>1683.495</ele><time>2026-05-09T11:35:43.000Z</time></trkpt>
        <trkpt lat="29.56046" lon="103.351554"><ele>1685.1707</ele><time>2026-05-09T11:35:47.000Z</time></trkpt>
        <trkpt lat="29.560504" lon="103.351571"><ele>1685.4243</ele><time>2026-05-09T11:35:52.000Z</time></trkpt>
        <trkpt lat="29.560558" lon="103.351592"><ele>1688.2196</ele><time>2026-05-09T11:36:01.000Z</time></trkpt>
        <trkpt lat="29.560543" lon="103.351646"><ele>1690.7672</ele><time>2026-05-09T11:36:07.000Z</time></trkpt>
        <trkpt lat="29.560587" lon="103.351613"><ele>1695.8506</ele><time>2026-05-09T11:36:22.000Z</time></trkpt>
        <trkpt lat="29.560618" lon="103.351573"><ele>1697.1407</ele><time>2026-05-09T11:36:29.000Z</time></trkpt>
        <trkpt lat="29.56065" lon="103.351533"><ele>1699.1367</ele><time>2026-05-09T11:36:39.000Z</time></trkpt>
        <trkpt lat="29.560675" lon="103.351485"><ele>1701.5619</ele><time>2026-05-09T11:36:49.000Z</time></trkpt>
        <trkpt lat="29.560721" lon="103.351518"><ele>1700.4847</ele><time>2026-05-09T11:36:55.000Z</time></trkpt>
        <trkpt lat="29.560762" lon="103.351549"><ele>1703.2633</ele><time>2026-05-09T11:37:05.000Z</time></trkpt>
        <trkpt lat="29.560793" lon="103.35151"><ele>1705.825</ele><time>2026-05-09T11:37:22.000Z</time></trkpt>
        <trkpt lat="29.560827" lon="103.35147"><ele>1706.6418</ele><time>2026-05-09T11:37:42.000Z</time></trkpt>
        <trkpt lat="29.56087" lon="103.351494"><ele>1706.2976</ele><time>2026-05-09T11:37:46.000Z</time></trkpt>
        <trkpt lat="29.560904" lon="103.351454"><ele>1709.0282</ele><time>2026-05-09T11:39:02.000Z</time></trkpt>
        <trkpt lat="29.560919" lon="103.351505"><ele>1707.3721</ele><time>2026-05-09T11:39:54.000Z</time></trkpt>
        <trkpt lat="29.560865" lon="103.35149"><ele>1706.883</ele><time>2026-05-09T11:40:36.000Z</time></trkpt>
        <trkpt lat="29.560849" lon="103.35144"><ele>1706.1837</ele><time>2026-05-09T11:40:44.000Z</time></trkpt>
        <trkpt lat="29.560809" lon="103.351466"><ele>1707.1202</ele><time>2026-05-09T11:41:50.000Z</time></trkpt>
        <trkpt lat="29.560826" lon="103.351516"><ele>1708.2006</ele><time>2026-05-09T11:42:45.000Z</time></trkpt>
        <trkpt lat="29.560872" lon="103.351522"><ele>1707.2584</ele><time>2026-05-09T11:43:01.000Z</time></trkpt>
        <trkpt lat="29.560905" lon="103.35156"><ele>1706.833</ele><time>2026-05-09T11:43:08.000Z</time></trkpt>
        <trkpt lat="29.560861" lon="103.351533"><ele>1706.5581</ele><time>2026-05-09T11:43:33.000Z</time></trkpt>
        <trkpt lat="29.560896" lon="103.351498"><ele>1706.5525</ele><time>2026-05-09T11:43:35.000Z</time></trkpt>
        <trkpt lat="29.560924" lon="103.351417"><ele>1707.5427</ele><time>2026-05-09T11:43:40.000Z</time></trkpt>
        <trkpt lat="29.560949" lon="103.351489"><ele>1706.7476</ele><time>2026-05-09T11:43:50.000Z</time></trkpt>
        <trkpt lat="29.560942" lon="103.351564"><ele>1705.9076</ele><time>2026-05-09T11:46:16.000Z</time></trkpt>
        <trkpt lat="29.560984" lon="103.351538"><ele>1705.3849</ele><time>2026-05-09T11:46:21.000Z</time></trkpt>
        <trkpt lat="29.560935" lon="103.351544"><ele>1706.9601</ele><time>2026-05-09T11:46:28.000Z</time></trkpt>
        <trkpt lat="29.560982" lon="103.351536"><ele>1707.5444</ele><time>2026-05-09T11:46:38.000Z</time></trkpt>
        <trkpt lat="29.560933" lon="103.351535"><ele>1707.8009</ele><time>2026-05-09T11:46:45.000Z</time></trkpt>
        <trkpt lat="29.560957" lon="103.351582"><ele>1708.838</ele><time>2026-05-09T11:47:03.000Z</time></trkpt>
        <trkpt lat="29.561009" lon="103.35159"><ele>1707.7422</ele><time>2026-05-09T11:47:10.000Z</time></trkpt>
        <trkpt lat="29.561067" lon="103.351612"><ele>1707.0072</ele><time>2026-05-09T11:47:21.000Z</time></trkpt>
        <trkpt lat="29.56103" lon="103.351666"><ele>1708.105</ele><time>2026-05-09T11:48:13.000Z</time></trkpt>
        <trkpt lat="29.560975" lon="103.351643"><ele>1708.2013</ele><time>2026-05-09T11:48:17.000Z</time></trkpt>
        <trkpt lat="29.56101" lon="103.351599"><ele>1707.4381</ele><time>2026-05-09T11:48:25.000Z</time></trkpt>
        <trkpt lat="29.561044" lon="103.351564"><ele>1707.7604</ele><time>2026-05-09T11:48:31.000Z</time></trkpt>
        <trkpt lat="29.561099" lon="103.351592"><ele>1710.2498</ele><time>2026-05-09T11:49:18.000Z</time></trkpt>
        <trkpt lat="29.561152" lon="103.351615"><ele>1709.5323</ele><time>2026-05-09T11:49:24.000Z</time></trkpt>
        <trkpt lat="29.561205" lon="103.351622"><ele>1709.2284</ele><time>2026-05-09T11:49:29.000Z</time></trkpt>
        <trkpt lat="29.561259" lon="103.351634"><ele>1708.704</ele><time>2026-05-09T11:49:34.000Z</time></trkpt>
        <trkpt lat="29.56131" lon="103.351643"><ele>1709.0153</ele><time>2026-05-09T11:49:43.000Z</time></trkpt>
        <trkpt lat="29.561353" lon="103.351661"><ele>1711.3131</ele><time>2026-05-09T11:49:55.000Z</time></trkpt>
        <trkpt lat="29.561381" lon="103.351707"><ele>1714.4352</ele><time>2026-05-09T11:50:13.000Z</time></trkpt>
        <trkpt lat="29.561421" lon="103.351731"><ele>1723.0159</ele><time>2026-05-09T11:50:46.000Z</time></trkpt>
        <trkpt lat="29.561402" lon="103.35178"><ele>1724.288</ele><time>2026-05-09T11:51:17.000Z</time></trkpt>
        <trkpt lat="29.561447" lon="103.351806"><ele>1730.6873</ele><time>2026-05-09T11:51:49.000Z</time></trkpt>
        <trkpt lat="29.561451" lon="103.351858"><ele>1730.8405</ele><time>2026-05-09T11:51:58.000Z</time></trkpt>
        <trkpt lat="29.5614" lon="103.351877"><ele>1733.4137</ele><time>2026-05-09T11:52:04.000Z</time></trkpt>
        <trkpt lat="29.561439" lon="103.351904"><ele>1733.183</ele><time>2026-05-09T11:53:07.000Z</time></trkpt>
        <trkpt lat="29.561489" lon="103.3519"><ele>1734.493</ele><time>2026-05-09T11:53:19.000Z</time></trkpt>
        <trkpt lat="29.561456" lon="103.351959"><ele>1736.4617</ele><time>2026-05-09T11:53:28.000Z</time></trkpt>
        <trkpt lat="29.561508" lon="103.35196"><ele>1737.5063</ele><time>2026-05-09T11:53:44.000Z</time></trkpt>
        <trkpt lat="29.561556" lon="103.351955"><ele>1739.1978</ele><time>2026-05-09T11:53:56.000Z</time></trkpt>
        <trkpt lat="29.561601" lon="103.351933"><ele>1740.8922</ele><time>2026-05-09T11:54:05.000Z</time></trkpt>
        <trkpt lat="29.561651" lon="103.351968"><ele>1742.1361</ele><time>2026-05-09T11:54:13.000Z</time></trkpt>
        <trkpt lat="29.561674" lon="103.352012"><ele>1745.328</ele><time>2026-05-09T11:54:27.000Z</time></trkpt>
        <trkpt lat="29.561726" lon="103.352018"><ele>1746.8147</ele><time>2026-05-09T11:54:43.000Z</time></trkpt>
        <trkpt lat="29.561772" lon="103.352028"><ele>1750.6056</ele><time>2026-05-09T11:54:57.000Z</time></trkpt>
        <trkpt lat="29.561745" lon="103.35209"><ele>1756.6786</ele><time>2026-05-09T11:55:13.000Z</time></trkpt>
        <trkpt lat="29.561702" lon="103.35212"><ele>1759.9487</ele><time>2026-05-09T11:55:25.000Z</time></trkpt>
        <trkpt lat="29.561745" lon="103.352136"><ele>1761.2933</ele><time>2026-05-09T11:55:45.000Z</time></trkpt>
        <trkpt lat="29.561781" lon="103.352079"><ele>1762.6829</ele><time>2026-05-09T11:55:47.000Z</time></trkpt>
        <trkpt lat="29.561786" lon="103.35213"><ele>1763.0231</ele><time>2026-05-09T11:55:50.000Z</time></trkpt>
        <trkpt lat="29.561835" lon="103.352144"><ele>1766.5812</ele><time>2026-05-09T11:56:16.000Z</time></trkpt>
        <trkpt lat="29.561876" lon="103.352167"><ele>1769.4242</ele><time>2026-05-09T11:56:29.000Z</time></trkpt>
        <trkpt lat="29.561928" lon="103.352188"><ele>1769.0779</ele><time>2026-05-09T11:56:38.000Z</time></trkpt>
        <trkpt lat="29.561954" lon="103.352231"><ele>1770.5271</ele><time>2026-05-09T11:56:43.000Z</time></trkpt>
        <trkpt lat="29.561911" lon="103.352249"><ele>1772.8955</ele><time>2026-05-09T11:56:49.000Z</time></trkpt>
        <trkpt lat="29.561954" lon="103.35232"><ele>1775.4901</ele><time>2026-05-09T11:57:33.000Z</time></trkpt>
        <trkpt lat="29.561952" lon="103.352269"><ele>1775.573</ele><time>2026-05-09T11:58:24.000Z</time></trkpt>
        <trkpt lat="29.561927" lon="103.352222"><ele>1776.4823</ele><time>2026-05-09T11:58:30.000Z</time></trkpt>
        <trkpt lat="29.561895" lon="103.352176"><ele>1777.6097</ele><time>2026-05-09T11:59:12.000Z</time></trkpt>
        <trkpt lat="29.561939" lon="103.352209"><ele>1777.93</ele><time>2026-05-09T11:59:43.000Z</time></trkpt>
        <trkpt lat="29.561977" lon="103.352179"><ele>1778.4912</ele><time>2026-05-09T11:59:48.000Z</time></trkpt>
        <trkpt lat="29.56202" lon="103.352157"><ele>1776.8651</ele><time>2026-05-09T11:59:58.000Z</time></trkpt>
        <trkpt lat="29.562072" lon="103.352169"><ele>1776.4025</ele><time>2026-05-09T12:00:05.000Z</time></trkpt>
        <trkpt lat="29.562118" lon="103.352163"><ele>1779.5704</ele><time>2026-05-09T12:00:22.000Z</time></trkpt>
        <trkpt lat="29.562165" lon="103.352166"><ele>1782.5005</ele><time>2026-05-09T12:00:32.000Z</time></trkpt>
        <trkpt lat="29.56221" lon="103.352178"><ele>1783.0782</ele><time>2026-05-09T12:00:44.000Z</time></trkpt>
        <trkpt lat="29.562257" lon="103.352166"><ele>1784.0027</ele><time>2026-05-09T12:00:51.000Z</time></trkpt>
        <trkpt lat="29.562305" lon="103.35215"><ele>1785.3112</ele><time>2026-05-09T12:01:04.000Z</time></trkpt>
        <trkpt lat="29.562353" lon="103.352152"><ele>1788.0927</ele><time>2026-05-09T12:01:17.000Z</time></trkpt>
        <trkpt lat="29.562399" lon="103.352145"><ele>1794.1248</ele><time>2026-05-09T12:01:32.000Z</time></trkpt>
        <trkpt lat="29.56245" lon="103.352171"><ele>1794.3335</ele><time>2026-05-09T12:01:48.000Z</time></trkpt>
        <trkpt lat="29.562483" lon="103.352206"><ele>1807.3837</ele><time>2026-05-09T12:02:13.000Z</time></trkpt>
        <trkpt lat="29.562528" lon="103.352193"><ele>1810.7324</ele><time>2026-05-09T12:02:26.000Z</time></trkpt>
        <trkpt lat="29.56251" lon="103.352243"><ele>1813.1024</ele><time>2026-05-09T12:02:40.000Z</time></trkpt>
        <trkpt lat="29.562551" lon="103.352213"><ele>1812.9707</ele><time>2026-05-09T12:02:58.000Z</time></trkpt>
        <trkpt lat="29.562508" lon="103.35219"><ele>1813.1448</ele><time>2026-05-09T12:03:26.000Z</time></trkpt>
        <trkpt lat="29.562534" lon="103.352145"><ele>1812.9288</ele><time>2026-05-09T12:03:42.000Z</time></trkpt>
        <trkpt lat="29.56258" lon="103.352173"><ele>1814.014</ele><time>2026-05-09T12:03:49.000Z</time></trkpt>
        <trkpt lat="29.562622" lon="103.352194"><ele>1815.6794</ele><time>2026-05-09T12:03:54.000Z</time></trkpt>
        <trkpt lat="29.562664" lon="103.352162"><ele>1817.2482</ele><time>2026-05-09T12:04:02.000Z</time></trkpt>
        <trkpt lat="29.562682" lon="103.352113"><ele>1817.3472</ele><time>2026-05-09T12:04:08.000Z</time></trkpt>
        <trkpt lat="29.562656" lon="103.352066"><ele>1817.4581</ele><time>2026-05-09T12:04:13.000Z</time></trkpt>
        <trkpt lat="29.562627" lon="103.352025"><ele>1814.1165</ele><time>2026-05-09T12:04:21.000Z</time></trkpt>
        <trkpt lat="29.562602" lon="103.351975"><ele>1812.9221</ele><time>2026-05-09T12:04:26.000Z</time></trkpt>
        <trkpt lat="29.562577" lon="103.351921"><ele>1810.576</ele><time>2026-05-09T12:04:33.000Z</time></trkpt>
        <trkpt lat="29.562543" lon="103.351877"><ele>1809.2494</ele><time>2026-05-09T12:04:38.000Z</time></trkpt>
        <trkpt lat="29.562505" lon="103.351833"><ele>1807.8469</ele><time>2026-05-09T12:04:44.000Z</time></trkpt>
        <trkpt lat="29.56247" lon="103.351798"><ele>1806.7255</ele><time>2026-05-09T12:04:49.000Z</time></trkpt>
        <trkpt lat="29.562474" lon="103.351743"><ele>1806.272</ele><time>2026-05-09T12:04:59.000Z</time></trkpt>
        <trkpt lat="29.562506" lon="103.35169"><ele>1807.818</ele><time>2026-05-09T12:05:08.000Z</time></trkpt>
        <trkpt lat="29.562548" lon="103.351659"><ele>1809.5007</ele><time>2026-05-09T12:05:19.000Z</time></trkpt>
        <trkpt lat="29.562593" lon="103.351653"><ele>1812.8491</ele><time>2026-05-09T12:05:40.000Z</time></trkpt>
        <trkpt lat="29.562584" lon="103.351599"><ele>1813.4873</ele><time>2026-05-09T12:05:51.000Z</time></trkpt>
        <trkpt lat="29.562611" lon="103.351537"><ele>1815.826</ele><time>2026-05-09T12:06:01.000Z</time></trkpt>
        <trkpt lat="29.562629" lon="103.351482"><ele>1816.7424</ele><time>2026-05-09T12:06:10.000Z</time></trkpt>
        <trkpt lat="29.562636" lon="103.351426"><ele>1818.0096</ele><time>2026-05-09T12:06:18.000Z</time></trkpt>
        <trkpt lat="29.56266" lon="103.351372"><ele>1819.7972</ele><time>2026-05-09T12:06:25.000Z</time></trkpt>
        <trkpt lat="29.562688" lon="103.351324"><ele>1819.791</ele><time>2026-05-09T12:06:32.000Z</time></trkpt>
        <trkpt lat="29.562715" lon="103.35128"><ele>1820.9551</ele><time>2026-05-09T12:06:39.000Z</time></trkpt>
        <trkpt lat="29.562725" lon="103.35123"><ele>1821.8075</ele><time>2026-05-09T12:06:46.000Z</time></trkpt>
        <trkpt lat="29.562738" lon="103.35118"><ele>1823.6509</ele><time>2026-05-09T12:06:55.000Z</time></trkpt>
        <trkpt lat="29.562781" lon="103.351142"><ele>1826.4949</ele><time>2026-05-09T12:07:08.000Z</time></trkpt>
        <trkpt lat="29.562798" lon="103.35109"><ele>1829.2816</ele><time>2026-05-09T12:07:20.000Z</time></trkpt>
        <trkpt lat="29.562805" lon="103.351037"><ele>1827.914</ele><time>2026-05-09T12:07:30.000Z</time></trkpt>
        <trkpt lat="29.562769" lon="103.350989"><ele>1829.0796</ele><time>2026-05-09T12:07:37.000Z</time></trkpt>
        <trkpt lat="29.562792" lon="103.35094"><ele>1830.2393</ele><time>2026-05-09T12:07:48.000Z</time></trkpt>
        <trkpt lat="29.562791" lon="103.350883"><ele>1832.185</ele><time>2026-05-09T12:07:56.000Z</time></trkpt>
        <trkpt lat="29.562789" lon="103.350827"><ele>1832.8247</ele><time>2026-05-09T12:08:02.000Z</time></trkpt>
        <trkpt lat="29.562779" lon="103.350772"><ele>1833.8525</ele><time>2026-05-09T12:08:08.000Z</time></trkpt>
        <trkpt lat="29.562808" lon="103.350728"><ele>1834.7499</ele><time>2026-05-09T12:08:17.000Z</time></trkpt>
        <trkpt lat="29.562825" lon="103.350778"><ele>1837.5413</ele><time>2026-05-09T12:08:38.000Z</time></trkpt>
        <trkpt lat="29.562813" lon="103.350725"><ele>1835.3711</ele><time>2026-05-09T12:09:34.000Z</time></trkpt>
        <trkpt lat="29.562802" lon="103.35066"><ele>1836.1978</ele><time>2026-05-09T12:09:39.000Z</time></trkpt>
        <trkpt lat="29.562782" lon="103.350604"><ele>1836.9087</ele><time>2026-05-09T12:09:44.000Z</time></trkpt>
        <trkpt lat="29.562785" lon="103.350545"><ele>1834.1437</ele><time>2026-05-09T12:09:49.000Z</time></trkpt>
        <trkpt lat="29.562797" lon="103.350493"><ele>1833.2487</ele><time>2026-05-09T12:09:54.000Z</time></trkpt>
        <trkpt lat="29.562799" lon="103.35044"><ele>1830.7272</ele><time>2026-05-09T12:10:00.000Z</time></trkpt>
        <trkpt lat="29.562796" lon="103.350381"><ele>1829.2192</ele><time>2026-05-09T12:10:04.000Z</time></trkpt>
        <trkpt lat="29.562821" lon="103.350334"><ele>1828.2739</ele><time>2026-05-09T12:10:09.000Z</time></trkpt>
        <trkpt lat="29.562832" lon="103.350281"><ele>1828.2571</ele><time>2026-05-09T12:10:14.000Z</time></trkpt>
        <trkpt lat="29.562853" lon="103.350218"><ele>1828.2385</ele><time>2026-05-09T12:10:19.000Z</time></trkpt>
        <trkpt lat="29.562874" lon="103.350156"><ele>1826.1321</ele><time>2026-05-09T12:10:25.000Z</time></trkpt>
        <trkpt lat="29.562875" lon="103.3501"><ele>1825.4879</ele><time>2026-05-09T12:10:30.000Z</time></trkpt>
        <trkpt lat="29.562895" lon="103.350037"><ele>1825.1721</ele><time>2026-05-09T12:10:35.000Z</time></trkpt>
        <trkpt lat="29.562905" lon="103.349981"><ele>1823.8699</ele><time>2026-05-09T12:10:41.000Z</time></trkpt>
        <trkpt lat="29.562916" lon="103.349927"><ele>1823.2485</ele><time>2026-05-09T12:10:46.000Z</time></trkpt>
        <trkpt lat="29.562907" lon="103.349867"><ele>1824.3878</ele><time>2026-05-09T12:10:51.000Z</time></trkpt>
        <trkpt lat="29.562917" lon="103.349814"><ele>1825.0591</ele><time>2026-05-09T12:10:55.000Z</time></trkpt>
        <trkpt lat="29.562931" lon="103.349762"><ele>1823.696</ele><time>2026-05-09T12:11:00.000Z</time></trkpt>
        <trkpt lat="29.562945" lon="103.349712"><ele>1823.0665</ele><time>2026-05-09T12:11:06.000Z</time></trkpt>
        <trkpt lat="29.562948" lon="103.349657"><ele>1823.3846</ele><time>2026-05-09T12:11:12.000Z</time></trkpt>
        <trkpt lat="29.562974" lon="103.349614"><ele>1824.1975</ele><time>2026-05-09T12:11:16.000Z</time></trkpt>
        <trkpt lat="29.563013" lon="103.349576"><ele>1825.56</ele><time>2026-05-09T12:11:21.000Z</time></trkpt>
        <trkpt lat="29.563029" lon="103.349522"><ele>1824.9149</ele><time>2026-05-09T12:11:26.000Z</time></trkpt>
        <trkpt lat="29.56307" lon="103.34948"><ele>1825.1241</ele><time>2026-05-09T12:11:30.000Z</time></trkpt>
        <trkpt lat="29.563087" lon="103.349424"><ele>1824.6774</ele><time>2026-05-09T12:11:35.000Z</time></trkpt>
        <trkpt lat="29.563097" lon="103.34936"><ele>1823.061</ele><time>2026-05-09T12:11:41.000Z</time></trkpt>
        <trkpt lat="29.563112" lon="103.349302"><ele>1825.1373</ele><time>2026-05-09T12:11:45.000Z</time></trkpt>
        <trkpt lat="29.563139" lon="103.349235"><ele>1825.1035</ele><time>2026-05-09T12:11:50.000Z</time></trkpt>
        <trkpt lat="29.563181" lon="103.349188"><ele>1824.8159</ele><time>2026-05-09T12:11:56.000Z</time></trkpt>
        <trkpt lat="29.5632" lon="103.349136"><ele>1824.8462</ele><time>2026-05-09T12:11:59.000Z</time></trkpt>
        <trkpt lat="29.563207" lon="103.349084"><ele>1825.151</ele><time>2026-05-09T12:12:06.000Z</time></trkpt>
        <trkpt lat="29.563192" lon="103.349026"><ele>1827.2747</ele><time>2026-05-09T12:12:11.000Z</time></trkpt>
        <trkpt lat="29.563197" lon="103.348972"><ele>1828.9254</ele><time>2026-05-09T12:12:17.000Z</time></trkpt>
        <trkpt lat="29.563191" lon="103.348907"><ele>1829.9565</ele><time>2026-05-09T12:12:21.000Z</time></trkpt>
        <trkpt lat="29.563223" lon="103.348863"><ele>1831.538</ele><time>2026-05-09T12:12:26.000Z</time></trkpt>
        <trkpt lat="29.56323" lon="103.348809"><ele>1832.0875</ele><time>2026-05-09T12:12:32.000Z</time></trkpt>
        <trkpt lat="29.563236" lon="103.34875"><ele>1833.1223</ele><time>2026-05-09T12:12:37.000Z</time></trkpt>
        <trkpt lat="29.563217" lon="103.348686"><ele>1831.389</ele><time>2026-05-09T12:12:42.000Z</time></trkpt>
        <trkpt lat="29.563226" lon="103.34863"><ele>1831.9336</ele><time>2026-05-09T12:12:48.000Z</time></trkpt>
        <trkpt lat="29.563231" lon="103.348575"><ele>1831.4149</ele><time>2026-05-09T12:12:52.000Z</time></trkpt>
        <trkpt lat="29.563229" lon="103.348519"><ele>1832.7532</ele><time>2026-05-09T12:12:56.000Z</time></trkpt>
        <trkpt lat="29.563237" lon="103.34846"><ele>1831.7432</ele><time>2026-05-09T12:13:01.000Z</time></trkpt>
        <trkpt lat="29.563258" lon="103.348411"><ele>1831.8303</ele><time>2026-05-09T12:13:06.000Z</time></trkpt>
        <trkpt lat="29.563266" lon="103.348358"><ele>1830.3658</ele><time>2026-05-09T12:13:12.000Z</time></trkpt>
        <trkpt lat="29.563295" lon="103.348295"><ele>1832.3639</ele><time>2026-05-09T12:13:18.000Z</time></trkpt>
        <trkpt lat="29.563328" lon="103.348256"><ele>1832.9716</ele><time>2026-05-09T12:13:23.000Z</time></trkpt>
        <trkpt lat="29.563377" lon="103.348221"><ele>1833.4332</ele><time>2026-05-09T12:13:30.000Z</time></trkpt>
        <trkpt lat="29.563393" lon="103.348155"><ele>1833.7452</ele><time>2026-05-09T12:13:36.000Z</time></trkpt>
        <trkpt lat="29.563409" lon="103.348099"><ele>1834.3461</ele><time>2026-05-09T12:13:40.000Z</time></trkpt>
        <trkpt lat="29.563417" lon="103.348041"><ele>1834.4994</ele><time>2026-05-09T12:13:44.000Z</time></trkpt>
        <trkpt lat="29.563455" lon="103.347998"><ele>1834.8508</ele><time>2026-05-09T12:13:48.000Z</time></trkpt>
        <trkpt lat="29.563497" lon="103.347978"><ele>1833.3829</ele><time>2026-05-09T12:13:52.000Z</time></trkpt>
        <trkpt lat="29.563537" lon="103.347937"><ele>1833.6542</ele><time>2026-05-09T12:13:56.000Z</time></trkpt>
        <trkpt lat="29.563554" lon="103.347878"><ele>1833.3022</ele><time>2026-05-09T12:14:00.000Z</time></trkpt>
        <trkpt lat="29.563547" lon="103.347827"><ele>1830.9937</ele><time>2026-05-09T12:14:07.000Z</time></trkpt>
        <trkpt lat="29.563558" lon="103.347773"><ele>1830.6432</ele><time>2026-05-09T12:14:11.000Z</time></trkpt>
        <trkpt lat="29.563556" lon="103.347713"><ele>1829.843</ele><time>2026-05-09T12:14:17.000Z</time></trkpt>
        <trkpt lat="29.563547" lon="103.34766"><ele>1828.5945</ele><time>2026-05-09T12:14:22.000Z</time></trkpt>
        <trkpt lat="29.563555" lon="103.347602"><ele>1827.3431</ele><time>2026-05-09T12:14:27.000Z</time></trkpt>
        <trkpt lat="29.563567" lon="103.347548"><ele>1825.9774</ele><time>2026-05-09T12:14:33.000Z</time></trkpt>
        <trkpt lat="29.563564" lon="103.347496"><ele>1825.1089</ele><time>2026-05-09T12:14:39.000Z</time></trkpt>
        <trkpt lat="29.563544" lon="103.347448"><ele>1825.6245</ele><time>2026-05-09T12:14:44.000Z</time></trkpt>
        <trkpt lat="29.563514" lon="103.347404"><ele>1823.9192</ele><time>2026-05-09T12:14:49.000Z</time></trkpt>
        <trkpt lat="29.563487" lon="103.347356"><ele>1823.9436</ele><time>2026-05-09T12:14:53.000Z</time></trkpt>
        <trkpt lat="29.563461" lon="103.347309"><ele>1824.8102</ele><time>2026-05-09T12:14:58.000Z</time></trkpt>
        <trkpt lat="29.563437" lon="103.347259"><ele>1824.2495</ele><time>2026-05-09T12:15:05.000Z</time></trkpt>
        <trkpt lat="29.563395" lon="103.347223"><ele>1824.3176</ele><time>2026-05-09T12:15:11.000Z</time></trkpt>
        <trkpt lat="29.563352" lon="103.347186"><ele>1823.9196</ele><time>2026-05-09T12:15:18.000Z</time></trkpt>
        <trkpt lat="29.563305" lon="103.34717"><ele>1825.5739</ele><time>2026-05-09T12:15:24.000Z</time></trkpt>
        <trkpt lat="29.563261" lon="103.347151"><ele>1825.8972</ele><time>2026-05-09T12:15:28.000Z</time></trkpt>
        <trkpt lat="29.563215" lon="103.34712"><ele>1826.482</ele><time>2026-05-09T12:15:33.000Z</time></trkpt>
        <trkpt lat="29.56318" lon="103.347062"><ele>1827.9143</ele><time>2026-05-09T12:15:38.000Z</time></trkpt>
        <trkpt lat="29.563149" lon="103.347014"><ele>1827.6139</ele><time>2026-05-09T12:15:43.000Z</time></trkpt>
        <trkpt lat="29.563116" lon="103.346961"><ele>1826.3838</ele><time>2026-05-09T12:15:48.000Z</time></trkpt>
        <trkpt lat="29.563071" lon="103.346912"><ele>1827.0767</ele><time>2026-05-09T12:15:54.000Z</time></trkpt>
        <trkpt lat="29.563047" lon="103.346863"><ele>1823.5587</ele><time>2026-05-09T12:16:00.000Z</time></trkpt>
        <trkpt lat="29.563019" lon="103.346809"><ele>1821.5349</ele><time>2026-05-09T12:16:07.000Z</time></trkpt>
        <trkpt lat="29.562978" lon="103.346773"><ele>1819.2109</ele><time>2026-05-09T12:16:11.000Z</time></trkpt>
        <trkpt lat="29.562929" lon="103.346738"><ele>1819.4287</ele><time>2026-05-09T12:16:15.000Z</time></trkpt>
        <trkpt lat="29.56289" lon="103.346705"><ele>1819.0986</ele><time>2026-05-09T12:16:19.000Z</time></trkpt>
        <trkpt lat="29.562881" lon="103.346651"><ele>1818.6768</ele><time>2026-05-09T12:16:24.000Z</time></trkpt>
        <trkpt lat="29.56286" lon="103.3466"><ele>1819.2054</ele><time>2026-05-09T12:16:28.000Z</time></trkpt>
        <trkpt lat="29.562824" lon="103.346558"><ele>1818.369</ele><time>2026-05-09T12:16:32.000Z</time></trkpt>
        <trkpt lat="29.562778" lon="103.346521"><ele>1817.5802</ele><time>2026-05-09T12:16:37.000Z</time></trkpt>
        <trkpt lat="29.562729" lon="103.346496"><ele>1817.7739</ele><time>2026-05-09T12:16:41.000Z</time></trkpt>
        <trkpt lat="29.562679" lon="103.346499"><ele>1817.8098</ele><time>2026-05-09T12:16:45.000Z</time></trkpt>
        <trkpt lat="29.562639" lon="103.346474"><ele>1818.7686</ele><time>2026-05-09T12:16:49.000Z</time></trkpt>
        <trkpt lat="29.562594" lon="103.346437"><ele>1818.3104</ele><time>2026-05-09T12:16:53.000Z</time></trkpt>
        <trkpt lat="29.562556" lon="103.34639"><ele>1819.0808</ele><time>2026-05-09T12:16:57.000Z</time></trkpt>
        <trkpt lat="29.562516" lon="103.346355"><ele>1819.6493</ele><time>2026-05-09T12:17:01.000Z</time></trkpt>
        <trkpt lat="29.562472" lon="103.346336"><ele>1819.0814</ele><time>2026-05-09T12:17:07.000Z</time></trkpt>
        <trkpt lat="29.562441" lon="103.346295"><ele>1818.4832</ele><time>2026-05-09T12:17:11.000Z</time></trkpt>
        <trkpt lat="29.562414" lon="103.346251"><ele>1816.7233</ele><time>2026-05-09T12:17:16.000Z</time></trkpt>
        <trkpt lat="29.562388" lon="103.346207"><ele>1816.2731</ele><time>2026-05-09T12:17:19.000Z</time></trkpt>
        <trkpt lat="29.562344" lon="103.346166"><ele>1816.3121</ele><time>2026-05-09T12:17:23.000Z</time></trkpt>
        <trkpt lat="29.562308" lon="103.346132"><ele>1815.6937</ele><time>2026-05-09T12:17:28.000Z</time></trkpt>
        <trkpt lat="29.562282" lon="103.346083"><ele>1815.0431</ele><time>2026-05-09T12:17:32.000Z</time></trkpt>
        <trkpt lat="29.562266" lon="103.346031"><ele>1815.3707</ele><time>2026-05-09T12:17:36.000Z</time></trkpt>
        <trkpt lat="29.56225" lon="103.345972"><ele>1813.4767</ele><time>2026-05-09T12:17:40.000Z</time></trkpt>
        <trkpt lat="29.562222" lon="103.345931"><ele>1812.5554</ele><time>2026-05-09T12:17:44.000Z</time></trkpt>
        <trkpt lat="29.562198" lon="103.345878"><ele>1811.4581</ele><time>2026-05-09T12:17:48.000Z</time></trkpt>
        <trkpt lat="29.562168" lon="103.345826"><ele>1811.8372</ele><time>2026-05-09T12:17:52.000Z</time></trkpt>
        <trkpt lat="29.562143" lon="103.345777"><ele>1811.7623</ele><time>2026-05-09T12:17:57.000Z</time></trkpt>
        <trkpt lat="29.562111" lon="103.345741"><ele>1812.5192</ele><time>2026-05-09T12:18:00.000Z</time></trkpt>
        <trkpt lat="29.562069" lon="103.345699"><ele>1812.6278</ele><time>2026-05-09T12:18:05.000Z</time></trkpt>
        <trkpt lat="29.562023" lon="103.345662"><ele>1813.3792</ele><time>2026-05-09T12:18:09.000Z</time></trkpt>
        <trkpt lat="29.561984" lon="103.345626"><ele>1813.08</ele><time>2026-05-09T12:18:16.000Z</time></trkpt>
        <trkpt lat="29.56193" lon="103.345622"><ele>1813.1495</ele><time>2026-05-09T12:18:21.000Z</time></trkpt>
        <trkpt lat="29.561881" lon="103.345616"><ele>1814.463</ele><time>2026-05-09T12:18:26.000Z</time></trkpt>
        <trkpt lat="29.561827" lon="103.345603"><ele>1816.9231</ele><time>2026-05-09T12:18:31.000Z</time></trkpt>
        <trkpt lat="29.561785" lon="103.345621"><ele>1815.4442</ele><time>2026-05-09T12:18:45.000Z</time></trkpt>
        <trkpt lat="29.561737" lon="103.345618"><ele>1815.7867</ele><time>2026-05-09T12:18:49.000Z</time></trkpt>
        <trkpt lat="29.561684" lon="103.345635"><ele>1816.9138</ele><time>2026-05-09T12:18:53.000Z</time></trkpt>
        <trkpt lat="29.56164" lon="103.34562"><ele>1819.1818</ele><time>2026-05-09T12:18:58.000Z</time></trkpt>
        <trkpt lat="29.561594" lon="103.345584"><ele>1817.2715</ele><time>2026-05-09T12:19:02.000Z</time></trkpt>
        <trkpt lat="29.561553" lon="103.345544"><ele>1816.6661</ele><time>2026-05-09T12:19:07.000Z</time></trkpt>
        <trkpt lat="29.561514" lon="103.345513"><ele>1815.7496</ele><time>2026-05-09T12:19:11.000Z</time></trkpt>
        <trkpt lat="29.561481" lon="103.345471"><ele>1814.0887</ele><time>2026-05-09T12:19:16.000Z</time></trkpt>
        <trkpt lat="29.561461" lon="103.345422"><ele>1813.7998</ele><time>2026-05-09T12:19:20.000Z</time></trkpt>
        <trkpt lat="29.561435" lon="103.345374"><ele>1812.6556</ele><time>2026-05-09T12:19:24.000Z</time></trkpt>
        <trkpt lat="29.561405" lon="103.34533"><ele>1812.8442</ele><time>2026-05-09T12:19:29.000Z</time></trkpt>
        <trkpt lat="29.561379" lon="103.34528"><ele>1813.789</ele><time>2026-05-09T12:19:35.000Z</time></trkpt>
        <trkpt lat="29.561336" lon="103.345263"><ele>1815.9023</ele><time>2026-05-09T12:19:39.000Z</time></trkpt>
        <trkpt lat="29.56133" lon="103.345202"><ele>1817.9398</ele><time>2026-05-09T12:20:14.000Z</time></trkpt>
        <trkpt lat="29.561283" lon="103.345209"><ele>1819.8403</ele><time>2026-05-09T12:20:22.000Z</time></trkpt>
        <trkpt lat="29.561255" lon="103.345154"><ele>1823.654</ele><time>2026-05-09T12:20:34.000Z</time></trkpt>
        <trkpt lat="29.561208" lon="103.345146"><ele>1827.5176</ele><time>2026-05-09T12:20:48.000Z</time></trkpt>
        <trkpt lat="29.561209" lon="103.345092"><ele>1828.4153</ele><time>2026-05-09T12:21:04.000Z</time></trkpt>
        <trkpt lat="29.561168" lon="103.345065"><ele>1832.3893</ele><time>2026-05-09T12:21:24.000Z</time></trkpt>
        <trkpt lat="29.561139" lon="103.345023"><ele>1832.5406</ele><time>2026-05-09T12:21:33.000Z</time></trkpt>
        <trkpt lat="29.561107" lon="103.345074"><ele>1837.3726</ele><time>2026-05-09T12:21:53.000Z</time></trkpt>
        <trkpt lat="29.561066" lon="103.345053"><ele>1837.8892</ele><time>2026-05-09T12:22:51.000Z</time></trkpt>
        <trkpt lat="29.56106" lon="103.344999"><ele>1840.4357</ele><time>2026-05-09T12:23:05.000Z</time></trkpt>
        <trkpt lat="29.561014" lon="103.345024"><ele>1848.3779</ele><time>2026-05-09T12:23:49.000Z</time></trkpt>
        <trkpt lat="29.560974" lon="103.34505"><ele>1850.8293</ele><time>2026-05-09T12:24:01.000Z</time></trkpt>
        <trkpt lat="29.560934" lon="103.345075"><ele>1853.179</ele><time>2026-05-09T12:24:14.000Z</time></trkpt>
        <trkpt lat="29.560881" lon="103.345085"><ele>1853.671</ele><time>2026-05-09T12:24:28.000Z</time></trkpt>
        <trkpt lat="29.560877" lon="103.345022"><ele>1858.2443</ele><time>2026-05-09T12:24:43.000Z</time></trkpt>
        <trkpt lat="29.560848" lon="103.34498"><ele>1860.7567</ele><time>2026-05-09T12:25:07.000Z</time></trkpt>
        <trkpt lat="29.560832" lon="103.34493"><ele>1862.4825</ele><time>2026-05-09T12:25:19.000Z</time></trkpt>
        <trkpt lat="29.560829" lon="103.344876"><ele>1864.3772</ele><time>2026-05-09T12:25:32.000Z</time></trkpt>
        <trkpt lat="29.560809" lon="103.344923"><ele>1867.5613</ele><time>2026-05-09T12:25:50.000Z</time></trkpt>
        <trkpt lat="29.560764" lon="103.344928"><ele>1870.1252</ele><time>2026-05-09T12:26:04.000Z</time></trkpt>
        <trkpt lat="29.560723" lon="103.344901"><ele>1874.0273</ele><time>2026-05-09T12:26:29.000Z</time></trkpt>
        <trkpt lat="29.56072" lon="103.344849"><ele>1875.8613</ele><time>2026-05-09T12:26:47.000Z</time></trkpt>
        <trkpt lat="29.56072" lon="103.344792"><ele>1878.9774</ele><time>2026-05-09T12:27:01.000Z</time></trkpt>
        <trkpt lat="29.560702" lon="103.344739"><ele>1882.0529</ele><time>2026-05-09T12:27:17.000Z</time></trkpt>
        <trkpt lat="29.560666" lon="103.344702"><ele>1886.0642</ele><time>2026-05-09T12:27:33.000Z</time></trkpt>
        <trkpt lat="29.560628" lon="103.344743"><ele>1889.7001</ele><time>2026-05-09T12:27:41.000Z</time></trkpt>
        <trkpt lat="29.560675" lon="103.344738"><ele>1889.2993</ele><time>2026-05-09T12:27:56.000Z</time></trkpt>
        <trkpt lat="29.560675" lon="103.344681"><ele>1886.2036</ele><time>2026-05-09T12:28:08.000Z</time></trkpt>
        <trkpt lat="29.560634" lon="103.344722"><ele>1885.9513</ele><time>2026-05-09T12:31:18.000Z</time></trkpt>
        <trkpt lat="29.560597" lon="103.344686"><ele>1889.6389</ele><time>2026-05-09T12:31:36.000Z</time></trkpt>
        <trkpt lat="29.560568" lon="103.344644"><ele>1889.8647</ele><time>2026-05-09T12:31:42.000Z</time></trkpt>
        <trkpt lat="29.560519" lon="103.344646"><ele>1895.6262</ele><time>2026-05-09T12:31:57.000Z</time></trkpt>
        <trkpt lat="29.560473" lon="103.344625"><ele>1898.5125</ele><time>2026-05-09T12:32:13.000Z</time></trkpt>
        <trkpt lat="29.56042" lon="103.344606"><ele>1900.4027</ele><time>2026-05-09T12:32:29.000Z</time></trkpt>
        <trkpt lat="29.560406" lon="103.344555"><ele>1902.865</ele><time>2026-05-09T12:32:44.000Z</time></trkpt>
        <trkpt lat="29.560364" lon="103.344512"><ele>1903.3602</ele><time>2026-05-09T12:33:24.000Z</time></trkpt>
        <trkpt lat="29.560315" lon="103.344522"><ele>1905.4852</ele><time>2026-05-09T12:33:37.000Z</time></trkpt>
        <trkpt lat="29.560276" lon="103.344491"><ele>1911.667</ele><time>2026-05-09T12:33:50.000Z</time></trkpt>
        <trkpt lat="29.560246" lon="103.344451"><ele>1916.5823</ele><time>2026-05-09T12:34:14.000Z</time></trkpt>
        <trkpt lat="29.560205" lon="103.344429"><ele>1918.2264</ele><time>2026-05-09T12:34:26.000Z</time></trkpt>
        <trkpt lat="29.560181" lon="103.344377"><ele>1919.9355</ele><time>2026-05-09T12:34:47.000Z</time></trkpt>
        <trkpt lat="29.560148" lon="103.344337"><ele>1923.3052</ele><time>2026-05-09T12:35:05.000Z</time></trkpt>
        <trkpt lat="29.560154" lon="103.344275"><ele>1927.0037</ele><time>2026-05-09T12:35:17.000Z</time></trkpt>
        <trkpt lat="29.560191" lon="103.344236"><ele>1926.5226</ele><time>2026-05-09T12:35:29.000Z</time></trkpt>
        <trkpt lat="29.560123" lon="103.344223"><ele>1929.1447</ele><time>2026-05-09T12:35:49.000Z</time></trkpt>
        <trkpt lat="29.560079" lon="103.34425"><ele>1932.8936</ele><time>2026-05-09T12:35:56.000Z</time></trkpt>
        <trkpt lat="29.560033" lon="103.344231"><ele>1934.7642</ele><time>2026-05-09T12:36:17.000Z</time></trkpt>
        <trkpt lat="29.560065" lon="103.34418"><ele>1935.2932</ele><time>2026-05-09T12:36:27.000Z</time></trkpt>
        <trkpt lat="29.560066" lon="103.344127"><ele>1937.9543</ele><time>2026-05-09T12:37:08.000Z</time></trkpt>
        <trkpt lat="29.560098" lon="103.344088"><ele>1939.4142</ele><time>2026-05-09T12:37:32.000Z</time></trkpt>
        <trkpt lat="29.560074" lon="103.34404"><ele>1945.9957</ele><time>2026-05-09T12:38:26.000Z</time></trkpt>
        <trkpt lat="29.560013" lon="103.34401"><ele>1947.5931</ele><time>2026-05-09T12:38:41.000Z</time></trkpt>
        <trkpt lat="29.560056" lon="103.343988"><ele>1948.6499</ele><time>2026-05-09T12:38:44.000Z</time></trkpt>
        <trkpt lat="29.560119" lon="103.343965"><ele>1950.3049</ele><time>2026-05-09T12:38:55.000Z</time></trkpt>
        <trkpt lat="29.560114" lon="103.343912"><ele>1950.0876</ele><time>2026-05-09T12:39:13.000Z</time></trkpt>
        <trkpt lat="29.560073" lon="103.34388"><ele>1953.5717</ele><time>2026-05-09T12:39:30.000Z</time></trkpt>
        <trkpt lat="29.560027" lon="103.343876"><ele>1956.9025</ele><time>2026-05-09T12:39:38.000Z</time></trkpt>
        <trkpt lat="29.55999" lon="103.343841"><ele>1959.4203</ele><time>2026-05-09T12:39:53.000Z</time></trkpt>
        <trkpt lat="29.559946" lon="103.343821"><ele>1962.9028</ele><time>2026-05-09T12:40:06.000Z</time></trkpt>
        <trkpt lat="29.559901" lon="103.343805"><ele>1963.3663</ele><time>2026-05-09T12:40:16.000Z</time></trkpt>
        <trkpt lat="29.559895" lon="103.343751"><ele>1965.7</ele><time>2026-05-09T12:40:22.000Z</time></trkpt>
        <trkpt lat="29.55986" lon="103.343714"><ele>1970.9324</ele><time>2026-05-09T12:41:04.000Z</time></trkpt>
        <trkpt lat="29.559817" lon="103.343696"><ele>1971.8995</ele><time>2026-05-09T12:41:13.000Z</time></trkpt>
        <trkpt lat="29.559792" lon="103.343652"><ele>1973.3759</ele><time>2026-05-09T12:41:28.000Z</time></trkpt>
        <trkpt lat="29.559761" lon="103.343608"><ele>1974.8839</ele><time>2026-05-09T12:41:41.000Z</time></trkpt>
        <trkpt lat="29.559716" lon="103.343611"><ele>1978.3909</ele><time>2026-05-09T12:41:51.000Z</time></trkpt>
        <trkpt lat="29.559719" lon="103.343559"><ele>1979.9487</ele><time>2026-05-09T12:41:57.000Z</time></trkpt>
        <trkpt lat="29.559703" lon="103.343508"><ele>1980.4839</ele><time>2026-05-09T12:42:10.000Z</time></trkpt>
        <trkpt lat="29.55965" lon="103.343487"><ele>1982.0957</ele><time>2026-05-09T12:42:18.000Z</time></trkpt>
        <trkpt lat="29.559696" lon="103.343506"><ele>1983.6628</ele><time>2026-05-09T12:42:36.000Z</time></trkpt>
        <trkpt lat="29.559637" lon="103.343503"><ele>1985.7052</ele><time>2026-05-09T12:42:50.000Z</time></trkpt>
        <trkpt lat="29.559669" lon="103.343546"><ele>1986.0352</ele><time>2026-05-09T12:42:55.000Z</time></trkpt>
        <trkpt lat="29.559708" lon="103.343581"><ele>1986.7772</ele><time>2026-05-09T12:43:00.000Z</time></trkpt>
        <trkpt lat="29.559665" lon="103.343606"><ele>1987.3951</ele><time>2026-05-09T12:43:09.000Z</time></trkpt>
        <trkpt lat="29.559626" lon="103.343577"><ele>1988.1693</ele><time>2026-05-09T12:43:25.000Z</time></trkpt>
        <trkpt lat="29.559575" lon="103.343569"><ele>1992.718</ele><time>2026-05-09T12:44:05.000Z</time></trkpt>
        <trkpt lat="29.559532" lon="103.343543"><ele>1993.7925</ele><time>2026-05-09T12:44:16.000Z</time></trkpt>
        <trkpt lat="29.559496" lon="103.343491"><ele>1995.4377</ele><time>2026-05-09T12:44:32.000Z</time></trkpt>
        <trkpt lat="29.559462" lon="103.343536"><ele>1993.6992</ele><time>2026-05-09T12:44:46.000Z</time></trkpt>
        <trkpt lat="29.559447" lon="103.343586"><ele>1998.9608</ele><time>2026-05-09T12:44:58.000Z</time></trkpt>
        <trkpt lat="29.559399" lon="103.343595"><ele>2004.5564</ele><time>2026-05-09T12:45:17.000Z</time></trkpt>
        <trkpt lat="29.559356" lon="103.343615"><ele>2008.2483</ele><time>2026-05-09T12:45:30.000Z</time></trkpt>
        <trkpt lat="29.559308" lon="103.343605"><ele>2011.5205</ele><time>2026-05-09T12:45:43.000Z</time></trkpt>
        <trkpt lat="29.559366" lon="103.343608"><ele>2009.5962</ele><time>2026-05-09T12:46:35.000Z</time></trkpt>
        <trkpt lat="29.559317" lon="103.343607"><ele>2011.6577</ele><time>2026-05-09T12:48:39.000Z</time></trkpt>
        <trkpt lat="29.559272" lon="103.343621"><ele>2015.7117</ele><time>2026-05-09T12:54:25.000Z</time></trkpt>
        <trkpt lat="29.559281" lon="103.343675"><ele>2014.6561</ele><time>2026-05-09T12:54:57.000Z</time></trkpt>
        <trkpt lat="29.559259" lon="103.343721"><ele>2016.8334</ele><time>2026-05-09T12:55:12.000Z</time></trkpt>
        <trkpt lat="29.559244" lon="103.343771"><ele>2017.4705</ele><time>2026-05-09T12:55:23.000Z</time></trkpt>
        <trkpt lat="29.559192" lon="103.343815"><ele>2021.2787</ele><time>2026-05-09T12:55:35.000Z</time></trkpt>
        <trkpt lat="29.559154" lon="103.343775"><ele>2024.4137</ele><time>2026-05-09T12:56:01.000Z</time></trkpt>
        <trkpt lat="29.559133" lon="103.343728"><ele>2027.0824</ele><time>2026-05-09T12:56:17.000Z</time></trkpt>
        <trkpt lat="29.559086" lon="103.343707"><ele>2029.2649</ele><time>2026-05-09T12:56:35.000Z</time></trkpt>
        <trkpt lat="29.559031" lon="103.343683"><ele>2030.9679</ele><time>2026-05-09T12:56:46.000Z</time></trkpt>
        <trkpt lat="29.55899" lon="103.343655"><ele>2038.7258</ele><time>2026-05-09T12:57:17.000Z</time></trkpt>
        <trkpt lat="29.558999" lon="103.343709"><ele>2039.419</ele><time>2026-05-09T12:57:35.000Z</time></trkpt>
        <trkpt lat="29.558962" lon="103.34374"><ele>2042.1123</ele><time>2026-05-09T12:57:46.000Z</time></trkpt>
        <trkpt lat="29.55892" lon="103.343761"><ele>2043.0154</ele><time>2026-05-09T12:57:55.000Z</time></trkpt>
        <trkpt lat="29.558882" lon="103.3438"><ele>2045.3511</ele><time>2026-05-09T12:58:15.000Z</time></trkpt>
        <trkpt lat="29.558889" lon="103.343856"><ele>2046.1451</ele><time>2026-05-09T12:58:20.000Z</time></trkpt>
        <trkpt lat="29.558901" lon="103.343909"><ele>2045.6501</ele><time>2026-05-09T12:58:25.000Z</time></trkpt>
        <trkpt lat="29.558912" lon="103.343963"><ele>2045.3081</ele><time>2026-05-09T12:58:29.000Z</time></trkpt>
        <trkpt lat="29.558927" lon="103.344018"><ele>2046.8455</ele><time>2026-05-09T12:58:34.000Z</time></trkpt>
        <trkpt lat="29.558937" lon="103.344079"><ele>2047.5645</ele><time>2026-05-09T12:58:39.000Z</time></trkpt>
        <trkpt lat="29.558946" lon="103.344131"><ele>2048.527</ele><time>2026-05-09T12:58:48.000Z</time></trkpt>
        <trkpt lat="29.558903" lon="103.344118"><ele>2044.7559</ele><time>2026-05-09T12:58:53.000Z</time></trkpt>
        <trkpt lat="29.558879" lon="103.344072"><ele>2044.9147</ele><time>2026-05-09T12:58:58.000Z</time></trkpt>
        <trkpt lat="29.558876" lon="103.344124"><ele>2051.3743</ele><time>2026-05-09T12:59:19.000Z</time></trkpt>
        <trkpt lat="29.558868" lon="103.344177"><ele>2051.6294</ele><time>2026-05-09T12:59:32.000Z</time></trkpt>
        <trkpt lat="29.558854" lon="103.344232"><ele>2052.6287</ele><time>2026-05-09T12:59:41.000Z</time></trkpt>
        <trkpt lat="29.558854" lon="103.344292"><ele>2054.221</ele><time>2026-05-09T12:59:50.000Z</time></trkpt>
        <trkpt lat="29.558808" lon="103.34428"><ele>2056.5706</ele><time>2026-05-09T13:00:13.000Z</time></trkpt>
        <trkpt lat="29.558798" lon="103.344224"><ele>2057.7078</ele><time>2026-05-09T13:00:19.000Z</time></trkpt>
        <trkpt lat="29.558748" lon="103.344214"><ele>2062.3662</ele><time>2026-05-09T13:00:49.000Z</time></trkpt>
        <trkpt lat="29.558697" lon="103.344199"><ele>2063.9622</ele><time>2026-05-09T13:01:01.000Z</time></trkpt>
        <trkpt lat="29.558647" lon="103.344204"><ele>2063.3335</ele><time>2026-05-09T13:01:11.000Z</time></trkpt>
        <trkpt lat="29.558586" lon="103.344186"><ele>2060.8665</ele><time>2026-05-09T13:01:17.000Z</time></trkpt>
        <trkpt lat="29.558542" lon="103.344179"><ele>2067.9385</ele><time>2026-05-09T13:01:49.000Z</time></trkpt>
        <trkpt lat="29.558503" lon="103.34415"><ele>2071.2688</ele><time>2026-05-09T13:02:09.000Z</time></trkpt>
        <trkpt lat="29.558474" lon="103.34411"><ele>2072.694</ele><time>2026-05-09T13:03:22.000Z</time></trkpt>
        <trkpt lat="29.558422" lon="103.344105"><ele>2075.5024</ele><time>2026-05-09T13:03:42.000Z</time></trkpt>
        <trkpt lat="29.558389" lon="103.344065"><ele>2075.5583</ele><time>2026-05-09T13:03:58.000Z</time></trkpt>
        <trkpt lat="29.558412" lon="103.344014"><ele>2075.7688</ele><time>2026-05-09T13:04:02.000Z</time></trkpt>
        <trkpt lat="29.558393" lon="103.344067"><ele>2076.866</ele><time>2026-05-09T13:04:31.000Z</time></trkpt>
        <trkpt lat="29.558384" lon="103.344121"><ele>2076.6665</ele><time>2026-05-09T13:04:36.000Z</time></trkpt>
        <trkpt lat="29.558432" lon="103.344123"><ele>2076.9294</ele><time>2026-05-09T13:05:03.000Z</time></trkpt>
        <trkpt lat="29.558385" lon="103.344132"><ele>2077.0957</ele><time>2026-05-09T13:06:38.000Z</time></trkpt>
        <trkpt lat="29.558334" lon="103.344112"><ele>2078.0623</ele><time>2026-05-09T13:06:42.000Z</time></trkpt>
        <trkpt lat="29.558298" lon="103.34408"><ele>2077.4822</ele><time>2026-05-09T13:06:51.000Z</time></trkpt>
        <trkpt lat="29.558351" lon="103.344082"><ele>2075.3267</ele><time>2026-05-09T13:07:03.000Z</time></trkpt>
        <trkpt lat="29.558166" lon="103.344118"><ele>2070.3635</ele><time>2026-05-09T13:07:15.000Z</time></trkpt>
        <trkpt lat="29.558039" lon="103.344138"><ele>2069.369</ele><time>2026-05-09T13:07:22.000Z</time></trkpt>
        <trkpt lat="29.557993" lon="103.344161"><ele>2067.5242</ele><time>2026-05-09T13:07:26.000Z</time></trkpt>
        <trkpt lat="29.557815" lon="103.344192"><ele>2064.4849</ele><time>2026-05-09T13:07:42.000Z</time></trkpt>
        <trkpt lat="29.557763" lon="103.344196"><ele>2065.0696</ele><time>2026-05-09T13:07:46.000Z</time></trkpt>
        <trkpt lat="29.557988" lon="103.344043"><ele>2062.995</ele><time>2026-05-09T13:07:51.000Z</time></trkpt>
        <trkpt lat="29.557738" lon="103.343948"><ele>2063.7378</ele><time>2026-05-09T13:08:21.000Z</time></trkpt>
        <trkpt lat="29.557688" lon="103.343943"><ele>2064.6116</ele><time>2026-05-09T13:08:32.000Z</time></trkpt>
        <trkpt lat="29.557634" lon="103.343927"><ele>2071.05</ele><time>2026-05-09T13:08:37.000Z</time></trkpt>
        <trkpt lat="29.557588" lon="103.343911"><ele>2076.0864</ele><time>2026-05-09T13:08:41.000Z</time></trkpt>
        <trkpt lat="29.557546" lon="103.343876"><ele>2076.836</ele><time>2026-05-09T13:08:47.000Z</time></trkpt>
        <trkpt lat="29.557517" lon="103.343831"><ele>2074.9502</ele><time>2026-05-09T13:08:56.000Z</time></trkpt>
        <trkpt lat="29.557502" lon="103.34378"><ele>2074.958</ele><time>2026-05-09T13:09:01.000Z</time></trkpt>
        <trkpt lat="29.557471" lon="103.343726"><ele>2074.5566</ele><time>2026-05-09T13:09:07.000Z</time></trkpt>
        <trkpt lat="29.55744" lon="103.343685"><ele>2074.9333</ele><time>2026-05-09T13:09:12.000Z</time></trkpt>
        <trkpt lat="29.557379" lon="103.343675"><ele>2073.5925</ele><time>2026-05-09T13:09:20.000Z</time></trkpt>
        <trkpt lat="29.557424" lon="103.343689"><ele>2073.6833</ele><time>2026-05-09T13:09:30.000Z</time></trkpt>
        <trkpt lat="29.55738" lon="103.343676"><ele>2072.1423</ele><time>2026-05-09T13:10:36.000Z</time></trkpt>
        <trkpt lat="29.557333" lon="103.343663"><ele>2075.407</ele><time>2026-05-09T13:10:45.000Z</time></trkpt>
        <trkpt lat="29.557326" lon="103.343718"><ele>2077.7256</ele><time>2026-05-09T13:11:09.000Z</time></trkpt>
        <trkpt lat="29.557347" lon="103.343664"><ele>2076.5425</ele><time>2026-05-09T13:11:51.000Z</time></trkpt>
        <trkpt lat="29.557302" lon="103.34365"><ele>2079.6316</ele><time>2026-05-09T13:12:09.000Z</time></trkpt>
        <trkpt lat="29.557259" lon="103.343633"><ele>2082.819</ele><time>2026-05-09T13:12:33.000Z</time></trkpt>
        <trkpt lat="29.557213" lon="103.343616"><ele>2088.224</ele><time>2026-05-09T13:13:18.000Z</time></trkpt>
        <trkpt lat="29.557169" lon="103.343595"><ele>2090.2532</ele><time>2026-05-09T13:13:36.000Z</time></trkpt>
        <trkpt lat="29.557116" lon="103.343599"><ele>2091.7913</ele><time>2026-05-09T13:13:47.000Z</time></trkpt>
        <trkpt lat="29.557112" lon="103.34365"><ele>2089.5417</ele><time>2026-05-09T13:13:51.000Z</time></trkpt>
        <trkpt lat="29.557059" lon="103.343641"><ele>2093.578</ele><time>2026-05-09T13:14:39.000Z</time></trkpt>
        <trkpt lat="29.557016" lon="103.343669"><ele>2098.5388</ele><time>2026-05-09T13:14:51.000Z</time></trkpt>
        <trkpt lat="29.556969" lon="103.343681"><ele>2098.937</ele><time>2026-05-09T13:15:00.000Z</time></trkpt>
        <trkpt lat="29.556928" lon="103.343703"><ele>2099.4985</ele><time>2026-05-09T13:15:07.000Z</time></trkpt>
        <trkpt lat="29.556878" lon="103.343728"><ele>2101.5454</ele><time>2026-05-09T13:15:23.000Z</time></trkpt>
        <trkpt lat="29.556837" lon="103.343757"><ele>2101.5842</ele><time>2026-05-09T13:15:37.000Z</time></trkpt>
        <trkpt lat="29.556792" lon="103.343741"><ele>2103.9692</ele><time>2026-05-09T13:15:45.000Z</time></trkpt>
        <trkpt lat="29.556755" lon="103.343708"><ele>2103.4688</ele><time>2026-05-09T13:15:56.000Z</time></trkpt>
        <trkpt lat="29.556705" lon="103.343714"><ele>2106.1677</ele><time>2026-05-09T13:16:08.000Z</time></trkpt>
        <trkpt lat="29.556661" lon="103.343745"><ele>2107.4395</ele><time>2026-05-09T13:16:26.000Z</time></trkpt>
        <trkpt lat="29.55663" lon="103.343786"><ele>2110.9844</ele><time>2026-05-09T13:16:54.000Z</time></trkpt>
        <trkpt lat="29.556605" lon="103.343834"><ele>2113.8242</ele><time>2026-05-09T13:17:12.000Z</time></trkpt>
        <trkpt lat="29.556569" lon="103.34387"><ele>2117.361</ele><time>2026-05-09T13:17:26.000Z</time></trkpt>
        <trkpt lat="29.55658" lon="103.343925"><ele>2113.8896</ele><time>2026-05-09T13:17:51.000Z</time></trkpt>
        <trkpt lat="29.55657" lon="103.343991"><ele>2121.8389</ele><time>2026-05-09T13:18:12.000Z</time></trkpt>
        <trkpt lat="29.556544" lon="103.344037"><ele>2128.1685</ele><time>2026-05-09T13:19:06.000Z</time></trkpt>
        <trkpt lat="29.556528" lon="103.344088"><ele>2130.16</ele><time>2026-05-09T13:19:19.000Z</time></trkpt>
        <trkpt lat="29.55649" lon="103.34412"><ele>2130.8926</ele><time>2026-05-09T13:19:24.000Z</time></trkpt>
        <trkpt lat="29.556457" lon="103.344157"><ele>2131.2576</ele><time>2026-05-09T13:19:38.000Z</time></trkpt>
        <trkpt lat="29.556421" lon="103.344204"><ele>2134.5466</ele><time>2026-05-09T13:19:52.000Z</time></trkpt>
        <trkpt lat="29.556374" lon="103.34423"><ele>2135.9043</ele><time>2026-05-09T13:20:01.000Z</time></trkpt>
        <trkpt lat="29.556326" lon="103.344244"><ele>2138.965</ele><time>2026-05-09T13:20:16.000Z</time></trkpt>
        <trkpt lat="29.556272" lon="103.344269"><ele>2141.1904</ele><time>2026-05-09T13:20:44.000Z</time></trkpt>
        <trkpt lat="29.556259" lon="103.344321"><ele>2142.6226</ele><time>2026-05-09T13:20:51.000Z</time></trkpt>
        <trkpt lat="29.556228" lon="103.344359"><ele>2146.5828</ele><time>2026-05-09T13:20:59.000Z</time></trkpt>
        <trkpt lat="29.55619" lon="103.344404"><ele>2148.5637</ele><time>2026-05-09T13:21:06.000Z</time></trkpt>
        <trkpt lat="29.556161" lon="103.34445"><ele>2150.0627</ele><time>2026-05-09T13:21:18.000Z</time></trkpt>
        <trkpt lat="29.556124" lon="103.344484"><ele>2151.7346</ele><time>2026-05-09T13:34:13.000Z</time></trkpt>
        <trkpt lat="29.556084" lon="103.344515"><ele>2152.4753</ele><time>2026-05-09T13:34:20.000Z</time></trkpt>
        <trkpt lat="29.556048" lon="103.344567"><ele>2151.9624</ele><time>2026-05-09T13:34:30.000Z</time></trkpt>
        <trkpt lat="29.556014" lon="103.344611"><ele>2152.8477</ele><time>2026-05-09T13:34:42.000Z</time></trkpt>
        <trkpt lat="29.555998" lon="103.34466"><ele>2156.1636</ele><time>2026-05-09T13:34:52.000Z</time></trkpt>
        <trkpt lat="29.55598" lon="103.344713"><ele>2156.952</ele><time>2026-05-09T13:35:00.000Z</time></trkpt>
        <trkpt lat="29.555962" lon="103.344761"><ele>2158.2236</ele><time>2026-05-09T13:35:10.000Z</time></trkpt>
        <trkpt lat="29.555925" lon="103.344807"><ele>2160.9395</ele><time>2026-05-09T13:35:21.000Z</time></trkpt>
        <trkpt lat="29.555894" lon="103.344846"><ele>2164.1162</ele><time>2026-05-09T13:35:41.000Z</time></trkpt>
        <trkpt lat="29.555875" lon="103.344901"><ele>2167.9363</ele><time>2026-05-09T13:35:53.000Z</time></trkpt>
        <trkpt lat="29.55585" lon="103.344953"><ele>2168.8745</ele><time>2026-05-09T13:35:58.000Z</time></trkpt>
        <trkpt lat="29.555807" lon="103.344977"><ele>2171.4797</ele><time>2026-05-09T13:36:13.000Z</time></trkpt>
        <trkpt lat="29.555752" lon="103.344998"><ele>2169.9324</ele><time>2026-05-09T13:36:22.000Z</time></trkpt>
        <trkpt lat="29.555709" lon="103.34498"><ele>2169.728</ele><time>2026-05-09T13:36:39.000Z</time></trkpt>
        <trkpt lat="29.555666" lon="103.345006"><ele>2169.0886</ele><time>2026-05-09T13:36:50.000Z</time></trkpt>
        <trkpt lat="29.555635" lon="103.34496"><ele>2172.6086</ele><time>2026-05-09T13:37:14.000Z</time></trkpt>
        <trkpt lat="29.555586" lon="103.344954"><ele>2178.6348</ele><time>2026-05-09T13:37:52.000Z</time></trkpt>
        <trkpt lat="29.555555" lon="103.344993"><ele>2173.197</ele><time>2026-05-09T13:38:08.000Z</time></trkpt>
        <trkpt lat="29.555531" lon="103.34504"><ele>2175.859</ele><time>2026-05-09T13:38:22.000Z</time></trkpt>
        <trkpt lat="29.555497" lon="103.345073"><ele>2183.438</ele><time>2026-05-09T13:38:40.000Z</time></trkpt>
        <trkpt lat="29.555469" lon="103.345117"><ele>2188.226</ele><time>2026-05-09T13:38:57.000Z</time></trkpt>
        <trkpt lat="29.55542" lon="103.345126"><ele>2191.4817</ele><time>2026-05-09T13:39:08.000Z</time></trkpt>
        <trkpt lat="29.555379" lon="103.345104"><ele>2195.302</ele><time>2026-05-09T13:39:21.000Z</time></trkpt>
        <trkpt lat="29.555344" lon="103.345063"><ele>2198.618</ele><time>2026-05-09T13:39:35.000Z</time></trkpt>
        <trkpt lat="29.555314" lon="103.345023"><ele>2198.348</ele><time>2026-05-09T13:39:48.000Z</time></trkpt>
        <trkpt lat="29.555293" lon="103.344976"><ele>2200.1316</ele><time>2026-05-09T13:39:57.000Z</time></trkpt>
        <trkpt lat="29.555247" lon="103.344981"><ele>2204.0056</ele><time>2026-05-09T13:40:03.000Z</time></trkpt>
        <trkpt lat="29.555212" lon="103.345013"><ele>2206.709</ele><time>2026-05-09T13:40:15.000Z</time></trkpt>
        <trkpt lat="29.555215" lon="103.345069"><ele>2205.9998</ele><time>2026-05-09T13:40:21.000Z</time></trkpt>
        <trkpt lat="29.555167" lon="103.345093"><ele>2207.3052</ele><time>2026-05-09T13:40:28.000Z</time></trkpt>
        <trkpt lat="29.555121" lon="103.345111"><ele>2207.5442</ele><time>2026-05-09T13:41:47.000Z</time></trkpt>
        <trkpt lat="29.555079" lon="103.345149"><ele>2210.1616</ele><time>2026-05-09T13:45:40.000Z</time></trkpt>
        <trkpt lat="29.555029" lon="103.345151"><ele>2211.342</ele><time>2026-05-09T13:45:46.000Z</time></trkpt>
        <trkpt lat="29.554981" lon="103.34516"><ele>2209.883</ele><time>2026-05-09T13:45:51.000Z</time></trkpt>
        <trkpt lat="29.554935" lon="103.345159"><ele>2210.9912</ele><time>2026-05-09T13:46:02.000Z</time></trkpt>
        <trkpt lat="29.554888" lon="103.34517"><ele>2211.4016</ele><time>2026-05-09T13:46:12.000Z</time></trkpt>
        <trkpt lat="29.554855" lon="103.345206"><ele>2213.2515</ele><time>2026-05-09T13:47:43.000Z</time></trkpt>
        <trkpt lat="29.554827" lon="103.345248"><ele>2212.0393</ele><time>2026-05-09T13:47:51.000Z</time></trkpt>
        <trkpt lat="29.554795" lon="103.345286"><ele>2215.7295</ele><time>2026-05-09T13:48:02.000Z</time></trkpt>
        <trkpt lat="29.554749" lon="103.345286"><ele>2219.345</ele><time>2026-05-09T13:48:13.000Z</time></trkpt>
        <trkpt lat="29.554705" lon="103.345313"><ele>2221.8547</ele><time>2026-05-09T13:48:33.000Z</time></trkpt>
        <trkpt lat="29.554661" lon="103.345327"><ele>2222.7227</ele><time>2026-05-09T13:48:49.000Z</time></trkpt>
        <trkpt lat="29.554614" lon="103.345323"><ele>2226.2803</ele><time>2026-05-09T13:49:12.000Z</time></trkpt>
        <trkpt lat="29.554591" lon="103.345369"><ele>2227.864</ele><time>2026-05-09T13:49:21.000Z</time></trkpt>
        <trkpt lat="29.554544" lon="103.345395"><ele>2228.1194</ele><time>2026-05-09T13:49:28.000Z</time></trkpt>
        <trkpt lat="29.554498" lon="103.345403"><ele>2231.3271</ele><time>2026-05-09T13:49:36.000Z</time></trkpt>
        <trkpt lat="29.554448" lon="103.345391"><ele>2236.0806</ele><time>2026-05-09T13:49:51.000Z</time></trkpt>
        <trkpt lat="29.554403" lon="103.345411"><ele>2236.7043</ele><time>2026-05-09T13:50:06.000Z</time></trkpt>
        <trkpt lat="29.554354" lon="103.345393"><ele>2240.6206</ele><time>2026-05-09T13:50:15.000Z</time></trkpt>
        <trkpt lat="29.554302" lon="103.345421"><ele>2241.4885</ele><time>2026-05-09T13:50:30.000Z</time></trkpt>
        <trkpt lat="29.554258" lon="103.345435"><ele>2246.331</ele><time>2026-05-09T13:50:44.000Z</time></trkpt>
        <trkpt lat="29.554214" lon="103.345447"><ele>2247.1917</ele><time>2026-05-09T13:51:08.000Z</time></trkpt>
        <trkpt lat="29.554175" lon="103.345481"><ele>2249.2314</ele><time>2026-05-09T13:51:18.000Z</time></trkpt>
        <trkpt lat="29.554127" lon="103.345499"><ele>2251.4053</ele><time>2026-05-09T13:51:30.000Z</time></trkpt>
        <trkpt lat="29.554081" lon="103.345512"><ele>2252.943</ele><time>2026-05-09T13:51:41.000Z</time></trkpt>
        <trkpt lat="29.554047" lon="103.345476"><ele>2257.7102</ele><time>2026-05-09T13:52:04.000Z</time></trkpt>
        <trkpt lat="29.553999" lon="103.345464"><ele>2257.2358</ele><time>2026-05-09T13:52:12.000Z</time></trkpt>
        <trkpt lat="29.553948" lon="103.345453"><ele>2260.15</ele><time>2026-05-09T13:52:16.000Z</time></trkpt>
        <trkpt lat="29.553918" lon="103.345414"><ele>2260.1401</ele><time>2026-05-09T13:52:23.000Z</time></trkpt>
        <trkpt lat="29.553886" lon="103.345373"><ele>2258.692</ele><time>2026-05-09T13:52:32.000Z</time></trkpt>
        <trkpt lat="29.553838" lon="103.345361"><ele>2259.7754</ele><time>2026-05-09T13:52:38.000Z</time></trkpt>
        <trkpt lat="29.553798" lon="103.345329"><ele>2261.202</ele><time>2026-05-09T13:52:47.000Z</time></trkpt>
        <trkpt lat="29.553754" lon="103.34532"><ele>2261.8245</ele><time>2026-05-09T13:52:57.000Z</time></trkpt>
        <trkpt lat="29.553705" lon="103.345309"><ele>2262.391</ele><time>2026-05-09T13:53:06.000Z</time></trkpt>
        <trkpt lat="29.553659" lon="103.345302"><ele>2263.3647</ele><time>2026-05-09T13:53:16.000Z</time></trkpt>
        <trkpt lat="29.553612" lon="103.345304"><ele>2265.2888</ele><time>2026-05-09T13:53:23.000Z</time></trkpt>
        <trkpt lat="29.55357" lon="103.345324"><ele>2265.389</ele><time>2026-05-09T13:53:31.000Z</time></trkpt>
        <trkpt lat="29.553523" lon="103.345317"><ele>2266.9365</ele><time>2026-05-09T13:53:39.000Z</time></trkpt>
        <trkpt lat="29.553475" lon="103.345319"><ele>2267.5164</ele><time>2026-05-09T13:53:46.000Z</time></trkpt>
        <trkpt lat="29.553429" lon="103.345331"><ele>2268.7915</ele><time>2026-05-09T13:53:53.000Z</time></trkpt>
        <trkpt lat="29.553384" lon="103.34534"><ele>2270.1313</ele><time>2026-05-09T13:54:02.000Z</time></trkpt>
        <trkpt lat="29.553337" lon="103.345355"><ele>2271.711</ele><time>2026-05-09T13:54:13.000Z</time></trkpt>
        <trkpt lat="29.553294" lon="103.345373"><ele>2273.3152</ele><time>2026-05-09T13:54:23.000Z</time></trkpt>
        <trkpt lat="29.553246" lon="103.345375"><ele>2272.396</ele><time>2026-05-09T13:54:34.000Z</time></trkpt>
        <trkpt lat="29.553192" lon="103.345368"><ele>2272.0857</ele><time>2026-05-09T13:54:40.000Z</time></trkpt>
        <trkpt lat="29.553144" lon="103.345372"><ele>2272.6125</ele><time>2026-05-09T13:54:46.000Z</time></trkpt>
        <trkpt lat="29.553098" lon="103.345371"><ele>2272.6892</ele><time>2026-05-09T13:54:51.000Z</time></trkpt>
        <trkpt lat="29.553046" lon="103.345384"><ele>2271.4182</ele><time>2026-05-09T13:54:57.000Z</time></trkpt>
        <trkpt lat="29.553078" lon="103.345347"><ele>2276.301</ele><time>2026-05-09T13:56:29.000Z</time></trkpt>
        <trkpt lat="29.553021" lon="103.345372"><ele>2276.8333</ele><time>2026-05-09T13:56:33.000Z</time></trkpt>
        <trkpt lat="29.55297" lon="103.345407"><ele>2277.7734</ele><time>2026-05-09T13:56:38.000Z</time></trkpt>
        <trkpt lat="29.552926" lon="103.345428"><ele>2277.8523</ele><time>2026-05-09T13:56:42.000Z</time></trkpt>
        <trkpt lat="29.552872" lon="103.345444"><ele>2279.5579</ele><time>2026-05-09T13:56:47.000Z</time></trkpt>
        <trkpt lat="29.552825" lon="103.345446"><ele>2279.2305</ele><time>2026-05-09T13:56:49.000Z</time></trkpt>
        <trkpt lat="29.55278" lon="103.345456"><ele>2279.4558</ele><time>2026-05-09T13:56:52.000Z</time></trkpt>
        <trkpt lat="29.552722" lon="103.345449"><ele>2279.4456</ele><time>2026-05-09T13:56:56.000Z</time></trkpt>
        <trkpt lat="29.552665" lon="103.345433"><ele>2281.331</ele><time>2026-05-09T13:57:00.000Z</time></trkpt>
        <trkpt lat="29.552618" lon="103.345438"><ele>2280.8953</ele><time>2026-05-09T13:57:03.000Z</time></trkpt>
        <trkpt lat="29.552563" lon="103.345467"><ele>2280.5105</ele><time>2026-05-09T13:57:06.000Z</time></trkpt>
        <trkpt lat="29.552507" lon="103.34547"><ele>2280.7983</ele><time>2026-05-09T13:57:09.000Z</time></trkpt>
        <trkpt lat="29.55245" lon="103.345483"><ele>2280.7598</ele><time>2026-05-09T13:57:12.000Z</time></trkpt>
        <trkpt lat="29.5524" lon="103.345484"><ele>2279.876</ele><time>2026-05-09T13:57:16.000Z</time></trkpt>
        <trkpt lat="29.552396" lon="103.345429"><ele>2279.6267</ele><time>2026-05-09T13:57:18.000Z</time></trkpt>
        <trkpt lat="29.552413" lon="103.345379"><ele>2279.716</ele><time>2026-05-09T13:57:22.000Z</time></trkpt>
        <trkpt lat="29.55244" lon="103.34533"><ele>2279.1023</ele><time>2026-05-09T13:57:26.000Z</time></trkpt>
        <trkpt lat="29.552442" lon="103.345269"><ele>2279.3774</ele><time>2026-05-09T13:57:31.000Z</time></trkpt>
        <trkpt lat="29.552395" lon="103.345239"><ele>2280.639</ele><time>2026-05-09T13:57:36.000Z</time></trkpt>
        <trkpt lat="29.552332" lon="103.345266"><ele>2281.521</ele><time>2026-05-09T13:57:46.000Z</time></trkpt>
        <trkpt lat="29.552297" lon="103.34523"><ele>2280.6936</ele><time>2026-05-09T13:57:51.000Z</time></trkpt>
        <trkpt lat="29.552262" lon="103.345194"><ele>2280.9578</ele><time>2026-05-09T13:57:55.000Z</time></trkpt>
        <trkpt lat="29.552211" lon="103.345177"><ele>2277.6562</ele><time>2026-05-09T13:58:00.000Z</time></trkpt>
        <trkpt lat="29.552161" lon="103.345171"><ele>2278.6338</ele><time>2026-05-09T13:58:05.000Z</time></trkpt>
        <trkpt lat="29.552111" lon="103.345147"><ele>2280.4514</ele><time>2026-05-09T13:58:09.000Z</time></trkpt>
        <trkpt lat="29.552069" lon="103.345117"><ele>2281.065</ele><time>2026-05-09T13:58:12.000Z</time></trkpt>
        <trkpt lat="29.552022" lon="103.34509"><ele>2279.274</ele><time>2026-05-09T13:58:16.000Z</time></trkpt>
        <trkpt lat="29.551977" lon="103.345085"><ele>2279.6309</ele><time>2026-05-09T13:58:19.000Z</time></trkpt>
        <trkpt lat="29.551977" lon="103.345014"><ele>2278.7017</ele><time>2026-05-09T13:58:23.000Z</time></trkpt>
        <trkpt lat="29.552002" lon="103.344951"><ele>2276.668</ele><time>2026-05-09T13:58:27.000Z</time></trkpt>
        <trkpt lat="29.55199" lon="103.344893"><ele>2275.7092</ele><time>2026-05-09T13:58:31.000Z</time></trkpt>
        <trkpt lat="29.55196" lon="103.344855"><ele>2274.3943</ele><time>2026-05-09T13:58:35.000Z</time></trkpt>
        <trkpt lat="29.551931" lon="103.344807"><ele>2275.5703</ele><time>2026-05-09T13:58:39.000Z</time></trkpt>
        <trkpt lat="29.551894" lon="103.344762"><ele>2274.8364</ele><time>2026-05-09T13:58:43.000Z</time></trkpt>
        <trkpt lat="29.551868" lon="103.344715"><ele>2275.9849</ele><time>2026-05-09T13:58:46.000Z</time></trkpt>
        <trkpt lat="29.55183" lon="103.344669"><ele>2277.6401</ele><time>2026-05-09T13:58:50.000Z</time></trkpt>
        <trkpt lat="29.551792" lon="103.344617"><ele>2278.3875</ele><time>2026-05-09T13:58:54.000Z</time></trkpt>
        <trkpt lat="29.551771" lon="103.344558"><ele>2280.0952</ele><time>2026-05-09T13:58:58.000Z</time></trkpt>
        <trkpt lat="29.551748" lon="103.34451"><ele>2277.3325</ele><time>2026-05-09T13:59:01.000Z</time></trkpt>
        <trkpt lat="29.551721" lon="103.344459"><ele>2277.8323</ele><time>2026-05-09T13:59:05.000Z</time></trkpt>
        <trkpt lat="29.55167" lon="103.344445"><ele>2277.7114</ele><time>2026-05-09T13:59:09.000Z</time></trkpt>
        <trkpt lat="29.551639" lon="103.344399"><ele>2278.1392</ele><time>2026-05-09T13:59:13.000Z</time></trkpt>
        <trkpt lat="29.551606" lon="103.344359"><ele>2276.6523</ele><time>2026-05-09T13:59:16.000Z</time></trkpt>
        <trkpt lat="29.551597" lon="103.344303"><ele>2278.413</ele><time>2026-05-09T13:59:20.000Z</time></trkpt>
        <trkpt lat="29.551563" lon="103.344264"><ele>2278.5105</ele><time>2026-05-09T13:59:24.000Z</time></trkpt>
        <trkpt lat="29.551519" lon="103.344247"><ele>2278.922</ele><time>2026-05-09T13:59:28.000Z</time></trkpt>
        <trkpt lat="29.551469" lon="103.344238"><ele>2276.7344</ele><time>2026-05-09T13:59:34.000Z</time></trkpt>
        <trkpt lat="29.551422" lon="103.344231"><ele>2272.4805</ele><time>2026-05-09T13:59:38.000Z</time></trkpt>
        <trkpt lat="29.551385" lon="103.344199"><ele>2271.245</ele><time>2026-05-09T13:59:42.000Z</time></trkpt>
        <trkpt lat="29.551338" lon="103.344196"><ele>2269.563</ele><time>2026-05-09T13:59:49.000Z</time></trkpt>
        <trkpt lat="29.551282" lon="103.344178"><ele>2267.9216</ele><time>2026-05-09T13:59:55.000Z</time></trkpt>
        <trkpt lat="29.551229" lon="103.344199"><ele>2268.6963</ele><time>2026-05-09T14:00:00.000Z</time></trkpt>
        <trkpt lat="29.551178" lon="103.344211"><ele>2268.5085</ele><time>2026-05-09T14:00:03.000Z</time></trkpt>
        <trkpt lat="29.551134" lon="103.344226"><ele>2267.5518</ele><time>2026-05-09T14:00:06.000Z</time></trkpt>
        <trkpt lat="29.551085" lon="103.344236"><ele>2266.0142</ele><time>2026-05-09T14:00:10.000Z</time></trkpt>
        <trkpt lat="29.551034" lon="103.344201"><ele>2267.0032</ele><time>2026-05-09T14:00:14.000Z</time></trkpt>
        <trkpt lat="29.550998" lon="103.344156"><ele>2270.5286</ele><time>2026-05-09T14:00:18.000Z</time></trkpt>
        <trkpt lat="29.550954" lon="103.344135"><ele>2269.6768</ele><time>2026-05-09T14:00:22.000Z</time></trkpt>
        <trkpt lat="29.550903" lon="103.344145"><ele>2269.9792</ele><time>2026-05-09T14:00:28.000Z</time></trkpt>
        <trkpt lat="29.550848" lon="103.344153"><ele>2268.8672</ele><time>2026-05-09T14:00:32.000Z</time></trkpt>
        <trkpt lat="29.550801" lon="103.344139"><ele>2270.0732</ele><time>2026-05-09T14:00:35.000Z</time></trkpt>
        <trkpt lat="29.550755" lon="103.344107"><ele>2269.8142</ele><time>2026-05-09T14:00:40.000Z</time></trkpt>
        <trkpt lat="29.550714" lon="103.344067"><ele>2269.614</ele><time>2026-05-09T14:00:45.000Z</time></trkpt>
        <trkpt lat="29.550737" lon="103.344006"><ele>2269.9707</ele><time>2026-05-09T14:00:48.000Z</time></trkpt>
        <trkpt lat="29.550738" lon="103.343943"><ele>2273.0593</ele><time>2026-05-09T14:00:53.000Z</time></trkpt>
        <trkpt lat="29.550684" lon="103.343953"><ele>2272.52</ele><time>2026-05-09T14:00:59.000Z</time></trkpt>
        <trkpt lat="29.550637" lon="103.343941"><ele>2278.0566</ele><time>2026-05-09T14:01:09.000Z</time></trkpt>
        <trkpt lat="29.550595" lon="103.34392"><ele>2275.5542</ele><time>2026-05-09T14:01:17.000Z</time></trkpt>
        <trkpt lat="29.550548" lon="103.343895"><ele>2274.3672</ele><time>2026-05-09T14:01:22.000Z</time></trkpt>
        <trkpt lat="29.550516" lon="103.343841"><ele>2273.4114</ele><time>2026-05-09T14:01:26.000Z</time></trkpt>
        <trkpt lat="29.5505" lon="103.343784"><ele>2274.819</ele><time>2026-05-09T14:01:31.000Z</time></trkpt>
        <trkpt lat="29.550468" lon="103.343739"><ele>2273.2925</ele><time>2026-05-09T14:01:36.000Z</time></trkpt>
        <trkpt lat="29.550421" lon="103.343718"><ele>2272.2056</ele><time>2026-05-09T14:01:40.000Z</time></trkpt>
        <trkpt lat="29.550389" lon="103.343675"><ele>2272.8054</ele><time>2026-05-09T14:01:50.000Z</time></trkpt>
        <trkpt lat="29.550359" lon="103.343635"><ele>2271.389</ele><time>2026-05-09T14:01:53.000Z</time></trkpt>
        <trkpt lat="29.550313" lon="103.343616"><ele>2272.976</ele><time>2026-05-09T14:01:56.000Z</time></trkpt>
        <trkpt lat="29.550292" lon="103.343551"><ele>2274.68</ele><time>2026-05-09T14:02:00.000Z</time></trkpt>
        <trkpt lat="29.550267" lon="103.343496"><ele>2274.3184</ele><time>2026-05-09T14:02:05.000Z</time></trkpt>
        <trkpt lat="29.550256" lon="103.34344"><ele>2272.7058</ele><time>2026-05-09T14:02:10.000Z</time></trkpt>
        <trkpt lat="29.550236" lon="103.343388"><ele>2272.809</ele><time>2026-05-09T14:02:14.000Z</time></trkpt>
        <trkpt lat="29.550213" lon="103.343343"><ele>2272.2646</ele><time>2026-05-09T14:02:18.000Z</time></trkpt>
        <trkpt lat="29.55018" lon="103.3433"><ele>2272.0835</ele><time>2026-05-09T14:02:23.000Z</time></trkpt>
        <trkpt lat="29.550143" lon="103.343267"><ele>2272.9558</ele><time>2026-05-09T14:02:28.000Z</time></trkpt>
        <trkpt lat="29.550101" lon="103.34323"><ele>2273.8013</ele><time>2026-05-09T14:02:34.000Z</time></trkpt>
        <trkpt lat="29.550043" lon="103.343207"><ele>2273.4138</ele><time>2026-05-09T14:02:38.000Z</time></trkpt>
        <trkpt lat="29.550015" lon="103.343166"><ele>2275.7488</ele><time>2026-05-09T14:02:42.000Z</time></trkpt>
        <trkpt lat="29.549976" lon="103.343122"><ele>2279.7178</ele><time>2026-05-09T14:02:48.000Z</time></trkpt>
        <trkpt lat="29.549953" lon="103.343062"><ele>2278.8628</ele><time>2026-05-09T14:02:52.000Z</time></trkpt>
        <trkpt lat="29.549938" lon="103.343006"><ele>2276.7585</ele><time>2026-05-09T14:02:56.000Z</time></trkpt>
        <trkpt lat="29.549921" lon="103.34295"><ele>2275.96</ele><time>2026-05-09T14:03:01.000Z</time></trkpt>
        <trkpt lat="29.549897" lon="103.342896"><ele>2277.0183</ele><time>2026-05-09T14:03:09.000Z</time></trkpt>
        <trkpt lat="29.54987" lon="103.342848"><ele>2276.2573</ele><time>2026-05-09T14:03:14.000Z</time></trkpt>
        <trkpt lat="29.549835" lon="103.342805"><ele>2273.9224</ele><time>2026-05-09T14:03:19.000Z</time></trkpt>
        <trkpt lat="29.549807" lon="103.342746"><ele>2277.4724</ele><time>2026-05-09T14:03:23.000Z</time></trkpt>
        <trkpt lat="29.549781" lon="103.342697"><ele>2277.1882</ele><time>2026-05-09T14:03:28.000Z</time></trkpt>
        <trkpt lat="29.549753" lon="103.342646"><ele>2278.5442</ele><time>2026-05-09T14:03:31.000Z</time></trkpt>
        <trkpt lat="29.549716" lon="103.342595"><ele>2278.7842</ele><time>2026-05-09T14:03:37.000Z</time></trkpt>
        <trkpt lat="29.549682" lon="103.342561"><ele>2279.209</ele><time>2026-05-09T14:03:41.000Z</time></trkpt>
        <trkpt lat="29.549652" lon="103.34252"><ele>2279.018</ele><time>2026-05-09T14:03:45.000Z</time></trkpt>
        <trkpt lat="29.549617" lon="103.342469"><ele>2278.6995</ele><time>2026-05-09T14:03:49.000Z</time></trkpt>
        <trkpt lat="29.54957" lon="103.342434"><ele>2280.7144</ele><time>2026-05-09T14:03:53.000Z</time></trkpt>
        <trkpt lat="29.549538" lon="103.342396"><ele>2280.0332</ele><time>2026-05-09T14:03:57.000Z</time></trkpt>
        <trkpt lat="29.549505" lon="103.342358"><ele>2280.1714</ele><time>2026-05-09T14:04:02.000Z</time></trkpt>
        <trkpt lat="29.549469" lon="103.342323"><ele>2280.758</ele><time>2026-05-09T14:04:06.000Z</time></trkpt>
        <trkpt lat="29.549438" lon="103.342285"><ele>2280.8823</ele><time>2026-05-09T14:04:10.000Z</time></trkpt>
        <trkpt lat="29.549404" lon="103.342242"><ele>2281.692</ele><time>2026-05-09T14:04:14.000Z</time></trkpt>
        <trkpt lat="29.549388" lon="103.34219"><ele>2280.2712</ele><time>2026-05-09T14:04:18.000Z</time></trkpt>
        <trkpt lat="29.54936" lon="103.342124"><ele>2279.8948</ele><time>2026-05-09T14:04:25.000Z</time></trkpt>
        <trkpt lat="29.549352" lon="103.342068"><ele>2279.1946</ele><time>2026-05-09T14:04:31.000Z</time></trkpt>
        <trkpt lat="29.549351" lon="103.342012"><ele>2279.8457</ele><time>2026-05-09T14:04:35.000Z</time></trkpt>
        <trkpt lat="29.549363" lon="103.341961"><ele>2280.2292</ele><time>2026-05-09T14:04:41.000Z</time></trkpt>
        <trkpt lat="29.549318" lon="103.341955"><ele>2280.6855</ele><time>2026-05-09T14:05:03.000Z</time></trkpt>
        <trkpt lat="29.549316" lon="103.341903"><ele>2279.0781</ele><time>2026-05-09T14:05:10.000Z</time></trkpt>
        <trkpt lat="29.54931" lon="103.341845"><ele>2280.0508</ele><time>2026-05-09T14:05:14.000Z</time></trkpt>
        <trkpt lat="29.549292" lon="103.341795"><ele>2280.7139</ele><time>2026-05-09T14:05:18.000Z</time></trkpt>
        <trkpt lat="29.549278" lon="103.341744"><ele>2280.785</ele><time>2026-05-09T14:05:27.000Z</time></trkpt>
        <trkpt lat="29.549267" lon="103.34169"><ele>2278.9539</ele><time>2026-05-09T14:05:32.000Z</time></trkpt>
        <trkpt lat="29.549248" lon="103.341625"><ele>2279.814</ele><time>2026-05-09T14:05:37.000Z</time></trkpt>
        <trkpt lat="29.54923" lon="103.341564"><ele>2279.8613</ele><time>2026-05-09T14:05:43.000Z</time></trkpt>
        <trkpt lat="29.549204" lon="103.341507"><ele>2279.962</ele><time>2026-05-09T14:05:47.000Z</time></trkpt>
        <trkpt lat="29.549199" lon="103.341449"><ele>2282.2764</ele><time>2026-05-09T14:05:53.000Z</time></trkpt>
        <trkpt lat="29.549204" lon="103.341392"><ele>2284.3572</ele><time>2026-05-09T14:05:58.000Z</time></trkpt>
        <trkpt lat="29.549151" lon="103.341423"><ele>2287.1646</ele><time>2026-05-09T14:06:05.000Z</time></trkpt>
        <trkpt lat="29.549159" lon="103.341369"><ele>2287.8298</ele><time>2026-05-09T14:06:29.000Z</time></trkpt>
        <trkpt lat="29.549115" lon="103.341328"><ele>2289.846</ele><time>2026-05-09T14:06:45.000Z</time></trkpt>
        <trkpt lat="29.549089" lon="103.341277"><ele>2290.6338</ele><time>2026-05-09T14:06:54.000Z</time></trkpt>
        <trkpt lat="29.549068" lon="103.341225"><ele>2291.146</ele><time>2026-05-09T14:07:00.000Z</time></trkpt>
        <trkpt lat="29.549018" lon="103.341202"><ele>2291.1384</ele><time>2026-05-09T14:07:09.000Z</time></trkpt>
        <trkpt lat="29.548967" lon="103.341194"><ele>2291.057</ele><time>2026-05-09T14:07:15.000Z</time></trkpt>
        <trkpt lat="29.548917" lon="103.341191"><ele>2289.565</ele><time>2026-05-09T14:07:19.000Z</time></trkpt>
        <trkpt lat="29.548865" lon="103.341179"><ele>2295.3809</ele><time>2026-05-09T14:07:25.000Z</time></trkpt>
        <trkpt lat="29.548817" lon="103.341187"><ele>2301.372</ele><time>2026-05-09T14:07:34.000Z</time></trkpt>
        <trkpt lat="29.548768" lon="103.34117"><ele>2302.48</ele><time>2026-05-09T14:07:47.000Z</time></trkpt>
        <trkpt lat="29.548723" lon="103.341189"><ele>2303.18</ele><time>2026-05-09T14:07:54.000Z</time></trkpt>
        <trkpt lat="29.548675" lon="103.341202"><ele>2304.9246</ele><time>2026-05-09T14:08:04.000Z</time></trkpt>
        <trkpt lat="29.548629" lon="103.341218"><ele>2307.2788</ele><time>2026-05-09T14:08:15.000Z</time></trkpt>
        <trkpt lat="29.54858" lon="103.341214"><ele>2309.3608</ele><time>2026-05-09T14:08:41.000Z</time></trkpt>
        <trkpt lat="29.548537" lon="103.341236"><ele>2311.7134</ele><time>2026-05-09T14:08:51.000Z</time></trkpt>
        <trkpt lat="29.548486" lon="103.341235"><ele>2312.0176</ele><time>2026-05-09T14:09:01.000Z</time></trkpt>
        <trkpt lat="29.548438" lon="103.34127"><ele>2316.6667</ele><time>2026-05-09T14:10:07.000Z</time></trkpt>
        <trkpt lat="29.548391" lon="103.341281"><ele>2318.959</ele><time>2026-05-09T14:10:10.000Z</time></trkpt>
        <trkpt lat="29.54835" lon="103.341258"><ele>2321.1284</ele><time>2026-05-09T14:10:14.000Z</time></trkpt>
        <trkpt lat="29.548298" lon="103.341255"><ele>2325.8188</ele><time>2026-05-09T14:10:21.000Z</time></trkpt>
        <trkpt lat="29.548243" lon="103.341244"><ele>2325.254</ele><time>2026-05-09T14:10:29.000Z</time></trkpt>
        <trkpt lat="29.5482" lon="103.341227"><ele>2328.155</ele><time>2026-05-09T14:10:38.000Z</time></trkpt>
        <trkpt lat="29.548149" lon="103.341221"><ele>2328.8179</ele><time>2026-05-09T14:10:46.000Z</time></trkpt>
        <trkpt lat="29.548099" lon="103.341207"><ele>2327.6436</ele><time>2026-05-09T14:10:51.000Z</time></trkpt>
        <trkpt lat="29.548051" lon="103.341202"><ele>2329.7815</ele><time>2026-05-09T14:10:59.000Z</time></trkpt>
        <trkpt lat="29.548012" lon="103.341233"><ele>2332.1936</ele><time>2026-05-09T14:11:04.000Z</time></trkpt>
        <trkpt lat="29.547962" lon="103.341231"><ele>2331.9426</ele><time>2026-05-09T14:11:08.000Z</time></trkpt>
        <trkpt lat="29.547908" lon="103.341212"><ele>2334.9385</ele><time>2026-05-09T14:11:13.000Z</time></trkpt>
        <trkpt lat="29.547869" lon="103.341182"><ele>2336.2224</ele><time>2026-05-09T14:11:17.000Z</time></trkpt>
        <trkpt lat="29.547827" lon="103.34115"><ele>2334.318</ele><time>2026-05-09T14:11:22.000Z</time></trkpt>
        <trkpt lat="29.547783" lon="103.341121"><ele>2332.8074</ele><time>2026-05-09T14:11:27.000Z</time></trkpt>
        <trkpt lat="29.547748" lon="103.341086"><ele>2331.778</ele><time>2026-05-09T14:11:33.000Z</time></trkpt>
        <trkpt lat="29.547702" lon="103.341075"><ele>2330.6934</ele><time>2026-05-09T14:11:39.000Z</time></trkpt>
        <trkpt lat="29.547652" lon="103.341075"><ele>2331.4478</ele><time>2026-05-09T14:11:45.000Z</time></trkpt>
        <trkpt lat="29.547601" lon="103.34108"><ele>2334.2773</ele><time>2026-05-09T14:11:54.000Z</time></trkpt>
        <trkpt lat="29.54755" lon="103.34109"><ele>2333.2341</ele><time>2026-05-09T14:12:02.000Z</time></trkpt>
        <trkpt lat="29.547504" lon="103.341066"><ele>2332.7544</ele><time>2026-05-09T14:12:08.000Z</time></trkpt>
        <trkpt lat="29.547457" lon="103.341046"><ele>2335.3967</ele><time>2026-05-09T14:12:15.000Z</time></trkpt>
        <trkpt lat="29.547412" lon="103.341017"><ele>2341.632</ele><time>2026-05-09T14:12:28.000Z</time></trkpt>
        <trkpt lat="29.547362" lon="103.341"><ele>2341.3723</ele><time>2026-05-09T14:12:44.000Z</time></trkpt>
        <trkpt lat="29.547373" lon="103.340939"><ele>2341.715</ele><time>2026-05-09T14:12:50.000Z</time></trkpt>
        <trkpt lat="29.547349" lon="103.340887"><ele>2343.734</ele><time>2026-05-09T14:12:55.000Z</time></trkpt>
        <trkpt lat="29.547337" lon="103.34083"><ele>2345.7878</ele><time>2026-05-09T14:13:01.000Z</time></trkpt>
        <trkpt lat="29.547315" lon="103.340779"><ele>2345.9675</ele><time>2026-05-09T14:13:05.000Z</time></trkpt>
        <trkpt lat="29.54728" lon="103.340731"><ele>2349.047</ele><time>2026-05-09T14:13:12.000Z</time></trkpt>
        <trkpt lat="29.547273" lon="103.34068"><ele>2348.5144</ele><time>2026-05-09T14:13:18.000Z</time></trkpt>
        <trkpt lat="29.547223" lon="103.340653"><ele>2346.9834</ele><time>2026-05-09T14:13:22.000Z</time></trkpt>
        <trkpt lat="29.547169" lon="103.340642"><ele>2345.856</ele><time>2026-05-09T14:13:32.000Z</time></trkpt>
        <trkpt lat="29.54723" lon="103.340627"><ele>2345.236</ele><time>2026-05-09T14:13:34.000Z</time></trkpt>
        <trkpt lat="29.547189" lon="103.34057"><ele>2346.8967</ele><time>2026-05-09T14:13:50.000Z</time></trkpt>
        <trkpt lat="29.547239" lon="103.34059"><ele>2343.0793</ele><time>2026-05-09T14:13:57.000Z</time></trkpt>
        <trkpt lat="29.547181" lon="103.340591"><ele>2343.261</ele><time>2026-05-09T14:14:03.000Z</time></trkpt>
        <trkpt lat="29.547223" lon="103.340567"><ele>2347.2334</ele><time>2026-05-09T14:14:05.000Z</time></trkpt>
        <trkpt lat="29.547267" lon="103.340542"><ele>2348.1306</ele><time>2026-05-09T14:14:11.000Z</time></trkpt>
        <trkpt lat="29.547219" lon="103.340525"><ele>2349.0903</ele><time>2026-05-09T14:14:16.000Z</time></trkpt>
        <trkpt lat="29.547171" lon="103.340495"><ele>2350.362</ele><time>2026-05-09T14:14:21.000Z</time></trkpt>
        <trkpt lat="29.547125" lon="103.340489"><ele>2350.6646</ele><time>2026-05-09T14:14:27.000Z</time></trkpt>
        <trkpt lat="29.54709" lon="103.340445"><ele>2349.818</ele><time>2026-05-09T14:14:36.000Z</time></trkpt>
        <trkpt lat="29.547134" lon="103.34039"><ele>2351.5925</ele><time>2026-05-09T14:14:39.000Z</time></trkpt>
        <trkpt lat="29.547161" lon="103.340348"><ele>2360.4343</ele><time>2026-05-09T14:14:57.000Z</time></trkpt>
        <trkpt lat="29.547157" lon="103.340284"><ele>2363.0266</ele><time>2026-05-09T14:15:15.000Z</time></trkpt>
        <trkpt lat="29.547159" lon="103.340225"><ele>2366.205</ele><time>2026-05-09T14:15:33.000Z</time></trkpt>
        <trkpt lat="29.547053" lon="103.340255"><ele>2367.899</ele><time>2026-05-09T14:15:40.000Z</time></trkpt>
        <trkpt lat="29.547094" lon="103.340225"><ele>2368.4878</ele><time>2026-05-09T14:15:45.000Z</time></trkpt>
        <trkpt lat="29.547139" lon="103.3402"><ele>2364.788</ele><time>2026-05-09T14:16:08.000Z</time></trkpt>
        <trkpt lat="29.547124" lon="103.340148"><ele>2367.5977</ele><time>2026-05-09T14:16:18.000Z</time></trkpt>
        <trkpt lat="29.547094" lon="103.340105"><ele>2370.1284</ele><time>2026-05-09T14:16:34.000Z</time></trkpt>
        <trkpt lat="29.547097" lon="103.340041"><ele>2373.0713</ele><time>2026-05-09T14:17:22.000Z</time></trkpt>
        <trkpt lat="29.547061" lon="103.339999"><ele>2377.4233</ele><time>2026-05-09T14:17:37.000Z</time></trkpt>
        <trkpt lat="29.547048" lon="103.339944"><ele>2381.437</ele><time>2026-05-09T14:17:54.000Z</time></trkpt>
        <trkpt lat="29.547065" lon="103.339884"><ele>2382.385</ele><time>2026-05-09T14:18:05.000Z</time></trkpt>
        <trkpt lat="29.547058" lon="103.339828"><ele>2384.0356</ele><time>2026-05-09T14:18:17.000Z</time></trkpt>
        <trkpt lat="29.547066" lon="103.339771"><ele>2384.03</ele><time>2026-05-09T14:18:25.000Z</time></trkpt>
        <trkpt lat="29.547089" lon="103.339817"><ele>2383.637</ele><time>2026-05-09T14:19:01.000Z</time></trkpt>
        <trkpt lat="29.547091" lon="103.339874"><ele>2385.3782</ele><time>2026-05-09T14:19:26.000Z</time></trkpt>
        <trkpt lat="29.547083" lon="103.339925"><ele>2385.2866</ele><time>2026-05-09T14:35:58.000Z</time></trkpt>
        <trkpt lat="29.547033" lon="103.33988"><ele>2385.805</ele><time>2026-05-09T14:36:29.000Z</time></trkpt>
        <trkpt lat="29.547073" lon="103.339905"><ele>2385.6323</ele><time>2026-05-09T14:36:38.000Z</time></trkpt>
        <trkpt lat="29.547065" lon="103.339853"><ele>2384.1008</ele><time>2026-05-09T14:43:46.000Z</time></trkpt>
        <trkpt lat="29.547066" lon="103.339793"><ele>2384.5386</ele><time>2026-05-09T14:43:59.000Z</time></trkpt>
        <trkpt lat="29.547055" lon="103.339743"><ele>2385.3887</ele><time>2026-05-09T14:44:11.000Z</time></trkpt>
        <trkpt lat="29.547027" lon="103.339695"><ele>2389.1648</ele><time>2026-05-09T14:44:45.000Z</time></trkpt>
        <trkpt lat="29.547005" lon="103.339647"><ele>2387.6807</ele><time>2026-05-09T14:44:58.000Z</time></trkpt>
        <trkpt lat="29.546962" lon="103.339627"><ele>2389.3213</ele><time>2026-05-09T14:45:17.000Z</time></trkpt>
        <trkpt lat="29.546923" lon="103.339596"><ele>2397.4211</ele><time>2026-05-09T14:45:56.000Z</time></trkpt>
        <trkpt lat="29.546922" lon="103.339543"><ele>2402.1182</ele><time>2026-05-09T14:46:41.000Z</time></trkpt>
        <trkpt lat="29.546881" lon="103.339513"><ele>2402.224</ele><time>2026-05-09T14:46:59.000Z</time></trkpt>
        <trkpt lat="29.546853" lon="103.33947"><ele>2405.8218</ele><time>2026-05-09T14:47:13.000Z</time></trkpt>
        <trkpt lat="29.546846" lon="103.339419"><ele>2407.5085</ele><time>2026-05-09T14:47:43.000Z</time></trkpt>
        <trkpt lat="29.546829" lon="103.339362"><ele>2406.4094</ele><time>2026-05-09T14:47:50.000Z</time></trkpt>
        <trkpt lat="29.546871" lon="103.339388"><ele>2406.855</ele><time>2026-05-09T14:47:58.000Z</time></trkpt>
        <trkpt lat="29.546821" lon="103.339376"><ele>2410.5005</ele><time>2026-05-09T14:48:45.000Z</time></trkpt>
        <trkpt lat="29.546789" lon="103.339319"><ele>2413.1345</ele><time>2026-05-09T14:49:41.000Z</time></trkpt>
        <trkpt lat="29.546872" lon="103.33929"><ele>2413.2285</ele><time>2026-05-09T14:50:23.000Z</time></trkpt>
        <trkpt lat="29.546822" lon="103.339321"><ele>2412.1355</ele><time>2026-05-09T14:50:32.000Z</time></trkpt>
        <trkpt lat="29.546799" lon="103.339276"><ele>2410.198</ele><time>2026-05-09T14:51:10.000Z</time></trkpt>
        <trkpt lat="29.546831" lon="103.339315"><ele>2411.6572</ele><time>2026-05-09T14:51:26.000Z</time></trkpt>
        <trkpt lat="29.54683" lon="103.339253"><ele>2410.6921</ele><time>2026-05-09T14:52:45.000Z</time></trkpt>
        <trkpt lat="29.546822" lon="103.339196"><ele>2411.974</ele><time>2026-05-09T14:52:49.000Z</time></trkpt>
        <trkpt lat="29.546843" lon="103.339136"><ele>2413.4238</ele><time>2026-05-09T14:52:55.000Z</time></trkpt>
        <trkpt lat="29.546829" lon="103.339079"><ele>2412.399</ele><time>2026-05-09T14:53:03.000Z</time></trkpt>
        <trkpt lat="29.546854" lon="103.339131"><ele>2412.4812</ele><time>2026-05-09T14:53:42.000Z</time></trkpt>
        <trkpt lat="29.546855" lon="103.339187"><ele>2413.3157</ele><time>2026-05-09T14:53:47.000Z</time></trkpt>
        <trkpt lat="29.546858" lon="103.33924"><ele>2412.746</ele><time>2026-05-09T14:53:51.000Z</time></trkpt>
        <trkpt lat="29.546832" lon="103.339293"><ele>2413.012</ele><time>2026-05-09T14:53:55.000Z</time></trkpt>
        <trkpt lat="29.546792" lon="103.33932"><ele>2412.59</ele><time>2026-05-09T14:54:01.000Z</time></trkpt>
        <trkpt lat="29.546745" lon="103.339306"><ele>2412.6333</ele><time>2026-05-09T14:54:05.000Z</time></trkpt>
        <trkpt lat="29.546713" lon="103.339265"><ele>2415.1125</ele><time>2026-05-09T14:54:10.000Z</time></trkpt>
        <trkpt lat="29.5467" lon="103.339212"><ele>2415.267</ele><time>2026-05-09T14:54:15.000Z</time></trkpt>
        <trkpt lat="29.546653" lon="103.339196"><ele>2420.2625</ele><time>2026-05-09T14:54:24.000Z</time></trkpt>
        <trkpt lat="29.546642" lon="103.33914"><ele>2423.6646</ele><time>2026-05-09T14:54:39.000Z</time></trkpt>
        <trkpt lat="29.546629" lon="103.339088"><ele>2423.5251</ele><time>2026-05-09T14:54:51.000Z</time></trkpt>
        <trkpt lat="29.54661" lon="103.339039"><ele>2425.5908</ele><time>2026-05-09T14:55:03.000Z</time></trkpt>
        <trkpt lat="29.546569" lon="103.339013"><ele>2425.5903</ele><time>2026-05-09T14:55:16.000Z</time></trkpt>
        <trkpt lat="29.54653" lon="103.338985"><ele>2427.5825</ele><time>2026-05-09T14:55:27.000Z</time></trkpt>
        <trkpt lat="29.546513" lon="103.338935"><ele>2429.8228</ele><time>2026-05-09T14:55:39.000Z</time></trkpt>
        <trkpt lat="29.546488" lon="103.338885"><ele>2432.3364</ele><time>2026-05-09T14:56:20.000Z</time></trkpt>
        <trkpt lat="29.54645" lon="103.338857"><ele>2434.3613</ele><time>2026-05-09T14:56:32.000Z</time></trkpt>
        <trkpt lat="29.546411" lon="103.338825"><ele>2438.576</ele><time>2026-05-09T14:56:49.000Z</time></trkpt>
        <trkpt lat="29.546384" lon="103.338781"><ele>2436.056</ele><time>2026-05-09T14:57:16.000Z</time></trkpt>
        <trkpt lat="29.54634" lon="103.338759"><ele>2441.512</ele><time>2026-05-09T14:57:42.000Z</time></trkpt>
        <trkpt lat="29.546328" lon="103.3387"><ele>2445.5159</ele><time>2026-05-09T14:58:12.000Z</time></trkpt>
        <trkpt lat="29.546287" lon="103.33867"><ele>2446.217</ele><time>2026-05-09T14:59:03.000Z</time></trkpt>
        <trkpt lat="29.54627" lon="103.338622"><ele>2446.0237</ele><time>2026-05-09T14:59:10.000Z</time></trkpt>
        <trkpt lat="29.54625" lon="103.338575"><ele>2447.493</ele><time>2026-05-09T14:59:23.000Z</time></trkpt>
        <trkpt lat="29.546217" lon="103.338533"><ele>2450.8132</ele><time>2026-05-09T14:59:33.000Z</time></trkpt>
        <trkpt lat="29.546207" lon="103.33848"><ele>2452.942</ele><time>2026-05-09T14:59:40.000Z</time></trkpt>
        <trkpt lat="29.546201" lon="103.338427"><ele>2452.1523</ele><time>2026-05-09T14:59:56.000Z</time></trkpt>
        <trkpt lat="29.546162" lon="103.338384"><ele>2451.7214</ele><time>2026-05-09T15:00:30.000Z</time></trkpt>
        <trkpt lat="29.546155" lon="103.338331"><ele>2453.2715</ele><time>2026-05-09T15:00:42.000Z</time></trkpt>
        <trkpt lat="29.546157" lon="103.338276"><ele>2455.9736</ele><time>2026-05-09T15:00:50.000Z</time></trkpt>
        <trkpt lat="29.546159" lon="103.338222"><ele>2456.1016</ele><time>2026-05-09T15:01:00.000Z</time></trkpt>
        <trkpt lat="29.546197" lon="103.338189"><ele>2459.1353</ele><time>2026-05-09T15:01:08.000Z</time></trkpt>
        <trkpt lat="29.546205" lon="103.338133"><ele>2462.3137</ele><time>2026-05-09T15:01:25.000Z</time></trkpt>
        <trkpt lat="29.546223" lon="103.338086"><ele>2462.3245</ele><time>2026-05-09T15:01:39.000Z</time></trkpt>
        <trkpt lat="29.546259" lon="103.33804"><ele>2465.2075</ele><time>2026-05-09T15:01:45.000Z</time></trkpt>
        <trkpt lat="29.546241" lon="103.337991"><ele>2465.3472</ele><time>2026-05-09T15:01:53.000Z</time></trkpt>
        <trkpt lat="29.546249" lon="103.337933"><ele>2464.9329</ele><time>2026-05-09T15:02:00.000Z</time></trkpt>
        <trkpt lat="29.546291" lon="103.337898"><ele>2463.1926</ele><time>2026-05-09T15:02:09.000Z</time></trkpt>
        <trkpt lat="29.546324" lon="103.33786"><ele>2462.9292</ele><time>2026-05-09T15:02:15.000Z</time></trkpt>
        <trkpt lat="29.546368" lon="103.337834"><ele>2462.691</ele><time>2026-05-09T15:02:29.000Z</time></trkpt>
        <trkpt lat="29.546372" lon="103.337781"><ele>2462.884</ele><time>2026-05-09T15:02:35.000Z</time></trkpt>
        <trkpt lat="29.546393" lon="103.337727"><ele>2462.9905</ele><time>2026-05-09T15:02:42.000Z</time></trkpt>
        <trkpt lat="29.5464" lon="103.337672"><ele>2466.1172</ele><time>2026-05-09T15:02:47.000Z</time></trkpt>
        <trkpt lat="29.546397" lon="103.337606"><ele>2466.6846</ele><time>2026-05-09T15:02:54.000Z</time></trkpt>
        <trkpt lat="29.546417" lon="103.337546"><ele>2465.0676</ele><time>2026-05-09T15:03:00.000Z</time></trkpt>
        <trkpt lat="29.546446" lon="103.337495"><ele>2465.895</ele><time>2026-05-09T15:03:05.000Z</time></trkpt>
        <trkpt lat="29.546478" lon="103.337458"><ele>2464.9717</ele><time>2026-05-09T15:03:10.000Z</time></trkpt>
        <trkpt lat="29.546532" lon="103.337437"><ele>2464.353</ele><time>2026-05-09T15:03:15.000Z</time></trkpt>
        <trkpt lat="29.546542" lon="103.337382"><ele>2463.8523</ele><time>2026-05-09T15:03:21.000Z</time></trkpt>
        <trkpt lat="29.546558" lon="103.337331"><ele>2465.1064</ele><time>2026-05-09T15:03:27.000Z</time></trkpt>
        <trkpt lat="29.546574" lon="103.33728"><ele>2465.177</ele><time>2026-05-09T15:03:35.000Z</time></trkpt>
        <trkpt lat="29.54658" lon="103.337221"><ele>2465.309</ele><time>2026-05-09T15:03:41.000Z</time></trkpt>
        <trkpt lat="29.546574" lon="103.337168"><ele>2466.2476</ele><time>2026-05-09T15:03:49.000Z</time></trkpt>
        <trkpt lat="29.54657" lon="103.337114"><ele>2468.6274</ele><time>2026-05-09T15:03:54.000Z</time></trkpt>
        <trkpt lat="29.546575" lon="103.337062"><ele>2470.019</ele><time>2026-05-09T15:04:03.000Z</time></trkpt>
        <trkpt lat="29.54653" lon="103.337052"><ele>2469.214</ele><time>2026-05-09T15:04:14.000Z</time></trkpt>
        <trkpt lat="29.546498" lon="103.337005"><ele>2471.2903</ele><time>2026-05-09T15:04:22.000Z</time></trkpt>
        <trkpt lat="29.546461" lon="103.336971"><ele>2470.1018</ele><time>2026-05-09T15:04:31.000Z</time></trkpt>
        <trkpt lat="29.546509" lon="103.336971"><ele>2470.1116</ele><time>2026-05-09T15:04:44.000Z</time></trkpt>
        <trkpt lat="29.546471" lon="103.336929"><ele>2469.4065</ele><time>2026-05-09T15:04:56.000Z</time></trkpt>
        <trkpt lat="29.546447" lon="103.336876"><ele>2470.5864</ele><time>2026-05-09T15:07:59.000Z</time></trkpt>
        <trkpt lat="29.546424" lon="103.336813"><ele>2468.428</ele><time>2026-05-09T15:08:05.000Z</time></trkpt>
        <trkpt lat="29.546428" lon="103.336753"><ele>2467.9495</ele><time>2026-05-09T15:08:09.000Z</time></trkpt>
        <trkpt lat="29.546424" lon="103.336698"><ele>2465.4514</ele><time>2026-05-09T15:08:14.000Z</time></trkpt>
        <trkpt lat="29.54642" lon="103.336641"><ele>2462.6602</ele><time>2026-05-09T15:08:21.000Z</time></trkpt>
        <trkpt lat="29.546425" lon="103.336588"><ele>2461.4263</ele><time>2026-05-09T15:08:25.000Z</time></trkpt>
        <trkpt lat="29.546446" lon="103.336536"><ele>2459.9827</ele><time>2026-05-09T15:08:30.000Z</time></trkpt>
        <trkpt lat="29.546457" lon="103.336485"><ele>2458.4314</ele><time>2026-05-09T15:08:34.000Z</time></trkpt>
        <trkpt lat="29.546487" lon="103.336444"><ele>2455.4392</ele><time>2026-05-09T15:08:41.000Z</time></trkpt>
        <trkpt lat="29.546493" lon="103.336393"><ele>2455.5188</ele><time>2026-05-09T15:08:45.000Z</time></trkpt>
        <trkpt lat="29.546485" lon="103.336337"><ele>2451.2935</ele><time>2026-05-09T15:08:51.000Z</time></trkpt>
        <trkpt lat="29.546471" lon="103.336278"><ele>2451.3015</ele><time>2026-05-09T15:08:56.000Z</time></trkpt>
        <trkpt lat="29.546482" lon="103.336226"><ele>2449.6443</ele><time>2026-05-09T15:09:00.000Z</time></trkpt>
        <trkpt lat="29.54651" lon="103.336165"><ele>2450.4114</ele><time>2026-05-09T15:09:03.000Z</time></trkpt>
        <trkpt lat="29.54654" lon="103.336113"><ele>2449.597</ele><time>2026-05-09T15:09:06.000Z</time></trkpt>
        <trkpt lat="29.546573" lon="103.336077"><ele>2449.7654</ele><time>2026-05-09T15:09:09.000Z</time></trkpt>
        <trkpt lat="29.546597" lon="103.336024"><ele>2449.1987</ele><time>2026-05-09T15:09:13.000Z</time></trkpt>
        <trkpt lat="29.546619" lon="103.335972"><ele>2448.38</ele><time>2026-05-09T15:09:17.000Z</time></trkpt>
        <trkpt lat="29.546625" lon="103.335909"><ele>2446.2976</ele><time>2026-05-09T15:09:21.000Z</time></trkpt>
        <trkpt lat="29.546626" lon="103.335849"><ele>2445.7903</ele><time>2026-05-09T15:09:25.000Z</time></trkpt>
        <trkpt lat="29.546638" lon="103.335789"><ele>2444.839</ele><time>2026-05-09T15:09:29.000Z</time></trkpt>
        <trkpt lat="29.546641" lon="103.335723"><ele>2446.8914</ele><time>2026-05-09T15:09:33.000Z</time></trkpt>
        <trkpt lat="29.546641" lon="103.335661"><ele>2445.798</ele><time>2026-05-09T15:09:37.000Z</time></trkpt>
        <trkpt lat="29.546651" lon="103.335609"><ele>2444.0918</ele><time>2026-05-09T15:09:42.000Z</time></trkpt>
        <trkpt lat="29.546682" lon="103.33556"><ele>2443.2148</ele><time>2026-05-09T15:09:49.000Z</time></trkpt>
        <trkpt lat="29.546702" lon="103.335507"><ele>2444.2197</ele><time>2026-05-09T15:09:53.000Z</time></trkpt>
        <trkpt lat="29.546708" lon="103.335453"><ele>2444.2646</ele><time>2026-05-09T15:09:58.000Z</time></trkpt>
        <trkpt lat="29.546734" lon="103.335389"><ele>2444.1868</ele><time>2026-05-09T15:10:03.000Z</time></trkpt>
        <trkpt lat="29.546754" lon="103.335343"><ele>2441.9946</ele><time>2026-05-09T15:10:07.000Z</time></trkpt>
        <trkpt lat="29.546764" lon="103.335281"><ele>2442.454</ele><time>2026-05-09T15:10:11.000Z</time></trkpt>
        <trkpt lat="29.546775" lon="103.335231"><ele>2441.0623</ele><time>2026-05-09T15:10:16.000Z</time></trkpt>
        <trkpt lat="29.546773" lon="103.335159"><ele>2442.2063</ele><time>2026-05-09T15:10:21.000Z</time></trkpt>
        <trkpt lat="29.546765" lon="103.335099"><ele>2441.3596</ele><time>2026-05-09T15:10:26.000Z</time></trkpt>
        <trkpt lat="29.546735" lon="103.335055"><ele>2438.2786</ele><time>2026-05-09T15:10:30.000Z</time></trkpt>
        <trkpt lat="29.546702" lon="103.335007"><ele>2437.4067</ele><time>2026-05-09T15:10:35.000Z</time></trkpt>
        <trkpt lat="29.546656" lon="103.334971"><ele>2434.9834</ele><time>2026-05-09T15:10:42.000Z</time></trkpt>
        <trkpt lat="29.546615" lon="103.334929"><ele>2433.87</ele><time>2026-05-09T15:10:47.000Z</time></trkpt>
        <trkpt lat="29.546568" lon="103.334887"><ele>2433.0867</ele><time>2026-05-09T15:10:51.000Z</time></trkpt>
        <trkpt lat="29.546525" lon="103.334847"><ele>2432.8289</ele><time>2026-05-09T15:10:55.000Z</time></trkpt>
        <trkpt lat="29.546469" lon="103.334835"><ele>2435.4758</ele><time>2026-05-09T15:11:00.000Z</time></trkpt>
        <trkpt lat="29.546421" lon="103.334821"><ele>2437.1274</ele><time>2026-05-09T15:11:04.000Z</time></trkpt>
        <trkpt lat="29.546371" lon="103.334816"><ele>2439.7805</ele><time>2026-05-09T15:11:09.000Z</time></trkpt>
        <trkpt lat="29.546321" lon="103.334827"><ele>2444.548</ele><time>2026-05-09T15:11:14.000Z</time></trkpt>
        <trkpt lat="29.54629" lon="103.334786"><ele>2443.392</ele><time>2026-05-09T15:11:21.000Z</time></trkpt>
        <trkpt lat="29.546246" lon="103.334775"><ele>2443.4932</ele><time>2026-05-09T15:11:25.000Z</time></trkpt>
        <trkpt lat="29.546199" lon="103.334793"><ele>2444.6228</ele><time>2026-05-09T15:11:32.000Z</time></trkpt>
        <trkpt lat="29.54615" lon="103.334797"><ele>2445.8337</ele><time>2026-05-09T15:11:38.000Z</time></trkpt>
        <trkpt lat="29.546104" lon="103.33478"><ele>2444.491</ele><time>2026-05-09T15:11:43.000Z</time></trkpt>
        <trkpt lat="29.546055" lon="103.334766"><ele>2442.349</ele><time>2026-05-09T15:11:51.000Z</time></trkpt>
        <trkpt lat="29.546004" lon="103.334752"><ele>2442.924</ele><time>2026-05-09T15:11:56.000Z</time></trkpt>
        <trkpt lat="29.545952" lon="103.334745"><ele>2441.6428</ele><time>2026-05-09T15:12:03.000Z</time></trkpt>
        <trkpt lat="29.545903" lon="103.334735"><ele>2440.086</ele><time>2026-05-09T15:12:08.000Z</time></trkpt>
        <trkpt lat="29.545881" lon="103.33468"><ele>2439.3694</ele><time>2026-05-09T15:12:13.000Z</time></trkpt>
        <trkpt lat="29.545862" lon="103.334624"><ele>2439.0393</ele><time>2026-05-09T15:12:17.000Z</time></trkpt>
        <trkpt lat="29.545845" lon="103.334563"><ele>2436.1082</ele><time>2026-05-09T15:12:21.000Z</time></trkpt>
        <trkpt lat="29.545801" lon="103.334551"><ele>2435.581</ele><time>2026-05-09T15:12:25.000Z</time></trkpt>
        <trkpt lat="29.545758" lon="103.334527"><ele>2434.8835</ele><time>2026-05-09T15:12:30.000Z</time></trkpt>
        <trkpt lat="29.545713" lon="103.334507"><ele>2433.2834</ele><time>2026-05-09T15:12:33.000Z</time></trkpt>
        <trkpt lat="29.545668" lon="103.334482"><ele>2432.3042</ele><time>2026-05-09T15:12:37.000Z</time></trkpt>
        <trkpt lat="29.545632" lon="103.334451"><ele>2433.0083</ele><time>2026-05-09T15:12:40.000Z</time></trkpt>
        <trkpt lat="29.545586" lon="103.334424"><ele>2430.84</ele><time>2026-05-09T15:12:43.000Z</time></trkpt>
        <trkpt lat="29.545536" lon="103.334406"><ele>2430.4653</ele><time>2026-05-09T15:12:46.000Z</time></trkpt>
        <trkpt lat="29.545492" lon="103.334372"><ele>2431.213</ele><time>2026-05-09T15:12:49.000Z</time></trkpt>
        <trkpt lat="29.545446" lon="103.334344"><ele>2435.4856</ele><time>2026-05-09T15:12:53.000Z</time></trkpt>
        <trkpt lat="29.545398" lon="103.334349"><ele>2439.2878</ele><time>2026-05-09T15:12:57.000Z</time></trkpt>
        <trkpt lat="29.545349" lon="103.334307"><ele>2440.1067</ele><time>2026-05-09T15:13:06.000Z</time></trkpt>
        <trkpt lat="29.545314" lon="103.334262"><ele>2439.9211</ele><time>2026-05-09T15:13:14.000Z</time></trkpt>
        <trkpt lat="29.545282" lon="103.334223"><ele>2439.285</ele><time>2026-05-09T15:13:17.000Z</time></trkpt>
        <trkpt lat="29.545246" lon="103.334177"><ele>2440.13</ele><time>2026-05-09T15:13:21.000Z</time></trkpt>
        <trkpt lat="29.545211" lon="103.334129"><ele>2440.5535</ele><time>2026-05-09T15:13:28.000Z</time></trkpt>
        <trkpt lat="29.545166" lon="103.334108"><ele>2438.6702</ele><time>2026-05-09T15:13:32.000Z</time></trkpt>
        <trkpt lat="29.545121" lon="103.334095"><ele>2440.0913</ele><time>2026-05-09T15:13:38.000Z</time></trkpt>
        <trkpt lat="29.545081" lon="103.334069"><ele>2440.116</ele><time>2026-05-09T15:13:41.000Z</time></trkpt>
        <trkpt lat="29.545031" lon="103.334074"><ele>2440.3442</ele><time>2026-05-09T15:13:46.000Z</time></trkpt>
        <trkpt lat="29.544986" lon="103.334081"><ele>2439.9727</ele><time>2026-05-09T15:13:51.000Z</time></trkpt>
        <trkpt lat="29.544937" lon="103.334064"><ele>2441.042</ele><time>2026-05-09T15:13:58.000Z</time></trkpt>
        <trkpt lat="29.54488" lon="103.33407"><ele>2439.0852</ele><time>2026-05-09T15:14:03.000Z</time></trkpt>
        <trkpt lat="29.544835" lon="103.334086"><ele>2439.2534</ele><time>2026-05-09T15:14:07.000Z</time></trkpt>
        <trkpt lat="29.544794" lon="103.334123"><ele>2439.1404</ele><time>2026-05-09T15:14:12.000Z</time></trkpt>
        <trkpt lat="29.544765" lon="103.334176"><ele>2436.743</ele><time>2026-05-09T15:14:18.000Z</time></trkpt>
        <trkpt lat="29.544721" lon="103.334214"><ele>2436.3062</ele><time>2026-05-09T15:14:22.000Z</time></trkpt>
        <trkpt lat="29.544673" lon="103.334232"><ele>2436.7292</ele><time>2026-05-09T15:14:28.000Z</time></trkpt>
        <trkpt lat="29.544629" lon="103.334248"><ele>2435.6064</ele><time>2026-05-09T15:14:32.000Z</time></trkpt>
        <trkpt lat="29.544583" lon="103.334259"><ele>2434.934</ele><time>2026-05-09T15:14:35.000Z</time></trkpt>
        <trkpt lat="29.544536" lon="103.334222"><ele>2434.5935</ele><time>2026-05-09T15:14:39.000Z</time></trkpt>
        <trkpt lat="29.544481" lon="103.334207"><ele>2436.9358</ele><time>2026-05-09T15:14:43.000Z</time></trkpt>
        <trkpt lat="29.544436" lon="103.334173"><ele>2437.609</ele><time>2026-05-09T15:14:48.000Z</time></trkpt>
        <trkpt lat="29.544386" lon="103.334183"><ele>2435.968</ele><time>2026-05-09T15:14:51.000Z</time></trkpt>
        <trkpt lat="29.544333" lon="103.334177"><ele>2434.3018</ele><time>2026-05-09T15:14:55.000Z</time></trkpt>
        <trkpt lat="29.544286" lon="103.33417"><ele>2436.2012</ele><time>2026-05-09T15:14:59.000Z</time></trkpt>
        <trkpt lat="29.544232" lon="103.334172"><ele>2435.95</ele><time>2026-05-09T15:15:03.000Z</time></trkpt>
        <trkpt lat="29.544176" lon="103.33416"><ele>2434.3064</ele><time>2026-05-09T15:15:10.000Z</time></trkpt>
        <trkpt lat="29.544117" lon="103.334136"><ele>2435.7268</ele><time>2026-05-09T15:15:15.000Z</time></trkpt>
        <trkpt lat="29.544069" lon="103.334127"><ele>2434.4927</ele><time>2026-05-09T15:15:20.000Z</time></trkpt>
        <trkpt lat="29.544027" lon="103.334093"><ele>2435.0186</ele><time>2026-05-09T15:15:25.000Z</time></trkpt>
        <trkpt lat="29.543985" lon="103.334058"><ele>2434.68</ele><time>2026-05-09T15:15:30.000Z</time></trkpt>
        <trkpt lat="29.543947" lon="103.334021"><ele>2433.324</ele><time>2026-05-09T15:15:53.000Z</time></trkpt>
        <trkpt lat="29.543911" lon="103.333972"><ele>2434.9373</ele><time>2026-05-09T15:16:01.000Z</time></trkpt>
        <trkpt lat="29.543883" lon="103.33392"><ele>2434.736</ele><time>2026-05-09T15:16:08.000Z</time></trkpt>
        <trkpt lat="29.543831" lon="103.333912"><ele>2434.3289</ele><time>2026-05-09T15:16:14.000Z</time></trkpt>
        <trkpt lat="29.543785" lon="103.33392"><ele>2434.41</ele><time>2026-05-09T15:16:21.000Z</time></trkpt>
        <trkpt lat="29.543741" lon="103.333933"><ele>2433.5886</ele><time>2026-05-09T15:16:27.000Z</time></trkpt>
        <trkpt lat="29.543691" lon="103.333937"><ele>2433.703</ele><time>2026-05-09T15:16:32.000Z</time></trkpt>
        <trkpt lat="29.543653" lon="103.333908"><ele>2432.7563</ele><time>2026-05-09T15:16:37.000Z</time></trkpt>
        <trkpt lat="29.543613" lon="103.33387"><ele>2432.3193</ele><time>2026-05-09T15:16:41.000Z</time></trkpt>
        <trkpt lat="29.543581" lon="103.333832"><ele>2432.0535</ele><time>2026-05-09T15:16:46.000Z</time></trkpt>
        <trkpt lat="29.543544" lon="103.333795"><ele>2433.2085</ele><time>2026-05-09T15:16:51.000Z</time></trkpt>
        <trkpt lat="29.543513" lon="103.333751"><ele>2431.5745</ele><time>2026-05-09T15:16:59.000Z</time></trkpt>
        <trkpt lat="29.543482" lon="103.333712"><ele>2431.3145</ele><time>2026-05-09T15:17:08.000Z</time></trkpt>
        <trkpt lat="29.543443" lon="103.333678"><ele>2429.5662</ele><time>2026-05-09T15:17:19.000Z</time></trkpt>
        <trkpt lat="29.543409" lon="103.333639"><ele>2428.9023</ele><time>2026-05-09T15:17:25.000Z</time></trkpt>
        <trkpt lat="29.543395" lon="103.333579"><ele>2427.387</ele><time>2026-05-09T15:17:30.000Z</time></trkpt>
        <trkpt lat="29.543369" lon="103.333526"><ele>2427.298</ele><time>2026-05-09T15:17:35.000Z</time></trkpt>
        <trkpt lat="29.543357" lon="103.333468"><ele>2428.5122</ele><time>2026-05-09T15:17:39.000Z</time></trkpt>
        <trkpt lat="29.543346" lon="103.333404"><ele>2426.912</ele><time>2026-05-09T15:17:43.000Z</time></trkpt>
        <trkpt lat="29.543324" lon="103.333354"><ele>2428.5327</ele><time>2026-05-09T15:17:48.000Z</time></trkpt>
        <trkpt lat="29.543296" lon="103.333303"><ele>2428.2598</ele><time>2026-05-09T15:17:52.000Z</time></trkpt>
        <trkpt lat="29.543292" lon="103.33325"><ele>2428.0354</ele><time>2026-05-09T15:17:58.000Z</time></trkpt>
        <trkpt lat="29.543268" lon="103.333197"><ele>2428.2349</ele><time>2026-05-09T15:18:03.000Z</time></trkpt>
        <trkpt lat="29.543238" lon="103.333156"><ele>2428.5945</ele><time>2026-05-09T15:18:07.000Z</time></trkpt>
        <trkpt lat="29.543212" lon="103.333107"><ele>2429.2595</ele><time>2026-05-09T15:18:14.000Z</time></trkpt>
        <trkpt lat="29.54318" lon="103.33307"><ele>2430.9138</ele><time>2026-05-09T15:18:20.000Z</time></trkpt>
        <trkpt lat="29.543151" lon="103.333014"><ele>2430.298</ele><time>2026-05-09T15:18:27.000Z</time></trkpt>
        <trkpt lat="29.54311" lon="103.332985"><ele>2426.951</ele><time>2026-05-09T15:18:43.000Z</time></trkpt>
        <trkpt lat="29.543062" lon="103.333002"><ele>2427.586</ele><time>2026-05-09T15:18:46.000Z</time></trkpt>
        <trkpt lat="29.543003" lon="103.332992"><ele>2427.6577</ele><time>2026-05-09T15:18:50.000Z</time></trkpt>
        <trkpt lat="29.542949" lon="103.332991"><ele>2428.6707</ele><time>2026-05-09T15:18:54.000Z</time></trkpt>
        <trkpt lat="29.542911" lon="103.332941"><ele>2429.069</ele><time>2026-05-09T15:18:59.000Z</time></trkpt>
        <trkpt lat="29.542868" lon="103.332907"><ele>2428.3118</ele><time>2026-05-09T15:19:05.000Z</time></trkpt>
        <trkpt lat="29.542826" lon="103.332858"><ele>2429.1814</ele><time>2026-05-09T15:19:12.000Z</time></trkpt>
        <trkpt lat="29.542804" lon="103.3328"><ele>2427.5178</ele><time>2026-05-09T15:19:17.000Z</time></trkpt>
        <trkpt lat="29.542772" lon="103.332756"><ele>2426.72</ele><time>2026-05-09T15:19:21.000Z</time></trkpt>
        <trkpt lat="29.542751" lon="103.332706"><ele>2429.696</ele><time>2026-05-09T15:19:25.000Z</time></trkpt>
        <trkpt lat="29.542729" lon="103.332655"><ele>2431.621</ele><time>2026-05-09T15:19:32.000Z</time></trkpt>
        <trkpt lat="29.542678" lon="103.332645"><ele>2430.3774</ele><time>2026-05-09T15:19:37.000Z</time></trkpt>
        <trkpt lat="29.542624" lon="103.332651"><ele>2430.9016</ele><time>2026-05-09T15:19:41.000Z</time></trkpt>
        <trkpt lat="29.542574" lon="103.332631"><ele>2431.425</ele><time>2026-05-09T15:19:45.000Z</time></trkpt>
        <trkpt lat="29.54254" lon="103.332589"><ele>2430.8977</ele><time>2026-05-09T15:19:49.000Z</time></trkpt>
        <trkpt lat="29.542534" lon="103.332535"><ele>2429.9058</ele><time>2026-05-09T15:19:53.000Z</time></trkpt>
        <trkpt lat="29.54253" lon="103.332478"><ele>2429.742</ele><time>2026-05-09T15:19:58.000Z</time></trkpt>
        <trkpt lat="29.54251" lon="103.332423"><ele>2430.4812</ele><time>2026-05-09T15:20:04.000Z</time></trkpt>
        <trkpt lat="29.542479" lon="103.332375"><ele>2427.6003</ele><time>2026-05-09T15:20:10.000Z</time></trkpt>
        <trkpt lat="29.542453" lon="103.332332"><ele>2428.9785</ele><time>2026-05-09T15:20:15.000Z</time></trkpt>
        <trkpt lat="29.542429" lon="103.332271"><ele>2430.446</ele><time>2026-05-09T15:20:20.000Z</time></trkpt>
        <trkpt lat="29.542399" lon="103.332226"><ele>2429.5037</ele><time>2026-05-09T15:20:24.000Z</time></trkpt>
        <trkpt lat="29.542371" lon="103.332179"><ele>2429.104</ele><time>2026-05-09T15:20:28.000Z</time></trkpt>
        <trkpt lat="29.542332" lon="103.332144"><ele>2429.4297</ele><time>2026-05-09T15:20:33.000Z</time></trkpt>
        <trkpt lat="29.542291" lon="103.332123"><ele>2429.8743</ele><time>2026-05-09T15:20:36.000Z</time></trkpt>
        <trkpt lat="29.542243" lon="103.332081"><ele>2428.8428</ele><time>2026-05-09T15:20:41.000Z</time></trkpt>
        <trkpt lat="29.542215" lon="103.332039"><ele>2428.6394</ele><time>2026-05-09T15:20:45.000Z</time></trkpt>
        <trkpt lat="29.542167" lon="103.332013"><ele>2428.1575</ele><time>2026-05-09T15:20:50.000Z</time></trkpt>
        <trkpt lat="29.54212" lon="103.332009"><ele>2426.6624</ele><time>2026-05-09T15:20:55.000Z</time></trkpt>
        <trkpt lat="29.54207" lon="103.331997"><ele>2426.1604</ele><time>2026-05-09T15:21:00.000Z</time></trkpt>
        <trkpt lat="29.542013" lon="103.331992"><ele>2424.5222</ele><time>2026-05-09T15:21:06.000Z</time></trkpt>
        <trkpt lat="29.541964" lon="103.331971"><ele>2423.9097</ele><time>2026-05-09T15:21:10.000Z</time></trkpt>
        <trkpt lat="29.541934" lon="103.331927"><ele>2425.2725</ele><time>2026-05-09T15:21:14.000Z</time></trkpt>
        <trkpt lat="29.541928" lon="103.33187"><ele>2425.2239</ele><time>2026-05-09T15:21:18.000Z</time></trkpt>
        <trkpt lat="29.541918" lon="103.331811"><ele>2425.215</ele><time>2026-05-09T15:21:22.000Z</time></trkpt>
        <trkpt lat="29.541898" lon="103.331759"><ele>2424.78</ele><time>2026-05-09T15:21:26.000Z</time></trkpt>
        <trkpt lat="29.54186" lon="103.331727"><ele>2425.548</ele><time>2026-05-09T15:21:30.000Z</time></trkpt>
        <trkpt lat="29.54182" lon="103.331691"><ele>2426.7546</ele><time>2026-05-09T15:21:35.000Z</time></trkpt>
        <trkpt lat="29.541776" lon="103.331671"><ele>2426.7144</ele><time>2026-05-09T15:21:39.000Z</time></trkpt>
        <trkpt lat="29.541731" lon="103.331658"><ele>2425.8743</ele><time>2026-05-09T15:21:43.000Z</time></trkpt>
        <trkpt lat="29.541683" lon="103.331661"><ele>2425.9531</ele><time>2026-05-09T15:21:47.000Z</time></trkpt>
        <trkpt lat="29.541636" lon="103.331655"><ele>2425.873</ele><time>2026-05-09T15:21:51.000Z</time></trkpt>
        <trkpt lat="29.54159" lon="103.331657"><ele>2425.9531</ele><time>2026-05-09T15:21:55.000Z</time></trkpt>
        <trkpt lat="29.541544" lon="103.331662"><ele>2425.6152</ele><time>2026-05-09T15:21:59.000Z</time></trkpt>
        <trkpt lat="29.541495" lon="103.331655"><ele>2426.2183</ele><time>2026-05-09T15:22:03.000Z</time></trkpt>
        <trkpt lat="29.541458" lon="103.331624"><ele>2425.3179</ele><time>2026-05-09T15:22:10.000Z</time></trkpt>
        <trkpt lat="29.541457" lon="103.331565"><ele>2425.5662</ele><time>2026-05-09T15:22:14.000Z</time></trkpt>
        <trkpt lat="29.541447" lon="103.331508"><ele>2425.9888</ele><time>2026-05-09T15:22:18.000Z</time></trkpt>
        <trkpt lat="29.541448" lon="103.331447"><ele>2426.1545</ele><time>2026-05-09T15:22:23.000Z</time></trkpt>
        <trkpt lat="29.541444" lon="103.33139"><ele>2427.4392</ele><time>2026-05-09T15:22:27.000Z</time></trkpt>
        <trkpt lat="29.541422" lon="103.331332"><ele>2428.3325</ele><time>2026-05-09T15:22:33.000Z</time></trkpt>
        <trkpt lat="29.541419" lon="103.331273"><ele>2427.918</ele><time>2026-05-09T15:22:45.000Z</time></trkpt>
        <trkpt lat="29.541367" lon="103.331324"><ele>2425.804</ele><time>2026-05-09T15:23:03.000Z</time></trkpt>
        <trkpt lat="29.541446" lon="103.331609"><ele>2425.6858</ele><time>2026-05-09T15:23:26.000Z</time></trkpt>
        <trkpt lat="29.541449" lon="103.3317"><ele>2425.7444</ele><time>2026-05-09T15:23:31.000Z</time></trkpt>
        <trkpt lat="29.541449" lon="103.331693"><ele>2425.7483</ele><time>2026-05-09T15:23:32.000Z</time></trkpt>
        <trkpt lat="29.54142" lon="103.331802"><ele>2425.971</ele><time>2026-05-09T15:23:37.000Z</time></trkpt>
        <trkpt lat="29.541445" lon="103.33176"><ele>2425.3374</ele><time>2026-05-09T15:24:03.000Z</time></trkpt>
        <trkpt lat="29.541411" lon="103.331589"><ele>2425.1401</ele><time>2026-05-09T15:24:43.000Z</time></trkpt>
        <trkpt lat="29.541398" lon="103.331533"><ele>2425.2449</ele><time>2026-05-09T15:24:50.000Z</time></trkpt>
        <trkpt lat="29.541414" lon="103.331619"><ele>2426.6042</ele><time>2026-05-09T15:25:20.000Z</time></trkpt>
        <trkpt lat="29.5414" lon="103.331669"><ele>2426.127</ele><time>2026-05-09T15:25:25.000Z</time></trkpt>
        <trkpt lat="29.541382" lon="103.331717"><ele>2425.5413</ele><time>2026-05-09T15:25:45.000Z</time></trkpt>
        <trkpt lat="29.541354" lon="103.331576"><ele>2425.4265</ele><time>2026-05-09T15:26:24.000Z</time></trkpt>
        <trkpt lat="29.541423" lon="103.331599"><ele>2424.9312</ele><time>2026-05-09T15:26:31.000Z</time></trkpt>
        <trkpt lat="29.541415" lon="103.331541"><ele>2424.6936</ele><time>2026-05-09T15:26:33.000Z</time></trkpt>
        <trkpt lat="29.541419" lon="103.331453"><ele>2424.51</ele><time>2026-05-09T15:26:50.000Z</time></trkpt>
        <trkpt lat="29.54144" lon="103.331613"><ele>2425.2246</ele><time>2026-05-09T15:32:24.000Z</time></trkpt>
        <trkpt lat="29.541436" lon="103.33155"><ele>2425.504</ele><time>2026-05-09T15:33:14.000Z</time></trkpt>
        <trkpt lat="29.541434" lon="103.331553"><ele>2427.6409</ele><time>2026-05-09T15:33:17.000Z</time></trkpt>
        <trkpt lat="29.541416" lon="103.331339"><ele>2423.924</ele><time>2026-05-09T15:33:42.000Z</time></trkpt>
        <trkpt lat="29.54142" lon="103.331454"><ele>2424.9766</ele><time>2026-05-09T15:33:51.000Z</time></trkpt>
        <trkpt lat="29.541399" lon="103.33155"><ele>2424.9004</ele><time>2026-05-09T15:33:57.000Z</time></trkpt>
        <trkpt lat="29.541382" lon="103.331563"><ele>2424.2852</ele><time>2026-05-09T15:34:09.000Z</time></trkpt>
        <trkpt lat="29.541402" lon="103.331516"><ele>2424.9656</ele><time>2026-05-09T15:34:12.000Z</time></trkpt>
        <trkpt lat="29.541407" lon="103.331427"><ele>2424.944</ele><time>2026-05-09T15:34:14.000Z</time></trkpt>
        <trkpt lat="29.541416" lon="103.331357"><ele>2426.1577</ele><time>2026-05-09T15:34:16.000Z</time></trkpt>
        <trkpt lat="29.541364" lon="103.331355"><ele>2427.0317</ele><time>2026-05-09T15:34:21.000Z</time></trkpt>
        <trkpt lat="29.54131" lon="103.331364"><ele>2428.5374</ele><time>2026-05-09T15:34:25.000Z</time></trkpt>
        <trkpt lat="29.541259" lon="103.331368"><ele>2427.8296</ele><time>2026-05-09T15:34:29.000Z</time></trkpt>
        <trkpt lat="29.541213" lon="103.331392"><ele>2428.246</ele><time>2026-05-09T15:34:34.000Z</time></trkpt>
        <trkpt lat="29.541164" lon="103.331397"><ele>2427.5457</ele><time>2026-05-09T15:34:40.000Z</time></trkpt>
        <trkpt lat="29.541128" lon="103.331361"><ele>2429.5256</ele><time>2026-05-09T15:34:44.000Z</time></trkpt>
        <trkpt lat="29.541092" lon="103.331324"><ele>2430.128</ele><time>2026-05-09T15:34:49.000Z</time></trkpt>
        <trkpt lat="29.541059" lon="103.331284"><ele>2431.2727</ele><time>2026-05-09T15:34:53.000Z</time></trkpt>
        <trkpt lat="29.541024" lon="103.331245"><ele>2433.555</ele><time>2026-05-09T15:34:59.000Z</time></trkpt>
        <trkpt lat="29.540966" lon="103.3312"><ele>2433.4387</ele><time>2026-05-09T15:35:04.000Z</time></trkpt>
        <trkpt lat="29.540914" lon="103.331179"><ele>2432.468</ele><time>2026-05-09T15:35:09.000Z</time></trkpt>
        <trkpt lat="29.540869" lon="103.331147"><ele>2430.4805</ele><time>2026-05-09T15:35:13.000Z</time></trkpt>
        <trkpt lat="29.540839" lon="103.331095"><ele>2429.3484</ele><time>2026-05-09T15:35:17.000Z</time></trkpt>
        <trkpt lat="29.54081" lon="103.331049"><ele>2428.587</ele><time>2026-05-09T15:35:21.000Z</time></trkpt>
        <trkpt lat="29.540772" lon="103.331017"><ele>2428.7532</ele><time>2026-05-09T15:35:25.000Z</time></trkpt>
        <trkpt lat="29.540721" lon="103.331013"><ele>2428.3977</ele><time>2026-05-09T15:35:32.000Z</time></trkpt>
        <trkpt lat="29.540692" lon="103.331061"><ele>2428.453</ele><time>2026-05-09T15:35:39.000Z</time></trkpt>
        <trkpt lat="29.540674" lon="103.331112"><ele>2429.015</ele><time>2026-05-09T15:35:45.000Z</time></trkpt>
        <trkpt lat="29.540621" lon="103.331097"><ele>2428.3027</ele><time>2026-05-09T15:35:52.000Z</time></trkpt>
        <trkpt lat="29.540568" lon="103.331082"><ele>2429.0059</ele><time>2026-05-09T15:35:57.000Z</time></trkpt>
        <trkpt lat="29.540518" lon="103.331087"><ele>2429.6135</ele><time>2026-05-09T15:36:04.000Z</time></trkpt>
        <trkpt lat="29.540467" lon="103.331103"><ele>2429.5474</ele><time>2026-05-09T15:36:08.000Z</time></trkpt>
        <trkpt lat="29.540422" lon="103.33113"><ele>2429.6807</ele><time>2026-05-09T15:36:13.000Z</time></trkpt>
        <trkpt lat="29.540377" lon="103.331142"><ele>2429.131</ele><time>2026-05-09T15:36:18.000Z</time></trkpt>
        <trkpt lat="29.540323" lon="103.331139"><ele>2429.877</ele><time>2026-05-09T15:36:22.000Z</time></trkpt>
        <trkpt lat="29.54027" lon="103.331161"><ele>2430.49</ele><time>2026-05-09T15:36:27.000Z</time></trkpt>
        <trkpt lat="29.540229" lon="103.331206"><ele>2428.8206</ele><time>2026-05-09T15:36:32.000Z</time></trkpt>
        <trkpt lat="29.540188" lon="103.331242"><ele>2429.098</ele><time>2026-05-09T15:36:36.000Z</time></trkpt>
        <trkpt lat="29.540137" lon="103.331282"><ele>2428.856</ele><time>2026-05-09T15:36:41.000Z</time></trkpt>
        <trkpt lat="29.540093" lon="103.331314"><ele>2429.251</ele><time>2026-05-09T15:36:45.000Z</time></trkpt>
        <trkpt lat="29.540047" lon="103.331352"><ele>2429.2805</ele><time>2026-05-09T15:36:50.000Z</time></trkpt>
        <trkpt lat="29.540018" lon="103.331399"><ele>2430.1414</ele><time>2026-05-09T15:36:54.000Z</time></trkpt>
        <trkpt lat="29.539983" lon="103.331431"><ele>2430.075</ele><time>2026-05-09T15:36:58.000Z</time></trkpt>
        <trkpt lat="29.539946" lon="103.331465"><ele>2430.1455</ele><time>2026-05-09T15:37:03.000Z</time></trkpt>
        <trkpt lat="29.539898" lon="103.331488"><ele>2430.6243</ele><time>2026-05-09T15:37:07.000Z</time></trkpt>
        <trkpt lat="29.539853" lon="103.331525"><ele>2430.9675</ele><time>2026-05-09T15:37:12.000Z</time></trkpt>
        <trkpt lat="29.539817" lon="103.331571"><ele>2431.2712</ele><time>2026-05-09T15:37:17.000Z</time></trkpt>
        <trkpt lat="29.539795" lon="103.331623"><ele>2432.3247</ele><time>2026-05-09T15:37:21.000Z</time></trkpt>
        <trkpt lat="29.539765" lon="103.33168"><ele>2431.6353</ele><time>2026-05-09T15:37:26.000Z</time></trkpt>
        <trkpt lat="29.539751" lon="103.331732"><ele>2432.4854</ele><time>2026-05-09T15:37:30.000Z</time></trkpt>
        <trkpt lat="29.53973" lon="103.331779"><ele>2432.814</ele><time>2026-05-09T15:37:34.000Z</time></trkpt>
        <trkpt lat="29.539715" lon="103.331834"><ele>2434.238</ele><time>2026-05-09T15:37:38.000Z</time></trkpt>
        <trkpt lat="29.539703" lon="103.331885"><ele>2434.6272</ele><time>2026-05-09T15:37:42.000Z</time></trkpt>
        <trkpt lat="29.539705" lon="103.331944"><ele>2435.4119</ele><time>2026-05-09T15:37:46.000Z</time></trkpt>
        <trkpt lat="29.539719" lon="103.332004"><ele>2434.5134</ele><time>2026-05-09T15:37:50.000Z</time></trkpt>
        <trkpt lat="29.539755" lon="103.332048"><ele>2437.094</ele><time>2026-05-09T15:37:54.000Z</time></trkpt>
        <trkpt lat="29.539783" lon="103.332098"><ele>2437.3552</ele><time>2026-05-09T15:38:00.000Z</time></trkpt>
        <trkpt lat="29.539804" lon="103.332148"><ele>2437.4604</ele><time>2026-05-09T15:38:04.000Z</time></trkpt>
        <trkpt lat="29.53981" lon="103.332208"><ele>2437.1138</ele><time>2026-05-09T15:38:09.000Z</time></trkpt>
        <trkpt lat="29.539765" lon="103.332234"><ele>2438.938</ele><time>2026-05-09T15:38:14.000Z</time></trkpt>
        <trkpt lat="29.539747" lon="103.332296"><ele>2438.9368</ele><time>2026-05-09T15:38:20.000Z</time></trkpt>
        <trkpt lat="29.539755" lon="103.332347"><ele>2438.89</ele><time>2026-05-09T15:38:27.000Z</time></trkpt>
        <trkpt lat="29.539708" lon="103.332384"><ele>2436.8496</ele><time>2026-05-09T15:38:32.000Z</time></trkpt>
        <trkpt lat="29.539657" lon="103.332409"><ele>2438.7559</ele><time>2026-05-09T15:38:37.000Z</time></trkpt>
        <trkpt lat="29.539605" lon="103.332433"><ele>2437.3738</ele><time>2026-05-09T15:38:45.000Z</time></trkpt>
        <trkpt lat="29.539568" lon="103.332482"><ele>2441.9207</ele><time>2026-05-09T15:38:49.000Z</time></trkpt>
        <trkpt lat="29.53953" lon="103.332509"><ele>2445.6697</ele><time>2026-05-09T15:39:02.000Z</time></trkpt>
        <trkpt lat="29.539489" lon="103.332541"><ele>2447.1428</ele><time>2026-05-09T15:39:15.000Z</time></trkpt>
        <trkpt lat="29.539443" lon="103.332551"><ele>2446.3713</ele><time>2026-05-09T15:39:21.000Z</time></trkpt>
        <trkpt lat="29.539409" lon="103.332627"><ele>2449.7065</ele><time>2026-05-09T15:39:27.000Z</time></trkpt>
        <trkpt lat="29.539358" lon="103.332667"><ele>2447.783</ele><time>2026-05-09T15:39:31.000Z</time></trkpt>
        <trkpt lat="29.539321" lon="103.332701"><ele>2450.0876</ele><time>2026-05-09T15:39:38.000Z</time></trkpt>
        <trkpt lat="29.539249" lon="103.332749"><ele>2450.7253</ele><time>2026-05-09T15:39:45.000Z</time></trkpt>
        <trkpt lat="29.539245" lon="103.332802"><ele>2452.651</ele><time>2026-05-09T15:39:52.000Z</time></trkpt>
        <trkpt lat="29.539197" lon="103.332822"><ele>2452.6494</ele><time>2026-05-09T15:39:56.000Z</time></trkpt>
        <trkpt lat="29.539152" lon="103.332831"><ele>2452.3638</ele><time>2026-05-09T15:39:59.000Z</time></trkpt>
        <trkpt lat="29.539102" lon="103.332857"><ele>2452.47</ele><time>2026-05-09T15:40:03.000Z</time></trkpt>
        <trkpt lat="29.539069" lon="103.332897"><ele>2452.4795</ele><time>2026-05-09T15:40:08.000Z</time></trkpt>
        <trkpt lat="29.53901" lon="103.33293"><ele>2452.2263</ele><time>2026-05-09T15:40:12.000Z</time></trkpt>
        <trkpt lat="29.538978" lon="103.332968"><ele>2450.59</ele><time>2026-05-09T15:40:18.000Z</time></trkpt>
        <trkpt lat="29.538947" lon="103.333011"><ele>2452.493</ele><time>2026-05-09T15:40:21.000Z</time></trkpt>
        <trkpt lat="29.53891" lon="103.333045"><ele>2452.63</ele><time>2026-05-09T15:40:25.000Z</time></trkpt>
        <trkpt lat="29.538872" lon="103.333073"><ele>2453.7014</ele><time>2026-05-09T15:40:29.000Z</time></trkpt>
        <trkpt lat="29.538822" lon="103.333083"><ele>2453.7817</ele><time>2026-05-09T15:40:33.000Z</time></trkpt>
        <trkpt lat="29.538774" lon="103.333124"><ele>2455.8052</ele><time>2026-05-09T15:40:37.000Z</time></trkpt>
        <trkpt lat="29.538719" lon="103.333121"><ele>2454.0098</ele><time>2026-05-09T15:40:42.000Z</time></trkpt>
        <trkpt lat="29.53868" lon="103.333158"><ele>2454.2766</ele><time>2026-05-09T15:40:46.000Z</time></trkpt>
        <trkpt lat="29.538635" lon="103.333161"><ele>2455.8777</ele><time>2026-05-09T15:40:50.000Z</time></trkpt>
        <trkpt lat="29.53857" lon="103.333172"><ele>2455.5781</ele><time>2026-05-09T15:40:57.000Z</time></trkpt>
        <trkpt lat="29.538514" lon="103.333201"><ele>2457.074</ele><time>2026-05-09T15:41:01.000Z</time></trkpt>
        <trkpt lat="29.538462" lon="103.333196"><ele>2457.353</ele><time>2026-05-09T15:41:06.000Z</time></trkpt>
        <trkpt lat="29.538413" lon="103.333206"><ele>2458.79</ele><time>2026-05-09T15:41:10.000Z</time></trkpt>
        <trkpt lat="29.538368" lon="103.333221"><ele>2456.0469</ele><time>2026-05-09T15:41:16.000Z</time></trkpt>
        <trkpt lat="29.538321" lon="103.333235"><ele>2459.277</ele><time>2026-05-09T15:41:20.000Z</time></trkpt>
        <trkpt lat="29.538275" lon="103.333262"><ele>2460.33</ele><time>2026-05-09T15:41:25.000Z</time></trkpt>
        <trkpt lat="29.538223" lon="103.333297"><ele>2461.648</ele><time>2026-05-09T15:41:29.000Z</time></trkpt>
        <trkpt lat="29.53818" lon="103.33334"><ele>2461.5552</ele><time>2026-05-09T15:41:34.000Z</time></trkpt>
        <trkpt lat="29.538132" lon="103.333378"><ele>2461.6938</ele><time>2026-05-09T15:41:39.000Z</time></trkpt>
        <trkpt lat="29.538086" lon="103.333411"><ele>2462.6523</ele><time>2026-05-09T15:41:43.000Z</time></trkpt>
        <trkpt lat="29.538043" lon="103.333432"><ele>2461.0325</ele><time>2026-05-09T15:41:46.000Z</time></trkpt>
        <trkpt lat="29.537994" lon="103.333449"><ele>2462.1912</ele><time>2026-05-09T15:41:49.000Z</time></trkpt>
        <trkpt lat="29.537952" lon="103.333468"><ele>2462.9253</ele><time>2026-05-09T15:41:52.000Z</time></trkpt>
        <trkpt lat="29.537902" lon="103.333485"><ele>2461.6606</ele><time>2026-05-09T15:41:56.000Z</time></trkpt>
        <trkpt lat="29.537861" lon="103.333508"><ele>2462.151</ele><time>2026-05-09T15:42:00.000Z</time></trkpt>
        <trkpt lat="29.537821" lon="103.333537"><ele>2464.0037</ele><time>2026-05-09T15:42:04.000Z</time></trkpt>
        <trkpt lat="29.537773" lon="103.33357"><ele>2464.2144</ele><time>2026-05-09T15:42:08.000Z</time></trkpt>
        <trkpt lat="29.537741" lon="103.333613"><ele>2463.5042</ele><time>2026-05-09T15:42:14.000Z</time></trkpt>
        <trkpt lat="29.537706" lon="103.333648"><ele>2463.9238</ele><time>2026-05-09T15:42:19.000Z</time></trkpt>
        <trkpt lat="29.537682" lon="103.333696"><ele>2465.4197</ele><time>2026-05-09T15:42:22.000Z</time></trkpt>
        <trkpt lat="29.537637" lon="103.333723"><ele>2466.6829</ele><time>2026-05-09T15:42:26.000Z</time></trkpt>
        <trkpt lat="29.537592" lon="103.33375"><ele>2467.57</ele><time>2026-05-09T15:42:31.000Z</time></trkpt>
        <trkpt lat="29.537548" lon="103.333774"><ele>2470.7595</ele><time>2026-05-09T15:42:35.000Z</time></trkpt>
        <trkpt lat="29.537503" lon="103.333768"><ele>2469.4858</ele><time>2026-05-09T15:42:40.000Z</time></trkpt>
        <trkpt lat="29.537454" lon="103.333785"><ele>2471.4377</ele><time>2026-05-09T15:42:45.000Z</time></trkpt>
        <trkpt lat="29.537409" lon="103.333772"><ele>2472.8406</ele><time>2026-05-09T15:42:49.000Z</time></trkpt>
        <trkpt lat="29.537355" lon="103.333784"><ele>2472.583</ele><time>2026-05-09T15:42:54.000Z</time></trkpt>
        <trkpt lat="29.537305" lon="103.333795"><ele>2474.2336</ele><time>2026-05-09T15:42:59.000Z</time></trkpt>
        <trkpt lat="29.537289" lon="103.333851"><ele>2473.5457</ele><time>2026-05-09T15:43:06.000Z</time></trkpt>
        <trkpt lat="29.537284" lon="103.333905"><ele>2475.2927</ele><time>2026-05-09T15:43:11.000Z</time></trkpt>
        <trkpt lat="29.53726" lon="103.333952"><ele>2475.4207</ele><time>2026-05-09T15:43:18.000Z</time></trkpt>
        <trkpt lat="29.537238" lon="103.333998"><ele>2475.349</ele><time>2026-05-09T15:43:25.000Z</time></trkpt>
        <trkpt lat="29.537226" lon="103.334048"><ele>2475.7986</ele><time>2026-05-09T15:43:31.000Z</time></trkpt>
        <trkpt lat="29.537196" lon="103.334094"><ele>2476.9653</ele><time>2026-05-09T15:43:36.000Z</time></trkpt>
        <trkpt lat="29.537157" lon="103.334127"><ele>2476.449</ele><time>2026-05-09T15:43:41.000Z</time></trkpt>
        <trkpt lat="29.537112" lon="103.33414"><ele>2479.1653</ele><time>2026-05-09T15:43:48.000Z</time></trkpt>
        <trkpt lat="29.537078" lon="103.334177"><ele>2480.8386</ele><time>2026-05-09T15:43:54.000Z</time></trkpt>
        <trkpt lat="29.537035" lon="103.334203"><ele>2482.0613</ele><time>2026-05-09T15:44:01.000Z</time></trkpt>
        <trkpt lat="29.536984" lon="103.334215"><ele>2478.4849</ele><time>2026-05-09T15:44:09.000Z</time></trkpt>
        <trkpt lat="29.536933" lon="103.334241"><ele>2485.1018</ele><time>2026-05-09T15:44:15.000Z</time></trkpt>
        <trkpt lat="29.536896" lon="103.334278"><ele>2488.711</ele><time>2026-05-09T15:44:23.000Z</time></trkpt>
        <trkpt lat="29.536845" lon="103.334302"><ele>2490.5398</ele><time>2026-05-09T15:44:29.000Z</time></trkpt>
        <trkpt lat="29.536795" lon="103.334316"><ele>2491.5283</ele><time>2026-05-09T15:44:35.000Z</time></trkpt>
        <trkpt lat="29.536752" lon="103.334335"><ele>2492.6504</ele><time>2026-05-09T15:44:40.000Z</time></trkpt>
        <trkpt lat="29.536709" lon="103.334362"><ele>2492.3506</ele><time>2026-05-09T15:44:45.000Z</time></trkpt>
        <trkpt lat="29.536658" lon="103.334358"><ele>2493.099</ele><time>2026-05-09T15:44:50.000Z</time></trkpt>
        <trkpt lat="29.536606" lon="103.334345"><ele>2492.7756</ele><time>2026-05-09T15:44:54.000Z</time></trkpt>
        <trkpt lat="29.536558" lon="103.334343"><ele>2490.848</ele><time>2026-05-09T15:45:01.000Z</time></trkpt>
        <trkpt lat="29.5365" lon="103.334353"><ele>2489.8892</ele><time>2026-05-09T15:45:07.000Z</time></trkpt>
        <trkpt lat="29.536453" lon="103.334328"><ele>2490.228</ele><time>2026-05-09T15:45:11.000Z</time></trkpt>
        <trkpt lat="29.536409" lon="103.334317"><ele>2489.9084</ele><time>2026-05-09T15:45:16.000Z</time></trkpt>
        <trkpt lat="29.536371" lon="103.33435"><ele>2491.1458</ele><time>2026-05-09T15:45:21.000Z</time></trkpt>
        <trkpt lat="29.536317" lon="103.334343"><ele>2494.633</ele><time>2026-05-09T15:45:27.000Z</time></trkpt>
        <trkpt lat="29.536267" lon="103.334344"><ele>2493.023</ele><time>2026-05-09T15:45:33.000Z</time></trkpt>
        <trkpt lat="29.536219" lon="103.33434"><ele>2495.339</ele><time>2026-05-09T15:45:44.000Z</time></trkpt>
        <trkpt lat="29.536168" lon="103.334322"><ele>2495.8977</ele><time>2026-05-09T15:45:48.000Z</time></trkpt>
        <trkpt lat="29.536128" lon="103.33429"><ele>2497.7485</ele><time>2026-05-09T15:45:54.000Z</time></trkpt>
        <trkpt lat="29.536085" lon="103.334271"><ele>2498.8828</ele><time>2026-05-09T15:46:03.000Z</time></trkpt>
        <trkpt lat="29.536054" lon="103.334225"><ele>2499.2017</ele><time>2026-05-09T15:46:12.000Z</time></trkpt>
        <trkpt lat="29.536012" lon="103.334204"><ele>2499.8228</ele><time>2026-05-09T15:46:18.000Z</time></trkpt>
        <trkpt lat="29.535959" lon="103.334207"><ele>2502.5337</ele><time>2026-05-09T15:46:27.000Z</time></trkpt>
        <trkpt lat="29.535922" lon="103.33417"><ele>2504.8008</ele><time>2026-05-09T15:46:41.000Z</time></trkpt>
        <trkpt lat="29.535872" lon="103.334144"><ele>2505.4043</ele><time>2026-05-09T15:46:53.000Z</time></trkpt>
        <trkpt lat="29.535809" lon="103.334114"><ele>2506.3796</ele><time>2026-05-09T15:47:02.000Z</time></trkpt>
        <trkpt lat="29.535773" lon="103.334083"><ele>2506.864</ele><time>2026-05-09T15:47:07.000Z</time></trkpt>
        <trkpt lat="29.535733" lon="103.334059"><ele>2509.014</ele><time>2026-05-09T15:47:12.000Z</time></trkpt>
        <trkpt lat="29.535685" lon="103.334029"><ele>2508.8853</ele><time>2026-05-09T15:47:18.000Z</time></trkpt>
        <trkpt lat="29.535648" lon="103.333994"><ele>2508.032</ele><time>2026-05-09T15:47:24.000Z</time></trkpt>
        <trkpt lat="29.535617" lon="103.333952"><ele>2508.4644</ele><time>2026-05-09T15:47:31.000Z</time></trkpt>
        <trkpt lat="29.53559" lon="103.333906"><ele>2510.6462</ele><time>2026-05-09T15:47:43.000Z</time></trkpt>
        <trkpt lat="29.535568" lon="103.333856"><ele>2512.9363</ele><time>2026-05-09T15:47:55.000Z</time></trkpt>
        <trkpt lat="29.535538" lon="103.333815"><ele>2513.6592</ele><time>2026-05-09T15:48:06.000Z</time></trkpt>
        <trkpt lat="29.535512" lon="103.333768"><ele>2515.4565</ele><time>2026-05-09T15:48:15.000Z</time></trkpt>
        <trkpt lat="29.53546" lon="103.333754"><ele>2515.3042</ele><time>2026-05-09T15:48:20.000Z</time></trkpt>
        <trkpt lat="29.535412" lon="103.333715"><ele>2515.4</ele><time>2026-05-09T15:48:25.000Z</time></trkpt>
        <trkpt lat="29.535388" lon="103.333669"><ele>2516.7878</ele><time>2026-05-09T15:48:29.000Z</time></trkpt>
        <trkpt lat="29.535365" lon="103.33362"><ele>2516.4446</ele><time>2026-05-09T15:48:33.000Z</time></trkpt>
        <trkpt lat="29.53535" lon="103.333568"><ele>2518.318</ele><time>2026-05-09T15:48:37.000Z</time></trkpt>
        <trkpt lat="29.535333" lon="103.333519"><ele>2518.2065</ele><time>2026-05-09T15:48:41.000Z</time></trkpt>
        <trkpt lat="29.5353" lon="103.333478"><ele>2518.1506</ele><time>2026-05-09T15:48:52.000Z</time></trkpt>
        <trkpt lat="29.535299" lon="103.333424"><ele>2521.8894</ele><time>2026-05-09T15:48:58.000Z</time></trkpt>
        <trkpt lat="29.53527" lon="103.333383"><ele>2521.8477</ele><time>2026-05-09T15:49:03.000Z</time></trkpt>
        <trkpt lat="29.53525" lon="103.333336"><ele>2523.1985</ele><time>2026-05-09T15:49:09.000Z</time></trkpt>
        <trkpt lat="29.535225" lon="103.33329"><ele>2523.8503</ele><time>2026-05-09T15:49:16.000Z</time></trkpt>
        <trkpt lat="29.535202" lon="103.333241"><ele>2524.6335</ele><time>2026-05-09T15:49:24.000Z</time></trkpt>
        <trkpt lat="29.535202" lon="103.333189"><ele>2526.479</ele><time>2026-05-09T15:49:34.000Z</time></trkpt>
        <trkpt lat="29.535186" lon="103.333141"><ele>2528.9749</ele><time>2026-05-09T15:49:48.000Z</time></trkpt>
        <trkpt lat="29.535195" lon="103.33309"><ele>2530.617</ele><time>2026-05-09T15:49:57.000Z</time></trkpt>
        <trkpt lat="29.535146" lon="103.333073"><ele>2529.4812</ele><time>2026-05-09T15:50:08.000Z</time></trkpt>
        <trkpt lat="29.535134" lon="103.333018"><ele>2532.6665</ele><time>2026-05-09T15:50:16.000Z</time></trkpt>
        <trkpt lat="29.535089" lon="103.332981"><ele>2534.4714</ele><time>2026-05-09T15:50:26.000Z</time></trkpt>
        <trkpt lat="29.535072" lon="103.332931"><ele>2535.2102</ele><time>2026-05-09T15:50:32.000Z</time></trkpt>
        <trkpt lat="29.535056" lon="103.332876"><ele>2536.511</ele><time>2026-05-09T15:50:39.000Z</time></trkpt>
        <trkpt lat="29.535005" lon="103.332856"><ele>2537.0461</ele><time>2026-05-09T15:50:45.000Z</time></trkpt>
        <trkpt lat="29.534954" lon="103.332839"><ele>2537.491</ele><time>2026-05-09T15:50:50.000Z</time></trkpt>
        <trkpt lat="29.534899" lon="103.332857"><ele>2536.3545</ele><time>2026-05-09T15:50:56.000Z</time></trkpt>
        <trkpt lat="29.534861" lon="103.332897"><ele>2537.9316</ele><time>2026-05-09T15:51:02.000Z</time></trkpt>
        <trkpt lat="29.534827" lon="103.332945"><ele>2537.7117</ele><time>2026-05-09T15:51:07.000Z</time></trkpt>
        <trkpt lat="29.53478" lon="103.332948"><ele>2536.6812</ele><time>2026-05-09T15:51:11.000Z</time></trkpt>
        <trkpt lat="29.534715" lon="103.332991"><ele>2537.1997</ele><time>2026-05-09T15:51:20.000Z</time></trkpt>
        <trkpt lat="29.534681" lon="103.333039"><ele>2544.5928</ele><time>2026-05-09T15:51:36.000Z</time></trkpt>
        <trkpt lat="29.534634" lon="103.333028"><ele>2544.0906</ele><time>2026-05-09T15:51:39.000Z</time></trkpt>
        <trkpt lat="29.534578" lon="103.333024"><ele>2546.8677</ele><time>2026-05-09T15:51:52.000Z</time></trkpt>
        <trkpt lat="29.534534" lon="103.333042"><ele>2547.5618</ele><time>2026-05-09T15:51:57.000Z</time></trkpt>
        <trkpt lat="29.534491" lon="103.333064"><ele>2549.0703</ele><time>2026-05-09T15:52:03.000Z</time></trkpt>
        <trkpt lat="29.534448" lon="103.333081"><ele>2550.8088</ele><time>2026-05-09T15:52:08.000Z</time></trkpt>
        <trkpt lat="29.534414" lon="103.333115"><ele>2551.073</ele><time>2026-05-09T15:52:15.000Z</time></trkpt>
        <trkpt lat="29.53437" lon="103.333137"><ele>2551.8623</ele><time>2026-05-09T15:52:26.000Z</time></trkpt>
        <trkpt lat="29.53433" lon="103.333166"><ele>2553.823</ele><time>2026-05-09T15:52:35.000Z</time></trkpt>
        <trkpt lat="29.534283" lon="103.333152"><ele>2552.8228</ele><time>2026-05-09T15:52:41.000Z</time></trkpt>
        <trkpt lat="29.534261" lon="103.333104"><ele>2555.9778</ele><time>2026-05-09T15:52:47.000Z</time></trkpt>
        <trkpt lat="29.534221" lon="103.33313"><ele>2559.0183</ele><time>2026-05-09T15:53:04.000Z</time></trkpt>
        <trkpt lat="29.534177" lon="103.333144"><ele>2559.3547</ele><time>2026-05-09T15:53:10.000Z</time></trkpt>
        <trkpt lat="29.534143" lon="103.333179"><ele>2563.8955</ele><time>2026-05-09T15:53:19.000Z</time></trkpt>
        <trkpt lat="29.534093" lon="103.333198"><ele>2561.1675</ele><time>2026-05-09T15:53:28.000Z</time></trkpt>
        <trkpt lat="29.534038" lon="103.333207"><ele>2566.0757</ele><time>2026-05-09T15:53:39.000Z</time></trkpt>
        <trkpt lat="29.533987" lon="103.333211"><ele>2565.7087</ele><time>2026-05-09T15:53:46.000Z</time></trkpt>
        <trkpt lat="29.533937" lon="103.333217"><ele>2568.08</ele><time>2026-05-09T15:53:55.000Z</time></trkpt>
        <trkpt lat="29.533888" lon="103.333207"><ele>2571.3213</ele><time>2026-05-09T15:54:13.000Z</time></trkpt>
        <trkpt lat="29.533861" lon="103.333137"><ele>2573.3582</ele><time>2026-05-09T15:54:23.000Z</time></trkpt>
        <trkpt lat="29.533814" lon="103.333096"><ele>2574.9756</ele><time>2026-05-09T15:54:29.000Z</time></trkpt>
        <trkpt lat="29.533761" lon="103.333091"><ele>2572.0461</ele><time>2026-05-09T15:54:48.000Z</time></trkpt>
        <trkpt lat="29.533744" lon="103.333029"><ele>2578.3167</ele><time>2026-05-09T15:54:56.000Z</time></trkpt>
        <trkpt lat="29.533699" lon="103.333017"><ele>2578.4307</ele><time>2026-05-09T15:55:13.000Z</time></trkpt>
        <trkpt lat="29.533662" lon="103.332981"><ele>2585.0923</ele><time>2026-05-09T15:55:29.000Z</time></trkpt>
        <trkpt lat="29.533612" lon="103.332987"><ele>2585.2544</ele><time>2026-05-09T15:55:46.000Z</time></trkpt>
        <trkpt lat="29.533576" lon="103.332938"><ele>2588.8618</ele><time>2026-05-09T15:55:59.000Z</time></trkpt>
        <trkpt lat="29.533531" lon="103.33291"><ele>2591.1428</ele><time>2026-05-09T15:56:10.000Z</time></trkpt>
        <trkpt lat="29.533506" lon="103.332862"><ele>2591.332</ele><time>2026-05-09T15:56:19.000Z</time></trkpt>
        <trkpt lat="29.533469" lon="103.332827"><ele>2593.3833</ele><time>2026-05-09T15:56:31.000Z</time></trkpt>
        <trkpt lat="29.53344" lon="103.332782"><ele>2594.1052</ele><time>2026-05-09T15:56:38.000Z</time></trkpt>
        <trkpt lat="29.533384" lon="103.332778"><ele>2594.0242</ele><time>2026-05-09T15:56:44.000Z</time></trkpt>
        <trkpt lat="29.533343" lon="103.332748"><ele>2598.6345</ele><time>2026-05-09T15:57:04.000Z</time></trkpt>
        <trkpt lat="29.533293" lon="103.332718"><ele>2599.7407</ele><time>2026-05-09T15:57:10.000Z</time></trkpt>
        <trkpt lat="29.533273" lon="103.33266"><ele>2605.4834</ele><time>2026-05-09T15:57:21.000Z</time></trkpt>
        <trkpt lat="29.533201" lon="103.332642"><ele>2606.2725</ele><time>2026-05-09T15:57:27.000Z</time></trkpt>
        <trkpt lat="29.533154" lon="103.332622"><ele>2609.2375</ele><time>2026-05-09T15:57:43.000Z</time></trkpt>
        <trkpt lat="29.533128" lon="103.33258"><ele>2609.5706</ele><time>2026-05-09T15:57:50.000Z</time></trkpt>
        <trkpt lat="29.533106" lon="103.332529"><ele>2611.569</ele><time>2026-05-09T15:57:57.000Z</time></trkpt>
        <trkpt lat="29.533064" lon="103.332507"><ele>2610.9712</ele><time>2026-05-09T15:58:16.000Z</time></trkpt>
        <trkpt lat="29.533028" lon="103.332474"><ele>2612.436</ele><time>2026-05-09T15:58:24.000Z</time></trkpt>
        <trkpt lat="29.532985" lon="103.332451"><ele>2612.397</ele><time>2026-05-09T15:58:30.000Z</time></trkpt>
        <trkpt lat="29.53302" lon="103.332417"><ele>2614.0574</ele><time>2026-05-09T15:58:32.000Z</time></trkpt>
        <trkpt lat="29.532975" lon="103.332408"><ele>2614.311</ele><time>2026-05-09T15:58:38.000Z</time></trkpt>
        <trkpt lat="29.532943" lon="103.332373"><ele>2615.7415</ele><time>2026-05-09T15:58:44.000Z</time></trkpt>
        <trkpt lat="29.532911" lon="103.332333"><ele>2616.8958</ele><time>2026-05-09T15:58:51.000Z</time></trkpt>
        <trkpt lat="29.532879" lon="103.332296"><ele>2617.3154</ele><time>2026-05-09T15:58:58.000Z</time></trkpt>
        <trkpt lat="29.532843" lon="103.332256"><ele>2619.4097</ele><time>2026-05-09T15:59:09.000Z</time></trkpt>
        <trkpt lat="29.532817" lon="103.332214"><ele>2618.621</ele><time>2026-05-09T15:59:18.000Z</time></trkpt>
        <trkpt lat="29.532772" lon="103.332157"><ele>2623.1843</ele><time>2026-05-09T15:59:29.000Z</time></trkpt>
        <trkpt lat="29.532738" lon="103.332116"><ele>2618.8223</ele><time>2026-05-09T15:59:35.000Z</time></trkpt>
        <trkpt lat="29.532714" lon="103.332069"><ele>2620.1982</ele><time>2026-05-09T15:59:46.000Z</time></trkpt>
        <trkpt lat="29.532676" lon="103.33204"><ele>2621.3591</ele><time>2026-05-09T15:59:52.000Z</time></trkpt>
        <trkpt lat="29.532648" lon="103.331997"><ele>2628.882</ele><time>2026-05-09T16:00:05.000Z</time></trkpt>
        <trkpt lat="29.532595" lon="103.331979"><ele>2629.9858</ele><time>2026-05-09T16:00:32.000Z</time></trkpt>
        <trkpt lat="29.532586" lon="103.331928"><ele>2638.3657</ele><time>2026-05-09T16:00:45.000Z</time></trkpt>
        <trkpt lat="29.532571" lon="103.331879"><ele>2637.2104</ele><time>2026-05-09T16:00:54.000Z</time></trkpt>
        <trkpt lat="29.532562" lon="103.331821"><ele>2637.219</ele><time>2026-05-09T16:01:12.000Z</time></trkpt>
        <trkpt lat="29.532538" lon="103.331777"><ele>2641.3455</ele><time>2026-05-09T16:01:26.000Z</time></trkpt>
        <trkpt lat="29.532523" lon="103.331723"><ele>2643.2407</ele><time>2026-05-09T16:01:38.000Z</time></trkpt>
        <trkpt lat="29.532547" lon="103.331676"><ele>2644.4785</ele><time>2026-05-09T16:01:49.000Z</time></trkpt>
        <trkpt lat="29.532499" lon="103.331672"><ele>2646.2485</ele><time>2026-05-09T16:01:53.000Z</time></trkpt>
        <trkpt lat="29.532462" lon="103.331629"><ele>2649.8735</ele><time>2026-05-09T16:02:12.000Z</time></trkpt>
        <trkpt lat="29.53243" lon="103.331583"><ele>2652.6323</ele><time>2026-05-09T16:02:22.000Z</time></trkpt>
        <trkpt lat="29.532412" lon="103.331528"><ele>2652.7249</ele><time>2026-05-09T16:02:33.000Z</time></trkpt>
        <trkpt lat="29.53241" lon="103.331472"><ele>2654.9326</ele><time>2026-05-09T16:02:43.000Z</time></trkpt>
        <trkpt lat="29.532385" lon="103.331417"><ele>2650.0154</ele><time>2026-05-09T16:02:58.000Z</time></trkpt>
        <trkpt lat="29.532361" lon="103.331365"><ele>2655.3816</ele><time>2026-05-09T16:03:07.000Z</time></trkpt>
        <trkpt lat="29.532352" lon="103.331305"><ele>2659.4019</ele><time>2026-05-09T16:03:20.000Z</time></trkpt>
        <trkpt lat="29.532322" lon="103.331259"><ele>2661.045</ele><time>2026-05-09T16:03:36.000Z</time></trkpt>
        <trkpt lat="29.532291" lon="103.331206"><ele>2661.3423</ele><time>2026-05-09T16:03:45.000Z</time></trkpt>
        <trkpt lat="29.532281" lon="103.331257"><ele>2665.126</ele><time>2026-05-09T16:04:06.000Z</time></trkpt>
        <trkpt lat="29.532272" lon="103.331311"><ele>2667.6858</ele><time>2026-05-09T16:04:15.000Z</time></trkpt>
        <trkpt lat="29.53225" lon="103.331366"><ele>2669.6667</ele><time>2026-05-09T16:04:25.000Z</time></trkpt>
        <trkpt lat="29.532239" lon="103.331417"><ele>2670.7932</ele><time>2026-05-09T16:04:33.000Z</time></trkpt>
        <trkpt lat="29.532195" lon="103.331438"><ele>2668.304</ele><time>2026-05-09T16:04:42.000Z</time></trkpt>
        <trkpt lat="29.532168" lon="103.331393"><ele>2669.2197</ele><time>2026-05-09T16:04:48.000Z</time></trkpt>
        <trkpt lat="29.532175" lon="103.33134"><ele>2673.8328</ele><time>2026-05-09T16:04:56.000Z</time></trkpt>
        <trkpt lat="29.532146" lon="103.331289"><ele>2673.626</ele><time>2026-05-09T16:05:04.000Z</time></trkpt>
        <trkpt lat="29.532147" lon="103.331236"><ele>2675.5603</ele><time>2026-05-09T16:05:09.000Z</time></trkpt>
        <trkpt lat="29.532137" lon="103.331184"><ele>2678.4675</ele><time>2026-05-09T16:05:17.000Z</time></trkpt>
        <trkpt lat="29.532146" lon="103.33113"><ele>2678.075</ele><time>2026-05-09T16:05:22.000Z</time></trkpt>
        <trkpt lat="29.53215" lon="103.331065"><ele>2676.684</ele><time>2026-05-09T16:05:31.000Z</time></trkpt>
        <trkpt lat="29.53213" lon="103.331011"><ele>2679.0222</ele><time>2026-05-09T16:05:42.000Z</time></trkpt>
        <trkpt lat="29.532145" lon="103.330951"><ele>2682.4219</ele><time>2026-05-09T16:05:52.000Z</time></trkpt>
        <trkpt lat="29.532157" lon="103.330896"><ele>2684.9045</ele><time>2026-05-09T16:06:01.000Z</time></trkpt>
        <trkpt lat="29.532144" lon="103.330834"><ele>2685.6504</ele><time>2026-05-09T16:06:08.000Z</time></trkpt>
        <trkpt lat="29.532123" lon="103.330784"><ele>2684.895</ele><time>2026-05-09T16:06:12.000Z</time></trkpt>
        <trkpt lat="29.532135" lon="103.330724"><ele>2685.1233</ele><time>2026-05-09T16:06:17.000Z</time></trkpt>
        <trkpt lat="29.532146" lon="103.330667"><ele>2684.2207</ele><time>2026-05-09T16:06:24.000Z</time></trkpt>
        <trkpt lat="29.532144" lon="103.330604"><ele>2683.8767</ele><time>2026-05-09T16:06:31.000Z</time></trkpt>
        <trkpt lat="29.532124" lon="103.330557"><ele>2684.5173</ele><time>2026-05-09T16:06:37.000Z</time></trkpt>
        <trkpt lat="29.532146" lon="103.330511"><ele>2687.0444</ele><time>2026-05-09T16:06:42.000Z</time></trkpt>
        <trkpt lat="29.532173" lon="103.330468"><ele>2689.8818</ele><time>2026-05-09T16:06:53.000Z</time></trkpt>
        <trkpt lat="29.532129" lon="103.330483"><ele>2691.4705</ele><time>2026-05-09T16:07:03.000Z</time></trkpt>
        <trkpt lat="29.532092" lon="103.330451"><ele>2691.5415</ele><time>2026-05-09T16:07:15.000Z</time></trkpt>
        <trkpt lat="29.532104" lon="103.330391"><ele>2694.4517</ele><time>2026-05-09T16:07:28.000Z</time></trkpt>
        <trkpt lat="29.532107" lon="103.330329"><ele>2694.7246</ele><time>2026-05-09T16:07:40.000Z</time></trkpt>
        <trkpt lat="29.532124" lon="103.330281"><ele>2696.1858</ele><time>2026-05-09T16:08:03.000Z</time></trkpt>
        <trkpt lat="29.532152" lon="103.33024"><ele>2699.136</ele><time>2026-05-09T16:08:19.000Z</time></trkpt>
        <trkpt lat="29.532118" lon="103.330192"><ele>2705.2285</ele><time>2026-05-09T16:08:45.000Z</time></trkpt>
        <trkpt lat="29.532105" lon="103.330244"><ele>2704.6162</ele><time>2026-05-09T16:08:52.000Z</time></trkpt>
        <trkpt lat="29.532057" lon="103.330259"><ele>2704.8044</ele><time>2026-05-09T16:09:13.000Z</time></trkpt>
        <trkpt lat="29.531999" lon="103.330261"><ele>2707.9138</ele><time>2026-05-09T16:09:26.000Z</time></trkpt>
        <trkpt lat="29.531955" lon="103.330251"><ele>2709.846</ele><time>2026-05-09T16:09:42.000Z</time></trkpt>
        <trkpt lat="29.531907" lon="103.330255"><ele>2708.5667</ele><time>2026-05-09T16:09:56.000Z</time></trkpt>
        <trkpt lat="29.531859" lon="103.330246"><ele>2713.17</ele><time>2026-05-09T16:10:11.000Z</time></trkpt>
        <trkpt lat="29.531828" lon="103.330202"><ele>2718.0393</ele><time>2026-05-09T16:10:30.000Z</time></trkpt>
        <trkpt lat="29.531796" lon="103.330154"><ele>2720.4873</ele><time>2026-05-09T16:10:47.000Z</time></trkpt>
        <trkpt lat="29.531761" lon="103.330121"><ele>2726.7432</ele><time>2026-05-09T16:11:03.000Z</time></trkpt>
        <trkpt lat="29.531733" lon="103.330071"><ele>2725.6655</ele><time>2026-05-09T16:11:16.000Z</time></trkpt>
        <trkpt lat="29.531686" lon="103.330065"><ele>2727.878</ele><time>2026-05-09T16:11:24.000Z</time></trkpt>
        <trkpt lat="29.531637" lon="103.330053"><ele>2727.9968</ele><time>2026-05-09T16:11:35.000Z</time></trkpt>
        <trkpt lat="29.531598" lon="103.330026"><ele>2731.3696</ele><time>2026-05-09T16:11:47.000Z</time></trkpt>
        <trkpt lat="29.531561" lon="103.329986"><ele>2734.3762</ele><time>2026-05-09T16:11:58.000Z</time></trkpt>
        <trkpt lat="29.53151" lon="103.329987"><ele>2736.58</ele><time>2026-05-09T16:12:12.000Z</time></trkpt>
        <trkpt lat="29.531473" lon="103.329949"><ele>2735.3918</ele><time>2026-05-09T16:12:35.000Z</time></trkpt>
        <trkpt lat="29.531427" lon="103.329922"><ele>2740.3682</ele><time>2026-05-09T16:12:55.000Z</time></trkpt>
        <trkpt lat="29.53139" lon="103.329884"><ele>2740.9578</ele><time>2026-05-09T16:13:10.000Z</time></trkpt>
        <trkpt lat="29.531338" lon="103.329866"><ele>2742.303</ele><time>2026-05-09T16:13:21.000Z</time></trkpt>
        <trkpt lat="29.531319" lon="103.329814"><ele>2749.6453</ele><time>2026-05-09T16:14:11.000Z</time></trkpt>
        <trkpt lat="29.531285" lon="103.329771"><ele>2752.084</ele><time>2026-05-09T16:14:20.000Z</time></trkpt>
        <trkpt lat="29.531258" lon="103.329721"><ele>2757.2522</ele><time>2026-05-09T16:14:37.000Z</time></trkpt>
        <trkpt lat="29.531231" lon="103.329678"><ele>2759.655</ele><time>2026-05-09T16:14:59.000Z</time></trkpt>
        <trkpt lat="29.53121" lon="103.329625"><ele>2761.138</ele><time>2026-05-09T16:15:08.000Z</time></trkpt>
        <trkpt lat="29.531178" lon="103.329578"><ele>2761.461</ele><time>2026-05-09T16:15:25.000Z</time></trkpt>
        <trkpt lat="29.531161" lon="103.329526"><ele>2768.8591</ele><time>2026-05-09T16:15:34.000Z</time></trkpt>
        <trkpt lat="29.531122" lon="103.329481"><ele>2766.7834</ele><time>2026-05-09T16:15:43.000Z</time></trkpt>
        <trkpt lat="29.531118" lon="103.329428"><ele>2770.9087</ele><time>2026-05-09T16:15:54.000Z</time></trkpt>
        <trkpt lat="29.531109" lon="103.329367"><ele>2772.8757</ele><time>2026-05-09T16:15:59.000Z</time></trkpt>
        <trkpt lat="29.531107" lon="103.329311"><ele>2774.3396</ele><time>2026-05-09T16:16:04.000Z</time></trkpt>
        <trkpt lat="29.531093" lon="103.329261"><ele>2771.8733</ele><time>2026-05-09T16:16:11.000Z</time></trkpt>
        <trkpt lat="29.531098" lon="103.329204"><ele>2774.6475</ele><time>2026-05-09T16:16:17.000Z</time></trkpt>
        <trkpt lat="29.531095" lon="103.329149"><ele>2776.4512</ele><time>2026-05-09T16:16:22.000Z</time></trkpt>
        <trkpt lat="29.531092" lon="103.329095"><ele>2778.2666</ele><time>2026-05-09T16:16:29.000Z</time></trkpt>
        <trkpt lat="29.531085" lon="103.329033"><ele>2778.1248</ele><time>2026-05-09T16:16:35.000Z</time></trkpt>
        <trkpt lat="29.531078" lon="103.328982"><ele>2778.1921</ele><time>2026-05-09T16:16:42.000Z</time></trkpt>
        <trkpt lat="29.531088" lon="103.328916"><ele>2782.726</ele><time>2026-05-09T16:16:51.000Z</time></trkpt>
        <trkpt lat="29.531083" lon="103.328861"><ele>2783.9475</ele><time>2026-05-09T16:17:01.000Z</time></trkpt>
        <trkpt lat="29.531097" lon="103.328805"><ele>2784.7722</ele><time>2026-05-09T16:17:05.000Z</time></trkpt>
        <trkpt lat="29.53111" lon="103.32874"><ele>2785.8289</ele><time>2026-05-09T16:17:11.000Z</time></trkpt>
        <trkpt lat="29.531128" lon="103.328691"><ele>2787.3845</ele><time>2026-05-09T16:17:22.000Z</time></trkpt>
        <trkpt lat="29.531128" lon="103.328637"><ele>2786.2683</ele><time>2026-05-09T16:17:33.000Z</time></trkpt>
        <trkpt lat="29.531139" lon="103.328572"><ele>2787.3318</ele><time>2026-05-09T16:17:40.000Z</time></trkpt>
        <trkpt lat="29.531146" lon="103.32852"><ele>2788.673</ele><time>2026-05-09T16:17:46.000Z</time></trkpt>
        <trkpt lat="29.531165" lon="103.328469"><ele>2789.4517</ele><time>2026-05-09T16:17:54.000Z</time></trkpt>
        <trkpt lat="29.531184" lon="103.328422"><ele>2789.6643</ele><time>2026-05-09T16:18:01.000Z</time></trkpt>
        <trkpt lat="29.531177" lon="103.328365"><ele>2789.958</ele><time>2026-05-09T16:18:08.000Z</time></trkpt>
        <trkpt lat="29.531192" lon="103.328312"><ele>2790.5068</ele><time>2026-05-09T16:18:12.000Z</time></trkpt>
        <trkpt lat="29.531222" lon="103.328265"><ele>2792.0676</ele><time>2026-05-09T16:18:16.000Z</time></trkpt>
        <trkpt lat="29.531236" lon="103.328209"><ele>2789.3804</ele><time>2026-05-09T16:18:21.000Z</time></trkpt>
        <trkpt lat="29.531255" lon="103.328158"><ele>2792.9758</ele><time>2026-05-09T16:18:25.000Z</time></trkpt>
        <trkpt lat="29.531244" lon="103.328106"><ele>2792.5947</ele><time>2026-05-09T16:18:32.000Z</time></trkpt>
        <trkpt lat="29.531236" lon="103.32805"><ele>2792.0996</ele><time>2026-05-09T16:18:40.000Z</time></trkpt>
        <trkpt lat="29.531248" lon="103.327997"><ele>2794.0527</ele><time>2026-05-09T16:18:49.000Z</time></trkpt>
        <trkpt lat="29.531258" lon="103.327947"><ele>2794.6453</ele><time>2026-05-09T16:18:56.000Z</time></trkpt>
        <trkpt lat="29.531247" lon="103.327894"><ele>2794.958</ele><time>2026-05-09T16:19:05.000Z</time></trkpt>
        <trkpt lat="29.531244" lon="103.327842"><ele>2794.844</ele><time>2026-05-09T16:19:12.000Z</time></trkpt>
        <trkpt lat="29.531214" lon="103.327795"><ele>2796.0627</ele><time>2026-05-09T16:19:24.000Z</time></trkpt>
        <trkpt lat="29.531206" lon="103.32774"><ele>2797.8147</ele><time>2026-05-09T16:19:31.000Z</time></trkpt>
        <trkpt lat="29.5312" lon="103.327674"><ele>2797.5022</ele><time>2026-05-09T16:19:38.000Z</time></trkpt>
        <trkpt lat="29.531192" lon="103.327608"><ele>2799.8389</ele><time>2026-05-09T16:19:47.000Z</time></trkpt>
        <trkpt lat="29.531216" lon="103.327557"><ele>2804.4377</ele><time>2026-05-09T16:19:58.000Z</time></trkpt>
        <trkpt lat="29.531211" lon="103.327505"><ele>2807.7944</ele><time>2026-05-09T16:20:06.000Z</time></trkpt>
        <trkpt lat="29.531208" lon="103.327446"><ele>2807.8337</ele><time>2026-05-09T16:20:16.000Z</time></trkpt>
        <trkpt lat="29.531216" lon="103.327391"><ele>2810.0537</ele><time>2026-05-09T16:20:31.000Z</time></trkpt>
        <trkpt lat="29.531218" lon="103.327331"><ele>2813.4253</ele><time>2026-05-09T16:20:45.000Z</time></trkpt>
        <trkpt lat="29.531218" lon="103.327276"><ele>2813.236</ele><time>2026-05-09T16:20:52.000Z</time></trkpt>
        <trkpt lat="29.531206" lon="103.327226"><ele>2814.5127</ele><time>2026-05-09T16:21:06.000Z</time></trkpt>
        <trkpt lat="29.531189" lon="103.327178"><ele>2815.0989</ele><time>2026-05-09T16:21:21.000Z</time></trkpt>
        <trkpt lat="29.531159" lon="103.32714"><ele>2815.8938</ele><time>2026-05-09T16:21:30.000Z</time></trkpt>
        <trkpt lat="29.531113" lon="103.327119"><ele>2817.702</ele><time>2026-05-09T16:21:43.000Z</time></trkpt>
        <trkpt lat="29.531064" lon="103.327095"><ele>2819.5544</ele><time>2026-05-09T16:21:54.000Z</time></trkpt>
        <trkpt lat="29.531008" lon="103.327078"><ele>2822.4194</ele><time>2026-05-09T16:22:02.000Z</time></trkpt>
        <trkpt lat="29.53097" lon="103.327043"><ele>2823.9631</ele><time>2026-05-09T16:22:08.000Z</time></trkpt>
        <trkpt lat="29.530927" lon="103.327026"><ele>2823.1501</ele><time>2026-05-09T16:22:15.000Z</time></trkpt>
        <trkpt lat="29.530914" lon="103.326975"><ele>2825.5632</ele><time>2026-05-09T16:22:19.000Z</time></trkpt>
        <trkpt lat="29.530867" lon="103.326973"><ele>2828.0852</ele><time>2026-05-09T16:22:25.000Z</time></trkpt>
        <trkpt lat="29.53081" lon="103.326972"><ele>2830.4495</ele><time>2026-05-09T16:22:34.000Z</time></trkpt>
        <trkpt lat="29.530812" lon="103.326919"><ele>2832.1096</ele><time>2026-05-09T16:22:39.000Z</time></trkpt>
        <trkpt lat="29.53081" lon="103.326867"><ele>2833.6477</ele><time>2026-05-09T16:22:54.000Z</time></trkpt>
        <trkpt lat="29.530812" lon="103.32681"><ele>2835.5664</ele><time>2026-05-09T16:23:00.000Z</time></trkpt>
        <trkpt lat="29.530772" lon="103.326851"><ele>2835.8972</ele><time>2026-05-09T16:23:10.000Z</time></trkpt>
        <trkpt lat="29.530721" lon="103.326853"><ele>2836.178</ele><time>2026-05-09T16:23:21.000Z</time></trkpt>
        <trkpt lat="29.530668" lon="103.326843"><ele>2841.523</ele><time>2026-05-09T16:23:32.000Z</time></trkpt>
        <trkpt lat="29.530622" lon="103.326841"><ele>2842.4966</ele><time>2026-05-09T16:23:38.000Z</time></trkpt>
        <trkpt lat="29.530571" lon="103.326872"><ele>2844.23</ele><time>2026-05-09T16:23:47.000Z</time></trkpt>
        <trkpt lat="29.530513" lon="103.326909"><ele>2844.229</ele><time>2026-05-09T16:23:50.000Z</time></trkpt>
        <trkpt lat="29.530508" lon="103.326961"><ele>2845.1377</ele><time>2026-05-09T16:24:01.000Z</time></trkpt>
        <trkpt lat="29.530454" lon="103.326954"><ele>2847.7817</ele><time>2026-05-09T16:24:13.000Z</time></trkpt>
        <trkpt lat="29.530421" lon="103.327006"><ele>2849.1433</ele><time>2026-05-09T16:24:18.000Z</time></trkpt>
        <trkpt lat="29.530368" lon="103.327025"><ele>2852.1375</ele><time>2026-05-09T16:24:24.000Z</time></trkpt>
        <trkpt lat="29.530324" lon="103.327045"><ele>2853.5415</ele><time>2026-05-09T16:24:28.000Z</time></trkpt>
        <trkpt lat="29.530275" lon="103.327061"><ele>2855.8132</ele><time>2026-05-09T16:24:36.000Z</time></trkpt>
        <trkpt lat="29.530224" lon="103.327068"><ele>2856.4802</ele><time>2026-05-09T16:24:42.000Z</time></trkpt>
        <trkpt lat="29.530177" lon="103.327093"><ele>2856.2646</ele><time>2026-05-09T16:24:49.000Z</time></trkpt>
        <trkpt lat="29.530148" lon="103.327136"><ele>2856.9119</ele><time>2026-05-09T16:24:55.000Z</time></trkpt>
        <trkpt lat="29.530108" lon="103.327164"><ele>2857.2275</ele><time>2026-05-09T16:25:00.000Z</time></trkpt>
        <trkpt lat="29.530076" lon="103.327211"><ele>2859.0256</ele><time>2026-05-09T16:25:06.000Z</time></trkpt>
        <trkpt lat="29.53003" lon="103.327228"><ele>2858.0889</ele><time>2026-05-09T16:25:11.000Z</time></trkpt>
        <trkpt lat="29.529983" lon="103.327261"><ele>2857.6448</ele><time>2026-05-09T16:25:18.000Z</time></trkpt>
        <trkpt lat="29.529947" lon="103.327298"><ele>2858.4836</ele><time>2026-05-09T16:25:27.000Z</time></trkpt>
        <trkpt lat="29.529921" lon="103.327344"><ele>2859.2585</ele><time>2026-05-09T16:25:33.000Z</time></trkpt>
        <trkpt lat="29.529891" lon="103.327408"><ele>2859.9143</ele><time>2026-05-09T16:25:39.000Z</time></trkpt>
        <trkpt lat="29.529869" lon="103.327465"><ele>2860.2756</ele><time>2026-05-09T16:25:44.000Z</time></trkpt>
        <trkpt lat="29.529834" lon="103.327514"><ele>2859.528</ele><time>2026-05-09T16:25:49.000Z</time></trkpt>
        <trkpt lat="29.529812" lon="103.327576"><ele>2859.8083</ele><time>2026-05-09T16:25:57.000Z</time></trkpt>
        <trkpt lat="29.529813" lon="103.327635"><ele>2859.1099</ele><time>2026-05-09T16:26:00.000Z</time></trkpt>
        <trkpt lat="29.529784" lon="103.327678"><ele>2860.4106</ele><time>2026-05-09T16:26:04.000Z</time></trkpt>
        <trkpt lat="29.529757" lon="103.327727"><ele>2861.4084</ele><time>2026-05-09T16:26:08.000Z</time></trkpt>
        <trkpt lat="29.529722" lon="103.327773"><ele>2860.8936</ele><time>2026-05-09T16:26:14.000Z</time></trkpt>
        <trkpt lat="29.529681" lon="103.327805"><ele>2859.4224</ele><time>2026-05-09T16:26:18.000Z</time></trkpt>
        <trkpt lat="29.52963" lon="103.327811"><ele>2860.9514</ele><time>2026-05-09T16:26:22.000Z</time></trkpt>
        <trkpt lat="29.529573" lon="103.327819"><ele>2859.726</ele><time>2026-05-09T16:26:27.000Z</time></trkpt>
        <trkpt lat="29.529523" lon="103.327821"><ele>2859.6145</ele><time>2026-05-09T16:26:32.000Z</time></trkpt>
        <trkpt lat="29.529469" lon="103.327813"><ele>2858.6042</ele><time>2026-05-09T16:26:37.000Z</time></trkpt>
        <trkpt lat="29.529417" lon="103.327815"><ele>2859.761</ele><time>2026-05-09T16:26:41.000Z</time></trkpt>
        <trkpt lat="29.529367" lon="103.327803"><ele>2858.887</ele><time>2026-05-09T16:26:46.000Z</time></trkpt>
        <trkpt lat="29.529317" lon="103.32781"><ele>2859.5452</ele><time>2026-05-09T16:26:52.000Z</time></trkpt>
        <trkpt lat="29.529274" lon="103.327837"><ele>2860.127</ele><time>2026-05-09T16:27:03.000Z</time></trkpt>
        <trkpt lat="29.529267" lon="103.327891"><ele>2859.8262</ele><time>2026-05-09T16:27:08.000Z</time></trkpt>
        <trkpt lat="29.529263" lon="103.327945"><ele>2862.3682</ele><time>2026-05-09T16:27:14.000Z</time></trkpt>
        <trkpt lat="29.529254" lon="103.327999"><ele>2865.8013</ele><time>2026-05-09T16:27:20.000Z</time></trkpt>
        <trkpt lat="29.529233" lon="103.328046"><ele>2866.2617</ele><time>2026-05-09T16:27:25.000Z</time></trkpt>
        <trkpt lat="29.529196" lon="103.32808"><ele>2864.2742</ele><time>2026-05-09T16:27:34.000Z</time></trkpt>
        <trkpt lat="29.529193" lon="103.328139"><ele>2865.1553</ele><time>2026-05-09T16:27:39.000Z</time></trkpt>
        <trkpt lat="29.529198" lon="103.328196"><ele>2868.4597</ele><time>2026-05-09T16:27:45.000Z</time></trkpt>
        <trkpt lat="29.529198" lon="103.328248"><ele>2872.2322</ele><time>2026-05-09T16:27:53.000Z</time></trkpt>
        <trkpt lat="29.529185" lon="103.328298"><ele>2875.369</ele><time>2026-05-09T16:28:00.000Z</time></trkpt>
        <trkpt lat="29.529182" lon="103.328362"><ele>2878.4524</ele><time>2026-05-09T16:28:06.000Z</time></trkpt>
        <trkpt lat="29.529165" lon="103.32841"><ele>2879.0344</ele><time>2026-05-09T16:28:13.000Z</time></trkpt>
        <trkpt lat="29.529148" lon="103.328463"><ele>2877.3594</ele><time>2026-05-09T16:28:21.000Z</time></trkpt>
        <trkpt lat="29.529128" lon="103.328514"><ele>2878.2214</ele><time>2026-05-09T16:28:28.000Z</time></trkpt>
        <trkpt lat="29.529106" lon="103.328566"><ele>2881.4385</ele><time>2026-05-09T16:28:38.000Z</time></trkpt>
        <trkpt lat="29.529074" lon="103.328603"><ele>2881.0747</ele><time>2026-05-09T16:28:48.000Z</time></trkpt>
        <trkpt lat="29.529072" lon="103.328656"><ele>2881.4724</ele><time>2026-05-09T16:28:56.000Z</time></trkpt>
        <trkpt lat="29.529052" lon="103.328711"><ele>2884.9219</ele><time>2026-05-09T16:29:02.000Z</time></trkpt>
        <trkpt lat="29.529031" lon="103.328761"><ele>2886.2407</ele><time>2026-05-09T16:29:09.000Z</time></trkpt>
        <trkpt lat="29.529016" lon="103.328811"><ele>2886.408</ele><time>2026-05-09T16:29:14.000Z</time></trkpt>
        <trkpt lat="29.528986" lon="103.328863"><ele>2887.6868</ele><time>2026-05-09T16:29:20.000Z</time></trkpt>
        <trkpt lat="29.528985" lon="103.328927"><ele>2886.2634</ele><time>2026-05-09T16:29:26.000Z</time></trkpt>
        <trkpt lat="29.528946" lon="103.328958"><ele>2886.9321</ele><time>2026-05-09T16:29:31.000Z</time></trkpt>
        <trkpt lat="29.528912" lon="103.329003"><ele>2888.8035</ele><time>2026-05-09T16:29:39.000Z</time></trkpt>
        <trkpt lat="29.528873" lon="103.329037"><ele>2891.1436</ele><time>2026-05-09T16:29:45.000Z</time></trkpt>
        <trkpt lat="29.528859" lon="103.329091"><ele>2891.6382</ele><time>2026-05-09T16:29:52.000Z</time></trkpt>
        <trkpt lat="29.52883" lon="103.32915"><ele>2893.246</ele><time>2026-05-09T16:29:58.000Z</time></trkpt>
        <trkpt lat="29.528801" lon="103.329194"><ele>2893.8718</ele><time>2026-05-09T16:30:06.000Z</time></trkpt>
        <trkpt lat="29.528776" lon="103.329236"><ele>2893.7542</ele><time>2026-05-09T16:30:12.000Z</time></trkpt>
        <trkpt lat="29.528739" lon="103.329276"><ele>2894.428</ele><time>2026-05-09T16:30:17.000Z</time></trkpt>
        <trkpt lat="29.528709" lon="103.329318"><ele>2895.2393</ele><time>2026-05-09T16:30:22.000Z</time></trkpt>
        <trkpt lat="29.528688" lon="103.329365"><ele>2896.3079</ele><time>2026-05-09T16:30:27.000Z</time></trkpt>
        <trkpt lat="29.528667" lon="103.329424"><ele>2898.7368</ele><time>2026-05-09T16:30:32.000Z</time></trkpt>
        <trkpt lat="29.528667" lon="103.329485"><ele>2899.3892</ele><time>2026-05-09T16:30:39.000Z</time></trkpt>
        <trkpt lat="29.528661" lon="103.329538"><ele>2897.7925</ele><time>2026-05-09T16:30:46.000Z</time></trkpt>
        <trkpt lat="29.528656" lon="103.329602"><ele>2900.9397</ele><time>2026-05-09T16:30:51.000Z</time></trkpt>
        <trkpt lat="29.528635" lon="103.329659"><ele>2901.5283</ele><time>2026-05-09T16:30:59.000Z</time></trkpt>
        <trkpt lat="29.528635" lon="103.329715"><ele>2902.923</ele><time>2026-05-09T16:31:04.000Z</time></trkpt>
        <trkpt lat="29.528608" lon="103.329761"><ele>2905.2253</ele><time>2026-05-09T16:31:10.000Z</time></trkpt>
        <trkpt lat="29.528623" lon="103.329812"><ele>2904.8098</ele><time>2026-05-09T16:31:16.000Z</time></trkpt>
        <trkpt lat="29.528615" lon="103.329869"><ele>2905.078</ele><time>2026-05-09T16:31:21.000Z</time></trkpt>
        <trkpt lat="29.528609" lon="103.329944"><ele>2906.1057</ele><time>2026-05-09T16:31:26.000Z</time></trkpt>
        <trkpt lat="29.528564" lon="103.329985"><ele>2905.647</ele><time>2026-05-09T16:31:31.000Z</time></trkpt>
        <trkpt lat="29.528535" lon="103.330036"><ele>2904.0645</ele><time>2026-05-09T16:31:36.000Z</time></trkpt>
        <trkpt lat="29.528504" lon="103.330075"><ele>2904.1943</ele><time>2026-05-09T16:31:40.000Z</time></trkpt>
        <trkpt lat="29.528456" lon="103.330113"><ele>2903.4463</ele><time>2026-05-09T16:31:45.000Z</time></trkpt>
        <trkpt lat="29.528416" lon="103.33014"><ele>2903.387</ele><time>2026-05-09T16:31:49.000Z</time></trkpt>
        <trkpt lat="29.528405" lon="103.330194"><ele>2903.6375</ele><time>2026-05-09T16:31:53.000Z</time></trkpt>
        <trkpt lat="29.528421" lon="103.330245"><ele>2904.7898</ele><time>2026-05-09T16:31:56.000Z</time></trkpt>
        <trkpt lat="29.528397" lon="103.330304"><ele>2903.5688</ele><time>2026-05-09T16:32:05.000Z</time></trkpt>
        <trkpt lat="29.52838" lon="103.330357"><ele>2902.4324</ele><time>2026-05-09T16:32:09.000Z</time></trkpt>
        <trkpt lat="29.528346" lon="103.330402"><ele>2903.537</ele><time>2026-05-09T16:32:14.000Z</time></trkpt>
        <trkpt lat="29.528309" lon="103.330437"><ele>2903.036</ele><time>2026-05-09T16:32:20.000Z</time></trkpt>
        <trkpt lat="29.528335" lon="103.330502"><ele>2905.0667</ele><time>2026-05-09T16:32:25.000Z</time></trkpt>
        <trkpt lat="29.528337" lon="103.330554"><ele>2905.5505</ele><time>2026-05-09T16:32:30.000Z</time></trkpt>
        <trkpt lat="29.528322" lon="103.330605"><ele>2909.1426</ele><time>2026-05-09T16:32:40.000Z</time></trkpt>
        <trkpt lat="29.528329" lon="103.330662"><ele>2912.4668</ele><time>2026-05-09T16:32:47.000Z</time></trkpt>
        <trkpt lat="29.528296" lon="103.330609"><ele>2913.5144</ele><time>2026-05-09T16:32:50.000Z</time></trkpt>
        <trkpt lat="29.528296" lon="103.330675"><ele>2914.1714</ele><time>2026-05-09T16:32:54.000Z</time></trkpt>
        <trkpt lat="29.528247" lon="103.330714"><ele>2917.465</ele><time>2026-05-09T16:32:59.000Z</time></trkpt>
        <trkpt lat="29.528228" lon="103.330761"><ele>2917.5952</ele><time>2026-05-09T16:33:06.000Z</time></trkpt>
        <trkpt lat="29.528184" lon="103.330773"><ele>2916.717</ele><time>2026-05-09T16:33:13.000Z</time></trkpt>
        <trkpt lat="29.528154" lon="103.330823"><ele>2918.3362</ele><time>2026-05-09T16:33:19.000Z</time></trkpt>
        <trkpt lat="29.528137" lon="103.330882"><ele>2918.5552</ele><time>2026-05-09T16:33:31.000Z</time></trkpt>
        <trkpt lat="29.528107" lon="103.330922"><ele>2918.1145</ele><time>2026-05-09T16:33:38.000Z</time></trkpt>
        <trkpt lat="29.52808" lon="103.330965"><ele>2921.6458</ele><time>2026-05-09T16:33:53.000Z</time></trkpt>
        <trkpt lat="29.528058" lon="103.331023"><ele>2920.7483</ele><time>2026-05-09T16:34:04.000Z</time></trkpt>
        <trkpt lat="29.528051" lon="103.331093"><ele>2922.808</ele><time>2026-05-09T16:34:12.000Z</time></trkpt>
        <trkpt lat="29.528054" lon="103.331151"><ele>2924.2952</ele><time>2026-05-09T16:34:19.000Z</time></trkpt>
        <trkpt lat="29.528029" lon="103.331201"><ele>2924.7</ele><time>2026-05-09T16:34:25.000Z</time></trkpt>
        <trkpt lat="29.527997" lon="103.331242"><ele>2927.6216</ele><time>2026-05-09T16:34:29.000Z</time></trkpt>
        <trkpt lat="29.527958" lon="103.331267"><ele>2926.316</ele><time>2026-05-09T16:34:33.000Z</time></trkpt>
        <trkpt lat="29.527937" lon="103.331331"><ele>2929.79</ele><time>2026-05-09T16:34:40.000Z</time></trkpt>
        <trkpt lat="29.527897" lon="103.33137"><ele>2930.4526</ele><time>2026-05-09T16:34:46.000Z</time></trkpt>
        <trkpt lat="29.527855" lon="103.331405"><ele>2930.8557</ele><time>2026-05-09T16:34:55.000Z</time></trkpt>
        <trkpt lat="29.527834" lon="103.331457"><ele>2935.1223</ele><time>2026-05-09T16:35:02.000Z</time></trkpt>
        <trkpt lat="29.527804" lon="103.331502"><ele>2938.4612</ele><time>2026-05-09T16:35:12.000Z</time></trkpt>
        <trkpt lat="29.527793" lon="103.331556"><ele>2937.6729</ele><time>2026-05-09T16:35:20.000Z</time></trkpt>
        <trkpt lat="29.527753" lon="103.331586"><ele>2938.4707</ele><time>2026-05-09T16:35:27.000Z</time></trkpt>
        <trkpt lat="29.527752" lon="103.331644"><ele>2936.4192</ele><time>2026-05-09T16:35:35.000Z</time></trkpt>
        <trkpt lat="29.527748" lon="103.331703"><ele>2935.0088</ele><time>2026-05-09T16:35:41.000Z</time></trkpt>
        <trkpt lat="29.527739" lon="103.331758"><ele>2933.4255</ele><time>2026-05-09T16:35:47.000Z</time></trkpt>
        <trkpt lat="29.527743" lon="103.331813"><ele>2934.7678</ele><time>2026-05-09T16:35:53.000Z</time></trkpt>
        <trkpt lat="29.52773" lon="103.331867"><ele>2938.05</ele><time>2026-05-09T16:35:58.000Z</time></trkpt>
        <trkpt lat="29.527737" lon="103.331925"><ele>2939.1685</ele><time>2026-05-09T16:36:04.000Z</time></trkpt>
        <trkpt lat="29.52774" lon="103.331986"><ele>2940.5894</ele><time>2026-05-09T16:36:09.000Z</time></trkpt>
        <trkpt lat="29.527704" lon="103.33204"><ele>2941.2126</ele><time>2026-05-09T16:36:14.000Z</time></trkpt>
        <trkpt lat="29.527664" lon="103.33207"><ele>2941.6519</ele><time>2026-05-09T16:36:20.000Z</time></trkpt>
        <trkpt lat="29.527622" lon="103.332099"><ele>2942.2405</ele><time>2026-05-09T16:36:25.000Z</time></trkpt>
        <trkpt lat="29.527584" lon="103.332144"><ele>2946.1616</ele><time>2026-05-09T16:36:34.000Z</time></trkpt>
        <trkpt lat="29.527539" lon="103.332168"><ele>2948.1626</ele><time>2026-05-09T16:36:43.000Z</time></trkpt>
        <trkpt lat="29.527513" lon="103.332216"><ele>2949.5818</ele><time>2026-05-09T16:36:51.000Z</time></trkpt>
        <trkpt lat="29.527469" lon="103.332235"><ele>2951.8767</ele><time>2026-05-09T16:37:00.000Z</time></trkpt>
        <trkpt lat="29.527474" lon="103.332288"><ele>2952.3428</ele><time>2026-05-09T16:37:07.000Z</time></trkpt>
        <trkpt lat="29.527498" lon="103.332344"><ele>2954.6218</ele><time>2026-05-09T16:37:15.000Z</time></trkpt>
        <trkpt lat="29.527505" lon="103.332396"><ele>2954.322</ele><time>2026-05-09T16:37:22.000Z</time></trkpt>
        <trkpt lat="29.527498" lon="103.332458"><ele>2953.8696</ele><time>2026-05-09T16:37:31.000Z</time></trkpt>
        <trkpt lat="29.527452" lon="103.332469"><ele>2953.5803</ele><time>2026-05-09T16:37:37.000Z</time></trkpt>
        <trkpt lat="29.527426" lon="103.332513"><ele>2948.2983</ele><time>2026-05-09T16:37:49.000Z</time></trkpt>
        <trkpt lat="29.527366" lon="103.33251"><ele>2951.1084</ele><time>2026-05-09T16:38:00.000Z</time></trkpt>
        <trkpt lat="29.527325" lon="103.332468"><ele>2951.9917</ele><time>2026-05-09T16:38:06.000Z</time></trkpt>
        <trkpt lat="29.527275" lon="103.332462"><ele>2954.102</ele><time>2026-05-09T16:38:12.000Z</time></trkpt>
        <trkpt lat="29.527223" lon="103.332434"><ele>2956.0623</ele><time>2026-05-09T16:38:21.000Z</time></trkpt>
        <trkpt lat="29.527206" lon="103.33237"><ele>2956.7917</ele><time>2026-05-09T16:38:26.000Z</time></trkpt>
        <trkpt lat="29.527206" lon="103.332318"><ele>2956.7046</ele><time>2026-05-09T16:38:29.000Z</time></trkpt>
        <trkpt lat="29.527155" lon="103.332276"><ele>2957.8042</ele><time>2026-05-09T16:38:37.000Z</time></trkpt>
        <trkpt lat="29.52713" lon="103.332324"><ele>2960.963</ele><time>2026-05-09T16:38:47.000Z</time></trkpt>
        <trkpt lat="29.527103" lon="103.332366"><ele>2963.0337</ele><time>2026-05-09T16:38:52.000Z</time></trkpt>
        <trkpt lat="29.527085" lon="103.332421"><ele>2965.0269</ele><time>2026-05-09T16:38:57.000Z</time></trkpt>
        <trkpt lat="29.527059" lon="103.332474"><ele>2965.4763</ele><time>2026-05-09T16:39:04.000Z</time></trkpt>
        <trkpt lat="29.527047" lon="103.332532"><ele>2964.6685</ele><time>2026-05-09T16:39:13.000Z</time></trkpt>
        <trkpt lat="29.527068" lon="103.332585"><ele>2964.8298</ele><time>2026-05-09T16:39:19.000Z</time></trkpt>
        <trkpt lat="29.527069" lon="103.332642"><ele>2966.3582</ele><time>2026-05-09T16:39:26.000Z</time></trkpt>
        <trkpt lat="29.527081" lon="103.332695"><ele>2966.3555</ele><time>2026-05-09T16:39:32.000Z</time></trkpt>
        <trkpt lat="29.527084" lon="103.332752"><ele>2964.9258</ele><time>2026-05-09T16:39:38.000Z</time></trkpt>
        <trkpt lat="29.527071" lon="103.332808"><ele>2964.397</ele><time>2026-05-09T16:39:46.000Z</time></trkpt>
        <trkpt lat="29.52706" lon="103.332871"><ele>2965.4604</ele><time>2026-05-09T16:39:53.000Z</time></trkpt>
        <trkpt lat="29.527039" lon="103.332924"><ele>2966.2976</ele><time>2026-05-09T16:39:59.000Z</time></trkpt>
        <trkpt lat="29.527068" lon="103.332979"><ele>2966.7026</ele><time>2026-05-09T16:40:06.000Z</time></trkpt>
        <trkpt lat="29.527088" lon="103.333031"><ele>2967.976</ele><time>2026-05-09T16:40:13.000Z</time></trkpt>
        <trkpt lat="29.527117" lon="103.333071"><ele>2968.6956</ele><time>2026-05-09T16:40:19.000Z</time></trkpt>
        <trkpt lat="29.527148" lon="103.333121"><ele>2968.6226</ele><time>2026-05-09T16:40:24.000Z</time></trkpt>
        <trkpt lat="29.527158" lon="103.333177"><ele>2969.403</ele><time>2026-05-09T16:40:29.000Z</time></trkpt>
        <trkpt lat="29.527149" lon="103.333239"><ele>2970.367</ele><time>2026-05-09T16:40:34.000Z</time></trkpt>
        <trkpt lat="29.527127" lon="103.333293"><ele>2972.7783</ele><time>2026-05-09T16:40:38.000Z</time></trkpt>
        <trkpt lat="29.527092" lon="103.333343"><ele>2974.6262</ele><time>2026-05-09T16:40:43.000Z</time></trkpt>
        <trkpt lat="29.527044" lon="103.333376"><ele>2972.1426</ele><time>2026-05-09T16:40:49.000Z</time></trkpt>
        <trkpt lat="29.52701" lon="103.333414"><ele>2974.1392</ele><time>2026-05-09T16:40:53.000Z</time></trkpt>
        <trkpt lat="29.526961" lon="103.333433"><ele>2974.531</ele><time>2026-05-09T16:40:57.000Z</time></trkpt>
        <trkpt lat="29.526916" lon="103.333463"><ele>2975.996</ele><time>2026-05-09T16:41:03.000Z</time></trkpt>
        <trkpt lat="29.52687" lon="103.333488"><ele>2978.7063</ele><time>2026-05-09T16:41:10.000Z</time></trkpt>
        <trkpt lat="29.526829" lon="103.333517"><ele>2979.5828</ele><time>2026-05-09T16:41:17.000Z</time></trkpt>
        <trkpt lat="29.526768" lon="103.333539"><ele>2980.2595</ele><time>2026-05-09T16:41:25.000Z</time></trkpt>
        <trkpt lat="29.526729" lon="103.33351"><ele>2982.3665</ele><time>2026-05-09T16:41:49.000Z</time></trkpt>
        <trkpt lat="29.526679" lon="103.333524"><ele>2984.395</ele><time>2026-05-09T16:42:01.000Z</time></trkpt>
        <trkpt lat="29.526641" lon="103.333559"><ele>2987.4324</ele><time>2026-05-09T16:42:14.000Z</time></trkpt>
        <trkpt lat="29.526593" lon="103.333585"><ele>2990.4802</ele><time>2026-05-09T16:42:23.000Z</time></trkpt>
        <trkpt lat="29.526552" lon="103.333613"><ele>2991.818</ele><time>2026-05-09T16:42:31.000Z</time></trkpt>
        <trkpt lat="29.526506" lon="103.333608"><ele>2989.3843</ele><time>2026-05-09T16:42:37.000Z</time></trkpt>
        <trkpt lat="29.526465" lon="103.333631"><ele>2988.6375</ele><time>2026-05-09T16:42:44.000Z</time></trkpt>
        <trkpt lat="29.526425" lon="103.333656"><ele>2989.534</ele><time>2026-05-09T16:42:50.000Z</time></trkpt>
        <trkpt lat="29.526378" lon="103.333696"><ele>2991.441</ele><time>2026-05-09T16:42:57.000Z</time></trkpt>
        <trkpt lat="29.526334" lon="103.333716"><ele>2990.7488</ele><time>2026-05-09T16:43:02.000Z</time></trkpt>
        <trkpt lat="29.526294" lon="103.333748"><ele>2990.5361</ele><time>2026-05-09T16:43:07.000Z</time></trkpt>
        <trkpt lat="29.526253" lon="103.333769"><ele>2991.252</ele><time>2026-05-09T16:43:13.000Z</time></trkpt>
        <trkpt lat="29.526204" lon="103.333817"><ele>2992.0557</ele><time>2026-05-09T16:43:20.000Z</time></trkpt>
        <trkpt lat="29.526166" lon="103.333857"><ele>2995.0208</ele><time>2026-05-09T16:43:28.000Z</time></trkpt>
        <trkpt lat="29.526119" lon="103.333871"><ele>2994.2888</ele><time>2026-05-09T16:43:36.000Z</time></trkpt>
        <trkpt lat="29.526083" lon="103.333903"><ele>2996.2827</ele><time>2026-05-09T16:43:46.000Z</time></trkpt>
        <trkpt lat="29.526037" lon="103.333916"><ele>2997.2402</ele><time>2026-05-09T16:43:54.000Z</time></trkpt>
        <trkpt lat="29.525991" lon="103.333934"><ele>2997.135</ele><time>2026-05-09T16:43:59.000Z</time></trkpt>
        <trkpt lat="29.525947" lon="103.333956"><ele>2997.746</ele><time>2026-05-09T16:44:07.000Z</time></trkpt>
        <trkpt lat="29.525904" lon="103.333979"><ele>2998.2344</ele><time>2026-05-09T16:44:12.000Z</time></trkpt>
        <trkpt lat="29.525861" lon="103.334002"><ele>2999.9146</ele><time>2026-05-09T16:44:20.000Z</time></trkpt>
        <trkpt lat="29.525818" lon="103.334029"><ele>3000.7239</ele><time>2026-05-09T16:44:28.000Z</time></trkpt>
        <trkpt lat="29.525773" lon="103.33406"><ele>3002.644</ele><time>2026-05-09T16:44:34.000Z</time></trkpt>
        <trkpt lat="29.525726" lon="103.334089"><ele>3004.3333</ele><time>2026-05-09T16:44:39.000Z</time></trkpt>
        <trkpt lat="29.525698" lon="103.334136"><ele>3004.6262</ele><time>2026-05-09T16:44:49.000Z</time></trkpt>
        <trkpt lat="29.525659" lon="103.334169"><ele>3005.2263</ele><time>2026-05-09T16:44:53.000Z</time></trkpt>
        <trkpt lat="29.52561" lon="103.334194"><ele>3003.8613</ele><time>2026-05-09T16:44:59.000Z</time></trkpt>
        <trkpt lat="29.525605" lon="103.33425"><ele>3004.9983</ele><time>2026-05-09T16:45:08.000Z</time></trkpt>
        <trkpt lat="29.525562" lon="103.334283"><ele>3004.985</ele><time>2026-05-09T16:45:12.000Z</time></trkpt>
        <trkpt lat="29.525535" lon="103.334329"><ele>3004.9888</ele><time>2026-05-09T16:45:18.000Z</time></trkpt>
        <trkpt lat="29.525504" lon="103.334374"><ele>3006.8887</ele><time>2026-05-09T16:45:25.000Z</time></trkpt>
        <trkpt lat="29.525463" lon="103.334438"><ele>3008.2185</ele><time>2026-05-09T16:45:37.000Z</time></trkpt>
        <trkpt lat="29.525448" lon="103.334491"><ele>3009.7463</ele><time>2026-05-09T16:45:47.000Z</time></trkpt>
        <trkpt lat="29.525417" lon="103.334534"><ele>3011.7595</ele><time>2026-05-09T16:45:54.000Z</time></trkpt>
        <trkpt lat="29.52537" lon="103.33456"><ele>3013.2556</ele><time>2026-05-09T16:46:01.000Z</time></trkpt>
        <trkpt lat="29.525341" lon="103.334606"><ele>3015.2275</ele><time>2026-05-09T16:46:11.000Z</time></trkpt>
        <trkpt lat="29.525304" lon="103.33465"><ele>3015.8525</ele><time>2026-05-09T16:46:21.000Z</time></trkpt>
        <trkpt lat="29.525267" lon="103.334684"><ele>3015.8303</ele><time>2026-05-09T16:46:29.000Z</time></trkpt>
        <trkpt lat="29.525224" lon="103.334715"><ele>3016.3738</ele><time>2026-05-09T16:46:36.000Z</time></trkpt>
        <trkpt lat="29.525187" lon="103.334747"><ele>3019.8896</ele><time>2026-05-09T16:46:43.000Z</time></trkpt>
        <trkpt lat="29.525143" lon="103.33477"><ele>3020.045</ele><time>2026-05-09T16:46:49.000Z</time></trkpt>
        <trkpt lat="29.525098" lon="103.334788"><ele>3021.5574</ele><time>2026-05-09T16:46:56.000Z</time></trkpt>
        <trkpt lat="29.525063" lon="103.334823"><ele>3020.9363</ele><time>2026-05-09T16:47:06.000Z</time></trkpt>
        <trkpt lat="29.525027" lon="103.334858"><ele>3021.5974</ele><time>2026-05-09T16:47:12.000Z</time></trkpt>
        <trkpt lat="29.524979" lon="103.334869"><ele>3021.6367</ele><time>2026-05-09T16:47:19.000Z</time></trkpt>
        <trkpt lat="29.524933" lon="103.334843"><ele>3020.3137</ele><time>2026-05-09T16:47:24.000Z</time></trkpt>
        <trkpt lat="29.524877" lon="103.334826"><ele>3022.6997</ele><time>2026-05-09T16:47:29.000Z</time></trkpt>
        <trkpt lat="29.524832" lon="103.334811"><ele>3024.26</ele><time>2026-05-09T16:47:34.000Z</time></trkpt>
        <trkpt lat="29.524787" lon="103.334792"><ele>3023.508</ele><time>2026-05-09T16:47:38.000Z</time></trkpt>
        <trkpt lat="29.524739" lon="103.334793"><ele>3025.1177</ele><time>2026-05-09T16:47:43.000Z</time></trkpt>
        <trkpt lat="29.524746" lon="103.334739"><ele>3022.2104</ele><time>2026-05-09T16:48:16.000Z</time></trkpt>
        <trkpt lat="29.52479" lon="103.334711"><ele>3024.9558</ele><time>2026-05-09T16:48:35.000Z</time></trkpt>
        <trkpt lat="29.524773" lon="103.334766"><ele>3025.931</ele><time>2026-05-09T16:48:57.000Z</time></trkpt>
        <trkpt lat="29.524724" lon="103.334772"><ele>3024.5583</ele><time>2026-05-09T16:49:11.000Z</time></trkpt>
        <trkpt lat="29.524682" lon="103.334794"><ele>3026.0115</ele><time>2026-05-09T16:49:18.000Z</time></trkpt>
        <trkpt lat="29.524629" lon="103.334782"><ele>3028.9148</ele><time>2026-05-09T16:49:26.000Z</time></trkpt>
        <trkpt lat="29.524588" lon="103.334806"><ele>3028.6702</ele><time>2026-05-09T16:49:29.000Z</time></trkpt>
        <trkpt lat="29.524559" lon="103.334852"><ele>3032.3674</ele><time>2026-05-09T16:49:34.000Z</time></trkpt>
        <trkpt lat="29.524506" lon="103.334851"><ele>3032.9336</ele><time>2026-05-09T16:49:42.000Z</time></trkpt>
        <trkpt lat="29.524469" lon="103.334885"><ele>3034.3018</ele><time>2026-05-09T16:49:46.000Z</time></trkpt>
        <trkpt lat="29.524426" lon="103.334914"><ele>3033.1694</ele><time>2026-05-09T16:49:51.000Z</time></trkpt>
        <trkpt lat="29.524379" lon="103.334942"><ele>3033.987</ele><time>2026-05-09T16:49:55.000Z</time></trkpt>
        <trkpt lat="29.524331" lon="103.334951"><ele>3033.561</ele><time>2026-05-09T16:49:59.000Z</time></trkpt>
        <trkpt lat="29.524273" lon="103.334964"><ele>3032.963</ele><time>2026-05-09T16:50:05.000Z</time></trkpt>
        <trkpt lat="29.524217" lon="103.33497"><ele>3032.3945</ele><time>2026-05-09T16:50:09.000Z</time></trkpt>
        <trkpt lat="29.524169" lon="103.334977"><ele>3032.1523</ele><time>2026-05-09T16:50:13.000Z</time></trkpt>
        <trkpt lat="29.524119" lon="103.334969"><ele>3031.4553</ele><time>2026-05-09T16:50:18.000Z</time></trkpt>
        <trkpt lat="29.52407" lon="103.33498"><ele>3032.6428</ele><time>2026-05-09T16:50:22.000Z</time></trkpt>
        <trkpt lat="29.524025" lon="103.334972"><ele>3033.5415</ele><time>2026-05-09T16:50:26.000Z</time></trkpt>
        <trkpt lat="29.523977" lon="103.334954"><ele>3034.3804</ele><time>2026-05-09T16:50:31.000Z</time></trkpt>
        <trkpt lat="29.523923" lon="103.334952"><ele>3033.7256</ele><time>2026-05-09T16:50:38.000Z</time></trkpt>
        <trkpt lat="29.523873" lon="103.33496"><ele>3035.2751</ele><time>2026-05-09T16:50:44.000Z</time></trkpt>
        <trkpt lat="29.523822" lon="103.334952"><ele>3034.7915</ele><time>2026-05-09T16:50:48.000Z</time></trkpt>
        <trkpt lat="29.523777" lon="103.334946"><ele>3034.697</ele><time>2026-05-09T16:50:52.000Z</time></trkpt>
        <trkpt lat="29.52373" lon="103.334929"><ele>3035.4224</ele><time>2026-05-09T16:50:57.000Z</time></trkpt>
        <trkpt lat="29.523678" lon="103.334926"><ele>3034.759</ele><time>2026-05-09T16:51:02.000Z</time></trkpt>
        <trkpt lat="29.523633" lon="103.334921"><ele>3034.916</ele><time>2026-05-09T16:51:06.000Z</time></trkpt>
        <trkpt lat="29.523584" lon="103.334916"><ele>3034.159</ele><time>2026-05-09T16:51:09.000Z</time></trkpt>
        <trkpt lat="29.52353" lon="103.334906"><ele>3034.783</ele><time>2026-05-09T16:51:15.000Z</time></trkpt>
        <trkpt lat="29.52348" lon="103.334906"><ele>3034.4678</ele><time>2026-05-09T16:51:21.000Z</time></trkpt>
        <trkpt lat="29.523427" lon="103.334896"><ele>3036.132</ele><time>2026-05-09T16:51:27.000Z</time></trkpt>
        <trkpt lat="29.523382" lon="103.334883"><ele>3037.011</ele><time>2026-05-09T16:51:31.000Z</time></trkpt>
        <trkpt lat="29.523338" lon="103.334862"><ele>3036.1284</ele><time>2026-05-09T16:51:36.000Z</time></trkpt>
        <trkpt lat="29.523286" lon="103.334846"><ele>3036.6782</ele><time>2026-05-09T16:51:42.000Z</time></trkpt>
        <trkpt lat="29.523243" lon="103.334829"><ele>3037.1</ele><time>2026-05-09T16:51:47.000Z</time></trkpt>
        <trkpt lat="29.523194" lon="103.334817"><ele>3036.6506</ele><time>2026-05-09T16:51:52.000Z</time></trkpt>
        <trkpt lat="29.523141" lon="103.334808"><ele>3036.8486</ele><time>2026-05-09T16:51:58.000Z</time></trkpt>
        <trkpt lat="29.523095" lon="103.334792"><ele>3037.6736</ele><time>2026-05-09T16:52:03.000Z</time></trkpt>
        <trkpt lat="29.523055" lon="103.334759"><ele>3039.662</ele><time>2026-05-09T16:52:08.000Z</time></trkpt>
        <trkpt lat="29.523007" lon="103.334753"><ele>3041.2627</ele><time>2026-05-09T16:52:15.000Z</time></trkpt>
        <trkpt lat="29.522947" lon="103.334767"><ele>3039.2017</ele><time>2026-05-09T16:52:20.000Z</time></trkpt>
        <trkpt lat="29.522906" lon="103.334798"><ele>3040.372</ele><time>2026-05-09T16:52:28.000Z</time></trkpt>
        <trkpt lat="29.522855" lon="103.334788"><ele>3042.4937</ele><time>2026-05-09T16:52:34.000Z</time></trkpt>
        <trkpt lat="29.522814" lon="103.33481"><ele>3044.0686</ele><time>2026-05-09T16:52:44.000Z</time></trkpt>
        <trkpt lat="29.522763" lon="103.334822"><ele>3044.7861</ele><time>2026-05-09T16:52:50.000Z</time></trkpt>
        <trkpt lat="29.522725" lon="103.334859"><ele>3044.5984</ele><time>2026-05-09T16:52:57.000Z</time></trkpt>
        <trkpt lat="29.522752" lon="103.334903"><ele>3045.526</ele><time>2026-05-09T16:53:05.000Z</time></trkpt>
        <trkpt lat="29.522755" lon="103.33496"><ele>3044.9243</ele><time>2026-05-09T16:53:10.000Z</time></trkpt>
        <trkpt lat="29.522763" lon="103.33502"><ele>3047.0916</ele><time>2026-05-09T16:53:16.000Z</time></trkpt>
        <trkpt lat="29.522773" lon="103.335073"><ele>3047.0022</ele><time>2026-05-09T16:53:22.000Z</time></trkpt>
        <trkpt lat="29.522777" lon="103.335125"><ele>3049.2932</ele><time>2026-05-09T16:53:28.000Z</time></trkpt>
        <trkpt lat="29.522798" lon="103.335171"><ele>3049.321</ele><time>2026-05-09T16:53:33.000Z</time></trkpt>
        <trkpt lat="29.522802" lon="103.33523"><ele>3052.5198</ele><time>2026-05-09T16:53:41.000Z</time></trkpt>
        <trkpt lat="29.522808" lon="103.33529"><ele>3054.4973</ele><time>2026-05-09T16:53:50.000Z</time></trkpt>
        <trkpt lat="29.522814" lon="103.335341"><ele>3054.251</ele><time>2026-05-09T16:53:55.000Z</time></trkpt>
        <trkpt lat="29.522813" lon="103.335396"><ele>3055.09</ele><time>2026-05-09T16:54:01.000Z</time></trkpt>
        <trkpt lat="29.522821" lon="103.335446"><ele>3054.5483</ele><time>2026-05-09T16:54:09.000Z</time></trkpt>
        <trkpt lat="29.522826" lon="103.335501"><ele>3054.9382</ele><time>2026-05-09T16:54:20.000Z</time></trkpt>
        <trkpt lat="29.522816" lon="103.335555"><ele>3056.4324</ele><time>2026-05-09T16:54:27.000Z</time></trkpt>
        <trkpt lat="29.522849" lon="103.335597"><ele>3056.5845</ele><time>2026-05-09T16:54:55.000Z</time></trkpt>
        <trkpt lat="29.522857" lon="103.335656"><ele>3057.5295</ele><time>2026-05-09T16:55:03.000Z</time></trkpt>
        <trkpt lat="29.522864" lon="103.335709"><ele>3058.978</ele><time>2026-05-09T16:55:13.000Z</time></trkpt>
        <trkpt lat="29.522871" lon="103.335768"><ele>3060.2646</ele><time>2026-05-09T16:55:20.000Z</time></trkpt>
        <trkpt lat="29.522872" lon="103.335823"><ele>3063.178</ele><time>2026-05-09T16:55:26.000Z</time></trkpt>
        <trkpt lat="29.5229" lon="103.335865"><ele>3064.3755</ele><time>2026-05-09T16:55:35.000Z</time></trkpt>
        <trkpt lat="29.522947" lon="103.335861"><ele>3063.909</ele><time>2026-05-09T16:55:39.000Z</time></trkpt>
        <trkpt lat="29.522994" lon="103.335861"><ele>3066.394</ele><time>2026-05-09T16:55:47.000Z</time></trkpt>
        <trkpt lat="29.523034" lon="103.335887"><ele>3065.445</ele><time>2026-05-09T16:55:53.000Z</time></trkpt>
        <trkpt lat="29.523035" lon="103.335943"><ele>3065.7888</ele><time>2026-05-09T16:55:57.000Z</time></trkpt>
        <trkpt lat="29.523065" lon="103.335993"><ele>3065.0688</ele><time>2026-05-09T16:56:02.000Z</time></trkpt>
        <trkpt lat="29.523086" lon="103.336051"><ele>3065.336</ele><time>2026-05-09T16:56:07.000Z</time></trkpt>
        <trkpt lat="29.523108" lon="103.336105"><ele>3065.7537</ele><time>2026-05-09T16:56:12.000Z</time></trkpt>
        <trkpt lat="29.523124" lon="103.336158"><ele>3066.3047</ele><time>2026-05-09T16:56:17.000Z</time></trkpt>
        <trkpt lat="29.523134" lon="103.33622"><ele>3065.7896</ele><time>2026-05-09T16:56:22.000Z</time></trkpt>
        <trkpt lat="29.52313" lon="103.336273"><ele>3067.0647</ele><time>2026-05-09T16:56:27.000Z</time></trkpt>
        <trkpt lat="29.523126" lon="103.336331"><ele>3068.1653</ele><time>2026-05-09T16:56:32.000Z</time></trkpt>
        <trkpt lat="29.523127" lon="103.336393"><ele>3069.688</ele><time>2026-05-09T16:56:38.000Z</time></trkpt>
        <trkpt lat="29.52311" lon="103.336441"><ele>3069.5544</ele><time>2026-05-09T16:56:43.000Z</time></trkpt>
        <trkpt lat="29.523075" lon="103.336488"><ele>3068.9065</ele><time>2026-05-09T16:56:48.000Z</time></trkpt>
        <trkpt lat="29.523046" lon="103.33654"><ele>3068.253</ele><time>2026-05-09T16:56:54.000Z</time></trkpt>
        <trkpt lat="29.523017" lon="103.336586"><ele>3070.7017</ele><time>2026-05-09T16:57:06.000Z</time></trkpt>
        <trkpt lat="29.522961" lon="103.336599"><ele>3068.434</ele><time>2026-05-09T16:57:43.000Z</time></trkpt>
        <trkpt lat="29.523008" lon="103.336568"><ele>3067.5867</ele><time>2026-05-09T16:58:06.000Z</time></trkpt>
        <trkpt lat="29.523014" lon="103.336505"><ele>3066.895</ele><time>2026-05-09T16:58:10.000Z</time></trkpt>
        <trkpt lat="29.523051" lon="103.336468"><ele>3067.3591</ele><time>2026-05-09T16:58:15.000Z</time></trkpt>
        <trkpt lat="29.523041" lon="103.336521"><ele>3067.306</ele><time>2026-05-09T16:58:26.000Z</time></trkpt>
        <trkpt lat="29.52306" lon="103.336473"><ele>3066.238</ele><time>2026-05-09T16:59:26.000Z</time></trkpt>
        <trkpt lat="29.523066" lon="103.336419"><ele>3065.3682</ele><time>2026-05-09T16:59:31.000Z</time></trkpt>
        <trkpt lat="29.523077" lon="103.336357"><ele>3063.9756</ele><time>2026-05-09T16:59:36.000Z</time></trkpt>
        <trkpt lat="29.523087" lon="103.336302"><ele>3063.7048</ele><time>2026-05-09T16:59:41.000Z</time></trkpt>
        <trkpt lat="29.523074" lon="103.336247"><ele>3064.5452</ele><time>2026-05-09T16:59:46.000Z</time></trkpt>
        <trkpt lat="29.523052" lon="103.336193"><ele>3065.9495</ele><time>2026-05-09T16:59:52.000Z</time></trkpt>
        <trkpt lat="29.523042" lon="103.336137"><ele>3065.851</ele><time>2026-05-09T16:59:57.000Z</time></trkpt>
        <trkpt lat="29.523031" lon="103.33608"><ele>3068.0679</ele><time>2026-05-09T17:00:02.000Z</time></trkpt>
        <trkpt lat="29.523006" lon="103.336026"><ele>3067.8184</ele><time>2026-05-09T17:00:08.000Z</time></trkpt>
        <trkpt lat="29.523003" lon="103.335972"><ele>3067.1807</ele><time>2026-05-09T17:00:12.000Z</time></trkpt>
        <trkpt lat="29.523021" lon="103.33591"><ele>3067.0444</ele><time>2026-05-09T17:00:18.000Z</time></trkpt>
        <trkpt lat="29.52306" lon="103.335883"><ele>3066.0227</ele><time>2026-05-09T17:00:22.000Z</time></trkpt>
        <trkpt lat="29.523053" lon="103.335831"><ele>3065.8872</ele><time>2026-05-09T17:01:17.000Z</time></trkpt>
        <trkpt lat="29.523027" lon="103.335876"><ele>3063.3838</ele><time>2026-05-09T17:01:25.000Z</time></trkpt>
        <trkpt lat="29.522986" lon="103.335849"><ele>3062.434</ele><time>2026-05-09T17:01:45.000Z</time></trkpt>
        <trkpt lat="29.52294" lon="103.335862"><ele>3060.9216</ele><time>2026-05-09T17:01:51.000Z</time></trkpt>
        <trkpt lat="29.522891" lon="103.33587"><ele>3059.9707</ele><time>2026-05-09T17:01:57.000Z</time></trkpt>
        <trkpt lat="29.522845" lon="103.335863"><ele>3060.6943</ele><time>2026-05-09T17:02:03.000Z</time></trkpt>
        <trkpt lat="29.522829" lon="103.335809"><ele>3058.9766</ele><time>2026-05-09T17:02:08.000Z</time></trkpt>
        <trkpt lat="29.522817" lon="103.335757"><ele>3057.6414</ele><time>2026-05-09T17:02:11.000Z</time></trkpt>
        <trkpt lat="29.52283" lon="103.335702"><ele>3057.8347</ele><time>2026-05-09T17:02:15.000Z</time></trkpt>
        <trkpt lat="29.522832" lon="103.335649"><ele>3055.8032</ele><time>2026-05-09T17:02:20.000Z</time></trkpt>
        <trkpt lat="29.522812" lon="103.335596"><ele>3057.003</ele><time>2026-05-09T17:02:26.000Z</time></trkpt>
        <trkpt lat="29.522798" lon="103.335541"><ele>3055.492</ele><time>2026-05-09T17:02:34.000Z</time></trkpt>
        <trkpt lat="29.522779" lon="103.335486"><ele>3054.9658</ele><time>2026-05-09T17:02:38.000Z</time></trkpt>
        <trkpt lat="29.522775" lon="103.335433"><ele>3056.1707</ele><time>2026-05-09T17:02:42.000Z</time></trkpt>
        <trkpt lat="29.522784" lon="103.335374"><ele>3055.0234</ele><time>2026-05-09T17:02:47.000Z</time></trkpt>
        <trkpt lat="29.522762" lon="103.335321"><ele>3056.8774</ele><time>2026-05-09T17:02:53.000Z</time></trkpt>
        <trkpt lat="29.522739" lon="103.33527"><ele>3056.1995</ele><time>2026-05-09T17:02:59.000Z</time></trkpt>
        <trkpt lat="29.522725" lon="103.335218"><ele>3054.9153</ele><time>2026-05-09T17:03:07.000Z</time></trkpt>
        <trkpt lat="29.522728" lon="103.335161"><ele>3053.7446</ele><time>2026-05-09T17:03:16.000Z</time></trkpt>
        <trkpt lat="29.522726" lon="103.335105"><ele>3052.4888</ele><time>2026-05-09T17:03:22.000Z</time></trkpt>
        <trkpt lat="29.522737" lon="103.335052"><ele>3049.9478</ele><time>2026-05-09T17:03:28.000Z</time></trkpt>
        <trkpt lat="29.522746" lon="103.334996"><ele>3049.4932</ele><time>2026-05-09T17:03:33.000Z</time></trkpt>
        <trkpt lat="29.522745" lon="103.334941"><ele>3047.5063</ele><time>2026-05-09T17:03:38.000Z</time></trkpt>
        <trkpt lat="29.522738" lon="103.334885"><ele>3047.3015</ele><time>2026-05-09T17:03:44.000Z</time></trkpt>
        <trkpt lat="29.522724" lon="103.334831"><ele>3045.74</ele><time>2026-05-09T17:03:57.000Z</time></trkpt>
        <trkpt lat="29.522768" lon="103.334807"><ele>3044.69</ele><time>2026-05-09T17:04:02.000Z</time></trkpt>
        <trkpt lat="29.522809" lon="103.334786"><ele>3043.5967</ele><time>2026-05-09T17:04:08.000Z</time></trkpt>
        <trkpt lat="29.522861" lon="103.334784"><ele>3041.0022</ele><time>2026-05-09T17:04:15.000Z</time></trkpt>
        <trkpt lat="29.522908" lon="103.334773"><ele>3042.5352</ele><time>2026-05-09T17:04:20.000Z</time></trkpt>
        <trkpt lat="29.522957" lon="103.334772"><ele>3041.3242</ele><time>2026-05-09T17:04:26.000Z</time></trkpt>
        <trkpt lat="29.523" lon="103.334742"><ele>3038.595</ele><time>2026-05-09T17:04:32.000Z</time></trkpt>
        <trkpt lat="29.523039" lon="103.334771"><ele>3037.4114</ele><time>2026-05-09T17:04:37.000Z</time></trkpt>
        <trkpt lat="29.523066" lon="103.334729"><ele>3037.7905</ele><time>2026-05-09T17:04:45.000Z</time></trkpt>
        <trkpt lat="29.523086" lon="103.334681"><ele>3037.5164</ele><time>2026-05-09T17:04:50.000Z</time></trkpt>
        <trkpt lat="29.523085" lon="103.334745"><ele>3036.7053</ele><time>2026-05-09T17:05:11.000Z</time></trkpt>
        <trkpt lat="29.523129" lon="103.334764"><ele>3036.8372</ele><time>2026-05-09T17:05:16.000Z</time></trkpt>
        <trkpt lat="29.523173" lon="103.33481"><ele>3037.7375</ele><time>2026-05-09T17:05:20.000Z</time></trkpt>
        <trkpt lat="29.52323" lon="103.334833"><ele>3037.423</ele><time>2026-05-09T17:05:25.000Z</time></trkpt>
        <trkpt lat="29.523274" lon="103.334849"><ele>3038.2925</ele><time>2026-05-09T17:05:29.000Z</time></trkpt>
        <trkpt lat="29.523319" lon="103.33486"><ele>3036.7007</ele><time>2026-05-09T17:05:33.000Z</time></trkpt>
        <trkpt lat="29.523375" lon="103.334876"><ele>3035.1575</ele><time>2026-05-09T17:05:39.000Z</time></trkpt>
        <trkpt lat="29.523429" lon="103.334898"><ele>3035.6218</ele><time>2026-05-09T17:05:43.000Z</time></trkpt>
        <trkpt lat="29.523475" lon="103.334903"><ele>3036.3066</ele><time>2026-05-09T17:05:47.000Z</time></trkpt>
        <trkpt lat="29.523525" lon="103.334911"><ele>3035.0156</ele><time>2026-05-09T17:05:56.000Z</time></trkpt>
        <trkpt lat="29.523572" lon="103.334902"><ele>3035.9956</ele><time>2026-05-09T17:06:01.000Z</time></trkpt>
        <trkpt lat="29.523617" lon="103.334913"><ele>3035.6675</ele><time>2026-05-09T17:06:09.000Z</time></trkpt>
        <trkpt lat="29.523668" lon="103.334898"><ele>3035.7275</ele><time>2026-05-09T17:06:14.000Z</time></trkpt>
        <trkpt lat="29.523713" lon="103.334906"><ele>3035.4011</ele><time>2026-05-09T17:06:19.000Z</time></trkpt>
        <trkpt lat="29.523765" lon="103.334917"><ele>3036.4893</ele><time>2026-05-09T17:06:24.000Z</time></trkpt>
        <trkpt lat="29.523811" lon="103.334922"><ele>3036.5784</ele><time>2026-05-09T17:06:29.000Z</time></trkpt>
        <trkpt lat="29.523859" lon="103.334913"><ele>3036.0444</ele><time>2026-05-09T17:06:33.000Z</time></trkpt>
        <trkpt lat="29.523905" lon="103.334911"><ele>3034.2983</ele><time>2026-05-09T17:06:39.000Z</time></trkpt>
        <trkpt lat="29.523953" lon="103.334909"><ele>3032.2446</ele><time>2026-05-09T17:06:45.000Z</time></trkpt>
        <trkpt lat="29.524005" lon="103.334926"><ele>3033.5176</ele><time>2026-05-09T17:06:50.000Z</time></trkpt>
        <trkpt lat="29.524059" lon="103.334936"><ele>3035.5679</ele><time>2026-05-09T17:06:55.000Z</time></trkpt>
        <trkpt lat="29.52409" lon="103.334884"><ele>3035.1033</ele><time>2026-05-09T17:07:06.000Z</time></trkpt>
        <trkpt lat="29.524114" lon="103.334833"><ele>3032.514</ele><time>2026-05-09T17:07:11.000Z</time></trkpt>
        <trkpt lat="29.524169" lon="103.334838"><ele>3030.9424</ele><time>2026-05-09T17:07:38.000Z</time></trkpt>
        <trkpt lat="29.524218" lon="103.334866"><ele>3031.5642</ele><time>2026-05-09T17:07:43.000Z</time></trkpt>
        <trkpt lat="29.524263" lon="103.334902"><ele>3031.3464</ele><time>2026-05-09T17:07:47.000Z</time></trkpt>
        <trkpt lat="29.524318" lon="103.334915"><ele>3031.0757</ele><time>2026-05-09T17:07:52.000Z</time></trkpt>
        <trkpt lat="29.524363" lon="103.334908"><ele>3032.8408</ele><time>2026-05-09T17:07:56.000Z</time></trkpt>
        <trkpt lat="29.524414" lon="103.334899"><ele>3033.8508</ele><time>2026-05-09T17:08:00.000Z</time></trkpt>
        <trkpt lat="29.524462" lon="103.334884"><ele>3032.4504</ele><time>2026-05-09T17:08:04.000Z</time></trkpt>
        <trkpt lat="29.524507" lon="103.334852"><ele>3032.0957</ele><time>2026-05-09T17:08:09.000Z</time></trkpt>
        <trkpt lat="29.524557" lon="103.334817"><ele>3030.931</ele><time>2026-05-09T17:08:14.000Z</time></trkpt>
        <trkpt lat="29.524598" lon="103.334788"><ele>3031.747</ele><time>2026-05-09T17:08:18.000Z</time></trkpt>
        <trkpt lat="29.524649" lon="103.33477"><ele>3030.9937</ele><time>2026-05-09T17:08:22.000Z</time></trkpt>
        <trkpt lat="29.524701" lon="103.334757"><ele>3028.5383</ele><time>2026-05-09T17:08:28.000Z</time></trkpt>
        <trkpt lat="29.524758" lon="103.334757"><ele>3027.6323</ele><time>2026-05-09T17:08:34.000Z</time></trkpt>
        <trkpt lat="29.524812" lon="103.334765"><ele>3025.851</ele><time>2026-05-09T17:08:38.000Z</time></trkpt>
        <trkpt lat="29.52487" lon="103.334768"><ele>3027.6016</ele><time>2026-05-09T17:08:42.000Z</time></trkpt>
        <trkpt lat="29.524917" lon="103.334794"><ele>3027.447</ele><time>2026-05-09T17:08:46.000Z</time></trkpt>
        <trkpt lat="29.524971" lon="103.334814"><ele>3028.7058</ele><time>2026-05-09T17:08:51.000Z</time></trkpt>
        <trkpt lat="29.525026" lon="103.334819"><ele>3026.8264</ele><time>2026-05-09T17:08:55.000Z</time></trkpt>
        <trkpt lat="29.525072" lon="103.334802"><ele>3024.3442</ele><time>2026-05-09T17:09:01.000Z</time></trkpt>
        <trkpt lat="29.525116" lon="103.334789"><ele>3020.0378</ele><time>2026-05-09T17:09:08.000Z</time></trkpt>
        <trkpt lat="29.525156" lon="103.334753"><ele>3019.5085</ele><time>2026-05-09T17:09:14.000Z</time></trkpt>
        <trkpt lat="29.525193" lon="103.334723"><ele>3018.6833</ele><time>2026-05-09T17:09:19.000Z</time></trkpt>
        <trkpt lat="29.525232" lon="103.334696"><ele>3016.872</ele><time>2026-05-09T17:09:25.000Z</time></trkpt>
        <trkpt lat="29.52528" lon="103.334676"><ele>3016.3337</ele><time>2026-05-09T17:09:33.000Z</time></trkpt>
        <trkpt lat="29.525304" lon="103.334628"><ele>3017.22</ele><time>2026-05-09T17:09:38.000Z</time></trkpt>
        <trkpt lat="29.525345" lon="103.334583"><ele>3015.5095</ele><time>2026-05-09T17:09:45.000Z</time></trkpt>
        <trkpt lat="29.525384" lon="103.334547"><ele>3014.7908</ele><time>2026-05-09T17:09:54.000Z</time></trkpt>
        <trkpt lat="29.525408" lon="103.334496"><ele>3015.932</ele><time>2026-05-09T17:09:57.000Z</time></trkpt>
        <trkpt lat="29.525436" lon="103.334448"><ele>3014.8894</ele><time>2026-05-09T17:10:02.000Z</time></trkpt>
        <trkpt lat="29.52547" lon="103.334409"><ele>3012.7812</ele><time>2026-05-09T17:10:07.000Z</time></trkpt>
        <trkpt lat="29.525493" lon="103.334361"><ele>3010.752</ele><time>2026-05-09T17:10:13.000Z</time></trkpt>
        <trkpt lat="29.525533" lon="103.334324"><ele>3009.5166</ele><time>2026-05-09T17:10:17.000Z</time></trkpt>
        <trkpt lat="29.525567" lon="103.334275"><ele>3007.8757</ele><time>2026-05-09T17:10:23.000Z</time></trkpt>
        <trkpt lat="29.525599" lon="103.33423"><ele>3006.623</ele><time>2026-05-09T17:10:28.000Z</time></trkpt>
        <trkpt lat="29.525631" lon="103.334185"><ele>3006.1592</ele><time>2026-05-09T17:10:32.000Z</time></trkpt>
        <trkpt lat="29.525671" lon="103.334141"><ele>3004.99</ele><time>2026-05-09T17:10:38.000Z</time></trkpt>
        <trkpt lat="29.525713" lon="103.334107"><ele>3003.4917</ele><time>2026-05-09T17:10:42.000Z</time></trkpt>
        <trkpt lat="29.525758" lon="103.334085"><ele>3001.9824</ele><time>2026-05-09T17:10:48.000Z</time></trkpt>
        <trkpt lat="29.5258" lon="103.334039"><ele>3002.4812</ele><time>2026-05-09T17:10:52.000Z</time></trkpt>
        <trkpt lat="29.525826" lon="103.333993"><ele>3004.54</ele><time>2026-05-09T17:10:55.000Z</time></trkpt>
        <trkpt lat="29.525858" lon="103.333952"><ele>3006.5637</ele><time>2026-05-09T17:10:58.000Z</time></trkpt>
        <trkpt lat="29.525897" lon="103.333914"><ele>3004.4087</ele><time>2026-05-09T17:11:03.000Z</time></trkpt>
        <trkpt lat="29.52595" lon="103.333916"><ele>3000.1838</ele><time>2026-05-09T17:11:07.000Z</time></trkpt>
        <trkpt lat="29.525997" lon="103.333912"><ele>3000.5586</ele><time>2026-05-09T17:11:10.000Z</time></trkpt>
        <trkpt lat="29.526053" lon="103.333901"><ele>3001.0461</ele><time>2026-05-09T17:11:14.000Z</time></trkpt>
        <trkpt lat="29.52605" lon="103.333844"><ele>2998.2139</ele><time>2026-05-09T17:11:18.000Z</time></trkpt>
        <trkpt lat="29.526098" lon="103.333843"><ele>2997.0066</ele><time>2026-05-09T17:11:22.000Z</time></trkpt>
        <trkpt lat="29.526139" lon="103.333814"><ele>2994.7314</ele><time>2026-05-09T17:11:31.000Z</time></trkpt>
        <trkpt lat="29.526186" lon="103.333785"><ele>2993.593</ele><time>2026-05-09T17:11:38.000Z</time></trkpt>
        <trkpt lat="29.526236" lon="103.333756"><ele>2990.7175</ele><time>2026-05-09T17:11:46.000Z</time></trkpt>
        <trkpt lat="29.526275" lon="103.333729"><ele>2992.8481</ele><time>2026-05-09T17:11:51.000Z</time></trkpt>
        <trkpt lat="29.526318" lon="103.333692"><ele>2991.9119</ele><time>2026-05-09T17:11:56.000Z</time></trkpt>
        <trkpt lat="29.526368" lon="103.33366"><ele>2990.6838</ele><time>2026-05-09T17:12:02.000Z</time></trkpt>
        <trkpt lat="29.526422" lon="103.333641"><ele>2992.5793</ele><time>2026-05-09T17:12:07.000Z</time></trkpt>
        <trkpt lat="29.52647" lon="103.333608"><ele>2993.8215</ele><time>2026-05-09T17:12:10.000Z</time></trkpt>
        <trkpt lat="29.526512" lon="103.333577"><ele>2991.792</ele><time>2026-05-09T17:12:14.000Z</time></trkpt>
        <trkpt lat="29.526568" lon="103.333553"><ele>2989.6733</ele><time>2026-05-09T17:12:19.000Z</time></trkpt>
        <trkpt lat="29.526611" lon="103.33352"><ele>2990.68</ele><time>2026-05-09T17:12:22.000Z</time></trkpt>
        <trkpt lat="29.526643" lon="103.333476"><ele>2988.1045</ele><time>2026-05-09T17:12:28.000Z</time></trkpt>
        <trkpt lat="29.526697" lon="103.333492"><ele>2986.5981</ele><time>2026-05-09T17:12:33.000Z</time></trkpt>
        <trkpt lat="29.526747" lon="103.333503"><ele>2983.9429</ele><time>2026-05-09T17:12:37.000Z</time></trkpt>
        <trkpt lat="29.526798" lon="103.33347"><ele>2982.2065</ele><time>2026-05-09T17:12:43.000Z</time></trkpt>
        <trkpt lat="29.526858" lon="103.333466"><ele>2978.3735</ele><time>2026-05-09T17:12:49.000Z</time></trkpt>
        <trkpt lat="29.526911" lon="103.333447"><ele>2977.053</ele><time>2026-05-09T17:12:52.000Z</time></trkpt>
        <trkpt lat="29.526956" lon="103.333457"><ele>2976.4575</ele><time>2026-05-09T17:12:55.000Z</time></trkpt>
        <trkpt lat="29.527006" lon="103.333449"><ele>2975.5105</ele><time>2026-05-09T17:12:59.000Z</time></trkpt>
        <trkpt lat="29.527031" lon="103.333394"><ele>2974.5889</ele><time>2026-05-09T17:13:03.000Z</time></trkpt>
        <trkpt lat="29.527079" lon="103.333368"><ele>2973.3362</ele><time>2026-05-09T17:13:08.000Z</time></trkpt>
        <trkpt lat="29.527096" lon="103.333314"><ele>2972.1936</ele><time>2026-05-09T17:13:12.000Z</time></trkpt>
        <trkpt lat="29.527129" lon="103.333264"><ele>2972.5398</ele><time>2026-05-09T17:13:16.000Z</time></trkpt>
        <trkpt lat="29.527159" lon="103.333216"><ele>2972.6501</ele><time>2026-05-09T17:13:20.000Z</time></trkpt>
        <trkpt lat="29.527154" lon="103.333158"><ele>2971.3147</ele><time>2026-05-09T17:13:24.000Z</time></trkpt>
        <trkpt lat="29.527143" lon="103.333105"><ele>2968.4177</ele><time>2026-05-09T17:13:28.000Z</time></trkpt>
        <trkpt lat="29.527094" lon="103.333083"><ele>2968.5046</ele><time>2026-05-09T17:13:33.000Z</time></trkpt>
        <trkpt lat="29.527061" lon="103.333042"><ele>2968.1047</ele><time>2026-05-09T17:13:39.000Z</time></trkpt>
        <trkpt lat="29.527037" lon="103.332991"><ele>2966.827</ele><time>2026-05-09T17:13:43.000Z</time></trkpt>
        <trkpt lat="29.527032" lon="103.332928"><ele>2967.534</ele><time>2026-05-09T17:13:47.000Z</time></trkpt>
        <trkpt lat="29.527041" lon="103.332871"><ele>2966.583</ele><time>2026-05-09T17:13:50.000Z</time></trkpt>
        <trkpt lat="29.52706" lon="103.332816"><ele>2964.9983</ele><time>2026-05-09T17:13:53.000Z</time></trkpt>
        <trkpt lat="29.527068" lon="103.332759"><ele>2965.2104</ele><time>2026-05-09T17:13:56.000Z</time></trkpt>
        <trkpt lat="29.527088" lon="103.332694"><ele>2963.4766</ele><time>2026-05-09T17:14:00.000Z</time></trkpt>
        <trkpt lat="29.527077" lon="103.332627"><ele>2961.6802</ele><time>2026-05-09T17:14:06.000Z</time></trkpt>
        <trkpt lat="29.527067" lon="103.332568"><ele>2961.2786</ele><time>2026-05-09T17:14:10.000Z</time></trkpt>
        <trkpt lat="29.527039" lon="103.332514"><ele>2963.6003</ele><time>2026-05-09T17:14:14.000Z</time></trkpt>
        <trkpt lat="29.52703" lon="103.332462"><ele>2963.8975</ele><time>2026-05-09T17:14:17.000Z</time></trkpt>
        <trkpt lat="29.527048" lon="103.332411"><ele>2963.7239</ele><time>2026-05-09T17:14:20.000Z</time></trkpt>
        <trkpt lat="29.527052" lon="103.33236"><ele>2961.2573</ele><time>2026-05-09T17:14:24.000Z</time></trkpt>
        <trkpt lat="29.527078" lon="103.332301"><ele>2959</ele><time>2026-05-09T17:14:28.000Z</time></trkpt>
        <trkpt lat="29.527107" lon="103.332257"><ele>2960.3274</ele><time>2026-05-09T17:14:31.000Z</time></trkpt>
        <trkpt lat="29.52713" lon="103.332206"><ele>2961.2512</ele><time>2026-05-09T17:14:35.000Z</time></trkpt>
        <trkpt lat="29.527123" lon="103.332264"><ele>2960.1313</ele><time>2026-05-09T17:14:41.000Z</time></trkpt>
        <trkpt lat="29.527161" lon="103.332232"><ele>2959.1907</ele><time>2026-05-09T17:14:45.000Z</time></trkpt>
        <trkpt lat="29.527205" lon="103.332272"><ele>2955.5793</ele><time>2026-05-09T17:14:49.000Z</time></trkpt>
        <trkpt lat="29.52723" lon="103.332325"><ele>2955.981</ele><time>2026-05-09T17:14:52.000Z</time></trkpt>
        <trkpt lat="29.527262" lon="103.332373"><ele>2955.5176</ele><time>2026-05-09T17:14:55.000Z</time></trkpt>
        <trkpt lat="29.52729" lon="103.33242"><ele>2955.3413</ele><time>2026-05-09T17:14:59.000Z</time></trkpt>
        <trkpt lat="29.527299" lon="103.332476"><ele>2954.0645</ele><time>2026-05-09T17:15:03.000Z</time></trkpt>
        <trkpt lat="29.527343" lon="103.332507"><ele>2955.0034</ele><time>2026-05-09T17:15:07.000Z</time></trkpt>
        <trkpt lat="29.527393" lon="103.332502"><ele>2956.0645</ele><time>2026-05-09T17:15:11.000Z</time></trkpt>
        <trkpt lat="29.527445" lon="103.332489"><ele>2953.4187</ele><time>2026-05-09T17:15:17.000Z</time></trkpt>
        <trkpt lat="29.527487" lon="103.332446"><ele>2948.0203</ele><time>2026-05-09T17:15:22.000Z</time></trkpt>
        <trkpt lat="29.527522" lon="103.332412"><ele>2949.387</ele><time>2026-05-09T17:15:23.000Z</time></trkpt>
        <trkpt lat="29.527547" lon="103.332357"><ele>2950.1052</ele><time>2026-05-09T17:15:26.000Z</time></trkpt>
        <trkpt lat="29.52759" lon="103.332319"><ele>2950.507</ele><time>2026-05-09T17:15:29.000Z</time></trkpt>
        <trkpt lat="29.527618" lon="103.332259"><ele>2950.71</ele><time>2026-05-09T17:15:33.000Z</time></trkpt>
        <trkpt lat="29.527585" lon="103.332212"><ele>2948.9292</ele><time>2026-05-09T17:15:38.000Z</time></trkpt>
        <trkpt lat="29.527539" lon="103.332228"><ele>2947.0784</ele><time>2026-05-09T17:15:53.000Z</time></trkpt>
        <trkpt lat="29.527514" lon="103.332173"><ele>2946.585</ele><time>2026-05-09T17:16:00.000Z</time></trkpt>
        <trkpt lat="29.527541" lon="103.332127"><ele>2947.3628</ele><time>2026-05-09T17:16:05.000Z</time></trkpt>
        <trkpt lat="29.52758" lon="103.332092"><ele>2946.25</ele><time>2026-05-09T17:16:15.000Z</time></trkpt>
        <trkpt lat="29.527622" lon="103.33207"><ele>2944.7651</ele><time>2026-05-09T17:16:21.000Z</time></trkpt>
        <trkpt lat="29.527656" lon="103.332034"><ele>2943.9785</ele><time>2026-05-09T17:16:26.000Z</time></trkpt>
        <trkpt lat="29.527697" lon="103.33201"><ele>2942.1821</ele><time>2026-05-09T17:16:31.000Z</time></trkpt>
        <trkpt lat="29.527704" lon="103.331958"><ele>2942.2178</ele><time>2026-05-09T17:16:35.000Z</time></trkpt>
        <trkpt lat="29.527705" lon="103.331904"><ele>2941.8496</ele><time>2026-05-09T17:16:40.000Z</time></trkpt>
        <trkpt lat="29.527689" lon="103.331845"><ele>2941.3657</ele><time>2026-05-09T17:16:45.000Z</time></trkpt>
        <trkpt lat="29.527685" lon="103.33179"><ele>2941.858</ele><time>2026-05-09T17:16:48.000Z</time></trkpt>
        <trkpt lat="29.527678" lon="103.331728"><ele>2941.9163</ele><time>2026-05-09T17:16:51.000Z</time></trkpt>
        <trkpt lat="29.527724" lon="103.331678"><ele>2938.578</ele><time>2026-05-09T17:16:54.000Z</time></trkpt>
        <trkpt lat="29.527713" lon="103.331611"><ele>2934.8274</ele><time>2026-05-09T17:16:59.000Z</time></trkpt>
        <trkpt lat="29.52774" lon="103.331538"><ele>2934.2556</ele><time>2026-05-09T17:17:03.000Z</time></trkpt>
        <trkpt lat="29.527771" lon="103.331481"><ele>2935.6816</ele><time>2026-05-09T17:17:07.000Z</time></trkpt>
        <trkpt lat="29.527798" lon="103.331436"><ele>2935.513</ele><time>2026-05-09T17:17:11.000Z</time></trkpt>
        <trkpt lat="29.527816" lon="103.331383"><ele>2936.0408</ele><time>2026-05-09T17:17:15.000Z</time></trkpt>
        <trkpt lat="29.527852" lon="103.33134"><ele>2932.4456</ele><time>2026-05-09T17:17:22.000Z</time></trkpt>
        <trkpt lat="29.527899" lon="103.331316"><ele>2930.671</ele><time>2026-05-09T17:17:27.000Z</time></trkpt>
        <trkpt lat="29.527948" lon="103.331273"><ele>2928.1875</ele><time>2026-05-09T17:17:33.000Z</time></trkpt>
        <trkpt lat="29.527996" lon="103.33121"><ele>2928.187</ele><time>2026-05-09T17:17:37.000Z</time></trkpt>
        <trkpt lat="29.52804" lon="103.331163"><ele>2927.5854</ele><time>2026-05-09T17:17:41.000Z</time></trkpt>
        <trkpt lat="29.528057" lon="103.331114"><ele>2928.0706</ele><time>2026-05-09T17:17:44.000Z</time></trkpt>
        <trkpt lat="29.528055" lon="103.33106"><ele>2924.2437</ele><time>2026-05-09T17:17:52.000Z</time></trkpt>
        <trkpt lat="29.528074" lon="103.330995"><ele>2923.467</ele><time>2026-05-09T17:17:57.000Z</time></trkpt>
        <trkpt lat="29.528099" lon="103.330948"><ele>2921.8328</ele><time>2026-05-09T17:18:02.000Z</time></trkpt>
        <trkpt lat="29.528114" lon="103.330892"><ele>2920.1768</ele><time>2026-05-09T17:18:07.000Z</time></trkpt>
        <trkpt lat="29.528115" lon="103.330833"><ele>2918.7031</ele><time>2026-05-09T17:18:12.000Z</time></trkpt>
        <trkpt lat="29.528148" lon="103.330795"><ele>2918.0764</ele><time>2026-05-09T17:18:15.000Z</time></trkpt>
        <trkpt lat="29.528192" lon="103.330775"><ele>2915.2317</ele><time>2026-05-09T17:18:19.000Z</time></trkpt>
        <trkpt lat="29.528226" lon="103.330713"><ele>2915.1223</ele><time>2026-05-09T17:18:24.000Z</time></trkpt>
        <trkpt lat="29.528268" lon="103.330664"><ele>2912.742</ele><time>2026-05-09T17:18:29.000Z</time></trkpt>
        <trkpt lat="29.528305" lon="103.330619"><ele>2911.8347</ele><time>2026-05-09T17:18:33.000Z</time></trkpt>
        <trkpt lat="29.528332" lon="103.33057"><ele>2908.9102</ele><time>2026-05-09T17:18:40.000Z</time></trkpt>
        <trkpt lat="29.528341" lon="103.330518"><ele>2909.6638</ele><time>2026-05-09T17:18:44.000Z</time></trkpt>
        <trkpt lat="29.528331" lon="103.330467"><ele>2907.597</ele><time>2026-05-09T17:18:50.000Z</time></trkpt>
        <trkpt lat="29.528319" lon="103.330408"><ele>2904.346</ele><time>2026-05-09T17:18:56.000Z</time></trkpt>
        <trkpt lat="29.528308" lon="103.330355"><ele>2905.8962</ele><time>2026-05-09T17:18:59.000Z</time></trkpt>
        <trkpt lat="29.528305" lon="103.330297"><ele>2904.7422</ele><time>2026-05-09T17:19:06.000Z</time></trkpt>
        <trkpt lat="29.528313" lon="103.330235"><ele>2905.783</ele><time>2026-05-09T17:19:09.000Z</time></trkpt>
        <trkpt lat="29.52833" lon="103.330175"><ele>2906.7231</ele><time>2026-05-09T17:19:12.000Z</time></trkpt>
        <trkpt lat="29.528349" lon="103.330122"><ele>2905.5413</ele><time>2026-05-09T17:19:15.000Z</time></trkpt>
        <trkpt lat="29.528411" lon="103.330125"><ele>2903.6594</ele><time>2026-05-09T17:19:18.000Z</time></trkpt>
        <trkpt lat="29.528457" lon="103.330105"><ele>2902.3904</ele><time>2026-05-09T17:19:21.000Z</time></trkpt>
        <trkpt lat="29.528491" lon="103.330062"><ele>2902.093</ele><time>2026-05-09T17:19:25.000Z</time></trkpt>
        <trkpt lat="29.528533" lon="103.330024"><ele>2901.5625</ele><time>2026-05-09T17:19:29.000Z</time></trkpt>
        <trkpt lat="29.528553" lon="103.329963"><ele>2903.0193</ele><time>2026-05-09T17:19:33.000Z</time></trkpt>
        <trkpt lat="29.528584" lon="103.329924"><ele>2901.45</ele><time>2026-05-09T17:19:38.000Z</time></trkpt>
        <trkpt lat="29.528602" lon="103.329876"><ele>2904.0178</ele><time>2026-05-09T17:19:43.000Z</time></trkpt>
        <trkpt lat="29.528599" lon="103.329817"><ele>2904.99</ele><time>2026-05-09T17:19:48.000Z</time></trkpt>
        <trkpt lat="29.528608" lon="103.329758"><ele>2904.2366</ele><time>2026-05-09T17:19:53.000Z</time></trkpt>
        <trkpt lat="29.528621" lon="103.329691"><ele>2902.2036</ele><time>2026-05-09T17:20:00.000Z</time></trkpt>
        <trkpt lat="29.528627" lon="103.329625"><ele>2900.2869</ele><time>2026-05-09T17:20:05.000Z</time></trkpt>
        <trkpt lat="29.528649" lon="103.329574"><ele>2899.6978</ele><time>2026-05-09T17:20:09.000Z</time></trkpt>
        <trkpt lat="29.528654" lon="103.329512"><ele>2899.5725</ele><time>2026-05-09T17:20:12.000Z</time></trkpt>
        <trkpt lat="29.528663" lon="103.329452"><ele>2898.4749</ele><time>2026-05-09T17:20:18.000Z</time></trkpt>
        <trkpt lat="29.528675" lon="103.329396"><ele>2897.7446</ele><time>2026-05-09T17:20:23.000Z</time></trkpt>
        <trkpt lat="29.528689" lon="103.329337"><ele>2895.512</ele><time>2026-05-09T17:20:27.000Z</time></trkpt>
        <trkpt lat="29.528713" lon="103.32928"><ele>2896.2788</ele><time>2026-05-09T17:20:31.000Z</time></trkpt>
        <trkpt lat="29.528748" lon="103.329245"><ele>2892.7937</ele><time>2026-05-09T17:20:35.000Z</time></trkpt>
        <trkpt lat="29.528786" lon="103.329214"><ele>2891.349</ele><time>2026-05-09T17:20:40.000Z</time></trkpt>
        <trkpt lat="29.528815" lon="103.329166"><ele>2890.5427</ele><time>2026-05-09T17:20:46.000Z</time></trkpt>
        <trkpt lat="29.528825" lon="103.329102"><ele>2889.1392</ele><time>2026-05-09T17:20:51.000Z</time></trkpt>
        <trkpt lat="29.528847" lon="103.329056"><ele>2889.0007</ele><time>2026-05-09T17:20:54.000Z</time></trkpt>
        <trkpt lat="29.528868" lon="103.329002"><ele>2886.787</ele><time>2026-05-09T17:20:58.000Z</time></trkpt>
        <trkpt lat="29.528901" lon="103.328955"><ele>2886.0405</ele><time>2026-05-09T17:21:02.000Z</time></trkpt>
        <trkpt lat="29.528932" lon="103.328904"><ele>2884.7048</ele><time>2026-05-09T17:21:07.000Z</time></trkpt>
        <trkpt lat="29.528957" lon="103.328854"><ele>2882.761</ele><time>2026-05-09T17:21:11.000Z</time></trkpt>
        <trkpt lat="29.528977" lon="103.328808"><ele>2882.6748</ele><time>2026-05-09T17:21:14.000Z</time></trkpt>
        <trkpt lat="29.528986" lon="103.328755"><ele>2882.0198</ele><time>2026-05-09T17:21:17.000Z</time></trkpt>
        <trkpt lat="29.529003" lon="103.328706"><ele>2881.4465</ele><time>2026-05-09T17:21:20.000Z</time></trkpt>
        <trkpt lat="29.529025" lon="103.328652"><ele>2880.6707</ele><time>2026-05-09T17:21:23.000Z</time></trkpt>
        <trkpt lat="29.529048" lon="103.328593"><ele>2879.5828</ele><time>2026-05-09T17:21:27.000Z</time></trkpt>
        <trkpt lat="29.529074" lon="103.328541"><ele>2877.762</ele><time>2026-05-09T17:21:32.000Z</time></trkpt>
        <trkpt lat="29.529091" lon="103.328478"><ele>2877.2205</ele><time>2026-05-09T17:21:38.000Z</time></trkpt>
        <trkpt lat="29.529119" lon="103.328434"><ele>2875.7292</ele><time>2026-05-09T17:21:44.000Z</time></trkpt>
        <trkpt lat="29.529134" lon="103.328382"><ele>2872.5564</ele><time>2026-05-09T17:21:51.000Z</time></trkpt>
        <trkpt lat="29.529142" lon="103.328326"><ele>2871.0642</ele><time>2026-05-09T17:21:55.000Z</time></trkpt>
        <trkpt lat="29.529161" lon="103.328267"><ele>2869.6487</ele><time>2026-05-09T17:21:59.000Z</time></trkpt>
        <trkpt lat="29.529174" lon="103.328211"><ele>2866.89</ele><time>2026-05-09T17:22:06.000Z</time></trkpt>
        <trkpt lat="29.529197" lon="103.328163"><ele>2865.0093</ele><time>2026-05-09T17:22:12.000Z</time></trkpt>
        <trkpt lat="29.529208" lon="103.328095"><ele>2864.0762</ele><time>2026-05-09T17:22:17.000Z</time></trkpt>
        <trkpt lat="29.529227" lon="103.328031"><ele>2861.9773</ele><time>2026-05-09T17:22:22.000Z</time></trkpt>
        <trkpt lat="29.529244" lon="103.327977"><ele>2861.7952</ele><time>2026-05-09T17:22:25.000Z</time></trkpt>
        <trkpt lat="29.529251" lon="103.327923"><ele>2860.3228</ele><time>2026-05-09T17:22:28.000Z</time></trkpt>
        <trkpt lat="29.52927" lon="103.327862"><ele>2859.9963</ele><time>2026-05-09T17:22:32.000Z</time></trkpt>
        <trkpt lat="29.529288" lon="103.327814"><ele>2857.4072</ele><time>2026-05-09T17:22:37.000Z</time></trkpt>
        <trkpt lat="29.529331" lon="103.327784"><ele>2856.7708</ele><time>2026-05-09T17:22:41.000Z</time></trkpt>
        <trkpt lat="29.529397" lon="103.32778"><ele>2856.683</ele><time>2026-05-09T17:22:45.000Z</time></trkpt>
        <trkpt lat="29.52944" lon="103.327802"><ele>2857.1904</ele><time>2026-05-09T17:22:47.000Z</time></trkpt>
        <trkpt lat="29.529486" lon="103.327797"><ele>2857.2473</ele><time>2026-05-09T17:22:51.000Z</time></trkpt>
        <trkpt lat="29.529547" lon="103.327807"><ele>2858.18</ele><time>2026-05-09T17:22:55.000Z</time></trkpt>
        <trkpt lat="29.529598" lon="103.3278"><ele>2857.7625</ele><time>2026-05-09T17:22:59.000Z</time></trkpt>
        <trkpt lat="29.52965" lon="103.327791"><ele>2858.244</ele><time>2026-05-09T17:23:03.000Z</time></trkpt>
        <trkpt lat="29.529695" lon="103.327784"><ele>2859.2717</ele><time>2026-05-09T17:23:06.000Z</time></trkpt>
        <trkpt lat="29.529734" lon="103.327747"><ele>2858.738</ele><time>2026-05-09T17:23:10.000Z</time></trkpt>
        <trkpt lat="29.529761" lon="103.327699"><ele>2857.7131</ele><time>2026-05-09T17:23:14.000Z</time></trkpt>
        <trkpt lat="29.529773" lon="103.32765"><ele>2856.9587</ele><time>2026-05-09T17:23:17.000Z</time></trkpt>
        <trkpt lat="29.529805" lon="103.327593"><ele>2856.7783</ele><time>2026-05-09T17:23:21.000Z</time></trkpt>
        <trkpt lat="29.529818" lon="103.327531"><ele>2856.8813</ele><time>2026-05-09T17:23:25.000Z</time></trkpt>
        <trkpt lat="29.529827" lon="103.32748"><ele>2858.7102</ele><time>2026-05-09T17:23:28.000Z</time></trkpt>
        <trkpt lat="29.52985" lon="103.327423"><ele>2857.275</ele><time>2026-05-09T17:23:32.000Z</time></trkpt>
        <trkpt lat="29.529894" lon="103.327375"><ele>2856.2085</ele><time>2026-05-09T17:23:36.000Z</time></trkpt>
        <trkpt lat="29.529936" lon="103.327357"><ele>2855.2273</ele><time>2026-05-09T17:23:39.000Z</time></trkpt>
        <trkpt lat="29.529972" lon="103.327318"><ele>2855.5967</ele><time>2026-05-09T17:23:42.000Z</time></trkpt>
        <trkpt lat="29.529995" lon="103.32726"><ele>2853.9944</ele><time>2026-05-09T17:23:46.000Z</time></trkpt>
        <trkpt lat="29.530038" lon="103.32722"><ele>2851.792</ele><time>2026-05-09T17:23:50.000Z</time></trkpt>
        <trkpt lat="29.530081" lon="103.327186"><ele>2851.2104</ele><time>2026-05-09T17:23:54.000Z</time></trkpt>
        <trkpt lat="29.530116" lon="103.327144"><ele>2848.9285</ele><time>2026-05-09T17:23:59.000Z</time></trkpt>
        <trkpt lat="29.530152" lon="103.327106"><ele>2849.3962</ele><time>2026-05-09T17:24:03.000Z</time></trkpt>
        <trkpt lat="29.530189" lon="103.327061"><ele>2848.5864</ele><time>2026-05-09T17:24:07.000Z</time></trkpt>
        <trkpt lat="29.530237" lon="103.327042"><ele>2847.4626</ele><time>2026-05-09T17:24:12.000Z</time></trkpt>
        <trkpt lat="29.530277" lon="103.327012"><ele>2846.585</ele><time>2026-05-09T17:24:16.000Z</time></trkpt>
        <trkpt lat="29.530325" lon="103.326986"><ele>2843.7703</ele><time>2026-05-09T17:24:21.000Z</time></trkpt>
        <trkpt lat="29.530366" lon="103.32696"><ele>2843.232</ele><time>2026-05-09T17:24:25.000Z</time></trkpt>
        <trkpt lat="29.530417" lon="103.326943"><ele>2841.4475</ele><time>2026-05-09T17:24:30.000Z</time></trkpt>
        <trkpt lat="29.530463" lon="103.326931"><ele>2839.3823</ele><time>2026-05-09T17:24:34.000Z</time></trkpt>
        <trkpt lat="29.530507" lon="103.326898"><ele>2839.2876</ele><time>2026-05-09T17:24:38.000Z</time></trkpt>
        <trkpt lat="29.530559" lon="103.326891"><ele>2834.8987</ele><time>2026-05-09T17:24:44.000Z</time></trkpt>
        <trkpt lat="29.530605" lon="103.326888"><ele>2835.586</ele><time>2026-05-09T17:24:48.000Z</time></trkpt>
        <trkpt lat="29.530655" lon="103.326863"><ele>2835.8882</ele><time>2026-05-09T17:24:52.000Z</time></trkpt>
        <trkpt lat="29.530702" lon="103.326851"><ele>2836.5825</ele><time>2026-05-09T17:24:56.000Z</time></trkpt>
        <trkpt lat="29.530751" lon="103.326841"><ele>2836.5698</ele><time>2026-05-09T17:25:00.000Z</time></trkpt>
        <trkpt lat="29.530788" lon="103.326798"><ele>2834.3079</ele><time>2026-05-09T17:25:05.000Z</time></trkpt>
        <trkpt lat="29.530834" lon="103.32679"><ele>2831.7612</ele><time>2026-05-09T17:25:09.000Z</time></trkpt>
        <trkpt lat="29.53085" lon="103.326845"><ele>2826.1843</ele><time>2026-05-09T17:25:13.000Z</time></trkpt>
        <trkpt lat="29.530852" lon="103.326904"><ele>2825.6934</ele><time>2026-05-09T17:25:16.000Z</time></trkpt>
        <trkpt lat="29.530859" lon="103.326957"><ele>2822.3987</ele><time>2026-05-09T17:25:20.000Z</time></trkpt>
        <trkpt lat="29.530909" lon="103.326971"><ele>2821.7869</ele><time>2026-05-09T17:25:23.000Z</time></trkpt>
        <trkpt lat="29.530966" lon="103.326983"><ele>2821.1863</ele><time>2026-05-09T17:25:27.000Z</time></trkpt>
        <trkpt lat="29.531017" lon="103.327005"><ele>2821.0347</ele><time>2026-05-09T17:25:31.000Z</time></trkpt>
        <trkpt lat="29.531063" lon="103.327027"><ele>2820.53</ele><time>2026-05-09T17:25:35.000Z</time></trkpt>
        <trkpt lat="29.531113" lon="103.327053"><ele>2820.4495</ele><time>2026-05-09T17:25:40.000Z</time></trkpt>
        <trkpt lat="29.531152" lon="103.32709"><ele>2817.256</ele><time>2026-05-09T17:25:47.000Z</time></trkpt>
        <trkpt lat="29.531199" lon="103.327127"><ele>2814.6702</ele><time>2026-05-09T17:25:52.000Z</time></trkpt>
        <trkpt lat="29.531218" lon="103.327193"><ele>2812.707</ele><time>2026-05-09T17:25:56.000Z</time></trkpt>
        <trkpt lat="29.531235" lon="103.327248"><ele>2810.4683</ele><time>2026-05-09T17:26:00.000Z</time></trkpt>
        <trkpt lat="29.53124" lon="103.327311"><ele>2809.7888</ele><time>2026-05-09T17:26:04.000Z</time></trkpt>
        <trkpt lat="29.531254" lon="103.327363"><ele>2810.4827</ele><time>2026-05-09T17:26:08.000Z</time></trkpt>
        <trkpt lat="29.531247" lon="103.327428"><ele>2809.4365</ele><time>2026-05-09T17:26:12.000Z</time></trkpt>
        <trkpt lat="29.531233" lon="103.327497"><ele>2807.371</ele><time>2026-05-09T17:26:18.000Z</time></trkpt>
        <trkpt lat="29.531233" lon="103.327559"><ele>2804.945</ele><time>2026-05-09T17:26:24.000Z</time></trkpt>
        <trkpt lat="29.531214" lon="103.327623"><ele>2802.8877</ele><time>2026-05-09T17:26:31.000Z</time></trkpt>
        <trkpt lat="29.531235" lon="103.327676"><ele>2802.434</ele><time>2026-05-09T17:26:36.000Z</time></trkpt>
        <trkpt lat="29.531237" lon="103.327732"><ele>2803.0186</ele><time>2026-05-09T17:26:42.000Z</time></trkpt>
        <trkpt lat="29.531233" lon="103.327792"><ele>2799.0747</ele><time>2026-05-09T17:26:49.000Z</time></trkpt>
        <trkpt lat="29.531243" lon="103.327856"><ele>2795.8896</ele><time>2026-05-09T17:26:57.000Z</time></trkpt>
        <trkpt lat="29.531254" lon="103.327926"><ele>2793.8928</ele><time>2026-05-09T17:27:03.000Z</time></trkpt>
        <trkpt lat="29.531256" lon="103.32798"><ele>2792.5557</ele><time>2026-05-09T17:27:09.000Z</time></trkpt>
        <trkpt lat="29.531248" lon="103.328036"><ele>2789.8093</ele><time>2026-05-09T17:27:14.000Z</time></trkpt>
        <trkpt lat="29.531253" lon="103.328093"><ele>2789.0723</ele><time>2026-05-09T17:27:20.000Z</time></trkpt>
        <trkpt lat="29.531257" lon="103.328146"><ele>2789.806</ele><time>2026-05-09T17:27:25.000Z</time></trkpt>
        <trkpt lat="29.531261" lon="103.328207"><ele>2788.5361</ele><time>2026-05-09T17:27:31.000Z</time></trkpt>
        <trkpt lat="29.531252" lon="103.328259"><ele>2789.8704</ele><time>2026-05-09T17:27:35.000Z</time></trkpt>
        <trkpt lat="29.531227" lon="103.328304"><ele>2789.2686</ele><time>2026-05-09T17:27:49.000Z</time></trkpt>
        <trkpt lat="29.531215" lon="103.328249"><ele>2790.0193</ele><time>2026-05-09T17:28:51.000Z</time></trkpt>
        <trkpt lat="29.531237" lon="103.3283"><ele>2789.3264</ele><time>2026-05-09T17:29:32.000Z</time></trkpt>
        <trkpt lat="29.531219" lon="103.328355"><ele>2789.1475</ele><time>2026-05-09T17:29:36.000Z</time></trkpt>
        <trkpt lat="29.531207" lon="103.328405"><ele>2788.613</ele><time>2026-05-09T17:29:40.000Z</time></trkpt>
        <trkpt lat="29.531205" lon="103.328462"><ele>2789.215</ele><time>2026-05-09T17:29:42.000Z</time></trkpt>
        <trkpt lat="29.531184" lon="103.328511"><ele>2788.681</ele><time>2026-05-09T17:29:48.000Z</time></trkpt>
        <trkpt lat="29.531167" lon="103.328562"><ele>2787.506</ele><time>2026-05-09T17:29:52.000Z</time></trkpt>
        <trkpt lat="29.53114" lon="103.328612"><ele>2787.238</ele><time>2026-05-09T17:29:56.000Z</time></trkpt>
        <trkpt lat="29.531124" lon="103.328665"><ele>2785.243</ele><time>2026-05-09T17:30:03.000Z</time></trkpt>
        <trkpt lat="29.531121" lon="103.328727"><ele>2783.39</ele><time>2026-05-09T17:30:08.000Z</time></trkpt>
        <trkpt lat="29.53111" lon="103.328792"><ele>2781.5042</ele><time>2026-05-09T17:30:14.000Z</time></trkpt>
        <trkpt lat="29.531096" lon="103.328847"><ele>2781.0466</ele><time>2026-05-09T17:30:19.000Z</time></trkpt>
        <trkpt lat="29.531089" lon="103.328909"><ele>2781.6294</ele><time>2026-05-09T17:30:23.000Z</time></trkpt>
        <trkpt lat="29.531095" lon="103.328972"><ele>2780.0767</ele><time>2026-05-09T17:30:29.000Z</time></trkpt>
        <trkpt lat="29.531099" lon="103.32903"><ele>2779.1538</ele><time>2026-05-09T17:30:33.000Z</time></trkpt>
        <trkpt lat="29.5311" lon="103.329093"><ele>2777.9448</ele><time>2026-05-09T17:30:37.000Z</time></trkpt>
        <trkpt lat="29.5311" lon="103.329153"><ele>2774.5188</ele><time>2026-05-09T17:30:41.000Z</time></trkpt>
        <trkpt lat="29.531108" lon="103.329208"><ele>2774.108</ele><time>2026-05-09T17:30:45.000Z</time></trkpt>
        <trkpt lat="29.531107" lon="103.329269"><ele>2771.836</ele><time>2026-05-09T17:30:50.000Z</time></trkpt>
        <trkpt lat="29.531124" lon="103.329328"><ele>2770.3823</ele><time>2026-05-09T17:30:54.000Z</time></trkpt>
        <trkpt lat="29.531129" lon="103.329379"><ele>2769.4192</ele><time>2026-05-09T17:30:59.000Z</time></trkpt>
        <trkpt lat="29.531127" lon="103.329432"><ele>2767.9985</ele><time>2026-05-09T17:31:03.000Z</time></trkpt>
        <trkpt lat="29.531151" lon="103.329495"><ele>2767.52</ele><time>2026-05-09T17:31:08.000Z</time></trkpt>
        <trkpt lat="29.53118" lon="103.329542"><ele>2768.3237</ele><time>2026-05-09T17:31:11.000Z</time></trkpt>
        <trkpt lat="29.531209" lon="103.329589"><ele>2765.664</ele><time>2026-05-09T17:31:16.000Z</time></trkpt>
        <trkpt lat="29.531233" lon="103.329638"><ele>2763.0757</ele><time>2026-05-09T17:31:20.000Z</time></trkpt>
        <trkpt lat="29.531248" lon="103.329689"><ele>2761.5461</ele><time>2026-05-09T17:31:24.000Z</time></trkpt>
        <trkpt lat="29.531281" lon="103.329737"><ele>2757.3872</ele><time>2026-05-09T17:31:29.000Z</time></trkpt>
        <trkpt lat="29.531314" lon="103.32978"><ele>2756.8513</ele><time>2026-05-09T17:31:32.000Z</time></trkpt>
        <trkpt lat="29.531352" lon="103.329832"><ele>2755.5764</ele><time>2026-05-09T17:31:39.000Z</time></trkpt>
        <trkpt lat="29.531389" lon="103.329869"><ele>2750.1582</ele><time>2026-05-09T17:31:48.000Z</time></trkpt>
        <trkpt lat="29.531428" lon="103.329899"><ele>2742.9517</ele><time>2026-05-09T17:32:00.000Z</time></trkpt>
        <trkpt lat="29.53147" lon="103.329941"><ele>2740.6155</ele><time>2026-05-09T17:32:06.000Z</time></trkpt>
        <trkpt lat="29.531511" lon="103.329972"><ele>2738.9612</ele><time>2026-05-09T17:32:13.000Z</time></trkpt>
        <trkpt lat="29.531553" lon="103.329996"><ele>2734.1777</ele><time>2026-05-09T17:32:20.000Z</time></trkpt>
        <trkpt lat="29.531596" lon="103.330019"><ele>2732.5242</ele><time>2026-05-09T17:32:27.000Z</time></trkpt>
        <trkpt lat="29.531639" lon="103.330036"><ele>2731.382</ele><time>2026-05-09T17:32:31.000Z</time></trkpt>
        <trkpt lat="29.531682" lon="103.33007"><ele>2729.523</ele><time>2026-05-09T17:32:34.000Z</time></trkpt>
        <trkpt lat="29.531731" lon="103.33007"><ele>2727.741</ele><time>2026-05-09T17:32:38.000Z</time></trkpt>
        <trkpt lat="29.531773" lon="103.330096"><ele>2724.1992</ele><time>2026-05-09T17:32:43.000Z</time></trkpt>
        <trkpt lat="29.531795" lon="103.330146"><ele>2722.6082</ele><time>2026-05-09T17:32:50.000Z</time></trkpt>
        <trkpt lat="29.531831" lon="103.330181"><ele>2718.646</ele><time>2026-05-09T17:32:58.000Z</time></trkpt>
        <trkpt lat="29.531864" lon="103.330217"><ele>2715.8223</ele><time>2026-05-09T17:33:04.000Z</time></trkpt>
        <trkpt lat="29.531907" lon="103.33024"><ele>2713.4312</ele><time>2026-05-09T17:33:08.000Z</time></trkpt>
        <trkpt lat="29.531951" lon="103.330255"><ele>2713.2705</ele><time>2026-05-09T17:33:11.000Z</time></trkpt>
        <trkpt lat="29.532001" lon="103.330264"><ele>2713.6467</ele><time>2026-05-09T17:33:14.000Z</time></trkpt>
        <trkpt lat="29.532046" lon="103.330251"><ele>2711.787</ele><time>2026-05-09T17:33:23.000Z</time></trkpt>
        <trkpt lat="29.532095" lon="103.330235"><ele>2708.699</ele><time>2026-05-09T17:33:27.000Z</time></trkpt>
        <trkpt lat="29.532145" lon="103.330257"><ele>2708.6228</ele><time>2026-05-09T17:33:33.000Z</time></trkpt>
        <trkpt lat="29.532194" lon="103.330262"><ele>2706.622</ele><time>2026-05-09T17:33:38.000Z</time></trkpt>
        <trkpt lat="29.532239" lon="103.330267"><ele>2706.1245</ele><time>2026-05-09T17:33:43.000Z</time></trkpt>
        <trkpt lat="29.532262" lon="103.330314"><ele>2703.4473</ele><time>2026-05-09T17:33:49.000Z</time></trkpt>
        <trkpt lat="29.532217" lon="103.330354"><ele>2703.0596</ele><time>2026-05-09T17:33:52.000Z</time></trkpt>
        <trkpt lat="29.532158" lon="103.330351"><ele>2701.1174</ele><time>2026-05-09T17:33:55.000Z</time></trkpt>
        <trkpt lat="29.532102" lon="103.33036"><ele>2698.517</ele><time>2026-05-09T17:33:59.000Z</time></trkpt>
        <trkpt lat="29.532083" lon="103.330415"><ele>2695.1587</ele><time>2026-05-09T17:34:06.000Z</time></trkpt>
        <trkpt lat="29.532109" lon="103.330464"><ele>2694.57</ele><time>2026-05-09T17:34:11.000Z</time></trkpt>
        <trkpt lat="29.532163" lon="103.330466"><ele>2692.1604</ele><time>2026-05-09T17:34:16.000Z</time></trkpt>
        <trkpt lat="29.532191" lon="103.33051"><ele>2692.5894</ele><time>2026-05-09T17:34:21.000Z</time></trkpt>
        <trkpt lat="29.532159" lon="103.330563"><ele>2689.264</ele><time>2026-05-09T17:34:29.000Z</time></trkpt>
        <trkpt lat="29.53215" lon="103.330622"><ele>2684.9722</ele><time>2026-05-09T17:34:37.000Z</time></trkpt>
        <trkpt lat="29.53215" lon="103.330679"><ele>2681.5884</ele><time>2026-05-09T17:34:43.000Z</time></trkpt>
        <trkpt lat="29.532155" lon="103.330744"><ele>2683.3057</ele><time>2026-05-09T17:34:47.000Z</time></trkpt>
        <trkpt lat="29.532166" lon="103.330801"><ele>2684.7693</ele><time>2026-05-09T17:34:51.000Z</time></trkpt>
        <trkpt lat="29.532173" lon="103.330855"><ele>2684.68</ele><time>2026-05-09T17:34:55.000Z</time></trkpt>
        <trkpt lat="29.532179" lon="103.330909"><ele>2680.138</ele><time>2026-05-09T17:35:01.000Z</time></trkpt>
        <trkpt lat="29.53215" lon="103.330958"><ele>2677.3372</ele><time>2026-05-09T17:35:05.000Z</time></trkpt>
        <trkpt lat="29.532143" lon="103.331013"><ele>2675.1345</ele><time>2026-05-09T17:35:09.000Z</time></trkpt>
        <trkpt lat="29.532152" lon="103.331083"><ele>2677.8503</ele><time>2026-05-09T17:35:13.000Z</time></trkpt>
        <trkpt lat="29.532154" lon="103.33114"><ele>2676.4158</ele><time>2026-05-09T17:35:17.000Z</time></trkpt>
        <trkpt lat="29.532157" lon="103.331195"><ele>2674.131</ele><time>2026-05-09T17:35:22.000Z</time></trkpt>
        <trkpt lat="29.532157" lon="103.331258"><ele>2671.2317</ele><time>2026-05-09T17:35:31.000Z</time></trkpt>
        <trkpt lat="29.532173" lon="103.331316"><ele>2670.3784</ele><time>2026-05-09T17:35:35.000Z</time></trkpt>
        <trkpt lat="29.53218" lon="103.331368"><ele>2669.6313</ele><time>2026-05-09T17:35:39.000Z</time></trkpt>
        <trkpt lat="29.532198" lon="103.331436"><ele>2668.9553</ele><time>2026-05-09T17:35:44.000Z</time></trkpt>
        <trkpt lat="29.532221" lon="103.331384"><ele>2666.2896</ele><time>2026-05-09T17:35:49.000Z</time></trkpt>
        <trkpt lat="29.532238" lon="103.331323"><ele>2665.9834</ele><time>2026-05-09T17:35:52.000Z</time></trkpt>
        <trkpt lat="29.532269" lon="103.331277"><ele>2667.7751</ele><time>2026-05-09T17:35:55.000Z</time></trkpt>
        <trkpt lat="29.532303" lon="103.331239"><ele>2665.3926</ele><time>2026-05-09T17:35:58.000Z</time></trkpt>
        <trkpt lat="29.532344" lon="103.331203"><ele>2666.206</ele><time>2026-05-09T17:36:01.000Z</time></trkpt>
        <trkpt lat="29.532373" lon="103.33115"><ele>2667.282</ele><time>2026-05-09T17:36:06.000Z</time></trkpt>
        <trkpt lat="29.532398" lon="103.331212"><ele>2665.5854</ele><time>2026-05-09T17:36:11.000Z</time></trkpt>
        <trkpt lat="29.532391" lon="103.331272"><ele>2663.355</ele><time>2026-05-09T17:36:16.000Z</time></trkpt>
        <trkpt lat="29.532379" lon="103.331329"><ele>2661.0508</ele><time>2026-05-09T17:36:19.000Z</time></trkpt>
        <trkpt lat="29.532399" lon="103.331381"><ele>2656.099</ele><time>2026-05-09T17:36:25.000Z</time></trkpt>
        <trkpt lat="29.532422" lon="103.331433"><ele>2653.531</ele><time>2026-05-09T17:36:31.000Z</time></trkpt>
        <trkpt lat="29.532435" lon="103.331493"><ele>2651.8542</ele><time>2026-05-09T17:36:35.000Z</time></trkpt>
        <trkpt lat="29.532451" lon="103.331543"><ele>2651.0486</ele><time>2026-05-09T17:36:39.000Z</time></trkpt>
        <trkpt lat="29.532467" lon="103.331592"><ele>2649.6794</ele><time>2026-05-09T17:36:46.000Z</time></trkpt>
        <trkpt lat="29.532488" lon="103.331653"><ele>2646.0732</ele><time>2026-05-09T17:36:55.000Z</time></trkpt>
        <trkpt lat="29.532527" lon="103.331696"><ele>2644.99</ele><time>2026-05-09T17:37:00.000Z</time></trkpt>
        <trkpt lat="29.532542" lon="103.331764"><ele>2643.1558</ele><time>2026-05-09T17:37:05.000Z</time></trkpt>
        <trkpt lat="29.532568" lon="103.33182"><ele>2638.571</ele><time>2026-05-09T17:37:10.000Z</time></trkpt>
        <trkpt lat="29.532594" lon="103.331862"><ele>2638.005</ele><time>2026-05-09T17:37:13.000Z</time></trkpt>
        <trkpt lat="29.532607" lon="103.33192"><ele>2639.1711</ele><time>2026-05-09T17:37:17.000Z</time></trkpt>
        <trkpt lat="29.532615" lon="103.331973"><ele>2639.7786</ele><time>2026-05-09T17:37:21.000Z</time></trkpt>
        <trkpt lat="29.532653" lon="103.332005"><ele>2631.024</ele><time>2026-05-09T17:37:31.000Z</time></trkpt>
        <trkpt lat="29.532695" lon="103.332023"><ele>2628.477</ele><time>2026-05-09T17:37:39.000Z</time></trkpt>
        <trkpt lat="29.532733" lon="103.332058"><ele>2627.403</ele><time>2026-05-09T17:37:45.000Z</time></trkpt>
        <trkpt lat="29.532771" lon="103.332096"><ele>2626.374</ele><time>2026-05-09T17:37:49.000Z</time></trkpt>
        <trkpt lat="29.532793" lon="103.332149"><ele>2623.4878</ele><time>2026-05-09T17:37:56.000Z</time></trkpt>
        <trkpt lat="29.532824" lon="103.332205"><ele>2623.0396</ele><time>2026-05-09T17:38:03.000Z</time></trkpt>
        <trkpt lat="29.532856" lon="103.332246"><ele>2619.677</ele><time>2026-05-09T17:38:07.000Z</time></trkpt>
        <trkpt lat="29.532892" lon="103.332294"><ele>2619.4502</ele><time>2026-05-09T17:38:11.000Z</time></trkpt>
        <trkpt lat="29.532927" lon="103.332327"><ele>2620.4958</ele><time>2026-05-09T17:38:14.000Z</time></trkpt>
        <trkpt lat="29.532959" lon="103.332374"><ele>2623.4375</ele><time>2026-05-09T17:38:18.000Z</time></trkpt>
        <trkpt lat="29.533003" lon="103.332418"><ele>2622.8958</ele><time>2026-05-09T17:38:22.000Z</time></trkpt>
        <trkpt lat="29.533042" lon="103.332446"><ele>2623.9797</ele><time>2026-05-09T17:38:26.000Z</time></trkpt>
        <trkpt lat="29.533077" lon="103.332481"><ele>2623.5955</ele><time>2026-05-09T17:38:30.000Z</time></trkpt>
        <trkpt lat="29.533115" lon="103.332513"><ele>2613.2292</ele><time>2026-05-09T17:38:40.000Z</time></trkpt>
        <trkpt lat="29.53315" lon="103.332546"><ele>2609.672</ele><time>2026-05-09T17:38:46.000Z</time></trkpt>
        <trkpt lat="29.533185" lon="103.332592"><ele>2606.2896</ele><time>2026-05-09T17:38:54.000Z</time></trkpt>
        <trkpt lat="29.533226" lon="103.33263"><ele>2602.831</ele><time>2026-05-09T17:39:00.000Z</time></trkpt>
        <trkpt lat="29.533271" lon="103.332665"><ele>2600.8318</ele><time>2026-05-09T17:39:04.000Z</time></trkpt>
        <trkpt lat="29.533319" lon="103.332693"><ele>2599.7615</ele><time>2026-05-09T17:39:08.000Z</time></trkpt>
        <trkpt lat="29.533355" lon="103.332733"><ele>2598.245</ele><time>2026-05-09T17:39:14.000Z</time></trkpt>
        <trkpt lat="29.533385" lon="103.332778"><ele>2594.2712</ele><time>2026-05-09T17:39:22.000Z</time></trkpt>
        <trkpt lat="29.533429" lon="103.332805"><ele>2593.8213</ele><time>2026-05-09T17:39:27.000Z</time></trkpt>
        <trkpt lat="29.533462" lon="103.332844"><ele>2591.5825</ele><time>2026-05-09T17:39:31.000Z</time></trkpt>
        <trkpt lat="29.533518" lon="103.332875"><ele>2588.1277</ele><time>2026-05-09T17:39:37.000Z</time></trkpt>
        <trkpt lat="29.533566" lon="103.332891"><ele>2587.203</ele><time>2026-05-09T17:39:43.000Z</time></trkpt>
        <trkpt lat="29.5336" lon="103.332939"><ele>2586.6545</ele><time>2026-05-09T17:39:48.000Z</time></trkpt>
        <trkpt lat="29.533642" lon="103.332972"><ele>2586.1133</ele><time>2026-05-09T17:39:52.000Z</time></trkpt>
        <trkpt lat="29.533685" lon="103.333017"><ele>2585.3933</ele><time>2026-05-09T17:39:58.000Z</time></trkpt>
        <trkpt lat="29.533723" lon="103.333055"><ele>2583.8381</ele><time>2026-05-09T17:40:05.000Z</time></trkpt>
        <trkpt lat="29.533757" lon="103.333103"><ele>2581.599</ele><time>2026-05-09T17:40:12.000Z</time></trkpt>
        <trkpt lat="29.533804" lon="103.333124"><ele>2575.7979</ele><time>2026-05-09T17:40:19.000Z</time></trkpt>
        <trkpt lat="29.533843" lon="103.333156"><ele>2574.4302</ele><time>2026-05-09T17:40:25.000Z</time></trkpt>
        <trkpt lat="29.533891" lon="103.333187"><ele>2569.227</ele><time>2026-05-09T17:40:33.000Z</time></trkpt>
        <trkpt lat="29.533945" lon="103.333217"><ele>2568.6694</ele><time>2026-05-09T17:40:38.000Z</time></trkpt>
        <trkpt lat="29.533992" lon="103.333235"><ele>2567.2166</ele><time>2026-05-09T17:40:44.000Z</time></trkpt>
        <trkpt lat="29.534036" lon="103.33321"><ele>2565.9854</ele><time>2026-05-09T17:40:48.000Z</time></trkpt>
        <trkpt lat="29.534085" lon="103.333192"><ele>2567.6875</ele><time>2026-05-09T17:40:52.000Z</time></trkpt>
        <trkpt lat="29.534136" lon="103.333188"><ele>2566.353</ele><time>2026-05-09T17:40:58.000Z</time></trkpt>
        <trkpt lat="29.534182" lon="103.333161"><ele>2564.9038</ele><time>2026-05-09T17:41:03.000Z</time></trkpt>
        <trkpt lat="29.534231" lon="103.333133"><ele>2559.827</ele><time>2026-05-09T17:41:08.000Z</time></trkpt>
        <trkpt lat="29.534272" lon="103.333104"><ele>2560.362</ele><time>2026-05-09T17:41:11.000Z</time></trkpt>
        <trkpt lat="29.534318" lon="103.33308"><ele>2556.024</ele><time>2026-05-09T17:41:16.000Z</time></trkpt>
        <trkpt lat="29.53432" lon="103.333144"><ele>2549.2937</ele><time>2026-05-09T17:41:21.000Z</time></trkpt>
        <trkpt lat="29.534379" lon="103.333142"><ele>2548.152</ele><time>2026-05-09T17:41:24.000Z</time></trkpt>
        <trkpt lat="29.534421" lon="103.333109"><ele>2547.9841</ele><time>2026-05-09T17:41:27.000Z</time></trkpt>
        <trkpt lat="29.534468" lon="103.333076"><ele>2545.864</ele><time>2026-05-09T17:41:31.000Z</time></trkpt>
        <trkpt lat="29.534524" lon="103.333053"><ele>2546.0356</ele><time>2026-05-09T17:41:35.000Z</time></trkpt>
        <trkpt lat="29.53457" lon="103.333036"><ele>2545.4028</ele><time>2026-05-09T17:41:38.000Z</time></trkpt>
        <trkpt lat="29.534614" lon="103.333021"><ele>2544.1567</ele><time>2026-05-09T17:41:40.000Z</time></trkpt>
        <trkpt lat="29.534666" lon="103.333023"><ele>2541.49</ele><time>2026-05-09T17:41:44.000Z</time></trkpt>
        <trkpt lat="29.534708" lon="103.332995"><ele>2539.1497</ele><time>2026-05-09T17:41:49.000Z</time></trkpt>
        <trkpt lat="29.534753" lon="103.332971"><ele>2536.4453</ele><time>2026-05-09T17:41:55.000Z</time></trkpt>
        <trkpt lat="29.534796" lon="103.332933"><ele>2535.3884</ele><time>2026-05-09T17:42:03.000Z</time></trkpt>
        <trkpt lat="29.534849" lon="103.332918"><ele>2533.8574</ele><time>2026-05-09T17:42:09.000Z</time></trkpt>
        <trkpt lat="29.534888" lon="103.332881"><ele>2533.2175</ele><time>2026-05-09T17:42:13.000Z</time></trkpt>
        <trkpt lat="29.534931" lon="103.332837"><ele>2533.5955</ele><time>2026-05-09T17:42:17.000Z</time></trkpt>
        <trkpt lat="29.534968" lon="103.332805"><ele>2534.342</ele><time>2026-05-09T17:42:20.000Z</time></trkpt>
        <trkpt lat="29.535021" lon="103.332818"><ele>2535.9165</ele><time>2026-05-09T17:42:25.000Z</time></trkpt>
        <trkpt lat="29.535039" lon="103.332867"><ele>2533.806</ele><time>2026-05-09T17:42:30.000Z</time></trkpt>
        <trkpt lat="29.535081" lon="103.332892"><ele>2533.3672</ele><time>2026-05-09T17:42:41.000Z</time></trkpt>
        <trkpt lat="29.535113" lon="103.33293"><ele>2533.234</ele><time>2026-05-09T17:42:48.000Z</time></trkpt>
        <trkpt lat="29.535139" lon="103.33298"><ele>2529.3245</ele><time>2026-05-09T17:42:55.000Z</time></trkpt>
        <trkpt lat="29.535146" lon="103.333034"><ele>2528.9258</ele><time>2026-05-09T17:42:59.000Z</time></trkpt>
        <trkpt lat="29.535173" lon="103.333087"><ele>2529.3372</ele><time>2026-05-09T17:43:05.000Z</time></trkpt>
        <trkpt lat="29.535194" lon="103.333135"><ele>2525.9683</ele><time>2026-05-09T17:43:12.000Z</time></trkpt>
        <trkpt lat="29.535216" lon="103.333188"><ele>2525.1726</ele><time>2026-05-09T17:43:18.000Z</time></trkpt>
        <trkpt lat="29.535238" lon="103.333239"><ele>2521.665</ele><time>2026-05-09T17:43:25.000Z</time></trkpt>
        <trkpt lat="29.535253" lon="103.333297"><ele>2521.931</ele><time>2026-05-09T17:43:31.000Z</time></trkpt>
        <trkpt lat="29.535269" lon="103.333349"><ele>2522.19</ele><time>2026-05-09T17:43:35.000Z</time></trkpt>
        <trkpt lat="29.535264" lon="103.333407"><ele>2519.2139</ele><time>2026-05-09T17:43:40.000Z</time></trkpt>
        <trkpt lat="29.535287" lon="103.333458"><ele>2517.3296</ele><time>2026-05-09T17:43:47.000Z</time></trkpt>
        <trkpt lat="29.535326" lon="103.333506"><ele>2516.4849</ele><time>2026-05-09T17:43:55.000Z</time></trkpt>
        <trkpt lat="29.535371" lon="103.333542"><ele>2514.4731</ele><time>2026-05-09T17:44:02.000Z</time></trkpt>
        <trkpt lat="29.535379" lon="103.333603"><ele>2512.9216</ele><time>2026-05-09T17:44:08.000Z</time></trkpt>
        <trkpt lat="29.535393" lon="103.333678"><ele>2511.842</ele><time>2026-05-09T17:44:13.000Z</time></trkpt>
        <trkpt lat="29.535423" lon="103.333719"><ele>2512.4663</ele><time>2026-05-09T17:44:16.000Z</time></trkpt>
        <trkpt lat="29.535466" lon="103.333746"><ele>2513.0662</ele><time>2026-05-09T17:44:19.000Z</time></trkpt>
        <trkpt lat="29.535509" lon="103.333762"><ele>2513.6055</ele><time>2026-05-09T17:44:22.000Z</time></trkpt>
        <trkpt lat="29.535553" lon="103.333805"><ele>2513.327</ele><time>2026-05-09T17:44:26.000Z</time></trkpt>
        <trkpt lat="29.535555" lon="103.333859"><ele>2513.5542</ele><time>2026-05-09T17:44:29.000Z</time></trkpt>
        <trkpt lat="29.535592" lon="103.333895"><ele>2515.356</ele><time>2026-05-09T17:44:32.000Z</time></trkpt>
        <trkpt lat="29.535627" lon="103.333935"><ele>2517.5203</ele><time>2026-05-09T17:44:36.000Z</time></trkpt>
        <trkpt lat="29.535645" lon="103.333984"><ele>2517.032</ele><time>2026-05-09T17:44:42.000Z</time></trkpt>
        <trkpt lat="29.535688" lon="103.33402"><ele>2510.198</ele><time>2026-05-09T17:44:54.000Z</time></trkpt>
        <trkpt lat="29.535727" lon="103.334053"><ele>2507.893</ele><time>2026-05-09T17:44:59.000Z</time></trkpt>
        <trkpt lat="29.535777" lon="103.33407"><ele>2507.2078</ele><time>2026-05-09T17:45:04.000Z</time></trkpt>
        <trkpt lat="29.535823" lon="103.334096"><ele>2506.47</ele><time>2026-05-09T17:45:10.000Z</time></trkpt>
        <trkpt lat="29.535864" lon="103.334128"><ele>2506.174</ele><time>2026-05-09T17:45:16.000Z</time></trkpt>
        <trkpt lat="29.535907" lon="103.334143"><ele>2504.4316</ele><time>2026-05-09T17:45:21.000Z</time></trkpt>
        <trkpt lat="29.535953" lon="103.334153"><ele>2502.0574</ele><time>2026-05-09T17:45:27.000Z</time></trkpt>
        <trkpt lat="29.536003" lon="103.334181"><ele>2501.4512</ele><time>2026-05-09T17:45:33.000Z</time></trkpt>
        <trkpt lat="29.536051" lon="103.334209"><ele>2498.503</ele><time>2026-05-09T17:45:37.000Z</time></trkpt>
        <trkpt lat="29.536096" lon="103.334239"><ele>2496.7288</ele><time>2026-05-09T17:45:42.000Z</time></trkpt>
        <trkpt lat="29.536144" lon="103.334269"><ele>2496.2896</ele><time>2026-05-09T17:45:46.000Z</time></trkpt>
        <trkpt lat="29.536185" lon="103.334308"><ele>2494.1973</ele><time>2026-05-09T17:45:52.000Z</time></trkpt>
        <trkpt lat="29.536239" lon="103.334334"><ele>2492.7598</ele><time>2026-05-09T17:45:57.000Z</time></trkpt>
        <trkpt lat="29.536297" lon="103.334346"><ele>2490.739</ele><time>2026-05-09T17:46:05.000Z</time></trkpt>
        <trkpt lat="29.536344" lon="103.334363"><ele>2489.6858</ele><time>2026-05-09T17:46:10.000Z</time></trkpt>
        <trkpt lat="29.536392" lon="103.334366"><ele>2489.0786</ele><time>2026-05-09T17:46:15.000Z</time></trkpt>
        <trkpt lat="29.536429" lon="103.33432"><ele>2488.0247</ele><time>2026-05-09T17:46:21.000Z</time></trkpt>
        <trkpt lat="29.536473" lon="103.334309"><ele>2487.7444</ele><time>2026-05-09T17:46:26.000Z</time></trkpt>
        <trkpt lat="29.536519" lon="103.334315"><ele>2487.6455</ele><time>2026-05-09T17:46:30.000Z</time></trkpt>
        <trkpt lat="29.536561" lon="103.334345"><ele>2487.7515</ele><time>2026-05-09T17:46:33.000Z</time></trkpt>
        <trkpt lat="29.536612" lon="103.334338"><ele>2489.4568</ele><time>2026-05-09T17:46:39.000Z</time></trkpt>
        <trkpt lat="29.536664" lon="103.334339"><ele>2489.4302</ele><time>2026-05-09T17:46:44.000Z</time></trkpt>
        <trkpt lat="29.536715" lon="103.334333"><ele>2488.3977</ele><time>2026-05-09T17:46:49.000Z</time></trkpt>
        <trkpt lat="29.536769" lon="103.334307"><ele>2488.8079</ele><time>2026-05-09T17:46:55.000Z</time></trkpt>
        <trkpt lat="29.536816" lon="103.334301"><ele>2488.0906</ele><time>2026-05-09T17:47:00.000Z</time></trkpt>
        <trkpt lat="29.536861" lon="103.334278"><ele>2485.5886</ele><time>2026-05-09T17:47:07.000Z</time></trkpt>
        <trkpt lat="29.536905" lon="103.334244"><ele>2484.4543</ele><time>2026-05-09T17:47:12.000Z</time></trkpt>
        <trkpt lat="29.53695" lon="103.334223"><ele>2483.4458</ele><time>2026-05-09T17:47:20.000Z</time></trkpt>
        <trkpt lat="29.536991" lon="103.334197"><ele>2483.668</ele><time>2026-05-09T17:47:26.000Z</time></trkpt>
        <trkpt lat="29.53704" lon="103.334186"><ele>2482.0415</ele><time>2026-05-09T17:47:36.000Z</time></trkpt>
        <trkpt lat="29.537092" lon="103.334171"><ele>2479.5613</ele><time>2026-05-09T17:47:44.000Z</time></trkpt>
        <trkpt lat="29.53714" lon="103.334154"><ele>2479.6719</ele><time>2026-05-09T17:47:49.000Z</time></trkpt>
        <trkpt lat="29.537192" lon="103.33412"><ele>2477.704</ele><time>2026-05-09T17:47:54.000Z</time></trkpt>
        <trkpt lat="29.537235" lon="103.334084"><ele>2477.9805</ele><time>2026-05-09T17:47:57.000Z</time></trkpt>
        <trkpt lat="29.537268" lon="103.33404"><ele>2477.0151</ele><time>2026-05-09T17:48:01.000Z</time></trkpt>
        <trkpt lat="29.537271" lon="103.33398"><ele>2477.838</ele><time>2026-05-09T17:48:07.000Z</time></trkpt>
        <trkpt lat="29.537287" lon="103.333924"><ele>2475.0308</ele><time>2026-05-09T17:48:14.000Z</time></trkpt>
        <trkpt lat="29.537305" lon="103.333867"><ele>2474.5303</ele><time>2026-05-09T17:48:17.000Z</time></trkpt>
        <trkpt lat="29.537339" lon="103.33382"><ele>2473.7043</ele><time>2026-05-09T17:48:21.000Z</time></trkpt>
        <trkpt lat="29.537349" lon="103.333768"><ele>2473.153</ele><time>2026-05-09T17:48:25.000Z</time></trkpt>
        <trkpt lat="29.5374" lon="103.33377"><ele>2472.5264</ele><time>2026-05-09T17:48:29.000Z</time></trkpt>
        <trkpt lat="29.537444" lon="103.333791"><ele>2473.5518</ele><time>2026-05-09T17:48:32.000Z</time></trkpt>
        <trkpt lat="29.537496" lon="103.333797"><ele>2471.5947</ele><time>2026-05-09T17:48:35.000Z</time></trkpt>
        <trkpt lat="29.537543" lon="103.333784"><ele>2468.2988</ele><time>2026-05-09T17:48:41.000Z</time></trkpt>
        <trkpt lat="29.537589" lon="103.333761"><ele>2467.5513</ele><time>2026-05-09T17:48:44.000Z</time></trkpt>
        <trkpt lat="29.537639" lon="103.333734"><ele>2464.0374</ele><time>2026-05-09T17:48:52.000Z</time></trkpt>
        <trkpt lat="29.537672" lon="103.333699"><ele>2464.294</ele><time>2026-05-09T17:48:56.000Z</time></trkpt>
        <trkpt lat="29.537715" lon="103.333672"><ele>2462.9016</ele><time>2026-05-09T17:49:02.000Z</time></trkpt>
        <trkpt lat="29.537742" lon="103.33362"><ele>2462.6482</ele><time>2026-05-09T17:49:05.000Z</time></trkpt>
        <trkpt lat="29.537774" lon="103.33358"><ele>2464.6292</ele><time>2026-05-09T17:49:09.000Z</time></trkpt>
        <trkpt lat="29.537817" lon="103.333533"><ele>2463.7021</ele><time>2026-05-09T17:49:17.000Z</time></trkpt>
        <trkpt lat="29.537857" lon="103.333508"><ele>2462.4275</ele><time>2026-05-09T17:49:22.000Z</time></trkpt>
        <trkpt lat="29.537911" lon="103.333501"><ele>2462.6797</ele><time>2026-05-09T17:49:27.000Z</time></trkpt>
        <trkpt lat="29.537952" lon="103.333473"><ele>2462.405</ele><time>2026-05-09T17:49:31.000Z</time></trkpt>
        <trkpt lat="29.538005" lon="103.333449"><ele>2461.1042</ele><time>2026-05-09T17:49:36.000Z</time></trkpt>
        <trkpt lat="29.538051" lon="103.333447"><ele>2460.8953</ele><time>2026-05-09T17:49:39.000Z</time></trkpt>
        <trkpt lat="29.538086" lon="103.333413"><ele>2460.7869</ele><time>2026-05-09T17:49:42.000Z</time></trkpt>
        <trkpt lat="29.538129" lon="103.333386"><ele>2460.419</ele><time>2026-05-09T17:49:45.000Z</time></trkpt>
        <trkpt lat="29.538173" lon="103.333362"><ele>2459.5884</ele><time>2026-05-09T17:49:48.000Z</time></trkpt>
        <trkpt lat="29.538224" lon="103.333327"><ele>2459.5645</ele><time>2026-05-09T17:49:52.000Z</time></trkpt>
        <trkpt lat="29.538277" lon="103.333304"><ele>2457.8308</ele><time>2026-05-09T17:49:56.000Z</time></trkpt>
        <trkpt lat="29.538315" lon="103.333268"><ele>2458.0537</ele><time>2026-05-09T17:49:59.000Z</time></trkpt>
        <trkpt lat="29.538369" lon="103.333251"><ele>2457.7295</ele><time>2026-05-09T17:50:03.000Z</time></trkpt>
        <trkpt lat="29.538427" lon="103.333233"><ele>2458.2886</ele><time>2026-05-09T17:50:06.000Z</time></trkpt>
        <trkpt lat="29.538487" lon="103.333228"><ele>2457.7761</ele><time>2026-05-09T17:50:11.000Z</time></trkpt>
        <trkpt lat="29.538537" lon="103.333216"><ele>2457.16</ele><time>2026-05-09T17:50:14.000Z</time></trkpt>
        <trkpt lat="29.538583" lon="103.3332"><ele>2457.3745</ele><time>2026-05-09T17:50:17.000Z</time></trkpt>
        <trkpt lat="29.538631" lon="103.333181"><ele>2456.9534</ele><time>2026-05-09T17:50:20.000Z</time></trkpt>
        <trkpt lat="29.538684" lon="103.333167"><ele>2456.2961</ele><time>2026-05-09T17:50:24.000Z</time></trkpt>
        <trkpt lat="29.538739" lon="103.333137"><ele>2455.0342</ele><time>2026-05-09T17:50:28.000Z</time></trkpt>
        <trkpt lat="29.538781" lon="103.333118"><ele>2454.737</ele><time>2026-05-09T17:50:31.000Z</time></trkpt>
        <trkpt lat="29.538831" lon="103.3331"><ele>2453.911</ele><time>2026-05-09T17:50:35.000Z</time></trkpt>
        <trkpt lat="29.538884" lon="103.333075"><ele>2453.6624</ele><time>2026-05-09T17:50:39.000Z</time></trkpt>
        <trkpt lat="29.538932" lon="103.333045"><ele>2455.0676</ele><time>2026-05-09T17:50:43.000Z</time></trkpt>
        <trkpt lat="29.538979" lon="103.333023"><ele>2454.5837</ele><time>2026-05-09T17:50:47.000Z</time></trkpt>
        <trkpt lat="29.53901" lon="103.332983"><ele>2452.8547</ele><time>2026-05-09T17:50:53.000Z</time></trkpt>
        <trkpt lat="29.539055" lon="103.332939"><ele>2452.1382</ele><time>2026-05-09T17:50:58.000Z</time></trkpt>
        <trkpt lat="29.539092" lon="103.332896"><ele>2450.274</ele><time>2026-05-09T17:51:04.000Z</time></trkpt>
        <trkpt lat="29.539134" lon="103.332859"><ele>2451.7444</ele><time>2026-05-09T17:51:07.000Z</time></trkpt>
        <trkpt lat="29.539192" lon="103.332851"><ele>2450.6604</ele><time>2026-05-09T17:51:11.000Z</time></trkpt>
        <trkpt lat="29.539243" lon="103.332813"><ele>2450.9082</ele><time>2026-05-09T17:51:15.000Z</time></trkpt>
        <trkpt lat="29.53929" lon="103.33277"><ele>2449.2065</ele><time>2026-05-09T17:51:20.000Z</time></trkpt>
        <trkpt lat="29.539323" lon="103.332728"><ele>2450.9902</ele><time>2026-05-09T17:51:24.000Z</time></trkpt>
        <trkpt lat="29.539357" lon="103.332684"><ele>2451.366</ele><time>2026-05-09T17:51:29.000Z</time></trkpt>
        <trkpt lat="29.539398" lon="103.33264"><ele>2449.5676</ele><time>2026-05-09T17:51:34.000Z</time></trkpt>
        <trkpt lat="29.539428" lon="103.332594"><ele>2450.1477</ele><time>2026-05-09T17:51:38.000Z</time></trkpt>
        <trkpt lat="29.539459" lon="103.332554"><ele>2449.8633</ele><time>2026-05-09T17:51:42.000Z</time></trkpt>
        <trkpt lat="29.539505" lon="103.332528"><ele>2450.9917</ele><time>2026-05-09T17:51:46.000Z</time></trkpt>
        <trkpt lat="29.539533" lon="103.332484"><ele>2452.237</ele><time>2026-05-09T17:51:51.000Z</time></trkpt>
        <trkpt lat="29.53958" lon="103.332486"><ele>2453.8357</ele><time>2026-05-09T17:51:56.000Z</time></trkpt>
        <trkpt lat="29.539621" lon="103.332464"><ele>2452.5652</ele><time>2026-05-09T17:52:00.000Z</time></trkpt>
        <trkpt lat="29.539663" lon="103.332428"><ele>2452.889</ele><time>2026-05-09T17:52:07.000Z</time></trkpt>
        <trkpt lat="29.539667" lon="103.332376"><ele>2445.3513</ele><time>2026-05-09T17:52:18.000Z</time></trkpt>
        <trkpt lat="29.53972" lon="103.332371"><ele>2440.3938</ele><time>2026-05-09T17:52:31.000Z</time></trkpt>
        <trkpt lat="29.539775" lon="103.332367"><ele>2437.5276</ele><time>2026-05-09T17:52:43.000Z</time></trkpt>
        <trkpt lat="29.539808" lon="103.332317"><ele>2435.4375</ele><time>2026-05-09T17:52:47.000Z</time></trkpt>
        <trkpt lat="29.539859" lon="103.332285"><ele>2435.355</ele><time>2026-05-09T17:52:51.000Z</time></trkpt>
        <trkpt lat="29.539909" lon="103.332252"><ele>2435.5107</ele><time>2026-05-09T17:52:55.000Z</time></trkpt>
        <trkpt lat="29.53996" lon="103.332223"><ele>2437.3005</ele><time>2026-05-09T17:52:59.000Z</time></trkpt>
        <trkpt lat="29.540004" lon="103.332207"><ele>2437.0188</ele><time>2026-05-09T17:53:03.000Z</time></trkpt>
        <trkpt lat="29.540046" lon="103.332179"><ele>2436.325</ele><time>2026-05-09T17:53:07.000Z</time></trkpt>
        <trkpt lat="29.540084" lon="103.332141"><ele>2436.3103</ele><time>2026-05-09T17:53:11.000Z</time></trkpt>
        <trkpt lat="29.54013" lon="103.332108"><ele>2438.1667</ele><time>2026-05-09T17:53:15.000Z</time></trkpt>
        <trkpt lat="29.54017" lon="103.332075"><ele>2436.7559</ele><time>2026-05-09T17:53:19.000Z</time></trkpt>
        <trkpt lat="29.540214" lon="103.332043"><ele>2436.936</ele><time>2026-05-09T17:53:24.000Z</time></trkpt>
        <trkpt lat="29.54026" lon="103.332021"><ele>2435.3188</ele><time>2026-05-09T17:53:28.000Z</time></trkpt>
        <trkpt lat="29.54027" lon="103.331956"><ele>2435.3853</ele><time>2026-05-09T17:53:34.000Z</time></trkpt>
        <trkpt lat="29.540236" lon="103.331922"><ele>2437.202</ele><time>2026-05-09T17:53:37.000Z</time></trkpt>
        <trkpt lat="29.540293" lon="103.331912"><ele>2437.7217</ele><time>2026-05-09T17:53:40.000Z</time></trkpt>
        <trkpt lat="29.540342" lon="103.33191"><ele>2437.48</ele><time>2026-05-09T17:53:43.000Z</time></trkpt>
        <trkpt lat="29.540399" lon="103.331906"><ele>2436.8442</ele><time>2026-05-09T17:53:47.000Z</time></trkpt>
        <trkpt lat="29.540449" lon="103.331894"><ele>2436.8015</ele><time>2026-05-09T17:53:51.000Z</time></trkpt>
        <trkpt lat="29.540503" lon="103.331879"><ele>2437.152</ele><time>2026-05-09T17:53:55.000Z</time></trkpt>
        <trkpt lat="29.540559" lon="103.331864"><ele>2436.7795</ele><time>2026-05-09T17:53:59.000Z</time></trkpt>
        <trkpt lat="29.540609" lon="103.331843"><ele>2435.4397</ele><time>2026-05-09T17:54:03.000Z</time></trkpt>
        <trkpt lat="29.54064" lon="103.331796"><ele>2433.8708</ele><time>2026-05-09T17:54:06.000Z</time></trkpt>
        <trkpt lat="29.540672" lon="103.331753"><ele>2435.2727</ele><time>2026-05-09T17:54:09.000Z</time></trkpt>
        <trkpt lat="29.540708" lon="103.331714"><ele>2434.7136</ele><time>2026-05-09T17:54:13.000Z</time></trkpt>
        <trkpt lat="29.540758" lon="103.331721"><ele>2434.8967</ele><time>2026-05-09T17:54:16.000Z</time></trkpt>
        <trkpt lat="29.540808" lon="103.331735"><ele>2432.9768</ele><time>2026-05-09T17:54:24.000Z</time></trkpt>
        <trkpt lat="29.54086" lon="103.331752"><ele>2431.2324</ele><time>2026-05-09T17:54:30.000Z</time></trkpt>
        <trkpt lat="29.540913" lon="103.331788"><ele>2430.6863</ele><time>2026-05-09T17:54:35.000Z</time></trkpt>
        <trkpt lat="29.540962" lon="103.33181"><ele>2431.999</ele><time>2026-05-09T17:54:39.000Z</time></trkpt>
        <trkpt lat="29.541014" lon="103.331806"><ele>2429.219</ele><time>2026-05-09T17:54:45.000Z</time></trkpt>
        <trkpt lat="29.541069" lon="103.331804"><ele>2427.8694</ele><time>2026-05-09T17:54:52.000Z</time></trkpt>
        <trkpt lat="29.54112" lon="103.331804"><ele>2426.533</ele><time>2026-05-09T17:54:57.000Z</time></trkpt>
        <trkpt lat="29.541169" lon="103.331778"><ele>2424.9126</ele><time>2026-05-09T17:55:02.000Z</time></trkpt>
        <trkpt lat="29.541223" lon="103.331789"><ele>2423.447</ele><time>2026-05-09T17:55:06.000Z</time></trkpt>
        <trkpt lat="29.541275" lon="103.331796"><ele>2423.1484</ele><time>2026-05-09T17:55:10.000Z</time></trkpt>
        <trkpt lat="29.541324" lon="103.33178"><ele>2423.3755</ele><time>2026-05-09T17:55:14.000Z</time></trkpt>
        <trkpt lat="29.541373" lon="103.331764"><ele>2422.6707</ele><time>2026-05-09T17:55:18.000Z</time></trkpt>
        <trkpt lat="29.541424" lon="103.33174"><ele>2423.0718</ele><time>2026-05-09T17:55:22.000Z</time></trkpt>
        <trkpt lat="29.541472" lon="103.331706"><ele>2423.2798</ele><time>2026-05-09T17:55:26.000Z</time></trkpt>
        <trkpt lat="29.541525" lon="103.331687"><ele>2423.3118</ele><time>2026-05-09T17:55:30.000Z</time></trkpt>
        <trkpt lat="29.541579" lon="103.331674"><ele>2421.7422</ele><time>2026-05-09T17:55:34.000Z</time></trkpt>
        <trkpt lat="29.541636" lon="103.331661"><ele>2421.3208</ele><time>2026-05-09T17:55:39.000Z</time></trkpt>
        <trkpt lat="29.54169" lon="103.331663"><ele>2420.7327</ele><time>2026-05-09T17:55:43.000Z</time></trkpt>
        <trkpt lat="29.541745" lon="103.331661"><ele>2421.2896</ele><time>2026-05-09T17:55:47.000Z</time></trkpt>
        <trkpt lat="29.541798" lon="103.331653"><ele>2420.5254</ele><time>2026-05-09T17:55:51.000Z</time></trkpt>
        <trkpt lat="29.541849" lon="103.33165"><ele>2421.9583</ele><time>2026-05-09T17:55:55.000Z</time></trkpt>
        <trkpt lat="29.541895" lon="103.331667"><ele>2423.0286</ele><time>2026-05-09T17:55:59.000Z</time></trkpt>
        <trkpt lat="29.541917" lon="103.33172"><ele>2423.6199</ele><time>2026-05-09T17:56:06.000Z</time></trkpt>
        <trkpt lat="29.541913" lon="103.331775"><ele>2422.3289</ele><time>2026-05-09T17:56:10.000Z</time></trkpt>
        <trkpt lat="29.541892" lon="103.331831"><ele>2421.824</ele><time>2026-05-09T17:56:14.000Z</time></trkpt>
        <trkpt lat="29.541935" lon="103.331872"><ele>2421.6958</ele><time>2026-05-09T17:56:18.000Z</time></trkpt>
        <trkpt lat="29.541971" lon="103.331922"><ele>2421.8135</ele><time>2026-05-09T17:56:21.000Z</time></trkpt>
        <trkpt lat="29.541989" lon="103.331981"><ele>2422.264</ele><time>2026-05-09T17:56:25.000Z</time></trkpt>
        <trkpt lat="29.542033" lon="103.331997"><ele>2423.5063</ele><time>2026-05-09T17:56:28.000Z</time></trkpt>
        <trkpt lat="29.542082" lon="103.332028"><ele>2422.8035</ele><time>2026-05-09T17:56:32.000Z</time></trkpt>
        <trkpt lat="29.542128" lon="103.332004"><ele>2423.7703</ele><time>2026-05-09T17:56:36.000Z</time></trkpt>
        <trkpt lat="29.542173" lon="103.332013"><ele>2425.1907</ele><time>2026-05-09T17:56:42.000Z</time></trkpt>
        <trkpt lat="29.542219" lon="103.331996"><ele>2425.9548</ele><time>2026-05-09T17:56:51.000Z</time></trkpt>
        <trkpt lat="29.542254" lon="103.332038"><ele>2426.3193</ele><time>2026-05-09T17:56:55.000Z</time></trkpt>
        <trkpt lat="29.54229" lon="103.332081"><ele>2426.5603</ele><time>2026-05-09T17:56:59.000Z</time></trkpt>
        <trkpt lat="29.542338" lon="103.332114"><ele>2428.1514</ele><time>2026-05-09T17:57:03.000Z</time></trkpt>
        <trkpt lat="29.542385" lon="103.332134"><ele>2428.4082</ele><time>2026-05-09T17:57:07.000Z</time></trkpt>
        <trkpt lat="29.542421" lon="103.332166"><ele>2429.537</ele><time>2026-05-09T17:57:11.000Z</time></trkpt>
        <trkpt lat="29.542458" lon="103.332216"><ele>2428.98</ele><time>2026-05-09T17:57:15.000Z</time></trkpt>
        <trkpt lat="29.542474" lon="103.332264"><ele>2429.7388</ele><time>2026-05-09T17:57:19.000Z</time></trkpt>
        <trkpt lat="29.542501" lon="103.332322"><ele>2431.003</ele><time>2026-05-09T17:57:24.000Z</time></trkpt>
        <trkpt lat="29.542525" lon="103.332373"><ele>2430.5562</ele><time>2026-05-09T17:57:28.000Z</time></trkpt>
        <trkpt lat="29.542539" lon="103.332442"><ele>2430.5122</ele><time>2026-05-09T17:57:35.000Z</time></trkpt>
        <trkpt lat="29.542561" lon="103.332492"><ele>2429.1384</ele><time>2026-05-09T17:57:40.000Z</time></trkpt>
        <trkpt lat="29.542556" lon="103.332558"><ele>2428.2976</ele><time>2026-05-09T17:57:45.000Z</time></trkpt>
        <trkpt lat="29.542576" lon="103.332613"><ele>2428.157</ele><time>2026-05-09T17:57:49.000Z</time></trkpt>
        <trkpt lat="29.542619" lon="103.332656"><ele>2425.75</ele><time>2026-05-09T17:57:54.000Z</time></trkpt>
        <trkpt lat="29.542672" lon="103.332679"><ele>2425.2766</ele><time>2026-05-09T17:57:58.000Z</time></trkpt>
        <trkpt lat="29.542717" lon="103.33267"><ele>2427.08</ele><time>2026-05-09T17:58:01.000Z</time></trkpt>
        <trkpt lat="29.542765" lon="103.332686"><ele>2428.9136</ele><time>2026-05-09T17:58:05.000Z</time></trkpt>
        <trkpt lat="29.542784" lon="103.332742"><ele>2429.8008</ele><time>2026-05-09T17:58:08.000Z</time></trkpt>
        <trkpt lat="29.542805" lon="103.332801"><ele>2429.0967</ele><time>2026-05-09T17:58:12.000Z</time></trkpt>
        <trkpt lat="29.542829" lon="103.332851"><ele>2427.9556</ele><time>2026-05-09T17:58:16.000Z</time></trkpt>
        <trkpt lat="29.542864" lon="103.332894"><ele>2428.865</ele><time>2026-05-09T17:58:20.000Z</time></trkpt>
        <trkpt lat="29.542897" lon="103.33293"><ele>2428.1987</ele><time>2026-05-09T17:58:25.000Z</time></trkpt>
        <trkpt lat="29.542946" lon="103.332934"><ele>2426.8528</ele><time>2026-05-09T17:58:35.000Z</time></trkpt>
        <trkpt lat="29.542986" lon="103.332974"><ele>2426.0583</ele><time>2026-05-09T17:58:44.000Z</time></trkpt>
        <trkpt lat="29.543031" lon="103.332986"><ele>2426.4082</ele><time>2026-05-09T17:58:52.000Z</time></trkpt>
        <trkpt lat="29.543078" lon="103.332977"><ele>2427.7185</ele><time>2026-05-09T17:58:57.000Z</time></trkpt>
        <trkpt lat="29.543126" lon="103.332967"><ele>2428.956</ele><time>2026-05-09T17:59:03.000Z</time></trkpt>
        <trkpt lat="29.54317" lon="103.332984"><ele>2427.3608</ele><time>2026-05-09T17:59:13.000Z</time></trkpt>
        <trkpt lat="29.543209" lon="103.333015"><ele>2427.4482</ele><time>2026-05-09T17:59:37.000Z</time></trkpt>
        <trkpt lat="29.543215" lon="103.333073"><ele>2425.597</ele><time>2026-05-09T17:59:45.000Z</time></trkpt>
        <trkpt lat="29.543237" lon="103.33312"><ele>2425.724</ele><time>2026-05-09T17:59:52.000Z</time></trkpt>
        <trkpt lat="29.543259" lon="103.333171"><ele>2425.624</ele><time>2026-05-09T17:59:57.000Z</time></trkpt>
        <trkpt lat="29.543297" lon="103.333212"><ele>2425.2166</ele><time>2026-05-09T18:00:03.000Z</time></trkpt>
        <trkpt lat="29.543335" lon="103.333242"><ele>2423.8816</ele><time>2026-05-09T18:00:07.000Z</time></trkpt>
        <trkpt lat="29.543361" lon="103.333284"><ele>2425.3103</ele><time>2026-05-09T18:00:12.000Z</time></trkpt>
        <trkpt lat="29.543345" lon="103.333341"><ele>2425.991</ele><time>2026-05-09T18:00:17.000Z</time></trkpt>
        <trkpt lat="29.543384" lon="103.333382"><ele>2424.7979</ele><time>2026-05-09T18:00:22.000Z</time></trkpt>
        <trkpt lat="29.543382" lon="103.333434"><ele>2423.2424</ele><time>2026-05-09T18:00:28.000Z</time></trkpt>
        <trkpt lat="29.543391" lon="103.333492"><ele>2423.32</ele><time>2026-05-09T18:00:32.000Z</time></trkpt>
        <trkpt lat="29.543419" lon="103.333554"><ele>2424.2432</ele><time>2026-05-09T18:00:37.000Z</time></trkpt>
        <trkpt lat="29.543433" lon="103.333606"><ele>2424.0808</ele><time>2026-05-09T18:00:41.000Z</time></trkpt>
        <trkpt lat="29.543458" lon="103.333651"><ele>2425.0034</ele><time>2026-05-09T18:00:47.000Z</time></trkpt>
        <trkpt lat="29.543489" lon="103.333694"><ele>2426.4404</ele><time>2026-05-09T18:00:53.000Z</time></trkpt>
        <trkpt lat="29.543529" lon="103.333721"><ele>2426.984</ele><time>2026-05-09T18:01:02.000Z</time></trkpt>
        <trkpt lat="29.543567" lon="103.333761"><ele>2429.367</ele><time>2026-05-09T18:01:11.000Z</time></trkpt>
        <trkpt lat="29.543602" lon="103.333804"><ele>2428.0295</ele><time>2026-05-09T18:01:17.000Z</time></trkpt>
        <trkpt lat="29.543623" lon="103.333856"><ele>2427.8364</ele><time>2026-05-09T18:01:21.000Z</time></trkpt>
        <trkpt lat="29.543668" lon="103.333898"><ele>2427.4443</ele><time>2026-05-09T18:01:25.000Z</time></trkpt>
        <trkpt lat="29.543715" lon="103.333932"><ele>2427.5308</ele><time>2026-05-09T18:01:30.000Z</time></trkpt>
        <trkpt lat="29.543776" lon="103.333925"><ele>2428.8064</ele><time>2026-05-09T18:01:34.000Z</time></trkpt>
        <trkpt lat="29.543822" lon="103.333911"><ele>2427.8435</ele><time>2026-05-09T18:01:39.000Z</time></trkpt>
        <trkpt lat="29.543879" lon="103.333903"><ele>2429.107</ele><time>2026-05-09T18:01:45.000Z</time></trkpt>
        <trkpt lat="29.543919" lon="103.333934"><ele>2430.7834</ele><time>2026-05-09T18:01:50.000Z</time></trkpt>
        <trkpt lat="29.543944" lon="103.333997"><ele>2430.61</ele><time>2026-05-09T18:01:55.000Z</time></trkpt>
        <trkpt lat="29.543977" lon="103.334033"><ele>2429.4443</ele><time>2026-05-09T18:02:00.000Z</time></trkpt>
        <trkpt lat="29.544013" lon="103.334068"><ele>2429.3289</ele><time>2026-05-09T18:02:04.000Z</time></trkpt>
        <trkpt lat="29.544055" lon="103.334103"><ele>2429.6865</ele><time>2026-05-09T18:02:08.000Z</time></trkpt>
        <trkpt lat="29.544095" lon="103.334138"><ele>2429.1814</ele><time>2026-05-09T18:02:13.000Z</time></trkpt>
        <trkpt lat="29.544144" lon="103.334155"><ele>2429.2798</ele><time>2026-05-09T18:02:16.000Z</time></trkpt>
        <trkpt lat="29.544192" lon="103.334148"><ele>2430.1072</ele><time>2026-05-09T18:02:20.000Z</time></trkpt>
        <trkpt lat="29.544249" lon="103.334136"><ele>2430.4966</ele><time>2026-05-09T18:02:26.000Z</time></trkpt>
        <trkpt lat="29.544298" lon="103.334146"><ele>2428.8452</ele><time>2026-05-09T18:02:32.000Z</time></trkpt>
        <trkpt lat="29.544345" lon="103.33416"><ele>2429.5522</ele><time>2026-05-09T18:02:35.000Z</time></trkpt>
        <trkpt lat="29.544398" lon="103.334156"><ele>2429.5535</ele><time>2026-05-09T18:02:40.000Z</time></trkpt>
        <trkpt lat="29.544444" lon="103.334161"><ele>2429.6409</ele><time>2026-05-09T18:02:45.000Z</time></trkpt>
        <trkpt lat="29.544497" lon="103.334176"><ele>2429.8723</ele><time>2026-05-09T18:02:50.000Z</time></trkpt>
        <trkpt lat="29.544546" lon="103.334204"><ele>2431.3962</ele><time>2026-05-09T18:02:54.000Z</time></trkpt>
        <trkpt lat="29.544595" lon="103.334211"><ele>2431.4724</ele><time>2026-05-09T18:02:58.000Z</time></trkpt>
        <trkpt lat="29.544643" lon="103.334238"><ele>2432.0522</ele><time>2026-05-09T18:03:02.000Z</time></trkpt>
        <trkpt lat="29.544693" lon="103.334234"><ele>2431.6406</ele><time>2026-05-09T18:03:10.000Z</time></trkpt>
        <trkpt lat="29.544731" lon="103.334189"><ele>2433.2742</ele><time>2026-05-09T18:03:16.000Z</time></trkpt>
        <trkpt lat="29.544779" lon="103.334183"><ele>2432.312</ele><time>2026-05-09T18:03:21.000Z</time></trkpt>
        <trkpt lat="29.544821" lon="103.334145"><ele>2433.189</ele><time>2026-05-09T18:03:26.000Z</time></trkpt>
        <trkpt lat="29.544845" lon="103.3341"><ele>2433.6638</ele><time>2026-05-09T18:03:30.000Z</time></trkpt>
        <trkpt lat="29.544872" lon="103.33405"><ele>2435.0837</ele><time>2026-05-09T18:03:37.000Z</time></trkpt>
        <trkpt lat="29.544924" lon="103.334048"><ele>2436.0457</ele><time>2026-05-09T18:03:42.000Z</time></trkpt>
        <trkpt lat="29.544983" lon="103.334058"><ele>2434.6138</ele><time>2026-05-09T18:03:49.000Z</time></trkpt>
        <trkpt lat="29.545033" lon="103.334057"><ele>2436.1482</ele><time>2026-05-09T18:03:54.000Z</time></trkpt>
        <trkpt lat="29.545082" lon="103.334055"><ele>2436.507</ele><time>2026-05-09T18:04:04.000Z</time></trkpt>
        <trkpt lat="29.545131" lon="103.334052"><ele>2435.2097</ele><time>2026-05-09T18:04:12.000Z</time></trkpt>
        <trkpt lat="29.545138" lon="103.334105"><ele>2435.5723</ele><time>2026-05-09T18:04:37.000Z</time></trkpt>
        <trkpt lat="29.545184" lon="103.334105"><ele>2435.2058</ele><time>2026-05-09T18:04:44.000Z</time></trkpt>
        <trkpt lat="29.545231" lon="103.33413"><ele>2434.6675</ele><time>2026-05-09T18:04:52.000Z</time></trkpt>
        <trkpt lat="29.545253" lon="103.33418"><ele>2435.2422</ele><time>2026-05-09T18:04:57.000Z</time></trkpt>
        <trkpt lat="29.545292" lon="103.334222"><ele>2434.4211</ele><time>2026-05-09T18:05:03.000Z</time></trkpt>
        <trkpt lat="29.545324" lon="103.334263"><ele>2433.4792</ele><time>2026-05-09T18:05:06.000Z</time></trkpt>
        <trkpt lat="29.545363" lon="103.334303"><ele>2433.9126</ele><time>2026-05-09T18:05:11.000Z</time></trkpt>
        <trkpt lat="29.545422" lon="103.334323"><ele>2432.7434</ele><time>2026-05-09T18:05:16.000Z</time></trkpt>
        <trkpt lat="29.545459" lon="103.334356"><ele>2430.7468</ele><time>2026-05-09T18:05:21.000Z</time></trkpt>
        <trkpt lat="29.545495" lon="103.334394"><ele>2430.1729</ele><time>2026-05-09T18:05:29.000Z</time></trkpt>
        <trkpt lat="29.545552" lon="103.334398"><ele>2430.1501</ele><time>2026-05-09T18:05:34.000Z</time></trkpt>
        <trkpt lat="29.545607" lon="103.334411"><ele>2428.3584</ele><time>2026-05-09T18:05:38.000Z</time></trkpt>
        <trkpt lat="29.545648" lon="103.334436"><ele>2428.0452</ele><time>2026-05-09T18:05:43.000Z</time></trkpt>
        <trkpt lat="29.545689" lon="103.334476"><ele>2427.8528</ele><time>2026-05-09T18:05:49.000Z</time></trkpt>
        <trkpt lat="29.545736" lon="103.334497"><ele>2428.8772</ele><time>2026-05-09T18:05:54.000Z</time></trkpt>
        <trkpt lat="29.545789" lon="103.334517"><ele>2430.8472</ele><time>2026-05-09T18:06:02.000Z</time></trkpt>
        <trkpt lat="29.545831" lon="103.334549"><ele>2430.6858</ele><time>2026-05-09T18:06:06.000Z</time></trkpt>
        <trkpt lat="29.545863" lon="103.334589"><ele>2430.5046</ele><time>2026-05-09T18:06:11.000Z</time></trkpt>
        <trkpt lat="29.545893" lon="103.334632"><ele>2433.7922</ele><time>2026-05-09T18:06:17.000Z</time></trkpt>
        <trkpt lat="29.545907" lon="103.334684"><ele>2435.5535</ele><time>2026-05-09T18:06:22.000Z</time></trkpt>
        <trkpt lat="29.545912" lon="103.334737"><ele>2437.419</ele><time>2026-05-09T18:06:28.000Z</time></trkpt>
        <trkpt lat="29.545957" lon="103.334717"><ele>2439.419</ele><time>2026-05-09T18:06:33.000Z</time></trkpt>
        <trkpt lat="29.546003" lon="103.334719"><ele>2438.4316</ele><time>2026-05-09T18:06:40.000Z</time></trkpt>
        <trkpt lat="29.546051" lon="103.334727"><ele>2439.179</ele><time>2026-05-09T18:06:46.000Z</time></trkpt>
        <trkpt lat="29.54609" lon="103.334757"><ele>2439.596</ele><time>2026-05-09T18:06:53.000Z</time></trkpt>
        <trkpt lat="29.546146" lon="103.334768"><ele>2441.3337</ele><time>2026-05-09T18:07:00.000Z</time></trkpt>
        <trkpt lat="29.546196" lon="103.334759"><ele>2442.1719</ele><time>2026-05-09T18:07:05.000Z</time></trkpt>
        <trkpt lat="29.546245" lon="103.334758"><ele>2442.9597</ele><time>2026-05-09T18:07:11.000Z</time></trkpt>
        <trkpt lat="29.546197" lon="103.334739"><ele>2445.2996</ele><time>2026-05-09T18:07:40.000Z</time></trkpt>
        <trkpt lat="29.546242" lon="103.334742"><ele>2442.4946</ele><time>2026-05-09T18:10:29.000Z</time></trkpt>
        <trkpt lat="29.546297" lon="103.334734"><ele>2440.37</ele><time>2026-05-09T18:10:35.000Z</time></trkpt>
        <trkpt lat="29.54633" lon="103.334773"><ele>2438.333</ele><time>2026-05-09T18:10:41.000Z</time></trkpt>
        <trkpt lat="29.546373" lon="103.334803"><ele>2436.772</ele><time>2026-05-09T18:10:47.000Z</time></trkpt>
        <trkpt lat="29.546419" lon="103.334818"><ele>2435.5774</ele><time>2026-05-09T18:10:55.000Z</time></trkpt>
        <trkpt lat="29.546467" lon="103.334834"><ele>2434.7622</ele><time>2026-05-09T18:11:01.000Z</time></trkpt>
        <trkpt lat="29.546514" lon="103.334849"><ele>2432.7356</ele><time>2026-05-09T18:11:07.000Z</time></trkpt>
        <trkpt lat="29.546557" lon="103.334864"><ele>2431.887</ele><time>2026-05-09T18:11:11.000Z</time></trkpt>
        <trkpt lat="29.546592" lon="103.334897"><ele>2430.3333</ele><time>2026-05-09T18:11:14.000Z</time></trkpt>
        <trkpt lat="29.54663" lon="103.334941"><ele>2429.694</ele><time>2026-05-09T18:11:19.000Z</time></trkpt>
        <trkpt lat="29.546679" lon="103.334982"><ele>2430.7742</ele><time>2026-05-09T18:11:24.000Z</time></trkpt>
        <trkpt lat="29.546724" lon="103.335011"><ele>2433.7947</ele><time>2026-05-09T18:11:29.000Z</time></trkpt>
        <trkpt lat="29.546761" lon="103.335042"><ele>2436.9614</ele><time>2026-05-09T18:11:37.000Z</time></trkpt>
        <trkpt lat="29.546772" lon="103.335096"><ele>2436.6768</ele><time>2026-05-09T18:11:40.000Z</time></trkpt>
        <trkpt lat="29.546799" lon="103.335148"><ele>2437.8943</ele><time>2026-05-09T18:11:47.000Z</time></trkpt>
        <trkpt lat="29.546801" lon="103.335201"><ele>2439.0813</ele><time>2026-05-09T18:11:52.000Z</time></trkpt>
        <trkpt lat="29.546793" lon="103.335253"><ele>2439.762</ele><time>2026-05-09T18:12:00.000Z</time></trkpt>
        <trkpt lat="29.546801" lon="103.335304"><ele>2439.2441</ele><time>2026-05-09T18:12:07.000Z</time></trkpt>
        <trkpt lat="29.546794" lon="103.335357"><ele>2440.8591</ele><time>2026-05-09T18:12:17.000Z</time></trkpt>
        <trkpt lat="29.546765" lon="103.335405"><ele>2441.9895</ele><time>2026-05-09T18:12:25.000Z</time></trkpt>
        <trkpt lat="29.546746" lon="103.335466"><ele>2440.3945</ele><time>2026-05-09T18:12:33.000Z</time></trkpt>
        <trkpt lat="29.54673" lon="103.335517"><ele>2440.5015</ele><time>2026-05-09T18:12:37.000Z</time></trkpt>
        <trkpt lat="29.546716" lon="103.335576"><ele>2439.512</ele><time>2026-05-09T18:12:42.000Z</time></trkpt>
        <trkpt lat="29.546695" lon="103.335623"><ele>2440.653</ele><time>2026-05-09T18:12:46.000Z</time></trkpt>
        <trkpt lat="29.546674" lon="103.33567"><ele>2440.3098</ele><time>2026-05-09T18:12:51.000Z</time></trkpt>
        <trkpt lat="29.546659" lon="103.335723"><ele>2441.2632</ele><time>2026-05-09T18:12:56.000Z</time></trkpt>
        <trkpt lat="29.546659" lon="103.33578"><ele>2440.8599</ele><time>2026-05-09T18:13:02.000Z</time></trkpt>
        <trkpt lat="29.546651" lon="103.335839"><ele>2441.7158</ele><time>2026-05-09T18:13:06.000Z</time></trkpt>
        <trkpt lat="29.546636" lon="103.335898"><ele>2441.774</ele><time>2026-05-09T18:13:11.000Z</time></trkpt>
        <trkpt lat="29.546624" lon="103.335948"><ele>2441.7886</ele><time>2026-05-09T18:13:15.000Z</time></trkpt>
        <trkpt lat="29.546594" lon="103.336002"><ele>2439.9673</ele><time>2026-05-09T18:13:21.000Z</time></trkpt>
        <trkpt lat="29.546593" lon="103.33606"><ele>2443.1812</ele><time>2026-05-09T18:13:25.000Z</time></trkpt>
        <trkpt lat="29.546586" lon="103.336113"><ele>2443.9326</ele><time>2026-05-09T18:13:30.000Z</time></trkpt>
        <trkpt lat="29.546554" lon="103.336157"><ele>2446.2983</ele><time>2026-05-09T18:13:36.000Z</time></trkpt>
        <trkpt lat="29.546523" lon="103.336208"><ele>2449.2976</ele><time>2026-05-09T18:13:41.000Z</time></trkpt>
        <trkpt lat="29.546513" lon="103.336261"><ele>2449.947</ele><time>2026-05-09T18:13:48.000Z</time></trkpt>
        <trkpt lat="29.546508" lon="103.336318"><ele>2448.6475</ele><time>2026-05-09T18:13:54.000Z</time></trkpt>
        <trkpt lat="29.546533" lon="103.336369"><ele>2449.9314</ele><time>2026-05-09T18:14:00.000Z</time></trkpt>
        <trkpt lat="29.54655" lon="103.336417"><ele>2457.6357</ele><time>2026-05-09T18:14:08.000Z</time></trkpt>
        <trkpt lat="29.546514" lon="103.336454"><ele>2455.5352</ele><time>2026-05-09T18:14:14.000Z</time></trkpt>
        <trkpt lat="29.546478" lon="103.336494"><ele>2457.1643</ele><time>2026-05-09T18:14:20.000Z</time></trkpt>
        <trkpt lat="29.54648" lon="103.336554"><ele>2459.083</ele><time>2026-05-09T18:14:35.000Z</time></trkpt>
        <trkpt lat="29.546462" lon="103.336603"><ele>2459.8914</ele><time>2026-05-09T18:14:47.000Z</time></trkpt>
        <trkpt lat="29.546453" lon="103.33666"><ele>2460.7913</ele><time>2026-05-09T18:14:55.000Z</time></trkpt>
        <trkpt lat="29.546472" lon="103.336708"><ele>2460.9182</ele><time>2026-05-09T18:15:06.000Z</time></trkpt>
        <trkpt lat="29.546493" lon="103.336754"><ele>2462.3066</ele><time>2026-05-09T18:15:17.000Z</time></trkpt>
        <trkpt lat="29.546458" lon="103.336801"><ele>2463</ele><time>2026-05-09T18:15:26.000Z</time></trkpt>
        <trkpt lat="29.546438" lon="103.336855"><ele>2462.3774</ele><time>2026-05-09T18:15:29.000Z</time></trkpt>
        <trkpt lat="29.546477" lon="103.336883"><ele>2464.3533</ele><time>2026-05-09T18:15:35.000Z</time></trkpt>
        <trkpt lat="29.546501" lon="103.336933"><ele>2464.9966</ele><time>2026-05-09T18:15:40.000Z</time></trkpt>
        <trkpt lat="29.546489" lon="103.33699"><ele>2462.0466</ele><time>2026-05-09T18:15:46.000Z</time></trkpt>
        <trkpt lat="29.546533" lon="103.337021"><ele>2464.8306</ele><time>2026-05-09T18:15:52.000Z</time></trkpt>
        <trkpt lat="29.546566" lon="103.337058"><ele>2463.2336</ele><time>2026-05-09T18:15:58.000Z</time></trkpt>
        <trkpt lat="29.546584" lon="103.337106"><ele>2462.7302</ele><time>2026-05-09T18:16:09.000Z</time></trkpt>
        <trkpt lat="29.546599" lon="103.337163"><ele>2462.3218</ele><time>2026-05-09T18:19:31.000Z</time></trkpt>
        <trkpt lat="29.546604" lon="103.337214"><ele>2462.7078</ele><time>2026-05-09T18:19:35.000Z</time></trkpt>
        <trkpt lat="29.546598" lon="103.337271"><ele>2461.6926</ele><time>2026-05-09T18:19:40.000Z</time></trkpt>
        <trkpt lat="29.546591" lon="103.337332"><ele>2459.9927</ele><time>2026-05-09T18:19:46.000Z</time></trkpt>
        <trkpt lat="29.546574" lon="103.337381"><ele>2459.181</ele><time>2026-05-09T18:19:51.000Z</time></trkpt>
        <trkpt lat="29.546558" lon="103.337441"><ele>2459.6785</ele><time>2026-05-09T18:19:57.000Z</time></trkpt>
        <trkpt lat="29.546527" lon="103.337481"><ele>2458.1685</ele><time>2026-05-09T18:20:02.000Z</time></trkpt>
        <trkpt lat="29.546491" lon="103.337517"><ele>2458.5872</ele><time>2026-05-09T18:20:06.000Z</time></trkpt>
        <trkpt lat="29.546459" lon="103.337566"><ele>2458.7747</ele><time>2026-05-09T18:20:13.000Z</time></trkpt>
        <trkpt lat="29.546447" lon="103.337628"><ele>2462.5173</ele><time>2026-05-09T18:20:18.000Z</time></trkpt>
        <trkpt lat="29.546427" lon="103.337681"><ele>2461.264</ele><time>2026-05-09T18:20:23.000Z</time></trkpt>
        <trkpt lat="29.54642" lon="103.33774"><ele>2459.517</ele><time>2026-05-09T18:20:31.000Z</time></trkpt>
        <trkpt lat="29.5464" lon="103.337793"><ele>2459.6826</ele><time>2026-05-09T18:20:36.000Z</time></trkpt>
        <trkpt lat="29.546378" lon="103.337842"><ele>2457.3977</ele><time>2026-05-09T18:20:41.000Z</time></trkpt>
        <trkpt lat="29.546347" lon="103.337893"><ele>2458.7683</ele><time>2026-05-09T18:20:45.000Z</time></trkpt>
        <trkpt lat="29.54631" lon="103.337937"><ele>2458.3113</ele><time>2026-05-09T18:20:49.000Z</time></trkpt>
        <trkpt lat="29.546279" lon="103.33798"><ele>2460.1255</ele><time>2026-05-09T18:20:55.000Z</time></trkpt>
        <trkpt lat="29.546253" lon="103.338038"><ele>2460.5864</ele><time>2026-05-09T18:21:00.000Z</time></trkpt>
        <trkpt lat="29.54624" lon="103.338094"><ele>2460.3794</ele><time>2026-05-09T18:21:07.000Z</time></trkpt>
        <trkpt lat="29.54622" lon="103.338148"><ele>2457.7297</ele><time>2026-05-09T18:21:17.000Z</time></trkpt>
        <trkpt lat="29.546195" lon="103.338199"><ele>2455.914</ele><time>2026-05-09T18:21:25.000Z</time></trkpt>
        <trkpt lat="29.546191" lon="103.33825"><ele>2453.007</ele><time>2026-05-09T18:21:33.000Z</time></trkpt>
        <trkpt lat="29.546199" lon="103.338305"><ele>2451.5796</ele><time>2026-05-09T18:21:39.000Z</time></trkpt>
        <trkpt lat="29.546191" lon="103.338361"><ele>2450.3171</ele><time>2026-05-09T18:21:44.000Z</time></trkpt>
        <trkpt lat="29.546197" lon="103.33842"><ele>2447.8516</ele><time>2026-05-09T18:21:50.000Z</time></trkpt>
        <trkpt lat="29.546214" lon="103.338473"><ele>2447.9368</ele><time>2026-05-09T18:21:54.000Z</time></trkpt>
        <trkpt lat="29.546243" lon="103.338515"><ele>2445.9524</ele><time>2026-05-09T18:22:00.000Z</time></trkpt>
        <trkpt lat="29.546263" lon="103.338562"><ele>2444.1772</ele><time>2026-05-09T18:22:05.000Z</time></trkpt>
        <trkpt lat="29.546283" lon="103.338611"><ele>2441.9858</ele><time>2026-05-09T18:22:11.000Z</time></trkpt>
        <trkpt lat="29.546289" lon="103.338677"><ele>2438.4011</ele><time>2026-05-09T18:22:17.000Z</time></trkpt>
        <trkpt lat="29.546318" lon="103.33872"><ele>2439.1475</ele><time>2026-05-09T18:22:21.000Z</time></trkpt>
        <trkpt lat="29.546367" lon="103.338731"><ele>2434.6057</ele><time>2026-05-09T18:24:53.000Z</time></trkpt>
        <trkpt lat="29.54632" lon="103.338717"><ele>2436.0398</ele><time>2026-05-09T18:25:50.000Z</time></trkpt>
        <trkpt lat="29.546353" lon="103.338682"><ele>2435.9148</ele><time>2026-05-09T18:26:32.000Z</time></trkpt>
        <trkpt lat="29.546343" lon="103.338737"><ele>2439.423</ele><time>2026-05-09T18:26:47.000Z</time></trkpt>
        <trkpt lat="29.546358" lon="103.338681"><ele>2436.9082</ele><time>2026-05-09T18:27:45.000Z</time></trkpt>
        <trkpt lat="29.546336" lon="103.33873"><ele>2441.4724</ele><time>2026-05-09T18:29:50.000Z</time></trkpt>
        <trkpt lat="29.5464" lon="103.338714"><ele>2444.283</ele><time>2026-05-09T18:30:35.000Z</time></trkpt>
        <trkpt lat="29.546354" lon="103.338709"><ele>2443.0674</ele><time>2026-05-09T18:30:47.000Z</time></trkpt>
        <trkpt lat="29.546314" lon="103.338675"><ele>2434.4868</ele><time>2026-05-09T18:32:49.000Z</time></trkpt>
        <trkpt lat="29.546364" lon="103.338688"><ele>2434.9705</ele><time>2026-05-09T18:33:41.000Z</time></trkpt>
        <trkpt lat="29.546356" lon="103.338739"><ele>2439.0132</ele><time>2026-05-09T18:34:03.000Z</time></trkpt>
        <trkpt lat="29.546324" lon="103.338787"><ele>2439.0208</ele><time>2026-05-09T18:34:55.000Z</time></trkpt>
        <trkpt lat="29.546368" lon="103.338803"><ele>2433.6912</ele><time>2026-05-09T18:35:06.000Z</time></trkpt>
        <trkpt lat="29.546413" lon="103.338819"><ele>2431.3928</ele><time>2026-05-09T18:35:16.000Z</time></trkpt>
        <trkpt lat="29.546451" lon="103.338854"><ele>2429.7537</ele><time>2026-05-09T18:36:01.000Z</time></trkpt>
        <trkpt lat="29.546488" lon="103.338899"><ele>2428.3713</ele><time>2026-05-09T18:36:10.000Z</time></trkpt>
        <trkpt lat="29.546518" lon="103.33894"><ele>2426.1948</ele><time>2026-05-09T18:36:23.000Z</time></trkpt>
        <trkpt lat="29.546551" lon="103.338981"><ele>2423.988</ele><time>2026-05-09T18:36:34.000Z</time></trkpt>
        <trkpt lat="29.54659" lon="103.339025"><ele>2421.8096</ele><time>2026-05-09T18:36:39.000Z</time></trkpt>
        <trkpt lat="29.546623" lon="103.339079"><ele>2419.9915</ele><time>2026-05-09T18:36:43.000Z</time></trkpt>
        <trkpt lat="29.546641" lon="103.339129"><ele>2417.9983</ele><time>2026-05-09T18:36:48.000Z</time></trkpt>
        <trkpt lat="29.546668" lon="103.339175"><ele>2416.532</ele><time>2026-05-09T18:36:53.000Z</time></trkpt>
        <trkpt lat="29.546695" lon="103.339216"><ele>2413.7666</ele><time>2026-05-09T18:37:00.000Z</time></trkpt>
        <trkpt lat="29.546736" lon="103.339247"><ele>2411.9055</ele><time>2026-05-09T18:37:06.000Z</time></trkpt>
        <trkpt lat="29.54676" lon="103.339301"><ele>2407.9016</ele><time>2026-05-09T18:37:15.000Z</time></trkpt>
        <trkpt lat="29.546797" lon="103.339336"><ele>2408.0693</ele><time>2026-05-09T18:37:19.000Z</time></trkpt>
        <trkpt lat="29.546848" lon="103.339339"><ele>2409.514</ele><time>2026-05-09T18:37:23.000Z</time></trkpt>
        <trkpt lat="29.546867" lon="103.339391"><ele>2405.4368</ele><time>2026-05-09T18:38:36.000Z</time></trkpt>
        <trkpt lat="29.546898" lon="103.339437"><ele>2401.4275</ele><time>2026-05-09T18:38:43.000Z</time></trkpt>
        <trkpt lat="29.546887" lon="103.339498"><ele>2399.3816</ele><time>2026-05-09T18:38:47.000Z</time></trkpt>
        <trkpt lat="29.546897" lon="103.339551"><ele>2397.6006</ele><time>2026-05-09T18:38:51.000Z</time></trkpt>
        <trkpt lat="29.546922" lon="103.339608"><ele>2394.0269</ele><time>2026-05-09T18:38:55.000Z</time></trkpt>
        <trkpt lat="29.546964" lon="103.339635"><ele>2393.459</ele><time>2026-05-09T18:38:57.000Z</time></trkpt>
        <trkpt lat="29.547007" lon="103.339659"><ele>2390.0728</ele><time>2026-05-09T18:39:00.000Z</time></trkpt>
        <trkpt lat="29.547063" lon="103.339681"><ele>2385.7932</ele><time>2026-05-09T18:39:05.000Z</time></trkpt>
        <trkpt lat="29.54708" lon="103.33974"><ele>2385.1653</ele><time>2026-05-09T18:39:08.000Z</time></trkpt>
        <trkpt lat="29.54709" lon="103.339793"><ele>2384.7676</ele><time>2026-05-09T18:39:11.000Z</time></trkpt>
        <trkpt lat="29.547108" lon="103.339855"><ele>2381.9658</ele><time>2026-05-09T18:39:16.000Z</time></trkpt>
        <trkpt lat="29.547082" lon="103.339921"><ele>2378.574</ele><time>2026-05-09T18:39:20.000Z</time></trkpt>
        <trkpt lat="29.547085" lon="103.339987"><ele>2377.0059</ele><time>2026-05-09T18:39:24.000Z</time></trkpt>
        <trkpt lat="29.547088" lon="103.340039"><ele>2375.4407</ele><time>2026-05-09T18:39:30.000Z</time></trkpt>
        <trkpt lat="29.547112" lon="103.340087"><ele>2372.8008</ele><time>2026-05-09T18:39:38.000Z</time></trkpt>
        <trkpt lat="29.547111" lon="103.340141"><ele>2369.5815</ele><time>2026-05-09T18:39:44.000Z</time></trkpt>
        <trkpt lat="29.547099" lon="103.340193"><ele>2367.2588</ele><time>2026-05-09T18:39:51.000Z</time></trkpt>
        <trkpt lat="29.547138" lon="103.34022"><ele>2365.0728</ele><time>2026-05-09T18:39:57.000Z</time></trkpt>
        <trkpt lat="29.547177" lon="103.340268"><ele>2361.5337</ele><time>2026-05-09T18:40:02.000Z</time></trkpt>
        <trkpt lat="29.547182" lon="103.340333"><ele>2352.1006</ele><time>2026-05-09T18:40:10.000Z</time></trkpt>
        <trkpt lat="29.547215" lon="103.340401"><ele>2351.1658</ele><time>2026-05-09T18:40:14.000Z</time></trkpt>
        <trkpt lat="29.547243" lon="103.340451"><ele>2350.1382</ele><time>2026-05-09T18:40:17.000Z</time></trkpt>
        <trkpt lat="29.547261" lon="103.340512"><ele>2351.048</ele><time>2026-05-09T18:40:20.000Z</time></trkpt>
        <trkpt lat="29.547275" lon="103.340563"><ele>2350.9778</ele><time>2026-05-09T18:40:22.000Z</time></trkpt>
        <trkpt lat="29.547304" lon="103.340604"><ele>2348.8218</ele><time>2026-05-09T18:40:25.000Z</time></trkpt>
        <trkpt lat="29.54733" lon="103.340651"><ele>2347.2578</ele><time>2026-05-09T18:40:28.000Z</time></trkpt>
        <trkpt lat="29.547371" lon="103.340681"><ele>2348.7383</ele><time>2026-05-09T18:40:30.000Z</time></trkpt>
        <trkpt lat="29.547413" lon="103.340721"><ele>2346.7603</ele><time>2026-05-09T18:40:34.000Z</time></trkpt>
        <trkpt lat="29.547375" lon="103.340751"><ele>2346.1726</ele><time>2026-05-09T18:40:39.000Z</time></trkpt>
        <trkpt lat="29.547335" lon="103.340779"><ele>2344.778</ele><time>2026-05-09T18:40:41.000Z</time></trkpt>
        <trkpt lat="29.547366" lon="103.340824"><ele>2342.4082</ele><time>2026-05-09T18:40:43.000Z</time></trkpt>
        <trkpt lat="29.547389" lon="103.340869"><ele>2343.6494</ele><time>2026-05-09T18:40:47.000Z</time></trkpt>
        <trkpt lat="29.547378" lon="103.340922"><ele>2342.1165</ele><time>2026-05-09T18:40:50.000Z</time></trkpt>
        <trkpt lat="29.547403" lon="103.340967"><ele>2341.797</ele><time>2026-05-09T18:40:55.000Z</time></trkpt>
        <trkpt lat="29.54742" lon="103.341017"><ele>2340.6965</ele><time>2026-05-09T18:40:58.000Z</time></trkpt>
        <trkpt lat="29.547448" lon="103.341059"><ele>2340.5273</ele><time>2026-05-09T18:41:18.000Z</time></trkpt>
        <trkpt lat="29.547494" lon="103.341068"><ele>2334.2231</ele><time>2026-05-09T18:41:28.000Z</time></trkpt>
        <trkpt lat="29.547545" lon="103.341084"><ele>2329.4668</ele><time>2026-05-09T18:41:46.000Z</time></trkpt>
        <trkpt lat="29.547594" lon="103.341095"><ele>2328.1445</ele><time>2026-05-09T18:41:54.000Z</time></trkpt>
        <trkpt lat="29.547641" lon="103.341078"><ele>2325.5183</ele><time>2026-05-09T18:42:01.000Z</time></trkpt>
        <trkpt lat="29.547688" lon="103.34109"><ele>2324.9617</ele><time>2026-05-09T18:42:05.000Z</time></trkpt>
        <trkpt lat="29.547744" lon="103.341105"><ele>2323.526</ele><time>2026-05-09T18:42:10.000Z</time></trkpt>
        <trkpt lat="29.547799" lon="103.341126"><ele>2325.7073</ele><time>2026-05-09T18:42:14.000Z</time></trkpt>
        <trkpt lat="29.547852" lon="103.341143"><ele>2326.2632</ele><time>2026-05-09T18:42:18.000Z</time></trkpt>
        <trkpt lat="29.5479" lon="103.341181"><ele>2327.8645</ele><time>2026-05-09T18:42:22.000Z</time></trkpt>
        <trkpt lat="29.547956" lon="103.341197"><ele>2327.8918</ele><time>2026-05-09T18:42:26.000Z</time></trkpt>
        <trkpt lat="29.548013" lon="103.3412"><ele>2327.7805</ele><time>2026-05-09T18:42:31.000Z</time></trkpt>
        <trkpt lat="29.548063" lon="103.341192"><ele>2328.0342</ele><time>2026-05-09T18:42:36.000Z</time></trkpt>
        <trkpt lat="29.54811" lon="103.341183"><ele>2328.1106</ele><time>2026-05-09T18:42:40.000Z</time></trkpt>
        <trkpt lat="29.548162" lon="103.341207"><ele>2328.1018</ele><time>2026-05-09T18:42:44.000Z</time></trkpt>
        <trkpt lat="29.54821" lon="103.34121"><ele>2324.0923</ele><time>2026-05-09T18:42:50.000Z</time></trkpt>
        <trkpt lat="29.548259" lon="103.341224"><ele>2323.6218</ele><time>2026-05-09T18:42:55.000Z</time></trkpt>
        <trkpt lat="29.548306" lon="103.341228"><ele>2320.5896</ele><time>2026-05-09T18:43:01.000Z</time></trkpt>
        <trkpt lat="29.548355" lon="103.341243"><ele>2317.5757</ele><time>2026-05-09T18:43:07.000Z</time></trkpt>
        <trkpt lat="29.548399" lon="103.341268"><ele>2315.5408</ele><time>2026-05-09T18:43:10.000Z</time></trkpt>
        <trkpt lat="29.548451" lon="103.341263"><ele>2311.0073</ele><time>2026-05-09T18:43:14.000Z</time></trkpt>
        <trkpt lat="29.548496" lon="103.341247"><ele>2308.216</ele><time>2026-05-09T18:43:18.000Z</time></trkpt>
        <trkpt lat="29.548554" lon="103.341233"><ele>2306.7642</ele><time>2026-05-09T18:43:22.000Z</time></trkpt>
        <trkpt lat="29.548612" lon="103.341201"><ele>2306.8782</ele><time>2026-05-09T18:43:26.000Z</time></trkpt>
        <trkpt lat="29.548656" lon="103.341173"><ele>2307.2417</ele><time>2026-05-09T18:43:30.000Z</time></trkpt>
        <trkpt lat="29.548707" lon="103.341185"><ele>2302.9575</ele><time>2026-05-09T18:43:34.000Z</time></trkpt>
        <trkpt lat="29.548754" lon="103.341181"><ele>2299.6287</ele><time>2026-05-09T18:43:38.000Z</time></trkpt>
        <trkpt lat="29.548803" lon="103.341173"><ele>2299.0808</ele><time>2026-05-09T18:43:42.000Z</time></trkpt>
        <trkpt lat="29.548851" lon="103.34117"><ele>2295.759</ele><time>2026-05-09T18:43:51.000Z</time></trkpt>
        <trkpt lat="29.548902" lon="103.341171"><ele>2293.96</ele><time>2026-05-09T18:43:56.000Z</time></trkpt>
        <trkpt lat="29.548959" lon="103.341176"><ele>2288.9978</ele><time>2026-05-09T18:44:01.000Z</time></trkpt>
        <trkpt lat="29.549011" lon="103.341175"><ele>2288.887</ele><time>2026-05-09T18:44:05.000Z</time></trkpt>
        <trkpt lat="29.54906" lon="103.341189"><ele>2289.1711</ele><time>2026-05-09T18:44:08.000Z</time></trkpt>
        <trkpt lat="29.549102" lon="103.341225"><ele>2285.8198</ele><time>2026-05-09T18:44:13.000Z</time></trkpt>
        <trkpt lat="29.549091" lon="103.341281"><ele>2285.4775</ele><time>2026-05-09T18:44:16.000Z</time></trkpt>
        <trkpt lat="29.549129" lon="103.341344"><ele>2283.9548</ele><time>2026-05-09T18:44:22.000Z</time></trkpt>
        <trkpt lat="29.549162" lon="103.341384"><ele>2281.9414</ele><time>2026-05-09T18:44:26.000Z</time></trkpt>
        <trkpt lat="29.549196" lon="103.34142"><ele>2278.7915</ele><time>2026-05-09T18:44:32.000Z</time></trkpt>
        <trkpt lat="29.54921" lon="103.341481"><ele>2277.3706</ele><time>2026-05-09T18:44:36.000Z</time></trkpt>
        <trkpt lat="29.549222" lon="103.341538"><ele>2274.9841</ele><time>2026-05-09T18:44:41.000Z</time></trkpt>
        <trkpt lat="29.549238" lon="103.341593"><ele>2275.8416</ele><time>2026-05-09T18:44:44.000Z</time></trkpt>
        <trkpt lat="29.549257" lon="103.341641"><ele>2278.1077</ele><time>2026-05-09T18:44:47.000Z</time></trkpt>
        <trkpt lat="29.549264" lon="103.341699"><ele>2278.9468</ele><time>2026-05-09T18:44:51.000Z</time></trkpt>
        <trkpt lat="29.549292" lon="103.341754"><ele>2278.079</ele><time>2026-05-09T18:44:55.000Z</time></trkpt>
        <trkpt lat="29.549317" lon="103.341807"><ele>2279.1235</ele><time>2026-05-09T18:44:59.000Z</time></trkpt>
        <trkpt lat="29.549323" lon="103.341874"><ele>2280.027</ele><time>2026-05-09T18:45:03.000Z</time></trkpt>
        <trkpt lat="29.549342" lon="103.34193"><ele>2281.0042</ele><time>2026-05-09T18:45:07.000Z</time></trkpt>
        <trkpt lat="29.549364" lon="103.341986"><ele>2280.7336</ele><time>2026-05-09T18:45:11.000Z</time></trkpt>
        <trkpt lat="29.549368" lon="103.342051"><ele>2279.6138</ele><time>2026-05-09T18:45:15.000Z</time></trkpt>
        <trkpt lat="29.549374" lon="103.34211"><ele>2280.948</ele><time>2026-05-09T18:45:19.000Z</time></trkpt>
        <trkpt lat="29.549389" lon="103.342163"><ele>2279.8591</ele><time>2026-05-09T18:45:23.000Z</time></trkpt>
        <trkpt lat="29.549402" lon="103.342217"><ele>2278.1562</ele><time>2026-05-09T18:45:27.000Z</time></trkpt>
        <trkpt lat="29.549437" lon="103.342258"><ele>2278.268</ele><time>2026-05-09T18:45:31.000Z</time></trkpt>
        <trkpt lat="29.549475" lon="103.342287"><ele>2276.537</ele><time>2026-05-09T18:45:35.000Z</time></trkpt>
        <trkpt lat="29.54951" lon="103.342333"><ele>2276.9824</ele><time>2026-05-09T18:45:39.000Z</time></trkpt>
        <trkpt lat="29.549556" lon="103.342374"><ele>2275.6182</ele><time>2026-05-09T18:45:43.000Z</time></trkpt>
        <trkpt lat="29.549578" lon="103.34242"><ele>2274.7483</ele><time>2026-05-09T18:45:46.000Z</time></trkpt>
        <trkpt lat="29.54962" lon="103.342463"><ele>2275.8345</ele><time>2026-05-09T18:45:50.000Z</time></trkpt>
        <trkpt lat="29.54965" lon="103.342501"><ele>2274.9287</ele><time>2026-05-09T18:45:53.000Z</time></trkpt>
        <trkpt lat="29.549689" lon="103.342532"><ele>2274.326</ele><time>2026-05-09T18:45:56.000Z</time></trkpt>
        <trkpt lat="29.549725" lon="103.342577"><ele>2273.9788</ele><time>2026-05-09T18:46:00.000Z</time></trkpt>
        <trkpt lat="29.549759" lon="103.342627"><ele>2274.6995</ele><time>2026-05-09T18:46:04.000Z</time></trkpt>
        <trkpt lat="29.549793" lon="103.342672"><ele>2275.8645</ele><time>2026-05-09T18:46:08.000Z</time></trkpt>
        <trkpt lat="29.549806" lon="103.342721"><ele>2275.4202</ele><time>2026-05-09T18:46:11.000Z</time></trkpt>
        <trkpt lat="29.549847" lon="103.342767"><ele>2276.4058</ele><time>2026-05-09T18:46:15.000Z</time></trkpt>
        <trkpt lat="29.549865" lon="103.342824"><ele>2274.8364</ele><time>2026-05-09T18:46:19.000Z</time></trkpt>
        <trkpt lat="29.5499" lon="103.342867"><ele>2273.6882</ele><time>2026-05-09T18:46:23.000Z</time></trkpt>
        <trkpt lat="29.549909" lon="103.34292"><ele>2275.2021</ele><time>2026-05-09T18:46:26.000Z</time></trkpt>
        <trkpt lat="29.549928" lon="103.342982"><ele>2274.0803</ele><time>2026-05-09T18:46:30.000Z</time></trkpt>
        <trkpt lat="29.549951" lon="103.343029"><ele>2274.373</ele><time>2026-05-09T18:46:33.000Z</time></trkpt>
        <trkpt lat="29.549975" lon="103.343075"><ele>2273.706</ele><time>2026-05-09T18:46:37.000Z</time></trkpt>
        <trkpt lat="29.550006" lon="103.343129"><ele>2271.527</ele><time>2026-05-09T18:46:42.000Z</time></trkpt>
        <trkpt lat="29.550041" lon="103.343169"><ele>2270.9365</ele><time>2026-05-09T18:46:47.000Z</time></trkpt>
        <trkpt lat="29.55008" lon="103.34321"><ele>2270.0532</ele><time>2026-05-09T18:46:54.000Z</time></trkpt>
        <trkpt lat="29.550116" lon="103.343251"><ele>2269.13</ele><time>2026-05-09T18:46:59.000Z</time></trkpt>
        <trkpt lat="29.55015" lon="103.343287"><ele>2268.591</ele><time>2026-05-09T18:47:03.000Z</time></trkpt>
        <trkpt lat="29.550186" lon="103.34332"><ele>2269.021</ele><time>2026-05-09T18:47:07.000Z</time></trkpt>
        <trkpt lat="29.550217" lon="103.343362"><ele>2268.9753</ele><time>2026-05-09T18:47:11.000Z</time></trkpt>
        <trkpt lat="29.55024" lon="103.343408"><ele>2268.8901</ele><time>2026-05-09T18:47:15.000Z</time></trkpt>
        <trkpt lat="29.550267" lon="103.343454"><ele>2268.7556</ele><time>2026-05-09T18:47:19.000Z</time></trkpt>
        <trkpt lat="29.550277" lon="103.34351"><ele>2268.7732</ele><time>2026-05-09T18:47:23.000Z</time></trkpt>
        <trkpt lat="29.550301" lon="103.343569"><ele>2269.048</ele><time>2026-05-09T18:47:27.000Z</time></trkpt>
        <trkpt lat="29.550334" lon="103.343607"><ele>2268.2046</ele><time>2026-05-09T18:47:31.000Z</time></trkpt>
        <trkpt lat="29.550375" lon="103.34365"><ele>2268.894</ele><time>2026-05-09T18:47:36.000Z</time></trkpt>
        <trkpt lat="29.55041" lon="103.343686"><ele>2268.4507</ele><time>2026-05-09T18:47:40.000Z</time></trkpt>
        <trkpt lat="29.550453" lon="103.343726"><ele>2267.931</ele><time>2026-05-09T18:47:44.000Z</time></trkpt>
        <trkpt lat="29.550497" lon="103.343743"><ele>2269.1118</ele><time>2026-05-09T18:47:47.000Z</time></trkpt>
        <trkpt lat="29.550534" lon="103.343788"><ele>2267.4382</ele><time>2026-05-09T18:47:51.000Z</time></trkpt>
        <trkpt lat="29.55056" lon="103.343839"><ele>2266.3428</ele><time>2026-05-09T18:47:55.000Z</time></trkpt>
        <trkpt lat="29.550601" lon="103.343881"><ele>2267.2795</ele><time>2026-05-09T18:47:59.000Z</time></trkpt>
        <trkpt lat="29.550646" lon="103.343919"><ele>2267.5588</ele><time>2026-05-09T18:48:05.000Z</time></trkpt>
        <trkpt lat="29.550695" lon="103.343941"><ele>2266.6912</ele><time>2026-05-09T18:48:10.000Z</time></trkpt>
        <trkpt lat="29.550742" lon="103.343962"><ele>2265.9868</ele><time>2026-05-09T18:48:13.000Z</time></trkpt>
        <trkpt lat="29.550756" lon="103.344026"><ele>2264.4565</ele><time>2026-05-09T18:48:17.000Z</time></trkpt>
        <trkpt lat="29.550779" lon="103.344079"><ele>2263.7163</ele><time>2026-05-09T18:48:20.000Z</time></trkpt>
        <trkpt lat="29.550817" lon="103.344117"><ele>2265.4844</ele><time>2026-05-09T18:48:25.000Z</time></trkpt>
        <trkpt lat="29.550868" lon="103.344127"><ele>2266.8965</ele><time>2026-05-09T18:48:31.000Z</time></trkpt>
        <trkpt lat="29.550917" lon="103.344132"><ele>2267.833</ele><time>2026-05-09T18:48:35.000Z</time></trkpt>
        <trkpt lat="29.55097" lon="103.344118"><ele>2268.1335</ele><time>2026-05-09T18:48:39.000Z</time></trkpt>
        <trkpt lat="29.551024" lon="103.344132"><ele>2267.5876</ele><time>2026-05-09T18:48:43.000Z</time></trkpt>
        <trkpt lat="29.551058" lon="103.344169"><ele>2267.197</ele><time>2026-05-09T18:48:47.000Z</time></trkpt>
        <trkpt lat="29.551104" lon="103.344197"><ele>2266.9536</ele><time>2026-05-09T18:48:51.000Z</time></trkpt>
        <trkpt lat="29.551152" lon="103.344205"><ele>2264.2988</ele><time>2026-05-09T18:48:56.000Z</time></trkpt>
        <trkpt lat="29.551197" lon="103.344175"><ele>2263.6143</ele><time>2026-05-09T18:49:00.000Z</time></trkpt>
        <trkpt lat="29.551248" lon="103.344177"><ele>2263.385</ele><time>2026-05-09T18:49:04.000Z</time></trkpt>
        <trkpt lat="29.551297" lon="103.344176"><ele>2268.188</ele><time>2026-05-09T18:49:08.000Z</time></trkpt>
        <trkpt lat="29.551348" lon="103.344162"><ele>2269.679</ele><time>2026-05-09T18:49:13.000Z</time></trkpt>
        <trkpt lat="29.551394" lon="103.344196"><ele>2267.3005</ele><time>2026-05-09T18:49:19.000Z</time></trkpt>
        <trkpt lat="29.551436" lon="103.344213"><ele>2272.685</ele><time>2026-05-09T18:49:25.000Z</time></trkpt>
        <trkpt lat="29.551479" lon="103.344239"><ele>2271.6038</ele><time>2026-05-09T18:49:28.000Z</time></trkpt>
        <trkpt lat="29.551531" lon="103.344237"><ele>2274.1553</ele><time>2026-05-09T18:49:33.000Z</time></trkpt>
        <trkpt lat="29.551572" lon="103.344266"><ele>2273.0134</ele><time>2026-05-09T18:49:37.000Z</time></trkpt>
        <trkpt lat="29.551606" lon="103.344306"><ele>2272.6245</ele><time>2026-05-09T18:49:44.000Z</time></trkpt>
        <trkpt lat="29.55164" lon="103.344343"><ele>2272.6387</ele><time>2026-05-09T18:49:49.000Z</time></trkpt>
        <trkpt lat="29.551665" lon="103.344396"><ele>2271.935</ele><time>2026-05-09T18:49:53.000Z</time></trkpt>
        <trkpt lat="29.551707" lon="103.344431"><ele>2271.5261</ele><time>2026-05-09T18:49:57.000Z</time></trkpt>
        <trkpt lat="29.551746" lon="103.344465"><ele>2270.7773</ele><time>2026-05-09T18:50:01.000Z</time></trkpt>
        <trkpt lat="29.551768" lon="103.344518"><ele>2270.9521</ele><time>2026-05-09T18:50:05.000Z</time></trkpt>
        <trkpt lat="29.551791" lon="103.344562"><ele>2271.1472</ele><time>2026-05-09T18:50:08.000Z</time></trkpt>
        <trkpt lat="29.551822" lon="103.344604"><ele>2269.874</ele><time>2026-05-09T18:50:12.000Z</time></trkpt>
        <trkpt lat="29.551852" lon="103.34466"><ele>2270.9863</ele><time>2026-05-09T18:50:18.000Z</time></trkpt>
        <trkpt lat="29.551888" lon="103.344708"><ele>2271.048</ele><time>2026-05-09T18:50:22.000Z</time></trkpt>
        <trkpt lat="29.551934" lon="103.344754"><ele>2273.3604</ele><time>2026-05-09T18:50:26.000Z</time></trkpt>
        <trkpt lat="29.551972" lon="103.344797"><ele>2274.2852</ele><time>2026-05-09T18:50:30.000Z</time></trkpt>
        <trkpt lat="29.552021" lon="103.344804"><ele>2274.6167</ele><time>2026-05-09T18:50:33.000Z</time></trkpt>
        <trkpt lat="29.552034" lon="103.344868"><ele>2276.178</ele><time>2026-05-09T18:50:38.000Z</time></trkpt>
        <trkpt lat="29.552034" lon="103.344935"><ele>2276.6692</ele><time>2026-05-09T18:50:42.000Z</time></trkpt>
        <trkpt lat="29.552037" lon="103.344992"><ele>2274.4407</ele><time>2026-05-09T18:50:47.000Z</time></trkpt>
        <trkpt lat="29.552027" lon="103.345043"><ele>2274.0164</ele><time>2026-05-09T18:50:50.000Z</time></trkpt>
        <trkpt lat="29.55207" lon="103.345076"><ele>2277.9146</ele><time>2026-05-09T18:50:55.000Z</time></trkpt>
        <trkpt lat="29.55212" lon="103.345102"><ele>2276.1191</ele><time>2026-05-09T18:51:01.000Z</time></trkpt>
        <trkpt lat="29.552169" lon="103.345124"><ele>2277.3142</ele><time>2026-05-09T18:51:06.000Z</time></trkpt>
        <trkpt lat="29.552226" lon="103.345117"><ele>2277.7568</ele><time>2026-05-09T18:51:11.000Z</time></trkpt>
        <trkpt lat="29.552281" lon="103.345116"><ele>2277.4856</ele><time>2026-05-09T18:51:15.000Z</time></trkpt>
        <trkpt lat="29.552326" lon="103.345148"><ele>2278.1797</ele><time>2026-05-09T18:51:19.000Z</time></trkpt>
        <trkpt lat="29.55237" lon="103.34518"><ele>2276.0115</ele><time>2026-05-09T18:51:22.000Z</time></trkpt>
        <trkpt lat="29.552405" lon="103.345218"><ele>2276.3828</ele><time>2026-05-09T18:51:26.000Z</time></trkpt>
        <trkpt lat="29.552439" lon="103.345254"><ele>2277.619</ele><time>2026-05-09T18:51:31.000Z</time></trkpt>
        <trkpt lat="29.552469" lon="103.3453"><ele>2276.5522</ele><time>2026-05-09T18:51:36.000Z</time></trkpt>
        <trkpt lat="29.552448" lon="103.345346"><ele>2275.805</ele><time>2026-05-09T18:51:39.000Z</time></trkpt>
        <trkpt lat="29.552445" lon="103.345406"><ele>2277.7927</ele><time>2026-05-09T18:51:43.000Z</time></trkpt>
        <trkpt lat="29.552447" lon="103.345464"><ele>2277.9983</ele><time>2026-05-09T18:51:46.000Z</time></trkpt>
        <trkpt lat="29.552498" lon="103.345454"><ele>2277.433</ele><time>2026-05-09T18:51:50.000Z</time></trkpt>
        <trkpt lat="29.552548" lon="103.345433"><ele>2277.6643</ele><time>2026-05-09T18:51:57.000Z</time></trkpt>
        <trkpt lat="29.552593" lon="103.345407"><ele>2278.5496</ele><time>2026-05-09T18:52:03.000Z</time></trkpt>
        <trkpt lat="29.552639" lon="103.345377"><ele>2277.7927</ele><time>2026-05-09T18:52:08.000Z</time></trkpt>
        <trkpt lat="29.55269" lon="103.345401"><ele>2278.0525</ele><time>2026-05-09T18:52:12.000Z</time></trkpt>
        <trkpt lat="29.552735" lon="103.345427"><ele>2275.372</ele><time>2026-05-09T18:52:16.000Z</time></trkpt>
        <trkpt lat="29.552787" lon="103.345421"><ele>2275.4985</ele><time>2026-05-09T18:52:21.000Z</time></trkpt>
        <trkpt lat="29.552835" lon="103.345423"><ele>2275.4924</ele><time>2026-05-09T18:52:24.000Z</time></trkpt>
        <trkpt lat="29.552891" lon="103.345412"><ele>2274.968</ele><time>2026-05-09T18:52:28.000Z</time></trkpt>
        <trkpt lat="29.552946" lon="103.345386"><ele>2275.0366</ele><time>2026-05-09T18:52:32.000Z</time></trkpt>
        <trkpt lat="29.552997" lon="103.345359"><ele>2274.621</ele><time>2026-05-09T18:52:36.000Z</time></trkpt>
        <trkpt lat="29.55305" lon="103.345354"><ele>2274.622</ele><time>2026-05-09T18:52:40.000Z</time></trkpt>
        <trkpt lat="29.553095" lon="103.345349"><ele>2274.4033</ele><time>2026-05-09T18:52:43.000Z</time></trkpt>
        <trkpt lat="29.553152" lon="103.345358"><ele>2273.9312</ele><time>2026-05-09T18:52:47.000Z</time></trkpt>
        <trkpt lat="29.553211" lon="103.345354"><ele>2273.014</ele><time>2026-05-09T18:52:51.000Z</time></trkpt>
        <trkpt lat="29.553259" lon="103.345339"><ele>2273.3594</ele><time>2026-05-09T18:52:55.000Z</time></trkpt>
        <trkpt lat="29.553302" lon="103.345356"><ele>2272.5906</ele><time>2026-05-09T18:52:58.000Z</time></trkpt>
        <trkpt lat="29.553351" lon="103.34533"><ele>2271.2524</ele><time>2026-05-09T18:53:02.000Z</time></trkpt>
        <trkpt lat="29.553407" lon="103.345328"><ele>2271.1355</ele><time>2026-05-09T18:53:07.000Z</time></trkpt>
        <trkpt lat="29.553455" lon="103.34534"><ele>2268.4072</ele><time>2026-05-09T18:53:12.000Z</time></trkpt>
        <trkpt lat="29.553504" lon="103.34531"><ele>2266.18</ele><time>2026-05-09T18:53:18.000Z</time></trkpt>
        <trkpt lat="29.553549" lon="103.345292"><ele>2263.6165</ele><time>2026-05-09T18:53:23.000Z</time></trkpt>
        <trkpt lat="29.55359" lon="103.345318"><ele>2264.4011</ele><time>2026-05-09T18:53:29.000Z</time></trkpt>
        <trkpt lat="29.553633" lon="103.345301"><ele>2263.1921</ele><time>2026-05-09T18:53:37.000Z</time></trkpt>
        <trkpt lat="29.553682" lon="103.345306"><ele>2261.5715</ele><time>2026-05-09T18:53:42.000Z</time></trkpt>
        <trkpt lat="29.553727" lon="103.345332"><ele>2260.0383</ele><time>2026-05-09T18:53:48.000Z</time></trkpt>
        <trkpt lat="29.553776" lon="103.345344"><ele>2260.9297</ele><time>2026-05-09T18:53:53.000Z</time></trkpt>
        <trkpt lat="29.553822" lon="103.345357"><ele>2260.196</ele><time>2026-05-09T18:53:56.000Z</time></trkpt>
        <trkpt lat="29.553872" lon="103.345378"><ele>2255.703</ele><time>2026-05-09T18:54:03.000Z</time></trkpt>
        <trkpt lat="29.55391" lon="103.345408"><ele>2254.3652</ele><time>2026-05-09T18:54:07.000Z</time></trkpt>
        <trkpt lat="29.553949" lon="103.345438"><ele>2253.102</ele><time>2026-05-09T18:54:11.000Z</time></trkpt>
        <trkpt lat="29.553995" lon="103.345461"><ele>2250.8354</ele><time>2026-05-09T18:54:15.000Z</time></trkpt>
        <trkpt lat="29.554043" lon="103.345484"><ele>2251.0583</ele><time>2026-05-09T18:54:19.000Z</time></trkpt>
        <trkpt lat="29.554096" lon="103.345499"><ele>2249.4885</ele><time>2026-05-09T18:54:25.000Z</time></trkpt>
        <trkpt lat="29.554139" lon="103.345476"><ele>2247.5808</ele><time>2026-05-09T18:54:32.000Z</time></trkpt>
        <trkpt lat="29.554183" lon="103.345458"><ele>2246.6648</ele><time>2026-05-09T18:54:37.000Z</time></trkpt>
        <trkpt lat="29.554236" lon="103.345438"><ele>2242.1445</ele><time>2026-05-09T18:54:45.000Z</time></trkpt>
        <trkpt lat="29.554284" lon="103.345418"><ele>2238.895</ele><time>2026-05-09T18:54:51.000Z</time></trkpt>
        <trkpt lat="29.554336" lon="103.3454"><ele>2235.6597</ele><time>2026-05-09T18:54:58.000Z</time></trkpt>
        <trkpt lat="29.554388" lon="103.345392"><ele>2231.4414</ele><time>2026-05-09T18:55:03.000Z</time></trkpt>
        <trkpt lat="29.554442" lon="103.345384"><ele>2229.3499</ele><time>2026-05-09T18:55:07.000Z</time></trkpt>
        <trkpt lat="29.554489" lon="103.345372"><ele>2228.4678</ele><time>2026-05-09T18:55:11.000Z</time></trkpt>
        <trkpt lat="29.554539" lon="103.345374"><ele>2227.7427</ele><time>2026-05-09T18:55:16.000Z</time></trkpt>
        <trkpt lat="29.554589" lon="103.345366"><ele>2223.836</ele><time>2026-05-09T18:55:26.000Z</time></trkpt>
        <trkpt lat="29.554635" lon="103.345362"><ele>2219.3196</ele><time>2026-05-09T18:55:31.000Z</time></trkpt>
        <trkpt lat="29.554673" lon="103.34533"><ele>2219.6328</ele><time>2026-05-09T18:55:36.000Z</time></trkpt>
        <trkpt lat="29.554724" lon="103.345312"><ele>2213.3677</ele><time>2026-05-09T18:55:44.000Z</time></trkpt>
        <trkpt lat="29.55477" lon="103.345279"><ele>2212.246</ele><time>2026-05-09T18:55:49.000Z</time></trkpt>
        <trkpt lat="29.554811" lon="103.345253"><ele>2209.112</ele><time>2026-05-09T18:55:55.000Z</time></trkpt>
        <trkpt lat="29.554841" lon="103.34521"><ele>2205.493</ele><time>2026-05-09T18:56:02.000Z</time></trkpt>
        <trkpt lat="29.554879" lon="103.345164"><ele>2203.3997</ele><time>2026-05-09T18:56:05.000Z</time></trkpt>
        <trkpt lat="29.554931" lon="103.34516"><ele>2201.0156</ele><time>2026-05-09T18:56:08.000Z</time></trkpt>
        <trkpt lat="29.55498" lon="103.345155"><ele>2200.3408</ele><time>2026-05-09T18:56:11.000Z</time></trkpt>
        <trkpt lat="29.555026" lon="103.345138"><ele>2200.358</ele><time>2026-05-09T18:56:15.000Z</time></trkpt>
        <trkpt lat="29.555082" lon="103.345134"><ele>2203.7444</ele><time>2026-05-09T18:56:20.000Z</time></trkpt>
        <trkpt lat="29.555132" lon="103.345121"><ele>2201.885</ele><time>2026-05-09T18:56:28.000Z</time></trkpt>
        <trkpt lat="29.555173" lon="103.345088"><ele>2201.1497</ele><time>2026-05-09T18:56:40.000Z</time></trkpt>
        <trkpt lat="29.555212" lon="103.345062"><ele>2200.3994</ele><time>2026-05-09T18:56:45.000Z</time></trkpt>
        <trkpt lat="29.555226" lon="103.345013"><ele>2198.086</ele><time>2026-05-09T18:56:50.000Z</time></trkpt>
        <trkpt lat="29.555256" lon="103.344972"><ele>2195.5344</ele><time>2026-05-09T18:56:56.000Z</time></trkpt>
        <trkpt lat="29.555317" lon="103.344986"><ele>2193.4033</ele><time>2026-05-09T18:57:01.000Z</time></trkpt>
        <trkpt lat="29.555357" lon="103.345012"><ele>2192.964</ele><time>2026-05-09T18:57:04.000Z</time></trkpt>
        <trkpt lat="29.555382" lon="103.345065"><ele>2193.1304</ele><time>2026-05-09T18:57:08.000Z</time></trkpt>
        <trkpt lat="29.555394" lon="103.345117"><ele>2190.3948</ele><time>2026-05-09T18:57:15.000Z</time></trkpt>
        <trkpt lat="29.555447" lon="103.345121"><ele>2186.452</ele><time>2026-05-09T18:57:23.000Z</time></trkpt>
        <trkpt lat="29.555489" lon="103.345085"><ele>2181.987</ele><time>2026-05-09T18:57:30.000Z</time></trkpt>
        <trkpt lat="29.555524" lon="103.345045"><ele>2179.2627</ele><time>2026-05-09T18:57:34.000Z</time></trkpt>
        <trkpt lat="29.555547" lon="103.345"><ele>2179.549</ele><time>2026-05-09T18:57:37.000Z</time></trkpt>
        <trkpt lat="29.555565" lon="103.344941"><ele>2180.1812</ele><time>2026-05-09T18:57:41.000Z</time></trkpt>
        <trkpt lat="29.555579" lon="103.34489"><ele>2180.3132</ele><time>2026-05-09T18:57:45.000Z</time></trkpt>
        <trkpt lat="29.555611" lon="103.344849"><ele>2177.6318</ele><time>2026-05-09T18:57:51.000Z</time></trkpt>
        <trkpt lat="29.555656" lon="103.344861"><ele>2175.6316</ele><time>2026-05-09T18:57:55.000Z</time></trkpt>
        <trkpt lat="29.5557" lon="103.344901"><ele>2171.2698</ele><time>2026-05-09T18:57:59.000Z</time></trkpt>
        <trkpt lat="29.555709" lon="103.344954"><ele>2170.2524</ele><time>2026-05-09T18:58:02.000Z</time></trkpt>
        <trkpt lat="29.555756" lon="103.34497"><ele>2165.9158</ele><time>2026-05-09T18:58:14.000Z</time></trkpt>
        <trkpt lat="29.5558" lon="103.34496"><ele>2164.853</ele><time>2026-05-09T18:58:20.000Z</time></trkpt>
        <trkpt lat="29.555846" lon="103.344967"><ele>2163.234</ele><time>2026-05-09T18:58:25.000Z</time></trkpt>
        <trkpt lat="29.555865" lon="103.344905"><ele>2161.1975</ele><time>2026-05-09T18:58:30.000Z</time></trkpt>
        <trkpt lat="29.555889" lon="103.344853"><ele>2160.9329</ele><time>2026-05-09T18:58:34.000Z</time></trkpt>
        <trkpt lat="29.555921" lon="103.344808"><ele>2158.5317</ele><time>2026-05-09T18:58:40.000Z</time></trkpt>
        <trkpt lat="29.555941" lon="103.344756"><ele>2156.5464</ele><time>2026-05-09T18:58:46.000Z</time></trkpt>
        <trkpt lat="29.555973" lon="103.344707"><ele>2154.8857</ele><time>2026-05-09T18:58:52.000Z</time></trkpt>
        <trkpt lat="29.555994" lon="103.344652"><ele>2152.3228</ele><time>2026-05-09T18:59:00.000Z</time></trkpt>
        <trkpt lat="29.55601" lon="103.344595"><ele>2151.4292</ele><time>2026-05-09T18:59:06.000Z</time></trkpt>
        <trkpt lat="29.556049" lon="103.344554"><ele>2150.1892</ele><time>2026-05-09T18:59:12.000Z</time></trkpt>
        <trkpt lat="29.556081" lon="103.344513"><ele>2147.5417</ele><time>2026-05-09T18:59:17.000Z</time></trkpt>
        <trkpt lat="29.556112" lon="103.344468"><ele>2145.517</ele><time>2026-05-09T18:59:21.000Z</time></trkpt>
        <trkpt lat="29.556151" lon="103.344435"><ele>2145.6812</ele><time>2026-05-09T18:59:26.000Z</time></trkpt>
        <trkpt lat="29.556187" lon="103.344391"><ele>2143.0264</ele><time>2026-05-09T18:59:31.000Z</time></trkpt>
        <trkpt lat="29.556224" lon="103.344353"><ele>2141.0713</ele><time>2026-05-09T18:59:36.000Z</time></trkpt>
        <trkpt lat="29.556242" lon="103.3443"><ele>2140.9368</ele><time>2026-05-09T18:59:40.000Z</time></trkpt>
        <trkpt lat="29.556264" lon="103.344244"><ele>2140.5889</ele><time>2026-05-09T18:59:44.000Z</time></trkpt>
        <trkpt lat="29.556304" lon="103.344206"><ele>2140.2205</ele><time>2026-05-09T18:59:49.000Z</time></trkpt>
        <trkpt lat="29.556352" lon="103.344204"><ele>2137.8337</ele><time>2026-05-09T18:59:55.000Z</time></trkpt>
        <trkpt lat="29.556412" lon="103.344194"><ele>2135.3655</ele><time>2026-05-09T19:00:01.000Z</time></trkpt>
        <trkpt lat="29.556456" lon="103.344158"><ele>2129.703</ele><time>2026-05-09T19:00:09.000Z</time></trkpt>
        <trkpt lat="29.556495" lon="103.344117"><ele>2127.0872</ele><time>2026-05-09T19:00:16.000Z</time></trkpt>
        <trkpt lat="29.556527" lon="103.344069"><ele>2125.5745</ele><time>2026-05-09T19:00:21.000Z</time></trkpt>
        <trkpt lat="29.556545" lon="103.344019"><ele>2122.0095</ele><time>2026-05-09T19:00:27.000Z</time></trkpt>
        <trkpt lat="29.556569" lon="103.343965"><ele>2120.62</ele><time>2026-05-09T19:00:33.000Z</time></trkpt>
        <trkpt lat="29.556589" lon="103.343911"><ele>2115.9277</ele><time>2026-05-09T19:00:41.000Z</time></trkpt>
        <trkpt lat="29.556577" lon="103.343857"><ele>2112.0073</ele><time>2026-05-09T19:00:50.000Z</time></trkpt>
        <trkpt lat="29.556613" lon="103.343824"><ele>2111.3862</ele><time>2026-05-09T19:00:55.000Z</time></trkpt>
        <trkpt lat="29.556655" lon="103.343786"><ele>2107.0088</ele><time>2026-05-09T19:01:04.000Z</time></trkpt>
        <trkpt lat="29.556686" lon="103.343745"><ele>2104.3027</ele><time>2026-05-09T19:01:11.000Z</time></trkpt>
        <trkpt lat="29.556721" lon="103.343711"><ele>2103.0203</ele><time>2026-05-09T19:01:17.000Z</time></trkpt>
        <trkpt lat="29.556768" lon="103.343717"><ele>2100.2524</ele><time>2026-05-09T19:01:24.000Z</time></trkpt>
        <trkpt lat="29.556815" lon="103.343743"><ele>2098.9692</ele><time>2026-05-09T19:01:31.000Z</time></trkpt>
        <trkpt lat="29.556862" lon="103.343743"><ele>2096.2107</ele><time>2026-05-09T19:01:36.000Z</time></trkpt>
        <trkpt lat="29.556907" lon="103.343718"><ele>2093.9927</ele><time>2026-05-09T19:01:41.000Z</time></trkpt>
        <trkpt lat="29.556958" lon="103.3437"><ele>2093.5442</ele><time>2026-05-09T19:01:46.000Z</time></trkpt>
        <trkpt lat="29.557011" lon="103.343685"><ele>2092.4524</ele><time>2026-05-09T19:01:50.000Z</time></trkpt>
        <trkpt lat="29.557057" lon="103.343665"><ele>2091.3518</ele><time>2026-05-09T19:01:55.000Z</time></trkpt>
        <trkpt lat="29.5571" lon="103.34364"><ele>2087.998</ele><time>2026-05-09T19:02:00.000Z</time></trkpt>
        <trkpt lat="29.557153" lon="103.343598"><ele>2085.4258</ele><time>2026-05-09T19:02:05.000Z</time></trkpt>
        <trkpt lat="29.557204" lon="103.343579"><ele>2084.732</ele><time>2026-05-09T19:02:10.000Z</time></trkpt>
        <trkpt lat="29.557254" lon="103.343575"><ele>2081.8647</ele><time>2026-05-09T19:02:15.000Z</time></trkpt>
        <trkpt lat="29.557298" lon="103.343599"><ele>2081.4119</ele><time>2026-05-09T19:02:18.000Z</time></trkpt>
        <trkpt lat="29.557332" lon="103.343636"><ele>2077.6018</ele><time>2026-05-09T19:02:26.000Z</time></trkpt>
        <trkpt lat="29.557379" lon="103.343672"><ele>2070.5298</ele><time>2026-05-09T19:02:39.000Z</time></trkpt>
        <trkpt lat="29.557423" lon="103.343692"><ele>2071.0366</ele><time>2026-05-09T19:02:42.000Z</time></trkpt>
        <trkpt lat="29.557477" lon="103.343718"><ele>2070.6257</ele><time>2026-05-09T19:02:46.000Z</time></trkpt>
        <trkpt lat="29.557561" lon="103.343697"><ele>2072.6956</ele><time>2026-05-09T19:02:49.000Z</time></trkpt>
        <trkpt lat="29.557592" lon="103.34374"><ele>2070.9573</ele><time>2026-05-09T19:02:56.000Z</time></trkpt>
        <trkpt lat="29.557648" lon="103.343744"><ele>2067.8616</ele><time>2026-05-09T19:03:03.000Z</time></trkpt>
        <trkpt lat="29.5577" lon="103.343761"><ele>2068.1345</ele><time>2026-05-09T19:03:08.000Z</time></trkpt>
        <trkpt lat="29.557747" lon="103.343771"><ele>2068.9028</ele><time>2026-05-09T19:03:12.000Z</time></trkpt>
        <trkpt lat="29.557799" lon="103.343752"><ele>2070.8706</ele><time>2026-05-09T19:03:17.000Z</time></trkpt>
        <trkpt lat="29.557835" lon="103.343801"><ele>2068.5586</ele><time>2026-05-09T19:03:21.000Z</time></trkpt>
        <trkpt lat="29.557835" lon="103.343871"><ele>2068.9543</ele><time>2026-05-09T19:03:25.000Z</time></trkpt>
        <trkpt lat="29.557863" lon="103.343921"><ele>2068.1648</ele><time>2026-05-09T19:03:32.000Z</time></trkpt>
        <trkpt lat="29.55782" lon="103.34395"><ele>2067.2625</ele><time>2026-05-09T19:03:35.000Z</time></trkpt>
        <trkpt lat="29.55782" lon="103.344008"><ele>2064.847</ele><time>2026-05-09T19:05:01.000Z</time></trkpt>
        <trkpt lat="29.557823" lon="103.343913"><ele>2063.4658</ele><time>2026-05-09T19:05:52.000Z</time></trkpt>
        <trkpt lat="29.557811" lon="103.343963"><ele>2063.6448</ele><time>2026-05-09T19:06:25.000Z</time></trkpt>
        <trkpt lat="29.557823" lon="103.343982"><ele>2063.2214</ele><time>2026-05-09T19:06:36.000Z</time></trkpt>
        <trkpt lat="29.557811" lon="103.343991"><ele>2062.859</ele><time>2026-05-09T19:06:47.000Z</time></trkpt>
        <trkpt lat="29.557729" lon="103.343917"><ele>2070.234</ele><time>2026-05-09T19:07:48.000Z</time></trkpt>
        <trkpt lat="29.557766" lon="103.34395"><ele>2069.709</ele><time>2026-05-09T19:07:49.000Z</time></trkpt>
        <trkpt lat="29.557808" lon="103.34397"><ele>2069.0818</ele><time>2026-05-09T19:08:17.000Z</time></trkpt>
        <trkpt lat="29.55779" lon="103.344027"><ele>2072.215</ele><time>2026-05-09T19:09:00.000Z</time></trkpt>
        <trkpt lat="29.557837" lon="103.344016"><ele>2070.3457</ele><time>2026-05-09T19:09:05.000Z</time></trkpt>
        <trkpt lat="29.557821" lon="103.343962"><ele>2069.0664</ele><time>2026-05-09T19:09:18.000Z</time></trkpt>
        <trkpt lat="29.55785" lon="103.343919"><ele>2065.8223</ele><time>2026-05-09T19:09:36.000Z</time></trkpt>
        <trkpt lat="29.557822" lon="103.343959"><ele>2064.2195</ele><time>2026-05-09T19:10:33.000Z</time></trkpt>
        <trkpt lat="29.557862" lon="103.343924"><ele>2063.6836</ele><time>2026-05-09T19:11:15.000Z</time></trkpt>
        <trkpt lat="29.557878" lon="103.343871"><ele>2064.6262</ele><time>2026-05-09T19:11:16.000Z</time></trkpt>
        <trkpt lat="29.557842" lon="103.343836"><ele>2065.7827</ele><time>2026-05-09T19:11:23.000Z</time></trkpt>
        <trkpt lat="29.557832" lon="103.34389"><ele>2064.445</ele><time>2026-05-09T19:11:31.000Z</time></trkpt>
        <trkpt lat="29.557819" lon="103.343954"><ele>2064.1729</ele><time>2026-05-09T19:11:36.000Z</time></trkpt>
        <trkpt lat="29.557817" lon="103.343957"><ele>2063.909</ele><time>2026-05-09T19:11:37.000Z</time></trkpt>
        <trkpt lat="29.557884" lon="103.343931"><ele>2063.1643</ele><time>2026-05-09T19:12:17.000Z</time></trkpt>
        <trkpt lat="29.557885" lon="103.343893"><ele>2064.221</ele><time>2026-05-09T19:12:20.000Z</time></trkpt>
        <trkpt lat="29.557874" lon="103.343889"><ele>2062.8918</ele><time>2026-05-09T19:12:22.000Z</time></trkpt>
        <trkpt lat="29.557837" lon="103.343926"><ele>2063.2197</ele><time>2026-05-09T19:12:24.000Z</time></trkpt>
        <trkpt lat="29.55779" lon="103.34394"><ele>2067.9202</ele><time>2026-05-09T19:13:21.000Z</time></trkpt>
        <trkpt lat="29.557841" lon="103.343967"><ele>2063.5486</ele><time>2026-05-09T19:13:38.000Z</time></trkpt>
        <trkpt lat="29.557795" lon="103.343942"><ele>2063.1887</ele><time>2026-05-09T19:15:23.000Z</time></trkpt>
        <trkpt lat="29.557835" lon="103.343969"><ele>2062.9573</ele><time>2026-05-09T19:17:22.000Z</time></trkpt>
        <trkpt lat="29.55785" lon="103.343952"><ele>2062.7898</ele><time>2026-05-09T19:17:24.000Z</time></trkpt>
        <trkpt lat="29.557813" lon="103.343996"><ele>2064.387</ele><time>2026-05-09T19:17:29.000Z</time></trkpt>
        <trkpt lat="29.557692" lon="103.34405"><ele>2074.0278</ele><time>2026-05-09T19:17:48.000Z</time></trkpt>
        <trkpt lat="29.557891" lon="103.344318"><ele>2072.9436</ele><time>2026-05-09T19:18:00.000Z</time></trkpt>
        <trkpt lat="29.558162" lon="103.344122"><ele>2062.523</ele><time>2026-05-09T19:18:16.000Z</time></trkpt>
        <trkpt lat="29.558211" lon="103.344129"><ele>2063.8489</ele><time>2026-05-09T19:18:20.000Z</time></trkpt>
        <trkpt lat="29.558254" lon="103.344144"><ele>2063.436</ele><time>2026-05-09T19:18:25.000Z</time></trkpt>
        <trkpt lat="29.558281" lon="103.344099"><ele>2063.314</ele><time>2026-05-09T19:18:28.000Z</time></trkpt>
        <trkpt lat="29.558273" lon="103.34409"><ele>2066.1196</ele><time>2026-05-09T19:18:33.000Z</time></trkpt>
        <trkpt lat="29.558347" lon="103.344084"><ele>2070.756</ele><time>2026-05-09T19:18:44.000Z</time></trkpt>
        <trkpt lat="29.558397" lon="103.34409"><ele>2067.892</ele><time>2026-05-09T19:18:56.000Z</time></trkpt>
        <trkpt lat="29.55844" lon="103.344107"><ele>2066.383</ele><time>2026-05-09T19:19:05.000Z</time></trkpt>
        <trkpt lat="29.558428" lon="103.344162"><ele>2067.0396</ele><time>2026-05-09T19:19:20.000Z</time></trkpt>
        <trkpt lat="29.558457" lon="103.344114"><ele>2070.0066</ele><time>2026-05-09T19:20:14.000Z</time></trkpt>
        <trkpt lat="29.558503" lon="103.344119"><ele>2067.409</ele><time>2026-05-09T19:21:06.000Z</time></trkpt>
        <trkpt lat="29.558532" lon="103.344159"><ele>2061.5884</ele><time>2026-05-09T19:21:53.000Z</time></trkpt>
        <trkpt lat="29.558574" lon="103.344183"><ele>2060.0776</ele><time>2026-05-09T19:22:01.000Z</time></trkpt>
        <trkpt lat="29.558631" lon="103.344191"><ele>2058.7092</ele><time>2026-05-09T19:22:06.000Z</time></trkpt>
        <trkpt lat="29.558673" lon="103.344216"><ele>2058.1426</ele><time>2026-05-09T19:22:10.000Z</time></trkpt>
        <trkpt lat="29.558721" lon="103.344221"><ele>2057.0645</ele><time>2026-05-09T19:22:23.000Z</time></trkpt>
        <trkpt lat="29.558773" lon="103.344226"><ele>2057.0334</ele><time>2026-05-09T19:23:08.000Z</time></trkpt>
        <trkpt lat="29.558815" lon="103.344258"><ele>2055.023</ele><time>2026-05-09T19:23:15.000Z</time></trkpt>
        <trkpt lat="29.558838" lon="103.344308"><ele>2054.7927</ele><time>2026-05-09T19:23:20.000Z</time></trkpt>
        <trkpt lat="29.558881" lon="103.344286"><ele>2052.04</ele><time>2026-05-09T19:23:41.000Z</time></trkpt>
        <trkpt lat="29.558882" lon="103.344229"><ele>2051.152</ele><time>2026-05-09T19:23:49.000Z</time></trkpt>
        <trkpt lat="29.558881" lon="103.344176"><ele>2048.5244</ele><time>2026-05-09T19:23:55.000Z</time></trkpt>
        <trkpt lat="29.558875" lon="103.34412"><ele>2045.4998</ele><time>2026-05-09T19:24:04.000Z</time></trkpt>
        <trkpt lat="29.558876" lon="103.34406"><ele>2043.905</ele><time>2026-05-09T19:24:11.000Z</time></trkpt>
        <trkpt lat="29.558903" lon="103.344102"><ele>2043.7961</ele><time>2026-05-09T19:24:16.000Z</time></trkpt>
        <trkpt lat="29.558919" lon="103.34416"><ele>2040.3405</ele><time>2026-05-09T19:24:22.000Z</time></trkpt>
        <trkpt lat="29.558921" lon="103.344097"><ele>2040.2837</ele><time>2026-05-09T19:24:25.000Z</time></trkpt>
        <trkpt lat="29.558922" lon="103.344033"><ele>2040.747</ele><time>2026-05-09T19:24:28.000Z</time></trkpt>
        <trkpt lat="29.558882" lon="103.343981"><ele>2037.9302</ele><time>2026-05-09T19:24:32.000Z</time></trkpt>
        <trkpt lat="29.558892" lon="103.34393"><ele>2037.7267</ele><time>2026-05-09T19:24:35.000Z</time></trkpt>
        <trkpt lat="29.558874" lon="103.343874"><ele>2037.4801</ele><time>2026-05-09T19:24:38.000Z</time></trkpt>
        <trkpt lat="29.558882" lon="103.343818"><ele>2038.5402</ele><time>2026-05-09T19:24:41.000Z</time></trkpt>
        <trkpt lat="29.558905" lon="103.343759"><ele>2038.7446</ele><time>2026-05-09T19:24:45.000Z</time></trkpt>
        <trkpt lat="29.558948" lon="103.343732"><ele>2037.3387</ele><time>2026-05-09T19:24:50.000Z</time></trkpt>
        <trkpt lat="29.558999" lon="103.343712"><ele>2032.7135</ele><time>2026-05-09T19:25:02.000Z</time></trkpt>
        <trkpt lat="29.558999" lon="103.343659"><ele>2032.0828</ele><time>2026-05-09T19:25:07.000Z</time></trkpt>
        <trkpt lat="29.559048" lon="103.343665"><ele>2028.7576</ele><time>2026-05-09T19:25:27.000Z</time></trkpt>
        <trkpt lat="29.559092" lon="103.343682"><ele>2023.9613</ele><time>2026-05-09T19:25:40.000Z</time></trkpt>
        <trkpt lat="29.55913" lon="103.343713"><ele>2021.6554</ele><time>2026-05-09T19:25:47.000Z</time></trkpt>
        <trkpt lat="29.559149" lon="103.34376"><ele>2017.3467</ele><time>2026-05-09T19:25:55.000Z</time></trkpt>
        <trkpt lat="29.559174" lon="103.343814"><ele>2017.1195</ele><time>2026-05-09T19:26:08.000Z</time></trkpt>
        <trkpt lat="29.559223" lon="103.343803"><ele>2014.2985</ele><time>2026-05-09T19:26:20.000Z</time></trkpt>
        <trkpt lat="29.559252" lon="103.343758"><ele>2012.1902</ele><time>2026-05-09T19:26:25.000Z</time></trkpt>
        <trkpt lat="29.559246" lon="103.343698"><ele>2010.1877</ele><time>2026-05-09T19:26:32.000Z</time></trkpt>
        <trkpt lat="29.559274" lon="103.34365"><ele>2008.4978</ele><time>2026-05-09T19:26:41.000Z</time></trkpt>
        <trkpt lat="29.559294" lon="103.343601"><ele>2005.1174</ele><time>2026-05-09T19:27:07.000Z</time></trkpt>
        <trkpt lat="29.559348" lon="103.343592"><ele>2001.8964</ele><time>2026-05-09T19:27:17.000Z</time></trkpt>
        <trkpt lat="29.559393" lon="103.34361"><ele>1998.2754</ele><time>2026-05-09T19:27:30.000Z</time></trkpt>
        <trkpt lat="29.559442" lon="103.343602"><ele>1995.8594</ele><time>2026-05-09T19:27:41.000Z</time></trkpt>
        <trkpt lat="29.559457" lon="103.343549"><ele>1994.1907</ele><time>2026-05-09T19:27:51.000Z</time></trkpt>
        <trkpt lat="29.559482" lon="103.343501"><ele>1990.3638</ele><time>2026-05-09T19:28:00.000Z</time></trkpt>
        <trkpt lat="29.559525" lon="103.343522"><ele>1990.1234</ele><time>2026-05-09T19:28:07.000Z</time></trkpt>
        <trkpt lat="29.55956" lon="103.343557"><ele>1986.7942</ele><time>2026-05-09T19:28:14.000Z</time></trkpt>
        <trkpt lat="29.559601" lon="103.343587"><ele>1983.792</ele><time>2026-05-09T19:28:24.000Z</time></trkpt>
        <trkpt lat="29.559645" lon="103.343605"><ele>1981.5537</ele><time>2026-05-09T19:28:33.000Z</time></trkpt>
        <trkpt lat="29.559649" lon="103.343549"><ele>1978.1232</ele><time>2026-05-09T19:28:39.000Z</time></trkpt>
        <trkpt lat="29.559679" lon="103.343508"><ele>1975.5256</ele><time>2026-05-09T19:28:46.000Z</time></trkpt>
        <trkpt lat="29.559727" lon="103.343547"><ele>1973.0214</ele><time>2026-05-09T19:28:54.000Z</time></trkpt>
        <trkpt lat="29.55976" lon="103.343599"><ele>1970.5956</ele><time>2026-05-09T19:28:59.000Z</time></trkpt>
        <trkpt lat="29.559795" lon="103.343639"><ele>1967.8002</ele><time>2026-05-09T19:29:04.000Z</time></trkpt>
        <trkpt lat="29.559824" lon="103.34369"><ele>1965.3445</ele><time>2026-05-09T19:29:11.000Z</time></trkpt>
        <trkpt lat="29.559867" lon="103.343725"><ele>1961.0774</ele><time>2026-05-09T19:29:18.000Z</time></trkpt>
        <trkpt lat="29.55991" lon="103.343738"><ele>1958.4808</ele><time>2026-05-09T19:29:23.000Z</time></trkpt>
        <trkpt lat="29.559943" lon="103.343774"><ele>1957.4333</ele><time>2026-05-09T19:29:36.000Z</time></trkpt>
        <trkpt lat="29.55998" lon="103.343815"><ele>1954.9856</ele><time>2026-05-09T19:29:44.000Z</time></trkpt>
        <trkpt lat="29.560025" lon="103.343844"><ele>1953.1741</ele><time>2026-05-09T19:29:52.000Z</time></trkpt>
        <trkpt lat="29.560067" lon="103.343872"><ele>1951.234</ele><time>2026-05-09T19:29:58.000Z</time></trkpt>
        <trkpt lat="29.560113" lon="103.343894"><ele>1948.7368</ele><time>2026-05-09T19:30:05.000Z</time></trkpt>
        <trkpt lat="29.560149" lon="103.343928"><ele>1945.8817</ele><time>2026-05-09T19:30:16.000Z</time></trkpt>
        <trkpt lat="29.560117" lon="103.343969"><ele>1943.7383</ele><time>2026-05-09T19:30:28.000Z</time></trkpt>
        <trkpt lat="29.560076" lon="103.343999"><ele>1942.7139</ele><time>2026-05-09T19:30:37.000Z</time></trkpt>
        <trkpt lat="29.560106" lon="103.344042"><ele>1940.4308</ele><time>2026-05-09T19:30:42.000Z</time></trkpt>
        <trkpt lat="29.560139" lon="103.344084"><ele>1937.5173</ele><time>2026-05-09T19:30:47.000Z</time></trkpt>
        <trkpt lat="29.560113" lon="103.344136"><ele>1934.357</ele><time>2026-05-09T19:30:53.000Z</time></trkpt>
        <trkpt lat="29.56008" lon="103.344177"><ele>1933.1124</ele><time>2026-05-09T19:30:56.000Z</time></trkpt>
        <trkpt lat="29.56007" lon="103.344228"><ele>1931.7123</ele><time>2026-05-09T19:30:59.000Z</time></trkpt>
        <trkpt lat="29.560114" lon="103.344251"><ele>1931.9604</ele><time>2026-05-09T19:31:02.000Z</time></trkpt>
        <trkpt lat="29.560164" lon="103.344277"><ele>1929.5525</ele><time>2026-05-09T19:31:07.000Z</time></trkpt>
        <trkpt lat="29.560215" lon="103.344265"><ele>1929.275</ele><time>2026-05-09T19:31:11.000Z</time></trkpt>
        <trkpt lat="29.56021" lon="103.344323"><ele>1924.1056</ele><time>2026-05-09T19:31:46.000Z</time></trkpt>
        <trkpt lat="29.560189" lon="103.344369"><ele>1920.8395</ele><time>2026-05-09T19:31:52.000Z</time></trkpt>
        <trkpt lat="29.560228" lon="103.344404"><ele>1915.9075</ele><time>2026-05-09T19:31:58.000Z</time></trkpt>
        <trkpt lat="29.560257" lon="103.344447"><ele>1912.7871</ele><time>2026-05-09T19:32:03.000Z</time></trkpt>
        <trkpt lat="29.560298" lon="103.344485"><ele>1908.743</ele><time>2026-05-09T19:32:10.000Z</time></trkpt>
        <trkpt lat="29.56034" lon="103.344524"><ele>1905.3236</ele><time>2026-05-09T19:32:20.000Z</time></trkpt>
        <trkpt lat="29.560388" lon="103.34454"><ele>1899.6274</ele><time>2026-05-09T19:32:28.000Z</time></trkpt>
        <trkpt lat="29.560434" lon="103.344567"><ele>1896.27</ele><time>2026-05-09T19:32:36.000Z</time></trkpt>
        <trkpt lat="29.560474" lon="103.344594"><ele>1894.1664</ele><time>2026-05-09T19:32:42.000Z</time></trkpt>
        <trkpt lat="29.560521" lon="103.344618"><ele>1893.3368</ele><time>2026-05-09T19:32:47.000Z</time></trkpt>
        <trkpt lat="29.560563" lon="103.344648"><ele>1890.7859</ele><time>2026-05-09T19:32:54.000Z</time></trkpt>
        <trkpt lat="29.56061" lon="103.344668"><ele>1888.4081</ele><time>2026-05-09T19:33:03.000Z</time></trkpt>
        <trkpt lat="29.560655" lon="103.344682"><ele>1884.0447</ele><time>2026-05-09T19:33:12.000Z</time></trkpt>
        <trkpt lat="29.560702" lon="103.344691"><ele>1881.8562</ele><time>2026-05-09T19:33:20.000Z</time></trkpt>
        <trkpt lat="29.560697" lon="103.344743"><ele>1880.4623</ele><time>2026-05-09T19:34:12.000Z</time></trkpt>
        <trkpt lat="29.560732" lon="103.344699"><ele>1880.0076</ele><time>2026-05-09T19:34:17.000Z</time></trkpt>
        <trkpt lat="29.560756" lon="103.344744"><ele>1877.0033</ele><time>2026-05-09T19:34:27.000Z</time></trkpt>
        <trkpt lat="29.560766" lon="103.344798"><ele>1879.2533</ele><time>2026-05-09T19:34:45.000Z</time></trkpt>
        <trkpt lat="29.560759" lon="103.34486"><ele>1876.5913</ele><time>2026-05-09T19:34:52.000Z</time></trkpt>
        <trkpt lat="29.560753" lon="103.344916"><ele>1873.3552</ele><time>2026-05-09T19:34:58.000Z</time></trkpt>
        <trkpt lat="29.560801" lon="103.344928"><ele>1869.647</ele><time>2026-05-09T19:35:05.000Z</time></trkpt>
        <trkpt lat="29.560842" lon="103.344903"><ele>1862.9741</ele><time>2026-05-09T19:35:15.000Z</time></trkpt>
        <trkpt lat="29.560863" lon="103.344956"><ele>1859.112</ele><time>2026-05-09T19:35:24.000Z</time></trkpt>
        <trkpt lat="29.560876" lon="103.345013"><ele>1857.7491</ele><time>2026-05-09T19:35:30.000Z</time></trkpt>
        <trkpt lat="29.560905" lon="103.345059"><ele>1854.0934</ele><time>2026-05-09T19:35:37.000Z</time></trkpt>
        <trkpt lat="29.560942" lon="103.345094"><ele>1850.8478</ele><time>2026-05-09T19:35:43.000Z</time></trkpt>
        <trkpt lat="29.560998" lon="103.345065"><ele>1845.3212</ele><time>2026-05-09T19:35:49.000Z</time></trkpt>
        <trkpt lat="29.561031" lon="103.345021"><ele>1843.3583</ele><time>2026-05-09T19:35:54.000Z</time></trkpt>
        <trkpt lat="29.561069" lon="103.344988"><ele>1836.6125</ele><time>2026-05-09T19:36:03.000Z</time></trkpt>
        <trkpt lat="29.561098" lon="103.345034"><ele>1835.2925</ele><time>2026-05-09T19:36:12.000Z</time></trkpt>
        <trkpt lat="29.56115" lon="103.345076"><ele>1833.4385</ele><time>2026-05-09T19:36:20.000Z</time></trkpt>
        <trkpt lat="29.561158" lon="103.345023"><ele>1832.0457</ele><time>2026-05-09T19:36:37.000Z</time></trkpt>
        <trkpt lat="29.561192" lon="103.345064"><ele>1826.6436</ele><time>2026-05-09T19:36:46.000Z</time></trkpt>
        <trkpt lat="29.561197" lon="103.345122"><ele>1823.1741</ele><time>2026-05-09T19:36:56.000Z</time></trkpt>
        <trkpt lat="29.56125" lon="103.345158"><ele>1819.0509</ele><time>2026-05-09T19:37:04.000Z</time></trkpt>
        <trkpt lat="29.56128" lon="103.34521"><ele>1817.7711</ele><time>2026-05-09T19:37:10.000Z</time></trkpt>
        <trkpt lat="29.561325" lon="103.345196"><ele>1814.2604</ele><time>2026-05-09T19:37:16.000Z</time></trkpt>
        <trkpt lat="29.56136" lon="103.345232"><ele>1813.4319</ele><time>2026-05-09T19:37:22.000Z</time></trkpt>
        <trkpt lat="29.561395" lon="103.345269"><ele>1810.7552</ele><time>2026-05-09T19:37:30.000Z</time></trkpt>
        <trkpt lat="29.561425" lon="103.345316"><ele>1811.3129</ele><time>2026-05-09T19:37:36.000Z</time></trkpt>
        <trkpt lat="29.561454" lon="103.345359"><ele>1811.4286</ele><time>2026-05-09T19:37:40.000Z</time></trkpt>
        <trkpt lat="29.561489" lon="103.345395"><ele>1811.5262</ele><time>2026-05-09T19:37:43.000Z</time></trkpt>
        <trkpt lat="29.561506" lon="103.345444"><ele>1812.6771</ele><time>2026-05-09T19:37:47.000Z</time></trkpt>
        <trkpt lat="29.561529" lon="103.3455"><ele>1813.2615</ele><time>2026-05-09T19:37:52.000Z</time></trkpt>
        <trkpt lat="29.561572" lon="103.34553"><ele>1810.7816</ele><time>2026-05-09T19:37:58.000Z</time></trkpt>
        <trkpt lat="29.561612" lon="103.345558"><ele>1810.888</ele><time>2026-05-09T19:38:03.000Z</time></trkpt>
        <trkpt lat="29.561651" lon="103.345594"><ele>1811.2875</ele><time>2026-05-09T19:38:09.000Z</time></trkpt>
        <trkpt lat="29.561692" lon="103.345618"><ele>1811.8394</ele><time>2026-05-09T19:38:13.000Z</time></trkpt>
        <trkpt lat="29.56174" lon="103.345617"><ele>1811.756</ele><time>2026-05-09T19:38:18.000Z</time></trkpt>
        <trkpt lat="29.561791" lon="103.345611"><ele>1811.9784</ele><time>2026-05-09T19:38:23.000Z</time></trkpt>
        <trkpt lat="29.561839" lon="103.345617"><ele>1810.2157</ele><time>2026-05-09T19:38:27.000Z</time></trkpt>
        <trkpt lat="29.561879" lon="103.345593"><ele>1811.3009</ele><time>2026-05-09T19:38:30.000Z</time></trkpt>
        <trkpt lat="29.561931" lon="103.345606"><ele>1809.7966</ele><time>2026-05-09T19:38:36.000Z</time></trkpt>
        <trkpt lat="29.56198" lon="103.345607"><ele>1808.8562</ele><time>2026-05-09T19:38:41.000Z</time></trkpt>
        <trkpt lat="29.562025" lon="103.345614"><ele>1809.4791</ele><time>2026-05-09T19:38:44.000Z</time></trkpt>
        <trkpt lat="29.562083" lon="103.345613"><ele>1807.767</ele><time>2026-05-09T19:38:47.000Z</time></trkpt>
        <trkpt lat="29.562096" lon="103.345669"><ele>1805.8413</ele><time>2026-05-09T19:38:50.000Z</time></trkpt>
        <trkpt lat="29.562128" lon="103.345717"><ele>1806.0784</ele><time>2026-05-09T19:38:54.000Z</time></trkpt>
        <trkpt lat="29.562155" lon="103.345769"><ele>1806.4396</ele><time>2026-05-09T19:38:58.000Z</time></trkpt>
        <trkpt lat="29.562179" lon="103.345814"><ele>1806.3583</ele><time>2026-05-09T19:39:02.000Z</time></trkpt>
        <trkpt lat="29.562211" lon="103.345869"><ele>1806.1907</ele><time>2026-05-09T19:39:07.000Z</time></trkpt>
        <trkpt lat="29.562236" lon="103.345915"><ele>1806.8816</ele><time>2026-05-09T19:39:11.000Z</time></trkpt>
        <trkpt lat="29.562261" lon="103.345962"><ele>1807.977</ele><time>2026-05-09T19:39:15.000Z</time></trkpt>
        <trkpt lat="29.562274" lon="103.346019"><ele>1806.4077</ele><time>2026-05-09T19:39:20.000Z</time></trkpt>
        <trkpt lat="29.562301" lon="103.346071"><ele>1806.9219</ele><time>2026-05-09T19:39:24.000Z</time></trkpt>
        <trkpt lat="29.562339" lon="103.34611"><ele>1808.3429</ele><time>2026-05-09T19:39:28.000Z</time></trkpt>
        <trkpt lat="29.562378" lon="103.346146"><ele>1809.0873</ele><time>2026-05-09T19:39:32.000Z</time></trkpt>
        <trkpt lat="29.56241" lon="103.346188"><ele>1808.7429</ele><time>2026-05-09T19:39:36.000Z</time></trkpt>
        <trkpt lat="29.562445" lon="103.34623"><ele>1808.9485</ele><time>2026-05-09T19:39:40.000Z</time></trkpt>
        <trkpt lat="29.562483" lon="103.346263"><ele>1809.4161</ele><time>2026-05-09T19:39:43.000Z</time></trkpt>
        <trkpt lat="29.562511" lon="103.346307"><ele>1808.8948</ele><time>2026-05-09T19:39:47.000Z</time></trkpt>
        <trkpt lat="29.562542" lon="103.346345"><ele>1809.5767</ele><time>2026-05-09T19:39:51.000Z</time></trkpt>
        <trkpt lat="29.562589" lon="103.346373"><ele>1811.7284</ele><time>2026-05-09T19:39:55.000Z</time></trkpt>
        <trkpt lat="29.562634" lon="103.346407"><ele>1812.4391</ele><time>2026-05-09T19:40:00.000Z</time></trkpt>
        <trkpt lat="29.562667" lon="103.346443"><ele>1812.6877</ele><time>2026-05-09T19:40:04.000Z</time></trkpt>
        <trkpt lat="29.562712" lon="103.346469"><ele>1813.7092</ele><time>2026-05-09T19:40:08.000Z</time></trkpt>
        <trkpt lat="29.562758" lon="103.346465"><ele>1814.529</ele><time>2026-05-09T19:40:12.000Z</time></trkpt>
        <trkpt lat="29.562803" lon="103.346484"><ele>1814.3424</ele><time>2026-05-09T19:40:17.000Z</time></trkpt>
        <trkpt lat="29.562836" lon="103.346529"><ele>1813.2084</ele><time>2026-05-09T19:40:22.000Z</time></trkpt>
        <trkpt lat="29.562864" lon="103.346579"><ele>1812.9128</ele><time>2026-05-09T19:40:27.000Z</time></trkpt>
        <trkpt lat="29.562883" lon="103.346649"><ele>1813.2157</ele><time>2026-05-09T19:40:40.000Z</time></trkpt>
        <trkpt lat="29.562919" lon="103.34668"><ele>1812.8539</ele><time>2026-05-09T19:40:45.000Z</time></trkpt>
        <trkpt lat="29.562945" lon="103.346734"><ele>1813.8</ele><time>2026-05-09T19:40:52.000Z</time></trkpt>
        <trkpt lat="29.562982" lon="103.346766"><ele>1813.0981</ele><time>2026-05-09T19:40:57.000Z</time></trkpt>
        <trkpt lat="29.563015" lon="103.346802"><ele>1813.9366</ele><time>2026-05-09T19:41:01.000Z</time></trkpt>
        <trkpt lat="29.563054" lon="103.346842"><ele>1815.331</ele><time>2026-05-09T19:41:09.000Z</time></trkpt>
        <trkpt lat="29.563082" lon="103.34689"><ele>1817.252</ele><time>2026-05-09T19:41:14.000Z</time></trkpt>
        <trkpt lat="29.56312" lon="103.346926"><ele>1818.1936</ele><time>2026-05-09T19:41:20.000Z</time></trkpt>
        <trkpt lat="29.563153" lon="103.346967"><ele>1818.6045</ele><time>2026-05-09T19:41:25.000Z</time></trkpt>
        <trkpt lat="29.563189" lon="103.347011"><ele>1819.3708</ele><time>2026-05-09T19:41:28.000Z</time></trkpt>
        <trkpt lat="29.563221" lon="103.347055"><ele>1820.0042</ele><time>2026-05-09T19:41:32.000Z</time></trkpt>
        <trkpt lat="29.56326" lon="103.347098"><ele>1820.3932</ele><time>2026-05-09T19:41:36.000Z</time></trkpt>
        <trkpt lat="29.563311" lon="103.347126"><ele>1820.7163</ele><time>2026-05-09T19:41:40.000Z</time></trkpt>
        <trkpt lat="29.563358" lon="103.34716"><ele>1820.4952</ele><time>2026-05-09T19:41:44.000Z</time></trkpt>
        <trkpt lat="29.563403" lon="103.347194"><ele>1822.3011</ele><time>2026-05-09T19:41:48.000Z</time></trkpt>
        <trkpt lat="29.563447" lon="103.347232"><ele>1822.1257</ele><time>2026-05-09T19:41:52.000Z</time></trkpt>
        <trkpt lat="29.563489" lon="103.347273"><ele>1822.1292</ele><time>2026-05-09T19:41:56.000Z</time></trkpt>
        <trkpt lat="29.563514" lon="103.347324"><ele>1819.9761</ele><time>2026-05-09T19:42:00.000Z</time></trkpt>
        <trkpt lat="29.563544" lon="103.347366"><ele>1819.8823</ele><time>2026-05-09T19:42:04.000Z</time></trkpt>
        <trkpt lat="29.563554" lon="103.347418"><ele>1820.1147</ele><time>2026-05-09T19:42:07.000Z</time></trkpt>
        <trkpt lat="29.563581" lon="103.347471"><ele>1820.5181</ele><time>2026-05-09T19:42:11.000Z</time></trkpt>
        <trkpt lat="29.563615" lon="103.34751"><ele>1821.5592</ele><time>2026-05-09T19:42:16.000Z</time></trkpt>
        <trkpt lat="29.563602" lon="103.34756"><ele>1821.3296</ele><time>2026-05-09T19:42:19.000Z</time></trkpt>
        <trkpt lat="29.563567" lon="103.347603"><ele>1821.1986</ele><time>2026-05-09T19:42:24.000Z</time></trkpt>
        <trkpt lat="29.563563" lon="103.347658"><ele>1821.688</ele><time>2026-05-09T19:42:31.000Z</time></trkpt>
        <trkpt lat="29.563573" lon="103.347717"><ele>1823.8475</ele><time>2026-05-09T19:42:38.000Z</time></trkpt>
        <trkpt lat="29.563591" lon="103.347774"><ele>1824.3391</ele><time>2026-05-09T19:42:43.000Z</time></trkpt>
        <trkpt lat="29.563596" lon="103.347827"><ele>1824.7222</ele><time>2026-05-09T19:42:48.000Z</time></trkpt>
        <trkpt lat="29.563594" lon="103.347884"><ele>1826.6174</ele><time>2026-05-09T19:42:53.000Z</time></trkpt>
        <trkpt lat="29.563577" lon="103.347955"><ele>1828.2098</ele><time>2026-05-09T19:42:59.000Z</time></trkpt>
        <trkpt lat="29.563541" lon="103.347992"><ele>1828.8602</ele><time>2026-05-09T19:43:04.000Z</time></trkpt>
        <trkpt lat="29.563495" lon="103.348035"><ele>1828.1115</ele><time>2026-05-09T19:43:09.000Z</time></trkpt>
        <trkpt lat="29.563461" lon="103.348083"><ele>1829.1091</ele><time>2026-05-09T19:43:13.000Z</time></trkpt>
        <trkpt lat="29.563443" lon="103.348134"><ele>1829.2899</ele><time>2026-05-09T19:43:17.000Z</time></trkpt>
        <trkpt lat="29.563422" lon="103.348192"><ele>1828.4299</ele><time>2026-05-09T19:43:22.000Z</time></trkpt>
        <trkpt lat="29.563384" lon="103.348234"><ele>1828.0737</ele><time>2026-05-09T19:43:26.000Z</time></trkpt>
        <trkpt lat="29.563345" lon="103.348276"><ele>1827.2228</ele><time>2026-05-09T19:43:32.000Z</time></trkpt>
        <trkpt lat="29.563306" lon="103.348323"><ele>1827.2976</ele><time>2026-05-09T19:43:37.000Z</time></trkpt>
        <trkpt lat="29.563277" lon="103.348379"><ele>1825.8081</ele><time>2026-05-09T19:43:42.000Z</time></trkpt>
        <trkpt lat="29.563265" lon="103.348437"><ele>1826.1074</ele><time>2026-05-09T19:43:46.000Z</time></trkpt>
        <trkpt lat="29.563259" lon="103.348501"><ele>1825.5205</ele><time>2026-05-09T19:43:50.000Z</time></trkpt>
        <trkpt lat="29.563247" lon="103.348559"><ele>1825.3228</ele><time>2026-05-09T19:43:53.000Z</time></trkpt>
        <trkpt lat="29.563242" lon="103.348625"><ele>1824.1196</ele><time>2026-05-09T19:43:57.000Z</time></trkpt>
        <trkpt lat="29.563222" lon="103.348677"><ele>1823.8608</ele><time>2026-05-09T19:44:01.000Z</time></trkpt>
        <trkpt lat="29.563197" lon="103.348737"><ele>1823.3752</ele><time>2026-05-09T19:44:05.000Z</time></trkpt>
        <trkpt lat="29.563197" lon="103.348791"><ele>1823.3005</ele><time>2026-05-09T19:44:08.000Z</time></trkpt>
        <trkpt lat="29.56322" lon="103.348854"><ele>1825.7638</ele><time>2026-05-09T19:44:12.000Z</time></trkpt>
        <trkpt lat="29.563251" lon="103.348894"><ele>1825.6387</ele><time>2026-05-09T19:44:15.000Z</time></trkpt>
        <trkpt lat="29.563243" lon="103.348951"><ele>1824.5103</ele><time>2026-05-09T19:44:20.000Z</time></trkpt>
        <trkpt lat="29.563224" lon="103.349003"><ele>1823.7642</ele><time>2026-05-09T19:44:24.000Z</time></trkpt>
        <trkpt lat="29.563207" lon="103.349056"><ele>1822.512</ele><time>2026-05-09T19:44:28.000Z</time></trkpt>
        <trkpt lat="29.563227" lon="103.349104"><ele>1821.9827</ele><time>2026-05-09T19:44:32.000Z</time></trkpt>
        <trkpt lat="29.563228" lon="103.349167"><ele>1821.3545</ele><time>2026-05-09T19:44:37.000Z</time></trkpt>
        <trkpt lat="29.563198" lon="103.349207"><ele>1820.8937</ele><time>2026-05-09T19:44:41.000Z</time></trkpt>
        <trkpt lat="29.563185" lon="103.349257"><ele>1820.0514</ele><time>2026-05-09T19:44:44.000Z</time></trkpt>
        <trkpt lat="29.563165" lon="103.349305"><ele>1820.0221</ele><time>2026-05-09T19:44:47.000Z</time></trkpt>
        <trkpt lat="29.56314" lon="103.349353"><ele>1820.4207</ele><time>2026-05-09T19:44:52.000Z</time></trkpt>
        <trkpt lat="29.563129" lon="103.349413"><ele>1820.9902</ele><time>2026-05-09T19:44:56.000Z</time></trkpt>
        <trkpt lat="29.563135" lon="103.349477"><ele>1821.034</ele><time>2026-05-09T19:45:00.000Z</time></trkpt>
        <trkpt lat="29.563096" lon="103.349507"><ele>1819.4156</ele><time>2026-05-09T19:45:03.000Z</time></trkpt>
        <trkpt lat="29.563054" lon="103.349555"><ele>1819.6807</ele><time>2026-05-09T19:45:07.000Z</time></trkpt>
        <trkpt lat="29.563021" lon="103.349611"><ele>1819.7993</ele><time>2026-05-09T19:45:11.000Z</time></trkpt>
        <trkpt lat="29.562988" lon="103.349655"><ele>1819.9509</ele><time>2026-05-09T19:45:15.000Z</time></trkpt>
        <trkpt lat="29.562968" lon="103.349714"><ele>1821.2552</ele><time>2026-05-09T19:45:19.000Z</time></trkpt>
        <trkpt lat="29.56294" lon="103.34977"><ele>1820.475</ele><time>2026-05-09T19:45:23.000Z</time></trkpt>
        <trkpt lat="29.562906" lon="103.349819"><ele>1818.4585</ele><time>2026-05-09T19:45:28.000Z</time></trkpt>
        <trkpt lat="29.562902" lon="103.349877"><ele>1818.8458</ele><time>2026-05-09T19:45:32.000Z</time></trkpt>
        <trkpt lat="29.562906" lon="103.349929"><ele>1818.995</ele><time>2026-05-09T19:45:36.000Z</time></trkpt>
        <trkpt lat="29.562904" lon="103.349987"><ele>1818.0931</ele><time>2026-05-09T19:45:41.000Z</time></trkpt>
        <trkpt lat="29.562909" lon="103.350046"><ele>1819.9562</ele><time>2026-05-09T19:45:44.000Z</time></trkpt>
        <trkpt lat="29.56291" lon="103.350107"><ele>1819.845</ele><time>2026-05-09T19:45:48.000Z</time></trkpt>
        <trkpt lat="29.562898" lon="103.350172"><ele>1819.5248</ele><time>2026-05-09T19:45:52.000Z</time></trkpt>
        <trkpt lat="29.562875" lon="103.350223"><ele>1819.8173</ele><time>2026-05-09T19:45:55.000Z</time></trkpt>
        <trkpt lat="29.562857" lon="103.350271"><ele>1820.587</ele><time>2026-05-09T19:45:59.000Z</time></trkpt>
        <trkpt lat="29.562837" lon="103.350323"><ele>1820.9194</ele><time>2026-05-09T19:46:03.000Z</time></trkpt>
        <trkpt lat="29.56284" lon="103.350382"><ele>1822.326</ele><time>2026-05-09T19:46:08.000Z</time></trkpt>
        <trkpt lat="29.562823" lon="103.350431"><ele>1823.0275</ele><time>2026-05-09T19:46:12.000Z</time></trkpt>
        <trkpt lat="29.562813" lon="103.350489"><ele>1822.2026</ele><time>2026-05-09T19:46:17.000Z</time></trkpt>
        <trkpt lat="29.56281" lon="103.350546"><ele>1824.3973</ele><time>2026-05-09T19:46:22.000Z</time></trkpt>
        <trkpt lat="29.562798" lon="103.350603"><ele>1825.9774</ele><time>2026-05-09T19:46:27.000Z</time></trkpt>
        <trkpt lat="29.562817" lon="103.350651"><ele>1827.8118</ele><time>2026-05-09T19:46:31.000Z</time></trkpt>
        <trkpt lat="29.562838" lon="103.350701"><ele>1830.2651</ele><time>2026-05-09T19:46:35.000Z</time></trkpt>
        <trkpt lat="29.562852" lon="103.35075"><ele>1832.0099</ele><time>2026-05-09T19:46:41.000Z</time></trkpt>
        <trkpt lat="29.56289" lon="103.350783"><ele>1830.7246</ele><time>2026-05-09T19:48:31.000Z</time></trkpt>
        <trkpt lat="29.562936" lon="103.350803"><ele>1829.0701</ele><time>2026-05-09T19:48:38.000Z</time></trkpt>
        <trkpt lat="29.56295" lon="103.350859"><ele>1828.9736</ele><time>2026-05-09T19:48:42.000Z</time></trkpt>
        <trkpt lat="29.562962" lon="103.35092"><ele>1829.3671</ele><time>2026-05-09T19:48:47.000Z</time></trkpt>
        <trkpt lat="29.562978" lon="103.350979"><ele>1828.03</ele><time>2026-05-09T19:48:53.000Z</time></trkpt>
        <trkpt lat="29.563" lon="103.351033"><ele>1828.4742</ele><time>2026-05-09T19:48:59.000Z</time></trkpt>
        <trkpt lat="29.563018" lon="103.351082"><ele>1828.5466</ele><time>2026-05-09T19:49:05.000Z</time></trkpt>
        <trkpt lat="29.563023" lon="103.351135"><ele>1827.3921</ele><time>2026-05-09T19:49:09.000Z</time></trkpt>
        <trkpt lat="29.563031" lon="103.351198"><ele>1833.1759</ele><time>2026-05-09T19:49:17.000Z</time></trkpt>
        <trkpt lat="29.563056" lon="103.351242"><ele>1836.6567</ele><time>2026-05-09T19:49:22.000Z</time></trkpt>
        <trkpt lat="29.563067" lon="103.351293"><ele>1835.7314</ele><time>2026-05-09T19:49:28.000Z</time></trkpt>
        <trkpt lat="29.563041" lon="103.351341"><ele>1834.6207</ele><time>2026-05-09T19:49:36.000Z</time></trkpt>
        <trkpt lat="29.563018" lon="103.351391"><ele>1840.0586</ele><time>2026-05-09T19:49:42.000Z</time></trkpt>
        <trkpt lat="29.562979" lon="103.351431"><ele>1841.2883</ele><time>2026-05-09T19:49:47.000Z</time></trkpt>
        <trkpt lat="29.56297" lon="103.351493"><ele>1842.5547</ele><time>2026-05-09T19:49:53.000Z</time></trkpt>
        <trkpt lat="29.56299" lon="103.351541"><ele>1845.5471</ele><time>2026-05-09T19:50:04.000Z</time></trkpt>
        <trkpt lat="29.563018" lon="103.351581"><ele>1845.6611</ele><time>2026-05-09T19:50:09.000Z</time></trkpt>
        <trkpt lat="29.563032" lon="103.351631"><ele>1847.3157</ele><time>2026-05-09T19:50:16.000Z</time></trkpt>
        <trkpt lat="29.563032" lon="103.351694"><ele>1848.9995</ele><time>2026-05-09T19:50:23.000Z</time></trkpt>
        <trkpt lat="29.563038" lon="103.35175"><ele>1847.2173</ele><time>2026-05-09T19:50:29.000Z</time></trkpt>
        <trkpt lat="29.56304" lon="103.351806"><ele>1849.3672</ele><time>2026-05-09T19:50:36.000Z</time></trkpt>
        <trkpt lat="29.56304" lon="103.351861"><ele>1851.6254</ele><time>2026-05-09T19:50:43.000Z</time></trkpt>
        <trkpt lat="29.563065" lon="103.351906"><ele>1849.7783</ele><time>2026-05-09T19:50:47.000Z</time></trkpt>
        <trkpt lat="29.563089" lon="103.351971"><ele>1848.6516</ele><time>2026-05-09T19:50:52.000Z</time></trkpt>
        <trkpt lat="29.563096" lon="103.352026"><ele>1849.5374</ele><time>2026-05-09T19:50:58.000Z</time></trkpt>
        <trkpt lat="29.563113" lon="103.352077"><ele>1847.4775</ele><time>2026-05-09T19:51:14.000Z</time></trkpt>
        <trkpt lat="29.563135" lon="103.352135"><ele>1847.135</ele><time>2026-05-09T19:51:18.000Z</time></trkpt>
        <trkpt lat="29.563158" lon="103.352184"><ele>1846.6078</ele><time>2026-05-09T19:51:22.000Z</time></trkpt>
        <trkpt lat="29.563167" lon="103.352248"><ele>1846.3905</ele><time>2026-05-09T19:51:27.000Z</time></trkpt>
        <trkpt lat="29.563185" lon="103.352304"><ele>1845.4921</ele><time>2026-05-09T19:51:32.000Z</time></trkpt>
        <trkpt lat="29.56318" lon="103.352362"><ele>1844.7286</ele><time>2026-05-09T19:51:36.000Z</time></trkpt>
        <trkpt lat="29.563153" lon="103.352404"><ele>1846.6129</ele><time>2026-05-09T19:51:40.000Z</time></trkpt>
        <trkpt lat="29.563125" lon="103.352456"><ele>1846.9586</ele><time>2026-05-09T19:51:45.000Z</time></trkpt>
        <trkpt lat="29.563101" lon="103.352508"><ele>1847.0546</ele><time>2026-05-09T19:51:52.000Z</time></trkpt>
        <trkpt lat="29.563072" lon="103.352552"><ele>1844.052</ele><time>2026-05-09T19:51:58.000Z</time></trkpt>
        <trkpt lat="29.563052" lon="103.352603"><ele>1848.5499</ele><time>2026-05-09T19:52:05.000Z</time></trkpt>
        <trkpt lat="29.56303" lon="103.352649"><ele>1851.222</ele><time>2026-05-09T19:52:13.000Z</time></trkpt>
        <trkpt lat="29.562996" lon="103.352693"><ele>1853.9327</ele><time>2026-05-09T19:52:22.000Z</time></trkpt>
        <trkpt lat="29.562951" lon="103.352722"><ele>1853.6207</ele><time>2026-05-09T19:52:32.000Z</time></trkpt>
        <trkpt lat="29.562941" lon="103.35278"><ele>1851.6761</ele><time>2026-05-09T19:52:40.000Z</time></trkpt>
        <trkpt lat="29.56296" lon="103.352827"><ele>1853.5093</ele><time>2026-05-09T19:52:59.000Z</time></trkpt>
        <trkpt lat="29.562972" lon="103.352879"><ele>1860.3136</ele><time>2026-05-09T19:53:15.000Z</time></trkpt>
        <trkpt lat="29.562985" lon="103.352929"><ele>1862.492</ele><time>2026-05-09T19:53:22.000Z</time></trkpt>
        <trkpt lat="29.563009" lon="103.352973"><ele>1864.1777</ele><time>2026-05-09T19:53:28.000Z</time></trkpt>
        <trkpt lat="29.56303" lon="103.353021"><ele>1864.4329</ele><time>2026-05-09T19:53:32.000Z</time></trkpt>
        <trkpt lat="29.563053" lon="103.353067"><ele>1865.643</ele><time>2026-05-09T19:53:37.000Z</time></trkpt>
        <trkpt lat="29.563066" lon="103.353126"><ele>1865.9688</ele><time>2026-05-09T19:53:42.000Z</time></trkpt>
        <trkpt lat="29.563091" lon="103.353179"><ele>1867.5648</ele><time>2026-05-09T19:53:47.000Z</time></trkpt>
        <trkpt lat="29.563105" lon="103.353241"><ele>1869.2522</ele><time>2026-05-09T19:53:52.000Z</time></trkpt>
        <trkpt lat="29.563116" lon="103.353302"><ele>1871.4194</ele><time>2026-05-09T19:53:57.000Z</time></trkpt>
        <trkpt lat="29.563136" lon="103.353351"><ele>1874.344</ele><time>2026-05-09T19:54:02.000Z</time></trkpt>
        <trkpt lat="29.563157" lon="103.353412"><ele>1876.3954</ele><time>2026-05-09T19:54:07.000Z</time></trkpt>
        <trkpt lat="29.563146" lon="103.353474"><ele>1876.785</ele><time>2026-05-09T19:54:14.000Z</time></trkpt>
        <trkpt lat="29.563129" lon="103.353524"><ele>1876.9246</ele><time>2026-05-09T19:54:20.000Z</time></trkpt>
        <trkpt lat="29.563124" lon="103.353577"><ele>1876.538</ele><time>2026-05-09T19:54:25.000Z</time></trkpt>
        <trkpt lat="29.563133" lon="103.353648"><ele>1878.1761</ele><time>2026-05-09T19:54:31.000Z</time></trkpt>
        <trkpt lat="29.563161" lon="103.353702"><ele>1875.1891</ele><time>2026-05-09T19:54:39.000Z</time></trkpt>
        <trkpt lat="29.563178" lon="103.353758"><ele>1875.4626</ele><time>2026-05-09T19:54:43.000Z</time></trkpt>
        <trkpt lat="29.563188" lon="103.353819"><ele>1875.9277</ele><time>2026-05-09T19:54:47.000Z</time></trkpt>
        <trkpt lat="29.56318" lon="103.353874"><ele>1875.9625</ele><time>2026-05-09T19:54:51.000Z</time></trkpt>
        <trkpt lat="29.563177" lon="103.353932"><ele>1877.3055</ele><time>2026-05-09T19:54:55.000Z</time></trkpt>
        <trkpt lat="29.563189" lon="103.353991"><ele>1875.958</ele><time>2026-05-09T19:55:00.000Z</time></trkpt>
        <trkpt lat="29.563213" lon="103.354036"><ele>1875.7854</ele><time>2026-05-09T19:55:04.000Z</time></trkpt>
        <trkpt lat="29.563238" lon="103.354081"><ele>1875.8427</ele><time>2026-05-09T19:55:08.000Z</time></trkpt>
        <trkpt lat="29.56327" lon="103.354139"><ele>1874.606</ele><time>2026-05-09T19:55:14.000Z</time></trkpt>
        <trkpt lat="29.563275" lon="103.354203"><ele>1873.8524</ele><time>2026-05-09T19:55:19.000Z</time></trkpt>
        <trkpt lat="29.563299" lon="103.354252"><ele>1873.5554</ele><time>2026-05-09T19:55:24.000Z</time></trkpt>
        <trkpt lat="29.563302" lon="103.354306"><ele>1872.466</ele><time>2026-05-09T19:55:30.000Z</time></trkpt>
        <trkpt lat="29.563309" lon="103.354358"><ele>1872.9984</ele><time>2026-05-09T19:55:33.000Z</time></trkpt>
        <trkpt lat="29.563344" lon="103.354421"><ele>1874.3672</ele><time>2026-05-09T19:55:39.000Z</time></trkpt>
        <trkpt lat="29.563374" lon="103.354462"><ele>1874.1052</ele><time>2026-05-09T19:55:43.000Z</time></trkpt>
        <trkpt lat="29.563394" lon="103.354509"><ele>1875.8198</ele><time>2026-05-09T19:55:47.000Z</time></trkpt>
        <trkpt lat="29.563423" lon="103.354559"><ele>1875.3986</ele><time>2026-05-09T19:55:51.000Z</time></trkpt>
        <trkpt lat="29.563469" lon="103.354591"><ele>1874.9027</ele><time>2026-05-09T19:55:56.000Z</time></trkpt>
        <trkpt lat="29.56351" lon="103.354617"><ele>1874.5638</ele><time>2026-05-09T19:55:59.000Z</time></trkpt>
        <trkpt lat="29.56355" lon="103.35466"><ele>1873.3824</ele><time>2026-05-09T19:56:03.000Z</time></trkpt>
        <trkpt lat="29.563559" lon="103.354722"><ele>1872.1659</ele><time>2026-05-09T19:56:06.000Z</time></trkpt>
        <trkpt lat="29.563555" lon="103.35478"><ele>1872.9417</ele><time>2026-05-09T19:56:10.000Z</time></trkpt>
        <trkpt lat="29.563588" lon="103.354834"><ele>1874.2595</ele><time>2026-05-09T19:56:14.000Z</time></trkpt>
        <trkpt lat="29.563627" lon="103.354872"><ele>1874.018</ele><time>2026-05-09T19:56:18.000Z</time></trkpt>
        <trkpt lat="29.563666" lon="103.354903"><ele>1873.2858</ele><time>2026-05-09T19:56:23.000Z</time></trkpt>
        <trkpt lat="29.563708" lon="103.354948"><ele>1874.9896</ele><time>2026-05-09T19:56:28.000Z</time></trkpt>
        <trkpt lat="29.563752" lon="103.354977"><ele>1874.3826</ele><time>2026-05-09T19:56:31.000Z</time></trkpt>
        <trkpt lat="29.563794" lon="103.355021"><ele>1873.8282</ele><time>2026-05-09T19:56:35.000Z</time></trkpt>
        <trkpt lat="29.563819" lon="103.355074"><ele>1875.388</ele><time>2026-05-09T19:56:39.000Z</time></trkpt>
        <trkpt lat="29.563849" lon="103.35513"><ele>1874.5264</ele><time>2026-05-09T19:56:44.000Z</time></trkpt>
        <trkpt lat="29.563884" lon="103.355165"><ele>1876.46</ele><time>2026-05-09T19:56:48.000Z</time></trkpt>
        <trkpt lat="29.563919" lon="103.355207"><ele>1876.966</ele><time>2026-05-09T19:56:54.000Z</time></trkpt>
        <trkpt lat="29.563938" lon="103.355262"><ele>1878.6049</ele><time>2026-05-09T19:57:00.000Z</time></trkpt>
        <trkpt lat="29.563933" lon="103.355317"><ele>1881.6271</ele><time>2026-05-09T19:57:06.000Z</time></trkpt>
        <trkpt lat="29.563924" lon="103.355368"><ele>1881.2269</ele><time>2026-05-09T19:57:09.000Z</time></trkpt>
        <trkpt lat="29.563935" lon="103.355428"><ele>1881.0647</ele><time>2026-05-09T19:57:16.000Z</time></trkpt>
        <trkpt lat="29.563955" lon="103.355475"><ele>1882.595</ele><time>2026-05-09T19:57:22.000Z</time></trkpt>
        <trkpt lat="29.563973" lon="103.355526"><ele>1882.1471</ele><time>2026-05-09T19:57:28.000Z</time></trkpt>
        <trkpt lat="29.563969" lon="103.355583"><ele>1884.2976</ele><time>2026-05-09T19:57:34.000Z</time></trkpt>
        <trkpt lat="29.563991" lon="103.35563"><ele>1883.1375</ele><time>2026-05-09T19:57:41.000Z</time></trkpt>
        <trkpt lat="29.563983" lon="103.355686"><ele>1883.0566</ele><time>2026-05-09T19:57:48.000Z</time></trkpt>
        <trkpt lat="29.563993" lon="103.355739"><ele>1885.5552</ele><time>2026-05-09T19:57:54.000Z</time></trkpt>
        <trkpt lat="29.56401" lon="103.355788"><ele>1886.0845</ele><time>2026-05-09T19:58:00.000Z</time></trkpt>
        <trkpt lat="29.564024" lon="103.35584"><ele>1889.3477</ele><time>2026-05-09T19:58:05.000Z</time></trkpt>
        <trkpt lat="29.564033" lon="103.355892"><ele>1890.3849</ele><time>2026-05-09T19:58:14.000Z</time></trkpt>
        <trkpt lat="29.564027" lon="103.355954"><ele>1892.5676</ele><time>2026-05-09T19:58:22.000Z</time></trkpt>
        <trkpt lat="29.564052" lon="103.356001"><ele>1893.2545</ele><time>2026-05-09T19:58:28.000Z</time></trkpt>
        <trkpt lat="29.564057" lon="103.356053"><ele>1895.0876</ele><time>2026-05-09T19:58:33.000Z</time></trkpt>
        <trkpt lat="29.564066" lon="103.356106"><ele>1894.2346</ele><time>2026-05-09T19:58:41.000Z</time></trkpt>
        <trkpt lat="29.564088" lon="103.356162"><ele>1897.2777</ele><time>2026-05-09T19:59:00.000Z</time></trkpt>
        <trkpt lat="29.564113" lon="103.356214"><ele>1898.1317</ele><time>2026-05-09T19:59:06.000Z</time></trkpt>
        <trkpt lat="29.564097" lon="103.356267"><ele>1897.3414</ele><time>2026-05-09T19:59:12.000Z</time></trkpt>
        <trkpt lat="29.564113" lon="103.356324"><ele>1898.7826</ele><time>2026-05-09T19:59:18.000Z</time></trkpt>
        <trkpt lat="29.564131" lon="103.356376"><ele>1900.1367</ele><time>2026-05-09T19:59:29.000Z</time></trkpt>
        <trkpt lat="29.564148" lon="103.356425"><ele>1900.9573</ele><time>2026-05-09T19:59:40.000Z</time></trkpt>
        <trkpt lat="29.564183" lon="103.356461"><ele>1901.3854</ele><time>2026-05-09T20:00:16.000Z</time></trkpt>
        <trkpt lat="29.564228" lon="103.356444"><ele>1899.8046</ele><time>2026-05-09T20:00:22.000Z</time></trkpt>
        <trkpt lat="29.564273" lon="103.356427"><ele>1897.906</ele><time>2026-05-09T20:00:28.000Z</time></trkpt>
        <trkpt lat="29.564318" lon="103.356397"><ele>1895.9828</ele><time>2026-05-09T20:00:35.000Z</time></trkpt>
        <trkpt lat="29.564354" lon="103.356356"><ele>1891.8646</ele><time>2026-05-09T20:00:45.000Z</time></trkpt>
        <trkpt lat="29.564384" lon="103.356308"><ele>1890.7484</ele><time>2026-05-09T20:00:52.000Z</time></trkpt>
        <trkpt lat="29.564399" lon="103.356252"><ele>1887.8295</ele><time>2026-05-09T20:00:58.000Z</time></trkpt>
        <trkpt lat="29.564377" lon="103.356197"><ele>1885.928</ele><time>2026-05-09T20:01:04.000Z</time></trkpt>
        <trkpt lat="29.564365" lon="103.356144"><ele>1885.6564</ele><time>2026-05-09T20:01:10.000Z</time></trkpt>
        <trkpt lat="29.564405" lon="103.35617"><ele>1884.1467</ele><time>2026-05-09T20:01:19.000Z</time></trkpt>
        <trkpt lat="29.564444" lon="103.356195"><ele>1883.346</ele><time>2026-05-09T20:01:25.000Z</time></trkpt>
        <trkpt lat="29.564491" lon="103.356172"><ele>1882.3384</ele><time>2026-05-09T20:01:30.000Z</time></trkpt>
        <trkpt lat="29.564505" lon="103.356118"><ele>1879.599</ele><time>2026-05-09T20:01:36.000Z</time></trkpt>
        <trkpt lat="29.564538" lon="103.356076"><ele>1876.636</ele><time>2026-05-09T20:01:42.000Z</time></trkpt>
        <trkpt lat="29.564561" lon="103.356027"><ele>1876.1823</ele><time>2026-05-09T20:01:47.000Z</time></trkpt>
        <trkpt lat="29.564606" lon="103.356037"><ele>1874.1096</ele><time>2026-05-09T20:01:55.000Z</time></trkpt>
        <trkpt lat="29.564651" lon="103.356083"><ele>1871.6598</ele><time>2026-05-09T20:02:02.000Z</time></trkpt>
        <trkpt lat="29.564627" lon="103.356129"><ele>1871.9319</ele><time>2026-05-09T20:02:06.000Z</time></trkpt>
        <trkpt lat="29.564624" lon="103.356188"><ele>1871.5004</ele><time>2026-05-09T20:02:10.000Z</time></trkpt>
        <trkpt lat="29.564663" lon="103.356241"><ele>1869.9965</ele><time>2026-05-09T20:02:17.000Z</time></trkpt>
        <trkpt lat="29.564694" lon="103.356296"><ele>1870.3293</ele><time>2026-05-09T20:02:21.000Z</time></trkpt>
        <trkpt lat="29.564719" lon="103.356348"><ele>1870.6682</ele><time>2026-05-09T20:02:26.000Z</time></trkpt>
        <trkpt lat="29.564762" lon="103.356368"><ele>1869.1713</ele><time>2026-05-09T20:02:30.000Z</time></trkpt>
        <trkpt lat="29.564793" lon="103.356412"><ele>1867.1042</ele><time>2026-05-09T20:02:35.000Z</time></trkpt>
        <trkpt lat="29.564827" lon="103.356453"><ele>1866.4579</ele><time>2026-05-09T20:02:40.000Z</time></trkpt>
        <trkpt lat="29.564864" lon="103.356502"><ele>1863.6777</ele><time>2026-05-09T20:02:45.000Z</time></trkpt>
        <trkpt lat="29.564899" lon="103.356555"><ele>1862.397</ele><time>2026-05-09T20:02:50.000Z</time></trkpt>
        <trkpt lat="29.564922" lon="103.356599"><ele>1861.0951</ele><time>2026-05-09T20:02:53.000Z</time></trkpt>
        <trkpt lat="29.564986" lon="103.356616"><ele>1858.6383</ele><time>2026-05-09T20:02:59.000Z</time></trkpt>
        <trkpt lat="29.565036" lon="103.356628"><ele>1857.6702</ele><time>2026-05-09T20:03:04.000Z</time></trkpt>
        <trkpt lat="29.565079" lon="103.356656"><ele>1857.3993</ele><time>2026-05-09T20:03:09.000Z</time></trkpt>
        <trkpt lat="29.565124" lon="103.356676"><ele>1855.743</ele><time>2026-05-09T20:03:15.000Z</time></trkpt>
        <trkpt lat="29.565163" lon="103.356707"><ele>1855.1709</ele><time>2026-05-09T20:03:19.000Z</time></trkpt>
        <trkpt lat="29.565204" lon="103.356741"><ele>1852.8074</ele><time>2026-05-09T20:03:26.000Z</time></trkpt>
        <trkpt lat="29.56525" lon="103.35677"><ele>1852.1954</ele><time>2026-05-09T20:03:30.000Z</time></trkpt>
        <trkpt lat="29.565294" lon="103.3568"><ele>1851.6976</ele><time>2026-05-09T20:03:36.000Z</time></trkpt>
        <trkpt lat="29.565338" lon="103.356813"><ele>1849.0778</ele><time>2026-05-09T20:03:41.000Z</time></trkpt>
        <trkpt lat="29.565383" lon="103.356827"><ele>1847.992</ele><time>2026-05-09T20:03:46.000Z</time></trkpt>
        <trkpt lat="29.565421" lon="103.356869"><ele>1845.1553</ele><time>2026-05-09T20:03:54.000Z</time></trkpt>
        <trkpt lat="29.565447" lon="103.356919"><ele>1843.4065</ele><time>2026-05-09T20:03:59.000Z</time></trkpt>
        <trkpt lat="29.565463" lon="103.356976"><ele>1842.6272</ele><time>2026-05-09T20:04:04.000Z</time></trkpt>
        <trkpt lat="29.565492" lon="103.357026"><ele>1841.7018</ele><time>2026-05-09T20:04:09.000Z</time></trkpt>
        <trkpt lat="29.565514" lon="103.357078"><ele>1840.6637</ele><time>2026-05-09T20:04:14.000Z</time></trkpt>
        <trkpt lat="29.565538" lon="103.35713"><ele>1839.3297</ele><time>2026-05-09T20:04:19.000Z</time></trkpt>
        <trkpt lat="29.565564" lon="103.357177"><ele>1837.74</ele><time>2026-05-09T20:04:26.000Z</time></trkpt>
        <trkpt lat="29.5656" lon="103.357214"><ele>1831.6014</ele><time>2026-05-09T20:04:32.000Z</time></trkpt>
        <trkpt lat="29.565621" lon="103.357262"><ele>1830.4404</ele><time>2026-05-09T20:04:36.000Z</time></trkpt>
        <trkpt lat="29.565654" lon="103.357313"><ele>1828.4985</ele><time>2026-05-09T20:04:40.000Z</time></trkpt>
        <trkpt lat="29.565691" lon="103.357353"><ele>1829.2932</ele><time>2026-05-09T20:04:43.000Z</time></trkpt>
        <trkpt lat="29.565733" lon="103.357396"><ele>1827.8998</ele><time>2026-05-09T20:04:47.000Z</time></trkpt>
        <trkpt lat="29.565786" lon="103.357412"><ele>1827.4648</ele><time>2026-05-09T20:04:51.000Z</time></trkpt>
        <trkpt lat="29.565828" lon="103.357434"><ele>1824.7927</ele><time>2026-05-09T20:04:55.000Z</time></trkpt>
        <trkpt lat="29.565866" lon="103.357463"><ele>1827.8773</ele><time>2026-05-09T20:04:59.000Z</time></trkpt>
        <trkpt lat="29.565911" lon="103.35749"><ele>1829.0044</ele><time>2026-05-09T20:05:04.000Z</time></trkpt>
        <trkpt lat="29.565944" lon="103.35753"><ele>1825.9591</ele><time>2026-05-09T20:05:13.000Z</time></trkpt>
        <trkpt lat="29.565957" lon="103.35758"><ele>1821.2941</ele><time>2026-05-09T20:05:23.000Z</time></trkpt>
        <trkpt lat="29.565989" lon="103.357621"><ele>1817.6654</ele><time>2026-05-09T20:05:30.000Z</time></trkpt>
        <trkpt lat="29.566014" lon="103.357671"><ele>1813.5697</ele><time>2026-05-09T20:05:35.000Z</time></trkpt>
        <trkpt lat="29.566021" lon="103.357725"><ele>1813.3582</ele><time>2026-05-09T20:05:38.000Z</time></trkpt>
        <trkpt lat="29.566039" lon="103.357775"><ele>1814.147</ele><time>2026-05-09T20:05:42.000Z</time></trkpt>
        <trkpt lat="29.566054" lon="103.357841"><ele>1811.7261</ele><time>2026-05-09T20:05:49.000Z</time></trkpt>
        <trkpt lat="29.566054" lon="103.357899"><ele>1811.631</ele><time>2026-05-09T20:05:55.000Z</time></trkpt>
        <trkpt lat="29.566071" lon="103.357956"><ele>1810.1757</ele><time>2026-05-09T20:06:01.000Z</time></trkpt>
        <trkpt lat="29.566106" lon="103.358002"><ele>1807.7808</ele><time>2026-05-09T20:06:07.000Z</time></trkpt>
        <trkpt lat="29.566133" lon="103.358044"><ele>1805.406</ele><time>2026-05-09T20:06:13.000Z</time></trkpt>
        <trkpt lat="29.566146" lon="103.358098"><ele>1803.706</ele><time>2026-05-09T20:06:18.000Z</time></trkpt>
        <trkpt lat="29.566174" lon="103.358142"><ele>1800.6569</ele><time>2026-05-09T20:06:24.000Z</time></trkpt>
        <trkpt lat="29.5662" lon="103.358186"><ele>1798.0717</ele><time>2026-05-09T20:06:30.000Z</time></trkpt>
        <trkpt lat="29.566214" lon="103.358236"><ele>1797.6118</ele><time>2026-05-09T20:06:34.000Z</time></trkpt>
        <trkpt lat="29.566226" lon="103.358288"><ele>1795.7543</ele><time>2026-05-09T20:06:41.000Z</time></trkpt>
        <trkpt lat="29.566239" lon="103.358341"><ele>1794.4504</ele><time>2026-05-09T20:06:48.000Z</time></trkpt>
        <trkpt lat="29.566239" lon="103.358397"><ele>1794.578</ele><time>2026-05-09T20:06:51.000Z</time></trkpt>
        <trkpt lat="29.56623" lon="103.358459"><ele>1793.997</ele><time>2026-05-09T20:06:56.000Z</time></trkpt>
        <trkpt lat="29.566222" lon="103.35851"><ele>1795.3214</ele><time>2026-05-09T20:06:59.000Z</time></trkpt>
        <trkpt lat="29.566213" lon="103.358566"><ele>1791.777</ele><time>2026-05-09T20:07:03.000Z</time></trkpt>
        <trkpt lat="29.566235" lon="103.358619"><ele>1788.1044</ele><time>2026-05-09T20:07:08.000Z</time></trkpt>
        <trkpt lat="29.566242" lon="103.358676"><ele>1787.0247</ele><time>2026-05-09T20:07:13.000Z</time></trkpt>
        <trkpt lat="29.566271" lon="103.358719"><ele>1782.0822</ele><time>2026-05-09T20:07:18.000Z</time></trkpt>
        <trkpt lat="29.5663" lon="103.358772"><ele>1776.2695</ele><time>2026-05-09T20:07:24.000Z</time></trkpt>
        <trkpt lat="29.566327" lon="103.358821"><ele>1778.0367</ele><time>2026-05-09T20:07:29.000Z</time></trkpt>
        <trkpt lat="29.566369" lon="103.358842"><ele>1774.6842</ele><time>2026-05-09T20:07:33.000Z</time></trkpt>
        <trkpt lat="29.566416" lon="103.358856"><ele>1773.733</ele><time>2026-05-09T20:07:37.000Z</time></trkpt>
        <trkpt lat="29.566446" lon="103.3589"><ele>1771.4872</ele><time>2026-05-09T20:07:48.000Z</time></trkpt>
        <trkpt lat="29.566489" lon="103.358941"><ele>1770.4415</ele><time>2026-05-09T20:07:54.000Z</time></trkpt>
        <trkpt lat="29.566525" lon="103.358976"><ele>1769.1481</ele><time>2026-05-09T20:08:01.000Z</time></trkpt>
        <trkpt lat="29.566562" lon="103.359029"><ele>1767.4949</ele><time>2026-05-09T20:08:07.000Z</time></trkpt>
        <trkpt lat="29.5666" lon="103.359065"><ele>1767.1865</ele><time>2026-05-09T20:08:13.000Z</time></trkpt>
        <trkpt lat="29.566656" lon="103.359086"><ele>1765.5658</ele><time>2026-05-09T20:08:18.000Z</time></trkpt>
        <trkpt lat="29.566712" lon="103.359106"><ele>1763.4756</ele><time>2026-05-09T20:08:23.000Z</time></trkpt>
        <trkpt lat="29.566748" lon="103.359145"><ele>1763.4745</ele><time>2026-05-09T20:08:28.000Z</time></trkpt>
        <trkpt lat="29.566804" lon="103.359161"><ele>1762.885</ele><time>2026-05-09T20:08:32.000Z</time></trkpt>
        <trkpt lat="29.566834" lon="103.359209"><ele>1761.235</ele><time>2026-05-09T20:08:36.000Z</time></trkpt>
        <trkpt lat="29.566879" lon="103.359242"><ele>1761.3875</ele><time>2026-05-09T20:08:40.000Z</time></trkpt>
        <trkpt lat="29.566917" lon="103.35928"><ele>1761.0219</ele><time>2026-05-09T20:08:44.000Z</time></trkpt>
        <trkpt lat="29.566958" lon="103.35932"><ele>1761.2201</ele><time>2026-05-09T20:08:48.000Z</time></trkpt>
        <trkpt lat="29.567009" lon="103.359349"><ele>1760.8336</ele><time>2026-05-09T20:08:52.000Z</time></trkpt>
        <trkpt lat="29.567057" lon="103.359349"><ele>1759.907</ele><time>2026-05-09T20:08:56.000Z</time></trkpt>
        <trkpt lat="29.567106" lon="103.359357"><ele>1758.8613</ele><time>2026-05-09T20:09:01.000Z</time></trkpt>
        <trkpt lat="29.567154" lon="103.359362"><ele>1756.9493</ele><time>2026-05-09T20:09:06.000Z</time></trkpt>
        <trkpt lat="29.5672" lon="103.359387"><ele>1754.8514</ele><time>2026-05-09T20:09:11.000Z</time></trkpt>
        <trkpt lat="29.567242" lon="103.359407"><ele>1753.0046</ele><time>2026-05-09T20:09:15.000Z</time></trkpt>
        <trkpt lat="29.567289" lon="103.359413"><ele>1750.8652</ele><time>2026-05-09T20:09:20.000Z</time></trkpt>
        <trkpt lat="29.567322" lon="103.359456"><ele>1749.8204</ele><time>2026-05-09T20:09:28.000Z</time></trkpt>
        <trkpt lat="29.567372" lon="103.359452"><ele>1745.2588</ele><time>2026-05-09T20:09:34.000Z</time></trkpt>
        <trkpt lat="29.567416" lon="103.359435"><ele>1746.5109</ele><time>2026-05-09T20:09:38.000Z</time></trkpt>
        <trkpt lat="29.56746" lon="103.359425"><ele>1742.713</ele><time>2026-05-09T20:09:45.000Z</time></trkpt>
        <trkpt lat="29.5675" lon="103.359391"><ele>1742.2253</ele><time>2026-05-09T20:09:57.000Z</time></trkpt>
        <trkpt lat="29.567552" lon="103.359388"><ele>1739.0211</ele><time>2026-05-09T20:10:07.000Z</time></trkpt>
        <trkpt lat="29.567601" lon="103.359415"><ele>1737.767</ele><time>2026-05-09T20:10:12.000Z</time></trkpt>
        <trkpt lat="29.567637" lon="103.359447"><ele>1737.5398</ele><time>2026-05-09T20:10:18.000Z</time></trkpt>
        <trkpt lat="29.567693" lon="103.359473"><ele>1735.4749</ele><time>2026-05-09T20:10:24.000Z</time></trkpt>
        <trkpt lat="29.567737" lon="103.359494"><ele>1735.8058</ele><time>2026-05-09T20:10:29.000Z</time></trkpt>
        <trkpt lat="29.567785" lon="103.359498"><ele>1734.1832</ele><time>2026-05-09T20:10:35.000Z</time></trkpt>
        <trkpt lat="29.56783" lon="103.359528"><ele>1732.8965</ele><time>2026-05-09T20:10:46.000Z</time></trkpt>
        <trkpt lat="29.567874" lon="103.359569"><ele>1731.6573</ele><time>2026-05-09T20:10:51.000Z</time></trkpt>
        <trkpt lat="29.567923" lon="103.359568"><ele>1731.9371</ele><time>2026-05-09T20:10:55.000Z</time></trkpt>
        <trkpt lat="29.567975" lon="103.359566"><ele>1731.0593</ele><time>2026-05-09T20:10:59.000Z</time></trkpt>
        <trkpt lat="29.568025" lon="103.359553"><ele>1730.8308</ele><time>2026-05-09T20:11:03.000Z</time></trkpt>
        <trkpt lat="29.568076" lon="103.359537"><ele>1731.2178</ele><time>2026-05-09T20:11:07.000Z</time></trkpt>
        <trkpt lat="29.568122" lon="103.35952"><ele>1730.4136</ele><time>2026-05-09T20:11:11.000Z</time></trkpt>
        <trkpt lat="29.568172" lon="103.359522"><ele>1729.3214</ele><time>2026-05-09T20:11:16.000Z</time></trkpt>
        <trkpt lat="29.568194" lon="103.359569"><ele>1729.6976</ele><time>2026-05-09T20:11:20.000Z</time></trkpt>
        <trkpt lat="29.568212" lon="103.359625"><ele>1729.2964</ele><time>2026-05-09T20:11:25.000Z</time></trkpt>
        <trkpt lat="29.56825" lon="103.359665"><ele>1729.2762</ele><time>2026-05-09T20:11:29.000Z</time></trkpt>
        <trkpt lat="29.568293" lon="103.359693"><ele>1731.399</ele><time>2026-05-09T20:11:33.000Z</time></trkpt>
        <trkpt lat="29.568344" lon="103.359674"><ele>1732.9269</ele><time>2026-05-09T20:11:37.000Z</time></trkpt>
        <trkpt lat="29.568393" lon="103.359677"><ele>1732.9058</ele><time>2026-05-09T20:11:41.000Z</time></trkpt>
        <trkpt lat="29.568441" lon="103.359676"><ele>1732.899</ele><time>2026-05-09T20:11:45.000Z</time></trkpt>
        <trkpt lat="29.568487" lon="103.35967"><ele>1731.1595</ele><time>2026-05-09T20:11:49.000Z</time></trkpt>
        <trkpt lat="29.568536" lon="103.359678"><ele>1729.7957</ele><time>2026-05-09T20:11:54.000Z</time></trkpt>
        <trkpt lat="29.568588" lon="103.359665"><ele>1731.3818</ele><time>2026-05-09T20:11:58.000Z</time></trkpt>
        <trkpt lat="29.568633" lon="103.359682"><ele>1729.957</ele><time>2026-05-09T20:12:09.000Z</time></trkpt>
        <trkpt lat="29.568685" lon="103.359685"><ele>1730.6099</ele><time>2026-05-09T20:12:36.000Z</time></trkpt>
        <trkpt lat="29.568743" lon="103.359676"><ele>1729.2396</ele><time>2026-05-09T20:12:41.000Z</time></trkpt>
        <trkpt lat="29.568786" lon="103.359725"><ele>1727.4332</ele><time>2026-05-09T20:12:48.000Z</time></trkpt>
        <trkpt lat="29.568781" lon="103.359797"><ele>1726.0187</ele><time>2026-05-09T20:12:54.000Z</time></trkpt>
        <trkpt lat="29.568783" lon="103.35986"><ele>1725.8243</ele><time>2026-05-09T20:12:59.000Z</time></trkpt>
        <trkpt lat="29.56878" lon="103.35992"><ele>1726.2283</ele><time>2026-05-09T20:13:03.000Z</time></trkpt>
        <trkpt lat="29.568775" lon="103.359977"><ele>1727.7756</ele><time>2026-05-09T20:13:07.000Z</time></trkpt>
        <trkpt lat="29.568779" lon="103.360034"><ele>1726.5057</ele><time>2026-05-09T20:13:11.000Z</time></trkpt>
        <trkpt lat="29.568793" lon="103.360088"><ele>1725.9337</ele><time>2026-05-09T20:13:16.000Z</time></trkpt>
        <trkpt lat="29.568822" lon="103.360135"><ele>1725.9105</ele><time>2026-05-09T20:13:19.000Z</time></trkpt>
        <trkpt lat="29.56885" lon="103.360182"><ele>1724.5244</ele><time>2026-05-09T20:13:23.000Z</time></trkpt>
        <trkpt lat="29.56888" lon="103.360233"><ele>1723.79</ele><time>2026-05-09T20:13:29.000Z</time></trkpt>
        <trkpt lat="29.568913" lon="103.360275"><ele>1722.5074</ele><time>2026-05-09T20:13:35.000Z</time></trkpt>
        <trkpt lat="29.568957" lon="103.360312"><ele>1720.6665</ele><time>2026-05-09T20:13:41.000Z</time></trkpt>
        <trkpt lat="29.568998" lon="103.360346"><ele>1720.227</ele><time>2026-05-09T20:13:46.000Z</time></trkpt>
        <trkpt lat="29.569054" lon="103.360371"><ele>1717.445</ele><time>2026-05-09T20:13:50.000Z</time></trkpt>
        <trkpt lat="29.569097" lon="103.360399"><ele>1717.0682</ele><time>2026-05-09T20:13:55.000Z</time></trkpt>
        <trkpt lat="29.569142" lon="103.360439"><ele>1716.2745</ele><time>2026-05-09T20:13:59.000Z</time></trkpt>
        <trkpt lat="29.569184" lon="103.360476"><ele>1716.9502</ele><time>2026-05-09T20:14:02.000Z</time></trkpt>
        <trkpt lat="29.569229" lon="103.360518"><ele>1715.4885</ele><time>2026-05-09T20:14:06.000Z</time></trkpt>
        <trkpt lat="29.569245" lon="103.36057"><ele>1714.4635</ele><time>2026-05-09T20:14:11.000Z</time></trkpt>
        <trkpt lat="29.569292" lon="103.3606"><ele>1713.2634</ele><time>2026-05-09T20:14:17.000Z</time></trkpt>
        <trkpt lat="29.569338" lon="103.360623"><ele>1711.5173</ele><time>2026-05-09T20:14:22.000Z</time></trkpt>
        <trkpt lat="29.569384" lon="103.360661"><ele>1710.0188</ele><time>2026-05-09T20:14:26.000Z</time></trkpt>
        <trkpt lat="29.569418" lon="103.36071"><ele>1709.9106</ele><time>2026-05-09T20:14:32.000Z</time></trkpt>
        <trkpt lat="29.56946" lon="103.360771"><ele>1711.5126</ele><time>2026-05-09T20:14:37.000Z</time></trkpt>
        <trkpt lat="29.569508" lon="103.360783"><ele>1710.7043</ele><time>2026-05-09T20:14:41.000Z</time></trkpt>
        <trkpt lat="29.569558" lon="103.360803"><ele>1709.2236</ele><time>2026-05-09T20:14:45.000Z</time></trkpt>
        <trkpt lat="29.569612" lon="103.360821"><ele>1708.7523</ele><time>2026-05-09T20:14:49.000Z</time></trkpt>
        <trkpt lat="29.569653" lon="103.360864"><ele>1708.5784</ele><time>2026-05-09T20:14:53.000Z</time></trkpt>
        <trkpt lat="29.569686" lon="103.360909"><ele>1709.0935</ele><time>2026-05-09T20:14:57.000Z</time></trkpt>
        <trkpt lat="29.569725" lon="103.360958"><ele>1709.0345</ele><time>2026-05-09T20:15:01.000Z</time></trkpt>
        <trkpt lat="29.569764" lon="103.360996"><ele>1709.5385</ele><time>2026-05-09T20:15:04.000Z</time></trkpt>
        <trkpt lat="29.569811" lon="103.36103"><ele>1709.3448</ele><time>2026-05-09T20:15:08.000Z</time></trkpt>
        <trkpt lat="29.569862" lon="103.361036"><ele>1706.533</ele><time>2026-05-09T20:15:12.000Z</time></trkpt>
        <trkpt lat="29.569916" lon="103.361043"><ele>1707.2834</ele><time>2026-05-09T20:15:16.000Z</time></trkpt>
        <trkpt lat="29.569973" lon="103.361047"><ele>1705.6438</ele><time>2026-05-09T20:15:21.000Z</time></trkpt>
        <trkpt lat="29.570011" lon="103.361079"><ele>1705.0033</ele><time>2026-05-09T20:15:25.000Z</time></trkpt>
        <trkpt lat="29.570035" lon="103.361125"><ele>1703.0558</ele><time>2026-05-09T20:15:29.000Z</time></trkpt>
        <trkpt lat="29.570044" lon="103.361177"><ele>1698.7034</ele><time>2026-05-09T20:15:39.000Z</time></trkpt>
        <trkpt lat="29.570103" lon="103.361224"><ele>1698.8014</ele><time>2026-05-09T20:15:44.000Z</time></trkpt>
        <trkpt lat="29.570151" lon="103.361218"><ele>1695.1528</ele><time>2026-05-09T20:15:51.000Z</time></trkpt>
        <trkpt lat="29.570204" lon="103.361211"><ele>1695.7041</ele><time>2026-05-09T20:15:54.000Z</time></trkpt>
        <trkpt lat="29.570248" lon="103.361224"><ele>1696.2454</ele><time>2026-05-09T20:15:58.000Z</time></trkpt>
        <trkpt lat="29.570294" lon="103.361239"><ele>1697.0057</ele><time>2026-05-09T20:16:02.000Z</time></trkpt>
        <trkpt lat="29.570347" lon="103.361258"><ele>1695.4535</ele><time>2026-05-09T20:16:06.000Z</time></trkpt>
        <trkpt lat="29.570396" lon="103.361287"><ele>1695.7101</ele><time>2026-05-09T20:16:10.000Z</time></trkpt>
        <trkpt lat="29.570447" lon="103.361304"><ele>1697.3287</ele><time>2026-05-09T20:16:14.000Z</time></trkpt>
        <trkpt lat="29.570484" lon="103.361336"><ele>1697.725</ele><time>2026-05-09T20:16:18.000Z</time></trkpt>
        <trkpt lat="29.570532" lon="103.361366"><ele>1698.1503</ele><time>2026-05-09T20:16:24.000Z</time></trkpt>
        <trkpt lat="29.570582" lon="103.361379"><ele>1698.9302</ele><time>2026-05-09T20:16:29.000Z</time></trkpt>
        <trkpt lat="29.570629" lon="103.361403"><ele>1698.1859</ele><time>2026-05-09T20:16:34.000Z</time></trkpt>
        <trkpt lat="29.570683" lon="103.361409"><ele>1698.9462</ele><time>2026-05-09T20:16:38.000Z</time></trkpt>
        <trkpt lat="29.570738" lon="103.361422"><ele>1696.8619</ele><time>2026-05-09T20:16:42.000Z</time></trkpt>
        <trkpt lat="29.570789" lon="103.361431"><ele>1697.1398</ele><time>2026-05-09T20:16:47.000Z</time></trkpt>
        <trkpt lat="29.570842" lon="103.361452"><ele>1695.4525</ele><time>2026-05-09T20:16:51.000Z</time></trkpt>
        <trkpt lat="29.570887" lon="103.361476"><ele>1696.1464</ele><time>2026-05-09T20:16:54.000Z</time></trkpt>
        <trkpt lat="29.570931" lon="103.36149"><ele>1695.0835</ele><time>2026-05-09T20:16:57.000Z</time></trkpt>
        <trkpt lat="29.570974" lon="103.361521"><ele>1694.4199</ele><time>2026-05-09T20:17:01.000Z</time></trkpt>
        <trkpt lat="29.571022" lon="103.361551"><ele>1690.8285</ele><time>2026-05-09T20:17:07.000Z</time></trkpt>
        <trkpt lat="29.571068" lon="103.36158"><ele>1690.1687</ele><time>2026-05-09T20:17:11.000Z</time></trkpt>
        <trkpt lat="29.571111" lon="103.361613"><ele>1690.6385</ele><time>2026-05-09T20:17:16.000Z</time></trkpt>
        <trkpt lat="29.571155" lon="103.361637"><ele>1687.4569</ele><time>2026-05-09T20:17:21.000Z</time></trkpt>
        <trkpt lat="29.571202" lon="103.361655"><ele>1687.8835</ele><time>2026-05-09T20:17:26.000Z</time></trkpt>
        <trkpt lat="29.571239" lon="103.361692"><ele>1685.5267</ele><time>2026-05-09T20:17:33.000Z</time></trkpt>
        <trkpt lat="29.571285" lon="103.361722"><ele>1686.129</ele><time>2026-05-09T20:17:37.000Z</time></trkpt>
        <trkpt lat="29.57133" lon="103.361715"><ele>1686.5472</ele><time>2026-05-09T20:17:40.000Z</time></trkpt>
        <trkpt lat="29.571378" lon="103.361692"><ele>1688.8524</ele><time>2026-05-09T20:17:44.000Z</time></trkpt>
        <trkpt lat="29.57143" lon="103.361684"><ele>1688.8358</ele><time>2026-05-09T20:17:49.000Z</time></trkpt>
        <trkpt lat="29.571482" lon="103.361684"><ele>1690.4342</ele><time>2026-05-09T20:17:53.000Z</time></trkpt>
        <trkpt lat="29.571526" lon="103.361714"><ele>1688.8823</ele><time>2026-05-09T20:17:57.000Z</time></trkpt>
        <trkpt lat="29.571558" lon="103.361755"><ele>1691.1057</ele><time>2026-05-09T20:18:01.000Z</time></trkpt>
        <trkpt lat="29.571586" lon="103.361798"><ele>1690.8997</ele><time>2026-05-09T20:18:06.000Z</time></trkpt>
        <trkpt lat="29.571618" lon="103.361844"><ele>1691.4453</ele><time>2026-05-09T20:18:10.000Z</time></trkpt>
        <trkpt lat="29.571661" lon="103.361882"><ele>1691.2638</ele><time>2026-05-09T20:18:15.000Z</time></trkpt>
        <trkpt lat="29.571716" lon="103.361879"><ele>1691.5531</ele><time>2026-05-09T20:18:20.000Z</time></trkpt>
        <trkpt lat="29.571757" lon="103.361854"><ele>1690.5634</ele><time>2026-05-09T20:18:23.000Z</time></trkpt>
        <trkpt lat="29.571801" lon="103.361814"><ele>1688.1616</ele><time>2026-05-09T20:18:30.000Z</time></trkpt>
        <trkpt lat="29.571848" lon="103.361808"><ele>1685.4232</ele><time>2026-05-09T20:18:35.000Z</time></trkpt>
        <trkpt lat="29.571896" lon="103.361805"><ele>1683.4421</ele><time>2026-05-09T20:18:42.000Z</time></trkpt>
        <trkpt lat="29.571949" lon="103.361817"><ele>1680.5287</ele><time>2026-05-09T20:18:51.000Z</time></trkpt>
        <trkpt lat="29.572" lon="103.361814"><ele>1678.8748</ele><time>2026-05-09T20:18:54.000Z</time></trkpt>
        <trkpt lat="29.572055" lon="103.361815"><ele>1675.0812</ele><time>2026-05-09T20:19:01.000Z</time></trkpt>
        <trkpt lat="29.5721" lon="103.361835"><ele>1673.5598</ele><time>2026-05-09T20:19:06.000Z</time></trkpt>
        <trkpt lat="29.572147" lon="103.361824"><ele>1671.9714</ele><time>2026-05-09T20:19:11.000Z</time></trkpt>
        <trkpt lat="29.57219" lon="103.361802"><ele>1671.541</ele><time>2026-05-09T20:19:14.000Z</time></trkpt>
        <trkpt lat="29.572238" lon="103.361779"><ele>1667.4918</ele><time>2026-05-09T20:19:22.000Z</time></trkpt>
        <trkpt lat="29.572288" lon="103.361754"><ele>1665.6376</ele><time>2026-05-09T20:19:29.000Z</time></trkpt>
        <trkpt lat="29.572337" lon="103.361729"><ele>1664.7104</ele><time>2026-05-09T20:19:33.000Z</time></trkpt>
        <trkpt lat="29.572382" lon="103.361721"><ele>1662.4346</ele><time>2026-05-09T20:19:39.000Z</time></trkpt>
        <trkpt lat="29.572442" lon="103.361713"><ele>1659.1863</ele><time>2026-05-09T20:19:47.000Z</time></trkpt>
        <trkpt lat="29.572491" lon="103.361706"><ele>1657.0149</ele><time>2026-05-09T20:19:51.000Z</time></trkpt>
        <trkpt lat="29.572545" lon="103.361704"><ele>1654.3982</ele><time>2026-05-09T20:19:57.000Z</time></trkpt>
        <trkpt lat="29.572572" lon="103.361651"><ele>1651.3788</ele><time>2026-05-09T20:20:06.000Z</time></trkpt>
        <trkpt lat="29.572619" lon="103.36162"><ele>1651.1116</ele><time>2026-05-09T20:20:12.000Z</time></trkpt>
        <trkpt lat="29.572666" lon="103.361609"><ele>1650.8671</ele><time>2026-05-09T20:20:17.000Z</time></trkpt>
        <trkpt lat="29.572719" lon="103.361592"><ele>1650.3958</ele><time>2026-05-09T20:20:21.000Z</time></trkpt>
        <trkpt lat="29.572771" lon="103.361599"><ele>1648.3062</ele><time>2026-05-09T20:20:26.000Z</time></trkpt>
        <trkpt lat="29.572824" lon="103.361584"><ele>1648.3658</ele><time>2026-05-09T20:20:30.000Z</time></trkpt>
        <trkpt lat="29.572878" lon="103.361569"><ele>1648.3278</ele><time>2026-05-09T20:20:34.000Z</time></trkpt>
        <trkpt lat="29.572938" lon="103.361586"><ele>1648.0887</ele><time>2026-05-09T20:20:38.000Z</time></trkpt>
        <trkpt lat="29.57298" lon="103.361608"><ele>1646.3413</ele><time>2026-05-09T20:20:41.000Z</time></trkpt>
        <trkpt lat="29.573032" lon="103.361635"><ele>1647.4535</ele><time>2026-05-09T20:20:45.000Z</time></trkpt>
        <trkpt lat="29.573078" lon="103.361641"><ele>1646.3268</ele><time>2026-05-09T20:20:48.000Z</time></trkpt>
        <trkpt lat="29.573117" lon="103.361673"><ele>1645.8069</ele><time>2026-05-09T20:20:51.000Z</time></trkpt>
        <trkpt lat="29.573151" lon="103.361707"><ele>1645.2455</ele><time>2026-05-09T20:20:54.000Z</time></trkpt>
        <trkpt lat="29.573194" lon="103.361754"><ele>1643.7413</ele><time>2026-05-09T20:20:58.000Z</time></trkpt>
        <trkpt lat="29.573241" lon="103.361775"><ele>1643.7072</ele><time>2026-05-09T20:21:02.000Z</time></trkpt>
        <trkpt lat="29.573297" lon="103.361787"><ele>1643.0618</ele><time>2026-05-09T20:21:07.000Z</time></trkpt>
        <trkpt lat="29.573332" lon="103.361851"><ele>1643.1714</ele><time>2026-05-09T20:21:11.000Z</time></trkpt>
        <trkpt lat="29.573377" lon="103.361879"><ele>1642.0663</ele><time>2026-05-09T20:21:16.000Z</time></trkpt>
        <trkpt lat="29.573424" lon="103.361893"><ele>1641.361</ele><time>2026-05-09T20:21:19.000Z</time></trkpt>
        <trkpt lat="29.573462" lon="103.361925"><ele>1641.2455</ele><time>2026-05-09T20:21:21.000Z</time></trkpt>
        <trkpt lat="29.573503" lon="103.361898"><ele>1639.9968</ele><time>2026-05-09T20:21:25.000Z</time></trkpt>
        <trkpt lat="29.573453" lon="103.361905"><ele>1636.8346</ele><time>2026-05-09T20:21:30.000Z</time></trkpt>
        <trkpt lat="29.573473" lon="103.361955"><ele>1631.6285</ele><time>2026-05-09T20:21:43.000Z</time></trkpt>
        <trkpt lat="29.573503" lon="103.362003"><ele>1632.2114</ele><time>2026-05-09T20:21:48.000Z</time></trkpt>
        <trkpt lat="29.573522" lon="103.362051"><ele>1625.1681</ele><time>2026-05-09T20:21:57.000Z</time></trkpt>
        <trkpt lat="29.573562" lon="103.362092"><ele>1624.9957</ele><time>2026-05-09T20:22:03.000Z</time></trkpt>
        <trkpt lat="29.573603" lon="103.362128"><ele>1620.3833</ele><time>2026-05-09T20:22:08.000Z</time></trkpt>
        <trkpt lat="29.573621" lon="103.362182"><ele>1619.0669</ele><time>2026-05-09T20:22:13.000Z</time></trkpt>
        <trkpt lat="29.573656" lon="103.362223"><ele>1613.4347</ele><time>2026-05-09T20:22:21.000Z</time></trkpt>
        <trkpt lat="29.573705" lon="103.362259"><ele>1612.9653</ele><time>2026-05-09T20:22:24.000Z</time></trkpt>
        <trkpt lat="29.573756" lon="103.362289"><ele>1611.3563</ele><time>2026-05-09T20:22:28.000Z</time></trkpt>
        <trkpt lat="29.573807" lon="103.362303"><ele>1610.6135</ele><time>2026-05-09T20:22:31.000Z</time></trkpt>
        <trkpt lat="29.573848" lon="103.362354"><ele>1608.8856</ele><time>2026-05-09T20:22:35.000Z</time></trkpt>
        <trkpt lat="29.573889" lon="103.362379"><ele>1608.1173</ele><time>2026-05-09T20:22:41.000Z</time></trkpt>
        <trkpt lat="29.573927" lon="103.362414"><ele>1608.7432</ele><time>2026-05-09T20:22:48.000Z</time></trkpt>
        <trkpt lat="29.573949" lon="103.362464"><ele>1607.3453</ele><time>2026-05-09T20:22:55.000Z</time></trkpt>
        <trkpt lat="29.573967" lon="103.362513"><ele>1603.9076</ele><time>2026-05-09T20:23:01.000Z</time></trkpt>
        <trkpt lat="29.574015" lon="103.362523"><ele>1605.0009</ele><time>2026-05-09T20:23:06.000Z</time></trkpt>
        <trkpt lat="29.574065" lon="103.362541"><ele>1600.4321</ele><time>2026-05-09T20:23:11.000Z</time></trkpt>
        <trkpt lat="29.574122" lon="103.362531"><ele>1599.4862</ele><time>2026-05-09T20:23:16.000Z</time></trkpt>
        <trkpt lat="29.574167" lon="103.362512"><ele>1599.8547</ele><time>2026-05-09T20:23:20.000Z</time></trkpt>
        <trkpt lat="29.57423" lon="103.362509"><ele>1598.8407</ele><time>2026-05-09T20:23:23.000Z</time></trkpt>
        <trkpt lat="29.574289" lon="103.362493"><ele>1599.8647</ele><time>2026-05-09T20:23:27.000Z</time></trkpt>
        <trkpt lat="29.574337" lon="103.362495"><ele>1599.192</ele><time>2026-05-09T20:23:30.000Z</time></trkpt>
        <trkpt lat="29.574387" lon="103.362501"><ele>1600.0297</ele><time>2026-05-09T20:23:34.000Z</time></trkpt>
        <trkpt lat="29.574436" lon="103.362506"><ele>1600.4436</ele><time>2026-05-09T20:23:40.000Z</time></trkpt>
        <trkpt lat="29.574491" lon="103.362513"><ele>1599.4043</ele><time>2026-05-09T20:23:45.000Z</time></trkpt>
        <trkpt lat="29.574536" lon="103.36249"><ele>1598.8842</ele><time>2026-05-09T20:23:49.000Z</time></trkpt>
        <trkpt lat="29.574573" lon="103.362461"><ele>1600.4359</ele><time>2026-05-09T20:23:51.000Z</time></trkpt>
        <trkpt lat="29.574624" lon="103.362441"><ele>1597.8628</ele><time>2026-05-09T20:23:55.000Z</time></trkpt>
        <trkpt lat="29.574671" lon="103.362419"><ele>1599.0917</ele><time>2026-05-09T20:23:59.000Z</time></trkpt>
        <trkpt lat="29.574737" lon="103.362431"><ele>1598.592</ele><time>2026-05-09T20:24:03.000Z</time></trkpt>
        <trkpt lat="29.574783" lon="103.362417"><ele>1596.496</ele><time>2026-05-09T20:24:07.000Z</time></trkpt>
        <trkpt lat="29.574827" lon="103.362443"><ele>1594.7748</ele><time>2026-05-09T20:24:14.000Z</time></trkpt>
        <trkpt lat="29.574855" lon="103.362496"><ele>1595.5731</ele><time>2026-05-09T20:24:19.000Z</time></trkpt>
        <trkpt lat="29.574881" lon="103.362543"><ele>1593.5757</ele><time>2026-05-09T20:24:24.000Z</time></trkpt>
        <trkpt lat="29.574913" lon="103.362591"><ele>1592.8334</ele><time>2026-05-09T20:24:30.000Z</time></trkpt>
        <trkpt lat="29.574942" lon="103.362633"><ele>1592.4939</ele><time>2026-05-09T20:24:33.000Z</time></trkpt>
        <trkpt lat="29.574937" lon="103.362689"><ele>1591.032</ele><time>2026-05-09T20:24:39.000Z</time></trkpt>
        <trkpt lat="29.574908" lon="103.362739"><ele>1592.1542</ele><time>2026-05-09T20:24:45.000Z</time></trkpt>
        <trkpt lat="29.574878" lon="103.362781"><ele>1592.5985</ele><time>2026-05-09T20:24:52.000Z</time></trkpt>
        <trkpt lat="29.574838" lon="103.362808"><ele>1588.4701</ele><time>2026-05-09T20:25:56.000Z</time></trkpt>
        <trkpt lat="29.57481" lon="103.362852"><ele>1588.3701</ele><time>2026-05-09T20:26:04.000Z</time></trkpt>
        <trkpt lat="29.574765" lon="103.362876"><ele>1588.751</ele><time>2026-05-09T20:26:10.000Z</time></trkpt>
        <trkpt lat="29.574721" lon="103.362893"><ele>1586.6394</ele><time>2026-05-09T20:26:17.000Z</time></trkpt>
        <trkpt lat="29.574673" lon="103.362922"><ele>1585.9689</ele><time>2026-05-09T20:26:23.000Z</time></trkpt>
        <trkpt lat="29.574637" lon="103.362955"><ele>1585.1539</ele><time>2026-05-09T20:26:27.000Z</time></trkpt>
        <trkpt lat="29.574603" lon="103.363002"><ele>1585.5022</ele><time>2026-05-09T20:26:31.000Z</time></trkpt>
        <trkpt lat="29.574613" lon="103.363066"><ele>1586.1072</ele><time>2026-05-09T20:26:36.000Z</time></trkpt>
        <trkpt lat="29.574633" lon="103.363116"><ele>1584.2224</ele><time>2026-05-09T20:26:41.000Z</time></trkpt>
        <trkpt lat="29.574655" lon="103.363163"><ele>1578.8225</ele><time>2026-05-09T20:26:49.000Z</time></trkpt>
        <trkpt lat="29.574643" lon="103.363215"><ele>1576.3007</ele><time>2026-05-09T20:26:55.000Z</time></trkpt>
        <trkpt lat="29.57465" lon="103.363267"><ele>1572.5792</ele><time>2026-05-09T20:27:02.000Z</time></trkpt>
        <trkpt lat="29.57464" lon="103.363327"><ele>1570.4327</ele><time>2026-05-09T20:27:08.000Z</time></trkpt>
        <trkpt lat="29.574648" lon="103.3634"><ele>1567.7446</ele><time>2026-05-09T20:27:14.000Z</time></trkpt>
        <trkpt lat="29.574664" lon="103.363453"><ele>1568.0425</ele><time>2026-05-09T20:27:17.000Z</time></trkpt>
        <trkpt lat="29.574677" lon="103.363507"><ele>1565.0232</ele><time>2026-05-09T20:27:22.000Z</time></trkpt>
        <trkpt lat="29.574676" lon="103.363559"><ele>1565.1239</ele><time>2026-05-09T20:27:27.000Z</time></trkpt>
        <trkpt lat="29.574657" lon="103.363614"><ele>1561.2512</ele><time>2026-05-09T20:32:21.000Z</time></trkpt>
        <trkpt lat="29.574655" lon="103.363666"><ele>1559.5474</ele><time>2026-05-09T20:32:27.000Z</time></trkpt>
        <trkpt lat="29.574624" lon="103.363706"><ele>1559.1849</ele><time>2026-05-09T20:32:33.000Z</time></trkpt>
        <trkpt lat="29.574574" lon="103.363709"><ele>1559.2096</ele><time>2026-05-09T20:32:38.000Z</time></trkpt>
        <trkpt lat="29.574528" lon="103.363693"><ele>1560.0955</ele><time>2026-05-09T20:32:44.000Z</time></trkpt>
        <trkpt lat="29.574483" lon="103.36371"><ele>1562.2007</ele><time>2026-05-09T20:32:49.000Z</time></trkpt>
        <trkpt lat="29.574452" lon="103.363769"><ele>1560.6903</ele><time>2026-05-09T20:32:57.000Z</time></trkpt>
        <trkpt lat="29.574413" lon="103.363796"><ele>1559.9879</ele><time>2026-05-09T20:33:03.000Z</time></trkpt>
        <trkpt lat="29.574395" lon="103.363849"><ele>1557.6233</ele><time>2026-05-09T20:33:09.000Z</time></trkpt>
        <trkpt lat="29.574434" lon="103.363884"><ele>1549.1685</ele><time>2026-05-09T20:33:16.000Z</time></trkpt>
        <trkpt lat="29.57446" lon="103.36395"><ele>1544.6857</ele><time>2026-05-09T20:33:23.000Z</time></trkpt>
        <trkpt lat="29.574453" lon="103.364005"><ele>1543.3009</ele><time>2026-05-09T20:33:26.000Z</time></trkpt>
        <trkpt lat="29.574449" lon="103.364061"><ele>1540.9348</ele><time>2026-05-09T20:33:30.000Z</time></trkpt>
        <trkpt lat="29.574471" lon="103.364109"><ele>1540.0635</ele><time>2026-05-09T20:33:33.000Z</time></trkpt>
        <trkpt lat="29.574501" lon="103.364153"><ele>1539.0695</ele><time>2026-05-09T20:33:36.000Z</time></trkpt>
        <trkpt lat="29.574544" lon="103.364182"><ele>1539.1011</ele><time>2026-05-09T20:33:40.000Z</time></trkpt>
        <trkpt lat="29.574588" lon="103.364218"><ele>1538.3326</ele><time>2026-05-09T20:33:44.000Z</time></trkpt>
        <trkpt lat="29.574639" lon="103.364239"><ele>1534.2488</ele><time>2026-05-09T20:33:48.000Z</time></trkpt>
        <trkpt lat="29.574675" lon="103.364275"><ele>1533.472</ele><time>2026-05-09T20:33:54.000Z</time></trkpt>
        <trkpt lat="29.57471" lon="103.364316"><ele>1531.133</ele><time>2026-05-09T20:33:59.000Z</time></trkpt>
        <trkpt lat="29.574731" lon="103.364373"><ele>1529.2487</ele><time>2026-05-09T20:34:05.000Z</time></trkpt>
        <trkpt lat="29.574695" lon="103.36442"><ele>1528.7625</ele><time>2026-05-09T20:34:10.000Z</time></trkpt>
        <trkpt lat="29.574699" lon="103.36448"><ele>1528.2797</ele><time>2026-05-09T20:34:16.000Z</time></trkpt>
        <trkpt lat="29.57474" lon="103.364506"><ele>1525.301</ele><time>2026-05-09T20:34:23.000Z</time></trkpt>
        <trkpt lat="29.57477" lon="103.364548"><ele>1521.7161</ele><time>2026-05-09T20:34:30.000Z</time></trkpt>
        <trkpt lat="29.574802" lon="103.364592"><ele>1519.7639</ele><time>2026-05-09T20:34:36.000Z</time></trkpt>
        <trkpt lat="29.574839" lon="103.364633"><ele>1515.2833</ele><time>2026-05-09T20:34:44.000Z</time></trkpt>
        <trkpt lat="29.574872" lon="103.364678"><ele>1508.7863</ele><time>2026-05-09T20:35:01.000Z</time></trkpt>
        <trkpt lat="29.574875" lon="103.364732"><ele>1506.3602</ele><time>2026-05-09T20:35:05.000Z</time></trkpt>
        <trkpt lat="29.574918" lon="103.364764"><ele>1504.8245</ele><time>2026-05-09T20:35:09.000Z</time></trkpt>
        <trkpt lat="29.574959" lon="103.364811"><ele>1503.7861</ele><time>2026-05-09T20:35:15.000Z</time></trkpt>
        <trkpt lat="29.574986" lon="103.364856"><ele>1499.4434</ele><time>2026-05-09T20:35:22.000Z</time></trkpt>
        <trkpt lat="29.575014" lon="103.364903"><ele>1496.9966</ele><time>2026-05-09T20:35:26.000Z</time></trkpt>
        <trkpt lat="29.575014" lon="103.364955"><ele>1496.5625</ele><time>2026-05-09T20:35:29.000Z</time></trkpt>
        <trkpt lat="29.575026" lon="103.365012"><ele>1492.5844</ele><time>2026-05-09T20:35:36.000Z</time></trkpt>
        <trkpt lat="29.575032" lon="103.365074"><ele>1489.5496</ele><time>2026-05-09T20:35:40.000Z</time></trkpt>
        <trkpt lat="29.575069" lon="103.365107"><ele>1490.9897</ele><time>2026-05-09T20:35:43.000Z</time></trkpt>
        <trkpt lat="29.575107" lon="103.365146"><ele>1490.9359</ele><time>2026-05-09T20:35:47.000Z</time></trkpt>
        <trkpt lat="29.575153" lon="103.36518"><ele>1488.6975</ele><time>2026-05-09T20:35:52.000Z</time></trkpt>
        <trkpt lat="29.5752" lon="103.365208"><ele>1489.0112</ele><time>2026-05-09T20:35:56.000Z</time></trkpt>
        <trkpt lat="29.575241" lon="103.365246"><ele>1482.5466</ele><time>2026-05-09T20:36:03.000Z</time></trkpt>
        <trkpt lat="29.575269" lon="103.365286"><ele>1479.8698</ele><time>2026-05-09T20:36:07.000Z</time></trkpt>
        <trkpt lat="29.575217" lon="103.365317"><ele>1478.4176</ele><time>2026-05-09T20:36:11.000Z</time></trkpt>
        <trkpt lat="29.575174" lon="103.365332"><ele>1481.505</ele><time>2026-05-09T20:37:06.000Z</time></trkpt>
        <trkpt lat="29.575224" lon="103.365321"><ele>1479.4471</ele><time>2026-05-09T20:37:18.000Z</time></trkpt>
        <trkpt lat="29.575265" lon="103.36536"><ele>1477.692</ele><time>2026-05-09T20:37:25.000Z</time></trkpt>
        <trkpt lat="29.57531" lon="103.365381"><ele>1475.8948</ele><time>2026-05-09T20:37:30.000Z</time></trkpt>
        <trkpt lat="29.575352" lon="103.365407"><ele>1475.2313</ele><time>2026-05-09T20:37:34.000Z</time></trkpt>
        <trkpt lat="29.575393" lon="103.365441"><ele>1471.7656</ele><time>2026-05-09T20:37:45.000Z</time></trkpt>
        <trkpt lat="29.575405" lon="103.365504"><ele>1469.5822</ele><time>2026-05-09T20:37:58.000Z</time></trkpt>
        <trkpt lat="29.575458" lon="103.365503"><ele>1465.6329</ele><time>2026-05-09T20:38:13.000Z</time></trkpt>
        <trkpt lat="29.575501" lon="103.365536"><ele>1464.1356</ele><time>2026-05-09T20:38:24.000Z</time></trkpt>
        <trkpt lat="29.57556" lon="103.365551"><ele>1462.5796</ele><time>2026-05-09T20:38:33.000Z</time></trkpt>
        <trkpt lat="29.575606" lon="103.365546"><ele>1460.0815</ele><time>2026-05-09T20:38:42.000Z</time></trkpt>
        <trkpt lat="29.575626" lon="103.365594"><ele>1459.561</ele><time>2026-05-09T20:38:48.000Z</time></trkpt>
        <trkpt lat="29.575603" lon="103.365638"><ele>1460.194</ele><time>2026-05-09T20:38:53.000Z</time></trkpt>
        <trkpt lat="29.575645" lon="103.365618"><ele>1457.9843</ele><time>2026-05-09T20:41:51.000Z</time></trkpt>
        <trkpt lat="29.575691" lon="103.365678"><ele>1456.1417</ele><time>2026-05-09T20:41:59.000Z</time></trkpt>
        <trkpt lat="29.575731" lon="103.365706"><ele>1455.9854</ele><time>2026-05-09T20:42:10.000Z</time></trkpt>
        <trkpt lat="29.575775" lon="103.365727"><ele>1457.1509</ele><time>2026-05-09T20:42:15.000Z</time></trkpt>
        <trkpt lat="29.575827" lon="103.365762"><ele>1458.1714</ele><time>2026-05-09T20:42:23.000Z</time></trkpt>
        <trkpt lat="29.575871" lon="103.365788"><ele>1457.4567</ele><time>2026-05-09T20:42:27.000Z</time></trkpt>
        <trkpt lat="29.575906" lon="103.365822"><ele>1458.9639</ele><time>2026-05-09T20:42:36.000Z</time></trkpt>
        <trkpt lat="29.575934" lon="103.36587"><ele>1462.2782</ele><time>2026-05-09T20:42:44.000Z</time></trkpt>
        <trkpt lat="29.575981" lon="103.365862"><ele>1463.7689</ele><time>2026-05-09T20:42:50.000Z</time></trkpt>
        <trkpt lat="29.576025" lon="103.365882"><ele>1461.4774</ele><time>2026-05-09T20:42:54.000Z</time></trkpt>
        <trkpt lat="29.576052" lon="103.365931"><ele>1468.3121</ele><time>2026-05-09T20:43:02.000Z</time></trkpt>
        <trkpt lat="29.5761" lon="103.36594"><ele>1466.7627</ele><time>2026-05-09T20:43:07.000Z</time></trkpt>
        <trkpt lat="29.576097" lon="103.36601"><ele>1466.3185</ele><time>2026-05-09T20:43:15.000Z</time></trkpt>
        <trkpt lat="29.576146" lon="103.366033"><ele>1467.2806</ele><time>2026-05-09T20:43:24.000Z</time></trkpt>
        <trkpt lat="29.576191" lon="103.366087"><ele>1472.1338</ele><time>2026-05-09T20:43:47.000Z</time></trkpt>
        <trkpt lat="29.57621" lon="103.366135"><ele>1475.7603</ele><time>2026-05-09T20:44:02.000Z</time></trkpt>
        <trkpt lat="29.576233" lon="103.366184"><ele>1475.5635</ele><time>2026-05-09T20:44:13.000Z</time></trkpt>
        <trkpt lat="29.576247" lon="103.366233"><ele>1478.1316</ele><time>2026-05-09T20:44:24.000Z</time></trkpt>
        <trkpt lat="29.576243" lon="103.366286"><ele>1478.3715</ele><time>2026-05-09T20:44:37.000Z</time></trkpt>
        <trkpt lat="29.576203" lon="103.366311"><ele>1481.2146</ele><time>2026-05-09T20:44:43.000Z</time></trkpt>
        <trkpt lat="29.576248" lon="103.366352"><ele>1482.0839</ele><time>2026-05-09T20:44:48.000Z</time></trkpt>
        <trkpt lat="29.576267" lon="103.366409"><ele>1485.967</ele><time>2026-05-09T20:44:57.000Z</time></trkpt>
        <trkpt lat="29.576249" lon="103.366461"><ele>1490.1097</ele><time>2026-05-09T20:45:08.000Z</time></trkpt>
        <trkpt lat="29.576297" lon="103.36645"><ele>1489.5237</ele><time>2026-05-09T20:45:09.000Z</time></trkpt>
        <trkpt lat="29.576321" lon="103.366498"><ele>1491.5006</ele><time>2026-05-09T20:45:17.000Z</time></trkpt>
        <trkpt lat="29.576327" lon="103.366549"><ele>1493.1814</ele><time>2026-05-09T20:45:24.000Z</time></trkpt>
        <trkpt lat="29.57635" lon="103.366596"><ele>1494.5529</ele><time>2026-05-09T20:45:31.000Z</time></trkpt>
        <trkpt lat="29.576381" lon="103.366642"><ele>1495.1338</ele><time>2026-05-09T20:45:37.000Z</time></trkpt>
        <trkpt lat="29.57642" lon="103.366687"><ele>1494.3378</ele><time>2026-05-09T20:45:41.000Z</time></trkpt>
        <trkpt lat="29.576461" lon="103.36672"><ele>1494.0552</ele><time>2026-05-09T20:45:46.000Z</time></trkpt>
        <trkpt lat="29.576484" lon="103.36677"><ele>1493.8047</ele><time>2026-05-09T20:45:51.000Z</time></trkpt>
        <trkpt lat="29.576526" lon="103.366809"><ele>1493.6538</ele><time>2026-05-09T20:45:56.000Z</time></trkpt>
        <trkpt lat="29.576564" lon="103.36684"><ele>1493.687</ele><time>2026-05-09T20:45:59.000Z</time></trkpt>
        <trkpt lat="29.576619" lon="103.366868"><ele>1495.0737</ele><time>2026-05-09T20:46:03.000Z</time></trkpt>
        <trkpt lat="29.576666" lon="103.36691"><ele>1494.7983</ele><time>2026-05-09T20:46:07.000Z</time></trkpt>
        <trkpt lat="29.576677" lon="103.366973"><ele>1498.1534</ele><time>2026-05-09T20:46:11.000Z</time></trkpt>
        <trkpt lat="29.57671" lon="103.367025"><ele>1496.463</ele><time>2026-05-09T20:46:15.000Z</time></trkpt>
        <trkpt lat="29.57675" lon="103.367059"><ele>1497.0701</ele><time>2026-05-09T20:46:20.000Z</time></trkpt>
        <trkpt lat="29.576764" lon="103.367118"><ele>1496.2775</ele><time>2026-05-09T20:46:27.000Z</time></trkpt>
        <trkpt lat="29.576791" lon="103.36717"><ele>1495.5974</ele><time>2026-05-09T20:46:32.000Z</time></trkpt>
        <trkpt lat="29.57682" lon="103.367208"><ele>1495.0706</ele><time>2026-05-09T20:46:35.000Z</time></trkpt>
        <trkpt lat="29.576858" lon="103.367249"><ele>1495.4507</ele><time>2026-05-09T20:46:40.000Z</time></trkpt>
        <trkpt lat="29.576903" lon="103.367268"><ele>1495.0165</ele><time>2026-05-09T20:46:44.000Z</time></trkpt>
        <trkpt lat="29.576946" lon="103.367286"><ele>1496.2167</ele><time>2026-05-09T20:46:49.000Z</time></trkpt>
        <trkpt lat="29.576985" lon="103.367334"><ele>1496.6614</ele><time>2026-05-09T20:46:55.000Z</time></trkpt>
        <trkpt lat="29.57702" lon="103.367381"><ele>1496.9373</ele><time>2026-05-09T20:47:01.000Z</time></trkpt>
        <trkpt lat="29.577037" lon="103.36743"><ele>1497.1556</ele><time>2026-05-09T20:47:06.000Z</time></trkpt>
        <trkpt lat="29.577053" lon="103.367487"><ele>1498.8875</ele><time>2026-05-09T20:47:14.000Z</time></trkpt>
        <trkpt lat="29.577086" lon="103.367526"><ele>1499.1421</ele><time>2026-05-09T20:47:18.000Z</time></trkpt>
        <trkpt lat="29.57713" lon="103.367558"><ele>1499.0801</ele><time>2026-05-09T20:47:23.000Z</time></trkpt>
        <trkpt lat="29.577165" lon="103.367596"><ele>1499.392</ele><time>2026-05-09T20:47:29.000Z</time></trkpt>
        <trkpt lat="29.577202" lon="103.36763"><ele>1501.213</ele><time>2026-05-09T20:47:37.000Z</time></trkpt>
        <trkpt lat="29.577238" lon="103.367671"><ele>1503.6213</ele><time>2026-05-09T20:47:44.000Z</time></trkpt>
        <trkpt lat="29.577266" lon="103.367722"><ele>1503.0171</ele><time>2026-05-09T20:47:51.000Z</time></trkpt>
        <trkpt lat="29.57724" lon="103.367765"><ele>1500.6267</ele><time>2026-05-09T20:47:59.000Z</time></trkpt>
        <trkpt lat="29.577257" lon="103.367815"><ele>1499.3181</ele><time>2026-05-09T20:48:06.000Z</time></trkpt>
        <trkpt lat="29.577234" lon="103.367868"><ele>1498.8488</ele><time>2026-05-09T20:48:13.000Z</time></trkpt>
        <trkpt lat="29.577213" lon="103.367918"><ele>1496.5276</ele><time>2026-05-09T20:48:24.000Z</time></trkpt>
        <trkpt lat="29.577181" lon="103.367957"><ele>1493.9791</ele><time>2026-05-09T20:48:33.000Z</time></trkpt>
        <trkpt lat="29.577146" lon="103.368002"><ele>1494.0609</ele><time>2026-05-09T20:48:40.000Z</time></trkpt>
        <trkpt lat="29.57711" lon="103.368038"><ele>1492.9115</ele><time>2026-05-09T20:48:47.000Z</time></trkpt>
        <trkpt lat="29.577085" lon="103.36809"><ele>1492.2227</ele><time>2026-05-09T20:48:51.000Z</time></trkpt>
        <trkpt lat="29.57705" lon="103.368124"><ele>1489.9761</ele><time>2026-05-09T20:48:58.000Z</time></trkpt>
        <trkpt lat="29.57704" lon="103.368177"><ele>1483.8643</ele><time>2026-05-09T20:49:06.000Z</time></trkpt>
        <trkpt lat="29.577042" lon="103.368234"><ele>1480.0078</ele><time>2026-05-09T20:49:11.000Z</time></trkpt>
        <trkpt lat="29.577037" lon="103.36829"><ele>1477.2832</ele><time>2026-05-09T20:49:18.000Z</time></trkpt>
        <trkpt lat="29.577039" lon="103.368347"><ele>1478.4229</ele><time>2026-05-09T20:49:23.000Z</time></trkpt>
        <trkpt lat="29.577031" lon="103.368401"><ele>1475.3772</ele><time>2026-05-09T20:49:27.000Z</time></trkpt>
        <trkpt lat="29.577018" lon="103.368457"><ele>1475.0471</ele><time>2026-05-09T20:49:31.000Z</time></trkpt>
        <trkpt lat="29.577002" lon="103.36851"><ele>1474.447</ele><time>2026-05-09T20:49:35.000Z</time></trkpt>
        <trkpt lat="29.576991" lon="103.368563"><ele>1475.4575</ele><time>2026-05-09T20:49:39.000Z</time></trkpt>
        <trkpt lat="29.576983" lon="103.368616"><ele>1474.864</ele><time>2026-05-09T20:49:43.000Z</time></trkpt>
        <trkpt lat="29.576963" lon="103.368678"><ele>1475.9473</ele><time>2026-05-09T20:49:47.000Z</time></trkpt>
        <trkpt lat="29.576964" lon="103.368737"><ele>1474.467</ele><time>2026-05-09T20:49:51.000Z</time></trkpt>
        <trkpt lat="29.576965" lon="103.368805"><ele>1477.2307</ele><time>2026-05-09T20:49:58.000Z</time></trkpt>
        <trkpt lat="29.576973" lon="103.36886"><ele>1476.4794</ele><time>2026-05-09T20:50:03.000Z</time></trkpt>
        <trkpt lat="29.576964" lon="103.368916"><ele>1475.15</ele><time>2026-05-09T20:50:08.000Z</time></trkpt>
        <trkpt lat="29.576966" lon="103.368978"><ele>1475.7056</ele><time>2026-05-09T20:50:12.000Z</time></trkpt>
        <trkpt lat="29.576954" lon="103.369036"><ele>1473.3605</ele><time>2026-05-09T20:50:20.000Z</time></trkpt>
        <trkpt lat="29.576934" lon="103.36909"><ele>1473.7365</ele><time>2026-05-09T20:50:25.000Z</time></trkpt>
        <trkpt lat="29.576939" lon="103.369141"><ele>1473.3534</ele><time>2026-05-09T20:50:29.000Z</time></trkpt>
        <trkpt lat="29.576925" lon="103.369206"><ele>1472.7511</ele><time>2026-05-09T20:50:35.000Z</time></trkpt>
        <trkpt lat="29.576944" lon="103.369256"><ele>1472.0508</ele><time>2026-05-09T20:50:39.000Z</time></trkpt>
        <trkpt lat="29.576947" lon="103.36931"><ele>1471.0271</ele><time>2026-05-09T20:50:44.000Z</time></trkpt>
        <trkpt lat="29.57694" lon="103.369364"><ele>1471.2023</ele><time>2026-05-09T20:50:48.000Z</time></trkpt>
        <trkpt lat="29.576967" lon="103.369411"><ele>1469.0587</ele><time>2026-05-09T20:50:52.000Z</time></trkpt>
        <trkpt lat="29.576979" lon="103.369464"><ele>1468.8445</ele><time>2026-05-09T20:50:57.000Z</time></trkpt>
        <trkpt lat="29.576978" lon="103.369528"><ele>1468.1173</ele><time>2026-05-09T20:51:02.000Z</time></trkpt>
        <trkpt lat="29.577001" lon="103.369585"><ele>1469.3699</ele><time>2026-05-09T20:51:06.000Z</time></trkpt>
        <trkpt lat="29.57701" lon="103.369639"><ele>1470.0403</ele><time>2026-05-09T20:51:10.000Z</time></trkpt>
        <trkpt lat="29.577014" lon="103.369695"><ele>1468.8704</ele><time>2026-05-09T20:51:14.000Z</time></trkpt>
        <trkpt lat="29.576995" lon="103.369752"><ele>1469.6375</ele><time>2026-05-09T20:51:18.000Z</time></trkpt>
        <trkpt lat="29.576999" lon="103.369809"><ele>1472.1217</ele><time>2026-05-09T20:51:22.000Z</time></trkpt>
        <trkpt lat="29.57702" lon="103.36986"><ele>1468.7993</ele><time>2026-05-09T20:51:31.000Z</time></trkpt>
        <trkpt lat="29.576996" lon="103.369913"><ele>1467.8976</ele><time>2026-05-09T20:51:36.000Z</time></trkpt>
        <trkpt lat="29.576969" lon="103.369962"><ele>1468.5687</ele><time>2026-05-09T20:51:40.000Z</time></trkpt>
        <trkpt lat="29.576964" lon="103.370023"><ele>1469.5787</ele><time>2026-05-09T20:51:47.000Z</time></trkpt>
        <trkpt lat="29.576985" lon="103.370072"><ele>1467.4346</ele><time>2026-05-09T20:51:52.000Z</time></trkpt>
        <trkpt lat="29.577025" lon="103.370116"><ele>1467.1282</ele><time>2026-05-09T20:51:57.000Z</time></trkpt>
        <trkpt lat="29.577044" lon="103.370168"><ele>1466.7999</ele><time>2026-05-09T20:52:05.000Z</time></trkpt>
        <trkpt lat="29.577073" lon="103.370218"><ele>1465.875</ele><time>2026-05-09T20:52:10.000Z</time></trkpt>
        <trkpt lat="29.577108" lon="103.370258"><ele>1465.6119</ele><time>2026-05-09T20:52:15.000Z</time></trkpt>
        <trkpt lat="29.577111" lon="103.370324"><ele>1465.664</ele><time>2026-05-09T20:52:20.000Z</time></trkpt>
        <trkpt lat="29.577162" lon="103.370338"><ele>1463.9877</ele><time>2026-05-09T20:52:25.000Z</time></trkpt>
        <trkpt lat="29.577198" lon="103.370382"><ele>1463.4966</ele><time>2026-05-09T20:52:30.000Z</time></trkpt>
        <trkpt lat="29.577251" lon="103.370388"><ele>1461.1808</ele><time>2026-05-09T20:52:36.000Z</time></trkpt>
        <trkpt lat="29.577283" lon="103.370433"><ele>1460.6649</ele><time>2026-05-09T20:52:40.000Z</time></trkpt>
        <trkpt lat="29.577317" lon="103.370472"><ele>1459.9298</ele><time>2026-05-09T20:52:44.000Z</time></trkpt>
        <trkpt lat="29.577348" lon="103.370512"><ele>1460.6086</ele><time>2026-05-09T20:52:49.000Z</time></trkpt>
        <trkpt lat="29.577391" lon="103.370537"><ele>1461.1583</ele><time>2026-05-09T20:52:53.000Z</time></trkpt>
        <trkpt lat="29.577436" lon="103.37057"><ele>1460.7013</ele><time>2026-05-09T20:52:59.000Z</time></trkpt>
        <trkpt lat="29.577465" lon="103.370612"><ele>1460.0419</ele><time>2026-05-09T20:53:11.000Z</time></trkpt>
        <trkpt lat="29.577501" lon="103.370645"><ele>1458.9131</ele><time>2026-05-09T20:53:21.000Z</time></trkpt>
        <trkpt lat="29.57755" lon="103.370681"><ele>1456.3956</ele><time>2026-05-09T20:53:28.000Z</time></trkpt>
        <trkpt lat="29.577582" lon="103.370719"><ele>1455.122</ele><time>2026-05-09T20:53:32.000Z</time></trkpt>
        <trkpt lat="29.577627" lon="103.370775"><ele>1452.2587</ele><time>2026-05-09T20:53:36.000Z</time></trkpt>
        <trkpt lat="29.577645" lon="103.370842"><ele>1453.2412</ele><time>2026-05-09T20:53:40.000Z</time></trkpt>
        <trkpt lat="29.577666" lon="103.370912"><ele>1454.3394</ele><time>2026-05-09T20:53:45.000Z</time></trkpt>
        <trkpt lat="29.577684" lon="103.37097"><ele>1453.6035</ele><time>2026-05-09T20:53:49.000Z</time></trkpt>
        <trkpt lat="29.577718" lon="103.371014"><ele>1454.8055</ele><time>2026-05-09T20:53:53.000Z</time></trkpt>
        <trkpt lat="29.577741" lon="103.371069"><ele>1455.8912</ele><time>2026-05-09T20:53:58.000Z</time></trkpt>
        <trkpt lat="29.577754" lon="103.371123"><ele>1455.2816</ele><time>2026-05-09T20:54:02.000Z</time></trkpt>
        <trkpt lat="29.577765" lon="103.371176"><ele>1451.6265</ele><time>2026-05-09T20:54:24.000Z</time></trkpt>
        <trkpt lat="29.577804" lon="103.371218"><ele>1451.0062</ele><time>2026-05-09T20:54:30.000Z</time></trkpt>
        <trkpt lat="29.577853" lon="103.371251"><ele>1451.077</ele><time>2026-05-09T20:54:37.000Z</time></trkpt>
        <trkpt lat="29.577885" lon="103.371291"><ele>1449.4453</ele><time>2026-05-09T20:54:52.000Z</time></trkpt>
        <trkpt lat="29.577924" lon="103.371321"><ele>1446.1605</ele><time>2026-05-09T20:55:03.000Z</time></trkpt>
        <trkpt lat="29.577968" lon="103.371341"><ele>1443.583</ele><time>2026-05-09T20:55:10.000Z</time></trkpt>
        <trkpt lat="29.578009" lon="103.371366"><ele>1441.2374</ele><time>2026-05-09T20:55:17.000Z</time></trkpt>
        <trkpt lat="29.57804" lon="103.371407"><ele>1438.4507</ele><time>2026-05-09T20:55:26.000Z</time></trkpt>
        <trkpt lat="29.578089" lon="103.371414"><ele>1436.218</ele><time>2026-05-09T20:55:31.000Z</time></trkpt>
        <trkpt lat="29.578128" lon="103.371444"><ele>1434.9764</ele><time>2026-05-09T20:55:37.000Z</time></trkpt>
        <trkpt lat="29.578155" lon="103.371499"><ele>1430.9491</ele><time>2026-05-09T20:55:43.000Z</time></trkpt>
        <trkpt lat="29.578185" lon="103.371546"><ele>1428.0892</ele><time>2026-05-09T20:55:50.000Z</time></trkpt>
        <trkpt lat="29.57823" lon="103.371566"><ele>1425.78</ele><time>2026-05-09T20:55:57.000Z</time></trkpt>
        <trkpt lat="29.578274" lon="103.37159"><ele>1424.6343</ele><time>2026-05-09T20:56:00.000Z</time></trkpt>
        <trkpt lat="29.578322" lon="103.3716"><ele>1424.6906</ele><time>2026-05-09T20:56:04.000Z</time></trkpt>
        <trkpt lat="29.578357" lon="103.371638"><ele>1421.0853</ele><time>2026-05-09T20:56:12.000Z</time></trkpt>
        <trkpt lat="29.578362" lon="103.37169"><ele>1421.8286</ele><time>2026-05-09T20:56:17.000Z</time></trkpt>
        <trkpt lat="29.578378" lon="103.371742"><ele>1420.5398</ele><time>2026-05-09T20:56:21.000Z</time></trkpt>
        <trkpt lat="29.5784" lon="103.371796"><ele>1421.7289</ele><time>2026-05-09T20:56:25.000Z</time></trkpt>
        <trkpt lat="29.578438" lon="103.37184"><ele>1419.0933</ele><time>2026-05-09T20:56:30.000Z</time></trkpt>
        <trkpt lat="29.578477" lon="103.371879"><ele>1418.2411</ele><time>2026-05-09T20:56:35.000Z</time></trkpt>
        <trkpt lat="29.578491" lon="103.371937"><ele>1416.8177</ele><time>2026-05-09T20:56:41.000Z</time></trkpt>
        <trkpt lat="29.578516" lon="103.37198"><ele>1415.4641</ele><time>2026-05-09T20:56:48.000Z</time></trkpt>
        <trkpt lat="29.578567" lon="103.371988"><ele>1411.3442</ele><time>2026-05-09T20:56:54.000Z</time></trkpt>
        <trkpt lat="29.578605" lon="103.372028"><ele>1410.4952</ele><time>2026-05-09T20:57:01.000Z</time></trkpt>
        <trkpt lat="29.578635" lon="103.372078"><ele>1410.1481</ele><time>2026-05-09T20:57:11.000Z</time></trkpt>
        <trkpt lat="29.578669" lon="103.372123"><ele>1409.3492</ele><time>2026-05-09T20:57:16.000Z</time></trkpt>
        <trkpt lat="29.578703" lon="103.372174"><ele>1407.0725</ele><time>2026-05-09T20:57:21.000Z</time></trkpt>
        <trkpt lat="29.578736" lon="103.37221"><ele>1408.4154</ele><time>2026-05-09T20:57:24.000Z</time></trkpt>
        <trkpt lat="29.578783" lon="103.372249"><ele>1407.3025</ele><time>2026-05-09T20:57:28.000Z</time></trkpt>
        <trkpt lat="29.578839" lon="103.37227"><ele>1406.2345</ele><time>2026-05-09T20:57:32.000Z</time></trkpt>
        <trkpt lat="29.578886" lon="103.372292"><ele>1407.3325</ele><time>2026-05-09T20:57:36.000Z</time></trkpt>
        <trkpt lat="29.578927" lon="103.372319"><ele>1404.6035</ele><time>2026-05-09T20:57:40.000Z</time></trkpt>
        <trkpt lat="29.578967" lon="103.372356"><ele>1403.7988</ele><time>2026-05-09T20:57:44.000Z</time></trkpt>
        <trkpt lat="29.578996" lon="103.372411"><ele>1401.2769</ele><time>2026-05-09T20:57:51.000Z</time></trkpt>
        <trkpt lat="29.579015" lon="103.372462"><ele>1400.3418</ele><time>2026-05-09T20:57:57.000Z</time></trkpt>
        <trkpt lat="29.579049" lon="103.372504"><ele>1399.158</ele><time>2026-05-09T20:58:03.000Z</time></trkpt>
        <trkpt lat="29.579106" lon="103.372492"><ele>1399.3365</ele><time>2026-05-09T20:58:07.000Z</time></trkpt>
        <trkpt lat="29.579161" lon="103.372487"><ele>1396.8127</ele><time>2026-05-09T20:58:11.000Z</time></trkpt>
        <trkpt lat="29.579219" lon="103.372502"><ele>1396.9044</ele><time>2026-05-09T20:58:15.000Z</time></trkpt>
        <trkpt lat="29.579273" lon="103.372528"><ele>1396.8745</ele><time>2026-05-09T20:58:19.000Z</time></trkpt>
        <trkpt lat="29.579318" lon="103.372556"><ele>1396.1244</ele><time>2026-05-09T20:58:24.000Z</time></trkpt>
        <trkpt lat="29.579359" lon="103.372585"><ele>1395.4254</ele><time>2026-05-09T20:58:28.000Z</time></trkpt>
        <trkpt lat="29.579401" lon="103.372612"><ele>1395.6747</ele><time>2026-05-09T20:58:33.000Z</time></trkpt>
        <trkpt lat="29.579431" lon="103.372662"><ele>1396.3369</ele><time>2026-05-09T20:58:38.000Z</time></trkpt>
        <trkpt lat="29.579449" lon="103.372715"><ele>1393.6232</ele><time>2026-05-09T20:58:44.000Z</time></trkpt>
        <trkpt lat="29.57948" lon="103.372754"><ele>1392.9668</ele><time>2026-05-09T20:58:49.000Z</time></trkpt>
        <trkpt lat="29.579514" lon="103.372798"><ele>1394.2876</ele><time>2026-05-09T20:58:54.000Z</time></trkpt>
        <trkpt lat="29.579562" lon="103.372825"><ele>1392.0815</ele><time>2026-05-09T20:59:00.000Z</time></trkpt>
        <trkpt lat="29.579603" lon="103.372857"><ele>1389.9109</ele><time>2026-05-09T20:59:05.000Z</time></trkpt>
        <trkpt lat="29.579644" lon="103.372824"><ele>1390.6572</ele><time>2026-05-09T20:59:10.000Z</time></trkpt>
        <trkpt lat="29.579683" lon="103.372865"><ele>1382.4993</ele><time>2026-05-09T20:59:22.000Z</time></trkpt>
        <trkpt lat="29.579696" lon="103.372918"><ele>1379.3411</ele><time>2026-05-09T20:59:29.000Z</time></trkpt>
        <trkpt lat="29.579731" lon="103.372952"><ele>1376.8848</ele><time>2026-05-09T20:59:33.000Z</time></trkpt>
        <trkpt lat="29.579773" lon="103.372977"><ele>1371.2338</ele><time>2026-05-09T20:59:40.000Z</time></trkpt>
        <trkpt lat="29.579804" lon="103.373032"><ele>1370.2191</ele><time>2026-05-09T20:59:44.000Z</time></trkpt>
        <trkpt lat="29.579819" lon="103.373082"><ele>1370.4064</ele><time>2026-05-09T20:59:48.000Z</time></trkpt>
        <trkpt lat="29.579846" lon="103.373124"><ele>1366.4205</ele><time>2026-05-09T20:59:55.000Z</time></trkpt>
        <trkpt lat="29.579887" lon="103.373153"><ele>1363.6957</ele><time>2026-05-09T21:00:00.000Z</time></trkpt>
        <trkpt lat="29.579922" lon="103.373194"><ele>1360.8812</ele><time>2026-05-09T21:00:04.000Z</time></trkpt>
        <trkpt lat="29.579965" lon="103.373215"><ele>1360.8567</ele><time>2026-05-09T21:00:08.000Z</time></trkpt>
        <trkpt lat="29.58" lon="103.373263"><ele>1360.5405</ele><time>2026-05-09T21:00:12.000Z</time></trkpt>
        <trkpt lat="29.580041" lon="103.373287"><ele>1357.4224</ele><time>2026-05-09T21:00:17.000Z</time></trkpt>
        <trkpt lat="29.580067" lon="103.373337"><ele>1354.3638</ele><time>2026-05-09T21:00:24.000Z</time></trkpt>
        <trkpt lat="29.580108" lon="103.373382"><ele>1350.4404</ele><time>2026-05-09T21:00:32.000Z</time></trkpt>
        <trkpt lat="29.580138" lon="103.373441"><ele>1351.2091</ele><time>2026-05-09T21:00:37.000Z</time></trkpt>
        <trkpt lat="29.580175" lon="103.373473"><ele>1348.407</ele><time>2026-05-09T21:00:41.000Z</time></trkpt>
        <trkpt lat="29.580212" lon="103.373509"><ele>1347.0516</ele><time>2026-05-09T21:00:45.000Z</time></trkpt>
        <trkpt lat="29.580246" lon="103.373556"><ele>1344.6954</ele><time>2026-05-09T21:00:51.000Z</time></trkpt>
        <trkpt lat="29.58029" lon="103.373593"><ele>1343.6367</ele><time>2026-05-09T21:00:56.000Z</time></trkpt>
        <trkpt lat="29.580333" lon="103.373633"><ele>1343.3763</ele><time>2026-05-09T21:01:01.000Z</time></trkpt>
        <trkpt lat="29.580369" lon="103.373666"><ele>1344.4348</ele><time>2026-05-09T21:01:06.000Z</time></trkpt>
        <trkpt lat="29.580408" lon="103.37371"><ele>1345.7928</ele><time>2026-05-09T21:01:09.000Z</time></trkpt>
        <trkpt lat="29.580442" lon="103.373765"><ele>1346.2881</ele><time>2026-05-09T21:01:13.000Z</time></trkpt>
        <trkpt lat="29.580478" lon="103.373804"><ele>1348.5457</ele><time>2026-05-09T21:01:17.000Z</time></trkpt>
        <trkpt lat="29.580524" lon="103.373834"><ele>1348.4647</ele><time>2026-05-09T21:01:22.000Z</time></trkpt>
        <trkpt lat="29.58057" lon="103.373842"><ele>1345.1211</ele><time>2026-05-09T21:01:27.000Z</time></trkpt>
        <trkpt lat="29.580615" lon="103.373883"><ele>1341.1495</ele><time>2026-05-09T21:01:35.000Z</time></trkpt>
        <trkpt lat="29.58064" lon="103.373931"><ele>1339.197</ele><time>2026-05-09T21:01:44.000Z</time></trkpt>
        <trkpt lat="29.580671" lon="103.373977"><ele>1338.2521</ele><time>2026-05-09T21:01:51.000Z</time></trkpt>
        <trkpt lat="29.580681" lon="103.37403"><ele>1337.1226</ele><time>2026-05-09T21:01:59.000Z</time></trkpt>
        <trkpt lat="29.580692" lon="103.37409"><ele>1340.9305</ele><time>2026-05-09T21:02:14.000Z</time></trkpt>
        <trkpt lat="29.580693" lon="103.374147"><ele>1340.5245</ele><time>2026-05-09T21:02:21.000Z</time></trkpt>
        <trkpt lat="29.580702" lon="103.374205"><ele>1339.3708</ele><time>2026-05-09T21:02:31.000Z</time></trkpt>
        <trkpt lat="29.580701" lon="103.37426"><ele>1339.7615</ele><time>2026-05-09T21:02:56.000Z</time></trkpt>
        <trkpt lat="29.580697" lon="103.374312"><ele>1336.1023</ele><time>2026-05-09T21:03:04.000Z</time></trkpt>
        <trkpt lat="29.580684" lon="103.374363"><ele>1332.4757</ele><time>2026-05-09T21:03:11.000Z</time></trkpt>
        <trkpt lat="29.580672" lon="103.374421"><ele>1330.0048</ele><time>2026-05-09T21:03:18.000Z</time></trkpt>
        <trkpt lat="29.580678" lon="103.374477"><ele>1328.4987</ele><time>2026-05-09T21:03:23.000Z</time></trkpt>
        <trkpt lat="29.580682" lon="103.374532"><ele>1326.2783</ele><time>2026-05-09T21:03:29.000Z</time></trkpt>
        <trkpt lat="29.580689" lon="103.374595"><ele>1323.0492</ele><time>2026-05-09T21:03:35.000Z</time></trkpt>
        <trkpt lat="29.580687" lon="103.37465"><ele>1322.6206</ele><time>2026-05-09T21:03:39.000Z</time></trkpt>
        <trkpt lat="29.580675" lon="103.374708"><ele>1319.0887</ele><time>2026-05-09T21:03:45.000Z</time></trkpt>
        <trkpt lat="29.580669" lon="103.374775"><ele>1319.8728</ele><time>2026-05-09T21:03:49.000Z</time></trkpt>
        <trkpt lat="29.580687" lon="103.374824"><ele>1317.5388</ele><time>2026-05-09T21:03:53.000Z</time></trkpt>
        <trkpt lat="29.580718" lon="103.374874"><ele>1312.2347</ele><time>2026-05-09T21:04:01.000Z</time></trkpt>
        <trkpt lat="29.58073" lon="103.37493"><ele>1307.3735</ele><time>2026-05-09T21:04:09.000Z</time></trkpt>
        <trkpt lat="29.580751" lon="103.374981"><ele>1305.0521</ele><time>2026-05-09T21:04:15.000Z</time></trkpt>
        <trkpt lat="29.580731" lon="103.375028"><ele>1302.7875</ele><time>2026-05-09T21:04:21.000Z</time></trkpt>
        <trkpt lat="29.580723" lon="103.37508"><ele>1298.7296</ele><time>2026-05-09T21:04:26.000Z</time></trkpt>
        <trkpt lat="29.580712" lon="103.375147"><ele>1294.3413</ele><time>2026-05-09T21:04:34.000Z</time></trkpt>
        <trkpt lat="29.580705" lon="103.375202"><ele>1288.3667</ele><time>2026-05-09T21:04:42.000Z</time></trkpt>
        <trkpt lat="29.580706" lon="103.375258"><ele>1286.3864</ele><time>2026-05-09T21:04:46.000Z</time></trkpt>
        <trkpt lat="29.5807" lon="103.375312"><ele>1282.9506</ele><time>2026-05-09T21:04:51.000Z</time></trkpt>
        <trkpt lat="29.580707" lon="103.375365"><ele>1281.4446</ele><time>2026-05-09T21:04:56.000Z</time></trkpt>
        <trkpt lat="29.580679" lon="103.375415"><ele>1280.515</ele><time>2026-05-09T21:04:59.000Z</time></trkpt>
        <trkpt lat="29.580631" lon="103.375439"><ele>1284.046</ele><time>2026-05-09T21:05:02.000Z</time></trkpt>
        <trkpt lat="29.580581" lon="103.37546"><ele>1287.3656</ele><time>2026-05-09T21:05:06.000Z</time></trkpt>
        <trkpt lat="29.580533" lon="103.375491"><ele>1289.7953</ele><time>2026-05-09T21:05:10.000Z</time></trkpt>
        <trkpt lat="29.580485" lon="103.375518"><ele>1292.598</ele><time>2026-05-09T21:05:14.000Z</time></trkpt>
        <trkpt lat="29.580433" lon="103.375523"><ele>1290.4006</ele><time>2026-05-09T21:05:18.000Z</time></trkpt>
        <trkpt lat="29.580398" lon="103.375561"><ele>1290.8855</ele><time>2026-05-09T21:05:22.000Z</time></trkpt>
        <trkpt lat="29.580374" lon="103.375624"><ele>1289.0238</ele><time>2026-05-09T21:05:27.000Z</time></trkpt>
        <trkpt lat="29.580331" lon="103.375597"><ele>1285.7372</ele><time>2026-05-09T21:05:33.000Z</time></trkpt>
        <trkpt lat="29.580273" lon="103.375587"><ele>1283.2384</ele><time>2026-05-09T21:05:38.000Z</time></trkpt>
        <trkpt lat="29.580231" lon="103.375569"><ele>1284.349</ele><time>2026-05-09T21:05:41.000Z</time></trkpt>
        <trkpt lat="29.580177" lon="103.375574"><ele>1277.8861</ele><time>2026-05-09T21:05:47.000Z</time></trkpt>
        <trkpt lat="29.580128" lon="103.375553"><ele>1275.6885</ele><time>2026-05-09T21:05:51.000Z</time></trkpt>
        <trkpt lat="29.580081" lon="103.375556"><ele>1273.6256</ele><time>2026-05-09T21:05:55.000Z</time></trkpt>
        <trkpt lat="29.580034" lon="103.375557"><ele>1270.2528</ele><time>2026-05-09T21:06:00.000Z</time></trkpt>
        <trkpt lat="29.579991" lon="103.375581"><ele>1262.3071</ele><time>2026-05-09T21:06:14.000Z</time></trkpt>
        <trkpt lat="29.579942" lon="103.375605"><ele>1262.2002</ele><time>2026-05-09T21:06:18.000Z</time></trkpt>
        <trkpt lat="29.579894" lon="103.375629"><ele>1259.7</ele><time>2026-05-09T21:06:22.000Z</time></trkpt>
        <trkpt lat="29.579871" lon="103.375678"><ele>1255.7764</ele><time>2026-05-09T21:06:31.000Z</time></trkpt>
        <trkpt lat="29.579839" lon="103.375741"><ele>1253.28</ele><time>2026-05-09T21:06:50.000Z</time></trkpt>
        <trkpt lat="29.579824" lon="103.375799"><ele>1250.9427</ele><time>2026-05-09T21:06:59.000Z</time></trkpt>
        <trkpt lat="29.579823" lon="103.375851"><ele>1251.2845</ele><time>2026-05-09T21:07:02.000Z</time></trkpt>
        <trkpt lat="29.579862" lon="103.375894"><ele>1250.5426</ele><time>2026-05-09T21:07:06.000Z</time></trkpt>
        <trkpt lat="29.579897" lon="103.375943"><ele>1249.8868</ele><time>2026-05-09T21:07:10.000Z</time></trkpt>
        <trkpt lat="29.579939" lon="103.375981"><ele>1250.2462</ele><time>2026-05-09T21:07:14.000Z</time></trkpt>
        <trkpt lat="29.579957" lon="103.376033"><ele>1249.8711</ele><time>2026-05-09T21:07:18.000Z</time></trkpt>
        <trkpt lat="29.579991" lon="103.376076"><ele>1248.5925</ele><time>2026-05-09T21:07:22.000Z</time></trkpt>
        <trkpt lat="29.580022" lon="103.376129"><ele>1246.3417</ele><time>2026-05-09T21:07:26.000Z</time></trkpt>
        <trkpt lat="29.580044" lon="103.376181"><ele>1245.2822</ele><time>2026-05-09T21:07:30.000Z</time></trkpt>
        <trkpt lat="29.580061" lon="103.376238"><ele>1243.0996</ele><time>2026-05-09T21:07:33.000Z</time></trkpt>
        <trkpt lat="29.580085" lon="103.376298"><ele>1241.2626</ele><time>2026-05-09T21:07:37.000Z</time></trkpt>
        <trkpt lat="29.580118" lon="103.376355"><ele>1240.9417</ele><time>2026-05-09T21:07:41.000Z</time></trkpt>
        <trkpt lat="29.580178" lon="103.376342"><ele>1240.5092</ele><time>2026-05-09T21:07:44.000Z</time></trkpt>
        <trkpt lat="29.580236" lon="103.376341"><ele>1240.1302</ele><time>2026-05-09T21:07:48.000Z</time></trkpt>
        <trkpt lat="29.580279" lon="103.376322"><ele>1240.8484</ele><time>2026-05-09T21:07:54.000Z</time></trkpt>
        <trkpt lat="29.580325" lon="103.376335"><ele>1240.5614</ele><time>2026-05-09T21:07:57.000Z</time></trkpt>
        <trkpt lat="29.580374" lon="103.376338"><ele>1240.6863</ele><time>2026-05-09T21:08:00.000Z</time></trkpt>
        <trkpt lat="29.580432" lon="103.37633"><ele>1239.4177</ele><time>2026-05-09T21:08:04.000Z</time></trkpt>
        <trkpt lat="29.580478" lon="103.376323"><ele>1236.7399</ele><time>2026-05-09T21:08:08.000Z</time></trkpt>
        <trkpt lat="29.580536" lon="103.376326"><ele>1238.7881</ele><time>2026-05-09T21:08:13.000Z</time></trkpt>
        <trkpt lat="29.580584" lon="103.376313"><ele>1239.5631</ele><time>2026-05-09T21:08:16.000Z</time></trkpt>
        <trkpt lat="29.580638" lon="103.376305"><ele>1239.4523</ele><time>2026-05-09T21:08:20.000Z</time></trkpt>
        <trkpt lat="29.580685" lon="103.376302"><ele>1238.4567</ele><time>2026-05-09T21:08:23.000Z</time></trkpt>
        <trkpt lat="29.580734" lon="103.376297"><ele>1239.2921</ele><time>2026-05-09T21:08:28.000Z</time></trkpt>
        <trkpt lat="29.580774" lon="103.376263"><ele>1238.1329</ele><time>2026-05-09T21:08:35.000Z</time></trkpt>
        <trkpt lat="29.580818" lon="103.376243"><ele>1237.8544</ele><time>2026-05-09T21:08:39.000Z</time></trkpt>
        <trkpt lat="29.580865" lon="103.376237"><ele>1236.4421</ele><time>2026-05-09T21:08:43.000Z</time></trkpt>
        <trkpt lat="29.580909" lon="103.376225"><ele>1235.77</ele><time>2026-05-09T21:08:46.000Z</time></trkpt>
        <trkpt lat="29.580958" lon="103.376214"><ele>1236.1235</ele><time>2026-05-09T21:08:54.000Z</time></trkpt>
        <trkpt lat="29.580979" lon="103.376167"><ele>1234.4852</ele><time>2026-05-09T21:09:00.000Z</time></trkpt>
        <trkpt lat="29.581013" lon="103.376215"><ele>1228.5491</ele><time>2026-05-09T21:09:11.000Z</time></trkpt>
        <trkpt lat="29.580982" lon="103.376257"><ele>1228.289</ele><time>2026-05-09T21:09:19.000Z</time></trkpt>
        <trkpt lat="29.580937" lon="103.376313"><ele>1227.4691</ele><time>2026-05-09T21:09:31.000Z</time></trkpt>
        <trkpt lat="29.580903" lon="103.376358"><ele>1226.0975</ele><time>2026-05-09T21:09:36.000Z</time></trkpt>
        <trkpt lat="29.580938" lon="103.376416"><ele>1221.4645</ele><time>2026-05-09T21:09:41.000Z</time></trkpt>
        <trkpt lat="29.580983" lon="103.376451"><ele>1218.5748</ele><time>2026-05-09T21:09:44.000Z</time></trkpt>
        <trkpt lat="29.581013" lon="103.376495"><ele>1219.6576</ele><time>2026-05-09T21:09:46.000Z</time></trkpt>
        <trkpt lat="29.581047" lon="103.376535"><ele>1216.2571</ele><time>2026-05-09T21:09:49.000Z</time></trkpt>
        <trkpt lat="29.581095" lon="103.376555"><ele>1211.4935</ele><time>2026-05-09T21:09:53.000Z</time></trkpt>
        <trkpt lat="29.58114" lon="103.37653"><ele>1208.97</ele><time>2026-05-09T21:09:57.000Z</time></trkpt>
        <trkpt lat="29.581126" lon="103.376476"><ele>1207.8975</ele><time>2026-05-09T21:10:00.000Z</time></trkpt>
        <trkpt lat="29.581137" lon="103.376423"><ele>1204.9738</ele><time>2026-05-09T21:10:05.000Z</time></trkpt>
        <trkpt lat="29.581165" lon="103.376466"><ele>1197.3485</ele><time>2026-05-09T21:10:13.000Z</time></trkpt>
        <trkpt lat="29.581208" lon="103.376487"><ele>1195.2728</ele><time>2026-05-09T21:10:18.000Z</time></trkpt>
        <trkpt lat="29.58122" lon="103.376429"><ele>1193.2365</ele><time>2026-05-09T21:10:22.000Z</time></trkpt>
        <trkpt lat="29.581244" lon="103.37637"><ele>1194.1407</ele><time>2026-05-09T21:10:26.000Z</time></trkpt>
        <trkpt lat="29.581289" lon="103.376362"><ele>1195.019</ele><time>2026-05-09T21:10:31.000Z</time></trkpt>
        <trkpt lat="29.581348" lon="103.376346"><ele>1193.8202</ele><time>2026-05-09T21:10:37.000Z</time></trkpt>
        <trkpt lat="29.581395" lon="103.376332"><ele>1191.89</ele><time>2026-05-09T21:10:41.000Z</time></trkpt>
        <trkpt lat="29.581447" lon="103.376338"><ele>1186.4547</ele><time>2026-05-09T21:10:45.000Z</time></trkpt>
        <trkpt lat="29.581492" lon="103.376346"><ele>1182.372</ele><time>2026-05-09T21:10:49.000Z</time></trkpt>
        <trkpt lat="29.581539" lon="103.376353"><ele>1181.3534</ele><time>2026-05-09T21:10:52.000Z</time></trkpt>
        <trkpt lat="29.581585" lon="103.37634"><ele>1177.8556</ele><time>2026-05-09T21:10:57.000Z</time></trkpt>
        <trkpt lat="29.58164" lon="103.376332"><ele>1176.3367</ele><time>2026-05-09T21:11:02.000Z</time></trkpt>
        <trkpt lat="29.581686" lon="103.376307"><ele>1173.6624</ele><time>2026-05-09T21:11:08.000Z</time></trkpt>
        <trkpt lat="29.581734" lon="103.376288"><ele>1169.8298</ele><time>2026-05-09T21:11:15.000Z</time></trkpt>
        <trkpt lat="29.581783" lon="103.376267"><ele>1167.2827</ele><time>2026-05-09T21:11:21.000Z</time></trkpt>
        <trkpt lat="29.581834" lon="103.376251"><ele>1165.1655</ele><time>2026-05-09T21:11:26.000Z</time></trkpt>
        <trkpt lat="29.581788" lon="103.376244"><ele>1164.7096</ele><time>2026-05-09T21:11:46.000Z</time></trkpt>
        <trkpt lat="29.581813" lon="103.376296"><ele>1158.6305</ele><time>2026-05-09T21:12:01.000Z</time></trkpt>
        <trkpt lat="29.581824" lon="103.376352"><ele>1157.2384</ele><time>2026-05-09T21:12:10.000Z</time></trkpt>
        <trkpt lat="29.58179" lon="103.376408"><ele>1154.8007</ele><time>2026-05-09T21:12:16.000Z</time></trkpt>
        <trkpt lat="29.581771" lon="103.376469"><ele>1152.1699</ele><time>2026-05-09T21:12:21.000Z</time></trkpt>
        <trkpt lat="29.581819" lon="103.3765"><ele>1147.9443</ele><time>2026-05-09T21:12:34.000Z</time></trkpt>
        <trkpt lat="29.581858" lon="103.37653"><ele>1145.2465</ele><time>2026-05-09T21:12:40.000Z</time></trkpt>
        <trkpt lat="29.581903" lon="103.376544"><ele>1141.4731</ele><time>2026-05-09T21:12:46.000Z</time></trkpt>
        <trkpt lat="29.581949" lon="103.37655"><ele>1139.0435</ele><time>2026-05-09T21:12:53.000Z</time></trkpt>
        <trkpt lat="29.581995" lon="103.376562"><ele>1135.6755</ele><time>2026-05-09T21:13:01.000Z</time></trkpt>
        <trkpt lat="29.582036" lon="103.376539"><ele>1134.3507</ele><time>2026-05-09T21:13:08.000Z</time></trkpt>
        <trkpt lat="29.582035" lon="103.376601"><ele>1132.9268</ele><time>2026-05-09T21:13:11.000Z</time></trkpt>
        <trkpt lat="29.582044" lon="103.376657"><ele>1129.7523</ele><time>2026-05-09T21:13:16.000Z</time></trkpt>
        <trkpt lat="29.582056" lon="103.376711"><ele>1126.5201</ele><time>2026-05-09T21:13:23.000Z</time></trkpt>
        <trkpt lat="29.582066" lon="103.376766"><ele>1122.603</ele><time>2026-05-09T21:13:34.000Z</time></trkpt>
        <trkpt lat="29.582116" lon="103.376761"><ele>1120.3848</ele><time>2026-05-09T21:13:44.000Z</time></trkpt>
        <trkpt lat="29.582164" lon="103.376768"><ele>1120.2661</ele><time>2026-05-09T21:13:52.000Z</time></trkpt>
        <trkpt lat="29.582156" lon="103.376821"><ele>1120.0144</ele><time>2026-05-09T21:14:05.000Z</time></trkpt>
        <trkpt lat="29.582121" lon="103.376855"><ele>1129.3562</ele><time>2026-05-09T21:16:40.000Z</time></trkpt>
        <trkpt lat="29.582128" lon="103.376911"><ele>1115.8057</ele><time>2026-05-09T21:19:58.000Z</time></trkpt>
        <trkpt lat="29.582133" lon="103.376969"><ele>1113.9698</ele><time>2026-05-09T21:20:07.000Z</time></trkpt>
        <trkpt lat="29.582133" lon="103.377026"><ele>1111.2148</ele><time>2026-05-09T21:20:17.000Z</time></trkpt>
        <trkpt lat="29.582139" lon="103.377081"><ele>1110.1083</ele><time>2026-05-09T21:20:23.000Z</time></trkpt>
        <trkpt lat="29.582138" lon="103.377137"><ele>1104.5255</ele><time>2026-05-09T21:20:34.000Z</time></trkpt>
        <trkpt lat="29.582172" lon="103.377176"><ele>1103.0049</ele><time>2026-05-09T21:20:47.000Z</time></trkpt>
        <trkpt lat="29.582227" lon="103.377165"><ele>1102.0747</ele><time>2026-05-09T21:20:56.000Z</time></trkpt>
        <trkpt lat="29.582282" lon="103.377148"><ele>1099.3783</ele><time>2026-05-09T21:21:01.000Z</time></trkpt>
        <trkpt lat="29.582285" lon="103.377207"><ele>1096.5417</ele><time>2026-05-09T21:21:07.000Z</time></trkpt>
        <trkpt lat="29.582286" lon="103.377264"><ele>1094.1632</ele><time>2026-05-09T21:21:16.000Z</time></trkpt>
        <trkpt lat="29.582324" lon="103.377294"><ele>1094.4818</ele><time>2026-05-09T21:21:19.000Z</time></trkpt>
        <trkpt lat="29.582352" lon="103.377338"><ele>1091.7623</ele><time>2026-05-09T21:21:30.000Z</time></trkpt>
        <trkpt lat="29.582382" lon="103.377384"><ele>1089.389</ele><time>2026-05-09T21:21:40.000Z</time></trkpt>
        <trkpt lat="29.58241" lon="103.377425"><ele>1090.0018</ele><time>2026-05-09T21:21:47.000Z</time></trkpt>
        <trkpt lat="29.582438" lon="103.377469"><ele>1089.9421</ele><time>2026-05-09T21:21:55.000Z</time></trkpt>
        <trkpt lat="29.582422" lon="103.37752"><ele>1089.1416</ele><time>2026-05-09T21:22:05.000Z</time></trkpt>
        <trkpt lat="29.582396" lon="103.377564"><ele>1087.0682</ele><time>2026-05-09T21:22:13.000Z</time></trkpt>
        <trkpt lat="29.582383" lon="103.377617"><ele>1082.8518</ele><time>2026-05-09T21:22:22.000Z</time></trkpt>
        <trkpt lat="29.582369" lon="103.377677"><ele>1081.1804</ele><time>2026-05-09T21:22:30.000Z</time></trkpt>
        <trkpt lat="29.58239" lon="103.377727"><ele>1077.7784</ele><time>2026-05-09T21:22:38.000Z</time></trkpt>
        <trkpt lat="29.582393" lon="103.377778"><ele>1076.4664</ele><time>2026-05-09T21:22:44.000Z</time></trkpt>
        <trkpt lat="29.582392" lon="103.377835"><ele>1074.3121</ele><time>2026-05-09T21:22:50.000Z</time></trkpt>
        <trkpt lat="29.58241" lon="103.377892"><ele>1074.0946</ele><time>2026-05-09T21:22:55.000Z</time></trkpt>
        <trkpt lat="29.582412" lon="103.377951"><ele>1073.9807</ele><time>2026-05-09T21:23:00.000Z</time></trkpt>
        <trkpt lat="29.582425" lon="103.378006"><ele>1071.3427</ele><time>2026-05-09T21:23:05.000Z</time></trkpt>
        <trkpt lat="29.582434" lon="103.378065"><ele>1069.737</ele><time>2026-05-09T21:23:11.000Z</time></trkpt>
        <trkpt lat="29.582437" lon="103.378119"><ele>1067.577</ele><time>2026-05-09T21:23:15.000Z</time></trkpt>
        <trkpt lat="29.582452" lon="103.378173"><ele>1063.3804</ele><time>2026-05-09T21:23:22.000Z</time></trkpt>
        <trkpt lat="29.582466" lon="103.378227"><ele>1060.8888</ele><time>2026-05-09T21:23:29.000Z</time></trkpt>
        <trkpt lat="29.582478" lon="103.378278"><ele>1058.2623</ele><time>2026-05-09T21:23:35.000Z</time></trkpt>
        <trkpt lat="29.582515" lon="103.378323"><ele>1060.1222</ele><time>2026-05-09T21:23:39.000Z</time></trkpt>
        <trkpt lat="29.582544" lon="103.378365"><ele>1060.4482</ele><time>2026-05-09T21:23:55.000Z</time></trkpt>
        <trkpt lat="29.582596" lon="103.378349"><ele>1057.8796</ele><time>2026-05-09T21:24:00.000Z</time></trkpt>
        <trkpt lat="29.582638" lon="103.37838"><ele>1055.7559</ele><time>2026-05-09T21:24:06.000Z</time></trkpt>
        <trkpt lat="29.582681" lon="103.378394"><ele>1052.8978</ele><time>2026-05-09T21:24:12.000Z</time></trkpt>
        <trkpt lat="29.582719" lon="103.378436"><ele>1047.5106</ele><time>2026-05-09T21:24:17.000Z</time></trkpt>
        <trkpt lat="29.582756" lon="103.378471"><ele>1044.5405</ele><time>2026-05-09T21:24:22.000Z</time></trkpt>
        <trkpt lat="29.582771" lon="103.37852"><ele>1041.66</ele><time>2026-05-09T21:24:27.000Z</time></trkpt>
        <trkpt lat="29.582787" lon="103.378571"><ele>1039.3268</ele><time>2026-05-09T21:24:34.000Z</time></trkpt>
        <trkpt lat="29.58283" lon="103.378606"><ele>1038.1676</ele><time>2026-05-09T21:24:43.000Z</time></trkpt>
        <trkpt lat="29.582873" lon="103.378628"><ele>1037.1919</ele><time>2026-05-09T21:25:04.000Z</time></trkpt>
        <trkpt lat="29.58291" lon="103.378659"><ele>1034.7201</ele><time>2026-05-09T21:25:18.000Z</time></trkpt>
        <trkpt lat="29.582956" lon="103.3787"><ele>1034.3959</ele><time>2026-05-09T21:25:27.000Z</time></trkpt>
        <trkpt lat="29.582997" lon="103.378728"><ele>1030.8629</ele><time>2026-05-09T21:25:36.000Z</time></trkpt>
        <trkpt lat="29.583026" lon="103.378782"><ele>1027.7992</ele><time>2026-05-09T21:25:44.000Z</time></trkpt>
        <trkpt lat="29.58303" lon="103.378844"><ele>1024.7336</ele><time>2026-05-09T21:25:53.000Z</time></trkpt>
        <trkpt lat="29.583026" lon="103.378895"><ele>1025.0386</ele><time>2026-05-09T21:26:02.000Z</time></trkpt>
        <trkpt lat="29.583023" lon="103.378952"><ele>1026.669</ele><time>2026-05-09T21:26:06.000Z</time></trkpt>
        <trkpt lat="29.583028" lon="103.379004"><ele>1026.7157</ele><time>2026-05-09T21:26:11.000Z</time></trkpt>
        <trkpt lat="29.583018" lon="103.379058"><ele>1026.423</ele><time>2026-05-09T21:26:17.000Z</time></trkpt>
        <trkpt lat="29.583" lon="103.379115"><ele>1024.9888</ele><time>2026-05-09T21:26:22.000Z</time></trkpt>
        <trkpt lat="29.582987" lon="103.379167"><ele>1025.2473</ele><time>2026-05-09T21:26:26.000Z</time></trkpt>
        <trkpt lat="29.582953" lon="103.379209"><ele>1025.2379</ele><time>2026-05-09T21:26:32.000Z</time></trkpt>
        <trkpt lat="29.582927" lon="103.379255"><ele>1024.6383</ele><time>2026-05-09T21:26:37.000Z</time></trkpt>
        <trkpt lat="29.582895" lon="103.379295"><ele>1023.1444</ele><time>2026-05-09T21:26:43.000Z</time></trkpt>
        <trkpt lat="29.582854" lon="103.379333"><ele>1021.01587</ele><time>2026-05-09T21:26:51.000Z</time></trkpt>
        <trkpt lat="29.582807" lon="103.379363"><ele>1020.46484</ele><time>2026-05-09T21:26:57.000Z</time></trkpt>
        <trkpt lat="29.582762" lon="103.379402"><ele>1020.63873</ele><time>2026-05-09T21:27:04.000Z</time></trkpt>
        <trkpt lat="29.582702" lon="103.37941"><ele>1021.6114</ele><time>2026-05-09T21:27:07.000Z</time></trkpt>
        <trkpt lat="29.58267" lon="103.379452"><ele>1021.60974</ele><time>2026-05-09T21:27:11.000Z</time></trkpt>
        <trkpt lat="29.582691" lon="103.379498"><ele>1021.3157</ele><time>2026-05-09T21:27:15.000Z</time></trkpt>
        <trkpt lat="29.582706" lon="103.379552"><ele>1018.4638</ele><time>2026-05-09T21:27:21.000Z</time></trkpt>
        <trkpt lat="29.582699" lon="103.379603"><ele>1019.2702</ele><time>2026-05-09T21:27:24.000Z</time></trkpt>
        <trkpt lat="29.582741" lon="103.379634"><ele>1017.71594</ele><time>2026-05-09T21:27:31.000Z</time></trkpt>
        <trkpt lat="29.582783" lon="103.379609"><ele>1018.2147</ele><time>2026-05-09T21:27:34.000Z</time></trkpt>
        <trkpt lat="29.58284" lon="103.379577"><ele>1017.30133</ele><time>2026-05-09T21:27:38.000Z</time></trkpt>
        <trkpt lat="29.582877" lon="103.379529"><ele>1015.2942</ele><time>2026-05-09T21:27:42.000Z</time></trkpt>
        <trkpt lat="29.582923" lon="103.379477"><ele>1015.1015</ele><time>2026-05-09T21:27:48.000Z</time></trkpt>
        <trkpt lat="29.582965" lon="103.379453"><ele>1014.7471</ele><time>2026-05-09T21:27:51.000Z</time></trkpt>
        <trkpt lat="29.58301" lon="103.37945"><ele>1014.99365</ele><time>2026-05-09T21:27:54.000Z</time></trkpt>
        <trkpt lat="29.583035" lon="103.3795"><ele>1013.7282</ele><time>2026-05-09T21:27:58.000Z</time></trkpt>
        <trkpt lat="29.583002" lon="103.379549"><ele>1013.3825</ele><time>2026-05-09T21:28:02.000Z</time></trkpt>
        <trkpt lat="29.582975" lon="103.379597"><ele>1012.7156</ele><time>2026-05-09T21:28:06.000Z</time></trkpt>
        <trkpt lat="29.582944" lon="103.379643"><ele>1010.3925</ele><time>2026-05-09T21:28:11.000Z</time></trkpt>
        <trkpt lat="29.582963" lon="103.379704"><ele>1006.8704</ele><time>2026-05-09T21:28:18.000Z</time></trkpt>
        <trkpt lat="29.583009" lon="103.379742"><ele>1006.0882</ele><time>2026-05-09T21:28:22.000Z</time></trkpt>
        <trkpt lat="29.583023" lon="103.379803"><ele>1003.2923</ele><time>2026-05-09T21:28:26.000Z</time></trkpt>
        <trkpt lat="29.583048" lon="103.379848"><ele>1002.2864</ele><time>2026-05-09T21:28:29.000Z</time></trkpt>
        <trkpt lat="29.583079" lon="103.379902"><ele>1002.5774</ele><time>2026-05-09T21:28:33.000Z</time></trkpt>
        <trkpt lat="29.583108" lon="103.379942"><ele>1001.9098</ele><time>2026-05-09T21:28:37.000Z</time></trkpt>
        <trkpt lat="29.583128" lon="103.38"><ele>1001.6336</ele><time>2026-05-09T21:28:41.000Z</time></trkpt>
        <trkpt lat="29.583084" lon="103.380053"><ele>999.18427</ele><time>2026-05-09T21:28:44.000Z</time></trkpt>
        <trkpt lat="29.583077" lon="103.38011"><ele>1000.3771</ele><time>2026-05-09T21:28:47.000Z</time></trkpt>
        <trkpt lat="29.583054" lon="103.380157"><ele>1001.9767</ele><time>2026-05-09T21:28:50.000Z</time></trkpt>
        <trkpt lat="29.583027" lon="103.380214"><ele>1001.2828</ele><time>2026-05-09T21:28:54.000Z</time></trkpt>
        <trkpt lat="29.583003" lon="103.380259"><ele>1001.42334</ele><time>2026-05-09T21:28:57.000Z</time></trkpt>
        <trkpt lat="29.582972" lon="103.380309"><ele>1001.3179</ele><time>2026-05-09T21:29:01.000Z</time></trkpt>
        <trkpt lat="29.582942" lon="103.380351"><ele>999.80444</ele><time>2026-05-09T21:29:07.000Z</time></trkpt>
        <trkpt lat="29.582906" lon="103.380408"><ele>999.05554</ele><time>2026-05-09T21:29:11.000Z</time></trkpt>
        <trkpt lat="29.582872" lon="103.380449"><ele>998.3187</ele><time>2026-05-09T21:29:14.000Z</time></trkpt>
        <trkpt lat="29.582851" lon="103.380498"><ele>997.7314</ele><time>2026-05-09T21:29:18.000Z</time></trkpt>
        <trkpt lat="29.582831" lon="103.380547"><ele>997.40375</ele><time>2026-05-09T21:29:21.000Z</time></trkpt>
        <trkpt lat="29.582823" lon="103.380598"><ele>996.86896</ele><time>2026-05-09T21:29:24.000Z</time></trkpt>
        <trkpt lat="29.582802" lon="103.380658"><ele>995.5937</ele><time>2026-05-09T21:29:28.000Z</time></trkpt>
        <trkpt lat="29.582787" lon="103.380715"><ele>993.6731</ele><time>2026-05-09T21:29:32.000Z</time></trkpt>
        <trkpt lat="29.582774" lon="103.380777"><ele>994.15985</ele><time>2026-05-09T21:29:36.000Z</time></trkpt>
        <trkpt lat="29.582755" lon="103.380841"><ele>994.9507</ele><time>2026-05-09T21:29:40.000Z</time></trkpt>
        <trkpt lat="29.582744" lon="103.380894"><ele>994.5925</ele><time>2026-05-09T21:29:44.000Z</time></trkpt>
        <trkpt lat="29.582744" lon="103.380946"><ele>993.4454</ele><time>2026-05-09T21:29:48.000Z</time></trkpt>
        <trkpt lat="29.58276" lon="103.380999"><ele>992.5096</ele><time>2026-05-09T21:29:53.000Z</time></trkpt>
        <trkpt lat="29.582766" lon="103.381056"><ele>992.1775</ele><time>2026-05-09T21:29:57.000Z</time></trkpt>
        <trkpt lat="29.582783" lon="103.381117"><ele>992.2099</ele><time>2026-05-09T21:30:02.000Z</time></trkpt>
        <trkpt lat="29.582754" lon="103.381158"><ele>992.5761</ele><time>2026-05-09T21:30:06.000Z</time></trkpt>
        <trkpt lat="29.582723" lon="103.3812"><ele>992.7607</ele><time>2026-05-09T21:30:10.000Z</time></trkpt>
        <trkpt lat="29.582694" lon="103.381243"><ele>993.10315</ele><time>2026-05-09T21:30:14.000Z</time></trkpt>
        <trkpt lat="29.582666" lon="103.381294"><ele>993.85565</ele><time>2026-05-09T21:30:18.000Z</time></trkpt>
        <trkpt lat="29.582635" lon="103.381342"><ele>994.5192</ele><time>2026-05-09T21:30:22.000Z</time></trkpt>
        <trkpt lat="29.582606" lon="103.381396"><ele>994.2095</ele><time>2026-05-09T21:30:26.000Z</time></trkpt>
        <trkpt lat="29.582577" lon="103.381445"><ele>993.50543</ele><time>2026-05-09T21:30:30.000Z</time></trkpt>
        <trkpt lat="29.582546" lon="103.381485"><ele>992.8436</ele><time>2026-05-09T21:30:34.000Z</time></trkpt>
        <trkpt lat="29.582519" lon="103.381537"><ele>992.8244</ele><time>2026-05-09T21:30:38.000Z</time></trkpt>
        <trkpt lat="29.582497" lon="103.381585"><ele>992.50867</ele><time>2026-05-09T21:30:41.000Z</time></trkpt>
        <trkpt lat="29.58247" lon="103.381637"><ele>992.2195</ele><time>2026-05-09T21:30:46.000Z</time></trkpt>
        <trkpt lat="29.582458" lon="103.381692"><ele>993.33673</ele><time>2026-05-09T21:30:52.000Z</time></trkpt>
        <trkpt lat="29.582434" lon="103.381748"><ele>993.04047</ele><time>2026-05-09T21:31:00.000Z</time></trkpt>
        <trkpt lat="29.582406" lon="103.381803"><ele>994.4005</ele><time>2026-05-09T21:31:04.000Z</time></trkpt>
        <trkpt lat="29.582373" lon="103.381858"><ele>995.0495</ele><time>2026-05-09T21:31:08.000Z</time></trkpt>
        <trkpt lat="29.582335" lon="103.381898"><ele>995.61346</ele><time>2026-05-09T21:31:12.000Z</time></trkpt>
        <trkpt lat="29.582288" lon="103.381929"><ele>996.2621</ele><time>2026-05-09T21:31:16.000Z</time></trkpt>
        <trkpt lat="29.582235" lon="103.381954"><ele>995.6397</ele><time>2026-05-09T21:31:19.000Z</time></trkpt>
        <trkpt lat="29.582194" lon="103.381983"><ele>995.20215</ele><time>2026-05-09T21:31:23.000Z</time></trkpt>
        <trkpt lat="29.582162" lon="103.382035"><ele>994.76526</ele><time>2026-05-09T21:31:27.000Z</time></trkpt>
        <trkpt lat="29.582166" lon="103.382095"><ele>994.8693</ele><time>2026-05-09T21:31:31.000Z</time></trkpt>
        <trkpt lat="29.582159" lon="103.382156"><ele>993.79376</ele><time>2026-05-09T21:31:36.000Z</time></trkpt>
        <trkpt lat="29.582161" lon="103.38222"><ele>993.1001</ele><time>2026-05-09T21:31:41.000Z</time></trkpt>
        <trkpt lat="29.582131" lon="103.382259"><ele>993.16693</ele><time>2026-05-09T21:31:46.000Z</time></trkpt>
        <trkpt lat="29.582102" lon="103.3823"><ele>993.63184</ele><time>2026-05-09T21:31:51.000Z</time></trkpt>
        <trkpt lat="29.582084" lon="103.38235"><ele>992.44836</ele><time>2026-05-09T21:31:55.000Z</time></trkpt>
        <trkpt lat="29.582068" lon="103.382404"><ele>991.3147</ele><time>2026-05-09T21:32:00.000Z</time></trkpt>
        <trkpt lat="29.582051" lon="103.382462"><ele>991.1017</ele><time>2026-05-09T21:32:04.000Z</time></trkpt>
        <trkpt lat="29.582033" lon="103.382517"><ele>990.5002</ele><time>2026-05-09T21:32:08.000Z</time></trkpt>
        <trkpt lat="29.581991" lon="103.382558"><ele>991.55615</ele><time>2026-05-09T21:32:13.000Z</time></trkpt>
        <trkpt lat="29.58197" lon="103.382608"><ele>992.7808</ele><time>2026-05-09T21:32:16.000Z</time></trkpt>
        <trkpt lat="29.581949" lon="103.382654"><ele>992.5704</ele><time>2026-05-09T21:32:19.000Z</time></trkpt>
        <trkpt lat="29.581947" lon="103.382719"><ele>993.3288</ele><time>2026-05-09T21:32:23.000Z</time></trkpt>
        <trkpt lat="29.581949" lon="103.382773"><ele>993.5352</ele><time>2026-05-09T21:32:27.000Z</time></trkpt>
        <trkpt lat="29.581945" lon="103.382837"><ele>991.5662</ele><time>2026-05-09T21:32:33.000Z</time></trkpt>
        <trkpt lat="29.581937" lon="103.382891"><ele>990.96124</ele><time>2026-05-09T21:32:37.000Z</time></trkpt>
        <trkpt lat="29.581921" lon="103.382943"><ele>988.3839</ele><time>2026-05-09T21:32:43.000Z</time></trkpt>
        <trkpt lat="29.581909" lon="103.382993"><ele>985.909</ele><time>2026-05-09T21:32:49.000Z</time></trkpt>
        <trkpt lat="29.581901" lon="103.383045"><ele>985.7664</ele><time>2026-05-09T21:32:55.000Z</time></trkpt>
        <trkpt lat="29.581923" lon="103.383098"><ele>984.86456</ele><time>2026-05-09T21:33:00.000Z</time></trkpt>
        <trkpt lat="29.581944" lon="103.38315"><ele>984.66144</ele><time>2026-05-09T21:33:04.000Z</time></trkpt>
        <trkpt lat="29.581943" lon="103.383205"><ele>982.78253</ele><time>2026-05-09T21:33:10.000Z</time></trkpt>
        <trkpt lat="29.58192" lon="103.383268"><ele>980.3804</ele><time>2026-05-09T21:33:16.000Z</time></trkpt>
        <trkpt lat="29.581898" lon="103.383314"><ele>979.92224</ele><time>2026-05-09T21:33:19.000Z</time></trkpt>
        <trkpt lat="29.581874" lon="103.383361"><ele>980.31396</ele><time>2026-05-09T21:33:22.000Z</time></trkpt>
        <trkpt lat="29.58184" lon="103.383415"><ele>979.3174</ele><time>2026-05-09T21:33:26.000Z</time></trkpt>
        <trkpt lat="29.581794" lon="103.383458"><ele>978.6777</ele><time>2026-05-09T21:33:30.000Z</time></trkpt>
        <trkpt lat="29.581758" lon="103.383503"><ele>978.93585</ele><time>2026-05-09T21:33:34.000Z</time></trkpt>
        <trkpt lat="29.581727" lon="103.383553"><ele>978.151</ele><time>2026-05-09T21:33:38.000Z</time></trkpt>
        <trkpt lat="29.58171" lon="103.383605"><ele>979.33136</ele><time>2026-05-09T21:33:42.000Z</time></trkpt>
        <trkpt lat="29.581681" lon="103.383659"><ele>980.3766</ele><time>2026-05-09T21:33:46.000Z</time></trkpt>
        <trkpt lat="29.581646" lon="103.383694"><ele>979.54724</ele><time>2026-05-09T21:33:49.000Z</time></trkpt>
        <trkpt lat="29.581602" lon="103.383739"><ele>979.69464</ele><time>2026-05-09T21:33:53.000Z</time></trkpt>
        <trkpt lat="29.581558" lon="103.383771"><ele>980.14087</ele><time>2026-05-09T21:33:57.000Z</time></trkpt>
        <trkpt lat="29.581519" lon="103.383814"><ele>981.2082</ele><time>2026-05-09T21:34:01.000Z</time></trkpt>
        <trkpt lat="29.581485" lon="103.383867"><ele>979.62195</ele><time>2026-05-09T21:34:08.000Z</time></trkpt>
        <trkpt lat="29.581495" lon="103.383921"><ele>975.8288</ele><time>2026-05-09T21:34:14.000Z</time></trkpt>
        <trkpt lat="29.581524" lon="103.383964"><ele>974.52924</ele><time>2026-05-09T21:34:18.000Z</time></trkpt>
        <trkpt lat="29.581551" lon="103.384015"><ele>970.00104</ele><time>2026-05-09T21:34:25.000Z</time></trkpt>
        <trkpt lat="29.581565" lon="103.384067"><ele>970.0307</ele><time>2026-05-09T21:34:29.000Z</time></trkpt>
        <trkpt lat="29.581579" lon="103.384121"><ele>969.5824</ele><time>2026-05-09T21:34:35.000Z</time></trkpt>
        <trkpt lat="29.581619" lon="103.384161"><ele>968.0739</ele><time>2026-05-09T21:34:43.000Z</time></trkpt>
        <trkpt lat="29.581645" lon="103.384209"><ele>967.01764</ele><time>2026-05-09T21:34:49.000Z</time></trkpt>
        <trkpt lat="29.58165" lon="103.384272"><ele>965.69727</ele><time>2026-05-09T21:34:57.000Z</time></trkpt>
        <trkpt lat="29.581614" lon="103.384316"><ele>964.5382</ele><time>2026-05-09T21:35:02.000Z</time></trkpt>
        <trkpt lat="29.581587" lon="103.384371"><ele>965.98517</ele><time>2026-05-09T21:35:06.000Z</time></trkpt>
        <trkpt lat="29.581542" lon="103.384382"><ele>963.4415</ele><time>2026-05-09T21:35:09.000Z</time></trkpt>
        <trkpt lat="29.581495" lon="103.384381"><ele>963.1529</ele><time>2026-05-09T21:35:13.000Z</time></trkpt>
        <trkpt lat="29.58145" lon="103.384366"><ele>963.3422</ele><time>2026-05-09T21:35:18.000Z</time></trkpt>
        <trkpt lat="29.581402" lon="103.384381"><ele>963.7561</ele><time>2026-05-09T21:35:24.000Z</time></trkpt>
        <trkpt lat="29.581348" lon="103.384427"><ele>968.7195</ele><time>2026-05-09T21:35:38.000Z</time></trkpt>
        <trkpt lat="29.581379" lon="103.384372"><ele>969.1954</ele><time>2026-05-09T21:35:40.000Z</time></trkpt>
        <trkpt lat="29.581346" lon="103.38433"><ele>970.3853</ele><time>2026-05-09T21:35:43.000Z</time></trkpt>
        <trkpt lat="29.581388" lon="103.384441"><ele>970.3083</ele><time>2026-05-09T21:35:48.000Z</time></trkpt>
        <trkpt lat="29.581325" lon="103.384447"><ele>970.61847</ele><time>2026-05-09T21:35:54.000Z</time></trkpt>
        <trkpt lat="29.581286" lon="103.384383"><ele>971.80096</ele><time>2026-05-09T21:36:14.000Z</time></trkpt>
        <trkpt lat="29.581245" lon="103.384411"><ele>972.6335</ele><time>2026-05-09T21:36:45.000Z</time></trkpt>
        <trkpt lat="29.581324" lon="103.384382"><ele>972.5186</ele><time>2026-05-09T21:36:50.000Z</time></trkpt>
        <trkpt lat="29.58131" lon="103.384322"><ele>973.259</ele><time>2026-05-09T21:37:51.000Z</time></trkpt>
        <trkpt lat="29.581355" lon="103.384326"><ele>973.6026</ele><time>2026-05-09T21:38:05.000Z</time></trkpt>
        <trkpt lat="29.581326" lon="103.384384"><ele>974.5593</ele><time>2026-05-09T21:38:28.000Z</time></trkpt>
        <trkpt lat="29.581338" lon="103.384325"><ele>968.9482</ele><time>2026-05-09T21:39:51.000Z</time></trkpt>
        <trkpt lat="29.581287" lon="103.384307"><ele>965.91174</ele><time>2026-05-09T21:40:00.000Z</time></trkpt>
        <trkpt lat="29.581225" lon="103.384306"><ele>965.2893</ele><time>2026-05-09T21:40:04.000Z</time></trkpt>
        <trkpt lat="29.581174" lon="103.384288"><ele>963.69696</ele><time>2026-05-09T21:40:11.000Z</time></trkpt>
        <trkpt lat="29.581148" lon="103.384236"><ele>961.4068</ele><time>2026-05-09T21:40:17.000Z</time></trkpt>
        <trkpt lat="29.581101" lon="103.384216"><ele>959.515</ele><time>2026-05-09T21:40:21.000Z</time></trkpt>
        <trkpt lat="29.581051" lon="103.38418"><ele>954.93</ele><time>2026-05-09T21:40:27.000Z</time></trkpt>
        <trkpt lat="29.580998" lon="103.384179"><ele>951.88293</ele><time>2026-05-09T21:40:35.000Z</time></trkpt>
        <trkpt lat="29.580948" lon="103.384163"><ele>944.95135</ele><time>2026-05-09T21:40:45.000Z</time></trkpt>
        <trkpt lat="29.580902" lon="103.384178"><ele>943.3944</ele><time>2026-05-09T21:40:50.000Z</time></trkpt>
        <trkpt lat="29.580867" lon="103.384211"><ele>941.9192</ele><time>2026-05-09T21:40:53.000Z</time></trkpt>
        <trkpt lat="29.580821" lon="103.384253"><ele>940.9691</ele><time>2026-05-09T21:40:59.000Z</time></trkpt>
        <trkpt lat="29.580789" lon="103.384298"><ele>939.80316</ele><time>2026-05-09T21:41:05.000Z</time></trkpt>
        <trkpt lat="29.58077" lon="103.384372"><ele>937.04224</ele><time>2026-05-09T21:41:14.000Z</time></trkpt>
        <trkpt lat="29.580728" lon="103.38441"><ele>934.2397</ele><time>2026-05-09T21:41:21.000Z</time></trkpt>
        <trkpt lat="29.580698" lon="103.384457"><ele>931.95575</ele><time>2026-05-09T21:41:27.000Z</time></trkpt>
        <trkpt lat="29.58065" lon="103.384483"><ele>929.33936</ele><time>2026-05-09T21:41:33.000Z</time></trkpt>
        <trkpt lat="29.580615" lon="103.384529"><ele>928.4221</ele><time>2026-05-09T21:41:38.000Z</time></trkpt>
        <trkpt lat="29.580581" lon="103.384564"><ele>926.8508</ele><time>2026-05-09T21:41:43.000Z</time></trkpt>
        <trkpt lat="29.580548" lon="103.384617"><ele>925.6714</ele><time>2026-05-09T21:41:49.000Z</time></trkpt>
        <trkpt lat="29.580519" lon="103.384664"><ele>921.7937</ele><time>2026-05-09T21:41:56.000Z</time></trkpt>
        <trkpt lat="29.580486" lon="103.384733"><ele>918.56525</ele><time>2026-05-09T21:42:03.000Z</time></trkpt>
        <trkpt lat="29.580466" lon="103.384791"><ele>917.67957</ele><time>2026-05-09T21:42:08.000Z</time></trkpt>
        <trkpt lat="29.580431" lon="103.384829"><ele>916.82367</ele><time>2026-05-09T21:42:12.000Z</time></trkpt>
        <trkpt lat="29.580396" lon="103.38487"><ele>918.6062</ele><time>2026-05-09T21:42:16.000Z</time></trkpt>
        <trkpt lat="29.580356" lon="103.384916"><ele>920.6673</ele><time>2026-05-09T21:42:21.000Z</time></trkpt>
        <trkpt lat="29.580324" lon="103.38496"><ele>920.37775</ele><time>2026-05-09T21:42:27.000Z</time></trkpt>
        <trkpt lat="29.58028" lon="103.384982"><ele>916.04016</ele><time>2026-05-09T21:42:35.000Z</time></trkpt>
        <trkpt lat="29.580239" lon="103.385039"><ele>915.59814</ele><time>2026-05-09T21:42:41.000Z</time></trkpt>
        <trkpt lat="29.580208" lon="103.385093"><ele>916.0423</ele><time>2026-05-09T21:42:45.000Z</time></trkpt>
        <trkpt lat="29.580184" lon="103.385157"><ele>915.6828</ele><time>2026-05-09T21:42:49.000Z</time></trkpt>
        <trkpt lat="29.580155" lon="103.385206"><ele>914.43134</ele><time>2026-05-09T21:42:53.000Z</time></trkpt>
        <trkpt lat="29.580111" lon="103.385249"><ele>914.01544</ele><time>2026-05-09T21:42:57.000Z</time></trkpt>
        <trkpt lat="29.580073" lon="103.385279"><ele>912.1989</ele><time>2026-05-09T21:43:01.000Z</time></trkpt>
        <trkpt lat="29.580022" lon="103.385303"><ele>912.82745</ele><time>2026-05-09T21:43:05.000Z</time></trkpt>
        <trkpt lat="29.579978" lon="103.385324"><ele>910.1575</ele><time>2026-05-09T21:43:11.000Z</time></trkpt>
        <trkpt lat="29.579934" lon="103.385348"><ele>907.41846</ele><time>2026-05-09T21:43:17.000Z</time></trkpt>
        <trkpt lat="29.579869" lon="103.385398"><ele>903.40826</ele><time>2026-05-09T21:43:24.000Z</time></trkpt>
        <trkpt lat="29.579837" lon="103.385448"><ele>902.4219</ele><time>2026-05-09T21:43:32.000Z</time></trkpt>
        <trkpt lat="29.579807" lon="103.38549"><ele>900.89197</ele><time>2026-05-09T21:43:36.000Z</time></trkpt>
        <trkpt lat="29.579769" lon="103.385518"><ele>897.6951</ele><time>2026-05-09T21:43:41.000Z</time></trkpt>
        <trkpt lat="29.579737" lon="103.385559"><ele>895.35535</ele><time>2026-05-09T21:43:48.000Z</time></trkpt>
        <trkpt lat="29.579691" lon="103.385587"><ele>894.9244</ele><time>2026-05-09T21:43:53.000Z</time></trkpt>
        <trkpt lat="29.579658" lon="103.38563"><ele>893.12335</ele><time>2026-05-09T21:44:00.000Z</time></trkpt>
        <trkpt lat="29.579622" lon="103.385674"><ele>891.78705</ele><time>2026-05-09T21:44:04.000Z</time></trkpt>
        <trkpt lat="29.579605" lon="103.385723"><ele>888.2837</ele><time>2026-05-09T21:44:12.000Z</time></trkpt>
        <trkpt lat="29.579578" lon="103.385775"><ele>887.92523</ele><time>2026-05-09T21:44:21.000Z</time></trkpt>
        <trkpt lat="29.579552" lon="103.385819"><ele>885.82666</ele><time>2026-05-09T21:44:28.000Z</time></trkpt>
        <trkpt lat="29.579521" lon="103.385865"><ele>886.97595</ele><time>2026-05-09T21:44:42.000Z</time></trkpt>
        <trkpt lat="29.579496" lon="103.385909"><ele>881.85724</ele><time>2026-05-09T21:44:55.000Z</time></trkpt>
        <trkpt lat="29.579465" lon="103.385953"><ele>880.8907</ele><time>2026-05-09T21:45:01.000Z</time></trkpt>
        <trkpt lat="29.579475" lon="103.386009"><ele>880.3413</ele><time>2026-05-09T21:45:06.000Z</time></trkpt>
        <trkpt lat="29.579472" lon="103.386069"><ele>881.87994</ele><time>2026-05-09T21:45:11.000Z</time></trkpt>
        <trkpt lat="29.579444" lon="103.386114"><ele>879.3455</ele><time>2026-05-09T21:45:17.000Z</time></trkpt>
        <trkpt lat="29.579437" lon="103.386167"><ele>877.7516</ele><time>2026-05-09T21:45:23.000Z</time></trkpt>
        <trkpt lat="29.579418" lon="103.386214"><ele>874.8318</ele><time>2026-05-09T21:45:28.000Z</time></trkpt>
        <trkpt lat="29.579415" lon="103.386274"><ele>873.6224</ele><time>2026-05-09T21:45:32.000Z</time></trkpt>
        <trkpt lat="29.579413" lon="103.38633"><ele>873.81555</ele><time>2026-05-09T21:45:38.000Z</time></trkpt>
        <trkpt lat="29.579419" lon="103.386386"><ele>872.0704</ele><time>2026-05-09T21:45:44.000Z</time></trkpt>
        <trkpt lat="29.579422" lon="103.386443"><ele>869.92664</ele><time>2026-05-09T21:45:49.000Z</time></trkpt>
        <trkpt lat="29.579424" lon="103.3865"><ele>868.4395</ele><time>2026-05-09T21:45:54.000Z</time></trkpt>
        <trkpt lat="29.579412" lon="103.386552"><ele>865.94653</ele><time>2026-05-09T21:45:59.000Z</time></trkpt>
        <trkpt lat="29.579408" lon="103.386604"><ele>865.2807</ele><time>2026-05-09T21:46:03.000Z</time></trkpt>
        <trkpt lat="29.579384" lon="103.386652"><ele>863.83435</ele><time>2026-05-09T21:46:10.000Z</time></trkpt>
        <trkpt lat="29.57936" lon="103.386699"><ele>864.90466</ele><time>2026-05-09T21:46:13.000Z</time></trkpt>
        <trkpt lat="29.579334" lon="103.386741"><ele>863.68524</ele><time>2026-05-09T21:46:20.000Z</time></trkpt>
        <trkpt lat="29.579298" lon="103.386785"><ele>862.99445</ele><time>2026-05-09T21:46:26.000Z</time></trkpt>
        <trkpt lat="29.579268" lon="103.38683"><ele>859.5245</ele><time>2026-05-09T21:46:31.000Z</time></trkpt>
        <trkpt lat="29.579245" lon="103.386883"><ele>856.7099</ele><time>2026-05-09T21:46:36.000Z</time></trkpt>
        <trkpt lat="29.579201" lon="103.38693"><ele>854.7526</ele><time>2026-05-09T21:46:44.000Z</time></trkpt>
        <trkpt lat="29.579169" lon="103.38697"><ele>849.79535</ele><time>2026-05-09T21:46:50.000Z</time></trkpt>
        <trkpt lat="29.579144" lon="103.38703"><ele>845.39557</ele><time>2026-05-09T21:46:54.000Z</time></trkpt>
        <trkpt lat="29.57911" lon="103.387071"><ele>843.54443</ele><time>2026-05-09T21:46:57.000Z</time></trkpt>
        <trkpt lat="29.579075" lon="103.387106"><ele>839.12103</ele><time>2026-05-09T21:47:01.000Z</time></trkpt>
        <trkpt lat="29.579041" lon="103.387147"><ele>837.72186</ele><time>2026-05-09T21:47:05.000Z</time></trkpt>
        <trkpt lat="29.579024" lon="103.387203"><ele>838.0932</ele><time>2026-05-09T21:47:09.000Z</time></trkpt>
        <trkpt lat="29.578985" lon="103.387238"><ele>840.081</ele><time>2026-05-09T21:47:13.000Z</time></trkpt>
        <trkpt lat="29.57896" lon="103.387284"><ele>838.972</ele><time>2026-05-09T21:47:20.000Z</time></trkpt>
        <trkpt lat="29.578954" lon="103.387341"><ele>842.9027</ele><time>2026-05-09T21:47:26.000Z</time></trkpt>
        <trkpt lat="29.57894" lon="103.387392"><ele>842.4712</ele><time>2026-05-09T21:47:28.000Z</time></trkpt>
        <trkpt lat="29.578927" lon="103.387444"><ele>843.08936</ele><time>2026-05-09T21:47:32.000Z</time></trkpt>
        <trkpt lat="29.57895" lon="103.387489"><ele>842.28937</ele><time>2026-05-09T21:47:35.000Z</time></trkpt>
        <trkpt lat="29.578957" lon="103.387543"><ele>839.9854</ele><time>2026-05-09T21:47:43.000Z</time></trkpt>
        <trkpt lat="29.578959" lon="103.387599"><ele>838.68005</ele><time>2026-05-09T21:47:47.000Z</time></trkpt>
        <trkpt lat="29.57897" lon="103.387649"><ele>837.7015</ele><time>2026-05-09T21:49:34.000Z</time></trkpt>
        <trkpt lat="29.578994" lon="103.387695"><ele>836.2456</ele><time>2026-05-09T21:49:42.000Z</time></trkpt>
        <trkpt lat="29.578997" lon="103.387748"><ele>837.814</ele><time>2026-05-09T21:49:44.000Z</time></trkpt>
        <trkpt lat="29.578989" lon="103.387806"><ele>838.4637</ele><time>2026-05-09T21:49:48.000Z</time></trkpt>
        <trkpt lat="29.579005" lon="103.387868"><ele>836.57886</ele><time>2026-05-09T21:49:55.000Z</time></trkpt>
        <trkpt lat="29.579024" lon="103.387916"><ele>836.58844</ele><time>2026-05-09T21:50:01.000Z</time></trkpt>
        <trkpt lat="29.579013" lon="103.387967"><ele>833.6378</ele><time>2026-05-09T21:50:10.000Z</time></trkpt>
        <trkpt lat="29.579" lon="103.388022"><ele>833.17316</ele><time>2026-05-09T21:50:19.000Z</time></trkpt>
        <trkpt lat="29.579031" lon="103.38807"><ele>833.2028</ele><time>2026-05-09T21:50:23.000Z</time></trkpt>
        <trkpt lat="29.57906" lon="103.388121"><ele>832.809</ele><time>2026-05-09T21:50:27.000Z</time></trkpt>
        <trkpt lat="29.579051" lon="103.388194"><ele>831.8546</ele><time>2026-05-09T21:50:33.000Z</time></trkpt>
        <trkpt lat="29.579042" lon="103.388254"><ele>829.2202</ele><time>2026-05-09T21:50:41.000Z</time></trkpt>
        <trkpt lat="29.579034" lon="103.388307"><ele>828.6056</ele><time>2026-05-09T21:50:46.000Z</time></trkpt>
        <trkpt lat="29.579019" lon="103.388364"><ele>828.5611</ele><time>2026-05-09T21:50:52.000Z</time></trkpt>
        <trkpt lat="29.579007" lon="103.388416"><ele>827.6044</ele><time>2026-05-09T21:50:56.000Z</time></trkpt>
        <trkpt lat="29.579004" lon="103.388473"><ele>826.3369</ele><time>2026-05-09T21:51:03.000Z</time></trkpt>
        <trkpt lat="29.579019" lon="103.388535"><ele>827.0883</ele><time>2026-05-09T21:51:08.000Z</time></trkpt>
        <trkpt lat="29.579032" lon="103.38859"><ele>825.46454</ele><time>2026-05-09T21:51:13.000Z</time></trkpt>
        <trkpt lat="29.57903" lon="103.388644"><ele>824.73206</ele><time>2026-05-09T21:51:16.000Z</time></trkpt>
        <trkpt lat="29.579019" lon="103.388695"><ele>824.05975</ele><time>2026-05-09T21:51:19.000Z</time></trkpt>
        <trkpt lat="29.578969" lon="103.388719"><ele>824.75446</ele><time>2026-05-09T21:51:25.000Z</time></trkpt>
        <trkpt lat="29.578923" lon="103.388732"><ele>824.913</ele><time>2026-05-09T21:51:31.000Z</time></trkpt>
        <trkpt lat="29.578874" lon="103.388753"><ele>821.9377</ele><time>2026-05-09T21:51:36.000Z</time></trkpt>
        <trkpt lat="29.57883" lon="103.388773"><ele>823.06744</ele><time>2026-05-09T21:52:06.000Z</time></trkpt>
        <trkpt lat="29.578801" lon="103.388814"><ele>821.4631</ele><time>2026-05-09T21:52:10.000Z</time></trkpt>
        <trkpt lat="29.578757" lon="103.388837"><ele>822.2878</ele><time>2026-05-09T21:52:14.000Z</time></trkpt>
        <trkpt lat="29.578703" lon="103.38884"><ele>823.08636</ele><time>2026-05-09T21:52:20.000Z</time></trkpt>
        <trkpt lat="29.578644" lon="103.388847"><ele>823.2154</ele><time>2026-05-09T21:52:25.000Z</time></trkpt>
        <trkpt lat="29.578591" lon="103.388848"><ele>822.7483</ele><time>2026-05-09T21:52:29.000Z</time></trkpt>
        <trkpt lat="29.578532" lon="103.388859"><ele>822.1332</ele><time>2026-05-09T21:52:33.000Z</time></trkpt>
        <trkpt lat="29.578484" lon="103.388887"><ele>820.40704</ele><time>2026-05-09T21:52:37.000Z</time></trkpt>
        <trkpt lat="29.578446" lon="103.388934"><ele>819.42676</ele><time>2026-05-09T21:52:42.000Z</time></trkpt>
        <trkpt lat="29.578435" lon="103.388992"><ele>817.5419</ele><time>2026-05-09T21:52:47.000Z</time></trkpt>
        <trkpt lat="29.578421" lon="103.389042"><ele>816.3784</ele><time>2026-05-09T21:52:51.000Z</time></trkpt>
        <trkpt lat="29.578407" lon="103.389094"><ele>815.5768</ele><time>2026-05-09T21:52:55.000Z</time></trkpt>
        <trkpt lat="29.578402" lon="103.389152"><ele>812.82477</ele><time>2026-05-09T21:53:05.000Z</time></trkpt>
        <trkpt lat="29.578416" lon="103.389216"><ele>812.2086</ele><time>2026-05-09T21:53:12.000Z</time></trkpt>
        <trkpt lat="29.578437" lon="103.38927"><ele>813.45654</ele><time>2026-05-09T21:53:18.000Z</time></trkpt>
        <trkpt lat="29.578481" lon="103.389297"><ele>816.80096</ele><time>2026-05-09T21:53:24.000Z</time></trkpt>
        <trkpt lat="29.578505" lon="103.389364"><ele>816.7168</ele><time>2026-05-09T21:53:28.000Z</time></trkpt>
        <trkpt lat="29.578508" lon="103.389417"><ele>816.90375</ele><time>2026-05-09T21:53:31.000Z</time></trkpt>
        <trkpt lat="29.578524" lon="103.389477"><ele>817.6235</ele><time>2026-05-09T21:53:35.000Z</time></trkpt>
        <trkpt lat="29.578546" lon="103.389534"><ele>816.20776</ele><time>2026-05-09T21:53:39.000Z</time></trkpt>
        <trkpt lat="29.578561" lon="103.389583"><ele>815.8765</ele><time>2026-05-09T21:53:42.000Z</time></trkpt>
        <trkpt lat="29.578551" lon="103.389646"><ele>816.6317</ele><time>2026-05-09T21:53:47.000Z</time></trkpt>
        <trkpt lat="29.578549" lon="103.389704"><ele>817.79376</ele><time>2026-05-09T21:53:50.000Z</time></trkpt>
        <trkpt lat="29.578546" lon="103.389758"><ele>817.70667</ele><time>2026-05-09T21:53:55.000Z</time></trkpt>
        <trkpt lat="29.578536" lon="103.389828"><ele>813.69556</ele><time>2026-05-09T21:54:02.000Z</time></trkpt>
        <trkpt lat="29.578516" lon="103.389881"><ele>811.78973</ele><time>2026-05-09T21:54:08.000Z</time></trkpt>
        <trkpt lat="29.578498" lon="103.389939"><ele>813.25745</ele><time>2026-05-09T21:54:14.000Z</time></trkpt>
        <trkpt lat="29.578475" lon="103.389984"><ele>812.80634</ele><time>2026-05-09T21:54:18.000Z</time></trkpt>
        <trkpt lat="29.578459" lon="103.390049"><ele>812.1462</ele><time>2026-05-09T21:54:22.000Z</time></trkpt>
        <trkpt lat="29.578443" lon="103.39011"><ele>811.6706</ele><time>2026-05-09T21:54:26.000Z</time></trkpt>
        <trkpt lat="29.578422" lon="103.390159"><ele>812.4194</ele><time>2026-05-09T21:54:30.000Z</time></trkpt>
        <trkpt lat="29.5784" lon="103.390205"><ele>811.9839</ele><time>2026-05-09T21:54:34.000Z</time></trkpt>
        <trkpt lat="29.578373" lon="103.39025"><ele>811.8323</ele><time>2026-05-09T21:54:38.000Z</time></trkpt>
        <trkpt lat="29.578358" lon="103.390307"><ele>810.25055</ele><time>2026-05-09T21:54:45.000Z</time></trkpt>
        <trkpt lat="29.578324" lon="103.390346"><ele>810.6879</ele><time>2026-05-09T21:54:49.000Z</time></trkpt>
        <trkpt lat="29.578305" lon="103.390402"><ele>810.3128</ele><time>2026-05-09T21:54:53.000Z</time></trkpt>
        <trkpt lat="29.578283" lon="103.390459"><ele>809.5142</ele><time>2026-05-09T21:54:57.000Z</time></trkpt>
        <trkpt lat="29.578262" lon="103.390506"><ele>810.7266</ele><time>2026-05-09T21:55:00.000Z</time></trkpt>
        <trkpt lat="29.578228" lon="103.390559"><ele>810.5133</ele><time>2026-05-09T21:55:05.000Z</time></trkpt>
        <trkpt lat="29.578195" lon="103.390596"><ele>810.6272</ele><time>2026-05-09T21:55:08.000Z</time></trkpt>
        <trkpt lat="29.578171" lon="103.39064"><ele>811.6273</ele><time>2026-05-09T21:55:11.000Z</time></trkpt>
        <trkpt lat="29.578143" lon="103.390692"><ele>812.1864</ele><time>2026-05-09T21:55:15.000Z</time></trkpt>
        <trkpt lat="29.578123" lon="103.390741"><ele>810.28815</ele><time>2026-05-09T21:55:20.000Z</time></trkpt>
        <trkpt lat="29.578104" lon="103.390792"><ele>809.18097</ele><time>2026-05-09T21:55:24.000Z</time></trkpt>
        <trkpt lat="29.578085" lon="103.390852"><ele>810.07117</ele><time>2026-05-09T21:55:28.000Z</time></trkpt>
        <trkpt lat="29.578061" lon="103.390902"><ele>810.71954</ele><time>2026-05-09T21:55:32.000Z</time></trkpt>
        <trkpt lat="29.578028" lon="103.390943"><ele>809.9716</ele><time>2026-05-09T21:55:36.000Z</time></trkpt>
        <trkpt lat="29.577997" lon="103.390985"><ele>810.03265</ele><time>2026-05-09T21:55:40.000Z</time></trkpt>
        <trkpt lat="29.57796" lon="103.391026"><ele>810.1832</ele><time>2026-05-09T21:55:44.000Z</time></trkpt>
        <trkpt lat="29.577937" lon="103.391078"><ele>810.96136</ele><time>2026-05-09T21:55:48.000Z</time></trkpt>
        <trkpt lat="29.577921" lon="103.391132"><ele>809.7394</ele><time>2026-05-09T21:55:54.000Z</time></trkpt>
        <trkpt lat="29.577865" lon="103.391143"><ele>809.1122</ele><time>2026-05-09T21:55:59.000Z</time></trkpt>
        <trkpt lat="29.577819" lon="103.391129"><ele>806.2104</ele><time>2026-05-09T21:56:06.000Z</time></trkpt>
        <trkpt lat="29.577772" lon="103.391114"><ele>806.012</ele><time>2026-05-09T21:56:12.000Z</time></trkpt>
        <trkpt lat="29.577718" lon="103.391094"><ele>804.16895</ele><time>2026-05-09T21:56:17.000Z</time></trkpt>
        <trkpt lat="29.577673" lon="103.391087"><ele>804.2114</ele><time>2026-05-09T21:56:20.000Z</time></trkpt>
        <trkpt lat="29.577628" lon="103.391074"><ele>801.4648</ele><time>2026-05-09T21:56:27.000Z</time></trkpt>
        <trkpt lat="29.577585" lon="103.391051"><ele>796.4855</ele><time>2026-05-09T21:56:32.000Z</time></trkpt>
        <trkpt lat="29.577548" lon="103.391018"><ele>792.9383</ele><time>2026-05-09T21:56:36.000Z</time></trkpt>
        <trkpt lat="29.577491" lon="103.391019"><ele>788.3687</ele><time>2026-05-09T21:56:48.000Z</time></trkpt>
        <trkpt lat="29.577435" lon="103.390991"><ele>788.4722</ele><time>2026-05-09T21:56:53.000Z</time></trkpt>
        <trkpt lat="29.57739" lon="103.390973"><ele>787.06506</ele><time>2026-05-09T21:56:57.000Z</time></trkpt>
        <trkpt lat="29.577344" lon="103.390944"><ele>785.2037</ele><time>2026-05-09T21:57:03.000Z</time></trkpt>
        <trkpt lat="29.577294" lon="103.390959"><ele>785.2562</ele><time>2026-05-09T21:57:07.000Z</time></trkpt>
        <trkpt lat="29.577236" lon="103.390966"><ele>784.563</ele><time>2026-05-09T21:57:13.000Z</time></trkpt>
        <trkpt lat="29.577185" lon="103.390966"><ele>783.8334</ele><time>2026-05-09T21:57:17.000Z</time></trkpt>
        <trkpt lat="29.577149" lon="103.391005"><ele>785.53906</ele><time>2026-05-09T21:57:20.000Z</time></trkpt>
        <trkpt lat="29.577114" lon="103.39104"><ele>786.7452</ele><time>2026-05-09T21:57:23.000Z</time></trkpt>
        <trkpt lat="29.577089" lon="103.391084"><ele>787.0944</ele><time>2026-05-09T21:57:26.000Z</time></trkpt>
        <trkpt lat="29.57705" lon="103.39113"><ele>787.03735</ele><time>2026-05-09T21:57:30.000Z</time></trkpt>
        <trkpt lat="29.577039" lon="103.391188"><ele>787.37823</ele><time>2026-05-09T21:57:34.000Z</time></trkpt>
        <trkpt lat="29.577045" lon="103.391241"><ele>786.6047</ele><time>2026-05-09T21:57:40.000Z</time></trkpt>
        <trkpt lat="29.577021" lon="103.391295"><ele>785.0389</ele><time>2026-05-09T21:57:47.000Z</time></trkpt>
        <trkpt lat="29.577015" lon="103.391348"><ele>784.2638</ele><time>2026-05-09T21:57:52.000Z</time></trkpt>
        <trkpt lat="29.577" lon="103.391406"><ele>784.9786</ele><time>2026-05-09T21:57:59.000Z</time></trkpt>
        <trkpt lat="29.576971" lon="103.391457"><ele>783.85394</ele><time>2026-05-09T21:58:04.000Z</time></trkpt>
        <trkpt lat="29.576944" lon="103.391512"><ele>782.8349</ele><time>2026-05-09T21:58:10.000Z</time></trkpt>
        <trkpt lat="29.576917" lon="103.391567"><ele>782.2717</ele><time>2026-05-09T21:58:14.000Z</time></trkpt>
        <trkpt lat="29.576893" lon="103.391625"><ele>781.6117</ele><time>2026-05-09T21:58:21.000Z</time></trkpt>
        <trkpt lat="29.576875" lon="103.391678"><ele>780.84174</ele><time>2026-05-09T21:58:28.000Z</time></trkpt>
        <trkpt lat="29.576861" lon="103.391732"><ele>778.88654</ele><time>2026-05-09T21:58:34.000Z</time></trkpt>
        <trkpt lat="29.576826" lon="103.391773"><ele>776.3257</ele><time>2026-05-09T21:58:40.000Z</time></trkpt>
        <trkpt lat="29.576799" lon="103.391829"><ele>776.1627</ele><time>2026-05-09T21:58:45.000Z</time></trkpt>
        <trkpt lat="29.576767" lon="103.39187"><ele>774.95935</ele><time>2026-05-09T21:58:49.000Z</time></trkpt>
        <trkpt lat="29.576724" lon="103.391896"><ele>774.5127</ele><time>2026-05-09T21:58:52.000Z</time></trkpt>
        <trkpt lat="29.576681" lon="103.391932"><ele>774.2906</ele><time>2026-05-09T21:58:57.000Z</time></trkpt>
        <trkpt lat="29.576637" lon="103.391959"><ele>774.4175</ele><time>2026-05-09T21:59:01.000Z</time></trkpt>
        <trkpt lat="29.576583" lon="103.391966"><ele>774.33453</ele><time>2026-05-09T21:59:07.000Z</time></trkpt>
        <trkpt lat="29.576532" lon="103.391967"><ele>775.19476</ele><time>2026-05-09T21:59:12.000Z</time></trkpt>
        <trkpt lat="29.576487" lon="103.391961"><ele>774.99115</ele><time>2026-05-09T21:59:18.000Z</time></trkpt>
        <trkpt lat="29.57644" lon="103.391969"><ele>773.5052</ele><time>2026-05-09T21:59:26.000Z</time></trkpt>
        <trkpt lat="29.576389" lon="103.391984"><ele>772.26227</ele><time>2026-05-09T21:59:33.000Z</time></trkpt>
        <trkpt lat="29.576339" lon="103.391979"><ele>768.6476</ele><time>2026-05-09T21:59:39.000Z</time></trkpt>
        <trkpt lat="29.576291" lon="103.391981"><ele>765.62286</ele><time>2026-05-09T21:59:45.000Z</time></trkpt>
        <trkpt lat="29.576245" lon="103.391952"><ele>762.30164</ele><time>2026-05-09T21:59:52.000Z</time></trkpt>
        <trkpt lat="29.576197" lon="103.391954"><ele>759.33527</ele><time>2026-05-09T21:59:58.000Z</time></trkpt>
        <trkpt lat="29.576147" lon="103.391948"><ele>757.81525</ele><time>2026-05-09T22:00:05.000Z</time></trkpt>
        <trkpt lat="29.576102" lon="103.39194"><ele>755.8055</ele><time>2026-05-09T22:00:09.000Z</time></trkpt>
        <trkpt lat="29.576057" lon="103.39191"><ele>753.7454</ele><time>2026-05-09T22:00:18.000Z</time></trkpt>
        <trkpt lat="29.576012" lon="103.391898"><ele>751.96954</ele><time>2026-05-09T22:00:24.000Z</time></trkpt>
        <trkpt lat="29.575965" lon="103.391876"><ele>751.4592</ele><time>2026-05-09T22:00:30.000Z</time></trkpt>
        <trkpt lat="29.575919" lon="103.391865"><ele>752.54535</ele><time>2026-05-09T22:00:35.000Z</time></trkpt>
        <trkpt lat="29.575879" lon="103.3919"><ele>751.51825</ele><time>2026-05-09T22:00:41.000Z</time></trkpt>
        <trkpt lat="29.575834" lon="103.391914"><ele>750.99646</ele><time>2026-05-09T22:00:48.000Z</time></trkpt>
        <trkpt lat="29.575787" lon="103.391943"><ele>744.4596</ele><time>2026-05-09T22:01:01.000Z</time></trkpt>
        <trkpt lat="29.575739" lon="103.391949"><ele>743.7264</ele><time>2026-05-09T22:01:10.000Z</time></trkpt>
        <trkpt lat="29.57569" lon="103.391925"><ele>742.52783</ele><time>2026-05-09T22:01:21.000Z</time></trkpt>
        <trkpt lat="29.575639" lon="103.391916"><ele>740.1595</ele><time>2026-05-09T22:01:33.000Z</time></trkpt>
        <trkpt lat="29.575587" lon="103.391917"><ele>738.37555</ele><time>2026-05-09T22:01:42.000Z</time></trkpt>
        <trkpt lat="29.57554" lon="103.391913"><ele>735.3044</ele><time>2026-05-09T22:01:50.000Z</time></trkpt>
        <trkpt lat="29.57551" lon="103.391873"><ele>733.53595</ele><time>2026-05-09T22:01:59.000Z</time></trkpt>
        <trkpt lat="29.575465" lon="103.391871"><ele>731.3613</ele><time>2026-05-09T22:02:04.000Z</time></trkpt>
        <trkpt lat="29.575421" lon="103.391858"><ele>731.5696</ele><time>2026-05-09T22:02:14.000Z</time></trkpt>
        <trkpt lat="29.575366" lon="103.391868"><ele>730.4022</ele><time>2026-05-09T22:02:21.000Z</time></trkpt>
        <trkpt lat="29.575329" lon="103.391904"><ele>730.86456</ele><time>2026-05-09T22:02:28.000Z</time></trkpt>
        <trkpt lat="29.575289" lon="103.391938"><ele>727.8616</ele><time>2026-05-09T22:02:38.000Z</time></trkpt>
        <trkpt lat="29.575248" lon="103.391959"><ele>726.15643</ele><time>2026-05-09T22:02:43.000Z</time></trkpt>
        <trkpt lat="29.575204" lon="103.391985"><ele>725.16766</ele><time>2026-05-09T22:02:50.000Z</time></trkpt>
        <trkpt lat="29.57516" lon="103.392005"><ele>723.9872</ele><time>2026-05-09T22:02:58.000Z</time></trkpt>
        <trkpt lat="29.575126" lon="103.392046"><ele>722.689</ele><time>2026-05-09T22:03:05.000Z</time></trkpt>
        <trkpt lat="29.575074" lon="103.392061"><ele>721.72205</ele><time>2026-05-09T22:03:14.000Z</time></trkpt>
        <trkpt lat="29.575023" lon="103.392074"><ele>722.2324</ele><time>2026-05-09T22:03:22.000Z</time></trkpt>
        <trkpt lat="29.574982" lon="103.392101"><ele>720.8098</ele><time>2026-05-09T22:03:32.000Z</time></trkpt>
        <trkpt lat="29.574926" lon="103.39212"><ele>719.13275</ele><time>2026-05-09T22:03:38.000Z</time></trkpt>
        <trkpt lat="29.574884" lon="103.392142"><ele>714.7155</ele><time>2026-05-09T22:03:45.000Z</time></trkpt>
        <trkpt lat="29.574832" lon="103.392157"><ele>711.19464</ele><time>2026-05-09T22:03:53.000Z</time></trkpt>
        <trkpt lat="29.574784" lon="103.392174"><ele>710.641</ele><time>2026-05-09T22:04:00.000Z</time></trkpt>
        <trkpt lat="29.574739" lon="103.392167"><ele>709.0047</ele><time>2026-05-09T22:04:08.000Z</time></trkpt>
        <trkpt lat="29.574694" lon="103.392161"><ele>708.85535</ele><time>2026-05-09T22:04:14.000Z</time></trkpt>
        <trkpt lat="29.574637" lon="103.392152"><ele>707.1042</ele><time>2026-05-09T22:04:21.000Z</time></trkpt>
        <trkpt lat="29.574588" lon="103.392156"><ele>705.4611</ele><time>2026-05-09T22:04:28.000Z</time></trkpt>
        <trkpt lat="29.574542" lon="103.392152"><ele>704.4635</ele><time>2026-05-09T22:04:34.000Z</time></trkpt>
        <trkpt lat="29.574496" lon="103.392162"><ele>703.19403</ele><time>2026-05-09T22:04:41.000Z</time></trkpt>
        <trkpt lat="29.574448" lon="103.392162"><ele>701.76624</ele><time>2026-05-09T22:04:50.000Z</time></trkpt>
        <trkpt lat="29.574406" lon="103.392201"><ele>699.1976</ele><time>2026-05-09T22:05:02.000Z</time></trkpt>
        <trkpt lat="29.574361" lon="103.392233"><ele>700.2372</ele><time>2026-05-09T22:05:06.000Z</time></trkpt>
        <trkpt lat="29.574317" lon="103.392254"><ele>698.78015</ele><time>2026-05-09T22:05:24.000Z</time></trkpt>
        <trkpt lat="29.574309" lon="103.392311"><ele>696.96344</ele><time>2026-05-09T22:05:33.000Z</time></trkpt>
        <trkpt lat="29.574376" lon="103.392416"><ele>697.4224</ele><time>2026-05-09T22:05:37.000Z</time></trkpt>
        <trkpt lat="29.57431" lon="103.392462"><ele>696.89514</ele><time>2026-05-09T22:05:38.000Z</time></trkpt>
        <trkpt lat="29.574232" lon="103.39251"><ele>696.3563</ele><time>2026-05-09T22:05:39.000Z</time></trkpt>
        <trkpt lat="29.574228" lon="103.392452"><ele>696.5938</ele><time>2026-05-09T22:05:42.000Z</time></trkpt>
        <trkpt lat="29.574182" lon="103.392461"><ele>697.47614</ele><time>2026-05-09T22:05:45.000Z</time></trkpt>
        <trkpt lat="29.574141" lon="103.392486"><ele>697.5478</ele><time>2026-05-09T22:06:10.000Z</time></trkpt>
        <trkpt lat="29.574099" lon="103.392452"><ele>697.3664</ele><time>2026-05-09T22:06:19.000Z</time></trkpt>
        <trkpt lat="29.574058" lon="103.392427"><ele>699.14764</ele><time>2026-05-09T22:06:26.000Z</time></trkpt>
        <trkpt lat="29.574096" lon="103.39246"><ele>698.6737</ele><time>2026-05-09T22:06:32.000Z</time></trkpt>
        <trkpt lat="29.57412" lon="103.392509"><ele>699.3901</ele><time>2026-05-09T22:06:39.000Z</time></trkpt>
        <trkpt lat="29.57411" lon="103.392563"><ele>700.7508</ele><time>2026-05-09T22:06:47.000Z</time></trkpt>
        <trkpt lat="29.574115" lon="103.39262"><ele>701.3108</ele><time>2026-05-09T22:06:53.000Z</time></trkpt>
        <trkpt lat="29.574127" lon="103.39267"><ele>702.08594</ele><time>2026-05-09T22:06:58.000Z</time></trkpt>
        <trkpt lat="29.574152" lon="103.392721"><ele>705.774</ele><time>2026-05-09T22:07:06.000Z</time></trkpt>
        <trkpt lat="29.574165" lon="103.392782"><ele>707.6353</ele><time>2026-05-09T22:07:14.000Z</time></trkpt>
        <trkpt lat="29.574137" lon="103.39283"><ele>710.81433</ele><time>2026-05-09T22:07:20.000Z</time></trkpt>
        <trkpt lat="29.574123" lon="103.392879"><ele>711.3491</ele><time>2026-05-09T22:07:27.000Z</time></trkpt>
        <trkpt lat="29.574087" lon="103.392928"><ele>710.92926</ele><time>2026-05-09T22:07:35.000Z</time></trkpt>
        <trkpt lat="29.574089" lon="103.392985"><ele>712.36865</ele><time>2026-05-09T22:07:46.000Z</time></trkpt>
        <trkpt lat="29.574072" lon="103.393036"><ele>714.4988</ele><time>2026-05-09T22:07:53.000Z</time></trkpt>
        <trkpt lat="29.574053" lon="103.393084"><ele>715.2697</ele><time>2026-05-09T22:08:03.000Z</time></trkpt>
        <trkpt lat="29.574045" lon="103.393138"><ele>717.5007</ele><time>2026-05-09T22:08:12.000Z</time></trkpt>
        <trkpt lat="29.574029" lon="103.393188"><ele>718.4109</ele><time>2026-05-09T22:08:22.000Z</time></trkpt>
        <trkpt lat="29.574011" lon="103.393239"><ele>717.59015</ele><time>2026-05-09T22:08:29.000Z</time></trkpt>
        <trkpt lat="29.573982" lon="103.393287"><ele>718.2888</ele><time>2026-05-09T22:08:35.000Z</time></trkpt>
        <trkpt lat="29.57394" lon="103.393328"><ele>719.0442</ele><time>2026-05-09T22:08:40.000Z</time></trkpt>
        <trkpt lat="29.573901" lon="103.393355"><ele>721.0484</ele><time>2026-05-09T22:08:43.000Z</time></trkpt>
        <trkpt lat="29.573865" lon="103.393396"><ele>720.87415</ele><time>2026-05-09T22:08:48.000Z</time></trkpt>
        <trkpt lat="29.573815" lon="103.393426"><ele>719.53754</ele><time>2026-05-09T22:08:53.000Z</time></trkpt>
        <trkpt lat="29.573762" lon="103.393453"><ele>718.9189</ele><time>2026-05-09T22:08:58.000Z</time></trkpt>
        <trkpt lat="29.573714" lon="103.393476"><ele>718.3445</ele><time>2026-05-09T22:09:03.000Z</time></trkpt>
        <trkpt lat="29.57367" lon="103.393507"><ele>719.3481</ele><time>2026-05-09T22:09:07.000Z</time></trkpt>
        <trkpt lat="29.573631" lon="103.393537"><ele>720.4824</ele><time>2026-05-09T22:09:11.000Z</time></trkpt>
        <trkpt lat="29.573584" lon="103.393556"><ele>720.35504</ele><time>2026-05-09T22:09:15.000Z</time></trkpt>
        <trkpt lat="29.573536" lon="103.39358"><ele>718.9535</ele><time>2026-05-09T22:09:20.000Z</time></trkpt>
        <trkpt lat="29.573481" lon="103.393584"><ele>718.3484</ele><time>2026-05-09T22:09:25.000Z</time></trkpt>
        <trkpt lat="29.573433" lon="103.393608"><ele>719.24774</ele><time>2026-05-09T22:09:30.000Z</time></trkpt>
        <trkpt lat="29.573403" lon="103.393648"><ele>720.0131</ele><time>2026-05-09T22:09:34.000Z</time></trkpt>
        <trkpt lat="29.57335" lon="103.393673"><ele>723.78687</ele><time>2026-05-09T22:09:38.000Z</time></trkpt>
        <trkpt lat="29.573303" lon="103.393705"><ele>724.1436</ele><time>2026-05-09T22:09:42.000Z</time></trkpt>
        <trkpt lat="29.573285" lon="103.393761"><ele>724.26056</ele><time>2026-05-09T22:09:49.000Z</time></trkpt>
        <trkpt lat="29.573241" lon="103.393726"><ele>721.88824</ele><time>2026-05-09T22:10:01.000Z</time></trkpt>
        <trkpt lat="29.573209" lon="103.393766"><ele>723.6517</ele><time>2026-05-09T22:10:05.000Z</time></trkpt>
        <trkpt lat="29.573152" lon="103.393766"><ele>724.5303</ele><time>2026-05-09T22:10:11.000Z</time></trkpt>
        <trkpt lat="29.573102" lon="103.393738"><ele>727.75146</ele><time>2026-05-09T22:10:17.000Z</time></trkpt>
        <trkpt lat="29.573062" lon="103.393776"><ele>727.5679</ele><time>2026-05-09T22:10:23.000Z</time></trkpt>
        <trkpt lat="29.573047" lon="103.39384"><ele>730.1719</ele><time>2026-05-09T22:10:27.000Z</time></trkpt>
        <trkpt lat="29.573027" lon="103.393892"><ele>728.3749</ele><time>2026-05-09T22:10:31.000Z</time></trkpt>
        <trkpt lat="29.573008" lon="103.393944"><ele>728.6056</ele><time>2026-05-09T22:10:35.000Z</time></trkpt>
        <trkpt lat="29.572994" lon="103.394001"><ele>725.0583</ele><time>2026-05-09T22:10:41.000Z</time></trkpt>
        <trkpt lat="29.572982" lon="103.394056"><ele>725.13025</ele><time>2026-05-09T22:10:45.000Z</time></trkpt>
        <trkpt lat="29.572958" lon="103.394102"><ele>725.3579</ele><time>2026-05-09T22:10:48.000Z</time></trkpt>
        <trkpt lat="29.572935" lon="103.394155"><ele>723.9952</ele><time>2026-05-09T22:10:54.000Z</time></trkpt>
        <trkpt lat="29.572915" lon="103.394215"><ele>722.8806</ele><time>2026-05-09T22:10:59.000Z</time></trkpt>
        <trkpt lat="29.572896" lon="103.394272"><ele>723.081</ele><time>2026-05-09T22:11:05.000Z</time></trkpt>
        <trkpt lat="29.572868" lon="103.394314"><ele>725.93286</ele><time>2026-05-09T22:11:13.000Z</time></trkpt>
        <trkpt lat="29.572862" lon="103.394386"><ele>727.9148</ele><time>2026-05-09T22:11:15.000Z</time></trkpt>
        <trkpt lat="29.572834" lon="103.394427"><ele>731.2111</ele><time>2026-05-09T22:11:25.000Z</time></trkpt>
        <trkpt lat="29.572811" lon="103.394476"><ele>734.27454</ele><time>2026-05-09T22:11:33.000Z</time></trkpt>
        <trkpt lat="29.572787" lon="103.394521"><ele>736.0384</ele><time>2026-05-09T22:11:53.000Z</time></trkpt>
        <trkpt lat="29.572767" lon="103.394584"><ele>739.5607</ele><time>2026-05-09T22:12:09.000Z</time></trkpt>
        <trkpt lat="29.572799" lon="103.394623"><ele>738.6481</ele><time>2026-05-09T22:12:22.000Z</time></trkpt>
        <trkpt lat="29.572827" lon="103.394668"><ele>734.89545</ele><time>2026-05-09T22:12:27.000Z</time></trkpt>
        <trkpt lat="29.572843" lon="103.394718"><ele>735.735</ele><time>2026-05-09T22:12:34.000Z</time></trkpt>
        <trkpt lat="29.572881" lon="103.394747"><ele>736.703</ele><time>2026-05-09T22:12:40.000Z</time></trkpt>
        <trkpt lat="29.572918" lon="103.394784"><ele>738.51935</ele><time>2026-05-09T22:12:49.000Z</time></trkpt>
        <trkpt lat="29.57295" lon="103.394825"><ele>739.4</ele><time>2026-05-09T22:12:56.000Z</time></trkpt>
        <trkpt lat="29.572976" lon="103.394868"><ele>740.7464</ele><time>2026-05-09T22:13:02.000Z</time></trkpt>
        <trkpt lat="29.572967" lon="103.39493"><ele>742.4981</ele><time>2026-05-09T22:13:08.000Z</time></trkpt>
        <trkpt lat="29.572967" lon="103.394987"><ele>745.1614</ele><time>2026-05-09T22:13:15.000Z</time></trkpt>
        <trkpt lat="29.572968" lon="103.395059"><ele>748.64716</ele><time>2026-05-09T22:13:26.000Z</time></trkpt>
        <trkpt lat="29.572987" lon="103.395125"><ele>753.5151</ele><time>2026-05-09T22:13:37.000Z</time></trkpt>
        <trkpt lat="29.572967" lon="103.395183"><ele>754.73413</ele><time>2026-05-09T22:13:43.000Z</time></trkpt>
        <trkpt lat="29.573005" lon="103.395214"><ele>756.7388</ele><time>2026-05-09T22:13:53.000Z</time></trkpt>
        <trkpt lat="29.573034" lon="103.395258"><ele>756.5324</ele><time>2026-05-09T22:14:00.000Z</time></trkpt>
        <trkpt lat="29.57302" lon="103.395316"><ele>754.04486</ele><time>2026-05-09T22:14:04.000Z</time></trkpt>
        <trkpt lat="29.573005" lon="103.395365"><ele>754.3713</ele><time>2026-05-09T22:14:09.000Z</time></trkpt>
        <trkpt lat="29.572984" lon="103.395414"><ele>755.9135</ele><time>2026-05-09T22:14:16.000Z</time></trkpt>
        <trkpt lat="29.572949" lon="103.395459"><ele>756.19226</ele><time>2026-05-09T22:14:21.000Z</time></trkpt>
        <trkpt lat="29.572929" lon="103.39551"><ele>755.85565</ele><time>2026-05-09T22:14:25.000Z</time></trkpt>
        <trkpt lat="29.572916" lon="103.39556"><ele>756.83673</ele><time>2026-05-09T22:14:30.000Z</time></trkpt>
        <trkpt lat="29.572885" lon="103.395616"><ele>758.0976</ele><time>2026-05-09T22:14:34.000Z</time></trkpt>
        <trkpt lat="29.572872" lon="103.395673"><ele>758.75433</ele><time>2026-05-09T22:14:38.000Z</time></trkpt>
        <trkpt lat="29.572843" lon="103.395722"><ele>757.8773</ele><time>2026-05-09T22:14:42.000Z</time></trkpt>
        <trkpt lat="29.572813" lon="103.395771"><ele>758.5119</ele><time>2026-05-09T22:14:48.000Z</time></trkpt>
        <trkpt lat="29.572775" lon="103.395812"><ele>758.3219</ele><time>2026-05-09T22:14:54.000Z</time></trkpt>
        <trkpt lat="29.572749" lon="103.395864"><ele>759.71</ele><time>2026-05-09T22:14:58.000Z</time></trkpt>
        <trkpt lat="29.572697" lon="103.395877"><ele>761.4297</ele><time>2026-05-09T22:15:09.000Z</time></trkpt>
        <trkpt lat="29.572655" lon="103.395898"><ele>762.8616</ele><time>2026-05-09T22:15:14.000Z</time></trkpt>
        <trkpt lat="29.572614" lon="103.395939"><ele>763.8509</ele><time>2026-05-09T22:15:23.000Z</time></trkpt>
        <trkpt lat="29.572588" lon="103.395985"><ele>763.91656</ele><time>2026-05-09T22:15:30.000Z</time></trkpt>
        <trkpt lat="29.572548" lon="103.396014"><ele>765.90405</ele><time>2026-05-09T22:15:38.000Z</time></trkpt>
        <trkpt lat="29.57252" lon="103.396066"><ele>767.5563</ele><time>2026-05-09T22:15:44.000Z</time></trkpt>
        <trkpt lat="29.572469" lon="103.396092"><ele>769.83685</ele><time>2026-05-09T22:15:54.000Z</time></trkpt>
        <trkpt lat="29.572448" lon="103.396142"><ele>771.37354</ele><time>2026-05-09T22:16:04.000Z</time></trkpt>
        <trkpt lat="29.572431" lon="103.396199"><ele>770.40405</ele><time>2026-05-09T22:16:12.000Z</time></trkpt>
        <trkpt lat="29.572439" lon="103.396251"><ele>769.9741</ele><time>2026-05-09T22:16:19.000Z</time></trkpt>
        <trkpt lat="29.572456" lon="103.396301"><ele>771.20624</ele><time>2026-05-09T22:16:26.000Z</time></trkpt>
        <trkpt lat="29.572416" lon="103.396339"><ele>772.33844</ele><time>2026-05-09T22:16:32.000Z</time></trkpt>
        <trkpt lat="29.572381" lon="103.396373"><ele>773.52386</ele><time>2026-05-09T22:16:36.000Z</time></trkpt>
        <trkpt lat="29.572385" lon="103.396427"><ele>773.9302</ele><time>2026-05-09T22:16:42.000Z</time></trkpt>
        <trkpt lat="29.572405" lon="103.396485"><ele>772.7439</ele><time>2026-05-09T22:16:47.000Z</time></trkpt>
        <trkpt lat="29.572414" lon="103.396536"><ele>773.5619</ele><time>2026-05-09T22:16:52.000Z</time></trkpt>
        <trkpt lat="29.572402" lon="103.396591"><ele>773.3127</ele><time>2026-05-09T22:16:55.000Z</time></trkpt>
        <trkpt lat="29.572379" lon="103.396646"><ele>774.48315</ele><time>2026-05-09T22:16:59.000Z</time></trkpt>
        <trkpt lat="29.572366" lon="103.396703"><ele>776.1848</ele><time>2026-05-09T22:17:05.000Z</time></trkpt>
        <trkpt lat="29.572303" lon="103.396739"><ele>778.0138</ele><time>2026-05-09T22:17:10.000Z</time></trkpt>
        <trkpt lat="29.572252" lon="103.396729"><ele>779.466</ele><time>2026-05-09T22:17:14.000Z</time></trkpt>
        <trkpt lat="29.572207" lon="103.396735"><ele>779.7323</ele><time>2026-05-09T22:17:24.000Z</time></trkpt>
        <trkpt lat="29.57216" lon="103.396741"><ele>781.4941</ele><time>2026-05-09T22:17:33.000Z</time></trkpt>
        <trkpt lat="29.57211" lon="103.396749"><ele>784.4273</ele><time>2026-05-09T22:17:49.000Z</time></trkpt>
        <trkpt lat="29.572072" lon="103.396779"><ele>785.6597</ele><time>2026-05-09T22:18:03.000Z</time></trkpt>
        <trkpt lat="29.572014" lon="103.396784"><ele>786.8789</ele><time>2026-05-09T22:18:11.000Z</time></trkpt>
        <trkpt lat="29.571968" lon="103.396801"><ele>790.10223</ele><time>2026-05-09T22:18:17.000Z</time></trkpt>
        <trkpt lat="29.571918" lon="103.396811"><ele>790.9003</ele><time>2026-05-09T22:18:22.000Z</time></trkpt>
        <trkpt lat="29.57187" lon="103.39681"><ele>792.5429</ele><time>2026-05-09T22:18:31.000Z</time></trkpt>
        <trkpt lat="29.571843" lon="103.396852"><ele>792.8423</ele><time>2026-05-09T22:18:35.000Z</time></trkpt>
        <trkpt lat="29.571797" lon="103.396865"><ele>795.7761</ele><time>2026-05-09T22:18:43.000Z</time></trkpt>
        <trkpt lat="29.571778" lon="103.396927"><ele>797.72687</ele><time>2026-05-09T22:18:56.000Z</time></trkpt>
        <trkpt lat="29.57174" lon="103.396962"><ele>798.31616</ele><time>2026-05-09T22:19:10.000Z</time></trkpt>
        <trkpt lat="29.571734" lon="103.397015"><ele>801.3042</ele><time>2026-05-09T22:19:19.000Z</time></trkpt>
        <trkpt lat="29.571697" lon="103.39705"><ele>800.0549</ele><time>2026-05-09T22:19:26.000Z</time></trkpt>
        <trkpt lat="29.571661" lon="103.397086"><ele>801.58276</ele><time>2026-05-09T22:19:34.000Z</time></trkpt>
        <trkpt lat="29.571634" lon="103.39713"><ele>803.4496</ele><time>2026-05-09T22:19:42.000Z</time></trkpt>
        <trkpt lat="29.571613" lon="103.397177"><ele>804.57886</ele><time>2026-05-09T22:19:48.000Z</time></trkpt>
        <trkpt lat="29.571568" lon="103.397217"><ele>808.02563</ele><time>2026-05-09T22:20:00.000Z</time></trkpt>
        <trkpt lat="29.571559" lon="103.397274"><ele>810.0487</ele><time>2026-05-09T22:20:09.000Z</time></trkpt>
        <trkpt lat="29.571561" lon="103.397333"><ele>813.49493</ele><time>2026-05-09T22:20:20.000Z</time></trkpt>
        <trkpt lat="29.571511" lon="103.397375"><ele>813.87854</ele><time>2026-05-09T22:20:27.000Z</time></trkpt>
        <trkpt lat="29.571483" lon="103.397424"><ele>815.31915</ele><time>2026-05-09T22:20:35.000Z</time></trkpt>
        <trkpt lat="29.571494" lon="103.397483"><ele>816.8422</ele><time>2026-05-09T22:20:43.000Z</time></trkpt>
        <trkpt lat="29.571486" lon="103.397541"><ele>818.1493</ele><time>2026-05-09T22:20:47.000Z</time></trkpt>
        <trkpt lat="29.571494" lon="103.397595"><ele>818.49036</ele><time>2026-05-09T22:20:51.000Z</time></trkpt>
        <trkpt lat="29.571516" lon="103.397647"><ele>818.8284</ele><time>2026-05-09T22:20:59.000Z</time></trkpt>
        <trkpt lat="29.571553" lon="103.3977"><ele>819.5856</ele><time>2026-05-09T22:21:07.000Z</time></trkpt>
        <trkpt lat="29.571575" lon="103.397759"><ele>820.9504</ele><time>2026-05-09T22:21:14.000Z</time></trkpt>
        <trkpt lat="29.571578" lon="103.397824"><ele>824.8903</ele><time>2026-05-09T22:21:32.000Z</time></trkpt>
        <trkpt lat="29.571585" lon="103.39789"><ele>826.1121</ele><time>2026-05-09T22:21:43.000Z</time></trkpt>
        <trkpt lat="29.571596" lon="103.397944"><ele>827.4749</ele><time>2026-05-09T22:21:48.000Z</time></trkpt>
        <trkpt lat="29.571594" lon="103.397998"><ele>828.9045</ele><time>2026-05-09T22:21:56.000Z</time></trkpt>
        <trkpt lat="29.571614" lon="103.398051"><ele>830.2755</ele><time>2026-05-09T22:22:08.000Z</time></trkpt>
        <trkpt lat="29.571631" lon="103.398102"><ele>833.183</ele><time>2026-05-09T22:22:16.000Z</time></trkpt>
        <trkpt lat="29.571631" lon="103.398158"><ele>834.3616</ele><time>2026-05-09T22:22:23.000Z</time></trkpt>
        <trkpt lat="29.571626" lon="103.398211"><ele>835.61847</ele><time>2026-05-09T22:22:32.000Z</time></trkpt>
        <trkpt lat="29.571633" lon="103.398263"><ele>837.92584</ele><time>2026-05-09T22:22:40.000Z</time></trkpt>
        <trkpt lat="29.571639" lon="103.398332"><ele>838.8719</ele><time>2026-05-09T22:22:46.000Z</time></trkpt>
        <trkpt lat="29.571627" lon="103.398394"><ele>840.1181</ele><time>2026-05-09T22:22:56.000Z</time></trkpt>
        <trkpt lat="29.571589" lon="103.398433"><ele>842.7387</ele><time>2026-05-09T22:23:02.000Z</time></trkpt>
        <trkpt lat="29.571608" lon="103.39848"><ele>843.89655</ele><time>2026-05-09T22:23:09.000Z</time></trkpt>
        <trkpt lat="29.571622" lon="103.39853"><ele>843.84515</ele><time>2026-05-09T22:23:15.000Z</time></trkpt>
        <trkpt lat="29.571634" lon="103.398588"><ele>845.1132</ele><time>2026-05-09T22:23:21.000Z</time></trkpt>
        <trkpt lat="29.571649" lon="103.398641"><ele>847.4485</ele><time>2026-05-09T22:23:32.000Z</time></trkpt>
        <trkpt lat="29.57166" lon="103.398704"><ele>848.0445</ele><time>2026-05-09T22:23:38.000Z</time></trkpt>
        <trkpt lat="29.571685" lon="103.39877"><ele>848.89453</ele><time>2026-05-09T22:23:44.000Z</time></trkpt>
        <trkpt lat="29.571691" lon="103.398829"><ele>847.84955</ele><time>2026-05-09T22:23:49.000Z</time></trkpt>
        <trkpt lat="29.571657" lon="103.39887"><ele>845.988</ele><time>2026-05-09T22:23:54.000Z</time></trkpt>
        <trkpt lat="29.571666" lon="103.398938"><ele>844.6057</ele><time>2026-05-09T22:24:00.000Z</time></trkpt>
        <trkpt lat="29.571687" lon="103.398999"><ele>844.7861</ele><time>2026-05-09T22:24:04.000Z</time></trkpt>
        <trkpt lat="29.571715" lon="103.39905"><ele>843.429</ele><time>2026-05-09T22:24:11.000Z</time></trkpt>
        <trkpt lat="29.571719" lon="103.399103"><ele>843.0777</ele><time>2026-05-09T22:24:16.000Z</time></trkpt>
        <trkpt lat="29.571669" lon="103.399085"><ele>845.33636</ele><time>2026-05-09T22:24:24.000Z</time></trkpt>
        <trkpt lat="29.57163" lon="103.399119"><ele>845.9738</ele><time>2026-05-09T22:24:30.000Z</time></trkpt>
        <trkpt lat="29.571581" lon="103.399136"><ele>844.58936</ele><time>2026-05-09T22:24:38.000Z</time></trkpt>
        <trkpt lat="29.571535" lon="103.399147"><ele>844.471</ele><time>2026-05-09T22:24:42.000Z</time></trkpt>
        <trkpt lat="29.571528" lon="103.399205"><ele>845.6118</ele><time>2026-05-09T22:24:48.000Z</time></trkpt>
        <trkpt lat="29.57152" lon="103.399266"><ele>847.8941</ele><time>2026-05-09T22:24:54.000Z</time></trkpt>
        <trkpt lat="29.571483" lon="103.399299"><ele>848.0665</ele><time>2026-05-09T22:24:59.000Z</time></trkpt>
        <trkpt lat="29.571437" lon="103.399329"><ele>849.5327</ele><time>2026-05-09T22:25:04.000Z</time></trkpt>
        <trkpt lat="29.571385" lon="103.399349"><ele>850.7499</ele><time>2026-05-09T22:25:09.000Z</time></trkpt>
        <trkpt lat="29.57134" lon="103.399355"><ele>851.57935</ele><time>2026-05-09T22:25:13.000Z</time></trkpt>
        <trkpt lat="29.571292" lon="103.399351"><ele>852.16205</ele><time>2026-05-09T22:25:17.000Z</time></trkpt>
        <trkpt lat="29.571241" lon="103.399339"><ele>853.50354</ele><time>2026-05-09T22:25:22.000Z</time></trkpt>
        <trkpt lat="29.571189" lon="103.399331"><ele>853.546</ele><time>2026-05-09T22:25:26.000Z</time></trkpt>
        <trkpt lat="29.571137" lon="103.399324"><ele>853.59985</ele><time>2026-05-09T22:25:31.000Z</time></trkpt>
        <trkpt lat="29.571088" lon="103.399311"><ele>853.64044</ele><time>2026-05-09T22:25:36.000Z</time></trkpt>
        <trkpt lat="29.57104" lon="103.399316"><ele>850.7581</ele><time>2026-05-09T22:25:44.000Z</time></trkpt>
        <trkpt lat="29.570996" lon="103.399355"><ele>850.57166</ele><time>2026-05-09T22:25:49.000Z</time></trkpt>
        <trkpt lat="29.57096" lon="103.399391"><ele>850.0537</ele><time>2026-05-09T22:25:53.000Z</time></trkpt>
        <trkpt lat="29.570929" lon="103.399435"><ele>850.3207</ele><time>2026-05-09T22:25:57.000Z</time></trkpt>
        <trkpt lat="29.570884" lon="103.399477"><ele>849.66864</ele><time>2026-05-09T22:26:02.000Z</time></trkpt>
        <trkpt lat="29.570848" lon="103.399518"><ele>850.5007</ele><time>2026-05-09T22:26:06.000Z</time></trkpt>
        <trkpt lat="29.570797" lon="103.399557"><ele>852.0494</ele><time>2026-05-09T22:26:11.000Z</time></trkpt>
        <trkpt lat="29.57076" lon="103.399593"><ele>851.4215</ele><time>2026-05-09T22:26:16.000Z</time></trkpt>
        <trkpt lat="29.570709" lon="103.399618"><ele>851.7633</ele><time>2026-05-09T22:26:21.000Z</time></trkpt>
        <trkpt lat="29.57067" lon="103.399651"><ele>851.85223</ele><time>2026-05-09T22:26:27.000Z</time></trkpt>
        <trkpt lat="29.570639" lon="103.399695"><ele>853.2051</ele><time>2026-05-09T22:26:33.000Z</time></trkpt>
        <trkpt lat="29.570602" lon="103.399729"><ele>853.66095</ele><time>2026-05-09T22:26:38.000Z</time></trkpt>
        <trkpt lat="29.570567" lon="103.399766"><ele>853.344</ele><time>2026-05-09T22:26:43.000Z</time></trkpt>
        <trkpt lat="29.570546" lon="103.399824"><ele>852.7006</ele><time>2026-05-09T22:26:49.000Z</time></trkpt>
        <trkpt lat="29.570527" lon="103.399885"><ele>852.79834</ele><time>2026-05-09T22:26:56.000Z</time></trkpt>
        <trkpt lat="29.570491" lon="103.399925"><ele>851.9262</ele><time>2026-05-09T22:27:00.000Z</time></trkpt>
        <trkpt lat="29.570468" lon="103.39997"><ele>852.2309</ele><time>2026-05-09T22:27:05.000Z</time></trkpt>
        <trkpt lat="29.570434" lon="103.40002"><ele>852.2661</ele><time>2026-05-09T22:27:10.000Z</time></trkpt>
        <trkpt lat="29.570404" lon="103.400061"><ele>851.81335</ele><time>2026-05-09T22:27:14.000Z</time></trkpt>
        <trkpt lat="29.570381" lon="103.40011"><ele>851.2425</ele><time>2026-05-09T22:27:18.000Z</time></trkpt>
        <trkpt lat="29.57035" lon="103.400172"><ele>850.75793</ele><time>2026-05-09T22:27:25.000Z</time></trkpt>
        <trkpt lat="29.570324" lon="103.400216"><ele>849.9749</ele><time>2026-05-09T22:27:29.000Z</time></trkpt>
        <trkpt lat="29.570307" lon="103.400278"><ele>850.535</ele><time>2026-05-09T22:27:33.000Z</time></trkpt>
        <trkpt lat="29.570257" lon="103.400322"><ele>851.02747</ele><time>2026-05-09T22:27:39.000Z</time></trkpt>
        <trkpt lat="29.570224" lon="103.400371"><ele>851.194</ele><time>2026-05-09T22:27:43.000Z</time></trkpt>
        <trkpt lat="29.570208" lon="103.400444"><ele>851.53174</ele><time>2026-05-09T22:27:49.000Z</time></trkpt>
        <trkpt lat="29.570185" lon="103.400494"><ele>850.6214</ele><time>2026-05-09T22:27:54.000Z</time></trkpt>
        <trkpt lat="29.570197" lon="103.400561"><ele>850.711</ele><time>2026-05-09T22:27:59.000Z</time></trkpt>
        <trkpt lat="29.570157" lon="103.400595"><ele>850.7016</ele><time>2026-05-09T22:28:04.000Z</time></trkpt>
        <trkpt lat="29.57013" lon="103.400645"><ele>851.107</ele><time>2026-05-09T22:28:09.000Z</time></trkpt>
        <trkpt lat="29.570116" lon="103.40071"><ele>850.1685</ele><time>2026-05-09T22:28:13.000Z</time></trkpt>
        <trkpt lat="29.57012" lon="103.400763"><ele>848.7432</ele><time>2026-05-09T22:28:19.000Z</time></trkpt>
        <trkpt lat="29.570132" lon="103.400835"><ele>847.62823</ele><time>2026-05-09T22:28:21.000Z</time></trkpt>
        <trkpt lat="29.570111" lon="103.400886"><ele>841.5717</ele><time>2026-05-09T22:28:27.000Z</time></trkpt>
        <trkpt lat="29.570073" lon="103.400936"><ele>841.2962</ele><time>2026-05-09T22:28:33.000Z</time></trkpt>
        <trkpt lat="29.570031" lon="103.400971"><ele>840.99115</ele><time>2026-05-09T22:28:37.000Z</time></trkpt>
        <trkpt lat="29.569992" lon="103.401006"><ele>840.104</ele><time>2026-05-09T22:28:43.000Z</time></trkpt>
        <trkpt lat="29.569959" lon="103.401053"><ele>840.29645</ele><time>2026-05-09T22:28:47.000Z</time></trkpt>
        <trkpt lat="29.56992" lon="103.401102"><ele>839.4633</ele><time>2026-05-09T22:28:52.000Z</time></trkpt>
        <trkpt lat="29.569882" lon="103.401152"><ele>839.35706</ele><time>2026-05-09T22:28:57.000Z</time></trkpt>
        <trkpt lat="29.569864" lon="103.401206"><ele>839.4963</ele><time>2026-05-09T22:29:01.000Z</time></trkpt>
        <trkpt lat="29.569828" lon="103.401248"><ele>837.83716</ele><time>2026-05-09T22:29:07.000Z</time></trkpt>
        <trkpt lat="29.569796" lon="103.401293"><ele>838.25366</ele><time>2026-05-09T22:29:12.000Z</time></trkpt>
        <trkpt lat="29.569755" lon="103.401326"><ele>836.5155</ele><time>2026-05-09T22:29:16.000Z</time></trkpt>
        <trkpt lat="29.569706" lon="103.401366"><ele>835.9297</ele><time>2026-05-09T22:29:21.000Z</time></trkpt>
        <trkpt lat="29.569683" lon="103.401411"><ele>836.545</ele><time>2026-05-09T22:29:25.000Z</time></trkpt>
        <trkpt lat="29.569646" lon="103.401452"><ele>836.4427</ele><time>2026-05-09T22:29:29.000Z</time></trkpt>
        <trkpt lat="29.569614" lon="103.401496"><ele>837.1292</ele><time>2026-05-09T22:29:33.000Z</time></trkpt>
        <trkpt lat="29.569587" lon="103.401546"><ele>836.9054</ele><time>2026-05-09T22:29:37.000Z</time></trkpt>
        <trkpt lat="29.569538" lon="103.401579"><ele>837.7436</ele><time>2026-05-09T22:29:41.000Z</time></trkpt>
        <trkpt lat="29.569485" lon="103.401601"><ele>836.43964</ele><time>2026-05-09T22:29:45.000Z</time></trkpt>
        <trkpt lat="29.569441" lon="103.401635"><ele>835.414</ele><time>2026-05-09T22:29:49.000Z</time></trkpt>
        <trkpt lat="29.569398" lon="103.401657"><ele>834.91943</ele><time>2026-05-09T22:29:53.000Z</time></trkpt>
        <trkpt lat="29.569344" lon="103.401679"><ele>834.59436</ele><time>2026-05-09T22:29:59.000Z</time></trkpt>
        <trkpt lat="29.569291" lon="103.401709"><ele>834.9955</ele><time>2026-05-09T22:30:03.000Z</time></trkpt>
        <trkpt lat="29.56925" lon="103.401748"><ele>836.2003</ele><time>2026-05-09T22:30:07.000Z</time></trkpt>
        <trkpt lat="29.569206" lon="103.401776"><ele>835.328</ele><time>2026-05-09T22:30:11.000Z</time></trkpt>
        <trkpt lat="29.569157" lon="103.401788"><ele>836.19995</ele><time>2026-05-09T22:30:15.000Z</time></trkpt>
        <trkpt lat="29.569105" lon="103.401807"><ele>836.09424</ele><time>2026-05-09T22:30:21.000Z</time></trkpt>
        <trkpt lat="29.569055" lon="103.401805"><ele>838.1339</ele><time>2026-05-09T22:30:32.000Z</time></trkpt>
        <trkpt lat="29.569087" lon="103.401849"><ele>836.54474</ele><time>2026-05-09T22:31:05.000Z</time></trkpt>
        <trkpt lat="29.569036" lon="103.40186"><ele>835.97363</ele><time>2026-05-09T22:31:09.000Z</time></trkpt>
        <trkpt lat="29.568994" lon="103.40188"><ele>836.5199</ele><time>2026-05-09T22:31:12.000Z</time></trkpt>
        <trkpt lat="29.568971" lon="103.401932"><ele>836.8652</ele><time>2026-05-09T22:31:16.000Z</time></trkpt>
        <trkpt lat="29.568967" lon="103.401985"><ele>836.1671</ele><time>2026-05-09T22:31:21.000Z</time></trkpt>
        <trkpt lat="29.568982" lon="103.402039"><ele>837.0359</ele><time>2026-05-09T22:31:25.000Z</time></trkpt>
        <trkpt lat="29.569015" lon="103.40209"><ele>836.25146</ele><time>2026-05-09T22:31:31.000Z</time></trkpt>
        <trkpt lat="29.569021" lon="103.402147"><ele>837.0825</ele><time>2026-05-09T22:31:37.000Z</time></trkpt>
        <trkpt lat="29.569016" lon="103.402207"><ele>837.98694</ele><time>2026-05-09T22:31:42.000Z</time></trkpt>
        <trkpt lat="29.569044" lon="103.402272"><ele>837.9834</ele><time>2026-05-09T22:31:49.000Z</time></trkpt>
        <trkpt lat="29.569071" lon="103.402313"><ele>839.112</ele><time>2026-05-09T22:31:53.000Z</time></trkpt>
        <trkpt lat="29.569069" lon="103.402371"><ele>839.06287</ele><time>2026-05-09T22:31:59.000Z</time></trkpt>
        <trkpt lat="29.569077" lon="103.402425"><ele>839.0136</ele><time>2026-05-09T22:32:03.000Z</time></trkpt>
        <trkpt lat="29.569078" lon="103.402483"><ele>840.5802</ele><time>2026-05-09T22:32:07.000Z</time></trkpt>
        <trkpt lat="29.569079" lon="103.402535"><ele>840.82166</ele><time>2026-05-09T22:32:12.000Z</time></trkpt>
        <trkpt lat="29.569071" lon="103.402592"><ele>840.5231</ele><time>2026-05-09T22:32:16.000Z</time></trkpt>
        <trkpt lat="29.569042" lon="103.402641"><ele>840.5697</ele><time>2026-05-09T22:32:20.000Z</time></trkpt>
        <trkpt lat="29.568998" lon="103.402674"><ele>840.55646</ele><time>2026-05-09T22:32:24.000Z</time></trkpt>
        <trkpt lat="29.568957" lon="103.402716"><ele>841.1189</ele><time>2026-05-09T22:32:28.000Z</time></trkpt>
        <trkpt lat="29.568915" lon="103.402747"><ele>841.32367</ele><time>2026-05-09T22:32:32.000Z</time></trkpt>
        <trkpt lat="29.568873" lon="103.402778"><ele>840.97906</ele><time>2026-05-09T22:32:36.000Z</time></trkpt>
        <trkpt lat="29.568821" lon="103.402793"><ele>840.96234</ele><time>2026-05-09T22:32:40.000Z</time></trkpt>
        <trkpt lat="29.568779" lon="103.402823"><ele>841.213</ele><time>2026-05-09T22:32:44.000Z</time></trkpt>
        <trkpt lat="29.568735" lon="103.402849"><ele>841.4733</ele><time>2026-05-09T22:32:48.000Z</time></trkpt>
        <trkpt lat="29.568688" lon="103.402868"><ele>839.78546</ele><time>2026-05-09T22:32:54.000Z</time></trkpt>
        <trkpt lat="29.568639" lon="103.402896"><ele>837.28375</ele><time>2026-05-09T22:33:00.000Z</time></trkpt>
        <trkpt lat="29.568595" lon="103.402937"><ele>836.7377</ele><time>2026-05-09T22:33:05.000Z</time></trkpt>
        <trkpt lat="29.568549" lon="103.402958"><ele>835.5835</ele><time>2026-05-09T22:33:09.000Z</time></trkpt>
        <trkpt lat="29.568495" lon="103.402976"><ele>835.2931</ele><time>2026-05-09T22:33:14.000Z</time></trkpt>
        <trkpt lat="29.568457" lon="103.403007"><ele>832.5985</ele><time>2026-05-09T22:33:18.000Z</time></trkpt>
        <trkpt lat="29.568418" lon="103.403038"><ele>832.31085</ele><time>2026-05-09T22:33:23.000Z</time></trkpt>
        <trkpt lat="29.568379" lon="103.40307"><ele>830.3799</ele><time>2026-05-09T22:33:27.000Z</time></trkpt>
        <trkpt lat="29.568337" lon="103.403101"><ele>829.1343</ele><time>2026-05-09T22:33:31.000Z</time></trkpt>
        <trkpt lat="29.568297" lon="103.403139"><ele>828.00085</ele><time>2026-05-09T22:33:35.000Z</time></trkpt>
        <trkpt lat="29.568258" lon="103.403181"><ele>827.5307</ele><time>2026-05-09T22:33:39.000Z</time></trkpt>
        <trkpt lat="29.568231" lon="103.403224"><ele>827.15466</ele><time>2026-05-09T22:33:43.000Z</time></trkpt>
        <trkpt lat="29.568203" lon="103.403272"><ele>826.82166</ele><time>2026-05-09T22:33:46.000Z</time></trkpt>
        <trkpt lat="29.568177" lon="103.403322"><ele>826.20935</ele><time>2026-05-09T22:33:50.000Z</time></trkpt>
        <trkpt lat="29.568155" lon="103.403374"><ele>826.48047</ele><time>2026-05-09T22:33:54.000Z</time></trkpt>
        <trkpt lat="29.568123" lon="103.403413"><ele>826.8537</ele><time>2026-05-09T22:33:58.000Z</time></trkpt>
        <trkpt lat="29.568081" lon="103.403445"><ele>826.4594</ele><time>2026-05-09T22:34:02.000Z</time></trkpt>
        <trkpt lat="29.568048" lon="103.403498"><ele>827.2006</ele><time>2026-05-09T22:34:07.000Z</time></trkpt>
        <trkpt lat="29.568015" lon="103.403545"><ele>826.47437</ele><time>2026-05-09T22:34:12.000Z</time></trkpt>
        <trkpt lat="29.568009" lon="103.4036"><ele>827.2011</ele><time>2026-05-09T22:34:17.000Z</time></trkpt>
        <trkpt lat="29.56802" lon="103.403662"><ele>827.92914</ele><time>2026-05-09T22:34:22.000Z</time></trkpt>
        <trkpt lat="29.568047" lon="103.403719"><ele>828.4502</ele><time>2026-05-09T22:34:26.000Z</time></trkpt>
        <trkpt lat="29.568067" lon="103.403769"><ele>828.5982</ele><time>2026-05-09T22:34:30.000Z</time></trkpt>
        <trkpt lat="29.568074" lon="103.403825"><ele>827.81946</ele><time>2026-05-09T22:34:37.000Z</time></trkpt>
        <trkpt lat="29.568046" lon="103.403876"><ele>826.34894</ele><time>2026-05-09T22:34:54.000Z</time></trkpt>
        <trkpt lat="29.568038" lon="103.403927"><ele>827.7218</ele><time>2026-05-09T22:35:01.000Z</time></trkpt>
        <trkpt lat="29.568021" lon="103.403989"><ele>829.8874</ele><time>2026-05-09T22:35:07.000Z</time></trkpt>
        <trkpt lat="29.568011" lon="103.40404"><ele>830.2942</ele><time>2026-05-09T22:35:13.000Z</time></trkpt>
        <trkpt lat="29.568004" lon="103.404093"><ele>830.54193</ele><time>2026-05-09T22:35:18.000Z</time></trkpt>
        <trkpt lat="29.567978" lon="103.404148"><ele>830.8385</ele><time>2026-05-09T22:35:24.000Z</time></trkpt>
        <trkpt lat="29.567947" lon="103.404188"><ele>830.5449</ele><time>2026-05-09T22:35:30.000Z</time></trkpt>
        <trkpt lat="29.567915" lon="103.40423"><ele>831.82745</ele><time>2026-05-09T22:35:35.000Z</time></trkpt>
        <trkpt lat="29.567873" lon="103.404269"><ele>834.4846</ele><time>2026-05-09T22:35:40.000Z</time></trkpt>
        <trkpt lat="29.567832" lon="103.404304"><ele>835.3243</ele><time>2026-05-09T22:35:46.000Z</time></trkpt>
        <trkpt lat="29.567783" lon="103.40433"><ele>836.275</ele><time>2026-05-09T22:35:51.000Z</time></trkpt>
        <trkpt lat="29.567741" lon="103.404352"><ele>837.2548</ele><time>2026-05-09T22:35:56.000Z</time></trkpt>
        <trkpt lat="29.567695" lon="103.404363"><ele>837.707</ele><time>2026-05-09T22:36:01.000Z</time></trkpt>
        <trkpt lat="29.567671" lon="103.404317"><ele>837.556</ele><time>2026-05-09T22:36:04.000Z</time></trkpt>
        <trkpt lat="29.567719" lon="103.404336"><ele>835.8433</ele><time>2026-05-09T22:36:40.000Z</time></trkpt>
        <trkpt lat="29.56778" lon="103.404321"><ele>835.3307</ele><time>2026-05-09T22:36:48.000Z</time></trkpt>
        <trkpt lat="29.567824" lon="103.404287"><ele>834.46564</ele><time>2026-05-09T22:36:54.000Z</time></trkpt>
        <trkpt lat="29.567858" lon="103.404239"><ele>834.67456</ele><time>2026-05-09T22:36:58.000Z</time></trkpt>
        <trkpt lat="29.567899" lon="103.404203"><ele>834.5748</ele><time>2026-05-09T22:37:04.000Z</time></trkpt>
        <trkpt lat="29.567943" lon="103.404165"><ele>833.9717</ele><time>2026-05-09T22:37:10.000Z</time></trkpt>
        <trkpt lat="29.567959" lon="103.404106"><ele>832.0492</ele><time>2026-05-09T22:37:16.000Z</time></trkpt>
        <trkpt lat="29.567972" lon="103.404055"><ele>833.4235</ele><time>2026-05-09T22:37:20.000Z</time></trkpt>
        <trkpt lat="29.567999" lon="103.404009"><ele>829.8693</ele><time>2026-05-09T22:37:25.000Z</time></trkpt>
        <trkpt lat="29.568008" lon="103.403953"><ele>829.27673</ele><time>2026-05-09T22:37:30.000Z</time></trkpt>
        <trkpt lat="29.56801" lon="103.403896"><ele>828.3989</ele><time>2026-05-09T22:37:33.000Z</time></trkpt>
        <trkpt lat="29.568035" lon="103.403848"><ele>828.69904</ele><time>2026-05-09T22:37:36.000Z</time></trkpt>
        <trkpt lat="29.56807" lon="103.403807"><ele>829.6205</ele><time>2026-05-09T22:37:39.000Z</time></trkpt>
        <trkpt lat="29.568125" lon="103.40384"><ele>830.06805</ele><time>2026-05-09T22:37:42.000Z</time></trkpt>
        <trkpt lat="29.56813" lon="103.403894"><ele>830.1894</ele><time>2026-05-09T22:37:45.000Z</time></trkpt>
        <trkpt lat="29.56813" lon="103.403947"><ele>829.58105</ele><time>2026-05-09T22:37:48.000Z</time></trkpt>
        <trkpt lat="29.568135" lon="103.404004"><ele>827.7184</ele><time>2026-05-09T22:37:52.000Z</time></trkpt>
        <trkpt lat="29.568143" lon="103.404069"><ele>827.0544</ele><time>2026-05-09T22:37:57.000Z</time></trkpt>
        <trkpt lat="29.568136" lon="103.404123"><ele>826.35657</ele><time>2026-05-09T22:38:01.000Z</time></trkpt>
        <trkpt lat="29.56815" lon="103.404181"><ele>826.38855</ele><time>2026-05-09T22:38:05.000Z</time></trkpt>
        <trkpt lat="29.568134" lon="103.404247"><ele>824.9415</ele><time>2026-05-09T22:38:10.000Z</time></trkpt>
        <trkpt lat="29.56812" lon="103.404301"><ele>824.32477</ele><time>2026-05-09T22:38:15.000Z</time></trkpt>
        <trkpt lat="29.568093" lon="103.404344"><ele>822.1516</ele><time>2026-05-09T22:38:19.000Z</time></trkpt>
        <trkpt lat="29.568091" lon="103.404407"><ele>818.87885</ele><time>2026-05-09T22:38:26.000Z</time></trkpt>
        <trkpt lat="29.568061" lon="103.404457"><ele>818.10126</ele><time>2026-05-09T22:38:32.000Z</time></trkpt>
        <trkpt lat="29.568037" lon="103.404513"><ele>817.3806</ele><time>2026-05-09T22:38:37.000Z</time></trkpt>
        <trkpt lat="29.568022" lon="103.404569"><ele>815.93097</ele><time>2026-05-09T22:38:41.000Z</time></trkpt>
        <trkpt lat="29.567997" lon="103.404622"><ele>816.73395</ele><time>2026-05-09T22:38:46.000Z</time></trkpt>
        <trkpt lat="29.567968" lon="103.404677"><ele>816.1009</ele><time>2026-05-09T22:38:51.000Z</time></trkpt>
        <trkpt lat="29.567928" lon="103.404716"><ele>816.7822</ele><time>2026-05-09T22:38:55.000Z</time></trkpt>
        <trkpt lat="29.56788" lon="103.404749"><ele>818.15216</ele><time>2026-05-09T22:38:59.000Z</time></trkpt>
        <trkpt lat="29.567834" lon="103.404777"><ele>816.9648</ele><time>2026-05-09T22:39:03.000Z</time></trkpt>
        <trkpt lat="29.567792" lon="103.404807"><ele>817.5675</ele><time>2026-05-09T22:39:07.000Z</time></trkpt>
        <trkpt lat="29.567753" lon="103.404837"><ele>815.59576</ele><time>2026-05-09T22:39:13.000Z</time></trkpt>
        <trkpt lat="29.567706" lon="103.404838"><ele>815.06256</ele><time>2026-05-09T22:39:17.000Z</time></trkpt>
        <trkpt lat="29.56766" lon="103.404821"><ele>813.2117</ele><time>2026-05-09T22:39:21.000Z</time></trkpt>
        <trkpt lat="29.567607" lon="103.404816"><ele>812.281</ele><time>2026-05-09T22:39:25.000Z</time></trkpt>
        <trkpt lat="29.567559" lon="103.404808"><ele>809.5521</ele><time>2026-05-09T22:39:29.000Z</time></trkpt>
        <trkpt lat="29.567512" lon="103.404805"><ele>808.19086</ele><time>2026-05-09T22:39:33.000Z</time></trkpt>
        <trkpt lat="29.567464" lon="103.404832"><ele>806.5776</ele><time>2026-05-09T22:39:38.000Z</time></trkpt>
        <trkpt lat="29.567464" lon="103.404889"><ele>805.45416</ele><time>2026-05-09T22:39:42.000Z</time></trkpt>
        <trkpt lat="29.567502" lon="103.404919"><ele>804.9291</ele><time>2026-05-09T22:39:45.000Z</time></trkpt>
        <trkpt lat="29.567549" lon="103.40492"><ele>804.3859</ele><time>2026-05-09T22:39:49.000Z</time></trkpt>
        <trkpt lat="29.567596" lon="103.404918"><ele>803.977</ele><time>2026-05-09T22:39:54.000Z</time></trkpt>
        <trkpt lat="29.567644" lon="103.404933"><ele>802.33344</ele><time>2026-05-09T22:40:04.000Z</time></trkpt>
        <trkpt lat="29.567685" lon="103.404956"><ele>802.01746</ele><time>2026-05-09T22:40:10.000Z</time></trkpt>
        <trkpt lat="29.567726" lon="103.40498"><ele>802.0725</ele><time>2026-05-09T22:40:16.000Z</time></trkpt>
        <trkpt lat="29.56777" lon="103.404999"><ele>799.712</ele><time>2026-05-09T22:40:22.000Z</time></trkpt>
        <trkpt lat="29.567819" lon="103.405005"><ele>799.0026</ele><time>2026-05-09T22:40:31.000Z</time></trkpt>
        <trkpt lat="29.567866" lon="103.405015"><ele>797.18396</ele><time>2026-05-09T22:40:40.000Z</time></trkpt>
        <trkpt lat="29.567922" lon="103.405014"><ele>794.1401</ele><time>2026-05-09T22:41:25.000Z</time></trkpt>
        <trkpt lat="29.567973" lon="103.40501"><ele>795.90796</ele><time>2026-05-09T22:41:30.000Z</time></trkpt>
        <trkpt lat="29.568019" lon="103.404989"><ele>794.32086</ele><time>2026-05-09T22:41:36.000Z</time></trkpt>
        <trkpt lat="29.568049" lon="103.404949"><ele>794.77856</ele><time>2026-05-09T22:41:40.000Z</time></trkpt>
        <trkpt lat="29.568087" lon="103.40491"><ele>796.9864</ele><time>2026-05-09T22:41:45.000Z</time></trkpt>
        <trkpt lat="29.568141" lon="103.40487"><ele>798.96643</ele><time>2026-05-09T22:42:04.000Z</time></trkpt>
        <trkpt lat="29.568187" lon="103.404865"><ele>798.0519</ele><time>2026-05-09T22:42:07.000Z</time></trkpt>
        <trkpt lat="29.568244" lon="103.40483"><ele>796.4994</ele><time>2026-05-09T22:42:13.000Z</time></trkpt>
        <trkpt lat="29.56829" lon="103.404826"><ele>796.4077</ele><time>2026-05-09T22:42:16.000Z</time></trkpt>
        <trkpt lat="29.568314" lon="103.404771"><ele>796.6144</ele><time>2026-05-09T22:42:21.000Z</time></trkpt>
        <trkpt lat="29.568347" lon="103.404723"><ele>797.46497</ele><time>2026-05-09T22:42:26.000Z</time></trkpt>
        <trkpt lat="29.568377" lon="103.404659"><ele>799.1469</ele><time>2026-05-09T22:42:30.000Z</time></trkpt>
        <trkpt lat="29.568395" lon="103.404599"><ele>800.64355</ele><time>2026-05-09T22:42:36.000Z</time></trkpt>
        <trkpt lat="29.568428" lon="103.404563"><ele>799.08203</ele><time>2026-05-09T22:42:41.000Z</time></trkpt>
        <trkpt lat="29.568455" lon="103.404519"><ele>798.741</ele><time>2026-05-09T22:42:46.000Z</time></trkpt>
        <trkpt lat="29.568464" lon="103.404464"><ele>799.52576</ele><time>2026-05-09T22:42:49.000Z</time></trkpt>
        <trkpt lat="29.568508" lon="103.404444"><ele>799.364</ele><time>2026-05-09T22:42:52.000Z</time></trkpt>
        <trkpt lat="29.568525" lon="103.404393"><ele>797.34393</ele><time>2026-05-09T22:42:56.000Z</time></trkpt>
        <trkpt lat="29.568556" lon="103.404353"><ele>797.07086</ele><time>2026-05-09T22:43:01.000Z</time></trkpt>
        <trkpt lat="29.568587" lon="103.404294"><ele>796.1253</ele><time>2026-05-09T22:43:05.000Z</time></trkpt>
        <trkpt lat="29.5686" lon="103.40424"><ele>794.9065</ele><time>2026-05-09T22:43:10.000Z</time></trkpt>
        <trkpt lat="29.568623" lon="103.404187"><ele>793.7739</ele><time>2026-05-09T22:43:14.000Z</time></trkpt>
        <trkpt lat="29.568654" lon="103.404149"><ele>793.1418</ele><time>2026-05-09T22:43:17.000Z</time></trkpt>
        <trkpt lat="29.568699" lon="103.404114"><ele>791.1422</ele><time>2026-05-09T22:43:24.000Z</time></trkpt>
        <trkpt lat="29.568731" lon="103.404065"><ele>791.5476</ele><time>2026-05-09T22:43:28.000Z</time></trkpt>
        <trkpt lat="29.568763" lon="103.404007"><ele>793.18036</ele><time>2026-05-09T22:43:32.000Z</time></trkpt>
        <trkpt lat="29.568784" lon="103.403953"><ele>795.3509</ele><time>2026-05-09T22:43:36.000Z</time></trkpt>
        <trkpt lat="29.568817" lon="103.403909"><ele>793.9826</ele><time>2026-05-09T22:43:40.000Z</time></trkpt>
        <trkpt lat="29.568869" lon="103.403902"><ele>790.8123</ele><time>2026-05-09T22:43:43.000Z</time></trkpt>
        <trkpt lat="29.568913" lon="103.40388"><ele>791.73224</ele><time>2026-05-09T22:43:46.000Z</time></trkpt>
        <trkpt lat="29.568969" lon="103.403892"><ele>791.97845</ele><time>2026-05-09T22:43:49.000Z</time></trkpt>
        <trkpt lat="29.569009" lon="103.403935"><ele>790.6636</ele><time>2026-05-09T22:43:52.000Z</time></trkpt>
        <trkpt lat="29.569068" lon="103.403947"><ele>790.26886</ele><time>2026-05-09T22:43:56.000Z</time></trkpt>
        <trkpt lat="29.56912" lon="103.403973"><ele>789.72516</ele><time>2026-05-09T22:44:00.000Z</time></trkpt>
        <trkpt lat="29.569162" lon="103.404003"><ele>787.78296</ele><time>2026-05-09T22:44:04.000Z</time></trkpt>
        <trkpt lat="29.569212" lon="103.403999"><ele>787.1535</ele><time>2026-05-09T22:44:08.000Z</time></trkpt>
        <trkpt lat="29.569254" lon="103.403957"><ele>786.57825</ele><time>2026-05-09T22:44:12.000Z</time></trkpt>
        <trkpt lat="29.569286" lon="103.403914"><ele>786.03436</ele><time>2026-05-09T22:44:16.000Z</time></trkpt>
        <trkpt lat="29.569325" lon="103.403883"><ele>787.4207</ele><time>2026-05-09T22:44:19.000Z</time></trkpt>
        <trkpt lat="29.569379" lon="103.403858"><ele>788.13715</ele><time>2026-05-09T22:44:24.000Z</time></trkpt>
        <trkpt lat="29.569425" lon="103.403839"><ele>788.79047</ele><time>2026-05-09T22:44:28.000Z</time></trkpt>
        <trkpt lat="29.569472" lon="103.403808"><ele>788.562</ele><time>2026-05-09T22:44:33.000Z</time></trkpt>
        <trkpt lat="29.569515" lon="103.403789"><ele>787.9897</ele><time>2026-05-09T22:44:37.000Z</time></trkpt>
        <trkpt lat="29.569553" lon="103.403749"><ele>785.3985</ele><time>2026-05-09T22:44:42.000Z</time></trkpt>
        <trkpt lat="29.569603" lon="103.403735"><ele>780.5221</ele><time>2026-05-09T22:44:48.000Z</time></trkpt>
        <trkpt lat="29.569644" lon="103.403695"><ele>778.6405</ele><time>2026-05-09T22:44:53.000Z</time></trkpt>
        <trkpt lat="29.569679" lon="103.403644"><ele>777.8255</ele><time>2026-05-09T22:45:01.000Z</time></trkpt>
        <trkpt lat="29.56972" lon="103.403617"><ele>777.1764</ele><time>2026-05-09T22:45:06.000Z</time></trkpt>
        <trkpt lat="29.569759" lon="103.403575"><ele>777.38715</ele><time>2026-05-09T22:45:13.000Z</time></trkpt>
        <trkpt lat="29.569802" lon="103.403538"><ele>776.9864</ele><time>2026-05-09T22:45:18.000Z</time></trkpt>
        <trkpt lat="29.569827" lon="103.403481"><ele>776.0586</ele><time>2026-05-09T22:45:23.000Z</time></trkpt>
        <trkpt lat="29.569862" lon="103.403443"><ele>776.19025</ele><time>2026-05-09T22:45:29.000Z</time></trkpt>
        <trkpt lat="29.569895" lon="103.403401"><ele>775.76807</ele><time>2026-05-09T22:45:34.000Z</time></trkpt>
        <trkpt lat="29.56992" lon="103.403355"><ele>775.02313</ele><time>2026-05-09T22:45:38.000Z</time></trkpt>
        <trkpt lat="29.569964" lon="103.403338"><ele>777.5944</ele><time>2026-05-09T22:45:50.000Z</time></trkpt>
        <trkpt lat="29.569985" lon="103.403292"><ele>777.948</ele><time>2026-05-09T22:45:56.000Z</time></trkpt>
        <trkpt lat="29.570006" lon="103.403238"><ele>777.5882</ele><time>2026-05-09T22:46:02.000Z</time></trkpt>
        <trkpt lat="29.570036" lon="103.403191"><ele>775.7849</ele><time>2026-05-09T22:46:07.000Z</time></trkpt>
        <trkpt lat="29.570045" lon="103.40314"><ele>774.91223</ele><time>2026-05-09T22:46:12.000Z</time></trkpt>
        <trkpt lat="29.570059" lon="103.403086"><ele>775.3347</ele><time>2026-05-09T22:46:18.000Z</time></trkpt>
        <trkpt lat="29.570074" lon="103.40303"><ele>775.1672</ele><time>2026-05-09T22:46:21.000Z</time></trkpt>
        <trkpt lat="29.570098" lon="103.402978"><ele>775.3833</ele><time>2026-05-09T22:46:27.000Z</time></trkpt>
        <trkpt lat="29.570111" lon="103.402929"><ele>776.25934</ele><time>2026-05-09T22:46:31.000Z</time></trkpt>
        <trkpt lat="29.570149" lon="103.40289"><ele>775.39264</ele><time>2026-05-09T22:46:35.000Z</time></trkpt>
        <trkpt lat="29.570205" lon="103.402872"><ele>775.2466</ele><time>2026-05-09T22:46:38.000Z</time></trkpt>
        <trkpt lat="29.570249" lon="103.402835"><ele>776.2327</ele><time>2026-05-09T22:46:43.000Z</time></trkpt>
        <trkpt lat="29.570295" lon="103.40282"><ele>774.6105</ele><time>2026-05-09T22:46:46.000Z</time></trkpt>
        <trkpt lat="29.570353" lon="103.402787"><ele>774.81647</ele><time>2026-05-09T22:46:52.000Z</time></trkpt>
        <trkpt lat="29.570395" lon="103.402807"><ele>773.93225</ele><time>2026-05-09T22:46:56.000Z</time></trkpt>
        <trkpt lat="29.570442" lon="103.40281"><ele>773.288</ele><time>2026-05-09T22:46:59.000Z</time></trkpt>
        <trkpt lat="29.57049" lon="103.402783"><ele>774.66943</ele><time>2026-05-09T22:47:04.000Z</time></trkpt>
        <trkpt lat="29.570542" lon="103.402798"><ele>773.99536</ele><time>2026-05-09T22:47:09.000Z</time></trkpt>
        <trkpt lat="29.570587" lon="103.402805"><ele>773.17163</ele><time>2026-05-09T22:47:13.000Z</time></trkpt>
        <trkpt lat="29.570635" lon="103.402786"><ele>772.8389</ele><time>2026-05-09T22:47:17.000Z</time></trkpt>
        <trkpt lat="29.570686" lon="103.402765"><ele>771.254</ele><time>2026-05-09T22:47:21.000Z</time></trkpt>
        <trkpt lat="29.570734" lon="103.402757"><ele>769.81866</ele><time>2026-05-09T22:47:26.000Z</time></trkpt>
        <trkpt lat="29.570778" lon="103.402737"><ele>768.9771</ele><time>2026-05-09T22:47:31.000Z</time></trkpt>
        <trkpt lat="29.570826" lon="103.402722"><ele>767.7732</ele><time>2026-05-09T22:47:37.000Z</time></trkpt>
        <trkpt lat="29.570874" lon="103.402714"><ele>767.35077</ele><time>2026-05-09T22:47:41.000Z</time></trkpt>
        <trkpt lat="29.57092" lon="103.402686"><ele>767.16675</ele><time>2026-05-09T22:47:47.000Z</time></trkpt>
        <trkpt lat="29.570958" lon="103.402644"><ele>768.22943</ele><time>2026-05-09T22:47:50.000Z</time></trkpt>
        <trkpt lat="29.570979" lon="103.402598"><ele>768.78613</ele><time>2026-05-09T22:47:54.000Z</time></trkpt>
        <trkpt lat="29.571034" lon="103.402591"><ele>768.2325</ele><time>2026-05-09T22:47:58.000Z</time></trkpt>
        <trkpt lat="29.571076" lon="103.402552"><ele>769.1341</ele><time>2026-05-09T22:48:03.000Z</time></trkpt>
        <trkpt lat="29.571101" lon="103.402506"><ele>769.791</ele><time>2026-05-09T22:48:07.000Z</time></trkpt>
        <trkpt lat="29.571139" lon="103.402469"><ele>770.2418</ele><time>2026-05-09T22:48:11.000Z</time></trkpt>
        <trkpt lat="29.571178" lon="103.402428"><ele>768.5198</ele><time>2026-05-09T22:48:16.000Z</time></trkpt>
        <trkpt lat="29.571225" lon="103.402446"><ele>766.4097</ele><time>2026-05-09T22:48:26.000Z</time></trkpt>
        <trkpt lat="29.571274" lon="103.402488"><ele>767.7872</ele><time>2026-05-09T22:48:30.000Z</time></trkpt>
        <trkpt lat="29.571227" lon="103.402465"><ele>767.87115</ele><time>2026-05-09T22:48:35.000Z</time></trkpt>
        <trkpt lat="29.571258" lon="103.402415"><ele>767.174</ele><time>2026-05-09T22:49:01.000Z</time></trkpt>
        <trkpt lat="29.571268" lon="103.402363"><ele>767.2572</ele><time>2026-05-09T22:49:06.000Z</time></trkpt>
        <trkpt lat="29.571267" lon="103.402295"><ele>768.9743</ele><time>2026-05-09T22:49:11.000Z</time></trkpt>
        <trkpt lat="29.571307" lon="103.402257"><ele>769.8776</ele><time>2026-05-09T22:49:17.000Z</time></trkpt>
        <trkpt lat="29.571346" lon="103.402212"><ele>770.5211</ele><time>2026-05-09T22:49:22.000Z</time></trkpt>
        <trkpt lat="29.571365" lon="103.402146"><ele>771.04193</ele><time>2026-05-09T22:49:26.000Z</time></trkpt>
        <trkpt lat="29.571398" lon="103.402108"><ele>769.94446</ele><time>2026-05-09T22:49:31.000Z</time></trkpt>
        <trkpt lat="29.571424" lon="103.402057"><ele>770.33</ele><time>2026-05-09T22:49:36.000Z</time></trkpt>
        <trkpt lat="29.571455" lon="103.402008"><ele>770.9104</ele><time>2026-05-09T22:49:42.000Z</time></trkpt>
        <trkpt lat="29.571492" lon="103.401975"><ele>770.3286</ele><time>2026-05-09T22:49:47.000Z</time></trkpt>
        <trkpt lat="29.571527" lon="103.401932"><ele>770.1993</ele><time>2026-05-09T22:49:52.000Z</time></trkpt>
        <trkpt lat="29.571563" lon="103.401876"><ele>770.2525</ele><time>2026-05-09T22:49:56.000Z</time></trkpt>
        <trkpt lat="29.571612" lon="103.401859"><ele>771.087</ele><time>2026-05-09T22:50:01.000Z</time></trkpt>
        <trkpt lat="29.571659" lon="103.401846"><ele>772.0976</ele><time>2026-05-09T22:50:06.000Z</time></trkpt>
        <trkpt lat="29.571707" lon="103.401865"><ele>769.2711</ele><time>2026-05-09T22:50:10.000Z</time></trkpt>
        <trkpt lat="29.571759" lon="103.401874"><ele>769.8725</ele><time>2026-05-09T22:50:13.000Z</time></trkpt>
        <trkpt lat="29.571805" lon="103.401894"><ele>769.00354</ele><time>2026-05-09T22:50:17.000Z</time></trkpt>
        <trkpt lat="29.57176" lon="103.401866"><ele>765.7958</ele><time>2026-05-09T22:51:10.000Z</time></trkpt>
        <trkpt lat="29.571743" lon="103.401802"><ele>767.25397</ele><time>2026-05-09T22:51:15.000Z</time></trkpt>
      </trkseg>
  </trk>
</gpx>